<?xml version='1.0' encoding='UTF-8'?><gpx version="1.1" creator="JPX - https://github.com/jenetics/jpx" xmlns="http://www.topografix.com/GPX/1/1"><trk><trkseg><trkpt lat="43.8515242" lon="11.18741"><ele>99.0</ele><time>2026-03-28T06:13:48.348Z</time></trkpt><trkpt lat="43.8515788" lon="11.1875024"><ele>99.0</ele><time>2026-03-28T06:13:49.348Z</time></trkpt><trkpt lat="43.8516243" lon="11.1875839"><ele>99.0</ele><time>2026-03-28T06:13:50.354Z</time></trkpt><trkpt lat="43.8516683" lon="11.1876697"><ele>99.0</ele><time>2026-03-28T06:13:51.348Z</time></trkpt><trkpt lat="43.8516966" lon="11.187762"><ele>99.0</ele><time>2026-03-28T06:13:52.353Z</time></trkpt><trkpt lat="43.8516315" lon="11.1878659"><ele>99.0</ele><time>2026-03-28T06:13:54.347Z</time></trkpt><trkpt lat="43.8515627" lon="11.1878721"><ele>99.0</ele><time>2026-03-28T06:13:55.342Z</time></trkpt><trkpt lat="43.8514483" lon="11.1878008"><ele>99.0</ele><time>2026-03-28T06:13:57.35Z</time></trkpt><trkpt lat="43.8513954" lon="11.1877419"><ele>99.0</ele><time>2026-03-28T06:13:58.349Z</time></trkpt><trkpt lat="43.851342" lon="11.1876808"><ele>99.0</ele><time>2026-03-28T06:13:59.351Z</time></trkpt><trkpt lat="43.8512809" lon="11.1876135"><ele>99.0</ele><time>2026-03-28T06:14:00.35Z</time></trkpt><trkpt lat="43.8512132" lon="11.1875486"><ele>99.0</ele><time>2026-03-28T06:14:01.353Z</time></trkpt><trkpt lat="43.8511451" lon="11.1874768"><ele>99.0</ele><time>2026-03-28T06:14:02.357Z</time></trkpt><trkpt lat="43.8510688" lon="11.1874082"><ele>99.0</ele><time>2026-03-28T06:14:03.347Z</time></trkpt><trkpt lat="43.8509876" lon="11.1873343"><ele>99.0</ele><time>2026-03-28T06:14:04.355Z</time></trkpt><trkpt lat="43.8509074" lon="11.1872525"><ele>99.0</ele><time>2026-03-28T06:14:05.355Z</time></trkpt><trkpt lat="43.8508243" lon="11.1871749"><ele>99.0</ele><time>2026-03-28T06:14:06.354Z</time></trkpt><trkpt lat="43.8507458" lon="11.1870981"><ele>100.0</ele><time>2026-03-28T06:14:07.353Z</time></trkpt><trkpt lat="43.8506666" lon="11.1870176"><ele>101.0</ele><time>2026-03-28T06:14:08.352Z</time></trkpt><trkpt lat="43.8505882" lon="11.186935"><ele>102.0</ele><time>2026-03-28T06:14:09.352Z</time></trkpt><trkpt lat="43.8505089" lon="11.1868415"><ele>103.0</ele><time>2026-03-28T06:14:10.352Z</time></trkpt><trkpt lat="43.8504271" lon="11.1867489"><ele>104.0</ele><time>2026-03-28T06:14:11.352Z</time></trkpt><trkpt lat="43.8503524" lon="11.1866572"><ele>104.0</ele><time>2026-03-28T06:14:12.357Z</time></trkpt><trkpt lat="43.8502726" lon="11.1865753"><ele>104.0</ele><time>2026-03-28T06:14:13.352Z</time></trkpt><trkpt lat="43.8501894" lon="11.1864997"><ele>104.0</ele><time>2026-03-28T06:14:14.352Z</time></trkpt><trkpt lat="43.850093" lon="11.1864554"><ele>104.0</ele><time>2026-03-28T06:14:15.346Z</time></trkpt><trkpt lat="43.8499824" lon="11.1864518"><ele>104.0</ele><time>2026-03-28T06:14:16.355Z</time></trkpt><trkpt lat="43.8498741" lon="11.1864732"><ele>107.4</ele><time>2026-03-28T06:14:17.35Z</time></trkpt><trkpt lat="43.849776" lon="11.1865116"><ele>110.80000000000001</ele><time>2026-03-28T06:14:18.35Z</time></trkpt><trkpt lat="43.8496825" lon="11.1865607"><ele>114.19999999999999</ele><time>2026-03-28T06:14:19.354Z</time></trkpt><trkpt lat="43.84959" lon="11.1866121"><ele>117.6</ele><time>2026-03-28T06:14:20.351Z</time></trkpt><trkpt lat="43.8494972" lon="11.1866642"><ele>121.0</ele><time>2026-03-28T06:14:21.353Z</time></trkpt><trkpt lat="43.849407" lon="11.1867274"><ele>121.0</ele><time>2026-03-28T06:14:22.35Z</time></trkpt><trkpt lat="43.8493152" lon="11.1867972"><ele>121.0</ele><time>2026-03-28T06:14:23.348Z</time></trkpt><trkpt lat="43.8492196" lon="11.1868669"><ele>121.0</ele><time>2026-03-28T06:14:24.36Z</time></trkpt><trkpt lat="43.8491321" lon="11.1869406"><ele>121.0</ele><time>2026-03-28T06:14:25.351Z</time></trkpt><trkpt lat="43.8490501" lon="11.1870148"><ele>121.0</ele><time>2026-03-28T06:14:26.35Z</time></trkpt><trkpt lat="43.8489834" lon="11.1871001"><ele>120.8</ele><time>2026-03-28T06:14:27.351Z</time></trkpt><trkpt lat="43.8489314" lon="11.1871975"><ele>120.6</ele><time>2026-03-28T06:14:28.356Z</time></trkpt><trkpt lat="43.8488771" lon="11.1872935"><ele>120.4</ele><time>2026-03-28T06:14:29.353Z</time></trkpt><trkpt lat="43.8488261" lon="11.1873855"><ele>120.2</ele><time>2026-03-28T06:14:30.358Z</time></trkpt><trkpt lat="43.8488124" lon="11.1874841"><ele>120.0</ele><time>2026-03-28T06:14:32.35Z</time></trkpt><trkpt lat="43.8489399" lon="11.1874455"><ele>120.0</ele><time>2026-03-28T06:14:34.352Z</time></trkpt><trkpt lat="43.8489941" lon="11.1873958"><ele>120.0</ele><time>2026-03-28T06:14:35.371Z</time></trkpt><trkpt lat="43.8490944" lon="11.1873259"><ele>120.0</ele><time>2026-03-28T06:14:37.351Z</time></trkpt><trkpt lat="43.8492123" lon="11.1873222"><ele>120.0</ele><time>2026-03-28T06:14:39.354Z</time></trkpt><trkpt lat="43.8492802" lon="11.1873495"><ele>120.0</ele><time>2026-03-28T06:14:40.356Z</time></trkpt><trkpt lat="43.849349" lon="11.1873741"><ele>120.0</ele><time>2026-03-28T06:14:41.349Z</time></trkpt><trkpt lat="43.8494086" lon="11.1874112"><ele>123.16666666666667</ele><time>2026-03-28T06:14:42.362Z</time></trkpt><trkpt lat="43.8494743" lon="11.1874578"><ele>126.33333333333334</ele><time>2026-03-28T06:14:43.353Z</time></trkpt><trkpt lat="43.8495437" lon="11.1875037"><ele>129.5</ele><time>2026-03-28T06:14:44.353Z</time></trkpt><trkpt lat="43.8496398" lon="11.1876145"><ele>132.66666666666669</ele><time>2026-03-28T06:14:46.354Z</time></trkpt><trkpt lat="43.8496948" lon="11.187744"><ele>135.83333333333334</ele><time>2026-03-28T06:14:48.355Z</time></trkpt><trkpt lat="43.8496801" lon="11.1878303"><ele>139.0</ele><time>2026-03-28T06:14:49.355Z</time></trkpt><trkpt lat="43.8496808" lon="11.1880219"><ele>139.0</ele><time>2026-03-28T06:14:51.349Z</time></trkpt><trkpt lat="43.8496498" lon="11.1881121"><ele>139.0</ele><time>2026-03-28T06:14:52.354Z</time></trkpt><trkpt lat="43.8496179" lon="11.1881903"><ele>139.0</ele><time>2026-03-28T06:14:53.352Z</time></trkpt><trkpt lat="43.8495679" lon="11.1882949"><ele>139.0</ele><time>2026-03-28T06:14:54.354Z</time></trkpt><trkpt lat="43.8495116" lon="11.1883775"><ele>139.0</ele><time>2026-03-28T06:14:55.355Z</time></trkpt><trkpt lat="43.8494558" lon="11.1884415"><ele>139.0</ele><time>2026-03-28T06:14:56.352Z</time></trkpt><trkpt lat="43.8494067" lon="11.188512"><ele>141.66666666666669</ele><time>2026-03-28T06:14:57.353Z</time></trkpt><trkpt lat="43.8493563" lon="11.1885886"><ele>144.33333333333334</ele><time>2026-03-28T06:14:58.355Z</time></trkpt><trkpt lat="43.8493042" lon="11.1886749"><ele>147.0</ele><time>2026-03-28T06:14:59.355Z</time></trkpt><trkpt lat="43.8492408" lon="11.1887601"><ele>149.66666666666666</ele><time>2026-03-28T06:15:00.351Z</time></trkpt><trkpt lat="43.8491859" lon="11.1888615"><ele>152.33333333333331</ele><time>2026-03-28T06:15:01.35Z</time></trkpt><trkpt lat="43.849097" lon="11.1889399"><ele>155.0</ele><time>2026-03-28T06:15:02.357Z</time></trkpt><trkpt lat="43.8490607" lon="11.1890761"><ele>158.8</ele><time>2026-03-28T06:15:03.358Z</time></trkpt><trkpt lat="43.849011" lon="11.1891755"><ele>162.6</ele><time>2026-03-28T06:15:04.35Z</time></trkpt><trkpt lat="43.848946" lon="11.1893013"><ele>166.39999999999998</ele><time>2026-03-28T06:15:05.35Z</time></trkpt><trkpt lat="43.8488853" lon="11.1894001"><ele>170.2</ele><time>2026-03-28T06:15:06.355Z</time></trkpt><trkpt lat="43.8488276" lon="11.1894925"><ele>174.0</ele><time>2026-03-28T06:15:07.356Z</time></trkpt><trkpt lat="43.8487648" lon="11.18959"><ele>174.0</ele><time>2026-03-28T06:15:08.358Z</time></trkpt><trkpt lat="43.8487041" lon="11.1896915"><ele>174.0</ele><time>2026-03-28T06:15:09.353Z</time></trkpt><trkpt lat="43.8486537" lon="11.1897904"><ele>174.0</ele><time>2026-03-28T06:15:10.366Z</time></trkpt><trkpt lat="43.8486153" lon="11.1898909"><ele>174.0</ele><time>2026-03-28T06:15:11.356Z</time></trkpt><trkpt lat="43.8485853" lon="11.1899864"><ele>174.0</ele><time>2026-03-28T06:15:12.358Z</time></trkpt><trkpt lat="43.8485627" lon="11.190096"><ele>174.0</ele><time>2026-03-28T06:15:13.353Z</time></trkpt><trkpt lat="43.848543" lon="11.1902007"><ele>176.16666666666666</ele><time>2026-03-28T06:15:14.351Z</time></trkpt><trkpt lat="43.8485305" lon="11.1902929"><ele>178.33333333333334</ele><time>2026-03-28T06:15:15.352Z</time></trkpt><trkpt lat="43.8485152" lon="11.1904159"><ele>180.5</ele><time>2026-03-28T06:15:16.356Z</time></trkpt><trkpt lat="43.8484912" lon="11.1905266"><ele>182.66666666666669</ele><time>2026-03-28T06:15:17.352Z</time></trkpt><trkpt lat="43.8484701" lon="11.1906394"><ele>184.83333333333334</ele><time>2026-03-28T06:15:18.36Z</time></trkpt><trkpt lat="43.848444" lon="11.1907522"><ele>187.0</ele><time>2026-03-28T06:15:19.36Z</time></trkpt><trkpt lat="43.8484273" lon="11.1908565"><ele>187.0</ele><time>2026-03-28T06:15:20.35Z</time></trkpt><trkpt lat="43.8484152" lon="11.1909486"><ele>187.0</ele><time>2026-03-28T06:15:21.354Z</time></trkpt><trkpt lat="43.8484058" lon="11.1910418"><ele>187.0</ele><time>2026-03-28T06:15:22.354Z</time></trkpt><trkpt lat="43.8483906" lon="11.1911523"><ele>187.0</ele><time>2026-03-28T06:15:23.356Z</time></trkpt><trkpt lat="43.8483786" lon="11.1912661"><ele>187.0</ele><time>2026-03-28T06:15:24.351Z</time></trkpt><trkpt lat="43.8483627" lon="11.1913775"><ele>187.0</ele><time>2026-03-28T06:15:25.353Z</time></trkpt><trkpt lat="43.8483478" lon="11.1914909"><ele>185.8</ele><time>2026-03-28T06:15:26.356Z</time></trkpt><trkpt lat="43.8483349" lon="11.1916259"><ele>184.6</ele><time>2026-03-28T06:15:27.371Z</time></trkpt><trkpt lat="43.8483306" lon="11.1917471"><ele>183.4</ele><time>2026-03-28T06:15:28.375Z</time></trkpt><trkpt lat="43.8483243" lon="11.1918657"><ele>182.20000000000002</ele><time>2026-03-28T06:15:29.369Z</time></trkpt><trkpt lat="43.8483249" lon="11.1919784"><ele>181.0</ele><time>2026-03-28T06:15:30.363Z</time></trkpt><trkpt lat="43.8483444" lon="11.1921192"><ele>181.0</ele><time>2026-03-28T06:15:31.435Z</time></trkpt><trkpt lat="43.8483718" lon="11.1922563"><ele>181.0</ele><time>2026-03-28T06:15:32.345Z</time></trkpt><trkpt lat="43.8483954" lon="11.1923853"><ele>181.0</ele><time>2026-03-28T06:15:33.274Z</time></trkpt><trkpt lat="43.8484177" lon="11.1925189"><ele>181.0</ele><time>2026-03-28T06:15:34.268Z</time></trkpt><trkpt lat="43.8484353" lon="11.1926547"><ele>181.0</ele><time>2026-03-28T06:15:35.267Z</time></trkpt><trkpt lat="43.8484568" lon="11.1927748"><ele>182.16666666666669</ele><time>2026-03-28T06:15:36.275Z</time></trkpt><trkpt lat="43.8484842" lon="11.1928928"><ele>183.33333333333334</ele><time>2026-03-28T06:15:37.258Z</time></trkpt><trkpt lat="43.8485066" lon="11.1930096"><ele>184.5</ele><time>2026-03-28T06:15:38.269Z</time></trkpt><trkpt lat="43.848531" lon="11.1931156"><ele>185.66666666666666</ele><time>2026-03-28T06:15:39.358Z</time></trkpt><trkpt lat="43.8485549" lon="11.1932108"><ele>186.83333333333331</ele><time>2026-03-28T06:15:40.271Z</time></trkpt><trkpt lat="43.8485556" lon="11.1933246"><ele>188.0</ele><time>2026-03-28T06:15:42.276Z</time></trkpt><trkpt lat="43.848475" lon="11.1933893"><ele>184.83333333333331</ele><time>2026-03-28T06:15:44.271Z</time></trkpt><trkpt lat="43.8484196" lon="11.1934332"><ele>181.66666666666666</ele><time>2026-03-28T06:15:45.275Z</time></trkpt><trkpt lat="43.8483546" lon="11.1934886"><ele>178.5</ele><time>2026-03-28T06:15:46.271Z</time></trkpt><trkpt lat="43.8482838" lon="11.1935415"><ele>175.33333333333334</ele><time>2026-03-28T06:15:47.193Z</time></trkpt><trkpt lat="43.8482139" lon="11.1935892"><ele>172.16666666666669</ele><time>2026-03-28T06:15:48.098Z</time></trkpt><trkpt lat="43.8481426" lon="11.1936354"><ele>169.0</ele><time>2026-03-28T06:15:49.038Z</time></trkpt><trkpt lat="43.8480797" lon="11.1936895"><ele>169.0</ele><time>2026-03-28T06:15:50.03Z</time></trkpt><trkpt lat="43.8480106" lon="11.1937373"><ele>169.0</ele><time>2026-03-28T06:15:51.032Z</time></trkpt><trkpt lat="43.8479401" lon="11.1937923"><ele>169.0</ele><time>2026-03-28T06:15:52.036Z</time></trkpt><trkpt lat="43.8478693" lon="11.1938407"><ele>169.0</ele><time>2026-03-28T06:15:53.035Z</time></trkpt><trkpt lat="43.8477952" lon="11.1938961"><ele>169.0</ele><time>2026-03-28T06:15:54.035Z</time></trkpt><trkpt lat="43.8477189" lon="11.1939526"><ele>169.0</ele><time>2026-03-28T06:15:55.015Z</time></trkpt><trkpt lat="43.8476464" lon="11.1940125"><ele>166.0</ele><time>2026-03-28T06:15:56.023Z</time></trkpt><trkpt lat="43.8475774" lon="11.1940767"><ele>163.0</ele><time>2026-03-28T06:15:57.065Z</time></trkpt><trkpt lat="43.8475051" lon="11.1941512"><ele>160.0</ele><time>2026-03-28T06:15:58.078Z</time></trkpt><trkpt lat="43.8474301" lon="11.1942333"><ele>157.0</ele><time>2026-03-28T06:15:59.134Z</time></trkpt><trkpt lat="43.8473559" lon="11.1943126"><ele>154.0</ele><time>2026-03-28T06:16:00.078Z</time></trkpt><trkpt lat="43.8472732" lon="11.1943964"><ele>154.0</ele><time>2026-03-28T06:16:01.09Z</time></trkpt><trkpt lat="43.8471893" lon="11.1944674"><ele>154.0</ele><time>2026-03-28T06:16:02.095Z</time></trkpt><trkpt lat="43.8471069" lon="11.1945398"><ele>154.0</ele><time>2026-03-28T06:16:03.041Z</time></trkpt><trkpt lat="43.8470289" lon="11.1946068"><ele>154.0</ele><time>2026-03-28T06:16:03.974Z</time></trkpt><trkpt lat="43.846948" lon="11.194679"><ele>154.0</ele><time>2026-03-28T06:16:04.973Z</time></trkpt><trkpt lat="43.8468663" lon="11.1947525"><ele>151.0</ele><time>2026-03-28T06:16:05.967Z</time></trkpt><trkpt lat="43.8467902" lon="11.1948198"><ele>148.0</ele><time>2026-03-28T06:16:06.987Z</time></trkpt><trkpt lat="43.8467224" lon="11.19488"><ele>145.0</ele><time>2026-03-28T06:16:07.985Z</time></trkpt><trkpt lat="43.8466653" lon="11.1949377"><ele>142.0</ele><time>2026-03-28T06:16:08.956Z</time></trkpt><trkpt lat="43.8466186" lon="11.1949972"><ele>139.0</ele><time>2026-03-28T06:16:09.976Z</time></trkpt><trkpt lat="43.8465993" lon="11.1951618"><ele>136.0</ele><time>2026-03-28T06:16:12.027Z</time></trkpt><trkpt lat="43.846681" lon="11.1952756"><ele>136.0</ele><time>2026-03-28T06:16:13.979Z</time></trkpt><trkpt lat="43.8467739" lon="11.195392"><ele>136.0</ele><time>2026-03-28T06:16:15.994Z</time></trkpt><trkpt lat="43.8468663" lon="11.1955173"><ele>136.0</ele><time>2026-03-28T06:16:17.975Z</time></trkpt><trkpt lat="43.8469142" lon="11.1955801"><ele>136.0</ele><time>2026-03-28T06:16:18.978Z</time></trkpt><trkpt lat="43.8469608" lon="11.1956501"><ele>136.0</ele><time>2026-03-28T06:16:19.981Z</time></trkpt><trkpt lat="43.8470002" lon="11.1957297"><ele>138.0</ele><time>2026-03-28T06:16:20.975Z</time></trkpt><trkpt lat="43.8470087" lon="11.195888"><ele>140.0</ele><time>2026-03-28T06:16:22.959Z</time></trkpt><trkpt lat="43.8469276" lon="11.1960083"><ele>142.0</ele><time>2026-03-28T06:16:24.951Z</time></trkpt><trkpt lat="43.8468757" lon="11.1960882"><ele>144.0</ele><time>2026-03-28T06:16:25.958Z</time></trkpt><trkpt lat="43.8468203" lon="11.1961751"><ele>146.0</ele><time>2026-03-28T06:16:26.971Z</time></trkpt><trkpt lat="43.8467686" lon="11.1962636"><ele>142.33333333333331</ele><time>2026-03-28T06:16:27.97Z</time></trkpt><trkpt lat="43.8467163" lon="11.196351"><ele>138.66666666666666</ele><time>2026-03-28T06:16:28.969Z</time></trkpt><trkpt lat="43.8466729" lon="11.1964427"><ele>135.0</ele><time>2026-03-28T06:16:29.967Z</time></trkpt><trkpt lat="43.8466346" lon="11.1965338"><ele>131.33333333333334</ele><time>2026-03-28T06:16:30.972Z</time></trkpt><trkpt lat="43.8465919" lon="11.1966342"><ele>127.66666666666667</ele><time>2026-03-28T06:16:31.967Z</time></trkpt><trkpt lat="43.8465503" lon="11.1967375"><ele>124.0</ele><time>2026-03-28T06:16:32.97Z</time></trkpt><trkpt lat="43.8465178" lon="11.1968397"><ele>124.00000000000001</ele><time>2026-03-28T06:16:33.976Z</time></trkpt><trkpt lat="43.846498" lon="11.1969551"><ele>124.0</ele><time>2026-03-28T06:16:34.967Z</time></trkpt><trkpt lat="43.8464865" lon="11.1970705"><ele>124.0</ele><time>2026-03-28T06:16:35.971Z</time></trkpt><trkpt lat="43.8464793" lon="11.1971849"><ele>124.0</ele><time>2026-03-28T06:16:36.971Z</time></trkpt><trkpt lat="43.8464717" lon="11.1972991"><ele>124.00000000000001</ele><time>2026-03-28T06:16:37.975Z</time></trkpt><trkpt lat="43.8464628" lon="11.1974109"><ele>124.0</ele><time>2026-03-28T06:16:38.974Z</time></trkpt><trkpt lat="43.846451" lon="11.1975092"><ele>123.66666666666667</ele><time>2026-03-28T06:16:39.983Z</time></trkpt><trkpt lat="43.8464312" lon="11.1976042"><ele>123.33333333333334</ele><time>2026-03-28T06:16:40.972Z</time></trkpt><trkpt lat="43.8464035" lon="11.1976887"><ele>123.0</ele><time>2026-03-28T06:16:41.978Z</time></trkpt><trkpt lat="43.8463583" lon="11.1977577"><ele>122.66666666666666</ele><time>2026-03-28T06:16:42.978Z</time></trkpt><trkpt lat="43.8463105" lon="11.1978278"><ele>122.33333333333333</ele><time>2026-03-28T06:16:43.959Z</time></trkpt><trkpt lat="43.8462302" lon="11.1979494"><ele>122.0</ele><time>2026-03-28T06:16:45.982Z</time></trkpt><trkpt lat="43.846204" lon="11.1981092"><ele>120.42857142857142</ele><time>2026-03-28T06:16:47.972Z</time></trkpt><trkpt lat="43.8461956" lon="11.1982029"><ele>118.85714285714286</ele><time>2026-03-28T06:16:48.975Z</time></trkpt><trkpt lat="43.8462073" lon="11.1983026"><ele>117.28571428571428</ele><time>2026-03-28T06:16:49.97Z</time></trkpt><trkpt lat="43.8462245" lon="11.1983978"><ele>115.71428571428571</ele><time>2026-03-28T06:16:50.975Z</time></trkpt><trkpt lat="43.8462435" lon="11.198493"><ele>114.14285714285714</ele><time>2026-03-28T06:16:51.978Z</time></trkpt><trkpt lat="43.8462592" lon="11.1985851"><ele>112.57142857142857</ele><time>2026-03-28T06:16:52.976Z</time></trkpt><trkpt lat="43.8462542" lon="11.1986763"><ele>111.0</ele><time>2026-03-28T06:16:53.965Z</time></trkpt><trkpt lat="43.8462384" lon="11.1987706"><ele>111.0</ele><time>2026-03-28T06:16:54.972Z</time></trkpt><trkpt lat="43.8462171" lon="11.1988551"><ele>111.0</ele><time>2026-03-28T06:16:55.966Z</time></trkpt><trkpt lat="43.8461926" lon="11.1989359"><ele>111.0</ele><time>2026-03-28T06:16:56.968Z</time></trkpt><trkpt lat="43.8461763" lon="11.1990908"><ele>111.0</ele><time>2026-03-28T06:16:58.971Z</time></trkpt><trkpt lat="43.8461726" lon="11.1991788"><ele>111.0</ele><time>2026-03-28T06:16:59.971Z</time></trkpt><trkpt lat="43.8461716" lon="11.1992741"><ele>111.0</ele><time>2026-03-28T06:17:00.976Z</time></trkpt><trkpt lat="43.8461646" lon="11.1993783"><ele>111.0</ele><time>2026-03-28T06:17:02.025Z</time></trkpt><trkpt lat="43.8461621" lon="11.1994827"><ele>109.5</ele><time>2026-03-28T06:17:03.041Z</time></trkpt><trkpt lat="43.8461605" lon="11.1995869"><ele>108.0</ele><time>2026-03-28T06:17:04.023Z</time></trkpt><trkpt lat="43.8461563" lon="11.1996955"><ele>106.5</ele><time>2026-03-28T06:17:04.968Z</time></trkpt><trkpt lat="43.8461489" lon="11.1998098"><ele>105.0</ele><time>2026-03-28T06:17:05.964Z</time></trkpt><trkpt lat="43.8461419" lon="11.1999294"><ele>103.5</ele><time>2026-03-28T06:17:06.987Z</time></trkpt><trkpt lat="43.8461435" lon="11.200051"><ele>102.0</ele><time>2026-03-28T06:17:08.028Z</time></trkpt><trkpt lat="43.8461469" lon="11.2001636"><ele>101.85714285714286</ele><time>2026-03-28T06:17:09.028Z</time></trkpt><trkpt lat="43.8461786" lon="11.2002548"><ele>101.71428571428572</ele><time>2026-03-28T06:17:09.996Z</time></trkpt><trkpt lat="43.8462213" lon="11.2003428"><ele>101.57142857142857</ele><time>2026-03-28T06:17:11Z</time></trkpt><trkpt lat="43.8462656" lon="11.2004253"><ele>101.42857142857143</ele><time>2026-03-28T06:17:11.974Z</time></trkpt><trkpt lat="43.8462805" lon="11.2005171"><ele>101.28571428571428</ele><time>2026-03-28T06:17:12.995Z</time></trkpt><trkpt lat="43.8462648" lon="11.200614"><ele>101.14285714285714</ele><time>2026-03-28T06:17:13.982Z</time></trkpt><trkpt lat="43.8462361" lon="11.2007106"><ele>101.0</ele><time>2026-03-28T06:17:14.972Z</time></trkpt><trkpt lat="43.8462026" lon="11.200808"><ele>101.0</ele><time>2026-03-28T06:17:15.978Z</time></trkpt><trkpt lat="43.8461639" lon="11.2009238"><ele>101.0</ele><time>2026-03-28T06:17:16.978Z</time></trkpt><trkpt lat="43.8461265" lon="11.201056"><ele>101.0</ele><time>2026-03-28T06:17:17.963Z</time></trkpt><trkpt lat="43.846095" lon="11.2011756"><ele>101.0</ele><time>2026-03-28T06:17:18.98Z</time></trkpt><trkpt lat="43.8460613" lon="11.201306"><ele>101.0</ele><time>2026-03-28T06:17:19.975Z</time></trkpt><trkpt lat="43.8460392" lon="11.2014352"><ele>102.8</ele><time>2026-03-28T06:17:20.974Z</time></trkpt><trkpt lat="43.846026" lon="11.2015648"><ele>104.6</ele><time>2026-03-28T06:17:21.977Z</time></trkpt><trkpt lat="43.8460154" lon="11.2017003"><ele>106.4</ele><time>2026-03-28T06:17:22.975Z</time></trkpt><trkpt lat="43.8460111" lon="11.201838"><ele>108.2</ele><time>2026-03-28T06:17:23.977Z</time></trkpt><trkpt lat="43.8460176" lon="11.2019665"><ele>110.0</ele><time>2026-03-28T06:17:24.979Z</time></trkpt><trkpt lat="43.8460224" lon="11.2020719"><ele>110.0</ele><time>2026-03-28T06:17:25.962Z</time></trkpt><trkpt lat="43.846004" lon="11.2021593"><ele>110.0</ele><time>2026-03-28T06:17:27.979Z</time></trkpt><trkpt lat="43.8459506" lon="11.2022595"><ele>110.0</ele><time>2026-03-28T06:17:29.967Z</time></trkpt><trkpt lat="43.845882" lon="11.20239"><ele>110.0</ele><time>2026-03-28T06:17:31.974Z</time></trkpt><trkpt lat="43.8458294" lon="11.2025036"><ele>110.0</ele><time>2026-03-28T06:17:33.989Z</time></trkpt><trkpt lat="43.8457631" lon="11.2025805"><ele>108.99999999999999</ele><time>2026-03-28T06:17:35.96Z</time></trkpt><trkpt lat="43.8457018" lon="11.2026287"><ele>108.0</ele><time>2026-03-28T06:17:37.982Z</time></trkpt><trkpt lat="43.8456126" lon="11.2027002"><ele>107.0</ele><time>2026-03-28T06:17:39.978Z</time></trkpt><trkpt lat="43.8455567" lon="11.2027465"><ele>106.0</ele><time>2026-03-28T06:17:40.977Z</time></trkpt><trkpt lat="43.8455055" lon="11.2028004"><ele>105.0</ele><time>2026-03-28T06:17:41.977Z</time></trkpt><trkpt lat="43.8454466" lon="11.2028558"><ele>103.99999999999999</ele><time>2026-03-28T06:17:42.975Z</time></trkpt><trkpt lat="43.8453904" lon="11.2029041"><ele>103.0</ele><time>2026-03-28T06:17:43.975Z</time></trkpt><trkpt lat="43.8452848" lon="11.203006"><ele>103.0</ele><time>2026-03-28T06:17:45.975Z</time></trkpt><trkpt lat="43.8452315" lon="11.2031266"><ele>103.0</ele><time>2026-03-28T06:17:47.978Z</time></trkpt><trkpt lat="43.8452154" lon="11.2032932"><ele>103.0</ele><time>2026-03-28T06:17:49.981Z</time></trkpt><trkpt lat="43.8452213" lon="11.2033958"><ele>103.0</ele><time>2026-03-28T06:17:50.978Z</time></trkpt><trkpt lat="43.8452269" lon="11.2034951"><ele>103.0</ele><time>2026-03-28T06:17:51.98Z</time></trkpt><trkpt lat="43.8452418" lon="11.2036493"><ele>103.16666666666667</ele><time>2026-03-28T06:17:53.986Z</time></trkpt><trkpt lat="43.8451944" lon="11.2037163"><ele>103.33333333333334</ele><time>2026-03-28T06:17:56.977Z</time></trkpt><trkpt lat="43.8450784" lon="11.203737"><ele>103.5</ele><time>2026-03-28T06:17:58.971Z</time></trkpt><trkpt lat="43.8450115" lon="11.2037681"><ele>103.66666666666666</ele><time>2026-03-28T06:17:59.975Z</time></trkpt><trkpt lat="43.8449358" lon="11.203792"><ele>103.83333333333333</ele><time>2026-03-28T06:18:00.98Z</time></trkpt><trkpt lat="43.8448628" lon="11.2037991"><ele>104.0</ele><time>2026-03-28T06:18:01.981Z</time></trkpt><trkpt lat="43.8447857" lon="11.2037941"><ele>103.99999999999999</ele><time>2026-03-28T06:18:02.99Z</time></trkpt><trkpt lat="43.8447032" lon="11.2037927"><ele>104.0</ele><time>2026-03-28T06:18:03.982Z</time></trkpt><trkpt lat="43.84462" lon="11.2037897"><ele>104.0</ele><time>2026-03-28T06:18:04.973Z</time></trkpt><trkpt lat="43.8445404" lon="11.2037752"><ele>104.0</ele><time>2026-03-28T06:18:05.966Z</time></trkpt><trkpt lat="43.8444575" lon="11.2037606"><ele>103.99999999999999</ele><time>2026-03-28T06:18:06.994Z</time></trkpt><trkpt lat="43.8443808" lon="11.2037444"><ele>104.0</ele><time>2026-03-28T06:18:07.975Z</time></trkpt><trkpt lat="43.8442984" lon="11.2037466"><ele>102.4</ele><time>2026-03-28T06:18:09.975Z</time></trkpt><trkpt lat="43.844229" lon="11.2038585"><ele>100.80000000000001</ele><time>2026-03-28T06:18:12.973Z</time></trkpt><trkpt lat="43.8441608" lon="11.2040315"><ele>99.19999999999999</ele><time>2026-03-28T06:18:14.971Z</time></trkpt><trkpt lat="43.8441046" lon="11.2041191"><ele>97.6</ele><time>2026-03-28T06:18:15.982Z</time></trkpt><trkpt lat="43.8440423" lon="11.2042123"><ele>96.0</ele><time>2026-03-28T06:18:16.984Z</time></trkpt><trkpt lat="43.8439786" lon="11.2043201"><ele>96.0</ele><time>2026-03-28T06:18:17.979Z</time></trkpt><trkpt lat="43.8439134" lon="11.2044334"><ele>96.0</ele><time>2026-03-28T06:18:18.988Z</time></trkpt><trkpt lat="43.8438408" lon="11.2045389"><ele>96.0</ele><time>2026-03-28T06:18:19.981Z</time></trkpt><trkpt lat="43.8437626" lon="11.2046478"><ele>96.0</ele><time>2026-03-28T06:18:20.956Z</time></trkpt><trkpt lat="43.8436815" lon="11.2047464"><ele>96.0</ele><time>2026-03-28T06:18:21.979Z</time></trkpt><trkpt lat="43.8436062" lon="11.2048686"><ele>95.75</ele><time>2026-03-28T06:18:22.984Z</time></trkpt><trkpt lat="43.8435323" lon="11.2049965"><ele>95.5</ele><time>2026-03-28T06:18:23.986Z</time></trkpt><trkpt lat="43.843457" lon="11.2051264"><ele>95.25</ele><time>2026-03-28T06:18:24.982Z</time></trkpt><trkpt lat="43.8433816" lon="11.2052484"><ele>95.0</ele><time>2026-03-28T06:18:25.978Z</time></trkpt><trkpt lat="43.8433088" lon="11.2053732"><ele>95.0</ele><time>2026-03-28T06:18:26.984Z</time></trkpt><trkpt lat="43.8432427" lon="11.2054992"><ele>95.0</ele><time>2026-03-28T06:18:28.04Z</time></trkpt><trkpt lat="43.8431917" lon="11.2056358"><ele>95.0</ele><time>2026-03-28T06:18:29.027Z</time></trkpt><trkpt lat="43.8431493" lon="11.2057925"><ele>95.0</ele><time>2026-03-28T06:18:29.978Z</time></trkpt><trkpt lat="43.8431077" lon="11.2059527"><ele>95.0</ele><time>2026-03-28T06:18:30.974Z</time></trkpt><trkpt lat="43.8430643" lon="11.2061107"><ele>95.0</ele><time>2026-03-28T06:18:31.999Z</time></trkpt><trkpt lat="43.8430168" lon="11.2062709"><ele>95.0</ele><time>2026-03-28T06:18:33.023Z</time></trkpt><trkpt lat="43.8429694" lon="11.2064347"><ele>95.0</ele><time>2026-03-28T06:18:34.045Z</time></trkpt><trkpt lat="43.8429184" lon="11.206591"><ele>94.75</ele><time>2026-03-28T06:18:34.977Z</time></trkpt><trkpt lat="43.8428649" lon="11.2067201"><ele>94.5</ele><time>2026-03-28T06:18:35.976Z</time></trkpt><trkpt lat="43.8428002" lon="11.2068443"><ele>94.25</ele><time>2026-03-28T06:18:36.999Z</time></trkpt><trkpt lat="43.8427284" lon="11.2069717"><ele>94.0</ele><time>2026-03-28T06:18:38.044Z</time></trkpt><trkpt lat="43.8426464" lon="11.2071018"><ele>93.80000000000001</ele><time>2026-03-28T06:18:38.969Z</time></trkpt><trkpt lat="43.8425661" lon="11.2072163"><ele>93.60000000000001</ele><time>2026-03-28T06:18:39.966Z</time></trkpt><trkpt lat="43.8424842" lon="11.2073162"><ele>93.4</ele><time>2026-03-28T06:18:40.975Z</time></trkpt><trkpt lat="43.8424073" lon="11.207406"><ele>93.2</ele><time>2026-03-28T06:18:41.976Z</time></trkpt><trkpt lat="43.8423411" lon="11.2074871"><ele>93.0</ele><time>2026-03-28T06:18:42.973Z</time></trkpt><trkpt lat="43.8422774" lon="11.2075578"><ele>93.0</ele><time>2026-03-28T06:18:43.984Z</time></trkpt><trkpt lat="43.842216" lon="11.2076283"><ele>93.0</ele><time>2026-03-28T06:18:44.976Z</time></trkpt><trkpt lat="43.8421497" lon="11.2076768"><ele>93.0</ele><time>2026-03-28T06:18:45.982Z</time></trkpt><trkpt lat="43.8420884" lon="11.2077265"><ele>93.0</ele><time>2026-03-28T06:18:46.982Z</time></trkpt><trkpt lat="43.8420314" lon="11.2077705"><ele>93.0</ele><time>2026-03-28T06:18:47.985Z</time></trkpt><trkpt lat="43.8419444" lon="11.207872"><ele>93.0</ele><time>2026-03-28T06:18:49.975Z</time></trkpt><trkpt lat="43.8419053" lon="11.2080053"><ele>93.33333333333333</ele><time>2026-03-28T06:18:51.975Z</time></trkpt><trkpt lat="43.8419082" lon="11.2081788"><ele>93.66666666666667</ele><time>2026-03-28T06:18:53.972Z</time></trkpt><trkpt lat="43.8419026" lon="11.2082767"><ele>94.0</ele><time>2026-03-28T06:18:54.974Z</time></trkpt><trkpt lat="43.8418904" lon="11.2083714"><ele>94.33333333333334</ele><time>2026-03-28T06:18:55.984Z</time></trkpt><trkpt lat="43.8418612" lon="11.2084649"><ele>94.66666666666667</ele><time>2026-03-28T06:18:56.98Z</time></trkpt><trkpt lat="43.8418363" lon="11.2085581"><ele>95.0</ele><time>2026-03-28T06:18:57.979Z</time></trkpt><trkpt lat="43.8418117" lon="11.2086449"><ele>94.83333333333334</ele><time>2026-03-28T06:18:58.989Z</time></trkpt><trkpt lat="43.8417872" lon="11.2087346"><ele>94.66666666666667</ele><time>2026-03-28T06:18:59.968Z</time></trkpt><trkpt lat="43.8417747" lon="11.2088218"><ele>94.5</ele><time>2026-03-28T06:19:00.984Z</time></trkpt><trkpt lat="43.841795" lon="11.2089699"><ele>94.33333333333333</ele><time>2026-03-28T06:19:02.963Z</time></trkpt><trkpt lat="43.8418141" lon="11.2090791"><ele>94.16666666666666</ele><time>2026-03-28T06:19:05.988Z</time></trkpt><trkpt lat="43.8417958" lon="11.2091636"><ele>94.0</ele><time>2026-03-28T06:19:07.972Z</time></trkpt><trkpt lat="43.8417846" lon="11.2092959"><ele>94.0</ele><time>2026-03-28T06:19:09.99Z</time></trkpt><trkpt lat="43.8417771" lon="11.2094245"><ele>94.0</ele><time>2026-03-28T06:19:11.976Z</time></trkpt><trkpt lat="43.8417253" lon="11.2095395"><ele>94.0</ele><time>2026-03-28T06:19:13.972Z</time></trkpt><trkpt lat="43.8416655" lon="11.2095808"><ele>94.0</ele><time>2026-03-28T06:19:14.975Z</time></trkpt><trkpt lat="43.8415958" lon="11.2096237"><ele>94.0</ele><time>2026-03-28T06:19:15.977Z</time></trkpt><trkpt lat="43.841543" lon="11.2096783"><ele>94.0</ele><time>2026-03-28T06:19:16.986Z</time></trkpt><trkpt lat="43.8414593" lon="11.20979"><ele>94.4</ele><time>2026-03-28T06:19:18.98Z</time></trkpt><trkpt lat="43.841413" lon="11.2099129"><ele>94.80000000000001</ele><time>2026-03-28T06:19:20.969Z</time></trkpt><trkpt lat="43.8414122" lon="11.2100874"><ele>95.19999999999999</ele><time>2026-03-28T06:19:22.974Z</time></trkpt><trkpt lat="43.8414049" lon="11.2101868"><ele>95.6</ele><time>2026-03-28T06:19:23.976Z</time></trkpt><trkpt lat="43.8413915" lon="11.2102736"><ele>96.0</ele><time>2026-03-28T06:19:24.978Z</time></trkpt><trkpt lat="43.8413918" lon="11.210413"><ele>96.0</ele><time>2026-03-28T06:19:26.978Z</time></trkpt><trkpt lat="43.8414627" lon="11.2105305"><ele>96.0</ele><time>2026-03-28T06:19:28.96Z</time></trkpt><trkpt lat="43.8415123" lon="11.210609"><ele>96.0</ele><time>2026-03-28T06:19:29.998Z</time></trkpt><trkpt lat="43.8415608" lon="11.2107082"><ele>96.0</ele><time>2026-03-28T06:19:30.975Z</time></trkpt><trkpt lat="43.8416234" lon="11.2108057"><ele>96.0</ele><time>2026-03-28T06:19:31.975Z</time></trkpt><trkpt lat="43.8416812" lon="11.2108985"><ele>96.6</ele><time>2026-03-28T06:19:32.978Z</time></trkpt><trkpt lat="43.8417304" lon="11.2109855"><ele>97.19999999999999</ele><time>2026-03-28T06:19:33.987Z</time></trkpt><trkpt lat="43.8417861" lon="11.2110866"><ele>97.80000000000001</ele><time>2026-03-28T06:19:34.98Z</time></trkpt><trkpt lat="43.8418425" lon="11.211188"><ele>98.4</ele><time>2026-03-28T06:19:35.974Z</time></trkpt><trkpt lat="43.8419054" lon="11.2112925"><ele>99.0</ele><time>2026-03-28T06:19:36.991Z</time></trkpt><trkpt lat="43.8419745" lon="11.2114018"><ele>100.80000000000001</ele><time>2026-03-28T06:19:37.98Z</time></trkpt><trkpt lat="43.842041" lon="11.2115063"><ele>102.60000000000001</ele><time>2026-03-28T06:19:38.984Z</time></trkpt><trkpt lat="43.8421055" lon="11.2116142"><ele>104.4</ele><time>2026-03-28T06:19:39.975Z</time></trkpt><trkpt lat="43.8421711" lon="11.2117132"><ele>106.2</ele><time>2026-03-28T06:19:40.977Z</time></trkpt><trkpt lat="43.8422309" lon="11.2118131"><ele>108.0</ele><time>2026-03-28T06:19:41.976Z</time></trkpt><trkpt lat="43.8422878" lon="11.2119106"><ele>108.0</ele><time>2026-03-28T06:19:42.983Z</time></trkpt><trkpt lat="43.8423421" lon="11.2120036"><ele>108.0</ele><time>2026-03-28T06:19:43.979Z</time></trkpt><trkpt lat="43.8423995" lon="11.2120903"><ele>108.0</ele><time>2026-03-28T06:19:44.978Z</time></trkpt><trkpt lat="43.842462" lon="11.2121826"><ele>108.0</ele><time>2026-03-28T06:19:45.985Z</time></trkpt><trkpt lat="43.8425224" lon="11.2122815"><ele>108.0</ele><time>2026-03-28T06:19:46.977Z</time></trkpt><trkpt lat="43.8425755" lon="11.2123735"><ele>108.0</ele><time>2026-03-28T06:19:47.985Z</time></trkpt><trkpt lat="43.8426313" lon="11.2124631"><ele>109.33333333333333</ele><time>2026-03-28T06:19:48.969Z</time></trkpt><trkpt lat="43.8426833" lon="11.2125525"><ele>110.66666666666666</ele><time>2026-03-28T06:19:49.974Z</time></trkpt><trkpt lat="43.8427451" lon="11.2126479"><ele>112.0</ele><time>2026-03-28T06:19:50.983Z</time></trkpt><trkpt lat="43.8428061" lon="11.2127331"><ele>113.33333333333333</ele><time>2026-03-28T06:19:51.971Z</time></trkpt><trkpt lat="43.8428627" lon="11.2128329"><ele>114.66666666666666</ele><time>2026-03-28T06:19:52.989Z</time></trkpt><trkpt lat="43.8429172" lon="11.2129177"><ele>116.0</ele><time>2026-03-28T06:19:53.965Z</time></trkpt><trkpt lat="43.8429726" lon="11.2130045"><ele>115.99999999999999</ele><time>2026-03-28T06:19:54.965Z</time></trkpt><trkpt lat="43.843027" lon="11.2130917"><ele>116.0</ele><time>2026-03-28T06:19:55.964Z</time></trkpt><trkpt lat="43.8430791" lon="11.2131791"><ele>116.0</ele><time>2026-03-28T06:19:56.957Z</time></trkpt><trkpt lat="43.8431272" lon="11.2132558"><ele>116.0</ele><time>2026-03-28T06:19:57.982Z</time></trkpt><trkpt lat="43.8431993" lon="11.2133694"><ele>115.99999999999999</ele><time>2026-03-28T06:19:59.982Z</time></trkpt><trkpt lat="43.8432401" lon="11.2134397"><ele>116.0</ele><time>2026-03-28T06:20:01.977Z</time></trkpt><trkpt lat="43.8432591" lon="11.2135386"><ele>117.6</ele><time>2026-03-28T06:20:04.985Z</time></trkpt><trkpt lat="43.8433147" lon="11.2136345"><ele>119.19999999999999</ele><time>2026-03-28T06:20:06.974Z</time></trkpt><trkpt lat="43.8433788" lon="11.2136842"><ele>120.80000000000001</ele><time>2026-03-28T06:20:08.989Z</time></trkpt><trkpt lat="43.8434476" lon="11.2137955"><ele>122.4</ele><time>2026-03-28T06:20:10.98Z</time></trkpt><trkpt lat="43.843517" lon="11.2139006"><ele>124.0</ele><time>2026-03-28T06:20:12.983Z</time></trkpt><trkpt lat="43.8435927" lon="11.2139998"><ele>127.50000000000001</ele><time>2026-03-28T06:20:14.978Z</time></trkpt><trkpt lat="43.8436488" lon="11.2140742"><ele>131.0</ele><time>2026-03-28T06:20:16.978Z</time></trkpt><trkpt lat="43.8437041" lon="11.2141599"><ele>134.5</ele><time>2026-03-28T06:20:18.981Z</time></trkpt><trkpt lat="43.843757" lon="11.2142133"><ele>138.0</ele><time>2026-03-28T06:20:21.982Z</time></trkpt><trkpt lat="43.84382" lon="11.2142034"><ele>141.5</ele><time>2026-03-28T06:20:25.958Z</time></trkpt><trkpt lat="43.8439078" lon="11.2142247"><ele>145.0</ele><time>2026-03-28T06:20:29.984Z</time></trkpt><trkpt lat="43.8439903" lon="11.2142577"><ele>145.0</ele><time>2026-03-28T06:20:32.969Z</time></trkpt><trkpt lat="43.84408" lon="11.214283"><ele>145.0</ele><time>2026-03-28T06:20:35.974Z</time></trkpt><trkpt lat="43.8441602" lon="11.2143054"><ele>145.0</ele><time>2026-03-28T06:20:38.98Z</time></trkpt><trkpt lat="43.8442462" lon="11.2143342"><ele>145.0</ele><time>2026-03-28T06:20:42.004Z</time></trkpt><trkpt lat="43.8443389" lon="11.2143541"><ele>145.0</ele><time>2026-03-28T06:20:43.981Z</time></trkpt><trkpt lat="43.844401" lon="11.2143897"><ele>145.0</ele><time>2026-03-28T06:20:45.976Z</time></trkpt><trkpt lat="43.844493" lon="11.2143985"><ele>145.6</ele><time>2026-03-28T06:20:48.98Z</time></trkpt><trkpt lat="43.8445777" lon="11.2144399"><ele>146.2</ele><time>2026-03-28T06:20:50.982Z</time></trkpt><trkpt lat="43.8446734" lon="11.2144652"><ele>146.8</ele><time>2026-03-28T06:20:52.976Z</time></trkpt><trkpt lat="43.8447627" lon="11.2144813"><ele>147.4</ele><time>2026-03-28T06:20:54.977Z</time></trkpt><trkpt lat="43.8448851" lon="11.2145069"><ele>148.0</ele><time>2026-03-28T06:20:57.031Z</time></trkpt><trkpt lat="43.8449507" lon="11.2145152"><ele>148.0</ele><time>2026-03-28T06:20:57.981Z</time></trkpt><trkpt lat="43.8450233" lon="11.2145179"><ele>148.0</ele><time>2026-03-28T06:20:59.038Z</time></trkpt><trkpt lat="43.8451" lon="11.2145123"><ele>148.0</ele><time>2026-03-28T06:20:59.972Z</time></trkpt><trkpt lat="43.8451777" lon="11.2145185"><ele>148.0</ele><time>2026-03-28T06:21:00.976Z</time></trkpt><trkpt lat="43.8452558" lon="11.2145264"><ele>148.0</ele><time>2026-03-28T06:21:01.97Z</time></trkpt><trkpt lat="43.8453261" lon="11.2145344"><ele>148.0</ele><time>2026-03-28T06:21:03.057Z</time></trkpt><trkpt lat="43.8454049" lon="11.214535"><ele>148.5</ele><time>2026-03-28T06:21:04.034Z</time></trkpt><trkpt lat="43.8454825" lon="11.214542"><ele>149.0</ele><time>2026-03-28T06:21:04.96Z</time></trkpt><trkpt lat="43.8455624" lon="11.214548"><ele>149.5</ele><time>2026-03-28T06:21:05.945Z</time></trkpt><trkpt lat="43.8456358" lon="11.2145564"><ele>150.0</ele><time>2026-03-28T06:21:06.985Z</time></trkpt><trkpt lat="43.8457392" lon="11.2145016"><ele>150.5</ele><time>2026-03-28T06:21:08.961Z</time></trkpt><trkpt lat="43.8457791" lon="11.2144228"><ele>151.0</ele><time>2026-03-28T06:21:09.957Z</time></trkpt><trkpt lat="43.8458644" lon="11.2143228"><ele>151.0</ele><time>2026-03-28T06:21:11.974Z</time></trkpt><trkpt lat="43.8459641" lon="11.2142779"><ele>151.0</ele><time>2026-03-28T06:21:14.041Z</time></trkpt><trkpt lat="43.846083" lon="11.2142845"><ele>151.0</ele><time>2026-03-28T06:21:15.963Z</time></trkpt><trkpt lat="43.8461573" lon="11.2143057"><ele>151.0</ele><time>2026-03-28T06:21:16.949Z</time></trkpt><trkpt lat="43.8462331" lon="11.2143353"><ele>151.0</ele><time>2026-03-28T06:21:17.96Z</time></trkpt><trkpt lat="43.8463112" lon="11.2143441"><ele>151.0</ele><time>2026-03-28T06:21:18.96Z</time></trkpt><trkpt lat="43.8463967" lon="11.2143374"><ele>151.0</ele><time>2026-03-28T06:21:19.957Z</time></trkpt><trkpt lat="43.8464889" lon="11.2143318"><ele>151.0</ele><time>2026-03-28T06:21:21.008Z</time></trkpt><trkpt lat="43.8465767" lon="11.214318"><ele>151.0</ele><time>2026-03-28T06:21:21.969Z</time></trkpt><trkpt lat="43.8466629" lon="11.2143034"><ele>151.0</ele><time>2026-03-28T06:21:23.038Z</time></trkpt><trkpt lat="43.8467338" lon="11.2142975"><ele>151.0</ele><time>2026-03-28T06:21:23.966Z</time></trkpt><trkpt lat="43.8468193" lon="11.214271"><ele>151.16666666666669</ele><time>2026-03-28T06:21:25.961Z</time></trkpt><trkpt lat="43.8468985" lon="11.2142381"><ele>151.33333333333334</ele><time>2026-03-28T06:21:27.967Z</time></trkpt><trkpt lat="43.8469697" lon="11.2142106"><ele>151.5</ele><time>2026-03-28T06:21:28.959Z</time></trkpt><trkpt lat="43.8470564" lon="11.2141845"><ele>151.66666666666666</ele><time>2026-03-28T06:21:29.964Z</time></trkpt><trkpt lat="43.8471505" lon="11.2141615"><ele>151.83333333333331</ele><time>2026-03-28T06:21:30.967Z</time></trkpt><trkpt lat="43.8472417" lon="11.214147"><ele>152.0</ele><time>2026-03-28T06:21:31.975Z</time></trkpt><trkpt lat="43.8473427" lon="11.2141222"><ele>152.0</ele><time>2026-03-28T06:21:32.985Z</time></trkpt><trkpt lat="43.8474271" lon="11.2140992"><ele>152.0</ele><time>2026-03-28T06:21:33.958Z</time></trkpt><trkpt lat="43.8474963" lon="11.214081"><ele>152.0</ele><time>2026-03-28T06:21:34.959Z</time></trkpt><trkpt lat="43.8475988" lon="11.2140663"><ele>152.0</ele><time>2026-03-28T06:21:36.969Z</time></trkpt><trkpt lat="43.8476961" lon="11.2140877"><ele>152.0</ele><time>2026-03-28T06:21:38.96Z</time></trkpt><trkpt lat="43.8477866" lon="11.2141575"><ele>151.4</ele><time>2026-03-28T06:21:40.943Z</time></trkpt><trkpt lat="43.8478599" lon="11.2142548"><ele>150.79999999999998</ele><time>2026-03-28T06:21:42.959Z</time></trkpt><trkpt lat="43.8479279" lon="11.2143332"><ele>150.2</ele><time>2026-03-28T06:21:44.962Z</time></trkpt><trkpt lat="43.84801" lon="11.2143876"><ele>149.6</ele><time>2026-03-28T06:21:46.973Z</time></trkpt><trkpt lat="43.8481002" lon="11.2144619"><ele>149.0</ele><time>2026-03-28T06:21:48.96Z</time></trkpt><trkpt lat="43.8481875" lon="11.2145477"><ele>149.0</ele><time>2026-03-28T06:21:51.028Z</time></trkpt><trkpt lat="43.8482869" lon="11.2146556"><ele>149.0</ele><time>2026-03-28T06:21:52.968Z</time></trkpt><trkpt lat="43.8483313" lon="11.2147177"><ele>149.0</ele><time>2026-03-28T06:21:54.012Z</time></trkpt><trkpt lat="43.8483744" lon="11.2147827"><ele>149.0</ele><time>2026-03-28T06:21:54.969Z</time></trkpt><trkpt lat="43.8484231" lon="11.2148482"><ele>149.0</ele><time>2026-03-28T06:21:56.024Z</time></trkpt><trkpt lat="43.8484811" lon="11.2149118"><ele>149.0</ele><time>2026-03-28T06:21:57.048Z</time></trkpt><trkpt lat="43.8485455" lon="11.2149781"><ele>152.2</ele><time>2026-03-28T06:21:58.012Z</time></trkpt><trkpt lat="43.8486085" lon="11.2150472"><ele>155.4</ele><time>2026-03-28T06:21:59.021Z</time></trkpt><trkpt lat="43.848689" lon="11.2151095"><ele>158.6</ele><time>2026-03-28T06:21:59.959Z</time></trkpt><trkpt lat="43.8487783" lon="11.2151776"><ele>161.8</ele><time>2026-03-28T06:22:00.97Z</time></trkpt><trkpt lat="43.8488612" lon="11.2152391"><ele>165.0</ele><time>2026-03-28T06:22:01.967Z</time></trkpt><trkpt lat="43.8489275" lon="11.2153044"><ele>165.0</ele><time>2026-03-28T06:22:03.03Z</time></trkpt><trkpt lat="43.8489884" lon="11.2153795"><ele>165.0</ele><time>2026-03-28T06:22:04.006Z</time></trkpt><trkpt lat="43.8490658" lon="11.2154692"><ele>165.0</ele><time>2026-03-28T06:22:04.953Z</time></trkpt><trkpt lat="43.849135" lon="11.215553"><ele>165.0</ele><time>2026-03-28T06:22:05.964Z</time></trkpt><trkpt lat="43.8492042" lon="11.2156381"><ele>165.0</ele><time>2026-03-28T06:22:06.998Z</time></trkpt><trkpt lat="43.8492697" lon="11.2157117"><ele>167.66666666666666</ele><time>2026-03-28T06:22:08.01Z</time></trkpt><trkpt lat="43.8493367" lon="11.2157873"><ele>170.33333333333334</ele><time>2026-03-28T06:22:09.037Z</time></trkpt><trkpt lat="43.849403" lon="11.2158578"><ele>173.0</ele><time>2026-03-28T06:22:09.957Z</time></trkpt><trkpt lat="43.8494668" lon="11.2159236"><ele>175.66666666666669</ele><time>2026-03-28T06:22:10.964Z</time></trkpt><trkpt lat="43.8495319" lon="11.2159936"><ele>178.33333333333334</ele><time>2026-03-28T06:22:11.957Z</time></trkpt><trkpt lat="43.8495967" lon="11.2160625"><ele>181.0</ele><time>2026-03-28T06:22:13.039Z</time></trkpt><trkpt lat="43.8496636" lon="11.2161305"><ele>181.0</ele><time>2026-03-28T06:22:13.965Z</time></trkpt><trkpt lat="43.8497344" lon="11.2161949"><ele>181.0</ele><time>2026-03-28T06:22:14.963Z</time></trkpt><trkpt lat="43.849808" lon="11.2162551"><ele>181.0</ele><time>2026-03-28T06:22:15.955Z</time></trkpt><trkpt lat="43.849886" lon="11.2163265"><ele>181.0</ele><time>2026-03-28T06:22:16.963Z</time></trkpt><trkpt lat="43.8499565" lon="11.2163922"><ele>181.0</ele><time>2026-03-28T06:22:17.966Z</time></trkpt><trkpt lat="43.8500317" lon="11.2164579"><ele>181.0</ele><time>2026-03-28T06:22:18.954Z</time></trkpt><trkpt lat="43.8501068" lon="11.2165218"><ele>183.0</ele><time>2026-03-28T06:22:19.954Z</time></trkpt><trkpt lat="43.8501732" lon="11.2165874"><ele>185.0</ele><time>2026-03-28T06:22:20.971Z</time></trkpt><trkpt lat="43.8502389" lon="11.2166523"><ele>187.0</ele><time>2026-03-28T06:22:21.968Z</time></trkpt><trkpt lat="43.8503148" lon="11.2167337"><ele>189.0</ele><time>2026-03-28T06:22:22.958Z</time></trkpt><trkpt lat="43.8504023" lon="11.2168125"><ele>191.0</ele><time>2026-03-28T06:22:23.956Z</time></trkpt><trkpt lat="43.8504827" lon="11.2168805"><ele>191.0</ele><time>2026-03-28T06:22:24.965Z</time></trkpt><trkpt lat="43.8505563" lon="11.2169435"><ele>191.0</ele><time>2026-03-28T06:22:25.958Z</time></trkpt><trkpt lat="43.8506258" lon="11.2169989"><ele>191.0</ele><time>2026-03-28T06:22:26.963Z</time></trkpt><trkpt lat="43.8506944" lon="11.2170609"><ele>191.0</ele><time>2026-03-28T06:22:28.021Z</time></trkpt><trkpt lat="43.8507524" lon="11.217125"><ele>191.0</ele><time>2026-03-28T06:22:28.954Z</time></trkpt><trkpt lat="43.8508086" lon="11.217178"><ele>191.0</ele><time>2026-03-28T06:22:29.966Z</time></trkpt><trkpt lat="43.8508731" lon="11.2172387"><ele>191.0</ele><time>2026-03-28T06:22:30.962Z</time></trkpt><trkpt lat="43.8509351" lon="11.2172878"><ele>191.0</ele><time>2026-03-28T06:22:31.955Z</time></trkpt><trkpt lat="43.8509995" lon="11.2173348"><ele>191.0</ele><time>2026-03-28T06:22:32.964Z</time></trkpt><trkpt lat="43.8510611" lon="11.2173717"><ele>191.0</ele><time>2026-03-28T06:22:33.965Z</time></trkpt><trkpt lat="43.8511265" lon="11.217404"><ele>191.0</ele><time>2026-03-28T06:22:34.968Z</time></trkpt><trkpt lat="43.8511965" lon="11.2174608"><ele>191.0</ele><time>2026-03-28T06:22:36.03Z</time></trkpt><trkpt lat="43.8512697" lon="11.2175159"><ele>191.0</ele><time>2026-03-28T06:22:36.964Z</time></trkpt><trkpt lat="43.851342" lon="11.2175542"><ele>193.8</ele><time>2026-03-28T06:22:37.963Z</time></trkpt><trkpt lat="43.8514009" lon="11.2176045"><ele>196.60000000000002</ele><time>2026-03-28T06:22:39.01Z</time></trkpt><trkpt lat="43.8515252" lon="11.2177115"><ele>199.4</ele><time>2026-03-28T06:22:40.959Z</time></trkpt><trkpt lat="43.8515992" lon="11.217755"><ele>202.2</ele><time>2026-03-28T06:22:41.99Z</time></trkpt><trkpt lat="43.8516832" lon="11.2178043"><ele>205.0</ele><time>2026-03-28T06:22:43.007Z</time></trkpt><trkpt lat="43.8517643" lon="11.2178583"><ele>206.16666666666666</ele><time>2026-03-28T06:22:44.018Z</time></trkpt><trkpt lat="43.8518497" lon="11.2179152"><ele>207.33333333333331</ele><time>2026-03-28T06:22:44.961Z</time></trkpt><trkpt lat="43.8519229" lon="11.2179673"><ele>208.5</ele><time>2026-03-28T06:22:45.967Z</time></trkpt><trkpt lat="43.8519977" lon="11.218027"><ele>209.66666666666669</ele><time>2026-03-28T06:22:46.958Z</time></trkpt><trkpt lat="43.8520728" lon="11.2180775"><ele>210.83333333333334</ele><time>2026-03-28T06:22:47.968Z</time></trkpt><trkpt lat="43.8521453" lon="11.2181272"><ele>212.0</ele><time>2026-03-28T06:22:49.04Z</time></trkpt><trkpt lat="43.8522184" lon="11.2181851"><ele>212.00000000000003</ele><time>2026-03-28T06:22:49.963Z</time></trkpt><trkpt lat="43.852282" lon="11.2182369"><ele>212.0</ele><time>2026-03-28T06:22:50.966Z</time></trkpt><trkpt lat="43.8523602" lon="11.2182978"><ele>212.0</ele><time>2026-03-28T06:22:51.954Z</time></trkpt><trkpt lat="43.8524365" lon="11.218351"><ele>212.0</ele><time>2026-03-28T06:22:53.028Z</time></trkpt><trkpt lat="43.852506" lon="11.2184203"><ele>212.00000000000003</ele><time>2026-03-28T06:22:53.973Z</time></trkpt><trkpt lat="43.8525824" lon="11.2184769"><ele>212.0</ele><time>2026-03-28T06:22:54.974Z</time></trkpt><trkpt lat="43.8526658" lon="11.2185407"><ele>210.33333333333334</ele><time>2026-03-28T06:22:55.964Z</time></trkpt><trkpt lat="43.8527527" lon="11.2185941"><ele>208.66666666666669</ele><time>2026-03-28T06:22:56.968Z</time></trkpt><trkpt lat="43.8528312" lon="11.2186467"><ele>207.0</ele><time>2026-03-28T06:22:58.035Z</time></trkpt><trkpt lat="43.8529112" lon="11.218699"><ele>205.33333333333331</ele><time>2026-03-28T06:22:59.032Z</time></trkpt><trkpt lat="43.8529821" lon="11.21875"><ele>203.66666666666666</ele><time>2026-03-28T06:22:59.964Z</time></trkpt><trkpt lat="43.8530526" lon="11.2188056"><ele>202.0</ele><time>2026-03-28T06:23:00.97Z</time></trkpt><trkpt lat="43.8531198" lon="11.2188627"><ele>201.99999999999997</ele><time>2026-03-28T06:23:01.946Z</time></trkpt><trkpt lat="43.8531926" lon="11.2189212"><ele>202.0</ele><time>2026-03-28T06:23:02.965Z</time></trkpt><trkpt lat="43.8532663" lon="11.2189927"><ele>202.0</ele><time>2026-03-28T06:23:03.965Z</time></trkpt><trkpt lat="43.8533399" lon="11.2190593"><ele>202.0</ele><time>2026-03-28T06:23:04.967Z</time></trkpt><trkpt lat="43.8534147" lon="11.2191113"><ele>201.99999999999997</ele><time>2026-03-28T06:23:05.948Z</time></trkpt><trkpt lat="43.8534954" lon="11.2191747"><ele>202.0</ele><time>2026-03-28T06:23:06.968Z</time></trkpt><trkpt lat="43.8535683" lon="11.2192381"><ele>204.8</ele><time>2026-03-28T06:23:07.97Z</time></trkpt><trkpt lat="43.8536522" lon="11.2193122"><ele>207.6</ele><time>2026-03-28T06:23:08.964Z</time></trkpt><trkpt lat="43.8537331" lon="11.2193759"><ele>210.40000000000003</ele><time>2026-03-28T06:23:09.967Z</time></trkpt><trkpt lat="43.8538137" lon="11.2194362"><ele>213.20000000000002</ele><time>2026-03-28T06:23:10.969Z</time></trkpt><trkpt lat="43.8539016" lon="11.2195052"><ele>216.0</ele><time>2026-03-28T06:23:11.962Z</time></trkpt><trkpt lat="43.8539895" lon="11.2195561"><ele>216.0</ele><time>2026-03-28T06:23:12.975Z</time></trkpt><trkpt lat="43.8540675" lon="11.2196123"><ele>216.00000000000003</ele><time>2026-03-28T06:23:13.956Z</time></trkpt><trkpt lat="43.8541536" lon="11.2197036"><ele>216.00000000000003</ele><time>2026-03-28T06:23:14.967Z</time></trkpt><trkpt lat="43.8542186" lon="11.2197901"><ele>216.0</ele><time>2026-03-28T06:23:15.953Z</time></trkpt><trkpt lat="43.8542799" lon="11.2198718"><ele>216.0</ele><time>2026-03-28T06:23:16.971Z</time></trkpt><trkpt lat="43.8543591" lon="11.2199608"><ele>214.83333333333334</ele><time>2026-03-28T06:23:17.971Z</time></trkpt><trkpt lat="43.8544245" lon="11.2200543"><ele>213.66666666666669</ele><time>2026-03-28T06:23:18.97Z</time></trkpt><trkpt lat="43.8544607" lon="11.2201435"><ele>212.5</ele><time>2026-03-28T06:23:19.967Z</time></trkpt><trkpt lat="43.8544952" lon="11.220245"><ele>211.33333333333334</ele><time>2026-03-28T06:23:20.969Z</time></trkpt><trkpt lat="43.8545279" lon="11.2203596"><ele>210.16666666666669</ele><time>2026-03-28T06:23:21.974Z</time></trkpt><trkpt lat="43.8545609" lon="11.2204623"><ele>209.0</ele><time>2026-03-28T06:23:22.963Z</time></trkpt><trkpt lat="43.8545996" lon="11.220576"><ele>211.66666666666669</ele><time>2026-03-28T06:23:23.975Z</time></trkpt><trkpt lat="43.8546464" lon="11.2206685"><ele>214.33333333333334</ele><time>2026-03-28T06:23:24.972Z</time></trkpt><trkpt lat="43.8546886" lon="11.2207539"><ele>217.0</ele><time>2026-03-28T06:23:25.968Z</time></trkpt><trkpt lat="43.8547433" lon="11.220844"><ele>219.66666666666669</ele><time>2026-03-28T06:23:26.982Z</time></trkpt><trkpt lat="43.8548006" lon="11.220956"><ele>222.33333333333334</ele><time>2026-03-28T06:23:27.974Z</time></trkpt><trkpt lat="43.8548555" lon="11.2210583"><ele>225.0</ele><time>2026-03-28T06:23:28.97Z</time></trkpt><trkpt lat="43.8549106" lon="11.2211804"><ele>225.0</ele><time>2026-03-28T06:23:29.969Z</time></trkpt><trkpt lat="43.8549643" lon="11.2212881"><ele>225.0</ele><time>2026-03-28T06:23:30.97Z</time></trkpt><trkpt lat="43.8550071" lon="11.2214051"><ele>225.0</ele><time>2026-03-28T06:23:31.981Z</time></trkpt><trkpt lat="43.8550551" lon="11.2214959"><ele>225.0</ele><time>2026-03-28T06:23:32.972Z</time></trkpt><trkpt lat="43.8551024" lon="11.221589"><ele>225.0</ele><time>2026-03-28T06:23:33.969Z</time></trkpt><trkpt lat="43.8551471" lon="11.2216849"><ele>225.0</ele><time>2026-03-28T06:23:34.977Z</time></trkpt><trkpt lat="43.8551819" lon="11.2217803"><ele>225.16666666666666</ele><time>2026-03-28T06:23:36.015Z</time></trkpt><trkpt lat="43.8552195" lon="11.2219252"><ele>225.33333333333331</ele><time>2026-03-28T06:23:37.021Z</time></trkpt><trkpt lat="43.8552371" lon="11.2220291"><ele>225.5</ele><time>2026-03-28T06:23:38.03Z</time></trkpt><trkpt lat="43.8552609" lon="11.2221622"><ele>225.66666666666666</ele><time>2026-03-28T06:23:39.963Z</time></trkpt><trkpt lat="43.8552912" lon="11.2222547"><ele>225.83333333333331</ele><time>2026-03-28T06:23:43.961Z</time></trkpt><trkpt lat="43.8552295" lon="11.2222217"><ele>226.0</ele><time>2026-03-28T06:23:47.965Z</time></trkpt><trkpt lat="43.8551596" lon="11.2221651"><ele>228.49999999999997</ele><time>2026-03-28T06:23:50.976Z</time></trkpt><trkpt lat="43.8550989" lon="11.2221174"><ele>231.0</ele><time>2026-03-28T06:23:52.958Z</time></trkpt><trkpt lat="43.8550336" lon="11.2220711"><ele>233.5</ele><time>2026-03-28T06:23:54.964Z</time></trkpt><trkpt lat="43.8549572" lon="11.222011"><ele>236.0</ele><time>2026-03-28T06:23:56.966Z</time></trkpt><trkpt lat="43.8548759" lon="11.221959"><ele>238.49999999999997</ele><time>2026-03-28T06:23:58.963Z</time></trkpt><trkpt lat="43.8547838" lon="11.2219049"><ele>241.0</ele><time>2026-03-28T06:24:00.96Z</time></trkpt><trkpt lat="43.8546955" lon="11.2218273"><ele>241.0</ele><time>2026-03-28T06:24:02.962Z</time></trkpt><trkpt lat="43.8546043" lon="11.2217654"><ele>241.00000000000003</ele><time>2026-03-28T06:24:04.955Z</time></trkpt><trkpt lat="43.8545058" lon="11.221737"><ele>241.00000000000003</ele><time>2026-03-28T06:24:06.956Z</time></trkpt><trkpt lat="43.8544187" lon="11.2217064"><ele>241.0</ele><time>2026-03-28T06:24:08.956Z</time></trkpt><trkpt lat="43.8543427" lon="11.2216525"><ele>241.0</ele><time>2026-03-28T06:24:10.968Z</time></trkpt><trkpt lat="43.8542562" lon="11.2216094"><ele>246.33333333333331</ele><time>2026-03-28T06:24:12.962Z</time></trkpt><trkpt lat="43.8541954" lon="11.2215532"><ele>251.66666666666666</ele><time>2026-03-28T06:24:14.955Z</time></trkpt><trkpt lat="43.8541284" lon="11.2215709"><ele>257.0</ele><time>2026-03-28T06:24:17.95Z</time></trkpt><trkpt lat="43.8541709" lon="11.2216739"><ele>262.3333333333333</ele><time>2026-03-28T06:24:20.96Z</time></trkpt><trkpt lat="43.8542086" lon="11.2217832"><ele>267.6666666666667</ele><time>2026-03-28T06:24:24.029Z</time></trkpt><trkpt lat="43.8542158" lon="11.2218728"><ele>273.0</ele><time>2026-03-28T06:24:25.968Z</time></trkpt><trkpt lat="43.8542388" lon="11.2219956"><ele>273.0</ele><time>2026-03-28T06:24:27.953Z</time></trkpt><trkpt lat="43.8542724" lon="11.2220793"><ele>273.0</ele><time>2026-03-28T06:24:29.956Z</time></trkpt><trkpt lat="43.8543058" lon="11.2221579"><ele>273.0</ele><time>2026-03-28T06:24:32.046Z</time></trkpt><trkpt lat="43.85434" lon="11.2222531"><ele>273.0</ele><time>2026-03-28T06:24:34.035Z</time></trkpt><trkpt lat="43.8543354" lon="11.2223824"><ele>273.0</ele><time>2026-03-28T06:24:36.965Z</time></trkpt><trkpt lat="43.8543433" lon="11.2224821"><ele>273.0</ele><time>2026-03-28T06:24:39.955Z</time></trkpt><trkpt lat="43.8542601" lon="11.2224956"><ele>272.7142857142857</ele><time>2026-03-28T06:24:47.977Z</time></trkpt><trkpt lat="43.8542225" lon="11.2225716"><ele>272.42857142857144</ele><time>2026-03-28T06:24:49.939Z</time></trkpt><trkpt lat="43.85423" lon="11.2226638"><ele>272.1428571428571</ele><time>2026-03-28T06:24:52.023Z</time></trkpt><trkpt lat="43.8542563" lon="11.2227519"><ele>271.8571428571429</ele><time>2026-03-28T06:24:53.962Z</time></trkpt><trkpt lat="43.8542758" lon="11.2228394"><ele>271.57142857142856</ele><time>2026-03-28T06:24:55.969Z</time></trkpt><trkpt lat="43.8542944" lon="11.2229348"><ele>271.2857142857143</ele><time>2026-03-28T06:24:57.967Z</time></trkpt><trkpt lat="43.8543184" lon="11.2230566"><ele>271.0</ele><time>2026-03-28T06:24:59.947Z</time></trkpt><trkpt lat="43.8543335" lon="11.2231639"><ele>271.0</ele><time>2026-03-28T06:25:01.969Z</time></trkpt><trkpt lat="43.8543361" lon="11.2232673"><ele>271.0</ele><time>2026-03-28T06:25:03.962Z</time></trkpt><trkpt lat="43.8543319" lon="11.2233779"><ele>271.0</ele><time>2026-03-28T06:25:05.969Z</time></trkpt><trkpt lat="43.8543404" lon="11.223501"><ele>271.0</ele><time>2026-03-28T06:25:07.97Z</time></trkpt><trkpt lat="43.8543575" lon="11.2235954"><ele>271.0</ele><time>2026-03-28T06:25:09.965Z</time></trkpt><trkpt lat="43.8543417" lon="11.2237006"><ele>271.0</ele><time>2026-03-28T06:25:12.04Z</time></trkpt><trkpt lat="43.8543078" lon="11.2238077"><ele>277.8</ele><time>2026-03-28T06:25:13.961Z</time></trkpt><trkpt lat="43.8542619" lon="11.2239325"><ele>284.6</ele><time>2026-03-28T06:25:15.949Z</time></trkpt><trkpt lat="43.8542054" lon="11.2240492"><ele>291.4</ele><time>2026-03-28T06:25:17.967Z</time></trkpt><trkpt lat="43.8541619" lon="11.2241914"><ele>298.2</ele><time>2026-03-28T06:25:19.97Z</time></trkpt><trkpt lat="43.8541313" lon="11.2243664"><ele>305.0</ele><time>2026-03-28T06:25:22.008Z</time></trkpt><trkpt lat="43.8541194" lon="11.2245167"><ele>306.1666666666667</ele><time>2026-03-28T06:25:24.027Z</time></trkpt><trkpt lat="43.8541197" lon="11.2246404"><ele>307.33333333333337</ele><time>2026-03-28T06:25:25.965Z</time></trkpt><trkpt lat="43.8541278" lon="11.2247519"><ele>308.5</ele><time>2026-03-28T06:25:27.958Z</time></trkpt><trkpt lat="43.8541224" lon="11.2248597"><ele>309.6666666666667</ele><time>2026-03-28T06:25:29.967Z</time></trkpt><trkpt lat="43.8541176" lon="11.2249646"><ele>310.8333333333333</ele><time>2026-03-28T06:25:31.962Z</time></trkpt><trkpt lat="43.8541021" lon="11.2250706"><ele>312.0</ele><time>2026-03-28T06:25:33.969Z</time></trkpt><trkpt lat="43.85408" lon="11.2251814"><ele>312.8333333333333</ele><time>2026-03-28T06:25:35.961Z</time></trkpt><trkpt lat="43.8540639" lon="11.2252828"><ele>313.6666666666667</ele><time>2026-03-28T06:25:38.028Z</time></trkpt><trkpt lat="43.8540511" lon="11.2253772"><ele>314.5</ele><time>2026-03-28T06:25:39.959Z</time></trkpt><trkpt lat="43.8540086" lon="11.2254689"><ele>315.33333333333337</ele><time>2026-03-28T06:25:42.967Z</time></trkpt><trkpt lat="43.8539798" lon="11.2255533"><ele>316.1666666666667</ele><time>2026-03-28T06:25:45.957Z</time></trkpt><trkpt lat="43.8539481" lon="11.2256538"><ele>317.0</ele><time>2026-03-28T06:25:48.967Z</time></trkpt><trkpt lat="43.8539278" lon="11.2257743"><ele>317.6666666666667</ele><time>2026-03-28T06:25:51.94Z</time></trkpt><trkpt lat="43.8539042" lon="11.225936"><ele>318.33333333333337</ele><time>2026-03-28T06:25:55.962Z</time></trkpt><trkpt lat="43.8538322" lon="11.2259432"><ele>319.0</ele><time>2026-03-28T06:26:01.963Z</time></trkpt><trkpt lat="43.853771" lon="11.225895"><ele>319.6666666666667</ele><time>2026-03-28T06:26:05.957Z</time></trkpt><trkpt lat="43.8537008" lon="11.2259532"><ele>320.3333333333333</ele><time>2026-03-28T06:26:08.963Z</time></trkpt><trkpt lat="43.8536757" lon="11.2260533"><ele>321.0</ele><time>2026-03-28T06:26:12.962Z</time></trkpt><trkpt lat="43.8536567" lon="11.226157"><ele>321.0</ele><time>2026-03-28T06:26:15.964Z</time></trkpt><trkpt lat="43.8536288" lon="11.226248"><ele>321.0</ele><time>2026-03-28T06:26:17.958Z</time></trkpt><trkpt lat="43.8535826" lon="11.2263553"><ele>321.0</ele><time>2026-03-28T06:26:19.957Z</time></trkpt><trkpt lat="43.85355" lon="11.2264456"><ele>321.0</ele><time>2026-03-28T06:26:21.99Z</time></trkpt><trkpt lat="43.8535401" lon="11.2265375"><ele>321.0</ele><time>2026-03-28T06:26:23.959Z</time></trkpt><trkpt lat="43.8535416" lon="11.2266432"><ele>321.0</ele><time>2026-03-28T06:26:25.967Z</time></trkpt><trkpt lat="43.8535522" lon="11.2267701"><ele>321.6</ele><time>2026-03-28T06:26:27.964Z</time></trkpt><trkpt lat="43.8535435" lon="11.2269265"><ele>322.20000000000005</ele><time>2026-03-28T06:26:29.959Z</time></trkpt><trkpt lat="43.8535132" lon="11.2270637"><ele>322.79999999999995</ele><time>2026-03-28T06:26:31.964Z</time></trkpt><trkpt lat="43.8534645" lon="11.2271981"><ele>323.4</ele><time>2026-03-28T06:26:33.967Z</time></trkpt><trkpt lat="43.8534273" lon="11.2273142"><ele>324.0</ele><time>2026-03-28T06:26:36.961Z</time></trkpt><trkpt lat="43.8534162" lon="11.2274048"><ele>330.0</ele><time>2026-03-28T06:26:38.957Z</time></trkpt><trkpt lat="43.8533911" lon="11.2274966"><ele>336.0</ele><time>2026-03-28T06:26:40.952Z</time></trkpt><trkpt lat="43.8533599" lon="11.2275737"><ele>342.0</ele><time>2026-03-28T06:26:42.967Z</time></trkpt><trkpt lat="43.8533237" lon="11.2276575"><ele>348.0</ele><time>2026-03-28T06:26:44.955Z</time></trkpt><trkpt lat="43.8532916" lon="11.227742"><ele>354.0</ele><time>2026-03-28T06:26:46.957Z</time></trkpt><trkpt lat="43.8532497" lon="11.227842"><ele>360.0</ele><time>2026-03-28T06:26:49.957Z</time></trkpt><trkpt lat="43.8532099" lon="11.2279279"><ele>366.0</ele><time>2026-03-28T06:26:52.949Z</time></trkpt><trkpt lat="43.8531842" lon="11.2280409"><ele>366.0</ele><time>2026-03-28T06:26:55.96Z</time></trkpt><trkpt lat="43.8531829" lon="11.2279429"><ele>366.0</ele><time>2026-03-28T06:27:00.943Z</time></trkpt><trkpt lat="43.8531743" lon="11.2278068"><ele>366.0</ele><time>2026-03-28T06:27:02.965Z</time></trkpt><trkpt lat="43.8531524" lon="11.2276928"><ele>366.0</ele><time>2026-03-28T06:27:04.97Z</time></trkpt><trkpt lat="43.8531073" lon="11.2275684"><ele>366.0</ele><time>2026-03-28T06:27:06.968Z</time></trkpt><trkpt lat="43.8530802" lon="11.227429"><ele>365.4</ele><time>2026-03-28T06:27:08.95Z</time></trkpt><trkpt lat="43.853061" lon="11.2272772"><ele>364.8</ele><time>2026-03-28T06:27:10.953Z</time></trkpt><trkpt lat="43.8530471" lon="11.2271493"><ele>364.2</ele><time>2026-03-28T06:27:12.962Z</time></trkpt><trkpt lat="43.8530299" lon="11.2269996"><ele>363.59999999999997</ele><time>2026-03-28T06:27:14.978Z</time></trkpt><trkpt lat="43.8530038" lon="11.226855"><ele>363.0</ele><time>2026-03-28T06:27:16.966Z</time></trkpt><trkpt lat="43.8529797" lon="11.2267335"><ele>363.0</ele><time>2026-03-28T06:27:18.969Z</time></trkpt><trkpt lat="43.8529617" lon="11.2266225"><ele>363.0</ele><time>2026-03-28T06:27:20.96Z</time></trkpt><trkpt lat="43.8529463" lon="11.226532"><ele>363.0</ele><time>2026-03-28T06:27:22.96Z</time></trkpt><trkpt lat="43.8529172" lon="11.2264293"><ele>363.0</ele><time>2026-03-28T06:27:24.952Z</time></trkpt><trkpt lat="43.8528836" lon="11.2262884"><ele>363.0</ele><time>2026-03-28T06:27:26.971Z</time></trkpt><trkpt lat="43.852851" lon="11.2261783"><ele>363.0</ele><time>2026-03-28T06:27:28.95Z</time></trkpt><trkpt lat="43.8528099" lon="11.2260736"><ele>362.2</ele><time>2026-03-28T06:27:30.958Z</time></trkpt><trkpt lat="43.8527689" lon="11.2259623"><ele>361.4</ele><time>2026-03-28T06:27:32.955Z</time></trkpt><trkpt lat="43.8527382" lon="11.2258364"><ele>360.59999999999997</ele><time>2026-03-28T06:27:34.964Z</time></trkpt><trkpt lat="43.8527146" lon="11.2257132"><ele>359.79999999999995</ele><time>2026-03-28T06:27:36.956Z</time></trkpt><trkpt lat="43.8527173" lon="11.2255844"><ele>359.0</ele><time>2026-03-28T06:27:39.958Z</time></trkpt><trkpt lat="43.8527157" lon="11.2254524"><ele>359.0</ele><time>2026-03-28T06:27:42.965Z</time></trkpt><trkpt lat="43.8527134" lon="11.2253592"><ele>359.0</ele><time>2026-03-28T06:27:44.976Z</time></trkpt><trkpt lat="43.8527056" lon="11.2252484"><ele>359.0</ele><time>2026-03-28T06:27:46.958Z</time></trkpt><trkpt lat="43.8526965" lon="11.2251093"><ele>359.0</ele><time>2026-03-28T06:27:48.962Z</time></trkpt><trkpt lat="43.8526788" lon="11.2249995"><ele>359.0</ele><time>2026-03-28T06:27:50.974Z</time></trkpt><trkpt lat="43.8526646" lon="11.2248854"><ele>359.0</ele><time>2026-03-28T06:27:52.956Z</time></trkpt><trkpt lat="43.8526517" lon="11.224797"><ele>363.1666666666667</ele><time>2026-03-28T06:27:54.943Z</time></trkpt><trkpt lat="43.8526127" lon="11.2246837"><ele>367.33333333333337</ele><time>2026-03-28T06:27:57.977Z</time></trkpt><trkpt lat="43.852562" lon="11.2245917"><ele>371.5</ele><time>2026-03-28T06:28:00.953Z</time></trkpt><trkpt lat="43.8525126" lon="11.2245053"><ele>375.6666666666667</ele><time>2026-03-28T06:28:03.962Z</time></trkpt><trkpt lat="43.8524588" lon="11.2244084"><ele>379.8333333333333</ele><time>2026-03-28T06:28:06.966Z</time></trkpt><trkpt lat="43.85241" lon="11.2243121"><ele>384.0</ele><time>2026-03-28T06:28:09.957Z</time></trkpt><trkpt lat="43.8523535" lon="11.224237"><ele>384.0</ele><time>2026-03-28T06:28:11.971Z</time></trkpt><trkpt lat="43.852294" lon="11.2241458"><ele>384.0</ele><time>2026-03-28T06:28:13.968Z</time></trkpt><trkpt lat="43.8522324" lon="11.2240353"><ele>384.0</ele><time>2026-03-28T06:28:15.971Z</time></trkpt><trkpt lat="43.8521513" lon="11.2239426"><ele>384.0</ele><time>2026-03-28T06:28:18.015Z</time></trkpt><trkpt lat="43.8520668" lon="11.2238403"><ele>384.0</ele><time>2026-03-28T06:28:19.963Z</time></trkpt><trkpt lat="43.851987" lon="11.2237636"><ele>385.2</ele><time>2026-03-28T06:28:21.945Z</time></trkpt><trkpt lat="43.8519104" lon="11.223693"><ele>386.4</ele><time>2026-03-28T06:28:24.014Z</time></trkpt><trkpt lat="43.8518367" lon="11.2236423"><ele>387.6</ele><time>2026-03-28T06:28:25.956Z</time></trkpt><trkpt lat="43.8517637" lon="11.2235818"><ele>388.8</ele><time>2026-03-28T06:28:27.972Z</time></trkpt><trkpt lat="43.8516819" lon="11.2235015"><ele>390.0</ele><time>2026-03-28T06:28:29.961Z</time></trkpt><trkpt lat="43.8516014" lon="11.2234416"><ele>390.0</ele><time>2026-03-28T06:28:31.963Z</time></trkpt><trkpt lat="43.8515191" lon="11.2233804"><ele>390.0</ele><time>2026-03-28T06:28:33.976Z</time></trkpt><trkpt lat="43.851424" lon="11.2233272"><ele>390.0</ele><time>2026-03-28T06:28:35.97Z</time></trkpt><trkpt lat="43.8513382" lon="11.223276"><ele>390.0</ele><time>2026-03-28T06:28:37.962Z</time></trkpt><trkpt lat="43.8512461" lon="11.2232305"><ele>390.0</ele><time>2026-03-28T06:28:39.962Z</time></trkpt><trkpt lat="43.8511648" lon="11.2231814"><ele>389.5</ele><time>2026-03-28T06:28:41.966Z</time></trkpt><trkpt lat="43.8510937" lon="11.2231426"><ele>389.0</ele><time>2026-03-28T06:28:43.968Z</time></trkpt><trkpt lat="43.8510233" lon="11.2231006"><ele>388.5</ele><time>2026-03-28T06:28:45.969Z</time></trkpt><trkpt lat="43.850951" lon="11.2230799"><ele>388.0</ele><time>2026-03-28T06:28:47.963Z</time></trkpt><trkpt lat="43.850881" lon="11.2230639"><ele>387.5</ele><time>2026-03-28T06:28:49.963Z</time></trkpt><trkpt lat="43.8508065" lon="11.2230374"><ele>387.0</ele><time>2026-03-28T06:28:51.966Z</time></trkpt><trkpt lat="43.8507074" lon="11.2230161"><ele>387.0</ele><time>2026-03-28T06:28:53.964Z</time></trkpt><trkpt lat="43.8506109" lon="11.22299"><ele>387.0</ele><time>2026-03-28T06:28:55.967Z</time></trkpt><trkpt lat="43.8505167" lon="11.2229643"><ele>387.0</ele><time>2026-03-28T06:28:57.965Z</time></trkpt><trkpt lat="43.850423" lon="11.222925"><ele>387.0</ele><time>2026-03-28T06:28:59.955Z</time></trkpt><trkpt lat="43.8503315" lon="11.2228766"><ele>387.0</ele><time>2026-03-28T06:29:02.015Z</time></trkpt><trkpt lat="43.850237" lon="11.2228467"><ele>387.0</ele><time>2026-03-28T06:29:03.96Z</time></trkpt><trkpt lat="43.8501686" lon="11.2228196"><ele>387.0</ele><time>2026-03-28T06:29:05.963Z</time></trkpt><trkpt lat="43.8500833" lon="11.2227969"><ele>387.0</ele><time>2026-03-28T06:29:07.959Z</time></trkpt><trkpt lat="43.8500089" lon="11.2227699"><ele>387.0</ele><time>2026-03-28T06:29:09.958Z</time></trkpt><trkpt lat="43.8499201" lon="11.2227291"><ele>387.0</ele><time>2026-03-28T06:29:11.968Z</time></trkpt><trkpt lat="43.8498324" lon="11.2226954"><ele>387.0</ele><time>2026-03-28T06:29:14.02Z</time></trkpt><trkpt lat="43.8497314" lon="11.2226668"><ele>388.6666666666667</ele><time>2026-03-28T06:29:15.969Z</time></trkpt><trkpt lat="43.8496379" lon="11.2226496"><ele>390.33333333333337</ele><time>2026-03-28T06:29:17.964Z</time></trkpt><trkpt lat="43.8495452" lon="11.222664"><ele>392.0</ele><time>2026-03-28T06:29:19.965Z</time></trkpt><trkpt lat="43.8494748" lon="11.2226699"><ele>393.6666666666667</ele><time>2026-03-28T06:29:21.971Z</time></trkpt><trkpt lat="43.849408" lon="11.2226744"><ele>395.33333333333337</ele><time>2026-03-28T06:29:24.035Z</time></trkpt><trkpt lat="43.8493446" lon="11.2227005"><ele>397.0</ele><time>2026-03-28T06:29:25.947Z</time></trkpt><trkpt lat="43.8492613" lon="11.222739"><ele>398.6666666666667</ele><time>2026-03-28T06:29:28.957Z</time></trkpt><trkpt lat="43.8491758" lon="11.2227721"><ele>400.33333333333337</ele><time>2026-03-28T06:29:32.033Z</time></trkpt><trkpt lat="43.8491101" lon="11.2227959"><ele>402.0</ele><time>2026-03-28T06:29:33.974Z</time></trkpt><trkpt lat="43.8490489" lon="11.2228427"><ele>403.66666666666663</ele><time>2026-03-28T06:29:35.972Z</time></trkpt><trkpt lat="43.8489587" lon="11.222893"><ele>405.3333333333333</ele><time>2026-03-28T06:29:39.023Z</time></trkpt><trkpt lat="43.8488903" lon="11.2229202"><ele>407.0</ele><time>2026-03-28T06:29:40.968Z</time></trkpt><trkpt lat="43.8488035" lon="11.2229662"><ele>406.99999999999994</ele><time>2026-03-28T06:29:43.959Z</time></trkpt><trkpt lat="43.8487399" lon="11.2230007"><ele>407.0</ele><time>2026-03-28T06:29:45.969Z</time></trkpt><trkpt lat="43.8487023" lon="11.2230725"><ele>407.0</ele><time>2026-03-28T06:29:48.968Z</time></trkpt><trkpt lat="43.8487679" lon="11.2230975"><ele>407.0</ele><time>2026-03-28T06:29:52.968Z</time></trkpt><trkpt lat="43.8488399" lon="11.2231435"><ele>406.99999999999994</ele><time>2026-03-28T06:29:56.016Z</time></trkpt><trkpt lat="43.8489345" lon="11.2231698"><ele>407.0</ele><time>2026-03-28T06:29:58.001Z</time></trkpt><trkpt lat="43.8490254" lon="11.2231845"><ele>410.3333333333333</ele><time>2026-03-28T06:29:59.942Z</time></trkpt><trkpt lat="43.8491128" lon="11.2232105"><ele>413.66666666666663</ele><time>2026-03-28T06:30:01.941Z</time></trkpt><trkpt lat="43.8491975" lon="11.223233"><ele>417.0</ele><time>2026-03-28T06:30:04.032Z</time></trkpt><trkpt lat="43.8492602" lon="11.2232412"><ele>420.33333333333337</ele><time>2026-03-28T06:30:05.969Z</time></trkpt><trkpt lat="43.8492865" lon="11.2233243"><ele>423.6666666666667</ele><time>2026-03-28T06:30:09.961Z</time></trkpt><trkpt lat="43.849224" lon="11.2233688"><ele>427.0</ele><time>2026-03-28T06:30:12.962Z</time></trkpt><trkpt lat="43.8491477" lon="11.2234099"><ele>427.0</ele><time>2026-03-28T06:30:15.947Z</time></trkpt><trkpt lat="43.8490608" lon="11.2234523"><ele>427.0</ele><time>2026-03-28T06:30:18.958Z</time></trkpt><trkpt lat="43.8490008" lon="11.2234828"><ele>427.0</ele><time>2026-03-28T06:30:20.959Z</time></trkpt><trkpt lat="43.8489409" lon="11.2235211"><ele>427.0</ele><time>2026-03-28T06:30:22.956Z</time></trkpt><trkpt lat="43.8488809" lon="11.2235701"><ele>427.0</ele><time>2026-03-28T06:30:24.95Z</time></trkpt><trkpt lat="43.8488174" lon="11.2236284"><ele>427.0</ele><time>2026-03-28T06:30:27.01Z</time></trkpt><trkpt lat="43.8487617" lon="11.223683"><ele>427.0</ele><time>2026-03-28T06:30:28.967Z</time></trkpt><trkpt lat="43.8486896" lon="11.2237417"><ele>427.00000000000006</ele><time>2026-03-28T06:30:31.967Z</time></trkpt><trkpt lat="43.8486306" lon="11.2237886"><ele>427.0</ele><time>2026-03-28T06:30:34.957Z</time></trkpt><trkpt lat="43.8485591" lon="11.2238728"><ele>427.0</ele><time>2026-03-28T06:30:38.029Z</time></trkpt><trkpt lat="43.8485078" lon="11.2239309"><ele>427.0</ele><time>2026-03-28T06:30:39.971Z</time></trkpt><trkpt lat="43.8484643" lon="11.2240136"><ele>427.00000000000006</ele><time>2026-03-28T06:30:42.972Z</time></trkpt><trkpt lat="43.8484091" lon="11.2240904"><ele>427.0</ele><time>2026-03-28T06:30:45.982Z</time></trkpt><trkpt lat="43.848339" lon="11.2241672"><ele>430.1666666666667</ele><time>2026-03-28T06:30:48.966Z</time></trkpt><trkpt lat="43.8482725" lon="11.2242515"><ele>433.33333333333337</ele><time>2026-03-28T06:30:52.027Z</time></trkpt><trkpt lat="43.8482503" lon="11.224348"><ele>436.5</ele><time>2026-03-28T06:30:55.973Z</time></trkpt><trkpt lat="43.8483279" lon="11.2243851"><ele>439.66666666666663</ele><time>2026-03-28T06:30:59.967Z</time></trkpt><trkpt lat="43.8484098" lon="11.2244039"><ele>442.8333333333333</ele><time>2026-03-28T06:31:03.972Z</time></trkpt><trkpt lat="43.8484782" lon="11.2244257"><ele>446.0</ele><time>2026-03-28T06:31:06.973Z</time></trkpt><trkpt lat="43.8485399" lon="11.2244465"><ele>446.66666666666663</ele><time>2026-03-28T06:31:09.986Z</time></trkpt><trkpt lat="43.8486229" lon="11.2244349"><ele>447.3333333333333</ele><time>2026-03-28T06:31:13.956Z</time></trkpt><trkpt lat="43.8486866" lon="11.2244336"><ele>448.0</ele><time>2026-03-28T06:31:15.963Z</time></trkpt><trkpt lat="43.8487712" lon="11.2244071"><ele>448.66666666666663</ele><time>2026-03-28T06:31:18.968Z</time></trkpt><trkpt lat="43.8488377" lon="11.2244534"><ele>449.3333333333333</ele><time>2026-03-28T06:31:22.034Z</time></trkpt><trkpt lat="43.8488718" lon="11.2245298"><ele>450.0</ele><time>2026-03-28T06:31:24.963Z</time></trkpt><trkpt lat="43.8488008" lon="11.2246047"><ele>450.0</ele><time>2026-03-28T06:31:27.971Z</time></trkpt><trkpt lat="43.8487386" lon="11.2246608"><ele>450.0</ele><time>2026-03-28T06:31:29.966Z</time></trkpt><trkpt lat="43.8486725" lon="11.224711"><ele>450.0</ele><time>2026-03-28T06:31:31.97Z</time></trkpt><trkpt lat="43.8486171" lon="11.224757"><ele>450.0</ele><time>2026-03-28T06:31:34.967Z</time></trkpt><trkpt lat="43.8486826" lon="11.2248153"><ele>450.0</ele><time>2026-03-28T06:31:40.967Z</time></trkpt><trkpt lat="43.848772" lon="11.2248136"><ele>450.0</ele><time>2026-03-28T06:31:43.938Z</time></trkpt><trkpt lat="43.8488391" lon="11.224793"><ele>450.0</ele><time>2026-03-28T06:31:45.967Z</time></trkpt><trkpt lat="43.8489155" lon="11.2247778"><ele>450.0</ele><time>2026-03-28T06:31:48.957Z</time></trkpt><trkpt lat="43.8489909" lon="11.2247968"><ele>450.0</ele><time>2026-03-28T06:31:51.943Z</time></trkpt><trkpt lat="43.8490591" lon="11.2248122"><ele>450.0</ele><time>2026-03-28T06:31:53.956Z</time></trkpt><trkpt lat="43.8491523" lon="11.2248113"><ele>450.0</ele><time>2026-03-28T06:31:56.961Z</time></trkpt><trkpt lat="43.8492267" lon="11.2248182"><ele>450.0</ele><time>2026-03-28T06:31:58.957Z</time></trkpt><trkpt lat="43.8492973" lon="11.2248452"><ele>453.6666666666667</ele><time>2026-03-28T06:32:00.942Z</time></trkpt><trkpt lat="43.8493814" lon="11.2248735"><ele>457.33333333333337</ele><time>2026-03-28T06:32:02.957Z</time></trkpt><trkpt lat="43.8494793" lon="11.2249091"><ele>461.0</ele><time>2026-03-28T06:32:04.965Z</time></trkpt><trkpt lat="43.849589" lon="11.2249312"><ele>464.6666666666667</ele><time>2026-03-28T06:32:06.961Z</time></trkpt><trkpt lat="43.8496634" lon="11.2249346"><ele>468.33333333333337</ele><time>2026-03-28T06:32:08.96Z</time></trkpt><trkpt lat="43.8497287" lon="11.2249494"><ele>472.0</ele><time>2026-03-28T06:32:10.956Z</time></trkpt><trkpt lat="43.8498319" lon="11.2249804"><ele>472.0</ele><time>2026-03-28T06:32:12.967Z</time></trkpt><trkpt lat="43.8499243" lon="11.2250521"><ele>472.00000000000006</ele><time>2026-03-28T06:32:14.976Z</time></trkpt><trkpt lat="43.8500109" lon="11.2251192"><ele>472.00000000000006</ele><time>2026-03-28T06:32:16.959Z</time></trkpt><trkpt lat="43.8500904" lon="11.2251878"><ele>472.0</ele><time>2026-03-28T06:32:18.977Z</time></trkpt><trkpt lat="43.8501737" lon="11.2252434"><ele>472.0</ele><time>2026-03-28T06:32:20.961Z</time></trkpt><trkpt lat="43.8502463" lon="11.2252928"><ele>473.0</ele><time>2026-03-28T06:32:22.962Z</time></trkpt><trkpt lat="43.8503173" lon="11.225376"><ele>474.0</ele><time>2026-03-28T06:32:25.964Z</time></trkpt><trkpt lat="43.8503641" lon="11.2254562"><ele>475.0</ele><time>2026-03-28T06:32:27.943Z</time></trkpt><trkpt lat="43.8504264" lon="11.2255135"><ele>476.0</ele><time>2026-03-28T06:32:29.958Z</time></trkpt><trkpt lat="43.8504751" lon="11.2255721"><ele>477.0</ele><time>2026-03-28T06:32:31.963Z</time></trkpt><trkpt lat="43.8504365" lon="11.2256429"><ele>478.0</ele><time>2026-03-28T06:32:36.972Z</time></trkpt><trkpt lat="43.850364" lon="11.2256646"><ele>479.0</ele><time>2026-03-28T06:32:42.959Z</time></trkpt><trkpt lat="43.8502995" lon="11.2256926"><ele>478.99999999999994</ele><time>2026-03-28T06:32:45.967Z</time></trkpt><trkpt lat="43.8502061" lon="11.2257083"><ele>479.0</ele><time>2026-03-28T06:32:48.993Z</time></trkpt><trkpt lat="43.8501268" lon="11.2257268"><ele>479.0</ele><time>2026-03-28T06:32:50.98Z</time></trkpt><trkpt lat="43.8500409" lon="11.225748"><ele>479.0</ele><time>2026-03-28T06:32:52.99Z</time></trkpt><trkpt lat="43.8499531" lon="11.2257766"><ele>478.99999999999994</ele><time>2026-03-28T06:32:54.98Z</time></trkpt><trkpt lat="43.8498635" lon="11.2258109"><ele>479.0</ele><time>2026-03-28T06:32:57.093Z</time></trkpt><trkpt lat="43.8497858" lon="11.2258508"><ele>481.42857142857144</ele><time>2026-03-28T06:32:58.987Z</time></trkpt><trkpt lat="43.8497251" lon="11.2258946"><ele>483.8571428571429</ele><time>2026-03-28T06:33:00.974Z</time></trkpt><trkpt lat="43.8496725" lon="11.2259505"><ele>486.28571428571433</ele><time>2026-03-28T06:33:03.034Z</time></trkpt><trkpt lat="43.849614" lon="11.2260061"><ele>488.7142857142857</ele><time>2026-03-28T06:33:04.968Z</time></trkpt><trkpt lat="43.849567" lon="11.2260913"><ele>491.1428571428572</ele><time>2026-03-28T06:33:07.956Z</time></trkpt><trkpt lat="43.8495456" lon="11.2262027"><ele>493.5714285714286</ele><time>2026-03-28T06:33:10.959Z</time></trkpt><trkpt lat="43.8495365" lon="11.2262925"><ele>496.0</ele><time>2026-03-28T06:33:13.966Z</time></trkpt><trkpt lat="43.849552" lon="11.2263873"><ele>496.00000000000006</ele><time>2026-03-28T06:33:19.956Z</time></trkpt><trkpt lat="43.8496111" lon="11.2264476"><ele>496.0</ele><time>2026-03-28T06:33:23.044Z</time></trkpt><trkpt lat="43.8496729" lon="11.2265107"><ele>496.0</ele><time>2026-03-28T06:33:25.958Z</time></trkpt><trkpt lat="43.8497253" lon="11.2266038"><ele>496.0</ele><time>2026-03-28T06:33:28.963Z</time></trkpt><trkpt lat="43.8497563" lon="11.2266883"><ele>496.00000000000006</ele><time>2026-03-28T06:33:30.967Z</time></trkpt><trkpt lat="43.8497871" lon="11.2267673"><ele>496.0</ele><time>2026-03-28T06:33:32.967Z</time></trkpt><trkpt lat="43.8498249" lon="11.2268754"><ele>498.33333333333337</ele><time>2026-03-28T06:33:35.977Z</time></trkpt><trkpt lat="43.849824" lon="11.2269934"><ele>500.6666666666667</ele><time>2026-03-28T06:33:38.973Z</time></trkpt><trkpt lat="43.8498242" lon="11.2270812"><ele>503.0</ele><time>2026-03-28T06:33:40.971Z</time></trkpt><trkpt lat="43.8498436" lon="11.2271987"><ele>505.33333333333337</ele><time>2026-03-28T06:33:44.04Z</time></trkpt><trkpt lat="43.8498481" lon="11.2272994"><ele>507.6666666666667</ele><time>2026-03-28T06:33:45.97Z</time></trkpt><trkpt lat="43.8498462" lon="11.2274186"><ele>510.0</ele><time>2026-03-28T06:33:48.969Z</time></trkpt><trkpt lat="43.8498338" lon="11.2275313"><ele>511.6666666666667</ele><time>2026-03-28T06:33:51.975Z</time></trkpt><trkpt lat="43.8498195" lon="11.2276467"><ele>513.3333333333334</ele><time>2026-03-28T06:33:54.967Z</time></trkpt><trkpt lat="43.8498087" lon="11.2277347"><ele>515.0</ele><time>2026-03-28T06:33:56.985Z</time></trkpt><trkpt lat="43.8497829" lon="11.2278292"><ele>516.6666666666667</ele><time>2026-03-28T06:33:58.97Z</time></trkpt><trkpt lat="43.8497511" lon="11.2279213"><ele>518.3333333333334</ele><time>2026-03-28T06:34:00.962Z</time></trkpt><trkpt lat="43.849702" lon="11.2279973"><ele>520.0</ele><time>2026-03-28T06:34:02.969Z</time></trkpt><trkpt lat="43.8496426" lon="11.2280851"><ele>520.0</ele><time>2026-03-28T06:34:04.967Z</time></trkpt><trkpt lat="43.8495677" lon="11.2281297"><ele>520.0</ele><time>2026-03-28T06:34:06.965Z</time></trkpt><trkpt lat="43.8494744" lon="11.2281444"><ele>520.0</ele><time>2026-03-28T06:34:08.968Z</time></trkpt><trkpt lat="43.8493447" lon="11.2281614"><ele>520.0</ele><time>2026-03-28T06:34:10.95Z</time></trkpt><trkpt lat="43.8492491" lon="11.2281735"><ele>520.0</ele><time>2026-03-28T06:34:12.971Z</time></trkpt><trkpt lat="43.8491609" lon="11.2282164"><ele>522.5</ele><time>2026-03-28T06:34:14.965Z</time></trkpt><trkpt lat="43.849088" lon="11.228252"><ele>525.0</ele><time>2026-03-28T06:34:16.973Z</time></trkpt><trkpt lat="43.8490219" lon="11.2282403"><ele>527.5</ele><time>2026-03-28T06:34:18.975Z</time></trkpt><trkpt lat="43.8489472" lon="11.228205"><ele>530.0</ele><time>2026-03-28T06:34:20.963Z</time></trkpt><trkpt lat="43.8488663" lon="11.2281878"><ele>532.5</ele><time>2026-03-28T06:34:22.964Z</time></trkpt><trkpt lat="43.848752" lon="11.2282117"><ele>535.0</ele><time>2026-03-28T06:34:24.959Z</time></trkpt><trkpt lat="43.8486497" lon="11.2282441"><ele>535.0</ele><time>2026-03-28T06:34:26.976Z</time></trkpt><trkpt lat="43.8485376" lon="11.2282778"><ele>535.0</ele><time>2026-03-28T06:34:28.963Z</time></trkpt><trkpt lat="43.8484314" lon="11.2283066"><ele>535.0</ele><time>2026-03-28T06:34:30.969Z</time></trkpt><trkpt lat="43.8483324" lon="11.2283526"><ele>535.0</ele><time>2026-03-28T06:34:32.978Z</time></trkpt><trkpt lat="43.8482209" lon="11.2283858"><ele>535.0</ele><time>2026-03-28T06:34:34.973Z</time></trkpt><trkpt lat="43.8481487" lon="11.2284221"><ele>534.2857142857142</ele><time>2026-03-28T06:34:36.97Z</time></trkpt><trkpt lat="43.8481354" lon="11.2285174"><ele>533.5714285714286</ele><time>2026-03-28T06:34:39.966Z</time></trkpt><trkpt lat="43.8481814" lon="11.2285918"><ele>532.8571428571429</ele><time>2026-03-28T06:34:43.977Z</time></trkpt><trkpt lat="43.8482307" lon="11.2286847"><ele>532.1428571428571</ele><time>2026-03-28T06:34:47.963Z</time></trkpt><trkpt lat="43.8482805" lon="11.2287744"><ele>531.4285714285714</ele><time>2026-03-28T06:34:50.968Z</time></trkpt><trkpt lat="43.8483177" lon="11.2288489"><ele>530.7142857142857</ele><time>2026-03-28T06:34:52.946Z</time></trkpt><trkpt lat="43.8483561" lon="11.2289389"><ele>530.0</ele><time>2026-03-28T06:34:54.958Z</time></trkpt><trkpt lat="43.8483898" lon="11.2290177"><ele>532.0</ele><time>2026-03-28T06:34:56.967Z</time></trkpt><trkpt lat="43.8484198" lon="11.2291063"><ele>534.0</ele><time>2026-03-28T06:34:58.966Z</time></trkpt><trkpt lat="43.8484656" lon="11.2292"><ele>536.0</ele><time>2026-03-28T06:35:01.978Z</time></trkpt><trkpt lat="43.848467" lon="11.2293005"><ele>538.0</ele><time>2026-03-28T06:35:04.953Z</time></trkpt><trkpt lat="43.8484298" lon="11.229385"><ele>540.0</ele><time>2026-03-28T06:35:07.97Z</time></trkpt><trkpt lat="43.8483813" lon="11.2294444"><ele>542.0</ele><time>2026-03-28T06:35:09.966Z</time></trkpt><trkpt lat="43.8483044" lon="11.2295228"><ele>542.0</ele><time>2026-03-28T06:35:11.964Z</time></trkpt><trkpt lat="43.8482479" lon="11.2295913"><ele>542.0</ele><time>2026-03-28T06:35:13.963Z</time></trkpt><trkpt lat="43.8481965" lon="11.2296551"><ele>542.0</ele><time>2026-03-28T06:35:15.966Z</time></trkpt><trkpt lat="43.8481434" lon="11.229758"><ele>542.0</ele><time>2026-03-28T06:35:17.974Z</time></trkpt><trkpt lat="43.8480403" lon="11.2298273"><ele>542.0</ele><time>2026-03-28T06:35:19.963Z</time></trkpt><trkpt lat="43.8479819" lon="11.2298688"><ele>542.0</ele><time>2026-03-28T06:35:20.971Z</time></trkpt><trkpt lat="43.8479238" lon="11.2299155"><ele>543.5</ele><time>2026-03-28T06:35:21.967Z</time></trkpt><trkpt lat="43.8478694" lon="11.2299761"><ele>545.0</ele><time>2026-03-28T06:35:22.955Z</time></trkpt><trkpt lat="43.8478141" lon="11.2300398"><ele>546.5</ele><time>2026-03-28T06:35:23.957Z</time></trkpt><trkpt lat="43.8477303" lon="11.2301273"><ele>548.0</ele><time>2026-03-28T06:35:25.964Z</time></trkpt><trkpt lat="43.8476875" lon="11.2302089"><ele>549.5</ele><time>2026-03-28T06:35:27.972Z</time></trkpt><trkpt lat="43.8476277" lon="11.2302769"><ele>551.0</ele><time>2026-03-28T06:35:29.976Z</time></trkpt><trkpt lat="43.8475382" lon="11.2303561"><ele>551.0</ele><time>2026-03-28T06:35:31.971Z</time></trkpt><trkpt lat="43.8474485" lon="11.2304384"><ele>551.0</ele><time>2026-03-28T06:35:33.972Z</time></trkpt><trkpt lat="43.847367" lon="11.2305076"><ele>551.0</ele><time>2026-03-28T06:35:35.952Z</time></trkpt><trkpt lat="43.8473095" lon="11.2306181"><ele>551.0</ele><time>2026-03-28T06:35:37.949Z</time></trkpt><trkpt lat="43.8472422" lon="11.2307175"><ele>551.0</ele><time>2026-03-28T06:35:39.96Z</time></trkpt><trkpt lat="43.8471683" lon="11.2308113"><ele>553.3333333333333</ele><time>2026-03-28T06:35:41.972Z</time></trkpt><trkpt lat="43.847118" lon="11.2308906"><ele>555.6666666666666</ele><time>2026-03-28T06:35:43.965Z</time></trkpt><trkpt lat="43.847101" lon="11.2309943"><ele>558.0</ele><time>2026-03-28T06:35:46.969Z</time></trkpt><trkpt lat="43.8471102" lon="11.2311083"><ele>560.3333333333334</ele><time>2026-03-28T06:43:35.967Z</time></trkpt><trkpt lat="43.8471432" lon="11.2312488"><ele>562.6666666666667</ele><time>2026-03-28T06:43:37.96Z</time></trkpt><trkpt lat="43.8471794" lon="11.2313752"><ele>565.0</ele><time>2026-03-28T06:43:39.957Z</time></trkpt><trkpt lat="43.847221" lon="11.2314925"><ele>565.8</ele><time>2026-03-28T06:43:41.966Z</time></trkpt><trkpt lat="43.8472526" lon="11.2316235"><ele>566.6</ele><time>2026-03-28T06:43:43.96Z</time></trkpt><trkpt lat="43.8472663" lon="11.231767"><ele>567.4</ele><time>2026-03-28T06:43:45.951Z</time></trkpt><trkpt lat="43.8472783" lon="11.2319312"><ele>568.2</ele><time>2026-03-28T06:43:47.964Z</time></trkpt><trkpt lat="43.8472817" lon="11.2320193"><ele>569.0</ele><time>2026-03-28T06:43:48.967Z</time></trkpt><trkpt lat="43.8472911" lon="11.2321953"><ele>567.4</ele><time>2026-03-28T06:43:50.978Z</time></trkpt><trkpt lat="43.8473086" lon="11.2323655"><ele>565.8</ele><time>2026-03-28T06:43:52.969Z</time></trkpt><trkpt lat="43.8473247" lon="11.2325262"><ele>564.2</ele><time>2026-03-28T06:43:54.965Z</time></trkpt><trkpt lat="43.8473417" lon="11.2326146"><ele>562.6</ele><time>2026-03-28T06:43:55.969Z</time></trkpt><trkpt lat="43.847358" lon="11.2327117"><ele>561.0</ele><time>2026-03-28T06:43:56.973Z</time></trkpt><trkpt lat="43.8473905" lon="11.2328827"><ele>561.0</ele><time>2026-03-28T06:43:58.941Z</time></trkpt><trkpt lat="43.8474047" lon="11.2329804"><ele>561.0</ele><time>2026-03-28T06:43:59.952Z</time></trkpt><trkpt lat="43.8474227" lon="11.2330773"><ele>561.0</ele><time>2026-03-28T06:44:00.961Z</time></trkpt><trkpt lat="43.847441" lon="11.2331683"><ele>561.0</ele><time>2026-03-28T06:44:01.966Z</time></trkpt><trkpt lat="43.8474798" lon="11.2333197"><ele>561.0</ele><time>2026-03-28T06:44:03.961Z</time></trkpt><trkpt lat="43.8475231" lon="11.2334465"><ele>561.0</ele><time>2026-03-28T06:44:05.97Z</time></trkpt><trkpt lat="43.8475719" lon="11.2335913"><ele>563.2</ele><time>2026-03-28T06:44:07.957Z</time></trkpt><trkpt lat="43.8476299" lon="11.2337508"><ele>565.4000000000001</ele><time>2026-03-28T06:44:09.965Z</time></trkpt><trkpt lat="43.8476859" lon="11.233885"><ele>567.6</ele><time>2026-03-28T06:44:11.975Z</time></trkpt><trkpt lat="43.8477051" lon="11.2339694"><ele>569.8000000000001</ele><time>2026-03-28T06:44:12.961Z</time></trkpt><trkpt lat="43.8477358" lon="11.2340594"><ele>572.0</ele><time>2026-03-28T06:44:13.971Z</time></trkpt><trkpt lat="43.8477903" lon="11.234192"><ele>572.0</ele><time>2026-03-28T06:44:15.957Z</time></trkpt><trkpt lat="43.8478427" lon="11.2343348"><ele>572.0</ele><time>2026-03-28T06:44:18.031Z</time></trkpt><trkpt lat="43.8479155" lon="11.2344837"><ele>572.0</ele><time>2026-03-28T06:44:19.958Z</time></trkpt><trkpt lat="43.8479883" lon="11.2346171"><ele>572.0</ele><time>2026-03-28T06:44:21.955Z</time></trkpt><trkpt lat="43.8480301" lon="11.2346894"><ele>572.0</ele><time>2026-03-28T06:44:22.957Z</time></trkpt><trkpt lat="43.8481072" lon="11.234807"><ele>569.6</ele><time>2026-03-28T06:44:24.966Z</time></trkpt><trkpt lat="43.8481864" lon="11.2349079"><ele>567.2</ele><time>2026-03-28T06:44:27.013Z</time></trkpt><trkpt lat="43.8482596" lon="11.2350216"><ele>564.8</ele><time>2026-03-28T06:44:28.965Z</time></trkpt><trkpt lat="43.8483287" lon="11.2351567"><ele>562.4</ele><time>2026-03-28T06:44:30.971Z</time></trkpt><trkpt lat="43.8483625" lon="11.2352517"><ele>560.0</ele><time>2026-03-28T06:44:31.963Z</time></trkpt><trkpt lat="43.8483827" lon="11.2353617"><ele>560.0</ele><time>2026-03-28T06:44:32.958Z</time></trkpt><trkpt lat="43.8484226" lon="11.2354411"><ele>560.0</ele><time>2026-03-28T06:44:34.044Z</time></trkpt><trkpt lat="43.848463" lon="11.2355236"><ele>560.0</ele><time>2026-03-28T06:44:34.966Z</time></trkpt><trkpt lat="43.8484954" lon="11.2356134"><ele>560.0</ele><time>2026-03-28T06:44:35.97Z</time></trkpt><trkpt lat="43.8485303" lon="11.2357038"><ele>560.0</ele><time>2026-03-28T06:44:36.994Z</time></trkpt><trkpt lat="43.8485609" lon="11.235801"><ele>560.0</ele><time>2026-03-28T06:44:38.033Z</time></trkpt><trkpt lat="43.8485973" lon="11.2358947"><ele>560.0</ele><time>2026-03-28T06:44:39.03Z</time></trkpt><trkpt lat="43.8486267" lon="11.2359834"><ele>561.1666666666666</ele><time>2026-03-28T06:44:39.979Z</time></trkpt><trkpt lat="43.8486547" lon="11.2360768"><ele>562.3333333333333</ele><time>2026-03-28T06:44:40.99Z</time></trkpt><trkpt lat="43.8486735" lon="11.2361643"><ele>563.5</ele><time>2026-03-28T06:44:41.991Z</time></trkpt><trkpt lat="43.8486821" lon="11.2362596"><ele>564.6666666666666</ele><time>2026-03-28T06:44:42.984Z</time></trkpt><trkpt lat="43.8487108" lon="11.2364068"><ele>565.8333333333334</ele><time>2026-03-28T06:44:44.978Z</time></trkpt><trkpt lat="43.8487623" lon="11.2365113"><ele>567.0</ele><time>2026-03-28T06:44:46.983Z</time></trkpt><trkpt lat="43.8488119" lon="11.2365806"><ele>567.0</ele><time>2026-03-28T06:44:48.977Z</time></trkpt><trkpt lat="43.8488822" lon="11.2366521"><ele>567.0</ele><time>2026-03-28T06:44:51.979Z</time></trkpt><trkpt lat="43.848934" lon="11.2367029"><ele>567.0</ele><time>2026-03-28T06:44:53.979Z</time></trkpt><trkpt lat="43.848984" lon="11.2367731"><ele>567.0</ele><time>2026-03-28T06:44:55.966Z</time></trkpt><trkpt lat="43.8490505" lon="11.2368558"><ele>567.0</ele><time>2026-03-28T06:44:58.022Z</time></trkpt><trkpt lat="43.8491109" lon="11.2369132"><ele>567.0</ele><time>2026-03-28T06:44:59.975Z</time></trkpt><trkpt lat="43.8491616" lon="11.2369828"><ele>567.0</ele><time>2026-03-28T06:45:01.974Z</time></trkpt><trkpt lat="43.8492404" lon="11.2370899"><ele>567.0</ele><time>2026-03-28T06:45:03.974Z</time></trkpt><trkpt lat="43.8493114" lon="11.2372074"><ele>567.0</ele><time>2026-03-28T06:45:05.976Z</time></trkpt><trkpt lat="43.8493772" lon="11.2373163"><ele>567.0</ele><time>2026-03-28T06:45:07.985Z</time></trkpt><trkpt lat="43.84944" lon="11.2374161"><ele>567.0</ele><time>2026-03-28T06:45:09.977Z</time></trkpt><trkpt lat="43.8494958" lon="11.2375056"><ele>568.8571428571429</ele><time>2026-03-28T06:45:11.989Z</time></trkpt><trkpt lat="43.8495486" lon="11.237554"><ele>570.7142857142858</ele><time>2026-03-28T06:45:13.978Z</time></trkpt><trkpt lat="43.8496091" lon="11.237586"><ele>572.5714285714286</ele><time>2026-03-28T06:45:15.98Z</time></trkpt><trkpt lat="43.8496751" lon="11.2376278"><ele>574.4285714285714</ele><time>2026-03-28T06:45:17.993Z</time></trkpt><trkpt lat="43.8497351" lon="11.2376551"><ele>576.2857142857143</ele><time>2026-03-28T06:45:19.977Z</time></trkpt><trkpt lat="43.8498125" lon="11.2377193"><ele>578.1428571428571</ele><time>2026-03-28T06:45:22.994Z</time></trkpt><trkpt lat="43.849887" lon="11.2377776"><ele>580.0</ele><time>2026-03-28T06:45:25.996Z</time></trkpt><trkpt lat="43.8499476" lon="11.2378358"><ele>580.0</ele><time>2026-03-28T06:45:28.976Z</time></trkpt><trkpt lat="43.8500188" lon="11.2378836"><ele>580.0</ele><time>2026-03-28T06:45:31.96Z</time></trkpt><trkpt lat="43.8500844" lon="11.2379124"><ele>580.0</ele><time>2026-03-28T06:45:33.963Z</time></trkpt><trkpt lat="43.8501615" lon="11.2379557"><ele>580.0</ele><time>2026-03-28T06:45:35.994Z</time></trkpt><trkpt lat="43.8502522" lon="11.2380008"><ele>580.0</ele><time>2026-03-28T06:45:37.985Z</time></trkpt><trkpt lat="43.8503333" lon="11.2380342"><ele>580.0</ele><time>2026-03-28T06:45:39.982Z</time></trkpt><trkpt lat="43.8503988" lon="11.2380322"><ele>581.5</ele><time>2026-03-28T06:45:41.984Z</time></trkpt><trkpt lat="43.8504635" lon="11.2380416"><ele>583.0</ele><time>2026-03-28T06:45:43.984Z</time></trkpt><trkpt lat="43.8505335" lon="11.2380534"><ele>584.5</ele><time>2026-03-28T06:45:45.994Z</time></trkpt><trkpt lat="43.8506031" lon="11.2380843"><ele>586.0</ele><time>2026-03-28T06:45:47.982Z</time></trkpt><trkpt lat="43.8506788" lon="11.2381141"><ele>587.5</ele><time>2026-03-28T06:45:49.958Z</time></trkpt><trkpt lat="43.8507724" lon="11.2381407"><ele>589.0</ele><time>2026-03-28T06:45:51.984Z</time></trkpt><trkpt lat="43.8508614" lon="11.2381727"><ele>589.0</ele><time>2026-03-28T06:45:53.988Z</time></trkpt><trkpt lat="43.8509238" lon="11.2382024"><ele>589.0</ele><time>2026-03-28T06:45:55.968Z</time></trkpt><trkpt lat="43.8509826" lon="11.2383022"><ele>589.0</ele><time>2026-03-28T06:45:58.986Z</time></trkpt><trkpt lat="43.8510205" lon="11.2384223"><ele>589.0</ele><time>2026-03-28T06:46:01.976Z</time></trkpt><trkpt lat="43.8510408" lon="11.2385398"><ele>589.0</ele><time>2026-03-28T06:46:04.975Z</time></trkpt><trkpt lat="43.8510764" lon="11.2386139"><ele>589.0</ele><time>2026-03-28T06:46:07.985Z</time></trkpt><trkpt lat="43.8511691" lon="11.238544"><ele>589.8</ele><time>2026-03-28T06:46:10.991Z</time></trkpt><trkpt lat="43.8512742" lon="11.2385481"><ele>590.5999999999999</ele><time>2026-03-28T06:46:12.969Z</time></trkpt><trkpt lat="43.8513765" lon="11.2385813"><ele>591.4</ele><time>2026-03-28T06:46:14.984Z</time></trkpt><trkpt lat="43.8514835" lon="11.2386176"><ele>592.1999999999999</ele><time>2026-03-28T06:46:16.99Z</time></trkpt><trkpt lat="43.8515984" lon="11.2386542"><ele>593.0</ele><time>2026-03-28T06:46:18.995Z</time></trkpt><trkpt lat="43.851704" lon="11.2386688"><ele>593.0</ele><time>2026-03-28T06:46:20.988Z</time></trkpt><trkpt lat="43.8517828" lon="11.2386826"><ele>593.0</ele><time>2026-03-28T06:46:23.986Z</time></trkpt><trkpt lat="43.8518857" lon="11.2386983"><ele>593.0</ele><time>2026-03-28T06:46:25.977Z</time></trkpt><trkpt lat="43.8519954" lon="11.2387095"><ele>593.0</ele><time>2026-03-28T06:46:27.975Z</time></trkpt><trkpt lat="43.8521085" lon="11.2386847"><ele>593.0</ele><time>2026-03-28T06:46:29.975Z</time></trkpt><trkpt lat="43.8522293" lon="11.2386502"><ele>596.0</ele><time>2026-03-28T06:46:31.987Z</time></trkpt><trkpt lat="43.8523137" lon="11.2386062"><ele>599.0</ele><time>2026-03-28T06:46:33.98Z</time></trkpt><trkpt lat="43.852381" lon="11.2385621"><ele>602.0</ele><time>2026-03-28T06:46:35.985Z</time></trkpt><trkpt lat="43.852457" lon="11.2385475"><ele>605.0</ele><time>2026-03-28T06:46:37.96Z</time></trkpt><trkpt lat="43.8525495" lon="11.2385173"><ele>608.0</ele><time>2026-03-28T06:46:39.982Z</time></trkpt><trkpt lat="43.8526299" lon="11.2384804"><ele>611.0</ele><time>2026-03-28T06:46:41.99Z</time></trkpt><trkpt lat="43.8527113" lon="11.2384347"><ele>610.3333333333333</ele><time>2026-03-28T06:46:43.976Z</time></trkpt><trkpt lat="43.8527964" lon="11.2383758"><ele>609.6666666666666</ele><time>2026-03-28T06:46:45.976Z</time></trkpt><trkpt lat="43.8528693" lon="11.2383198"><ele>609.0</ele><time>2026-03-28T06:46:47.987Z</time></trkpt><trkpt lat="43.852924" lon="11.2382735"><ele>608.3333333333334</ele><time>2026-03-28T06:46:49.986Z</time></trkpt><trkpt lat="43.8529923" lon="11.2382187"><ele>607.6666666666667</ele><time>2026-03-28T06:46:51.992Z</time></trkpt><trkpt lat="43.8530746" lon="11.2381635"><ele>607.0</ele><time>2026-03-28T06:46:53.984Z</time></trkpt><trkpt lat="43.8531635" lon="11.2381213"><ele>607.0</ele><time>2026-03-28T06:46:55.982Z</time></trkpt><trkpt lat="43.8532699" lon="11.2380806"><ele>607.0</ele><time>2026-03-28T06:46:57.986Z</time></trkpt><trkpt lat="43.8533401" lon="11.2380714"><ele>607.0</ele><time>2026-03-28T06:46:58.989Z</time></trkpt><trkpt lat="43.8534086" lon="11.2380765"><ele>607.0</ele><time>2026-03-28T06:46:59.991Z</time></trkpt><trkpt lat="43.8534824" lon="11.2380782"><ele>607.0</ele><time>2026-03-28T06:47:00.987Z</time></trkpt><trkpt lat="43.8535481" lon="11.23808"><ele>607.0</ele><time>2026-03-28T06:47:01.982Z</time></trkpt><trkpt lat="43.8536182" lon="11.2380884"><ele>605.8000000000001</ele><time>2026-03-28T06:47:02.972Z</time></trkpt><trkpt lat="43.8537412" lon="11.2381322"><ele>604.6</ele><time>2026-03-28T06:47:04.974Z</time></trkpt><trkpt lat="43.8538694" lon="11.2381954"><ele>603.4000000000001</ele><time>2026-03-28T06:47:06.981Z</time></trkpt><trkpt lat="43.8539412" lon="11.2382242"><ele>602.2</ele><time>2026-03-28T06:47:07.997Z</time></trkpt><trkpt lat="43.8540128" lon="11.2382536"><ele>601.0</ele><time>2026-03-28T06:47:08.972Z</time></trkpt><trkpt lat="43.8540746" lon="11.2382865"><ele>604.5</ele><time>2026-03-28T06:47:09.981Z</time></trkpt><trkpt lat="43.854135" lon="11.2383186"><ele>608.0</ele><time>2026-03-28T06:47:10.984Z</time></trkpt><trkpt lat="43.8541945" lon="11.2383619"><ele>611.5</ele><time>2026-03-28T06:47:11.99Z</time></trkpt><trkpt lat="43.8542972" lon="11.2384536"><ele>615.0</ele><time>2026-03-28T06:47:13.989Z</time></trkpt><trkpt lat="43.8543507" lon="11.2385035"><ele>618.5</ele><time>2026-03-28T06:47:14.99Z</time></trkpt><trkpt lat="43.8544529" lon="11.2385998"><ele>622.0</ele><time>2026-03-28T06:47:16.985Z</time></trkpt><trkpt lat="43.8545051" lon="11.2386517"><ele>622.0</ele><time>2026-03-28T06:47:17.989Z</time></trkpt><trkpt lat="43.8545593" lon="11.2386997"><ele>622.0</ele><time>2026-03-28T06:47:18.987Z</time></trkpt><trkpt lat="43.8546701" lon="11.238781"><ele>622.0</ele><time>2026-03-28T06:47:20.962Z</time></trkpt><trkpt lat="43.854783" lon="11.2388336"><ele>622.0</ele><time>2026-03-28T06:47:22.983Z</time></trkpt><trkpt lat="43.8548957" lon="11.2388858"><ele>622.0</ele><time>2026-03-28T06:47:24.982Z</time></trkpt><trkpt lat="43.8549554" lon="11.238916"><ele>624.6666666666667</ele><time>2026-03-28T06:47:25.98Z</time></trkpt><trkpt lat="43.8550706" lon="11.2389927"><ele>627.3333333333334</ele><time>2026-03-28T06:47:27.991Z</time></trkpt><trkpt lat="43.8551687" lon="11.2390852"><ele>630.0</ele><time>2026-03-28T06:47:29.989Z</time></trkpt><trkpt lat="43.8552233" lon="11.2391335"><ele>632.6666666666666</ele><time>2026-03-28T06:47:30.998Z</time></trkpt><trkpt lat="43.855276" lon="11.2391821"><ele>635.3333333333333</ele><time>2026-03-28T06:47:31.992Z</time></trkpt><trkpt lat="43.8553308" lon="11.2392257"><ele>638.0</ele><time>2026-03-28T06:47:32.976Z</time></trkpt><trkpt lat="43.855387" lon="11.2392676"><ele>638.5999999999999</ele><time>2026-03-28T06:47:33.988Z</time></trkpt><trkpt lat="43.8554446" lon="11.2393122"><ele>639.1999999999999</ele><time>2026-03-28T06:47:34.983Z</time></trkpt><trkpt lat="43.8555417" lon="11.239402"><ele>639.8</ele><time>2026-03-28T06:47:36.987Z</time></trkpt><trkpt lat="43.8556281" lon="11.2394923"><ele>640.4</ele><time>2026-03-28T06:47:38.986Z</time></trkpt><trkpt lat="43.8556873" lon="11.2396066"><ele>641.0</ele><time>2026-03-28T06:47:40.966Z</time></trkpt><trkpt lat="43.8557562" lon="11.2396768"><ele>641.0</ele><time>2026-03-28T06:47:42.988Z</time></trkpt><trkpt lat="43.8558451" lon="11.2397452"><ele>641.0</ele><time>2026-03-28T06:47:44.983Z</time></trkpt><trkpt lat="43.8559445" lon="11.239857"><ele>641.0</ele><time>2026-03-28T06:47:46.991Z</time></trkpt><trkpt lat="43.8559983" lon="11.2399152"><ele>641.0</ele><time>2026-03-28T06:47:47.998Z</time></trkpt><trkpt lat="43.8561088" lon="11.2399863"><ele>641.0</ele><time>2026-03-28T06:47:49.985Z</time></trkpt><trkpt lat="43.8562224" lon="11.2400478"><ele>642.1428571428571</ele><time>2026-03-28T06:47:51.989Z</time></trkpt><trkpt lat="43.8562827" lon="11.240074"><ele>643.2857142857142</ele><time>2026-03-28T06:47:52.981Z</time></trkpt><trkpt lat="43.8563483" lon="11.2400964"><ele>644.4285714285713</ele><time>2026-03-28T06:47:53.989Z</time></trkpt><trkpt lat="43.8564158" lon="11.2401231"><ele>645.5714285714286</ele><time>2026-03-28T06:47:54.986Z</time></trkpt><trkpt lat="43.8564865" lon="11.2401487"><ele>646.7142857142857</ele><time>2026-03-28T06:47:55.963Z</time></trkpt><trkpt lat="43.8565505" lon="11.240175"><ele>647.8571428571428</ele><time>2026-03-28T06:47:56.978Z</time></trkpt><trkpt lat="43.8566174" lon="11.2402021"><ele>649.0</ele><time>2026-03-28T06:47:57.978Z</time></trkpt><trkpt lat="43.8566838" lon="11.2402266"><ele>649.0</ele><time>2026-03-28T06:47:58.974Z</time></trkpt><trkpt lat="43.8567534" lon="11.2402637"><ele>649.0</ele><time>2026-03-28T06:47:59.98Z</time></trkpt><trkpt lat="43.8568222" lon="11.2403061"><ele>649.0</ele><time>2026-03-28T06:48:00.986Z</time></trkpt><trkpt lat="43.8568911" lon="11.2403567"><ele>649.0</ele><time>2026-03-28T06:48:01.968Z</time></trkpt><trkpt lat="43.8569625" lon="11.2404121"><ele>649.0</ele><time>2026-03-28T06:48:02.987Z</time></trkpt><trkpt lat="43.8570225" lon="11.2404713"><ele>649.0</ele><time>2026-03-28T06:48:03.968Z</time></trkpt><trkpt lat="43.8570788" lon="11.2405247"><ele>649.8571428571428</ele><time>2026-03-28T06:48:04.979Z</time></trkpt><trkpt lat="43.8571363" lon="11.2405696"><ele>650.7142857142857</ele><time>2026-03-28T06:48:05.976Z</time></trkpt><trkpt lat="43.8571986" lon="11.2406164"><ele>651.5714285714286</ele><time>2026-03-28T06:48:06.98Z</time></trkpt><trkpt lat="43.8572609" lon="11.2406595"><ele>652.4285714285713</ele><time>2026-03-28T06:48:07.991Z</time></trkpt><trkpt lat="43.8573226" lon="11.2406926"><ele>653.2857142857142</ele><time>2026-03-28T06:48:08.989Z</time></trkpt><trkpt lat="43.8573891" lon="11.2407326"><ele>654.1428571428571</ele><time>2026-03-28T06:48:09.989Z</time></trkpt><trkpt lat="43.8574611" lon="11.2407534"><ele>655.0</ele><time>2026-03-28T06:48:10.98Z</time></trkpt><trkpt lat="43.8575315" lon="11.240763"><ele>654.0</ele><time>2026-03-28T06:48:11.987Z</time></trkpt><trkpt lat="43.8576002" lon="11.2407634"><ele>653.0</ele><time>2026-03-28T06:48:12.983Z</time></trkpt><trkpt lat="43.8576698" lon="11.2407526"><ele>652.0</ele><time>2026-03-28T06:48:13.963Z</time></trkpt><trkpt lat="43.8577336" lon="11.2407287"><ele>651.0</ele><time>2026-03-28T06:48:14.983Z</time></trkpt><trkpt lat="43.8577942" lon="11.24069"><ele>650.0</ele><time>2026-03-28T06:48:15.971Z</time></trkpt><trkpt lat="43.8578513" lon="11.2406387"><ele>649.0</ele><time>2026-03-28T06:48:16.978Z</time></trkpt><trkpt lat="43.8579317" lon="11.2405138"><ele>649.0</ele><time>2026-03-28T06:48:18.956Z</time></trkpt><trkpt lat="43.8580005" lon="11.2403689"><ele>649.0</ele><time>2026-03-28T06:48:20.962Z</time></trkpt><trkpt lat="43.8580496" lon="11.2402949"><ele>649.0</ele><time>2026-03-28T06:48:21.977Z</time></trkpt><trkpt lat="43.8581" lon="11.2402207"><ele>649.0</ele><time>2026-03-28T06:48:22.992Z</time></trkpt><trkpt lat="43.8581599" lon="11.2401503"><ele>649.0</ele><time>2026-03-28T06:48:23.984Z</time></trkpt><trkpt lat="43.8582148" lon="11.240093"><ele>649.0</ele><time>2026-03-28T06:48:24.974Z</time></trkpt><trkpt lat="43.8583179" lon="11.2399997"><ele>649.0</ele><time>2026-03-28T06:48:26.991Z</time></trkpt><trkpt lat="43.8583778" lon="11.2399572"><ele>649.0</ele><time>2026-03-28T06:48:27.986Z</time></trkpt><trkpt lat="43.8584452" lon="11.2399296"><ele>649.0</ele><time>2026-03-28T06:48:28.981Z</time></trkpt><trkpt lat="43.8585181" lon="11.2399082"><ele>649.0</ele><time>2026-03-28T06:48:29.989Z</time></trkpt><trkpt lat="43.858602" lon="11.2398899"><ele>649.0</ele><time>2026-03-28T06:48:30.982Z</time></trkpt><trkpt lat="43.8586861" lon="11.2398659"><ele>649.0</ele><time>2026-03-28T06:48:31.98Z</time></trkpt><trkpt lat="43.8587698" lon="11.2398613"><ele>648.8571428571428</ele><time>2026-03-28T06:48:32.974Z</time></trkpt><trkpt lat="43.8588456" lon="11.2398625"><ele>648.7142857142857</ele><time>2026-03-28T06:48:33.966Z</time></trkpt><trkpt lat="43.8589211" lon="11.2398544"><ele>648.5714285714286</ele><time>2026-03-28T06:48:34.982Z</time></trkpt><trkpt lat="43.8589958" lon="11.2398368"><ele>648.4285714285713</ele><time>2026-03-28T06:48:35.978Z</time></trkpt><trkpt lat="43.8590712" lon="11.2398165"><ele>648.2857142857142</ele><time>2026-03-28T06:48:36.981Z</time></trkpt><trkpt lat="43.8591368" lon="11.2398019"><ele>648.1428571428571</ele><time>2026-03-28T06:48:37.989Z</time></trkpt><trkpt lat="43.8592071" lon="11.2397848"><ele>648.0</ele><time>2026-03-28T06:48:38.971Z</time></trkpt><trkpt lat="43.8592724" lon="11.2397588"><ele>647.8333333333334</ele><time>2026-03-28T06:48:39.965Z</time></trkpt><trkpt lat="43.8593457" lon="11.2397347"><ele>647.6666666666666</ele><time>2026-03-28T06:48:40.969Z</time></trkpt><trkpt lat="43.859433" lon="11.2397109"><ele>647.5</ele><time>2026-03-28T06:48:41.986Z</time></trkpt><trkpt lat="43.859518" lon="11.239699"><ele>647.3333333333333</ele><time>2026-03-28T06:48:42.978Z</time></trkpt><trkpt lat="43.8595996" lon="11.2396886"><ele>647.1666666666666</ele><time>2026-03-28T06:48:44.07Z</time></trkpt><trkpt lat="43.8596787" lon="11.2396798"><ele>647.0</ele><time>2026-03-28T06:48:44.977Z</time></trkpt><trkpt lat="43.8597509" lon="11.239671"><ele>647.0</ele><time>2026-03-28T06:48:45.969Z</time></trkpt><trkpt lat="43.8598201" lon="11.239668"><ele>647.0</ele><time>2026-03-28T06:48:46.979Z</time></trkpt><trkpt lat="43.8598894" lon="11.2396662"><ele>647.0</ele><time>2026-03-28T06:48:47.977Z</time></trkpt><trkpt lat="43.8599571" lon="11.2396597"><ele>647.0</ele><time>2026-03-28T06:48:48.988Z</time></trkpt><trkpt lat="43.8600377" lon="11.2396583"><ele>647.0</ele><time>2026-03-28T06:48:49.983Z</time></trkpt><trkpt lat="43.8601127" lon="11.2396577"><ele>647.0</ele><time>2026-03-28T06:48:50.959Z</time></trkpt><trkpt lat="43.8601841" lon="11.2396565"><ele>647.0</ele><time>2026-03-28T06:48:51.987Z</time></trkpt><trkpt lat="43.8602535" lon="11.2396537"><ele>646.8333333333333</ele><time>2026-03-28T06:48:52.969Z</time></trkpt><trkpt lat="43.8603216" lon="11.2396612"><ele>646.6666666666666</ele><time>2026-03-28T06:48:53.974Z</time></trkpt><trkpt lat="43.8603852" lon="11.239644"><ele>646.5</ele><time>2026-03-28T06:48:54.971Z</time></trkpt><trkpt lat="43.8604528" lon="11.2396287"><ele>646.3333333333334</ele><time>2026-03-28T06:48:55.98Z</time></trkpt><trkpt lat="43.8605695" lon="11.2395841"><ele>646.1666666666667</ele><time>2026-03-28T06:48:57.964Z</time></trkpt><trkpt lat="43.8606777" lon="11.2395649"><ele>646.0</ele><time>2026-03-28T06:48:59.966Z</time></trkpt><trkpt lat="43.8607735" lon="11.2395677"><ele>646.0</ele><time>2026-03-28T06:49:01.975Z</time></trkpt><trkpt lat="43.8608388" lon="11.2395618"><ele>646.0</ele><time>2026-03-28T06:49:02.97Z</time></trkpt><trkpt lat="43.8609171" lon="11.239532"><ele>646.0</ele><time>2026-03-28T06:49:04.984Z</time></trkpt><trkpt lat="43.8609954" lon="11.239522"><ele>646.0</ele><time>2026-03-28T06:49:06.976Z</time></trkpt><trkpt lat="43.8610619" lon="11.2395502"><ele>646.0</ele><time>2026-03-28T06:49:08.976Z</time></trkpt><trkpt lat="43.8611241" lon="11.2395692"><ele>646.0</ele><time>2026-03-28T06:49:10.972Z</time></trkpt><trkpt lat="43.8612267" lon="11.2396244"><ele>646.0</ele><time>2026-03-28T06:49:12.987Z</time></trkpt><trkpt lat="43.8613268" lon="11.2396836"><ele>646.0</ele><time>2026-03-28T06:49:14.982Z</time></trkpt><trkpt lat="43.8614291" lon="11.2397142"><ele>646.0</ele><time>2026-03-28T06:49:16.966Z</time></trkpt><trkpt lat="43.8615322" lon="11.2397378"><ele>646.0</ele><time>2026-03-28T06:49:18.979Z</time></trkpt><trkpt lat="43.8616155" lon="11.239767"><ele>646.0</ele><time>2026-03-28T06:49:20.988Z</time></trkpt><trkpt lat="43.8617222" lon="11.2397945"><ele>648.6666666666667</ele><time>2026-03-28T06:49:23.982Z</time></trkpt><trkpt lat="43.8618163" lon="11.2398399"><ele>651.3333333333334</ele><time>2026-03-28T06:49:25.983Z</time></trkpt><trkpt lat="43.8618888" lon="11.2398571"><ele>654.0</ele><time>2026-03-28T06:49:26.99Z</time></trkpt><trkpt lat="43.8619822" lon="11.239882"><ele>656.6666666666666</ele><time>2026-03-28T06:49:28.973Z</time></trkpt><trkpt lat="43.8620833" lon="11.2399115"><ele>659.3333333333333</ele><time>2026-03-28T06:49:30.98Z</time></trkpt><trkpt lat="43.8621476" lon="11.2399203"><ele>662.0</ele><time>2026-03-28T06:49:31.981Z</time></trkpt><trkpt lat="43.8622185" lon="11.2399239"><ele>662.0</ele><time>2026-03-28T06:49:32.998Z</time></trkpt><trkpt lat="43.862324" lon="11.2399524"><ele>662.0</ele><time>2026-03-28T06:49:34.979Z</time></trkpt><trkpt lat="43.8623901" lon="11.2399638"><ele>662.0</ele><time>2026-03-28T06:49:35.978Z</time></trkpt><trkpt lat="43.8625183" lon="11.2400022"><ele>662.0</ele><time>2026-03-28T06:49:37.977Z</time></trkpt><trkpt lat="43.8626189" lon="11.240026"><ele>662.0</ele><time>2026-03-28T06:49:38.988Z</time></trkpt><trkpt lat="43.8627273" lon="11.2400456"><ele>661.2</ele><time>2026-03-28T06:49:39.982Z</time></trkpt><trkpt lat="43.8628323" lon="11.2400728"><ele>660.4000000000001</ele><time>2026-03-28T06:49:40.983Z</time></trkpt><trkpt lat="43.8629363" lon="11.2400981"><ele>659.5999999999999</ele><time>2026-03-28T06:49:41.981Z</time></trkpt><trkpt lat="43.8630482" lon="11.2401187"><ele>658.8</ele><time>2026-03-28T06:49:42.984Z</time></trkpt><trkpt lat="43.8631651" lon="11.2401473"><ele>658.0</ele><time>2026-03-28T06:49:43.968Z</time></trkpt><trkpt lat="43.8632872" lon="11.2401815"><ele>658.0</ele><time>2026-03-28T06:49:44.99Z</time></trkpt><trkpt lat="43.8634001" lon="11.2402021"><ele>658.0</ele><time>2026-03-28T06:49:45.984Z</time></trkpt><trkpt lat="43.8635083" lon="11.240221"><ele>658.0</ele><time>2026-03-28T06:49:46.989Z</time></trkpt><trkpt lat="43.863622" lon="11.2402555"><ele>658.0</ele><time>2026-03-28T06:49:47.991Z</time></trkpt><trkpt lat="43.8637444" lon="11.2402837"><ele>658.0</ele><time>2026-03-28T06:49:48.987Z</time></trkpt><trkpt lat="43.8638562" lon="11.2403126"><ele>658.0</ele><time>2026-03-28T06:49:49.978Z</time></trkpt><trkpt lat="43.8639466" lon="11.240328"><ele>658.0</ele><time>2026-03-28T06:49:50.965Z</time></trkpt><trkpt lat="43.8640539" lon="11.2403352"><ele>658.0</ele><time>2026-03-28T06:49:51.982Z</time></trkpt><trkpt lat="43.8641478" lon="11.2403282"><ele>658.0</ele><time>2026-03-28T06:49:53.029Z</time></trkpt><trkpt lat="43.8642311" lon="11.2403208"><ele>658.3333333333334</ele><time>2026-03-28T06:49:54.038Z</time></trkpt><trkpt lat="43.8643189" lon="11.2403125"><ele>658.6666666666667</ele><time>2026-03-28T06:49:54.955Z</time></trkpt><trkpt lat="43.8644001" lon="11.2403095"><ele>659.0</ele><time>2026-03-28T06:49:56.017Z</time></trkpt><trkpt lat="43.8644773" lon="11.2402987"><ele>659.3333333333334</ele><time>2026-03-28T06:49:57.032Z</time></trkpt><trkpt lat="43.8645573" lon="11.2403022"><ele>659.6666666666666</ele><time>2026-03-28T06:49:58.031Z</time></trkpt><trkpt lat="43.8646411" lon="11.2403085"><ele>660.0</ele><time>2026-03-28T06:49:59.041Z</time></trkpt><trkpt lat="43.8647249" lon="11.2403034"><ele>660.0</ele><time>2026-03-28T06:49:59.972Z</time></trkpt><trkpt lat="43.8648049" lon="11.240295"><ele>660.0</ele><time>2026-03-28T06:50:00.977Z</time></trkpt><trkpt lat="43.8648897" lon="11.2402958"><ele>660.0</ele><time>2026-03-28T06:50:01.965Z</time></trkpt><trkpt lat="43.8649841" lon="11.2402867"><ele>660.0</ele><time>2026-03-28T06:50:03.024Z</time></trkpt><trkpt lat="43.8650765" lon="11.2402888"><ele>660.0</ele><time>2026-03-28T06:50:04.022Z</time></trkpt><trkpt lat="43.8651621" lon="11.2402881"><ele>660.0</ele><time>2026-03-28T06:50:04.977Z</time></trkpt><trkpt lat="43.8652419" lon="11.240286"><ele>662.0</ele><time>2026-03-28T06:50:05.988Z</time></trkpt><trkpt lat="43.8653162" lon="11.2402927"><ele>664.0</ele><time>2026-03-28T06:50:06.973Z</time></trkpt><trkpt lat="43.865393" lon="11.2402991"><ele>666.0</ele><time>2026-03-28T06:50:07.986Z</time></trkpt><trkpt lat="43.8654675" lon="11.2403041"><ele>668.0</ele><time>2026-03-28T06:50:08.976Z</time></trkpt><trkpt lat="43.8656157" lon="11.2402951"><ele>670.0</ele><time>2026-03-28T06:50:10.956Z</time></trkpt><trkpt lat="43.8656866" lon="11.2402868"><ele>672.0</ele><time>2026-03-28T06:50:11.984Z</time></trkpt><trkpt lat="43.8657533" lon="11.2402663"><ele>672.0</ele><time>2026-03-28T06:50:13.013Z</time></trkpt><trkpt lat="43.8658171" lon="11.2402333"><ele>672.0</ele><time>2026-03-28T06:50:13.978Z</time></trkpt><trkpt lat="43.8658832" lon="11.240203"><ele>672.0</ele><time>2026-03-28T06:50:14.96Z</time></trkpt><trkpt lat="43.8659495" lon="11.2401776"><ele>672.0</ele><time>2026-03-28T06:50:15.979Z</time></trkpt><trkpt lat="43.8660121" lon="11.2401596"><ele>672.0</ele><time>2026-03-28T06:50:16.975Z</time></trkpt><trkpt lat="43.8660805" lon="11.2401624"><ele>672.0</ele><time>2026-03-28T06:50:17.972Z</time></trkpt><trkpt lat="43.8661648" lon="11.2401875"><ele>672.0</ele><time>2026-03-28T06:50:18.991Z</time></trkpt><trkpt lat="43.8662295" lon="11.2402472"><ele>671.6666666666666</ele><time>2026-03-28T06:50:20.971Z</time></trkpt><trkpt lat="43.8662705" lon="11.2403574"><ele>671.3333333333334</ele><time>2026-03-28T06:50:23.982Z</time></trkpt><trkpt lat="43.8662628" lon="11.2404554"><ele>671.0</ele><time>2026-03-28T06:50:25.981Z</time></trkpt><trkpt lat="43.8662409" lon="11.2405596"><ele>670.6666666666667</ele><time>2026-03-28T06:50:27.975Z</time></trkpt><trkpt lat="43.8662201" lon="11.240645"><ele>670.3333333333334</ele><time>2026-03-28T06:50:29.957Z</time></trkpt><trkpt lat="43.8661865" lon="11.2407412"><ele>670.0</ele><time>2026-03-28T06:50:32.041Z</time></trkpt><trkpt lat="43.8661939" lon="11.2408567"><ele>669.9999999999999</ele><time>2026-03-28T06:50:34.959Z</time></trkpt><trkpt lat="43.8662526" lon="11.2408969"><ele>670.0</ele><time>2026-03-28T06:50:37.968Z</time></trkpt><trkpt lat="43.8663181" lon="11.2409159"><ele>670.0</ele><time>2026-03-28T06:50:40.974Z</time></trkpt><trkpt lat="43.8663835" lon="11.2408848"><ele>670.0</ele><time>2026-03-28T06:50:43.973Z</time></trkpt><trkpt lat="43.8664807" lon="11.240876"><ele>670.0</ele><time>2026-03-28T06:50:49.975Z</time></trkpt><trkpt lat="43.8665335" lon="11.2409242"><ele>669.9999999999999</ele><time>2026-03-28T06:50:51.963Z</time></trkpt><trkpt lat="43.8665954" lon="11.240956"><ele>670.0</ele><time>2026-03-28T06:50:53.973Z</time></trkpt><trkpt lat="43.8666673" lon="11.2409911"><ele>669.9999999999999</ele><time>2026-03-28T06:50:57.978Z</time></trkpt><trkpt lat="43.8667304" lon="11.241036"><ele>670.0</ele><time>2026-03-28T06:51:01.969Z</time></trkpt><trkpt lat="43.8667955" lon="11.2410951"><ele>670.0</ele><time>2026-03-28T06:51:04.953Z</time></trkpt><trkpt lat="43.866846" lon="11.2411524"><ele>670.0</ele><time>2026-03-28T06:51:06.944Z</time></trkpt><trkpt lat="43.8668997" lon="11.2412447"><ele>670.0</ele><time>2026-03-28T06:51:09.953Z</time></trkpt><trkpt lat="43.8669263" lon="11.2413299"><ele>669.9999999999999</ele><time>2026-03-28T06:51:11.948Z</time></trkpt><trkpt lat="43.8669578" lon="11.2414315"><ele>670.0</ele><time>2026-03-28T06:51:13.949Z</time></trkpt><trkpt lat="43.8670117" lon="11.2415137"><ele>666.4285714285713</ele><time>2026-03-28T06:51:15.953Z</time></trkpt><trkpt lat="43.8670773" lon="11.2415693"><ele>662.8571428571429</ele><time>2026-03-28T06:51:17.963Z</time></trkpt><trkpt lat="43.8671451" lon="11.2416246"><ele>659.2857142857142</ele><time>2026-03-28T06:51:19.968Z</time></trkpt><trkpt lat="43.8672062" lon="11.2416726"><ele>655.7142857142857</ele><time>2026-03-28T06:51:21.961Z</time></trkpt><trkpt lat="43.8672608" lon="11.2417274"><ele>652.1428571428571</ele><time>2026-03-28T06:51:23.966Z</time></trkpt><trkpt lat="43.8673209" lon="11.2417846"><ele>648.5714285714286</ele><time>2026-03-28T06:51:27.013Z</time></trkpt><trkpt lat="43.8673877" lon="11.2418483"><ele>645.0</ele><time>2026-03-28T06:51:29.95Z</time></trkpt><trkpt lat="43.8674552" lon="11.2418997"><ele>645.0</ele><time>2026-03-28T06:51:32.963Z</time></trkpt><trkpt lat="43.8674934" lon="11.2420164"><ele>645.0</ele><time>2026-03-28T06:51:35.963Z</time></trkpt><trkpt lat="43.8674903" lon="11.2421081"><ele>645.0</ele><time>2026-03-28T06:51:37.953Z</time></trkpt><trkpt lat="43.8674804" lon="11.2421979"><ele>645.0</ele><time>2026-03-28T06:51:39.964Z</time></trkpt><trkpt lat="43.8674738" lon="11.242285"><ele>645.0</ele><time>2026-03-28T06:51:41.956Z</time></trkpt><trkpt lat="43.8674543" lon="11.2423749"><ele>645.0</ele><time>2026-03-28T06:51:43.955Z</time></trkpt><trkpt lat="43.8674256" lon="11.2424637"><ele>645.0</ele><time>2026-03-28T06:51:46.019Z</time></trkpt><trkpt lat="43.8674044" lon="11.2425834"><ele>646.75</ele><time>2026-03-28T06:51:47.952Z</time></trkpt><trkpt lat="43.8673748" lon="11.2427181"><ele>648.5</ele><time>2026-03-28T06:51:49.946Z</time></trkpt><trkpt lat="43.8673398" lon="11.2428642"><ele>650.25</ele><time>2026-03-28T06:51:51.957Z</time></trkpt><trkpt lat="43.86727" lon="11.243014"><ele>652.0</ele><time>2026-03-28T06:51:53.957Z</time></trkpt><trkpt lat="43.8672152" lon="11.2431457"><ele>652.0</ele><time>2026-03-28T06:51:55.959Z</time></trkpt><trkpt lat="43.8671683" lon="11.2432314"><ele>652.0</ele><time>2026-03-28T06:51:58.041Z</time></trkpt><trkpt lat="43.8671222" lon="11.2433321"><ele>652.0</ele><time>2026-03-28T06:51:59.961Z</time></trkpt><trkpt lat="43.8670786" lon="11.2434272"><ele>652.0</ele><time>2026-03-28T06:52:01.958Z</time></trkpt><trkpt lat="43.8670535" lon="11.2435355"><ele>652.0</ele><time>2026-03-28T06:52:03.958Z</time></trkpt><trkpt lat="43.8670171" lon="11.2436412"><ele>652.0</ele><time>2026-03-28T06:52:06.032Z</time></trkpt><trkpt lat="43.8669915" lon="11.243749"><ele>652.0</ele><time>2026-03-28T06:52:08.039Z</time></trkpt><trkpt lat="43.8669569" lon="11.2438584"><ele>652.0</ele><time>2026-03-28T06:52:09.953Z</time></trkpt><trkpt lat="43.8669266" lon="11.2440209"><ele>652.0</ele><time>2026-03-28T06:52:11.963Z</time></trkpt><trkpt lat="43.8669305" lon="11.2441634"><ele>652.0</ele><time>2026-03-28T06:52:13.959Z</time></trkpt><trkpt lat="43.8669376" lon="11.2442902"><ele>652.0</ele><time>2026-03-28T06:52:15.965Z</time></trkpt><trkpt lat="43.8669557" lon="11.2444226"><ele>654.2</ele><time>2026-03-28T06:52:18.016Z</time></trkpt><trkpt lat="43.866955" lon="11.2445608"><ele>656.4000000000001</ele><time>2026-03-28T06:52:19.963Z</time></trkpt><trkpt lat="43.8669562" lon="11.2447511"><ele>658.5999999999999</ele><time>2026-03-28T06:52:21.951Z</time></trkpt><trkpt lat="43.8669737" lon="11.2448514"><ele>660.8</ele><time>2026-03-28T06:52:22.953Z</time></trkpt><trkpt lat="43.866989" lon="11.2449472"><ele>663.0</ele><time>2026-03-28T06:52:23.962Z</time></trkpt><trkpt lat="43.867002" lon="11.245051"><ele>663.4285714285713</ele><time>2026-03-28T06:52:24.966Z</time></trkpt><trkpt lat="43.8670098" lon="11.2451521"><ele>663.8571428571429</ele><time>2026-03-28T06:52:26.031Z</time></trkpt><trkpt lat="43.8670189" lon="11.2452496"><ele>664.2857142857142</ele><time>2026-03-28T06:52:27.026Z</time></trkpt><trkpt lat="43.8670235" lon="11.2453439"><ele>664.7142857142857</ele><time>2026-03-28T06:52:28.03Z</time></trkpt><trkpt lat="43.867021" lon="11.2454335"><ele>665.1428571428571</ele><time>2026-03-28T06:52:28.962Z</time></trkpt><trkpt lat="43.8670209" lon="11.245524"><ele>665.5714285714286</ele><time>2026-03-28T06:52:29.954Z</time></trkpt><trkpt lat="43.8670166" lon="11.2456173"><ele>666.0</ele><time>2026-03-28T06:52:30.964Z</time></trkpt><trkpt lat="43.8670157" lon="11.2457655"><ele>666.0</ele><time>2026-03-28T06:52:32.954Z</time></trkpt><trkpt lat="43.86701" lon="11.2458791"><ele>666.0</ele><time>2026-03-28T06:52:34.962Z</time></trkpt><trkpt lat="43.867021" lon="11.2459937"><ele>666.0</ele><time>2026-03-28T06:52:36.948Z</time></trkpt><trkpt lat="43.8670193" lon="11.2461205"><ele>666.0</ele><time>2026-03-28T06:52:38.958Z</time></trkpt><trkpt lat="43.8670247" lon="11.2462738"><ele>666.0</ele><time>2026-03-28T06:52:40.956Z</time></trkpt><trkpt lat="43.8670344" lon="11.2463685"><ele>666.0</ele><time>2026-03-28T06:52:41.962Z</time></trkpt><trkpt lat="43.8670473" lon="11.2464608"><ele>665.6666666666666</ele><time>2026-03-28T06:52:42.949Z</time></trkpt><trkpt lat="43.867063" lon="11.246605"><ele>665.3333333333334</ele><time>2026-03-28T06:52:44.945Z</time></trkpt><trkpt lat="43.8670679" lon="11.2466942"><ele>665.0</ele><time>2026-03-28T06:52:46.955Z</time></trkpt><trkpt lat="43.8670606" lon="11.2467925"><ele>664.6666666666667</ele><time>2026-03-28T06:52:48.957Z</time></trkpt><trkpt lat="43.8670522" lon="11.2469238"><ele>664.3333333333334</ele><time>2026-03-28T06:52:51.035Z</time></trkpt><trkpt lat="43.8670553" lon="11.247058"><ele>664.0</ele><time>2026-03-28T06:52:53.039Z</time></trkpt><trkpt lat="43.8670471" lon="11.2471843"><ele>664.0</ele><time>2026-03-28T06:52:54.965Z</time></trkpt><trkpt lat="43.8670412" lon="11.2472768"><ele>664.0</ele><time>2026-03-28T06:52:56.968Z</time></trkpt><trkpt lat="43.867032" lon="11.2473688"><ele>664.0</ele><time>2026-03-28T06:52:58.959Z</time></trkpt><trkpt lat="43.8670044" lon="11.2474748"><ele>664.0</ele><time>2026-03-28T06:53:00.972Z</time></trkpt><trkpt lat="43.8669733" lon="11.2475908"><ele>664.0</ele><time>2026-03-28T06:53:03.04Z</time></trkpt><trkpt lat="43.8669357" lon="11.2477213"><ele>664.0</ele><time>2026-03-28T06:53:04.969Z</time></trkpt><trkpt lat="43.8669086" lon="11.2478442"><ele>664.0</ele><time>2026-03-28T06:53:06.968Z</time></trkpt><trkpt lat="43.8668966" lon="11.2479305"><ele>664.0</ele><time>2026-03-28T06:53:07.979Z</time></trkpt><trkpt lat="43.8668869" lon="11.2480227"><ele>664.0</ele><time>2026-03-28T06:53:08.961Z</time></trkpt><trkpt lat="43.8668988" lon="11.2481177"><ele>664.0</ele><time>2026-03-28T06:53:09.965Z</time></trkpt><trkpt lat="43.8669129" lon="11.248214"><ele>664.0</ele><time>2026-03-28T06:53:11.029Z</time></trkpt><trkpt lat="43.8669302" lon="11.2483002"><ele>664.0</ele><time>2026-03-28T06:53:12.038Z</time></trkpt><trkpt lat="43.8669358" lon="11.2484009"><ele>664.0</ele><time>2026-03-28T06:53:13.036Z</time></trkpt><trkpt lat="43.8669425" lon="11.2484893"><ele>664.1428571428571</ele><time>2026-03-28T06:53:13.96Z</time></trkpt><trkpt lat="43.86694" lon="11.2485803"><ele>664.2857142857143</ele><time>2026-03-28T06:53:14.966Z</time></trkpt><trkpt lat="43.8669401" lon="11.2486764"><ele>664.4285714285714</ele><time>2026-03-28T06:53:15.959Z</time></trkpt><trkpt lat="43.8669359" lon="11.2487706"><ele>664.5714285714286</ele><time>2026-03-28T06:53:16.966Z</time></trkpt><trkpt lat="43.8669384" lon="11.2488636"><ele>664.7142857142858</ele><time>2026-03-28T06:53:17.969Z</time></trkpt><trkpt lat="43.8669499" lon="11.2489738"><ele>664.8571428571429</ele><time>2026-03-28T06:53:18.966Z</time></trkpt><trkpt lat="43.8669511" lon="11.2490645"><ele>665.0</ele><time>2026-03-28T06:53:19.963Z</time></trkpt><trkpt lat="43.8669314" lon="11.2492434"><ele>665.0</ele><time>2026-03-28T06:53:21.995Z</time></trkpt><trkpt lat="43.8669048" lon="11.2493453"><ele>665.0</ele><time>2026-03-28T06:53:22.965Z</time></trkpt><trkpt lat="43.8668725" lon="11.2494504"><ele>665.0</ele><time>2026-03-28T06:53:23.957Z</time></trkpt><trkpt lat="43.8668427" lon="11.2495543"><ele>665.0</ele><time>2026-03-28T06:53:24.971Z</time></trkpt><trkpt lat="43.86682" lon="11.2496491"><ele>665.0</ele><time>2026-03-28T06:53:25.96Z</time></trkpt><trkpt lat="43.8668001" lon="11.2497407"><ele>665.0</ele><time>2026-03-28T06:53:26.966Z</time></trkpt><trkpt lat="43.8667762" lon="11.2498313"><ele>659.3333333333333</ele><time>2026-03-28T06:53:27.967Z</time></trkpt><trkpt lat="43.8667544" lon="11.2499169"><ele>653.6666666666666</ele><time>2026-03-28T06:53:28.966Z</time></trkpt><trkpt lat="43.8667312" lon="11.2500044"><ele>648.0</ele><time>2026-03-28T06:53:29.968Z</time></trkpt><trkpt lat="43.8667144" lon="11.2500915"><ele>642.3333333333334</ele><time>2026-03-28T06:53:30.966Z</time></trkpt><trkpt lat="43.8667061" lon="11.2501793"><ele>636.6666666666667</ele><time>2026-03-28T06:53:31.97Z</time></trkpt><trkpt lat="43.8667052" lon="11.2503444"><ele>631.0</ele><time>2026-03-28T06:53:33.961Z</time></trkpt><trkpt lat="43.8667302" lon="11.2505134"><ele>631.0</ele><time>2026-03-28T06:53:35.957Z</time></trkpt><trkpt lat="43.8667479" lon="11.2506038"><ele>631.0</ele><time>2026-03-28T06:53:37.031Z</time></trkpt><trkpt lat="43.8667542" lon="11.2506984"><ele>631.0</ele><time>2026-03-28T06:53:38.032Z</time></trkpt><trkpt lat="43.8667705" lon="11.2507904"><ele>631.0</ele><time>2026-03-28T06:53:38.983Z</time></trkpt><trkpt lat="43.8667819" lon="11.2508858"><ele>631.0</ele><time>2026-03-28T06:53:39.961Z</time></trkpt><trkpt lat="43.8667923" lon="11.2509802"><ele>631.0</ele><time>2026-03-28T06:53:40.975Z</time></trkpt><trkpt lat="43.8668002" lon="11.2510734"><ele>631.0</ele><time>2026-03-28T06:53:41.98Z</time></trkpt><trkpt lat="43.86682" lon="11.2512531"><ele>630.0</ele><time>2026-03-28T06:53:43.965Z</time></trkpt><trkpt lat="43.86684" lon="11.2514084"><ele>629.0</ele><time>2026-03-28T06:53:45.948Z</time></trkpt><trkpt lat="43.8668783" lon="11.2515506"><ele>628.0</ele><time>2026-03-28T06:53:47.961Z</time></trkpt><trkpt lat="43.8669208" lon="11.2516944"><ele>627.0</ele><time>2026-03-28T06:53:49.967Z</time></trkpt><trkpt lat="43.8669423" lon="11.2518307"><ele>626.0</ele><time>2026-03-28T06:53:51.966Z</time></trkpt><trkpt lat="43.8669276" lon="11.2519515"><ele>626.0</ele><time>2026-03-28T06:53:53.959Z</time></trkpt><trkpt lat="43.8668814" lon="11.2520689"><ele>626.0</ele><time>2026-03-28T06:53:55.965Z</time></trkpt><trkpt lat="43.8668187" lon="11.2521785"><ele>626.0</ele><time>2026-03-28T06:53:57.97Z</time></trkpt><trkpt lat="43.8667552" lon="11.2522959"><ele>626.0</ele><time>2026-03-28T06:53:59.96Z</time></trkpt><trkpt lat="43.8666812" lon="11.2524164"><ele>626.0</ele><time>2026-03-28T06:54:01.971Z</time></trkpt><trkpt lat="43.866612" lon="11.2525333"><ele>624.8333333333333</ele><time>2026-03-28T06:54:03.967Z</time></trkpt><trkpt lat="43.8665767" lon="11.2526717"><ele>623.6666666666666</ele><time>2026-03-28T06:54:05.971Z</time></trkpt><trkpt lat="43.8666077" lon="11.2527548"><ele>622.5</ele><time>2026-03-28T06:54:07.97Z</time></trkpt><trkpt lat="43.8666917" lon="11.2528075"><ele>621.3333333333334</ele><time>2026-03-28T06:54:10.971Z</time></trkpt><trkpt lat="43.8667602" lon="11.2528327"><ele>620.1666666666667</ele><time>2026-03-28T06:54:12.975Z</time></trkpt><trkpt lat="43.8668301" lon="11.2528632"><ele>619.0</ele><time>2026-03-28T06:54:14.969Z</time></trkpt><trkpt lat="43.866923" lon="11.2528766"><ele>618.0</ele><time>2026-03-28T06:54:16.946Z</time></trkpt><trkpt lat="43.8670237" lon="11.2528786"><ele>617.0</ele><time>2026-03-28T06:54:18.968Z</time></trkpt><trkpt lat="43.8671233" lon="11.2528394"><ele>616.0</ele><time>2026-03-28T06:54:20.96Z</time></trkpt><trkpt lat="43.8672038" lon="11.2527778"><ele>615.0</ele><time>2026-03-28T06:54:22.965Z</time></trkpt><trkpt lat="43.8672673" lon="11.2526991"><ele>614.0</ele><time>2026-03-28T06:54:24.971Z</time></trkpt><trkpt lat="43.8673347" lon="11.2526338"><ele>614.0</ele><time>2026-03-28T06:54:26.961Z</time></trkpt><trkpt lat="43.8674017" lon="11.2525823"><ele>614.0</ele><time>2026-03-28T06:54:28.96Z</time></trkpt><trkpt lat="43.8674571" lon="11.2525085"><ele>614.0</ele><time>2026-03-28T06:54:30.963Z</time></trkpt><trkpt lat="43.8675136" lon="11.2524418"><ele>614.0</ele><time>2026-03-28T06:54:33.955Z</time></trkpt><trkpt lat="43.8675704" lon="11.2523944"><ele>614.0</ele><time>2026-03-28T06:54:36.943Z</time></trkpt><trkpt lat="43.8676564" lon="11.2523757"><ele>614.0</ele><time>2026-03-28T06:54:42.969Z</time></trkpt><trkpt lat="43.8677439" lon="11.252339"><ele>611.6666666666666</ele><time>2026-03-28T06:54:46.964Z</time></trkpt><trkpt lat="43.8678246" lon="11.2523229"><ele>609.3333333333333</ele><time>2026-03-28T06:54:48.961Z</time></trkpt><trkpt lat="43.8679171" lon="11.2523546"><ele>607.0</ele><time>2026-03-28T06:54:50.952Z</time></trkpt><trkpt lat="43.8679985" lon="11.2524"><ele>604.6666666666666</ele><time>2026-03-28T06:54:52.962Z</time></trkpt><trkpt lat="43.8680767" lon="11.2524556"><ele>602.3333333333334</ele><time>2026-03-28T06:54:54.972Z</time></trkpt><trkpt lat="43.8681612" lon="11.2525181"><ele>600.0</ele><time>2026-03-28T06:54:56.954Z</time></trkpt><trkpt lat="43.868217" lon="11.2525686"><ele>600.0</ele><time>2026-03-28T06:54:57.964Z</time></trkpt><trkpt lat="43.8683024" lon="11.2526761"><ele>600.0</ele><time>2026-03-28T06:54:59.964Z</time></trkpt><trkpt lat="43.8683487" lon="11.2527353"><ele>600.0</ele><time>2026-03-28T06:55:00.948Z</time></trkpt><trkpt lat="43.8684269" lon="11.2528452"><ele>600.0</ele><time>2026-03-28T06:55:02.946Z</time></trkpt><trkpt lat="43.8685261" lon="11.2529343"><ele>600.0</ele><time>2026-03-28T06:55:04.975Z</time></trkpt><trkpt lat="43.8686118" lon="11.253041"><ele>598.5</ele><time>2026-03-28T06:55:06.952Z</time></trkpt><trkpt lat="43.8687032" lon="11.2531091"><ele>597.0</ele><time>2026-03-28T06:55:08.968Z</time></trkpt><trkpt lat="43.8687942" lon="11.2531651"><ele>595.5</ele><time>2026-03-28T06:55:10.964Z</time></trkpt><trkpt lat="43.8688508" lon="11.2532596"><ele>594.0</ele><time>2026-03-28T06:55:12.967Z</time></trkpt><trkpt lat="43.8688591" lon="11.2533533"><ele>592.5</ele><time>2026-03-28T06:55:14.961Z</time></trkpt><trkpt lat="43.8687795" lon="11.2533636"><ele>591.0</ele><time>2026-03-28T06:55:17.963Z</time></trkpt><trkpt lat="43.8686951" lon="11.2533284"><ele>591.0</ele><time>2026-03-28T06:55:20.962Z</time></trkpt><trkpt lat="43.8686205" lon="11.2533043"><ele>591.0</ele><time>2026-03-28T06:55:23.965Z</time></trkpt><trkpt lat="43.8685383" lon="11.2533159"><ele>591.0</ele><time>2026-03-28T06:55:26.972Z</time></trkpt><trkpt lat="43.8685463" lon="11.253424"><ele>591.0</ele><time>2026-03-28T06:55:30.969Z</time></trkpt><trkpt lat="43.8686007" lon="11.2534868"><ele>591.0</ele><time>2026-03-28T06:55:32.96Z</time></trkpt><trkpt lat="43.8686608" lon="11.2535861"><ele>591.0</ele><time>2026-03-28T06:55:34.964Z</time></trkpt><trkpt lat="43.8687361" lon="11.2536871"><ele>591.0</ele><time>2026-03-28T06:55:36.965Z</time></trkpt><trkpt lat="43.8687832" lon="11.2537786"><ele>591.0</ele><time>2026-03-28T06:55:38.97Z</time></trkpt><trkpt lat="43.8688288" lon="11.253861"><ele>591.0</ele><time>2026-03-28T06:55:40.968Z</time></trkpt><trkpt lat="43.8688742" lon="11.2539355"><ele>591.0</ele><time>2026-03-28T06:55:42.964Z</time></trkpt><trkpt lat="43.8689178" lon="11.2540085"><ele>591.0</ele><time>2026-03-28T06:55:44.975Z</time></trkpt><trkpt lat="43.8689795" lon="11.2540748"><ele>591.0</ele><time>2026-03-28T06:55:47.992Z</time></trkpt><trkpt lat="43.869041" lon="11.2541324"><ele>591.0</ele><time>2026-03-28T06:55:50.968Z</time></trkpt><trkpt lat="43.8690939" lon="11.2541927"><ele>586.5</ele><time>2026-03-28T06:55:57.035Z</time></trkpt><trkpt lat="43.8691411" lon="11.2543076"><ele>582.0</ele><time>2026-03-28T06:55:59.95Z</time></trkpt><trkpt lat="43.869197" lon="11.2543952"><ele>577.5</ele><time>2026-03-28T06:56:01.969Z</time></trkpt><trkpt lat="43.8692544" lon="11.2544466"><ele>573.0</ele><time>2026-03-28T06:56:12.96Z</time></trkpt><trkpt lat="43.8693277" lon="11.2545203"><ele>568.5</ele><time>2026-03-28T06:56:15.961Z</time></trkpt><trkpt lat="43.8694" lon="11.2545783"><ele>564.0</ele><time>2026-03-28T06:56:18.029Z</time></trkpt><trkpt lat="43.8694787" lon="11.2546271"><ele>564.0</ele><time>2026-03-28T06:56:19.956Z</time></trkpt><trkpt lat="43.8695522" lon="11.2546491"><ele>564.0</ele><time>2026-03-28T06:56:21.94Z</time></trkpt><trkpt lat="43.8696168" lon="11.2546659"><ele>564.0</ele><time>2026-03-28T06:56:23.969Z</time></trkpt><trkpt lat="43.869683" lon="11.2546796"><ele>564.0</ele><time>2026-03-28T06:56:26.052Z</time></trkpt><trkpt lat="43.8697747" lon="11.2546885"><ele>564.0</ele><time>2026-03-28T06:56:28.963Z</time></trkpt><trkpt lat="43.8698596" lon="11.2547158"><ele>564.0</ele><time>2026-03-28T06:56:31.962Z</time></trkpt><trkpt lat="43.8699479" lon="11.2547593"><ele>564.0</ele><time>2026-03-28T06:56:34.96Z</time></trkpt><trkpt lat="43.8700084" lon="11.2547835"><ele>564.0</ele><time>2026-03-28T06:56:36.964Z</time></trkpt><trkpt lat="43.8700705" lon="11.2547995"><ele>564.0</ele><time>2026-03-28T06:56:39.035Z</time></trkpt><trkpt lat="43.8701472" lon="11.2548305"><ele>564.0</ele><time>2026-03-28T06:56:40.964Z</time></trkpt><trkpt lat="43.870234" lon="11.2548742"><ele>564.0</ele><time>2026-03-28T06:56:42.947Z</time></trkpt><trkpt lat="43.8702996" lon="11.2549347"><ele>564.0</ele><time>2026-03-28T06:56:44.952Z</time></trkpt><trkpt lat="43.870359" lon="11.2550214"><ele>558.2</ele><time>2026-03-28T06:56:46.983Z</time></trkpt><trkpt lat="43.8704251" lon="11.2550996"><ele>552.4</ele><time>2026-03-28T06:56:49.03Z</time></trkpt><trkpt lat="43.8704969" lon="11.2551822"><ele>546.6</ele><time>2026-03-28T06:56:50.957Z</time></trkpt><trkpt lat="43.870573" lon="11.2552581"><ele>540.8</ele><time>2026-03-28T06:56:52.973Z</time></trkpt><trkpt lat="43.8706446" lon="11.255344"><ele>535.0</ele><time>2026-03-28T06:56:54.973Z</time></trkpt><trkpt lat="43.8707193" lon="11.2554107"><ele>535.0</ele><time>2026-03-28T06:56:57.033Z</time></trkpt><trkpt lat="43.870795" lon="11.255476"><ele>535.0</ele><time>2026-03-28T06:56:58.972Z</time></trkpt><trkpt lat="43.8708727" lon="11.2555107"><ele>535.0</ele><time>2026-03-28T06:57:00.961Z</time></trkpt><trkpt lat="43.8709272" lon="11.2555548"><ele>535.0</ele><time>2026-03-28T06:57:02.976Z</time></trkpt><trkpt lat="43.8709941" lon="11.2555865"><ele>535.0</ele><time>2026-03-28T06:57:04.964Z</time></trkpt><trkpt lat="43.8710662" lon="11.2555923"><ele>535.0</ele><time>2026-03-28T06:57:06.959Z</time></trkpt><trkpt lat="43.8711669" lon="11.2555879"><ele>531.7142857142857</ele><time>2026-03-28T06:57:08.952Z</time></trkpt><trkpt lat="43.8712492" lon="11.2555933"><ele>528.4285714285714</ele><time>2026-03-28T06:57:10.951Z</time></trkpt><trkpt lat="43.8713212" lon="11.2555789"><ele>525.1428571428571</ele><time>2026-03-28T06:57:13.043Z</time></trkpt><trkpt lat="43.8713943" lon="11.2555661"><ele>521.8571428571429</ele><time>2026-03-28T06:57:14.966Z</time></trkpt><trkpt lat="43.8714566" lon="11.2555455"><ele>518.5714285714286</ele><time>2026-03-28T06:57:16.961Z</time></trkpt><trkpt lat="43.8715334" lon="11.2555527"><ele>515.2857142857142</ele><time>2026-03-28T06:57:18.965Z</time></trkpt><trkpt lat="43.8715988" lon="11.2555725"><ele>512.0</ele><time>2026-03-28T06:57:20.961Z</time></trkpt><trkpt lat="43.8716649" lon="11.2555705"><ele>511.99999999999994</ele><time>2026-03-28T06:57:54.956Z</time></trkpt><trkpt lat="43.8716927" lon="11.2554522"><ele>512.0</ele><time>2026-03-28T06:57:57.953Z</time></trkpt><trkpt lat="43.8717146" lon="11.2553675"><ele>512.0</ele><time>2026-03-28T06:57:59.952Z</time></trkpt><trkpt lat="43.8717094" lon="11.2552393"><ele>512.0</ele><time>2026-03-28T06:58:02.958Z</time></trkpt><trkpt lat="43.8717103" lon="11.2551251"><ele>511.99999999999994</ele><time>2026-03-28T06:58:05.962Z</time></trkpt><trkpt lat="43.8717118" lon="11.2552292"><ele>512.0</ele><time>2026-03-28T06:58:14.95Z</time></trkpt><trkpt lat="43.8717194" lon="11.2553573"><ele>511.99999999999994</ele><time>2026-03-28T06:58:17.956Z</time></trkpt><trkpt lat="43.8717032" lon="11.2554738"><ele>512.0</ele><time>2026-03-28T06:58:19.965Z</time></trkpt><trkpt lat="43.8716691" lon="11.2555588"><ele>512.0</ele><time>2026-03-28T06:58:23.976Z</time></trkpt><trkpt lat="43.8716228" lon="11.2556529"><ele>512.0</ele><time>2026-03-28T06:58:26.969Z</time></trkpt><trkpt lat="43.8715616" lon="11.2557649"><ele>511.99999999999994</ele><time>2026-03-28T06:58:28.973Z</time></trkpt><trkpt lat="43.8715188" lon="11.2558596"><ele>512.0</ele><time>2026-03-28T06:58:30.967Z</time></trkpt><trkpt lat="43.8714971" lon="11.2559474"><ele>510.6</ele><time>2026-03-28T06:58:32.029Z</time></trkpt><trkpt lat="43.8714639" lon="11.2560962"><ele>509.20000000000005</ele><time>2026-03-28T06:58:33.968Z</time></trkpt><trkpt lat="43.8714468" lon="11.2562467"><ele>507.8</ele><time>2026-03-28T06:58:35.974Z</time></trkpt><trkpt lat="43.8714193" lon="11.2563596"><ele>506.4</ele><time>2026-03-28T06:58:37.976Z</time></trkpt><trkpt lat="43.8714252" lon="11.2565044"><ele>505.0</ele><time>2026-03-28T06:58:40Z</time></trkpt><trkpt lat="43.8714678" lon="11.2566638"><ele>503.4285714285714</ele><time>2026-03-28T06:58:41.961Z</time></trkpt><trkpt lat="43.8715102" lon="11.256819"><ele>501.8571428571428</ele><time>2026-03-28T06:58:43.967Z</time></trkpt><trkpt lat="43.8715266" lon="11.2569106"><ele>500.2857142857143</ele><time>2026-03-28T06:58:44.966Z</time></trkpt><trkpt lat="43.8715466" lon="11.2569998"><ele>498.71428571428567</ele><time>2026-03-28T06:58:45.966Z</time></trkpt><trkpt lat="43.8715624" lon="11.2570864"><ele>497.1428571428571</ele><time>2026-03-28T06:58:46.975Z</time></trkpt><trkpt lat="43.8715797" lon="11.257171"><ele>495.57142857142856</ele><time>2026-03-28T06:58:48.01Z</time></trkpt><trkpt lat="43.8715856" lon="11.2572614"><ele>494.0</ele><time>2026-03-28T06:58:48.973Z</time></trkpt><trkpt lat="43.8715757" lon="11.257445"><ele>491.8333333333333</ele><time>2026-03-28T06:58:50.976Z</time></trkpt><trkpt lat="43.8715516" lon="11.257536"><ele>489.66666666666663</ele><time>2026-03-28T06:58:51.974Z</time></trkpt><trkpt lat="43.8715264" lon="11.2576362"><ele>487.5</ele><time>2026-03-28T06:58:52.982Z</time></trkpt><trkpt lat="43.8715057" lon="11.2577451"><ele>485.33333333333337</ele><time>2026-03-28T06:58:53.982Z</time></trkpt><trkpt lat="43.871489" lon="11.257851"><ele>483.1666666666667</ele><time>2026-03-28T06:58:55.034Z</time></trkpt><trkpt lat="43.8714733" lon="11.2579696"><ele>481.0</ele><time>2026-03-28T06:58:56.013Z</time></trkpt><trkpt lat="43.8714595" lon="11.2580922"><ele>479.33333333333337</ele><time>2026-03-28T06:58:56.966Z</time></trkpt><trkpt lat="43.8714556" lon="11.2582004"><ele>477.6666666666667</ele><time>2026-03-28T06:58:58.031Z</time></trkpt><trkpt lat="43.8714583" lon="11.2583107"><ele>476.0</ele><time>2026-03-28T06:58:58.962Z</time></trkpt><trkpt lat="43.8714604" lon="11.2584078"><ele>474.33333333333337</ele><time>2026-03-28T06:58:59.967Z</time></trkpt><trkpt lat="43.8714689" lon="11.2585153"><ele>472.6666666666667</ele><time>2026-03-28T06:59:00.955Z</time></trkpt><trkpt lat="43.8714852" lon="11.2586162"><ele>471.0</ele><time>2026-03-28T06:59:01.955Z</time></trkpt><trkpt lat="43.871534" lon="11.2587193"><ele>471.0</ele><time>2026-03-28T06:59:03.967Z</time></trkpt><trkpt lat="43.8716072" lon="11.2586712"><ele>471.0</ele><time>2026-03-28T06:59:05.972Z</time></trkpt><trkpt lat="43.8716388" lon="11.2585578"><ele>471.0</ele><time>2026-03-28T06:59:07.961Z</time></trkpt><trkpt lat="43.871663" lon="11.2584226"><ele>471.0</ele><time>2026-03-28T06:59:09.955Z</time></trkpt><trkpt lat="43.8716836" lon="11.2583372"><ele>471.0</ele><time>2026-03-28T06:59:10.952Z</time></trkpt><trkpt lat="43.8717081" lon="11.2582512"><ele>471.0</ele><time>2026-03-28T06:59:11.966Z</time></trkpt><trkpt lat="43.8717356" lon="11.2581566"><ele>473.0</ele><time>2026-03-28T06:59:12.961Z</time></trkpt><trkpt lat="43.8717706" lon="11.2580644"><ele>475.0</ele><time>2026-03-28T06:59:13.967Z</time></trkpt><trkpt lat="43.8718101" lon="11.2579755"><ele>477.0</ele><time>2026-03-28T06:59:14.963Z</time></trkpt><trkpt lat="43.8719079" lon="11.2578844"><ele>479.0</ele><time>2026-03-28T06:59:16.966Z</time></trkpt><trkpt lat="43.8720439" lon="11.2578925"><ele>481.0</ele><time>2026-03-28T06:59:18.963Z</time></trkpt><trkpt lat="43.8721246" lon="11.257956"><ele>477.33333333333337</ele><time>2026-03-28T06:59:19.965Z</time></trkpt><trkpt lat="43.8721938" lon="11.2580191"><ele>473.6666666666667</ele><time>2026-03-28T06:59:20.958Z</time></trkpt><trkpt lat="43.8722503" lon="11.2581012"><ele>470.0</ele><time>2026-03-28T06:59:21.97Z</time></trkpt><trkpt lat="43.8722993" lon="11.2581919"><ele>466.33333333333337</ele><time>2026-03-28T06:59:22.964Z</time></trkpt><trkpt lat="43.8723396" lon="11.2582852"><ele>462.6666666666667</ele><time>2026-03-28T06:59:23.964Z</time></trkpt><trkpt lat="43.8723847" lon="11.2583802"><ele>459.0</ele><time>2026-03-28T06:59:24.963Z</time></trkpt><trkpt lat="43.8724264" lon="11.2584692"><ele>458.5</ele><time>2026-03-28T06:59:25.967Z</time></trkpt><trkpt lat="43.8724669" lon="11.2585485"><ele>458.0</ele><time>2026-03-28T06:59:27.029Z</time></trkpt><trkpt lat="43.8725076" lon="11.2586336"><ele>457.5</ele><time>2026-03-28T06:59:28.029Z</time></trkpt><trkpt lat="43.8725577" lon="11.2587225"><ele>457.0</ele><time>2026-03-28T06:59:28.965Z</time></trkpt><trkpt lat="43.8725979" lon="11.2588238"><ele>456.5</ele><time>2026-03-28T06:59:29.963Z</time></trkpt><trkpt lat="43.8726334" lon="11.2589312"><ele>456.0</ele><time>2026-03-28T06:59:30.981Z</time></trkpt><trkpt lat="43.8726601" lon="11.2590418"><ele>452.6666666666667</ele><time>2026-03-28T06:59:32.054Z</time></trkpt><trkpt lat="43.8726824" lon="11.2591563"><ele>449.33333333333337</ele><time>2026-03-28T06:59:33.03Z</time></trkpt><trkpt lat="43.8727059" lon="11.2592855"><ele>446.0</ele><time>2026-03-28T06:59:33.962Z</time></trkpt><trkpt lat="43.8727211" lon="11.2594082"><ele>442.6666666666667</ele><time>2026-03-28T06:59:34.972Z</time></trkpt><trkpt lat="43.8727401" lon="11.2595206"><ele>439.33333333333337</ele><time>2026-03-28T06:59:35.99Z</time></trkpt><trkpt lat="43.8727618" lon="11.2596355"><ele>436.0</ele><time>2026-03-28T06:59:37.027Z</time></trkpt><trkpt lat="43.872794" lon="11.2597545"><ele>434.83333333333337</ele><time>2026-03-28T06:59:38.04Z</time></trkpt><trkpt lat="43.8728255" lon="11.259874"><ele>433.6666666666667</ele><time>2026-03-28T06:59:38.953Z</time></trkpt><trkpt lat="43.8728593" lon="11.2599841"><ele>432.5</ele><time>2026-03-28T06:59:39.959Z</time></trkpt><trkpt lat="43.8728915" lon="11.2600921"><ele>431.33333333333337</ele><time>2026-03-28T06:59:40.979Z</time></trkpt><trkpt lat="43.8729161" lon="11.260203"><ele>430.1666666666667</ele><time>2026-03-28T06:59:41.958Z</time></trkpt><trkpt lat="43.8729262" lon="11.2603133"><ele>429.0</ele><time>2026-03-28T06:59:42.933Z</time></trkpt><trkpt lat="43.8729343" lon="11.2604235"><ele>429.0</ele><time>2026-03-28T06:59:43.954Z</time></trkpt><trkpt lat="43.8729417" lon="11.2605338"><ele>429.0</ele><time>2026-03-28T06:59:44.963Z</time></trkpt><trkpt lat="43.8729619" lon="11.2606397"><ele>429.0</ele><time>2026-03-28T06:59:45.976Z</time></trkpt><trkpt lat="43.872985" lon="11.2607433"><ele>429.0</ele><time>2026-03-28T06:59:46.949Z</time></trkpt><trkpt lat="43.8730185" lon="11.2608515"><ele>429.0</ele><time>2026-03-28T06:59:47.965Z</time></trkpt><trkpt lat="43.8730599" lon="11.2609579"><ele>429.0</ele><time>2026-03-28T06:59:48.957Z</time></trkpt><trkpt lat="43.8731124" lon="11.2610609"><ele>428.79999999999995</ele><time>2026-03-28T06:59:49.956Z</time></trkpt><trkpt lat="43.87317" lon="11.2611701"><ele>428.59999999999997</ele><time>2026-03-28T06:59:51.029Z</time></trkpt><trkpt lat="43.8732281" lon="11.2612766"><ele>428.4</ele><time>2026-03-28T06:59:51.974Z</time></trkpt><trkpt lat="43.8732817" lon="11.2613794"><ele>428.2</ele><time>2026-03-28T06:59:52.973Z</time></trkpt><trkpt lat="43.8733302" lon="11.26147"><ele>428.0</ele><time>2026-03-28T06:59:53.944Z</time></trkpt><trkpt lat="43.8733821" lon="11.261571"><ele>428.8333333333333</ele><time>2026-03-28T06:59:54.962Z</time></trkpt><trkpt lat="43.8734383" lon="11.2616722"><ele>429.66666666666663</ele><time>2026-03-28T06:59:55.967Z</time></trkpt><trkpt lat="43.8734896" lon="11.2617617"><ele>430.5</ele><time>2026-03-28T06:59:56.966Z</time></trkpt><trkpt lat="43.8735367" lon="11.2618459"><ele>431.33333333333337</ele><time>2026-03-28T06:59:57.964Z</time></trkpt><trkpt lat="43.8736145" lon="11.261957"><ele>432.1666666666667</ele><time>2026-03-28T06:59:59.978Z</time></trkpt><trkpt lat="43.873675" lon="11.2619216"><ele>433.0</ele><time>2026-03-28T07:00:01.956Z</time></trkpt><trkpt lat="43.8737089" lon="11.2617789"><ele>427.59999999999997</ele><time>2026-03-28T07:00:03.965Z</time></trkpt><trkpt lat="43.8736727" lon="11.2616173"><ele>422.19999999999993</ele><time>2026-03-28T07:00:05.971Z</time></trkpt><trkpt lat="43.8736082" lon="11.2614472"><ele>416.8</ele><time>2026-03-28T07:00:07.973Z</time></trkpt><trkpt lat="43.8735743" lon="11.2613416"><ele>411.4</ele><time>2026-03-28T07:00:08.967Z</time></trkpt><trkpt lat="43.8735373" lon="11.2612468"><ele>406.0</ele><time>2026-03-28T07:00:09.965Z</time></trkpt><trkpt lat="43.8735018" lon="11.2611527"><ele>406.0</ele><time>2026-03-28T07:00:10.965Z</time></trkpt><trkpt lat="43.8734793" lon="11.2610603"><ele>406.0</ele><time>2026-03-28T07:00:11.946Z</time></trkpt><trkpt lat="43.8734656" lon="11.260959"><ele>406.0</ele><time>2026-03-28T07:00:12.951Z</time></trkpt><trkpt lat="43.8734547" lon="11.260865"><ele>406.0</ele><time>2026-03-28T07:00:13.967Z</time></trkpt><trkpt lat="43.8734564" lon="11.2607738"><ele>406.0</ele><time>2026-03-28T07:00:14.968Z</time></trkpt><trkpt lat="43.8734622" lon="11.2606816"><ele>406.0</ele><time>2026-03-28T07:00:15.987Z</time></trkpt><trkpt lat="43.8734953" lon="11.2605951"><ele>406.0</ele><time>2026-03-28T07:00:16.961Z</time></trkpt><trkpt lat="43.8735516" lon="11.2605139"><ele>406.00000000000006</ele><time>2026-03-28T07:00:17.966Z</time></trkpt><trkpt lat="43.8736059" lon="11.2604547"><ele>406.0</ele><time>2026-03-28T07:00:18.965Z</time></trkpt><trkpt lat="43.8736883" lon="11.2604249"><ele>406.0</ele><time>2026-03-28T07:00:20.967Z</time></trkpt><trkpt lat="43.8737264" lon="11.2604994"><ele>406.0</ele><time>2026-03-28T07:00:22.962Z</time></trkpt><trkpt lat="43.8737187" lon="11.2606617"><ele>406.00000000000006</ele><time>2026-03-28T07:00:24.961Z</time></trkpt><trkpt lat="43.873687" lon="11.2607408"><ele>406.0</ele><time>2026-03-28T07:00:25.959Z</time></trkpt><trkpt lat="43.8736593" lon="11.2608722"><ele>406.0</ele><time>2026-03-28T07:00:27.968Z</time></trkpt><trkpt lat="43.8736563" lon="11.26101"><ele>406.0</ele><time>2026-03-28T07:00:29.969Z</time></trkpt><trkpt lat="43.8737298" lon="11.2610134"><ele>406.0</ele><time>2026-03-28T07:00:33.037Z</time></trkpt><trkpt lat="43.8737948" lon="11.2609177"><ele>406.0</ele><time>2026-03-28T07:00:33.971Z</time></trkpt><trkpt lat="43.8738748" lon="11.2608242"><ele>406.0</ele><time>2026-03-28T07:00:34.953Z</time></trkpt><trkpt lat="43.8739561" lon="11.2607523"><ele>406.0</ele><time>2026-03-28T07:00:35.944Z</time></trkpt><trkpt lat="43.8740294" lon="11.2607018"><ele>406.0</ele><time>2026-03-28T07:00:36.959Z</time></trkpt><trkpt lat="43.8741087" lon="11.260674"><ele>406.0</ele><time>2026-03-28T07:00:37.975Z</time></trkpt><trkpt lat="43.8741892" lon="11.2607251"><ele>406.0</ele><time>2026-03-28T07:00:39.96Z</time></trkpt><trkpt lat="43.8742452" lon="11.2608197"><ele>406.0</ele><time>2026-03-28T07:00:40.961Z</time></trkpt><trkpt lat="43.8743316" lon="11.2609337"><ele>405.20000000000005</ele><time>2026-03-28T07:00:41.968Z</time></trkpt><trkpt lat="43.8744055" lon="11.2610586"><ele>404.40000000000003</ele><time>2026-03-28T07:00:42.974Z</time></trkpt><trkpt lat="43.874485" lon="11.2611798"><ele>403.6</ele><time>2026-03-28T07:00:43.976Z</time></trkpt><trkpt lat="43.8745453" lon="11.2612949"><ele>402.8</ele><time>2026-03-28T07:00:44.962Z</time></trkpt><trkpt lat="43.8745891" lon="11.2614058"><ele>402.0</ele><time>2026-03-28T07:00:46.029Z</time></trkpt><trkpt lat="43.8746297" lon="11.2615166"><ele>402.0</ele><time>2026-03-28T07:00:47.029Z</time></trkpt><trkpt lat="43.8746717" lon="11.2616278"><ele>402.0</ele><time>2026-03-28T07:00:47.962Z</time></trkpt><trkpt lat="43.8747087" lon="11.2617378"><ele>402.0</ele><time>2026-03-28T07:00:48.959Z</time></trkpt><trkpt lat="43.8747544" lon="11.261838"><ele>402.0</ele><time>2026-03-28T07:00:49.974Z</time></trkpt><trkpt lat="43.8748085" lon="11.2619224"><ele>402.0</ele><time>2026-03-28T07:00:50.975Z</time></trkpt><trkpt lat="43.8748724" lon="11.261997"><ele>402.0</ele><time>2026-03-28T07:00:52.054Z</time></trkpt><trkpt lat="43.874931" lon="11.2620551"><ele>402.0</ele><time>2026-03-28T07:00:52.963Z</time></trkpt><trkpt lat="43.8749949" lon="11.2621006"><ele>402.0</ele><time>2026-03-28T07:00:53.973Z</time></trkpt><trkpt lat="43.875061" lon="11.2621323"><ele>402.0</ele><time>2026-03-28T07:00:54.964Z</time></trkpt><trkpt lat="43.8751419" lon="11.2621423"><ele>402.0</ele><time>2026-03-28T07:00:56.033Z</time></trkpt><trkpt lat="43.8752285" lon="11.2621333"><ele>402.0</ele><time>2026-03-28T07:00:57.035Z</time></trkpt><trkpt lat="43.8753258" lon="11.262129"><ele>402.0</ele><time>2026-03-28T07:00:57.948Z</time></trkpt><trkpt lat="43.8754223" lon="11.262145"><ele>401.5</ele><time>2026-03-28T07:00:58.955Z</time></trkpt><trkpt lat="43.8755131" lon="11.262141"><ele>401.0</ele><time>2026-03-28T07:00:59.965Z</time></trkpt><trkpt lat="43.8756035" lon="11.2621295"><ele>400.5</ele><time>2026-03-28T07:01:00.951Z</time></trkpt><trkpt lat="43.8756938" lon="11.2621019"><ele>400.0</ele><time>2026-03-28T07:01:01.958Z</time></trkpt><trkpt lat="43.8757798" lon="11.2620751"><ele>399.5</ele><time>2026-03-28T07:01:02.958Z</time></trkpt><trkpt lat="43.8758631" lon="11.2620503"><ele>399.0</ele><time>2026-03-28T07:01:03.972Z</time></trkpt><trkpt lat="43.875951" lon="11.2620041"><ele>397.3333333333333</ele><time>2026-03-28T07:01:05.034Z</time></trkpt><trkpt lat="43.8760279" lon="11.2619415"><ele>395.66666666666663</ele><time>2026-03-28T07:01:06.03Z</time></trkpt><trkpt lat="43.8761033" lon="11.2618775"><ele>394.0</ele><time>2026-03-28T07:01:06.962Z</time></trkpt><trkpt lat="43.8761798" lon="11.2618194"><ele>392.3333333333333</ele><time>2026-03-28T07:01:07.964Z</time></trkpt><trkpt lat="43.8762563" lon="11.2617786"><ele>390.66666666666663</ele><time>2026-03-28T07:01:08.969Z</time></trkpt><trkpt lat="43.8763447" lon="11.261765"><ele>389.0</ele><time>2026-03-28T07:01:09.965Z</time></trkpt><trkpt lat="43.8764365" lon="11.2617597"><ele>389.0</ele><time>2026-03-28T07:01:10.971Z</time></trkpt><trkpt lat="43.8765229" lon="11.2617522"><ele>389.0</ele><time>2026-03-28T07:01:11.959Z</time></trkpt><trkpt lat="43.8766251" lon="11.2617589"><ele>389.0</ele><time>2026-03-28T07:01:13.026Z</time></trkpt><trkpt lat="43.8767269" lon="11.2617762"><ele>389.0</ele><time>2026-03-28T07:01:13.956Z</time></trkpt><trkpt lat="43.8768277" lon="11.2617887"><ele>389.0</ele><time>2026-03-28T07:01:14.969Z</time></trkpt><trkpt lat="43.876928" lon="11.2617994"><ele>388.2</ele><time>2026-03-28T07:01:15.958Z</time></trkpt><trkpt lat="43.8770358" lon="11.2618105"><ele>387.4</ele><time>2026-03-28T07:01:16.959Z</time></trkpt><trkpt lat="43.8771414" lon="11.2618271"><ele>386.6</ele><time>2026-03-28T07:01:17.96Z</time></trkpt><trkpt lat="43.8772495" lon="11.2618362"><ele>385.8</ele><time>2026-03-28T07:01:18.957Z</time></trkpt><trkpt lat="43.8773551" lon="11.2618279"><ele>385.0</ele><time>2026-03-28T07:01:19.958Z</time></trkpt><trkpt lat="43.8774558" lon="11.2618088"><ele>385.00000000000006</ele><time>2026-03-28T07:01:20.965Z</time></trkpt><trkpt lat="43.8775428" lon="11.2617974"><ele>385.0</ele><time>2026-03-28T07:01:21.958Z</time></trkpt><trkpt lat="43.8776312" lon="11.2617863"><ele>385.0</ele><time>2026-03-28T07:01:22.96Z</time></trkpt><trkpt lat="43.8777111" lon="11.2617836"><ele>385.0</ele><time>2026-03-28T07:01:23.965Z</time></trkpt><trkpt lat="43.8777941" lon="11.2617899"><ele>385.00000000000006</ele><time>2026-03-28T07:01:24.974Z</time></trkpt><trkpt lat="43.8778811" lon="11.2618096"><ele>385.0</ele><time>2026-03-28T07:01:25.968Z</time></trkpt><trkpt lat="43.8779684" lon="11.2618365"><ele>386.0</ele><time>2026-03-28T07:01:26.972Z</time></trkpt><trkpt lat="43.8780594" lon="11.2618698"><ele>387.0</ele><time>2026-03-28T07:01:27.957Z</time></trkpt><trkpt lat="43.8781512" lon="11.2619078"><ele>388.0</ele><time>2026-03-28T07:01:28.954Z</time></trkpt><trkpt lat="43.8782512" lon="11.2619528"><ele>389.0</ele><time>2026-03-28T07:01:29.962Z</time></trkpt><trkpt lat="43.8783515" lon="11.2620031"><ele>390.0</ele><time>2026-03-28T07:01:30.959Z</time></trkpt><trkpt lat="43.8784493" lon="11.2620543"><ele>392.4</ele><time>2026-03-28T07:01:31.973Z</time></trkpt><trkpt lat="43.8785439" lon="11.2621128"><ele>394.8</ele><time>2026-03-28T07:01:32.966Z</time></trkpt><trkpt lat="43.878649" lon="11.2621735"><ele>397.20000000000005</ele><time>2026-03-28T07:01:33.96Z</time></trkpt><trkpt lat="43.8787634" lon="11.2622252"><ele>399.6</ele><time>2026-03-28T07:01:34.97Z</time></trkpt><trkpt lat="43.8788686" lon="11.2622649"><ele>402.0</ele><time>2026-03-28T07:01:35.962Z</time></trkpt><trkpt lat="43.8789756" lon="11.2622919"><ele>397.20000000000005</ele><time>2026-03-28T07:01:36.958Z</time></trkpt><trkpt lat="43.8790791" lon="11.2623075"><ele>392.4</ele><time>2026-03-28T07:01:37.961Z</time></trkpt><trkpt lat="43.8791813" lon="11.2623159"><ele>387.6</ele><time>2026-03-28T07:01:38.961Z</time></trkpt><trkpt lat="43.8792782" lon="11.2623258"><ele>382.79999999999995</ele><time>2026-03-28T07:01:39.966Z</time></trkpt><trkpt lat="43.879371" lon="11.262347"><ele>378.0</ele><time>2026-03-28T07:01:40.947Z</time></trkpt><trkpt lat="43.8794778" lon="11.2623819"><ele>378.0</ele><time>2026-03-28T07:01:41.956Z</time></trkpt><trkpt lat="43.8795895" lon="11.2624221"><ele>378.0</ele><time>2026-03-28T07:01:42.936Z</time></trkpt><trkpt lat="43.8796978" lon="11.2624659"><ele>378.0</ele><time>2026-03-28T07:01:43.939Z</time></trkpt><trkpt lat="43.8797935" lon="11.2625221"><ele>378.0</ele><time>2026-03-28T07:01:44.944Z</time></trkpt><trkpt lat="43.8798881" lon="11.2625844"><ele>378.0</ele><time>2026-03-28T07:01:45.939Z</time></trkpt><trkpt lat="43.8799746" lon="11.2626596"><ele>378.0</ele><time>2026-03-28T07:01:46.945Z</time></trkpt><trkpt lat="43.8800658" lon="11.2627299"><ele>378.0</ele><time>2026-03-28T07:01:47.961Z</time></trkpt><trkpt lat="43.8801553" lon="11.2627871"><ele>378.0</ele><time>2026-03-28T07:01:48.961Z</time></trkpt><trkpt lat="43.8802372" lon="11.2628175"><ele>378.0</ele><time>2026-03-28T07:01:49.961Z</time></trkpt><trkpt lat="43.8803238" lon="11.2628319"><ele>378.0</ele><time>2026-03-28T07:01:50.961Z</time></trkpt><trkpt lat="43.8804121" lon="11.262836"><ele>378.6666666666667</ele><time>2026-03-28T07:01:51.965Z</time></trkpt><trkpt lat="43.8804908" lon="11.2628262"><ele>379.3333333333333</ele><time>2026-03-28T07:01:52.962Z</time></trkpt><trkpt lat="43.8805695" lon="11.2628181"><ele>380.0</ele><time>2026-03-28T07:01:53.974Z</time></trkpt><trkpt lat="43.8806503" lon="11.2628232"><ele>380.66666666666663</ele><time>2026-03-28T07:01:54.97Z</time></trkpt><trkpt lat="43.8807333" lon="11.2628364"><ele>381.3333333333333</ele><time>2026-03-28T07:01:55.967Z</time></trkpt><trkpt lat="43.8808103" lon="11.262873"><ele>382.0</ele><time>2026-03-28T07:01:56.95Z</time></trkpt><trkpt lat="43.8808955" lon="11.2629301"><ele>383.0</ele><time>2026-03-28T07:01:57.96Z</time></trkpt><trkpt lat="43.8809713" lon="11.2629807"><ele>384.0</ele><time>2026-03-28T07:01:58.968Z</time></trkpt><trkpt lat="43.8810394" lon="11.2630363"><ele>385.0</ele><time>2026-03-28T07:01:59.959Z</time></trkpt><trkpt lat="43.88112" lon="11.2630738"><ele>386.0</ele><time>2026-03-28T07:02:00.962Z</time></trkpt><trkpt lat="43.8812114" lon="11.2630865"><ele>387.00000000000006</ele><time>2026-03-28T07:02:01.968Z</time></trkpt><trkpt lat="43.8813078" lon="11.2630979"><ele>388.0</ele><time>2026-03-28T07:02:02.96Z</time></trkpt><trkpt lat="43.8814014" lon="11.2631024"><ele>388.00000000000006</ele><time>2026-03-28T07:02:03.962Z</time></trkpt><trkpt lat="43.8814974" lon="11.2630974"><ele>388.0</ele><time>2026-03-28T07:02:04.97Z</time></trkpt><trkpt lat="43.8815825" lon="11.2631059"><ele>388.0</ele><time>2026-03-28T07:02:05.963Z</time></trkpt><trkpt lat="43.8816539" lon="11.2631144"><ele>388.0</ele><time>2026-03-28T07:02:06.956Z</time></trkpt><trkpt lat="43.8817216" lon="11.2631578"><ele>388.00000000000006</ele><time>2026-03-28T07:02:07.965Z</time></trkpt><trkpt lat="43.8817791" lon="11.2632223"><ele>388.0</ele><time>2026-03-28T07:02:08.967Z</time></trkpt><trkpt lat="43.8818311" lon="11.2632976"><ele>389.0</ele><time>2026-03-28T07:02:09.981Z</time></trkpt><trkpt lat="43.8818817" lon="11.2633867"><ele>390.0</ele><time>2026-03-28T07:02:10.959Z</time></trkpt><trkpt lat="43.8819415" lon="11.2634784"><ele>391.0</ele><time>2026-03-28T07:02:11.966Z</time></trkpt><trkpt lat="43.882006" lon="11.2635709"><ele>392.0</ele><time>2026-03-28T07:02:12.964Z</time></trkpt><trkpt lat="43.8820724" lon="11.2636652"><ele>393.0</ele><time>2026-03-28T07:02:13.97Z</time></trkpt><trkpt lat="43.8821485" lon="11.2637414"><ele>393.0</ele><time>2026-03-28T07:02:14.978Z</time></trkpt><trkpt lat="43.8822373" lon="11.2638097"><ele>393.0</ele><time>2026-03-28T07:02:15.985Z</time></trkpt><trkpt lat="43.8823305" lon="11.2638797"><ele>393.0</ele><time>2026-03-28T07:02:17.033Z</time></trkpt><trkpt lat="43.8824372" lon="11.2639403"><ele>393.0</ele><time>2026-03-28T07:02:17.958Z</time></trkpt><trkpt lat="43.8825443" lon="11.2639966"><ele>393.0</ele><time>2026-03-28T07:02:18.968Z</time></trkpt><trkpt lat="43.8826508" lon="11.2640406"><ele>388.4</ele><time>2026-03-28T07:02:19.975Z</time></trkpt><trkpt lat="43.8827562" lon="11.2640839"><ele>383.79999999999995</ele><time>2026-03-28T07:02:21.016Z</time></trkpt><trkpt lat="43.8828571" lon="11.2641293"><ele>379.2</ele><time>2026-03-28T07:02:21.993Z</time></trkpt><trkpt lat="43.8829558" lon="11.2641694"><ele>374.6</ele><time>2026-03-28T07:02:22.971Z</time></trkpt><trkpt lat="43.8830463" lon="11.2642168"><ele>370.0</ele><time>2026-03-28T07:02:23.97Z</time></trkpt><trkpt lat="43.8831304" lon="11.2642851"><ele>370.0</ele><time>2026-03-28T07:02:24.976Z</time></trkpt><trkpt lat="43.8832231" lon="11.2643589"><ele>370.0</ele><time>2026-03-28T07:02:25.968Z</time></trkpt><trkpt lat="43.8833223" lon="11.2644114"><ele>370.0</ele><time>2026-03-28T07:02:26.968Z</time></trkpt><trkpt lat="43.8834259" lon="11.2644532"><ele>370.0</ele><time>2026-03-28T07:02:28.037Z</time></trkpt><trkpt lat="43.8835497" lon="11.2644833"><ele>370.0</ele><time>2026-03-28T07:02:28.959Z</time></trkpt><trkpt lat="43.8836709" lon="11.2645019"><ele>376.0</ele><time>2026-03-28T07:02:29.959Z</time></trkpt><trkpt lat="43.8837893" lon="11.2645231"><ele>382.0</ele><time>2026-03-28T07:02:30.961Z</time></trkpt><trkpt lat="43.8839097" lon="11.2645605"><ele>388.0</ele><time>2026-03-28T07:02:31.959Z</time></trkpt><trkpt lat="43.884019" lon="11.2646014"><ele>394.0</ele><time>2026-03-28T07:02:32.96Z</time></trkpt><trkpt lat="43.8841235" lon="11.264645"><ele>394.0</ele><time>2026-03-28T07:02:33.965Z</time></trkpt><trkpt lat="43.8842353" lon="11.2647029"><ele>394.0</ele><time>2026-03-28T07:02:34.955Z</time></trkpt><trkpt lat="43.884347" lon="11.2647686"><ele>394.0</ele><time>2026-03-28T07:02:35.966Z</time></trkpt><trkpt lat="43.884462" lon="11.2648351"><ele>394.0</ele><time>2026-03-28T07:02:37.015Z</time></trkpt><trkpt lat="43.8845828" lon="11.2648955"><ele>386.75</ele><time>2026-03-28T07:02:37.957Z</time></trkpt><trkpt lat="43.8847136" lon="11.2649378"><ele>379.5</ele><time>2026-03-28T07:02:38.969Z</time></trkpt><trkpt lat="43.8848498" lon="11.2649735"><ele>372.25</ele><time>2026-03-28T07:02:39.941Z</time></trkpt><trkpt lat="43.8849846" lon="11.2650116"><ele>365.0</ele><time>2026-03-28T07:02:40.953Z</time></trkpt><trkpt lat="43.8851074" lon="11.2650522"><ele>365.0</ele><time>2026-03-28T07:02:41.948Z</time></trkpt><trkpt lat="43.8852086" lon="11.2650956"><ele>365.0</ele><time>2026-03-28T07:02:42.966Z</time></trkpt><trkpt lat="43.8853003" lon="11.2651621"><ele>365.0</ele><time>2026-03-28T07:02:43.952Z</time></trkpt><trkpt lat="43.8853822" lon="11.2652422"><ele>365.0</ele><time>2026-03-28T07:02:44.963Z</time></trkpt><trkpt lat="43.8854497" lon="11.2653399"><ele>365.0</ele><time>2026-03-28T07:02:45.956Z</time></trkpt><trkpt lat="43.8855036" lon="11.2654364"><ele>365.0</ele><time>2026-03-28T07:02:47.035Z</time></trkpt><trkpt lat="43.8855544" lon="11.2655328"><ele>365.0</ele><time>2026-03-28T07:02:47.957Z</time></trkpt><trkpt lat="43.8856165" lon="11.2656296"><ele>365.0</ele><time>2026-03-28T07:02:48.955Z</time></trkpt><trkpt lat="43.8856968" lon="11.2657265"><ele>365.0</ele><time>2026-03-28T07:02:49.96Z</time></trkpt><trkpt lat="43.8857819" lon="11.2658284"><ele>365.0</ele><time>2026-03-28T07:02:50.969Z</time></trkpt><trkpt lat="43.885869" lon="11.2659312"><ele>357.75</ele><time>2026-03-28T07:02:51.969Z</time></trkpt><trkpt lat="43.8859637" lon="11.2660317"><ele>350.5</ele><time>2026-03-28T07:02:53.038Z</time></trkpt><trkpt lat="43.8860603" lon="11.2661348"><ele>343.25</ele><time>2026-03-28T07:02:53.949Z</time></trkpt><trkpt lat="43.8861639" lon="11.2662425"><ele>336.0</ele><time>2026-03-28T07:02:54.964Z</time></trkpt><trkpt lat="43.8862686" lon="11.2663421"><ele>336.0</ele><time>2026-03-28T07:02:55.952Z</time></trkpt><trkpt lat="43.8863764" lon="11.266419"><ele>336.0</ele><time>2026-03-28T07:02:57.034Z</time></trkpt><trkpt lat="43.8864918" lon="11.2664929"><ele>336.0</ele><time>2026-03-28T07:02:58.028Z</time></trkpt><trkpt lat="43.8866085" lon="11.2665578"><ele>336.0</ele><time>2026-03-28T07:02:58.961Z</time></trkpt><trkpt lat="43.8867263" lon="11.2666223"><ele>336.25</ele><time>2026-03-28T07:03:00.027Z</time></trkpt><trkpt lat="43.8868465" lon="11.2666864"><ele>336.5</ele><time>2026-03-28T07:03:00.951Z</time></trkpt><trkpt lat="43.8869665" lon="11.2667533"><ele>336.75</ele><time>2026-03-28T07:03:01.961Z</time></trkpt><trkpt lat="43.8870877" lon="11.2668161"><ele>337.0</ele><time>2026-03-28T07:03:02.955Z</time></trkpt><trkpt lat="43.8872011" lon="11.2668729"><ele>337.0</ele><time>2026-03-28T07:03:03.959Z</time></trkpt><trkpt lat="43.8873131" lon="11.2669134"><ele>337.0</ele><time>2026-03-28T07:03:04.96Z</time></trkpt><trkpt lat="43.8874158" lon="11.2669264"><ele>337.0</ele><time>2026-03-28T07:03:05.978Z</time></trkpt><trkpt lat="43.8875151" lon="11.2669573"><ele>337.0</ele><time>2026-03-28T07:03:06.957Z</time></trkpt><trkpt lat="43.8876088" lon="11.2670283"><ele>337.0</ele><time>2026-03-28T07:03:07.977Z</time></trkpt><trkpt lat="43.8877076" lon="11.2671339"><ele>337.0</ele><time>2026-03-28T07:03:08.948Z</time></trkpt><trkpt lat="43.8878033" lon="11.2672539"><ele>337.0</ele><time>2026-03-28T07:03:09.959Z</time></trkpt><trkpt lat="43.8878944" lon="11.2673639"><ele>337.0</ele><time>2026-03-28T07:03:10.954Z</time></trkpt><trkpt lat="43.8879856" lon="11.2674735"><ele>337.0</ele><time>2026-03-28T07:03:12.006Z</time></trkpt><trkpt lat="43.8880807" lon="11.2675803"><ele>337.0</ele><time>2026-03-28T07:03:12.96Z</time></trkpt><trkpt lat="43.8881752" lon="11.2676421"><ele>337.0</ele><time>2026-03-28T07:03:13.955Z</time></trkpt><trkpt lat="43.8882918" lon="11.2676531"><ele>337.0</ele><time>2026-03-28T07:03:14.955Z</time></trkpt><trkpt lat="43.8884039" lon="11.2676369"><ele>337.0</ele><time>2026-03-28T07:03:15.953Z</time></trkpt><trkpt lat="43.8885207" lon="11.2675762"><ele>337.0</ele><time>2026-03-28T07:03:16.957Z</time></trkpt><trkpt lat="43.888641" lon="11.2674854"><ele>337.0</ele><time>2026-03-28T07:03:18.035Z</time></trkpt><trkpt lat="43.8887484" lon="11.2673666"><ele>337.0</ele><time>2026-03-28T07:03:18.966Z</time></trkpt><trkpt lat="43.8888504" lon="11.2672417"><ele>337.0</ele><time>2026-03-28T07:03:19.973Z</time></trkpt><trkpt lat="43.8889506" lon="11.2671205"><ele>338.75</ele><time>2026-03-28T07:03:20.961Z</time></trkpt><trkpt lat="43.8890586" lon="11.2670001"><ele>340.5</ele><time>2026-03-28T07:03:21.938Z</time></trkpt><trkpt lat="43.8891768" lon="11.2669179"><ele>342.25</ele><time>2026-03-28T07:03:22.94Z</time></trkpt><trkpt lat="43.8893037" lon="11.2668707"><ele>344.0</ele><time>2026-03-28T07:03:23.965Z</time></trkpt><trkpt lat="43.8894382" lon="11.2668375"><ele>344.75</ele><time>2026-03-28T07:03:24.962Z</time></trkpt><trkpt lat="43.889576" lon="11.2668198"><ele>345.5</ele><time>2026-03-28T07:03:26.001Z</time></trkpt><trkpt lat="43.8897212" lon="11.2668283"><ele>346.25</ele><time>2026-03-28T07:03:26.956Z</time></trkpt><trkpt lat="43.8898687" lon="11.2668553"><ele>347.0</ele><time>2026-03-28T07:03:28.029Z</time></trkpt><trkpt lat="43.8900194" lon="11.2668977"><ele>346.25</ele><time>2026-03-28T07:03:28.966Z</time></trkpt><trkpt lat="43.8901613" lon="11.2669495"><ele>345.5</ele><time>2026-03-28T07:03:29.957Z</time></trkpt><trkpt lat="43.8902995" lon="11.2669974"><ele>344.75</ele><time>2026-03-28T07:03:30.986Z</time></trkpt><trkpt lat="43.8904296" lon="11.2670415"><ele>344.0</ele><time>2026-03-28T07:03:31.967Z</time></trkpt><trkpt lat="43.8905573" lon="11.2670659"><ele>344.0</ele><time>2026-03-28T07:03:32.969Z</time></trkpt><trkpt lat="43.8906839" lon="11.2670474"><ele>344.0</ele><time>2026-03-28T07:03:33.949Z</time></trkpt><trkpt lat="43.8908087" lon="11.2669851"><ele>344.0</ele><time>2026-03-28T07:03:34.97Z</time></trkpt><trkpt lat="43.89093" lon="11.2669085"><ele>344.0</ele><time>2026-03-28T07:03:35.97Z</time></trkpt><trkpt lat="43.8910541" lon="11.2668149"><ele>343.0</ele><time>2026-03-28T07:03:37.031Z</time></trkpt><trkpt lat="43.891175" lon="11.2667012"><ele>342.0</ele><time>2026-03-28T07:03:38.019Z</time></trkpt><trkpt lat="43.8912995" lon="11.2666009"><ele>341.0</ele><time>2026-03-28T07:03:38.957Z</time></trkpt><trkpt lat="43.891422" lon="11.2665077"><ele>340.0</ele><time>2026-03-28T07:03:39.964Z</time></trkpt><trkpt lat="43.8915474" lon="11.2664267"><ele>345.25</ele><time>2026-03-28T07:03:40.964Z</time></trkpt><trkpt lat="43.891672" lon="11.2663714"><ele>350.5</ele><time>2026-03-28T07:03:41.989Z</time></trkpt><trkpt lat="43.8917996" lon="11.2663467"><ele>355.75</ele><time>2026-03-28T07:03:42.954Z</time></trkpt><trkpt lat="43.8919275" lon="11.2663525"><ele>361.0</ele><time>2026-03-28T07:03:43.97Z</time></trkpt><trkpt lat="43.8920514" lon="11.2664109"><ele>354.5</ele><time>2026-03-28T07:03:44.961Z</time></trkpt><trkpt lat="43.8921686" lon="11.2664978"><ele>348.0</ele><time>2026-03-28T07:03:46.033Z</time></trkpt><trkpt lat="43.8922722" lon="11.2666209"><ele>341.5</ele><time>2026-03-28T07:03:47.034Z</time></trkpt><trkpt lat="43.8923731" lon="11.2667741"><ele>335.0</ele><time>2026-03-28T07:03:47.976Z</time></trkpt><trkpt lat="43.8924753" lon="11.2669291"><ele>335.0</ele><time>2026-03-28T07:03:48.966Z</time></trkpt><trkpt lat="43.8925781" lon="11.2670628"><ele>335.0</ele><time>2026-03-28T07:03:50.029Z</time></trkpt><trkpt lat="43.8927129" lon="11.2671705"><ele>335.0</ele><time>2026-03-28T07:03:51.03Z</time></trkpt><trkpt lat="43.8928591" lon="11.2672387"><ele>333.6666666666667</ele><time>2026-03-28T07:03:51.965Z</time></trkpt><trkpt lat="43.8930214" lon="11.2672677"><ele>332.3333333333333</ele><time>2026-03-28T07:03:52.977Z</time></trkpt><trkpt lat="43.8931792" lon="11.2672323"><ele>331.0</ele><time>2026-03-28T07:03:53.952Z</time></trkpt><trkpt lat="43.8933214" lon="11.2671766"><ele>335.0</ele><time>2026-03-28T07:03:54.958Z</time></trkpt><trkpt lat="43.8934655" lon="11.2671168"><ele>339.0</ele><time>2026-03-28T07:03:55.967Z</time></trkpt><trkpt lat="43.8936055" lon="11.2670607"><ele>343.0</ele><time>2026-03-28T07:03:57.011Z</time></trkpt><trkpt lat="43.8937424" lon="11.2670376"><ele>347.0</ele><time>2026-03-28T07:03:58.035Z</time></trkpt><trkpt lat="43.8938788" lon="11.2670563"><ele>347.0</ele><time>2026-03-28T07:03:58.962Z</time></trkpt><trkpt lat="43.8940147" lon="11.2671251"><ele>347.0</ele><time>2026-03-28T07:04:00.037Z</time></trkpt><trkpt lat="43.8941495" lon="11.2671979"><ele>347.0</ele><time>2026-03-28T07:04:00.962Z</time></trkpt><trkpt lat="43.8942706" lon="11.2673059"><ele>347.0</ele><time>2026-03-28T07:04:01.971Z</time></trkpt><trkpt lat="43.8943631" lon="11.2674307"><ele>345.5</ele><time>2026-03-28T07:04:02.951Z</time></trkpt><trkpt lat="43.8944375" lon="11.2675908"><ele>344.0</ele><time>2026-03-28T07:04:03.973Z</time></trkpt><trkpt lat="43.8944727" lon="11.2677724"><ele>342.5</ele><time>2026-03-28T07:04:04.96Z</time></trkpt><trkpt lat="43.8944771" lon="11.2679719"><ele>341.0</ele><time>2026-03-28T07:04:06.033Z</time></trkpt><trkpt lat="43.8944625" lon="11.2681742"><ele>341.0</ele><time>2026-03-28T07:04:06.953Z</time></trkpt><trkpt lat="43.8944513" lon="11.2683835"><ele>341.0</ele><time>2026-03-28T07:04:08.03Z</time></trkpt><trkpt lat="43.894456" lon="11.2685937"><ele>341.0</ele><time>2026-03-28T07:04:08.969Z</time></trkpt><trkpt lat="43.8944828" lon="11.2688045"><ele>335.33333333333337</ele><time>2026-03-28T07:04:09.969Z</time></trkpt><trkpt lat="43.8945231" lon="11.2690151"><ele>329.6666666666667</ele><time>2026-03-28T07:04:10.976Z</time></trkpt><trkpt lat="43.8945666" lon="11.2692253"><ele>324.0</ele><time>2026-03-28T07:04:12.028Z</time></trkpt><trkpt lat="43.8946162" lon="11.2694231"><ele>324.0</ele><time>2026-03-28T07:04:13.03Z</time></trkpt><trkpt lat="43.894664" lon="11.2696279"><ele>324.0</ele><time>2026-03-28T07:04:13.94Z</time></trkpt><trkpt lat="43.8947115" lon="11.2698375"><ele>324.0</ele><time>2026-03-28T07:04:14.96Z</time></trkpt><trkpt lat="43.8947628" lon="11.2700426"><ele>322.3333333333333</ele><time>2026-03-28T07:04:15.963Z</time></trkpt><trkpt lat="43.8948247" lon="11.2702467"><ele>320.66666666666663</ele><time>2026-03-28T07:04:17.026Z</time></trkpt><trkpt lat="43.8948966" lon="11.270444"><ele>319.0</ele><time>2026-03-28T07:04:18.028Z</time></trkpt><trkpt lat="43.8949741" lon="11.2706424"><ele>318.3333333333333</ele><time>2026-03-28T07:04:18.953Z</time></trkpt><trkpt lat="43.8950544" lon="11.2708391"><ele>317.6666666666667</ele><time>2026-03-28T07:04:20.031Z</time></trkpt><trkpt lat="43.895136" lon="11.2710412"><ele>317.0</ele><time>2026-03-28T07:04:21.036Z</time></trkpt><trkpt lat="43.8952147" lon="11.2712351"><ele>323.0</ele><time>2026-03-28T07:04:22.034Z</time></trkpt><trkpt lat="43.8952908" lon="11.2714379"><ele>329.0</ele><time>2026-03-28T07:04:23.05Z</time></trkpt><trkpt lat="43.8953649" lon="11.2716469"><ele>335.0</ele><time>2026-03-28T07:04:23.957Z</time></trkpt><trkpt lat="43.8954325" lon="11.2718582"><ele>335.0</ele><time>2026-03-28T07:04:24.953Z</time></trkpt><trkpt lat="43.8955079" lon="11.2720575"><ele>335.0</ele><time>2026-03-28T07:04:25.974Z</time></trkpt><trkpt lat="43.8955772" lon="11.2722429"><ele>335.0</ele><time>2026-03-28T07:04:27.028Z</time></trkpt><trkpt lat="43.8956271" lon="11.2724181"><ele>335.0</ele><time>2026-03-28T07:04:28.02Z</time></trkpt><trkpt lat="43.8956586" lon="11.2726161"><ele>332.33333333333337</ele><time>2026-03-28T07:04:28.974Z</time></trkpt><trkpt lat="43.8956552" lon="11.2728175"><ele>329.6666666666667</ele><time>2026-03-28T07:04:29.98Z</time></trkpt><trkpt lat="43.895644" lon="11.2730275"><ele>327.0</ele><time>2026-03-28T07:04:30.999Z</time></trkpt><trkpt lat="43.8956307" lon="11.2732491"><ele>324.6666666666667</ele><time>2026-03-28T07:04:31.989Z</time></trkpt><trkpt lat="43.8956385" lon="11.2734698"><ele>322.33333333333337</ele><time>2026-03-28T07:04:32.975Z</time></trkpt><trkpt lat="43.8956691" lon="11.2736936"><ele>320.0</ele><time>2026-03-28T07:04:33.979Z</time></trkpt><trkpt lat="43.8957237" lon="11.2738966"><ele>317.33333333333337</ele><time>2026-03-28T07:04:34.975Z</time></trkpt><trkpt lat="43.8957971" lon="11.2740884"><ele>314.6666666666667</ele><time>2026-03-28T07:04:35.984Z</time></trkpt><trkpt lat="43.8958981" lon="11.2742664"><ele>312.0</ele><time>2026-03-28T07:04:36.972Z</time></trkpt><trkpt lat="43.8960151" lon="11.2744151"><ele>318.6666666666667</ele><time>2026-03-28T07:04:37.978Z</time></trkpt><trkpt lat="43.8961177" lon="11.2745617"><ele>325.33333333333337</ele><time>2026-03-28T07:04:38.974Z</time></trkpt><trkpt lat="43.8961989" lon="11.2747264"><ele>332.0</ele><time>2026-03-28T07:04:39.964Z</time></trkpt><trkpt lat="43.8962519" lon="11.2749372"><ele>332.0</ele><time>2026-03-28T07:04:40.981Z</time></trkpt><trkpt lat="43.8962834" lon="11.2751503"><ele>332.0</ele><time>2026-03-28T07:04:41.977Z</time></trkpt><trkpt lat="43.8962859" lon="11.2753786"><ele>332.0</ele><time>2026-03-28T07:04:42.969Z</time></trkpt><trkpt lat="43.8962787" lon="11.2755985"><ele>330.33333333333337</ele><time>2026-03-28T07:04:43.97Z</time></trkpt><trkpt lat="43.8962691" lon="11.2758256"><ele>328.6666666666667</ele><time>2026-03-28T07:04:44.982Z</time></trkpt><trkpt lat="43.8962627" lon="11.2760706"><ele>327.0</ele><time>2026-03-28T07:04:45.982Z</time></trkpt><trkpt lat="43.8962546" lon="11.2763128"><ele>326.6666666666667</ele><time>2026-03-28T07:04:46.963Z</time></trkpt><trkpt lat="43.8962489" lon="11.2765561"><ele>326.33333333333337</ele><time>2026-03-28T07:04:47.974Z</time></trkpt><trkpt lat="43.8962435" lon="11.2767917"><ele>326.0</ele><time>2026-03-28T07:04:48.975Z</time></trkpt><trkpt lat="43.8962516" lon="11.2770296"><ele>326.0</ele><time>2026-03-28T07:04:49.976Z</time></trkpt><trkpt lat="43.8962753" lon="11.2772669"><ele>326.0</ele><time>2026-03-28T07:04:50.978Z</time></trkpt><trkpt lat="43.8963133" lon="11.2775019"><ele>326.0</ele><time>2026-03-28T07:04:51.982Z</time></trkpt><trkpt lat="43.8963812" lon="11.2777345"><ele>324.6666666666667</ele><time>2026-03-28T07:04:52.978Z</time></trkpt><trkpt lat="43.896473" lon="11.2779546"><ele>323.3333333333333</ele><time>2026-03-28T07:04:53.967Z</time></trkpt><trkpt lat="43.896581" lon="11.2781587"><ele>322.0</ele><time>2026-03-28T07:04:54.979Z</time></trkpt><trkpt lat="43.8966905" lon="11.2783549"><ele>323.0</ele><time>2026-03-28T07:04:55.976Z</time></trkpt><trkpt lat="43.8967952" lon="11.2785547"><ele>324.0</ele><time>2026-03-28T07:04:56.978Z</time></trkpt><trkpt lat="43.896899" lon="11.2787611"><ele>325.0</ele><time>2026-03-28T07:04:57.98Z</time></trkpt><trkpt lat="43.8969984" lon="11.2789784"><ele>325.0</ele><time>2026-03-28T07:04:58.989Z</time></trkpt><trkpt lat="43.8970792" lon="11.2792039"><ele>325.0</ele><time>2026-03-28T07:04:59.975Z</time></trkpt><trkpt lat="43.8971397" lon="11.279441"><ele>325.0</ele><time>2026-03-28T07:05:00.977Z</time></trkpt><trkpt lat="43.8971883" lon="11.2796955"><ele>323.0</ele><time>2026-03-28T07:05:01.971Z</time></trkpt><trkpt lat="43.8972204" lon="11.2799415"><ele>321.0</ele><time>2026-03-28T07:05:02.97Z</time></trkpt><trkpt lat="43.8972372" lon="11.2801976"><ele>319.0</ele><time>2026-03-28T07:05:03.981Z</time></trkpt><trkpt lat="43.8972489" lon="11.2804561"><ele>318.66666666666663</ele><time>2026-03-28T07:05:04.975Z</time></trkpt><trkpt lat="43.8972569" lon="11.2807075"><ele>318.3333333333333</ele><time>2026-03-28T07:05:05.972Z</time></trkpt><trkpt lat="43.8972643" lon="11.2809451"><ele>318.0</ele><time>2026-03-28T07:05:06.967Z</time></trkpt><trkpt lat="43.8972645" lon="11.2811714"><ele>318.0</ele><time>2026-03-28T07:05:07.985Z</time></trkpt><trkpt lat="43.8972539" lon="11.2814086"><ele>318.0</ele><time>2026-03-28T07:05:08.983Z</time></trkpt><trkpt lat="43.8972423" lon="11.2816401"><ele>318.0</ele><time>2026-03-28T07:05:09.976Z</time></trkpt><trkpt lat="43.8972308" lon="11.2818598"><ele>318.25</ele><time>2026-03-28T07:05:10.975Z</time></trkpt><trkpt lat="43.8972196" lon="11.2820594"><ele>318.5</ele><time>2026-03-28T07:05:11.985Z</time></trkpt><trkpt lat="43.8972075" lon="11.2822516"><ele>318.75</ele><time>2026-03-28T07:05:12.978Z</time></trkpt><trkpt lat="43.8971984" lon="11.2824258"><ele>319.0</ele><time>2026-03-28T07:05:13.976Z</time></trkpt><trkpt lat="43.897191" lon="11.2825757"><ele>317.8</ele><time>2026-03-28T07:05:14.981Z</time></trkpt><trkpt lat="43.8971804" lon="11.2826867"><ele>316.59999999999997</ele><time>2026-03-28T07:05:15.987Z</time></trkpt><trkpt lat="43.8972051" lon="11.2828299"><ele>315.4</ele><time>2026-03-28T07:05:17.958Z</time></trkpt><trkpt lat="43.8973018" lon="11.2829616"><ele>314.2</ele><time>2026-03-28T07:05:19.978Z</time></trkpt><trkpt lat="43.8973759" lon="11.2830364"><ele>313.0</ele><time>2026-03-28T07:05:20.987Z</time></trkpt><trkpt lat="43.89745" lon="11.283124"><ele>312.8</ele><time>2026-03-28T07:05:21.974Z</time></trkpt><trkpt lat="43.8975237" lon="11.2832196"><ele>312.6</ele><time>2026-03-28T07:05:22.973Z</time></trkpt><trkpt lat="43.8976096" lon="11.2833165"><ele>312.4</ele><time>2026-03-28T07:05:23.974Z</time></trkpt><trkpt lat="43.8977047" lon="11.2833984"><ele>312.2</ele><time>2026-03-28T07:05:24.97Z</time></trkpt><trkpt lat="43.8977998" lon="11.2834793"><ele>312.0</ele><time>2026-03-28T07:05:25.971Z</time></trkpt><trkpt lat="43.897908" lon="11.2835444"><ele>312.0</ele><time>2026-03-28T07:05:26.979Z</time></trkpt><trkpt lat="43.8980232" lon="11.2835932"><ele>312.0</ele><time>2026-03-28T07:05:27.983Z</time></trkpt><trkpt lat="43.8981526" lon="11.2836181"><ele>312.0</ele><time>2026-03-28T07:05:28.982Z</time></trkpt><trkpt lat="43.8982859" lon="11.283606"><ele>312.0</ele><time>2026-03-28T07:05:29.981Z</time></trkpt><trkpt lat="43.8984264" lon="11.2835656"><ele>309.0</ele><time>2026-03-28T07:05:30.976Z</time></trkpt><trkpt lat="43.8985647" lon="11.2835161"><ele>306.0</ele><time>2026-03-28T07:05:31.975Z</time></trkpt><trkpt lat="43.8986989" lon="11.283473"><ele>303.0</ele><time>2026-03-28T07:05:32.974Z</time></trkpt><trkpt lat="43.898838" lon="11.2834217"><ele>300.0</ele><time>2026-03-28T07:05:33.974Z</time></trkpt><trkpt lat="43.8989768" lon="11.283376"><ele>300.0</ele><time>2026-03-28T07:05:34.977Z</time></trkpt><trkpt lat="43.8991222" lon="11.2833302"><ele>300.0</ele><time>2026-03-28T07:05:35.979Z</time></trkpt><trkpt lat="43.8992657" lon="11.2832902"><ele>300.0</ele><time>2026-03-28T07:05:36.97Z</time></trkpt><trkpt lat="43.8994077" lon="11.2832589"><ele>300.0</ele><time>2026-03-28T07:05:37.972Z</time></trkpt><trkpt lat="43.899547" lon="11.2832358"><ele>298.25</ele><time>2026-03-28T07:05:38.987Z</time></trkpt><trkpt lat="43.899694" lon="11.2832098"><ele>296.5</ele><time>2026-03-28T07:05:39.977Z</time></trkpt><trkpt lat="43.8998369" lon="11.283184"><ele>294.75</ele><time>2026-03-28T07:05:40.977Z</time></trkpt><trkpt lat="43.8999792" lon="11.2831568"><ele>293.0</ele><time>2026-03-28T07:05:41.986Z</time></trkpt><trkpt lat="43.9001167" lon="11.2831105"><ele>294.75</ele><time>2026-03-28T07:05:42.978Z</time></trkpt><trkpt lat="43.9002413" lon="11.283044"><ele>296.5</ele><time>2026-03-28T07:05:43.983Z</time></trkpt><trkpt lat="43.9003516" lon="11.2829425"><ele>298.25</ele><time>2026-03-28T07:05:44.981Z</time></trkpt><trkpt lat="43.9004527" lon="11.2828482"><ele>300.0</ele><time>2026-03-28T07:05:45.979Z</time></trkpt><trkpt lat="43.9005534" lon="11.2827709"><ele>300.0</ele><time>2026-03-28T07:05:46.986Z</time></trkpt><trkpt lat="43.9006616" lon="11.2827105"><ele>300.0</ele><time>2026-03-28T07:05:47.975Z</time></trkpt><trkpt lat="43.9007734" lon="11.282669"><ele>300.0</ele><time>2026-03-28T07:05:48.965Z</time></trkpt><trkpt lat="43.9009115" lon="11.2826541"><ele>300.0</ele><time>2026-03-28T07:05:49.974Z</time></trkpt><trkpt lat="43.9010465" lon="11.2826562"><ele>297.75</ele><time>2026-03-28T07:05:50.979Z</time></trkpt><trkpt lat="43.9011873" lon="11.2826614"><ele>295.5</ele><time>2026-03-28T07:05:51.98Z</time></trkpt><trkpt lat="43.9013234" lon="11.282694"><ele>293.25</ele><time>2026-03-28T07:05:52.978Z</time></trkpt><trkpt lat="43.9014553" lon="11.2827399"><ele>291.0</ele><time>2026-03-28T07:05:53.982Z</time></trkpt><trkpt lat="43.9015897" lon="11.2827902"><ele>291.0</ele><time>2026-03-28T07:05:54.961Z</time></trkpt><trkpt lat="43.9017286" lon="11.2828421"><ele>291.0</ele><time>2026-03-28T07:05:55.977Z</time></trkpt><trkpt lat="43.9018637" lon="11.282896"><ele>291.0</ele><time>2026-03-28T07:05:56.977Z</time></trkpt><trkpt lat="43.9019981" lon="11.2829534"><ele>291.0</ele><time>2026-03-28T07:05:57.999Z</time></trkpt><trkpt lat="43.9021273" lon="11.2830042"><ele>290.5</ele><time>2026-03-28T07:05:58.986Z</time></trkpt><trkpt lat="43.90226" lon="11.2830561"><ele>290.0</ele><time>2026-03-28T07:05:59.983Z</time></trkpt><trkpt lat="43.9023972" lon="11.2831014"><ele>289.5</ele><time>2026-03-28T07:06:00.959Z</time></trkpt><trkpt lat="43.9025463" lon="11.2831438"><ele>289.0</ele><time>2026-03-28T07:06:01.982Z</time></trkpt><trkpt lat="43.9027026" lon="11.2831697"><ele>289.0</ele><time>2026-03-28T07:06:02.96Z</time></trkpt><trkpt lat="43.9028608" lon="11.2831824"><ele>289.0</ele><time>2026-03-28T07:06:03.964Z</time></trkpt><trkpt lat="43.9030217" lon="11.2831876"><ele>289.0</ele><time>2026-03-28T07:06:04.961Z</time></trkpt><trkpt lat="43.9031874" lon="11.2831901"><ele>289.0</ele><time>2026-03-28T07:06:05.961Z</time></trkpt><trkpt lat="43.9033553" lon="11.2831871"><ele>289.0</ele><time>2026-03-28T07:06:06.973Z</time></trkpt><trkpt lat="43.903521" lon="11.2831843"><ele>289.0</ele><time>2026-03-28T07:06:07.983Z</time></trkpt><trkpt lat="43.9036868" lon="11.2831915"><ele>288.0</ele><time>2026-03-28T07:06:08.982Z</time></trkpt><trkpt lat="43.903851" lon="11.2831866"><ele>287.0</ele><time>2026-03-28T07:06:09.986Z</time></trkpt><trkpt lat="43.9040186" lon="11.2831865"><ele>286.0</ele><time>2026-03-28T07:06:10.983Z</time></trkpt><trkpt lat="43.904187" lon="11.2831745"><ele>288.0</ele><time>2026-03-28T07:06:11.983Z</time></trkpt><trkpt lat="43.9043531" lon="11.2831636"><ele>290.0</ele><time>2026-03-28T07:06:12.985Z</time></trkpt><trkpt lat="43.9045099" lon="11.2831359"><ele>292.0</ele><time>2026-03-28T07:06:13.984Z</time></trkpt><trkpt lat="43.9046658" lon="11.2831063"><ele>289.0</ele><time>2026-03-28T07:06:14.978Z</time></trkpt><trkpt lat="43.9048196" lon="11.2830663"><ele>286.0</ele><time>2026-03-28T07:06:15.963Z</time></trkpt><trkpt lat="43.9055137" lon="11.2825336"><ele>286.0</ele><time>2026-03-28T07:06:20.986Z</time></trkpt><trkpt lat="43.9056768" lon="11.2825741"><ele>286.0</ele><time>2026-03-28T07:06:21.978Z</time></trkpt><trkpt lat="43.9058546" lon="11.282544"><ele>286.0</ele><time>2026-03-28T07:06:22.972Z</time></trkpt><trkpt lat="43.9060212" lon="11.2825136"><ele>285.3333333333333</ele><time>2026-03-28T07:06:23.978Z</time></trkpt><trkpt lat="43.9061806" lon="11.2825001"><ele>284.6666666666667</ele><time>2026-03-28T07:06:24.994Z</time></trkpt><trkpt lat="43.9063364" lon="11.2824821"><ele>284.0</ele><time>2026-03-28T07:06:25.987Z</time></trkpt><trkpt lat="43.9064899" lon="11.2824678"><ele>284.0</ele><time>2026-03-28T07:06:26.974Z</time></trkpt><trkpt lat="43.9066449" lon="11.2824541"><ele>284.0</ele><time>2026-03-28T07:06:27.978Z</time></trkpt><trkpt lat="43.9067985" lon="11.2824453"><ele>284.0</ele><time>2026-03-28T07:06:28.972Z</time></trkpt><trkpt lat="43.9069572" lon="11.2824263"><ele>283.33333333333337</ele><time>2026-03-28T07:06:29.983Z</time></trkpt><trkpt lat="43.9071173" lon="11.2824094"><ele>282.6666666666667</ele><time>2026-03-28T07:06:30.987Z</time></trkpt><trkpt lat="43.9072817" lon="11.2824007"><ele>282.0</ele><time>2026-03-28T07:06:31.981Z</time></trkpt><trkpt lat="43.9074538" lon="11.2823891"><ele>282.3333333333333</ele><time>2026-03-28T07:06:32.979Z</time></trkpt><trkpt lat="43.907618" lon="11.2823766"><ele>282.66666666666663</ele><time>2026-03-28T07:06:33.974Z</time></trkpt><trkpt lat="43.9077761" lon="11.2823619"><ele>283.0</ele><time>2026-03-28T07:06:34.983Z</time></trkpt><trkpt lat="43.9079316" lon="11.2823514"><ele>283.0</ele><time>2026-03-28T07:06:35.977Z</time></trkpt><trkpt lat="43.9080927" lon="11.2823372"><ele>283.0</ele><time>2026-03-28T07:06:36.976Z</time></trkpt><trkpt lat="43.9082538" lon="11.2823283"><ele>283.0</ele><time>2026-03-28T07:06:37.967Z</time></trkpt><trkpt lat="43.9084141" lon="11.2823233"><ele>282.66666666666663</ele><time>2026-03-28T07:06:38.982Z</time></trkpt><trkpt lat="43.9085796" lon="11.2823071"><ele>282.3333333333333</ele><time>2026-03-28T07:06:39.982Z</time></trkpt><trkpt lat="43.908739" lon="11.2822933"><ele>282.0</ele><time>2026-03-28T07:06:40.983Z</time></trkpt><trkpt lat="43.9089024" lon="11.2822814"><ele>280.3333333333333</ele><time>2026-03-28T07:06:41.994Z</time></trkpt><trkpt lat="43.9090674" lon="11.2822642"><ele>278.66666666666663</ele><time>2026-03-28T07:06:42.97Z</time></trkpt><trkpt lat="43.9092278" lon="11.2822308"><ele>277.0</ele><time>2026-03-28T07:06:43.979Z</time></trkpt><trkpt lat="43.909389" lon="11.2821941"><ele>277.0</ele><time>2026-03-28T07:06:44.987Z</time></trkpt><trkpt lat="43.9095521" lon="11.2821464"><ele>277.0</ele><time>2026-03-28T07:06:45.981Z</time></trkpt><trkpt lat="43.909711" lon="11.282095"><ele>277.0</ele><time>2026-03-28T07:06:46.976Z</time></trkpt><trkpt lat="43.9098735" lon="11.2820409"><ele>277.0</ele><time>2026-03-28T07:06:47.991Z</time></trkpt><trkpt lat="43.9100383" lon="11.2819808"><ele>277.0</ele><time>2026-03-28T07:06:48.979Z</time></trkpt><trkpt lat="43.9101985" lon="11.2819243"><ele>277.0</ele><time>2026-03-28T07:06:49.984Z</time></trkpt><trkpt lat="43.9103617" lon="11.2818688"><ele>276.66666666666663</ele><time>2026-03-28T07:06:50.991Z</time></trkpt><trkpt lat="43.9105257" lon="11.2818352"><ele>276.3333333333333</ele><time>2026-03-28T07:06:51.995Z</time></trkpt><trkpt lat="43.9106985" lon="11.2818284"><ele>276.0</ele><time>2026-03-28T07:06:52.989Z</time></trkpt><trkpt lat="43.9108575" lon="11.2818615"><ele>275.3333333333333</ele><time>2026-03-28T07:06:53.988Z</time></trkpt><trkpt lat="43.9110215" lon="11.281915"><ele>274.66666666666663</ele><time>2026-03-28T07:06:54.991Z</time></trkpt><trkpt lat="43.9111729" lon="11.2820012"><ele>274.0</ele><time>2026-03-28T07:06:55.981Z</time></trkpt><trkpt lat="43.9113196" lon="11.282107"><ele>274.0</ele><time>2026-03-28T07:06:56.973Z</time></trkpt><trkpt lat="43.9114595" lon="11.2822493"><ele>274.0</ele><time>2026-03-28T07:06:57.984Z</time></trkpt><trkpt lat="43.9115797" lon="11.2824068"><ele>274.0</ele><time>2026-03-28T07:06:58.977Z</time></trkpt><trkpt lat="43.9116902" lon="11.2825787"><ele>275.0</ele><time>2026-03-28T07:06:59.983Z</time></trkpt><trkpt lat="43.9117938" lon="11.2827589"><ele>276.0</ele><time>2026-03-28T07:07:00.965Z</time></trkpt><trkpt lat="43.9118981" lon="11.2829346"><ele>277.0</ele><time>2026-03-28T07:07:01.974Z</time></trkpt><trkpt lat="43.9120122" lon="11.2831017"><ele>278.66666666666663</ele><time>2026-03-28T07:07:02.988Z</time></trkpt><trkpt lat="43.9121412" lon="11.2832489"><ele>280.3333333333333</ele><time>2026-03-28T07:07:03.984Z</time></trkpt><trkpt lat="43.9122836" lon="11.283365"><ele>282.0</ele><time>2026-03-28T07:07:04.983Z</time></trkpt><trkpt lat="43.912431" lon="11.2834525"><ele>279.6666666666667</ele><time>2026-03-28T07:07:05.981Z</time></trkpt><trkpt lat="43.9125799" lon="11.2835415"><ele>277.33333333333337</ele><time>2026-03-28T07:07:06.977Z</time></trkpt><trkpt lat="43.9127304" lon="11.2836291"><ele>275.0</ele><time>2026-03-28T07:07:07.98Z</time></trkpt><trkpt lat="43.9128812" lon="11.2837247"><ele>275.0</ele><time>2026-03-28T07:07:08.975Z</time></trkpt><trkpt lat="43.9130329" lon="11.2838206"><ele>275.0</ele><time>2026-03-28T07:07:09.977Z</time></trkpt><trkpt lat="43.9131876" lon="11.2839145"><ele>275.0</ele><time>2026-03-28T07:07:10.982Z</time></trkpt><trkpt lat="43.9133474" lon="11.2840057"><ele>276.33333333333337</ele><time>2026-03-28T07:07:11.981Z</time></trkpt><trkpt lat="43.9135075" lon="11.2840777"><ele>277.6666666666667</ele><time>2026-03-28T07:07:12.978Z</time></trkpt><trkpt lat="43.9136727" lon="11.2841307"><ele>279.0</ele><time>2026-03-28T07:07:13.985Z</time></trkpt><trkpt lat="43.9138418" lon="11.2841672"><ele>279.0</ele><time>2026-03-28T07:07:14.984Z</time></trkpt><trkpt lat="43.9140089" lon="11.2841796"><ele>279.0</ele><time>2026-03-28T07:07:15.988Z</time></trkpt><trkpt lat="43.9141745" lon="11.2841703"><ele>279.0</ele><time>2026-03-28T07:07:16.981Z</time></trkpt><trkpt lat="43.9143438" lon="11.2841366"><ele>277.6666666666667</ele><time>2026-03-28T07:07:17.977Z</time></trkpt><trkpt lat="43.9145092" lon="11.284074"><ele>276.33333333333337</ele><time>2026-03-28T07:07:18.964Z</time></trkpt><trkpt lat="43.914668" lon="11.2839973"><ele>275.0</ele><time>2026-03-28T07:07:19.978Z</time></trkpt><trkpt lat="43.9148261" lon="11.2839093"><ele>273.0</ele><time>2026-03-28T07:07:20.959Z</time></trkpt><trkpt lat="43.9149743" lon="11.2838008"><ele>271.0</ele><time>2026-03-28T07:07:21.955Z</time></trkpt><trkpt lat="43.9151203" lon="11.283684"><ele>269.0</ele><time>2026-03-28T07:07:22.962Z</time></trkpt><trkpt lat="43.9152687" lon="11.2835731"><ele>269.0</ele><time>2026-03-28T07:07:23.981Z</time></trkpt><trkpt lat="43.9154166" lon="11.2834584"><ele>269.0</ele><time>2026-03-28T07:07:24.981Z</time></trkpt><trkpt lat="43.9155556" lon="11.2833571"><ele>269.0</ele><time>2026-03-28T07:07:25.96Z</time></trkpt><trkpt lat="43.9156891" lon="11.283256"><ele>269.0</ele><time>2026-03-28T07:07:26.974Z</time></trkpt><trkpt lat="43.915825" lon="11.2831651"><ele>269.0</ele><time>2026-03-28T07:07:27.979Z</time></trkpt><trkpt lat="43.9159553" lon="11.2830834"><ele>269.0</ele><time>2026-03-28T07:07:28.986Z</time></trkpt><trkpt lat="43.9160776" lon="11.2830213"><ele>269.0</ele><time>2026-03-28T07:07:29.983Z</time></trkpt><trkpt lat="43.9161855" lon="11.282977"><ele>273.5</ele><time>2026-03-28T07:07:30.986Z</time></trkpt><trkpt lat="43.9162748" lon="11.2829535"><ele>278.0</ele><time>2026-03-28T07:07:31.973Z</time></trkpt><trkpt lat="43.9163476" lon="11.2829178"><ele>282.5</ele><time>2026-03-28T07:07:32.987Z</time></trkpt><trkpt lat="43.9163856" lon="11.2827686"><ele>287.0</ele><time>2026-03-28T07:07:34.984Z</time></trkpt><trkpt lat="43.9163489" lon="11.2826876"><ele>291.5</ele><time>2026-03-28T07:07:35.979Z</time></trkpt><trkpt lat="43.9162977" lon="11.2826257"><ele>296.0</ele><time>2026-03-28T07:07:36.978Z</time></trkpt><trkpt lat="43.9162247" lon="11.2826064"><ele>296.0</ele><time>2026-03-28T07:07:37.973Z</time></trkpt><trkpt lat="43.9161468" lon="11.2826063"><ele>296.0</ele><time>2026-03-28T07:07:38.979Z</time></trkpt><trkpt lat="43.9160737" lon="11.2826508"><ele>296.0</ele><time>2026-03-28T07:07:39.977Z</time></trkpt><trkpt lat="43.9159901" lon="11.2826999"><ele>296.0</ele><time>2026-03-28T07:07:40.978Z</time></trkpt><trkpt lat="43.9159059" lon="11.2827469"><ele>296.0</ele><time>2026-03-28T07:07:41.975Z</time></trkpt><trkpt lat="43.9158118" lon="11.2828053"><ele>296.0</ele><time>2026-03-28T07:07:42.967Z</time></trkpt><trkpt lat="43.9157188" lon="11.282868"><ele>291.75</ele><time>2026-03-28T07:07:43.983Z</time></trkpt><trkpt lat="43.9156148" lon="11.2829188"><ele>287.5</ele><time>2026-03-28T07:07:44.989Z</time></trkpt><trkpt lat="43.9155087" lon="11.2829322"><ele>283.25</ele><time>2026-03-28T07:07:45.979Z</time></trkpt><trkpt lat="43.9153936" lon="11.2829318"><ele>279.0</ele><time>2026-03-28T07:07:46.981Z</time></trkpt><trkpt lat="43.9152745" lon="11.2829337"><ele>279.0</ele><time>2026-03-28T07:07:47.977Z</time></trkpt><trkpt lat="43.9151554" lon="11.2829455"><ele>279.0</ele><time>2026-03-28T07:07:48.974Z</time></trkpt><trkpt lat="43.9150354" lon="11.2829509"><ele>279.0</ele><time>2026-03-28T07:07:49.975Z</time></trkpt><trkpt lat="43.9149141" lon="11.2829532"><ele>279.0</ele><time>2026-03-28T07:07:50.987Z</time></trkpt><trkpt lat="43.914789" lon="11.2829495"><ele>278.5</ele><time>2026-03-28T07:07:51.979Z</time></trkpt><trkpt lat="43.91467" lon="11.2829394"><ele>278.0</ele><time>2026-03-28T07:07:52.97Z</time></trkpt><trkpt lat="43.9145508" lon="11.2829241"><ele>277.5</ele><time>2026-03-28T07:07:53.967Z</time></trkpt><trkpt lat="43.9144291" lon="11.2828965"><ele>277.0</ele><time>2026-03-28T07:07:54.982Z</time></trkpt><trkpt lat="43.9143136" lon="11.2828597"><ele>277.0</ele><time>2026-03-28T07:07:55.982Z</time></trkpt><trkpt lat="43.9141933" lon="11.2828304"><ele>277.0</ele><time>2026-03-28T07:07:56.977Z</time></trkpt><trkpt lat="43.914074" lon="11.2827999"><ele>277.0</ele><time>2026-03-28T07:07:57.974Z</time></trkpt><trkpt lat="43.9139552" lon="11.2827763"><ele>277.0</ele><time>2026-03-28T07:07:58.982Z</time></trkpt><trkpt lat="43.9138348" lon="11.2827639"><ele>277.0</ele><time>2026-03-28T07:07:59.982Z</time></trkpt><trkpt lat="43.9137163" lon="11.2827478"><ele>277.0</ele><time>2026-03-28T07:08:00.98Z</time></trkpt><trkpt lat="43.9136011" lon="11.282731"><ele>277.0</ele><time>2026-03-28T07:08:01.978Z</time></trkpt><trkpt lat="43.9134867" lon="11.2827183"><ele>277.0</ele><time>2026-03-28T07:08:02.98Z</time></trkpt><trkpt lat="43.9133689" lon="11.282687"><ele>277.0</ele><time>2026-03-28T07:08:03.997Z</time></trkpt><trkpt lat="43.9132521" lon="11.2826456"><ele>277.0</ele><time>2026-03-28T07:08:04.98Z</time></trkpt><trkpt lat="43.9131361" lon="11.2825969"><ele>277.0</ele><time>2026-03-28T07:08:05.992Z</time></trkpt><trkpt lat="43.9130159" lon="11.2825519"><ele>277.0</ele><time>2026-03-28T07:08:06.965Z</time></trkpt><trkpt lat="43.9129035" lon="11.2825027"><ele>277.0</ele><time>2026-03-28T07:08:07.986Z</time></trkpt><trkpt lat="43.9128045" lon="11.2824418"><ele>277.0</ele><time>2026-03-28T07:08:08.974Z</time></trkpt><trkpt lat="43.9127225" lon="11.2823482"><ele>277.0</ele><time>2026-03-28T07:08:09.977Z</time></trkpt><trkpt lat="43.9126451" lon="11.2822324"><ele>277.0</ele><time>2026-03-28T07:08:10.989Z</time></trkpt><trkpt lat="43.9125768" lon="11.2820956"><ele>277.0</ele><time>2026-03-28T07:08:11.977Z</time></trkpt><trkpt lat="43.9125173" lon="11.2819579"><ele>277.75</ele><time>2026-03-28T07:08:12.983Z</time></trkpt><trkpt lat="43.9124524" lon="11.2818095"><ele>278.5</ele><time>2026-03-28T07:08:13.98Z</time></trkpt><trkpt lat="43.9123844" lon="11.2816685"><ele>279.25</ele><time>2026-03-28T07:08:14.979Z</time></trkpt><trkpt lat="43.9123085" lon="11.2815243"><ele>280.0</ele><time>2026-03-28T07:08:15.971Z</time></trkpt><trkpt lat="43.9122309" lon="11.2813826"><ele>280.8</ele><time>2026-03-28T07:08:16.963Z</time></trkpt><trkpt lat="43.9121614" lon="11.281239"><ele>281.6</ele><time>2026-03-28T07:08:17.979Z</time></trkpt><trkpt lat="43.9120968" lon="11.2811005"><ele>282.4</ele><time>2026-03-28T07:08:18.982Z</time></trkpt><trkpt lat="43.9120348" lon="11.2809785"><ele>283.2</ele><time>2026-03-28T07:08:19.986Z</time></trkpt><trkpt lat="43.9119772" lon="11.2808826"><ele>284.0</ele><time>2026-03-28T07:08:20.982Z</time></trkpt><trkpt lat="43.911942" lon="11.2808084"><ele>284.0</ele><time>2026-03-28T07:08:21.987Z</time></trkpt><trkpt lat="43.911987" lon="11.280723"><ele>284.0</ele><time>2026-03-28T07:08:23.989Z</time></trkpt><trkpt lat="43.9121101" lon="11.2807113"><ele>284.0</ele><time>2026-03-28T07:08:25.993Z</time></trkpt><trkpt lat="43.9121758" lon="11.2807378"><ele>284.0</ele><time>2026-03-28T07:08:26.98Z</time></trkpt><trkpt lat="43.9122421" lon="11.2807441"><ele>284.0</ele><time>2026-03-28T07:08:27.983Z</time></trkpt><trkpt lat="43.9123272" lon="11.2807431"><ele>284.0</ele><time>2026-03-28T07:08:28.995Z</time></trkpt><trkpt lat="43.9124035" lon="11.2807509"><ele>284.0</ele><time>2026-03-28T07:08:29.992Z</time></trkpt><trkpt lat="43.9124805" lon="11.2807563"><ele>284.0</ele><time>2026-03-28T07:08:30.989Z</time></trkpt><trkpt lat="43.9125554" lon="11.2807574"><ele>284.0</ele><time>2026-03-28T07:08:31.987Z</time></trkpt><trkpt lat="43.9126294" lon="11.2807593"><ele>284.0</ele><time>2026-03-28T07:08:32.979Z</time></trkpt><trkpt lat="43.9127084" lon="11.2807502"><ele>284.0</ele><time>2026-03-28T07:08:33.994Z</time></trkpt><trkpt lat="43.9127618" lon="11.2806828"><ele>284.0</ele><time>2026-03-28T07:08:34.975Z</time></trkpt><trkpt lat="43.9127917" lon="11.2805826"><ele>286.59999999999997</ele><time>2026-03-28T07:08:35.976Z</time></trkpt><trkpt lat="43.9128012" lon="11.2804691"><ele>289.2</ele><time>2026-03-28T07:08:36.981Z</time></trkpt><trkpt lat="43.9128111" lon="11.2803386"><ele>291.79999999999995</ele><time>2026-03-28T07:08:37.989Z</time></trkpt><trkpt lat="43.9128234" lon="11.2802113"><ele>294.4</ele><time>2026-03-28T07:08:38.996Z</time></trkpt><trkpt lat="43.9128338" lon="11.2800781"><ele>297.0</ele><time>2026-03-28T07:08:39.996Z</time></trkpt><trkpt lat="43.9128437" lon="11.2799397"><ele>297.0</ele><time>2026-03-28T07:08:40.977Z</time></trkpt><trkpt lat="43.9128585" lon="11.2798026"><ele>297.0</ele><time>2026-03-28T07:08:41.989Z</time></trkpt><trkpt lat="43.912876" lon="11.2796647"><ele>297.0</ele><time>2026-03-28T07:08:42.988Z</time></trkpt><trkpt lat="43.9128863" lon="11.2795266"><ele>297.0</ele><time>2026-03-28T07:08:43.984Z</time></trkpt><trkpt lat="43.9129004" lon="11.2793945"><ele>297.0</ele><time>2026-03-28T07:08:44.98Z</time></trkpt><trkpt lat="43.9129088" lon="11.2792644"><ele>298.3333333333333</ele><time>2026-03-28T07:08:45.978Z</time></trkpt><trkpt lat="43.9129127" lon="11.2791383"><ele>299.6666666666667</ele><time>2026-03-28T07:08:46.982Z</time></trkpt><trkpt lat="43.9129455" lon="11.2790389"><ele>301.0</ele><time>2026-03-28T07:08:47.983Z</time></trkpt><trkpt lat="43.912998" lon="11.2789771"><ele>302.33333333333337</ele><time>2026-03-28T07:08:48.984Z</time></trkpt><trkpt lat="43.913065" lon="11.2789455"><ele>303.6666666666667</ele><time>2026-03-28T07:08:49.979Z</time></trkpt><trkpt lat="43.9131499" lon="11.2789625"><ele>305.0</ele><time>2026-03-28T07:08:50.984Z</time></trkpt><trkpt lat="43.9132353" lon="11.2789866"><ele>305.0</ele><time>2026-03-28T07:08:51.984Z</time></trkpt><trkpt lat="43.913321" lon="11.2790104"><ele>305.0</ele><time>2026-03-28T07:08:52.992Z</time></trkpt><trkpt lat="43.9134111" lon="11.2790347"><ele>305.0</ele><time>2026-03-28T07:08:53.989Z</time></trkpt><trkpt lat="43.9135063" lon="11.2790616"><ele>305.0</ele><time>2026-03-28T07:08:54.99Z</time></trkpt><trkpt lat="43.9136072" lon="11.2790827"><ele>305.0</ele><time>2026-03-28T07:08:55.981Z</time></trkpt><trkpt lat="43.9137053" lon="11.2790983"><ele>307.6</ele><time>2026-03-28T07:08:56.988Z</time></trkpt><trkpt lat="43.9138161" lon="11.2791102"><ele>310.2</ele><time>2026-03-28T07:08:57.983Z</time></trkpt><trkpt lat="43.9139208" lon="11.2791119"><ele>312.8</ele><time>2026-03-28T07:08:59.033Z</time></trkpt><trkpt lat="43.9140121" lon="11.2790974"><ele>315.4</ele><time>2026-03-28T07:08:59.968Z</time></trkpt><trkpt lat="43.9140713" lon="11.2790493"><ele>318.0</ele><time>2026-03-28T07:09:00.967Z</time></trkpt><trkpt lat="43.9141165" lon="11.2788882"><ele>320.1666666666667</ele><time>2026-03-28T07:09:02.971Z</time></trkpt><trkpt lat="43.9140946" lon="11.278801"><ele>322.3333333333333</ele><time>2026-03-28T07:09:04.03Z</time></trkpt><trkpt lat="43.914032" lon="11.2787318"><ele>324.5</ele><time>2026-03-28T07:09:04.969Z</time></trkpt><trkpt lat="43.9139647" lon="11.2786696"><ele>326.66666666666663</ele><time>2026-03-28T07:09:05.968Z</time></trkpt><trkpt lat="43.9138931" lon="11.2786061"><ele>328.8333333333333</ele><time>2026-03-28T07:09:06.994Z</time></trkpt><trkpt lat="43.9138198" lon="11.2785367"><ele>331.0</ele><time>2026-03-28T07:09:08.029Z</time></trkpt><trkpt lat="43.9137586" lon="11.2784484"><ele>331.0</ele><time>2026-03-28T07:09:09.029Z</time></trkpt><trkpt lat="43.9137252" lon="11.2783489"><ele>331.0</ele><time>2026-03-28T07:09:09.961Z</time></trkpt><trkpt lat="43.9137026" lon="11.2782446"><ele>331.0</ele><time>2026-03-28T07:09:10.96Z</time></trkpt><trkpt lat="43.9136943" lon="11.27814"><ele>331.0</ele><time>2026-03-28T07:09:11.966Z</time></trkpt><trkpt lat="43.9137101" lon="11.2780412"><ele>331.0</ele><time>2026-03-28T07:09:13.031Z</time></trkpt><trkpt lat="43.9137502" lon="11.2779327"><ele>331.0</ele><time>2026-03-28T07:09:14.028Z</time></trkpt><trkpt lat="43.913798" lon="11.2778176"><ele>331.8333333333333</ele><time>2026-03-28T07:09:14.954Z</time></trkpt><trkpt lat="43.9138405" lon="11.2777027"><ele>332.66666666666663</ele><time>2026-03-28T07:09:15.954Z</time></trkpt><trkpt lat="43.9138874" lon="11.2775905"><ele>333.5</ele><time>2026-03-28T07:09:16.962Z</time></trkpt><trkpt lat="43.9139328" lon="11.2774822"><ele>334.3333333333333</ele><time>2026-03-28T07:09:17.954Z</time></trkpt><trkpt lat="43.9139877" lon="11.2773848"><ele>335.1666666666667</ele><time>2026-03-28T07:09:18.966Z</time></trkpt><trkpt lat="43.9140466" lon="11.2773033"><ele>336.0</ele><time>2026-03-28T07:09:19.973Z</time></trkpt><trkpt lat="43.9141073" lon="11.277259"><ele>336.0</ele><time>2026-03-28T07:09:20.97Z</time></trkpt><trkpt lat="43.9141823" lon="11.2772525"><ele>336.0</ele><time>2026-03-28T07:09:21.971Z</time></trkpt><trkpt lat="43.9142521" lon="11.2772985"><ele>336.0</ele><time>2026-03-28T07:09:22.963Z</time></trkpt><trkpt lat="43.9143148" lon="11.2773749"><ele>336.0</ele><time>2026-03-28T07:09:23.971Z</time></trkpt><trkpt lat="43.9143808" lon="11.2774637"><ele>336.0</ele><time>2026-03-28T07:09:24.964Z</time></trkpt><trkpt lat="43.9144552" lon="11.2775209"><ele>336.0</ele><time>2026-03-28T07:09:25.965Z</time></trkpt><trkpt lat="43.9145336" lon="11.2775686"><ele>338.20000000000005</ele><time>2026-03-28T07:09:26.963Z</time></trkpt><trkpt lat="43.9146046" lon="11.2776003"><ele>340.40000000000003</ele><time>2026-03-28T07:09:27.987Z</time></trkpt><trkpt lat="43.9146756" lon="11.2776034"><ele>342.6</ele><time>2026-03-28T07:09:28.965Z</time></trkpt><trkpt lat="43.9147679" lon="11.2775711"><ele>344.8</ele><time>2026-03-28T07:09:29.974Z</time></trkpt><trkpt lat="43.9148729" lon="11.2775644"><ele>347.0</ele><time>2026-03-28T07:09:30.954Z</time></trkpt><trkpt lat="43.9149861" lon="11.277548"><ele>349.40000000000003</ele><time>2026-03-28T07:09:31.961Z</time></trkpt><trkpt lat="43.9150792" lon="11.2775372"><ele>351.8</ele><time>2026-03-28T07:09:32.96Z</time></trkpt><trkpt lat="43.915175" lon="11.277527"><ele>354.2</ele><time>2026-03-28T07:09:33.964Z</time></trkpt><trkpt lat="43.9152679" lon="11.2775292"><ele>356.6</ele><time>2026-03-28T07:09:34.966Z</time></trkpt><trkpt lat="43.9153583" lon="11.2775337"><ele>359.0</ele><time>2026-03-28T07:09:35.977Z</time></trkpt><trkpt lat="43.9154439" lon="11.2775494"><ele>359.0</ele><time>2026-03-28T07:09:37Z</time></trkpt><trkpt lat="43.9155227" lon="11.277539"><ele>359.0</ele><time>2026-03-28T07:09:37.967Z</time></trkpt><trkpt lat="43.9155918" lon="11.2775153"><ele>359.0</ele><time>2026-03-28T07:09:38.967Z</time></trkpt><trkpt lat="43.9156492" lon="11.2774499"><ele>359.0</ele><time>2026-03-28T07:09:39.967Z</time></trkpt><trkpt lat="43.9156983" lon="11.2773694"><ele>359.0</ele><time>2026-03-28T07:09:40.965Z</time></trkpt><trkpt lat="43.9157386" lon="11.277272"><ele>359.0</ele><time>2026-03-28T07:09:41.959Z</time></trkpt><trkpt lat="43.9157667" lon="11.2771636"><ele>359.83333333333337</ele><time>2026-03-28T07:09:42.963Z</time></trkpt><trkpt lat="43.9157952" lon="11.2770562"><ele>360.6666666666667</ele><time>2026-03-28T07:09:44.032Z</time></trkpt><trkpt lat="43.9158276" lon="11.2769462"><ele>361.5</ele><time>2026-03-28T07:09:44.969Z</time></trkpt><trkpt lat="43.9158619" lon="11.2768364"><ele>362.3333333333333</ele><time>2026-03-28T07:09:45.961Z</time></trkpt><trkpt lat="43.9158932" lon="11.2767205"><ele>363.16666666666663</ele><time>2026-03-28T07:09:46.994Z</time></trkpt><trkpt lat="43.9159152" lon="11.2766122"><ele>364.0</ele><time>2026-03-28T07:09:48.03Z</time></trkpt><trkpt lat="43.915925" lon="11.2765165"><ele>365.4</ele><time>2026-03-28T07:09:49.03Z</time></trkpt><trkpt lat="43.9159151" lon="11.2764264"><ele>366.79999999999995</ele><time>2026-03-28T07:09:49.961Z</time></trkpt><trkpt lat="43.9158924" lon="11.2762675"><ele>368.20000000000005</ele><time>2026-03-28T07:09:52.002Z</time></trkpt><trkpt lat="43.9158786" lon="11.2761809"><ele>369.6</ele><time>2026-03-28T07:09:52.967Z</time></trkpt><trkpt lat="43.9158684" lon="11.2759716"><ele>371.0</ele><time>2026-03-28T07:09:55.969Z</time></trkpt><trkpt lat="43.915934" lon="11.2759369"><ele>375.4</ele><time>2026-03-28T07:09:58.967Z</time></trkpt><trkpt lat="43.9159768" lon="11.276042"><ele>379.8</ele><time>2026-03-28T07:10:01.038Z</time></trkpt><trkpt lat="43.9160518" lon="11.2761339"><ele>384.2</ele><time>2026-03-28T07:10:03.034Z</time></trkpt><trkpt lat="43.9161449" lon="11.2761682"><ele>388.59999999999997</ele><time>2026-03-28T07:10:04.968Z</time></trkpt><trkpt lat="43.9162328" lon="11.2762307"><ele>393.0</ele><time>2026-03-28T07:10:06.961Z</time></trkpt><trkpt lat="43.9163328" lon="11.2763286"><ele>393.0</ele><time>2026-03-28T07:10:09.031Z</time></trkpt><trkpt lat="43.9163883" lon="11.2763899"><ele>393.0</ele><time>2026-03-28T07:10:09.977Z</time></trkpt><trkpt lat="43.9164405" lon="11.2764477"><ele>393.0</ele><time>2026-03-28T07:10:10.979Z</time></trkpt><trkpt lat="43.9165224" lon="11.2765623"><ele>393.0</ele><time>2026-03-28T07:10:12.963Z</time></trkpt><trkpt lat="43.9166213" lon="11.2766596"><ele>393.0</ele><time>2026-03-28T07:10:14.964Z</time></trkpt><trkpt lat="43.9167169" lon="11.276746"><ele>396.79999999999995</ele><time>2026-03-28T07:10:17.031Z</time></trkpt><trkpt lat="43.9167984" lon="11.2768174"><ele>400.6</ele><time>2026-03-28T07:10:19.04Z</time></trkpt><trkpt lat="43.9168669" lon="11.2768992"><ele>404.4</ele><time>2026-03-28T07:10:20.968Z</time></trkpt><trkpt lat="43.9169369" lon="11.276999"><ele>408.20000000000005</ele><time>2026-03-28T07:10:23.024Z</time></trkpt><trkpt lat="43.9170325" lon="11.2771047"><ele>412.0</ele><time>2026-03-28T07:10:24.964Z</time></trkpt><trkpt lat="43.9170818" lon="11.2771622"><ele>412.00000000000006</ele><time>2026-03-28T07:10:26.03Z</time></trkpt><trkpt lat="43.917121" lon="11.2772388"><ele>412.0</ele><time>2026-03-28T07:10:27.032Z</time></trkpt><trkpt lat="43.9171558" lon="11.2773215"><ele>412.0</ele><time>2026-03-28T07:10:28.037Z</time></trkpt><trkpt lat="43.9171927" lon="11.2773942"><ele>412.0</ele><time>2026-03-28T07:10:28.975Z</time></trkpt><trkpt lat="43.9172305" lon="11.2774667"><ele>412.00000000000006</ele><time>2026-03-28T07:10:29.967Z</time></trkpt><trkpt lat="43.9172798" lon="11.2775994"><ele>412.0</ele><time>2026-03-28T07:10:31.994Z</time></trkpt><trkpt lat="43.9173203" lon="11.2777086"><ele>410.83333333333337</ele><time>2026-03-28T07:10:33.972Z</time></trkpt><trkpt lat="43.9173452" lon="11.2778117"><ele>409.6666666666667</ele><time>2026-03-28T07:10:35.968Z</time></trkpt><trkpt lat="43.9173701" lon="11.2779237"><ele>408.5</ele><time>2026-03-28T07:10:38.03Z</time></trkpt><trkpt lat="43.9174031" lon="11.2780303"><ele>407.33333333333337</ele><time>2026-03-28T07:10:39.963Z</time></trkpt><trkpt lat="43.9174291" lon="11.2781665"><ele>406.1666666666667</ele><time>2026-03-28T07:10:41.966Z</time></trkpt><trkpt lat="43.9174474" lon="11.2783019"><ele>405.0</ele><time>2026-03-28T07:10:43.953Z</time></trkpt><trkpt lat="43.917465" lon="11.2784486"><ele>404.5</ele><time>2026-03-28T07:10:45.959Z</time></trkpt><trkpt lat="43.9175042" lon="11.2785727"><ele>404.0</ele><time>2026-03-28T07:10:47.967Z</time></trkpt><trkpt lat="43.917533" lon="11.2786991"><ele>403.5</ele><time>2026-03-28T07:10:49.967Z</time></trkpt><trkpt lat="43.9175503" lon="11.2788289"><ele>403.0</ele><time>2026-03-28T07:10:51.969Z</time></trkpt><trkpt lat="43.9175826" lon="11.2789342"><ele>402.5</ele><time>2026-03-28T07:10:53.971Z</time></trkpt><trkpt lat="43.9176044" lon="11.2790379"><ele>402.0</ele><time>2026-03-28T07:10:55.972Z</time></trkpt><trkpt lat="43.9176192" lon="11.279162"><ele>405.20000000000005</ele><time>2026-03-28T07:10:57.963Z</time></trkpt><trkpt lat="43.9176401" lon="11.2792816"><ele>408.4</ele><time>2026-03-28T07:10:59.963Z</time></trkpt><trkpt lat="43.9176645" lon="11.2793947"><ele>411.6</ele><time>2026-03-28T07:11:02.036Z</time></trkpt><trkpt lat="43.9176943" lon="11.2795237"><ele>414.79999999999995</ele><time>2026-03-28T07:11:03.977Z</time></trkpt><trkpt lat="43.9177143" lon="11.2796538"><ele>418.0</ele><time>2026-03-28T07:11:05.967Z</time></trkpt><trkpt lat="43.9177361" lon="11.2797764"><ele>418.00000000000006</ele><time>2026-03-28T07:11:07.964Z</time></trkpt><trkpt lat="43.9178074" lon="11.2798444"><ele>418.0</ele><time>2026-03-28T07:11:09.977Z</time></trkpt><trkpt lat="43.9178735" lon="11.279833"><ele>418.0</ele><time>2026-03-28T07:11:11.962Z</time></trkpt><trkpt lat="43.9179427" lon="11.2797836"><ele>418.0</ele><time>2026-03-28T07:11:13.951Z</time></trkpt><trkpt lat="43.9180473" lon="11.279728"><ele>418.00000000000006</ele><time>2026-03-28T07:11:15.97Z</time></trkpt><trkpt lat="43.9181376" lon="11.2796798"><ele>418.0</ele><time>2026-03-28T07:11:17.965Z</time></trkpt><trkpt lat="43.9182092" lon="11.2796299"><ele>419.00000000000006</ele><time>2026-03-28T07:11:19.962Z</time></trkpt><trkpt lat="43.9182843" lon="11.2795813"><ele>420.0</ele><time>2026-03-28T07:11:21.966Z</time></trkpt><trkpt lat="43.9183598" lon="11.2795374"><ele>421.0</ele><time>2026-03-28T07:11:23.968Z</time></trkpt><trkpt lat="43.9184394" lon="11.2795075"><ele>422.0</ele><time>2026-03-28T07:11:25.981Z</time></trkpt><trkpt lat="43.9185402" lon="11.2794781"><ele>423.00000000000006</ele><time>2026-03-28T07:11:27.967Z</time></trkpt><trkpt lat="43.9186373" lon="11.2794541"><ele>424.0</ele><time>2026-03-28T07:11:29.966Z</time></trkpt><trkpt lat="43.9187342" lon="11.2794367"><ele>426.2</ele><time>2026-03-28T07:11:32.021Z</time></trkpt><trkpt lat="43.9188243" lon="11.2794043"><ele>428.4</ele><time>2026-03-28T07:11:33.961Z</time></trkpt><trkpt lat="43.9189278" lon="11.2793739"><ele>430.6</ele><time>2026-03-28T07:11:35.965Z</time></trkpt><trkpt lat="43.9190281" lon="11.2793313"><ele>432.8</ele><time>2026-03-28T07:11:37.969Z</time></trkpt><trkpt lat="43.9191342" lon="11.279302"><ele>435.0</ele><time>2026-03-28T07:11:39.976Z</time></trkpt><trkpt lat="43.9192436" lon="11.2793334"><ele>435.0</ele><time>2026-03-28T07:11:41.963Z</time></trkpt><trkpt lat="43.9193524" lon="11.2793594"><ele>435.0</ele><time>2026-03-28T07:11:43.98Z</time></trkpt><trkpt lat="43.9194532" lon="11.2793745"><ele>435.0</ele><time>2026-03-28T07:11:45.967Z</time></trkpt><trkpt lat="43.9195591" lon="11.2794036"><ele>435.0</ele><time>2026-03-28T07:11:47.951Z</time></trkpt><trkpt lat="43.9196295" lon="11.279397"><ele>435.0</ele><time>2026-03-28T07:11:49.97Z</time></trkpt><trkpt lat="43.919726" lon="11.2793885"><ele>435.0</ele><time>2026-03-28T07:11:52.012Z</time></trkpt><trkpt lat="43.919821" lon="11.2793683"><ele>435.0</ele><time>2026-03-28T07:11:53.972Z</time></trkpt><trkpt lat="43.9199126" lon="11.2793439"><ele>435.0</ele><time>2026-03-28T07:11:55.971Z</time></trkpt><trkpt lat="43.9199928" lon="11.2792951"><ele>435.0</ele><time>2026-03-28T07:11:57.956Z</time></trkpt><trkpt lat="43.9201125" lon="11.2792644"><ele>435.0</ele><time>2026-03-28T07:11:59.974Z</time></trkpt><trkpt lat="43.9201771" lon="11.2792419"><ele>434.3333333333333</ele><time>2026-03-28T07:12:00.972Z</time></trkpt><trkpt lat="43.9202371" lon="11.2792151"><ele>433.66666666666663</ele><time>2026-03-28T07:12:01.967Z</time></trkpt><trkpt lat="43.9203429" lon="11.279216"><ele>433.0</ele><time>2026-03-28T07:12:03.973Z</time></trkpt><trkpt lat="43.9204707" lon="11.2792316"><ele>432.3333333333333</ele><time>2026-03-28T07:12:06.039Z</time></trkpt><trkpt lat="43.9205446" lon="11.2792279"><ele>431.66666666666663</ele><time>2026-03-28T07:12:07.029Z</time></trkpt><trkpt lat="43.9206094" lon="11.2792269"><ele>431.0</ele><time>2026-03-28T07:12:08.019Z</time></trkpt><trkpt lat="43.9206776" lon="11.2792358"><ele>431.0</ele><time>2026-03-28T07:12:08.97Z</time></trkpt><trkpt lat="43.9207996" lon="11.2792307"><ele>431.0</ele><time>2026-03-28T07:12:10.956Z</time></trkpt><trkpt lat="43.9209094" lon="11.2792714"><ele>431.0</ele><time>2026-03-28T07:12:12.961Z</time></trkpt><trkpt lat="43.9209849" lon="11.2793407"><ele>431.0</ele><time>2026-03-28T07:12:14.956Z</time></trkpt><trkpt lat="43.921065" lon="11.2794063"><ele>431.0</ele><time>2026-03-28T07:12:16.956Z</time></trkpt><trkpt lat="43.921145" lon="11.2794623"><ele>429.6</ele><time>2026-03-28T07:12:18.964Z</time></trkpt><trkpt lat="43.9212448" lon="11.2795168"><ele>428.20000000000005</ele><time>2026-03-28T07:12:20.967Z</time></trkpt><trkpt lat="43.9213153" lon="11.2795045"><ele>426.79999999999995</ele><time>2026-03-28T07:12:22.958Z</time></trkpt><trkpt lat="43.9214206" lon="11.2794165"><ele>425.4</ele><time>2026-03-28T07:12:24.95Z</time></trkpt><trkpt lat="43.9214996" lon="11.2792953"><ele>424.0</ele><time>2026-03-28T07:12:26.954Z</time></trkpt><trkpt lat="43.9215821" lon="11.2791669"><ele>424.00000000000006</ele><time>2026-03-28T07:12:28.954Z</time></trkpt><trkpt lat="43.9216223" lon="11.2790984"><ele>424.0</ele><time>2026-03-28T07:12:29.966Z</time></trkpt><trkpt lat="43.9216804" lon="11.2790162"><ele>424.0</ele><time>2026-03-28T07:12:31.954Z</time></trkpt><trkpt lat="43.9217565" lon="11.2789563"><ele>424.0</ele><time>2026-03-28T07:12:34.977Z</time></trkpt><trkpt lat="43.9218612" lon="11.2789531"><ele>424.00000000000006</ele><time>2026-03-28T07:12:37.957Z</time></trkpt><trkpt lat="43.9219584" lon="11.2789823"><ele>424.0</ele><time>2026-03-28T07:12:39.952Z</time></trkpt><trkpt lat="43.9220596" lon="11.2789816"><ele>425.50000000000006</ele><time>2026-03-28T07:12:41.991Z</time></trkpt><trkpt lat="43.9221562" lon="11.2789959"><ele>427.0</ele><time>2026-03-28T07:12:43.966Z</time></trkpt><trkpt lat="43.9222447" lon="11.2790103"><ele>428.5</ele><time>2026-03-28T07:12:45.967Z</time></trkpt><trkpt lat="43.922321" lon="11.2790135"><ele>430.0</ele><time>2026-03-28T07:12:47.961Z</time></trkpt><trkpt lat="43.9224099" lon="11.279022"><ele>431.50000000000006</ele><time>2026-03-28T07:12:49.957Z</time></trkpt><trkpt lat="43.9224802" lon="11.2790473"><ele>433.0</ele><time>2026-03-28T07:12:51.943Z</time></trkpt><trkpt lat="43.9225576" lon="11.2790944"><ele>435.1666666666667</ele><time>2026-03-28T07:12:53.958Z</time></trkpt><trkpt lat="43.9226274" lon="11.2791669"><ele>437.33333333333337</ele><time>2026-03-28T07:12:55.963Z</time></trkpt><trkpt lat="43.9227005" lon="11.2792492"><ele>439.5</ele><time>2026-03-28T07:12:57.991Z</time></trkpt><trkpt lat="43.9227546" lon="11.2793167"><ele>441.66666666666663</ele><time>2026-03-28T07:12:58.963Z</time></trkpt><trkpt lat="43.922859" lon="11.2794051"><ele>443.8333333333333</ele><time>2026-03-28T07:13:00.974Z</time></trkpt><trkpt lat="43.9229174" lon="11.2794492"><ele>446.0</ele><time>2026-03-28T07:13:01.987Z</time></trkpt><trkpt lat="43.9229735" lon="11.2794916"><ele>446.0</ele><time>2026-03-28T07:13:02.965Z</time></trkpt><trkpt lat="43.9230784" lon="11.2795623"><ele>446.0</ele><time>2026-03-28T07:13:04.973Z</time></trkpt><trkpt lat="43.9231357" lon="11.2796005"><ele>446.0</ele><time>2026-03-28T07:13:06.037Z</time></trkpt><trkpt lat="43.9232354" lon="11.279673"><ele>446.0</ele><time>2026-03-28T07:13:08.027Z</time></trkpt><trkpt lat="43.9233227" lon="11.2796987"><ele>446.0</ele><time>2026-03-28T07:13:09.969Z</time></trkpt><trkpt lat="43.9233724" lon="11.279619"><ele>445.99999999999994</ele><time>2026-03-28T07:13:12.947Z</time></trkpt><trkpt lat="43.9233735" lon="11.2794943"><ele>446.0</ele><time>2026-03-28T07:13:15.972Z</time></trkpt><trkpt lat="43.9233967" lon="11.2793901"><ele>446.0</ele><time>2026-03-28T07:13:18.95Z</time></trkpt><trkpt lat="43.9234143" lon="11.2792777"><ele>446.0</ele><time>2026-03-28T07:13:21.962Z</time></trkpt><trkpt lat="43.9234174" lon="11.2791791"><ele>445.99999999999994</ele><time>2026-03-28T07:13:23.965Z</time></trkpt><trkpt lat="43.9234437" lon="11.2790565"><ele>446.0</ele><time>2026-03-28T07:13:25.97Z</time></trkpt><trkpt lat="43.9234806" lon="11.2789422"><ele>446.66666666666663</ele><time>2026-03-28T07:13:27.967Z</time></trkpt><trkpt lat="43.9235193" lon="11.2788503"><ele>447.3333333333333</ele><time>2026-03-28T07:13:29.97Z</time></trkpt><trkpt lat="43.9235691" lon="11.2787799"><ele>448.0</ele><time>2026-03-28T07:13:31.961Z</time></trkpt><trkpt lat="43.9236641" lon="11.2787099"><ele>448.66666666666663</ele><time>2026-03-28T07:13:34.948Z</time></trkpt><trkpt lat="43.9237434" lon="11.2786991"><ele>449.3333333333333</ele><time>2026-03-28T07:13:36.959Z</time></trkpt><trkpt lat="43.923826" lon="11.2786968"><ele>450.0</ele><time>2026-03-28T07:13:38.973Z</time></trkpt><trkpt lat="43.9239196" lon="11.2786804"><ele>450.0</ele><time>2026-03-28T07:13:40.972Z</time></trkpt><trkpt lat="43.9239945" lon="11.2786607"><ele>450.0</ele><time>2026-03-28T07:13:42.959Z</time></trkpt><trkpt lat="43.9240639" lon="11.2786353"><ele>450.0</ele><time>2026-03-28T07:13:44.971Z</time></trkpt><trkpt lat="43.9241249" lon="11.2785947"><ele>450.0</ele><time>2026-03-28T07:13:46.966Z</time></trkpt><trkpt lat="43.9241879" lon="11.2785553"><ele>450.0</ele><time>2026-03-28T07:13:48.976Z</time></trkpt><trkpt lat="43.9242575" lon="11.2784955"><ele>450.0</ele><time>2026-03-28T07:13:51.965Z</time></trkpt><trkpt lat="43.9243332" lon="11.2784266"><ele>445.0</ele><time>2026-03-28T07:13:54.951Z</time></trkpt><trkpt lat="43.9244144" lon="11.2783655"><ele>440.0</ele><time>2026-03-28T07:13:57.945Z</time></trkpt><trkpt lat="43.9244674" lon="11.2782984"><ele>435.0</ele><time>2026-03-28T07:14:00.971Z</time></trkpt><trkpt lat="43.9245385" lon="11.2782867"><ele>430.0</ele><time>2026-03-28T07:14:13.971Z</time></trkpt><trkpt lat="43.9246091" lon="11.2782574"><ele>425.0</ele><time>2026-03-28T07:16:11.97Z</time></trkpt><trkpt lat="43.9246596" lon="11.2781748"><ele>420.0</ele><time>2026-03-28T07:17:36.973Z</time></trkpt><trkpt lat="43.9246968" lon="11.2780897"><ele>420.0</ele><time>2026-03-28T07:17:39.967Z</time></trkpt><trkpt lat="43.9247293" lon="11.2779784"><ele>420.0</ele><time>2026-03-28T07:17:42.988Z</time></trkpt><trkpt lat="43.9247427" lon="11.2778906"><ele>420.0</ele><time>2026-03-28T07:17:44.966Z</time></trkpt><trkpt lat="43.9247465" lon="11.2777813"><ele>420.0</ele><time>2026-03-28T07:17:46.981Z</time></trkpt><trkpt lat="43.9247543" lon="11.277671"><ele>420.0</ele><time>2026-03-28T07:17:48.959Z</time></trkpt><trkpt lat="43.9247659" lon="11.2775828"><ele>420.0</ele><time>2026-03-28T07:17:50.971Z</time></trkpt><trkpt lat="43.9247805" lon="11.2774878"><ele>420.0</ele><time>2026-03-28T07:17:52.95Z</time></trkpt><trkpt lat="43.9248071" lon="11.277388"><ele>420.0</ele><time>2026-03-28T07:17:54.954Z</time></trkpt><trkpt lat="43.9248524" lon="11.27731"><ele>420.0</ele><time>2026-03-28T07:17:56.958Z</time></trkpt><trkpt lat="43.9248965" lon="11.2772398"><ele>420.0</ele><time>2026-03-28T07:17:58.944Z</time></trkpt><trkpt lat="43.9249773" lon="11.2772099"><ele>420.0</ele><time>2026-03-28T07:18:00.941Z</time></trkpt><trkpt lat="43.9250908" lon="11.277159"><ele>420.0</ele><time>2026-03-28T07:18:02.948Z</time></trkpt><trkpt lat="43.9251539" lon="11.2771405"><ele>420.0</ele><time>2026-03-28T07:18:03.943Z</time></trkpt><trkpt lat="43.9252501" lon="11.2771191"><ele>419.0</ele><time>2026-03-28T07:18:04.953Z</time></trkpt><trkpt lat="43.925333" lon="11.277087"><ele>418.0</ele><time>2026-03-28T07:18:05.967Z</time></trkpt><trkpt lat="43.9254135" lon="11.2770566"><ele>417.0</ele><time>2026-03-28T07:18:06.972Z</time></trkpt><trkpt lat="43.9254889" lon="11.2770257"><ele>416.0</ele><time>2026-03-28T07:18:07.951Z</time></trkpt><trkpt lat="43.9255528" lon="11.2769852"><ele>415.0</ele><time>2026-03-28T07:18:08.976Z</time></trkpt><trkpt lat="43.9256129" lon="11.2769389"><ele>414.0</ele><time>2026-03-28T07:18:09.946Z</time></trkpt><trkpt lat="43.9256761" lon="11.2768857"><ele>414.0</ele><time>2026-03-28T07:18:10.952Z</time></trkpt><trkpt lat="43.9257398" lon="11.2768334"><ele>414.0</ele><time>2026-03-28T07:18:11.974Z</time></trkpt><trkpt lat="43.9258493" lon="11.276744"><ele>414.0</ele><time>2026-03-28T07:18:13.947Z</time></trkpt><trkpt lat="43.9259594" lon="11.2766674"><ele>414.0</ele><time>2026-03-28T07:18:15.948Z</time></trkpt><trkpt lat="43.9260194" lon="11.276622"><ele>414.0</ele><time>2026-03-28T07:18:16.948Z</time></trkpt><trkpt lat="43.9260811" lon="11.2765783"><ele>410.2</ele><time>2026-03-28T07:18:17.961Z</time></trkpt><trkpt lat="43.9261601" lon="11.2765082"><ele>406.4</ele><time>2026-03-28T07:18:19.952Z</time></trkpt><trkpt lat="43.9261762" lon="11.2763912"><ele>402.6</ele><time>2026-03-28T07:18:22.944Z</time></trkpt><trkpt lat="43.9261471" lon="11.2762873"><ele>398.8</ele><time>2026-03-28T07:18:24.946Z</time></trkpt><trkpt lat="43.9261142" lon="11.2761376"><ele>395.0</ele><time>2026-03-28T07:18:26.948Z</time></trkpt><trkpt lat="43.9260769" lon="11.2759771"><ele>394.0</ele><time>2026-03-28T07:18:28.958Z</time></trkpt><trkpt lat="43.9260561" lon="11.2758885"><ele>393.0</ele><time>2026-03-28T07:18:29.967Z</time></trkpt><trkpt lat="43.9260268" lon="11.2757376"><ele>392.0</ele><time>2026-03-28T07:18:31.955Z</time></trkpt><trkpt lat="43.9260161" lon="11.275614"><ele>391.0</ele><time>2026-03-28T07:18:33.939Z</time></trkpt><trkpt lat="43.9260277" lon="11.2754686"><ele>390.0</ele><time>2026-03-28T07:18:35.947Z</time></trkpt><trkpt lat="43.9260234" lon="11.2753266"><ele>390.0</ele><time>2026-03-28T07:18:37.951Z</time></trkpt><trkpt lat="43.9260555" lon="11.2751668"><ele>390.0</ele><time>2026-03-28T07:18:39.96Z</time></trkpt><trkpt lat="43.92608" lon="11.2750768"><ele>390.0</ele><time>2026-03-28T07:18:40.965Z</time></trkpt><trkpt lat="43.9261082" lon="11.2749883"><ele>390.0</ele><time>2026-03-28T07:18:41.967Z</time></trkpt><trkpt lat="43.9261529" lon="11.2748944"><ele>390.0</ele><time>2026-03-28T07:18:42.972Z</time></trkpt><trkpt lat="43.9261965" lon="11.2748034"><ele>390.0</ele><time>2026-03-28T07:18:43.968Z</time></trkpt><trkpt lat="43.9262411" lon="11.2747232"><ele>391.1666666666667</ele><time>2026-03-28T07:18:44.974Z</time></trkpt><trkpt lat="43.9262969" lon="11.2746427"><ele>392.33333333333337</ele><time>2026-03-28T07:18:46.033Z</time></trkpt><trkpt lat="43.9263454" lon="11.27457"><ele>393.5</ele><time>2026-03-28T07:18:46.948Z</time></trkpt><trkpt lat="43.926403" lon="11.2745042"><ele>394.6666666666667</ele><time>2026-03-28T07:18:48.027Z</time></trkpt><trkpt lat="43.9264546" lon="11.2744505"><ele>395.83333333333337</ele><time>2026-03-28T07:18:49.031Z</time></trkpt><trkpt lat="43.9265335" lon="11.274397"><ele>397.0</ele><time>2026-03-28T07:18:51.025Z</time></trkpt><trkpt lat="43.9266066" lon="11.2743441"><ele>397.00000000000006</ele><time>2026-03-28T07:18:53.966Z</time></trkpt><trkpt lat="43.9266397" lon="11.274256"><ele>397.0</ele><time>2026-03-28T07:18:56.994Z</time></trkpt><trkpt lat="43.9266697" lon="11.274154"><ele>397.0</ele><time>2026-03-28T07:18:58.989Z</time></trkpt><trkpt lat="43.9266891" lon="11.2740484"><ele>397.0</ele><time>2026-03-28T07:18:59.968Z</time></trkpt><trkpt lat="43.9267143" lon="11.273934"><ele>397.00000000000006</ele><time>2026-03-28T07:19:00.975Z</time></trkpt><trkpt lat="43.9267283" lon="11.2738282"><ele>397.0</ele><time>2026-03-28T07:19:01.975Z</time></trkpt><trkpt lat="43.9267471" lon="11.2737174"><ele>391.6</ele><time>2026-03-28T07:19:02.98Z</time></trkpt><trkpt lat="43.9267541" lon="11.2736219"><ele>386.20000000000005</ele><time>2026-03-28T07:19:03.978Z</time></trkpt><trkpt lat="43.926758" lon="11.2735284"><ele>380.8</ele><time>2026-03-28T07:19:04.976Z</time></trkpt><trkpt lat="43.9267765" lon="11.2733713"><ele>375.4</ele><time>2026-03-28T07:19:07.004Z</time></trkpt><trkpt lat="43.9268025" lon="11.2731995"><ele>370.0</ele><time>2026-03-28T07:19:08.977Z</time></trkpt><trkpt lat="43.9268255" lon="11.2730352"><ele>369.6</ele><time>2026-03-28T07:19:10.971Z</time></trkpt><trkpt lat="43.9268306" lon="11.2728725"><ele>369.2</ele><time>2026-03-28T07:19:12.973Z</time></trkpt><trkpt lat="43.926832" lon="11.2727776"><ele>368.79999999999995</ele><time>2026-03-28T07:19:13.98Z</time></trkpt><trkpt lat="43.9268396" lon="11.2726142"><ele>368.4</ele><time>2026-03-28T07:19:15.983Z</time></trkpt><trkpt lat="43.9268883" lon="11.2724524"><ele>368.0</ele><time>2026-03-28T07:19:17.976Z</time></trkpt><trkpt lat="43.9269218" lon="11.2723727"><ele>368.0</ele><time>2026-03-28T07:19:18.985Z</time></trkpt><trkpt lat="43.9269516" lon="11.2722817"><ele>368.0</ele><time>2026-03-28T07:19:19.974Z</time></trkpt><trkpt lat="43.9269885" lon="11.2721991"><ele>368.0</ele><time>2026-03-28T07:19:20.977Z</time></trkpt><trkpt lat="43.9270175" lon="11.2721193"><ele>368.0</ele><time>2026-03-28T07:19:21.976Z</time></trkpt><trkpt lat="43.9270684" lon="11.2719897"><ele>368.0</ele><time>2026-03-28T07:19:23.97Z</time></trkpt><trkpt lat="43.9271176" lon="11.27187"><ele>368.0</ele><time>2026-03-28T07:19:25.963Z</time></trkpt><trkpt lat="43.9271487" lon="11.2717442"><ele>368.83333333333337</ele><time>2026-03-28T07:19:27.988Z</time></trkpt><trkpt lat="43.9271942" lon="11.2716075"><ele>369.6666666666667</ele><time>2026-03-28T07:19:29.969Z</time></trkpt><trkpt lat="43.9272278" lon="11.2715159"><ele>370.5</ele><time>2026-03-28T07:19:30.974Z</time></trkpt><trkpt lat="43.9272558" lon="11.2714359"><ele>371.3333333333333</ele><time>2026-03-28T07:19:31.962Z</time></trkpt><trkpt lat="43.9272851" lon="11.2713485"><ele>372.16666666666663</ele><time>2026-03-28T07:19:32.974Z</time></trkpt><trkpt lat="43.9273574" lon="11.2712084"><ele>373.0</ele><time>2026-03-28T07:19:34.981Z</time></trkpt><trkpt lat="43.9274505" lon="11.2711426"><ele>375.66666666666663</ele><time>2026-03-28T07:19:36.978Z</time></trkpt><trkpt lat="43.9275719" lon="11.2711786"><ele>378.3333333333333</ele><time>2026-03-28T07:19:38.973Z</time></trkpt><trkpt lat="43.9276417" lon="11.2711965"><ele>381.0</ele><time>2026-03-28T07:19:39.985Z</time></trkpt><trkpt lat="43.927717" lon="11.2712092"><ele>383.66666666666663</ele><time>2026-03-28T07:19:40.975Z</time></trkpt><trkpt lat="43.9277932" lon="11.2712172"><ele>386.3333333333333</ele><time>2026-03-28T07:19:41.958Z</time></trkpt><trkpt lat="43.9278605" lon="11.2712242"><ele>389.0</ele><time>2026-03-28T07:19:42.95Z</time></trkpt><trkpt lat="43.9279243" lon="11.2712324"><ele>389.0</ele><time>2026-03-28T07:19:43.977Z</time></trkpt><trkpt lat="43.9280369" lon="11.2712314"><ele>389.0</ele><time>2026-03-28T07:19:45.969Z</time></trkpt><trkpt lat="43.9281472" lon="11.2711593"><ele>389.0</ele><time>2026-03-28T07:19:47.977Z</time></trkpt><trkpt lat="43.9282656" lon="11.2711328"><ele>389.0</ele><time>2026-03-28T07:19:49.957Z</time></trkpt><trkpt lat="43.9283348" lon="11.2711549"><ele>389.0</ele><time>2026-03-28T07:19:50.979Z</time></trkpt><trkpt lat="43.9284026" lon="11.271187"><ele>391.0</ele><time>2026-03-28T07:19:51.987Z</time></trkpt><trkpt lat="43.9284702" lon="11.2712288"><ele>393.0</ele><time>2026-03-28T07:19:52.988Z</time></trkpt><trkpt lat="43.9285466" lon="11.2712538"><ele>395.0</ele><time>2026-03-28T07:19:53.977Z</time></trkpt><trkpt lat="43.9286173" lon="11.2712813"><ele>397.0</ele><time>2026-03-28T07:19:54.97Z</time></trkpt><trkpt lat="43.9286808" lon="11.2713153"><ele>399.0</ele><time>2026-03-28T07:19:55.968Z</time></trkpt><trkpt lat="43.9287432" lon="11.271339"><ele>401.0</ele><time>2026-03-28T07:19:56.984Z</time></trkpt><trkpt lat="43.9288127" lon="11.2713619"><ele>403.0</ele><time>2026-03-28T07:19:57.986Z</time></trkpt><trkpt lat="43.9288807" lon="11.2713734"><ele>403.00000000000006</ele><time>2026-03-28T07:19:58.982Z</time></trkpt><trkpt lat="43.928948" lon="11.2713775"><ele>403.0</ele><time>2026-03-28T07:19:59.976Z</time></trkpt><trkpt lat="43.929012" lon="11.2713894"><ele>403.0</ele><time>2026-03-28T07:20:00.975Z</time></trkpt><trkpt lat="43.9291043" lon="11.2714637"><ele>403.0</ele><time>2026-03-28T07:20:02.975Z</time></trkpt><trkpt lat="43.9291572" lon="11.2715123"><ele>403.00000000000006</ele><time>2026-03-28T07:20:03.98Z</time></trkpt><trkpt lat="43.9292657" lon="11.2715751"><ele>403.0</ele><time>2026-03-28T07:20:05.979Z</time></trkpt><trkpt lat="43.929344" lon="11.2715839"><ele>403.1666666666667</ele><time>2026-03-28T07:20:07.98Z</time></trkpt><trkpt lat="43.9294251" lon="11.2715388"><ele>403.33333333333337</ele><time>2026-03-28T07:20:09.978Z</time></trkpt><trkpt lat="43.929508" lon="11.2714734"><ele>403.5</ele><time>2026-03-28T07:20:11.98Z</time></trkpt><trkpt lat="43.9295623" lon="11.2713967"><ele>403.66666666666663</ele><time>2026-03-28T07:20:13.971Z</time></trkpt><trkpt lat="43.9295589" lon="11.2712946"><ele>403.8333333333333</ele><time>2026-03-28T07:20:15.975Z</time></trkpt><trkpt lat="43.9295298" lon="11.2711696"><ele>404.0</ele><time>2026-03-28T07:20:17.979Z</time></trkpt><trkpt lat="43.9295043" lon="11.2710392"><ele>407.0</ele><time>2026-03-28T07:20:19.98Z</time></trkpt><trkpt lat="43.9294869" lon="11.2708962"><ele>410.0</ele><time>2026-03-28T07:20:21.975Z</time></trkpt><trkpt lat="43.9294477" lon="11.2707633"><ele>413.0</ele><time>2026-03-28T07:20:23.969Z</time></trkpt><trkpt lat="43.9294007" lon="11.2706436"><ele>416.0</ele><time>2026-03-28T07:20:25.984Z</time></trkpt><trkpt lat="43.9294065" lon="11.2705523"><ele>419.0</ele><time>2026-03-28T07:20:27.988Z</time></trkpt><trkpt lat="43.9294902" lon="11.2705889"><ele>418.99999999999994</ele><time>2026-03-28T07:20:30.977Z</time></trkpt><trkpt lat="43.929548" lon="11.2706259"><ele>419.0</ele><time>2026-03-28T07:20:31.978Z</time></trkpt><trkpt lat="43.9296126" lon="11.27066"><ele>419.0</ele><time>2026-03-28T07:20:32.976Z</time></trkpt><trkpt lat="43.9297293" lon="11.2707222"><ele>419.0</ele><time>2026-03-28T07:20:34.97Z</time></trkpt><trkpt lat="43.9297903" lon="11.2707647"><ele>418.99999999999994</ele><time>2026-03-28T07:20:35.976Z</time></trkpt><trkpt lat="43.9298601" lon="11.2707966"><ele>419.0</ele><time>2026-03-28T07:20:36.963Z</time></trkpt><trkpt lat="43.9299351" lon="11.2708181"><ele>418.99999999999994</ele><time>2026-03-28T07:20:37.981Z</time></trkpt><trkpt lat="43.9300148" lon="11.270831"><ele>419.0</ele><time>2026-03-28T07:20:38.975Z</time></trkpt><trkpt lat="43.9300957" lon="11.2708359"><ele>419.0</ele><time>2026-03-28T07:20:39.979Z</time></trkpt><trkpt lat="43.9301796" lon="11.2708396"><ele>419.0</ele><time>2026-03-28T07:20:40.985Z</time></trkpt><trkpt lat="43.9302555" lon="11.2708356"><ele>418.99999999999994</ele><time>2026-03-28T07:20:41.989Z</time></trkpt><trkpt lat="43.9303793" lon="11.2708035"><ele>419.0</ele><time>2026-03-28T07:20:43.983Z</time></trkpt><trkpt lat="43.9304365" lon="11.2707662"><ele>419.3333333333333</ele><time>2026-03-28T07:20:44.983Z</time></trkpt><trkpt lat="43.9305182" lon="11.2706839"><ele>419.66666666666663</ele><time>2026-03-28T07:20:46.983Z</time></trkpt><trkpt lat="43.93058" lon="11.2705782"><ele>420.0</ele><time>2026-03-28T07:20:48.99Z</time></trkpt><trkpt lat="43.9306045" lon="11.2704803"><ele>420.33333333333337</ele><time>2026-03-28T07:20:50.992Z</time></trkpt><trkpt lat="43.9305725" lon="11.2704013"><ele>420.6666666666667</ele><time>2026-03-28T07:20:52.974Z</time></trkpt><trkpt lat="43.9304731" lon="11.2703871"><ele>421.0</ele><time>2026-03-28T07:20:54.979Z</time></trkpt><trkpt lat="43.930386" lon="11.2703454"><ele>421.00000000000006</ele><time>2026-03-28T07:20:56.984Z</time></trkpt><trkpt lat="43.9303482" lon="11.2702374"><ele>421.0</ele><time>2026-03-28T07:20:58.978Z</time></trkpt><trkpt lat="43.9303252" lon="11.2701037"><ele>421.0</ele><time>2026-03-28T07:21:00.969Z</time></trkpt><trkpt lat="43.930276" lon="11.2699568"><ele>421.0</ele><time>2026-03-28T07:21:02.982Z</time></trkpt><trkpt lat="43.9302373" lon="11.269875"><ele>421.00000000000006</ele><time>2026-03-28T07:21:03.975Z</time></trkpt><trkpt lat="43.9301925" lon="11.269795"><ele>421.0</ele><time>2026-03-28T07:21:04.956Z</time></trkpt><trkpt lat="43.9301454" lon="11.2697131"><ele>419.7142857142857</ele><time>2026-03-28T07:21:05.977Z</time></trkpt><trkpt lat="43.9300915" lon="11.269638"><ele>418.42857142857144</ele><time>2026-03-28T07:21:06.986Z</time></trkpt><trkpt lat="43.9300389" lon="11.2695697"><ele>417.1428571428571</ele><time>2026-03-28T07:21:07.981Z</time></trkpt><trkpt lat="43.929987" lon="11.2695028"><ele>415.8571428571429</ele><time>2026-03-28T07:21:08.964Z</time></trkpt><trkpt lat="43.929936" lon="11.2694298"><ele>414.57142857142856</ele><time>2026-03-28T07:21:09.997Z</time></trkpt><trkpt lat="43.9298873" lon="11.2693692"><ele>413.2857142857143</ele><time>2026-03-28T07:21:10.984Z</time></trkpt><trkpt lat="43.9298374" lon="11.2693034"><ele>412.0</ele><time>2026-03-28T07:21:11.987Z</time></trkpt><trkpt lat="43.929775" lon="11.2692355"><ele>415.71428571428567</ele><time>2026-03-28T07:21:12.984Z</time></trkpt><trkpt lat="43.9297164" lon="11.269171"><ele>419.42857142857144</ele><time>2026-03-28T07:21:13.991Z</time></trkpt><trkpt lat="43.9296479" lon="11.2691263"><ele>423.1428571428571</ele><time>2026-03-28T07:21:14.979Z</time></trkpt><trkpt lat="43.9295735" lon="11.2691029"><ele>426.85714285714283</ele><time>2026-03-28T07:21:15.979Z</time></trkpt><trkpt lat="43.9294998" lon="11.2690825"><ele>430.57142857142856</ele><time>2026-03-28T07:21:16.989Z</time></trkpt><trkpt lat="43.9294354" lon="11.2690715"><ele>434.2857142857143</ele><time>2026-03-28T07:21:17.961Z</time></trkpt><trkpt lat="43.929369" lon="11.2690302"><ele>438.0</ele><time>2026-03-28T07:21:18.997Z</time></trkpt><trkpt lat="43.9293145" lon="11.2689737"><ele>438.1666666666667</ele><time>2026-03-28T07:21:19.962Z</time></trkpt><trkpt lat="43.9292747" lon="11.2688914"><ele>438.33333333333337</ele><time>2026-03-28T07:21:20.972Z</time></trkpt><trkpt lat="43.9292321" lon="11.2688066"><ele>438.5</ele><time>2026-03-28T07:21:21.982Z</time></trkpt><trkpt lat="43.9291882" lon="11.2687033"><ele>438.6666666666667</ele><time>2026-03-28T07:21:22.987Z</time></trkpt><trkpt lat="43.9291306" lon="11.2686046"><ele>438.83333333333337</ele><time>2026-03-28T07:21:23.98Z</time></trkpt><trkpt lat="43.9290772" lon="11.268502"><ele>439.0</ele><time>2026-03-28T07:21:24.969Z</time></trkpt><trkpt lat="43.9290242" lon="11.268405"><ele>440.42857142857144</ele><time>2026-03-28T07:21:25.977Z</time></trkpt><trkpt lat="43.9289751" lon="11.2683264"><ele>441.85714285714283</ele><time>2026-03-28T07:21:26.981Z</time></trkpt><trkpt lat="43.9289294" lon="11.2682426"><ele>443.2857142857143</ele><time>2026-03-28T07:21:27.973Z</time></trkpt><trkpt lat="43.9288899" lon="11.2681491"><ele>444.71428571428567</ele><time>2026-03-28T07:21:28.983Z</time></trkpt><trkpt lat="43.9288677" lon="11.2680575"><ele>446.1428571428571</ele><time>2026-03-28T07:21:29.981Z</time></trkpt><trkpt lat="43.9288582" lon="11.2679617"><ele>447.57142857142856</ele><time>2026-03-28T07:21:30.981Z</time></trkpt><trkpt lat="43.9288521" lon="11.2678596"><ele>449.0</ele><time>2026-03-28T07:21:31.981Z</time></trkpt><trkpt lat="43.928852" lon="11.2677701"><ele>449.66666666666663</ele><time>2026-03-28T07:21:32.99Z</time></trkpt><trkpt lat="43.9288539" lon="11.2676736"><ele>450.3333333333333</ele><time>2026-03-28T07:21:33.974Z</time></trkpt><trkpt lat="43.9288572" lon="11.2675756"><ele>451.0</ele><time>2026-03-28T07:21:34.98Z</time></trkpt><trkpt lat="43.9288584" lon="11.26748"><ele>451.66666666666663</ele><time>2026-03-28T07:21:35.972Z</time></trkpt><trkpt lat="43.9288504" lon="11.2672879"><ele>452.3333333333333</ele><time>2026-03-28T07:21:37.989Z</time></trkpt><trkpt lat="43.9288492" lon="11.2671983"><ele>453.0</ele><time>2026-03-28T07:21:38.987Z</time></trkpt><trkpt lat="43.9288783" lon="11.2670335"><ele>453.8571428571428</ele><time>2026-03-28T07:21:40.963Z</time></trkpt><trkpt lat="43.9289205" lon="11.2669526"><ele>454.71428571428567</ele><time>2026-03-28T07:21:41.969Z</time></trkpt><trkpt lat="43.9289653" lon="11.2668812"><ele>455.57142857142856</ele><time>2026-03-28T07:21:42.988Z</time></trkpt><trkpt lat="43.9290144" lon="11.266819"><ele>456.4285714285714</ele><time>2026-03-28T07:21:43.978Z</time></trkpt><trkpt lat="43.9290592" lon="11.2667519"><ele>457.2857142857142</ele><time>2026-03-28T07:21:44.979Z</time></trkpt><trkpt lat="43.9291105" lon="11.2666693"><ele>458.14285714285717</ele><time>2026-03-28T07:21:45.985Z</time></trkpt><trkpt lat="43.9291564" lon="11.2666017"><ele>459.0</ele><time>2026-03-28T07:21:46.967Z</time></trkpt><trkpt lat="43.9292425" lon="11.2665006"><ele>457.6</ele><time>2026-03-28T07:21:48.979Z</time></trkpt><trkpt lat="43.9293353" lon="11.2664165"><ele>456.2</ele><time>2026-03-28T07:21:50.986Z</time></trkpt><trkpt lat="43.9294224" lon="11.2663152"><ele>454.80000000000007</ele><time>2026-03-28T07:21:52.979Z</time></trkpt><trkpt lat="43.9294647" lon="11.2662299"><ele>453.40000000000003</ele><time>2026-03-28T07:21:54.976Z</time></trkpt><trkpt lat="43.929485" lon="11.2660834"><ele>452.0</ele><time>2026-03-28T07:21:56.981Z</time></trkpt><trkpt lat="43.9294954" lon="11.2659951"><ele>451.99999999999994</ele><time>2026-03-28T07:21:57.975Z</time></trkpt><trkpt lat="43.9295014" lon="11.2658957"><ele>452.0</ele><time>2026-03-28T07:21:58.974Z</time></trkpt><trkpt lat="43.9295097" lon="11.2657878"><ele>452.0</ele><time>2026-03-28T07:21:59.995Z</time></trkpt><trkpt lat="43.9295185" lon="11.2656774"><ele>452.0</ele><time>2026-03-28T07:22:00.987Z</time></trkpt><trkpt lat="43.9295293" lon="11.2655766"><ele>451.99999999999994</ele><time>2026-03-28T07:22:01.993Z</time></trkpt><trkpt lat="43.9295302" lon="11.265472"><ele>452.0</ele><time>2026-03-28T07:22:02.981Z</time></trkpt><trkpt lat="43.9295103" lon="11.265377"><ele>450.5714285714286</ele><time>2026-03-28T07:22:03.979Z</time></trkpt><trkpt lat="43.929477" lon="11.2652803"><ele>449.1428571428571</ele><time>2026-03-28T07:22:04.981Z</time></trkpt><trkpt lat="43.9294461" lon="11.2651955"><ele>447.7142857142857</ele><time>2026-03-28T07:22:05.989Z</time></trkpt><trkpt lat="43.929421" lon="11.2651076"><ele>446.28571428571433</ele><time>2026-03-28T07:22:06.992Z</time></trkpt><trkpt lat="43.9293884" lon="11.2650087"><ele>444.8571428571429</ele><time>2026-03-28T07:22:07.98Z</time></trkpt><trkpt lat="43.9293644" lon="11.2649052"><ele>443.42857142857144</ele><time>2026-03-28T07:22:08.976Z</time></trkpt><trkpt lat="43.9293332" lon="11.2648057"><ele>442.0</ele><time>2026-03-28T07:22:09.98Z</time></trkpt><trkpt lat="43.9293006" lon="11.2647023"><ele>441.7142857142857</ele><time>2026-03-28T07:22:10.979Z</time></trkpt><trkpt lat="43.9292726" lon="11.2646003"><ele>441.42857142857144</ele><time>2026-03-28T07:22:11.976Z</time></trkpt><trkpt lat="43.9292613" lon="11.2645038"><ele>441.1428571428571</ele><time>2026-03-28T07:22:12.977Z</time></trkpt><trkpt lat="43.9292704" lon="11.2643974"><ele>440.8571428571429</ele><time>2026-03-28T07:22:13.984Z</time></trkpt><trkpt lat="43.9292921" lon="11.2643109"><ele>440.57142857142856</ele><time>2026-03-28T07:22:14.976Z</time></trkpt><trkpt lat="43.9293348" lon="11.2642303"><ele>440.2857142857143</ele><time>2026-03-28T07:22:15.982Z</time></trkpt><trkpt lat="43.9293991" lon="11.2641723"><ele>440.0</ele><time>2026-03-28T07:22:16.976Z</time></trkpt><trkpt lat="43.9294568" lon="11.264102"><ele>439.99999999999994</ele><time>2026-03-28T07:22:17.981Z</time></trkpt><trkpt lat="43.9295147" lon="11.2640264"><ele>440.0</ele><time>2026-03-28T07:22:18.991Z</time></trkpt><trkpt lat="43.9295583" lon="11.2639493"><ele>440.0</ele><time>2026-03-28T07:22:19.979Z</time></trkpt><trkpt lat="43.9295876" lon="11.2638509"><ele>440.0</ele><time>2026-03-28T07:22:20.977Z</time></trkpt><trkpt lat="43.9296174" lon="11.2637576"><ele>440.0</ele><time>2026-03-28T07:22:21.981Z</time></trkpt><trkpt lat="43.9296367" lon="11.2636638"><ele>439.99999999999994</ele><time>2026-03-28T07:22:22.958Z</time></trkpt><trkpt lat="43.9296423" lon="11.2635736"><ele>440.0</ele><time>2026-03-28T07:22:23.982Z</time></trkpt><trkpt lat="43.9296587" lon="11.2634796"><ele>441.66666666666663</ele><time>2026-03-28T07:22:24.976Z</time></trkpt><trkpt lat="43.9296942" lon="11.2633807"><ele>443.3333333333333</ele><time>2026-03-28T07:22:25.973Z</time></trkpt><trkpt lat="43.9297487" lon="11.2632896"><ele>445.0</ele><time>2026-03-28T07:22:26.98Z</time></trkpt><trkpt lat="43.9298043" lon="11.2632101"><ele>446.66666666666663</ele><time>2026-03-28T07:22:27.977Z</time></trkpt><trkpt lat="43.9298701" lon="11.2631402"><ele>448.3333333333333</ele><time>2026-03-28T07:22:28.968Z</time></trkpt><trkpt lat="43.9299325" lon="11.2630818"><ele>450.0</ele><time>2026-03-28T07:22:29.985Z</time></trkpt><trkpt lat="43.9300011" lon="11.2630199"><ele>448.0</ele><time>2026-03-28T07:22:30.979Z</time></trkpt><trkpt lat="43.9300696" lon="11.2629595"><ele>446.0</ele><time>2026-03-28T07:22:31.98Z</time></trkpt><trkpt lat="43.9301378" lon="11.2628894"><ele>444.0</ele><time>2026-03-28T07:22:32.976Z</time></trkpt><trkpt lat="43.9302099" lon="11.262816"><ele>442.0</ele><time>2026-03-28T07:22:33.984Z</time></trkpt><trkpt lat="43.930278" lon="11.2627592"><ele>440.0</ele><time>2026-03-28T07:22:34.965Z</time></trkpt><trkpt lat="43.9303485" lon="11.2627036"><ele>438.0</ele><time>2026-03-28T07:22:35.969Z</time></trkpt><trkpt lat="43.9304161" lon="11.2626468"><ele>438.0</ele><time>2026-03-28T07:22:36.983Z</time></trkpt><trkpt lat="43.9304816" lon="11.2625955"><ele>438.0</ele><time>2026-03-28T07:22:37.976Z</time></trkpt><trkpt lat="43.9305416" lon="11.2625516"><ele>438.0</ele><time>2026-03-28T07:22:38.978Z</time></trkpt><trkpt lat="43.9305964" lon="11.2625059"><ele>438.0</ele><time>2026-03-28T07:22:39.975Z</time></trkpt><trkpt lat="43.9306496" lon="11.2624591"><ele>438.0</ele><time>2026-03-28T07:22:40.985Z</time></trkpt><trkpt lat="43.9307075" lon="11.2624072"><ele>438.0</ele><time>2026-03-28T07:22:41.97Z</time></trkpt><trkpt lat="43.930771" lon="11.2623587"><ele>438.0</ele><time>2026-03-28T07:22:42.972Z</time></trkpt><trkpt lat="43.9308801" lon="11.2622817"><ele>437.0</ele><time>2026-03-28T07:22:44.995Z</time></trkpt><trkpt lat="43.9309688" lon="11.2622467"><ele>435.99999999999994</ele><time>2026-03-28T07:22:46.98Z</time></trkpt><trkpt lat="43.9310765" lon="11.2621844"><ele>434.99999999999994</ele><time>2026-03-28T07:22:48.973Z</time></trkpt><trkpt lat="43.9311441" lon="11.2621384"><ele>434.0</ele><time>2026-03-28T07:22:49.986Z</time></trkpt><trkpt lat="43.9312172" lon="11.2620525"><ele>433.0</ele><time>2026-03-28T07:22:50.989Z</time></trkpt><trkpt lat="43.9312883" lon="11.2619542"><ele>433.00000000000006</ele><time>2026-03-28T07:22:51.973Z</time></trkpt><trkpt lat="43.9313583" lon="11.26186"><ele>433.0</ele><time>2026-03-28T07:22:52.983Z</time></trkpt><trkpt lat="43.9314232" lon="11.2617846"><ele>433.0</ele><time>2026-03-28T07:22:53.989Z</time></trkpt><trkpt lat="43.9314954" lon="11.2616987"><ele>433.0</ele><time>2026-03-28T07:22:54.981Z</time></trkpt><trkpt lat="43.9315516" lon="11.2616106"><ele>433.00000000000006</ele><time>2026-03-28T07:22:55.984Z</time></trkpt><trkpt lat="43.9316022" lon="11.261527"><ele>433.0</ele><time>2026-03-28T07:22:56.981Z</time></trkpt><trkpt lat="43.9316551" lon="11.2614383"><ele>434.1428571428571</ele><time>2026-03-28T07:22:57.983Z</time></trkpt><trkpt lat="43.9316955" lon="11.261355"><ele>435.2857142857143</ele><time>2026-03-28T07:22:58.991Z</time></trkpt><trkpt lat="43.9317368" lon="11.2612675"><ele>436.42857142857144</ele><time>2026-03-28T07:22:59.983Z</time></trkpt><trkpt lat="43.9317755" lon="11.2611743"><ele>437.57142857142856</ele><time>2026-03-28T07:23:00.993Z</time></trkpt><trkpt lat="43.9318044" lon="11.2610833"><ele>438.7142857142857</ele><time>2026-03-28T07:23:01.966Z</time></trkpt><trkpt lat="43.9318257" lon="11.2609818"><ele>439.85714285714283</ele><time>2026-03-28T07:23:02.955Z</time></trkpt><trkpt lat="43.9318465" lon="11.260882"><ele>441.0</ele><time>2026-03-28T07:23:03.982Z</time></trkpt><trkpt lat="43.9318586" lon="11.2607826"><ele>439.6666666666667</ele><time>2026-03-28T07:23:04.979Z</time></trkpt><trkpt lat="43.9318571" lon="11.260684"><ele>438.33333333333337</ele><time>2026-03-28T07:23:05.985Z</time></trkpt><trkpt lat="43.9318303" lon="11.2605962"><ele>437.0</ele><time>2026-03-28T07:23:06.982Z</time></trkpt><trkpt lat="43.9317759" lon="11.2604328"><ele>435.6666666666667</ele><time>2026-03-28T07:23:08.982Z</time></trkpt><trkpt lat="43.9317447" lon="11.2603448"><ele>434.33333333333337</ele><time>2026-03-28T07:23:09.973Z</time></trkpt><trkpt lat="43.9317216" lon="11.2602587"><ele>433.0</ele><time>2026-03-28T07:23:10.974Z</time></trkpt><trkpt lat="43.931698" lon="11.2601693"><ele>432.99999999999994</ele><time>2026-03-28T07:23:11.98Z</time></trkpt><trkpt lat="43.9316787" lon="11.2600745"><ele>433.0</ele><time>2026-03-28T07:23:12.978Z</time></trkpt><trkpt lat="43.9316518" lon="11.2599856"><ele>433.0</ele><time>2026-03-28T07:23:13.981Z</time></trkpt><trkpt lat="43.931629" lon="11.2598963"><ele>433.0</ele><time>2026-03-28T07:23:14.984Z</time></trkpt><trkpt lat="43.9316098" lon="11.2598064"><ele>433.0</ele><time>2026-03-28T07:23:15.984Z</time></trkpt><trkpt lat="43.93159" lon="11.2597128"><ele>432.99999999999994</ele><time>2026-03-28T07:23:16.977Z</time></trkpt><trkpt lat="43.9315778" lon="11.2596166"><ele>433.0</ele><time>2026-03-28T07:23:17.984Z</time></trkpt><trkpt lat="43.9315663" lon="11.2595234"><ele>432.50000000000006</ele><time>2026-03-28T07:23:18.983Z</time></trkpt><trkpt lat="43.9315492" lon="11.2594306"><ele>432.0</ele><time>2026-03-28T07:23:19.979Z</time></trkpt><trkpt lat="43.9315254" lon="11.2593401"><ele>431.5</ele><time>2026-03-28T07:23:20.975Z</time></trkpt><trkpt lat="43.9315021" lon="11.2591499"><ele>431.0</ele><time>2026-03-28T07:23:22.986Z</time></trkpt><trkpt lat="43.9315026" lon="11.2590393"><ele>430.50000000000006</ele><time>2026-03-28T07:23:23.979Z</time></trkpt><trkpt lat="43.931507" lon="11.2589347"><ele>430.0</ele><time>2026-03-28T07:23:24.982Z</time></trkpt><trkpt lat="43.9315047" lon="11.2588298"><ele>430.00000000000006</ele><time>2026-03-28T07:23:25.983Z</time></trkpt><trkpt lat="43.9315207" lon="11.2587282"><ele>430.0</ele><time>2026-03-28T07:23:26.988Z</time></trkpt><trkpt lat="43.9315399" lon="11.2586207"><ele>430.0</ele><time>2026-03-28T07:23:27.984Z</time></trkpt><trkpt lat="43.9315532" lon="11.2585257"><ele>430.0</ele><time>2026-03-28T07:23:28.98Z</time></trkpt><trkpt lat="43.9315732" lon="11.2584273"><ele>430.00000000000006</ele><time>2026-03-28T07:23:29.981Z</time></trkpt><trkpt lat="43.9316113" lon="11.2583248"><ele>430.0</ele><time>2026-03-28T07:23:30.973Z</time></trkpt><trkpt lat="43.9316609" lon="11.2582451"><ele>430.00000000000006</ele><time>2026-03-28T07:23:31.977Z</time></trkpt><trkpt lat="43.9317231" lon="11.2581748"><ele>430.0</ele><time>2026-03-28T07:23:32.972Z</time></trkpt><trkpt lat="43.9317874" lon="11.2580944"><ele>430.0</ele><time>2026-03-28T07:23:33.977Z</time></trkpt><trkpt lat="43.9318437" lon="11.2580195"><ele>430.0</ele><time>2026-03-28T07:23:34.978Z</time></trkpt><trkpt lat="43.9318989" lon="11.2579274"><ele>430.00000000000006</ele><time>2026-03-28T07:23:35.974Z</time></trkpt><trkpt lat="43.9319607" lon="11.2578301"><ele>430.0</ele><time>2026-03-28T07:23:36.98Z</time></trkpt><trkpt lat="43.9320258" lon="11.2577362"><ele>426.1666666666667</ele><time>2026-03-28T07:23:37.981Z</time></trkpt><trkpt lat="43.9320918" lon="11.2576524"><ele>422.33333333333337</ele><time>2026-03-28T07:23:38.978Z</time></trkpt><trkpt lat="43.9321586" lon="11.2575631"><ele>418.5</ele><time>2026-03-28T07:23:39.983Z</time></trkpt><trkpt lat="43.9322126" lon="11.2574767"><ele>414.66666666666663</ele><time>2026-03-28T07:23:40.978Z</time></trkpt><trkpt lat="43.9322612" lon="11.2573893"><ele>410.8333333333333</ele><time>2026-03-28T07:23:41.978Z</time></trkpt><trkpt lat="43.9323157" lon="11.2573001"><ele>407.0</ele><time>2026-03-28T07:23:42.976Z</time></trkpt><trkpt lat="43.9323631" lon="11.257211"><ele>406.99999999999994</ele><time>2026-03-28T07:23:43.975Z</time></trkpt><trkpt lat="43.9324037" lon="11.2571177"><ele>407.0</ele><time>2026-03-28T07:23:44.969Z</time></trkpt><trkpt lat="43.9324395" lon="11.2570243"><ele>407.0</ele><time>2026-03-28T07:23:45.958Z</time></trkpt><trkpt lat="43.9324852" lon="11.2569393"><ele>407.0</ele><time>2026-03-28T07:23:46.971Z</time></trkpt><trkpt lat="43.9325265" lon="11.2568531"><ele>406.99999999999994</ele><time>2026-03-28T07:23:47.977Z</time></trkpt><trkpt lat="43.9325719" lon="11.2567674"><ele>407.0</ele><time>2026-03-28T07:23:48.981Z</time></trkpt><trkpt lat="43.9326133" lon="11.2566927"><ele>402.16666666666663</ele><time>2026-03-28T07:23:49.979Z</time></trkpt><trkpt lat="43.9326552" lon="11.2566142"><ele>397.3333333333333</ele><time>2026-03-28T07:23:50.974Z</time></trkpt><trkpt lat="43.9327022" lon="11.2565356"><ele>392.5</ele><time>2026-03-28T07:23:51.987Z</time></trkpt><trkpt lat="43.9327513" lon="11.2564655"><ele>387.66666666666663</ele><time>2026-03-28T07:23:52.978Z</time></trkpt><trkpt lat="43.9327927" lon="11.2563897"><ele>382.8333333333333</ele><time>2026-03-28T07:23:53.991Z</time></trkpt><trkpt lat="43.9328284" lon="11.2563132"><ele>378.0</ele><time>2026-03-28T07:23:54.983Z</time></trkpt><trkpt lat="43.9328381" lon="11.2561537"><ele>375.5</ele><time>2026-03-28T07:23:56.981Z</time></trkpt><trkpt lat="43.9328248" lon="11.2560513"><ele>373.0</ele><time>2026-03-28T07:23:57.978Z</time></trkpt><trkpt lat="43.9327995" lon="11.2559553"><ele>370.5</ele><time>2026-03-28T07:23:58.985Z</time></trkpt><trkpt lat="43.9327644" lon="11.2558572"><ele>368.0</ele><time>2026-03-28T07:23:59.978Z</time></trkpt><trkpt lat="43.9327235" lon="11.2557572"><ele>365.5</ele><time>2026-03-28T07:24:00.982Z</time></trkpt><trkpt lat="43.9326867" lon="11.255645"><ele>363.0</ele><time>2026-03-28T07:24:01.98Z</time></trkpt><trkpt lat="43.93265" lon="11.2555248"><ele>362.1666666666667</ele><time>2026-03-28T07:24:02.985Z</time></trkpt><trkpt lat="43.9326152" lon="11.2554049"><ele>361.3333333333333</ele><time>2026-03-28T07:24:03.985Z</time></trkpt><trkpt lat="43.9325772" lon="11.2552856"><ele>360.5</ele><time>2026-03-28T07:24:04.979Z</time></trkpt><trkpt lat="43.9325367" lon="11.2551793"><ele>359.66666666666663</ele><time>2026-03-28T07:24:05.978Z</time></trkpt><trkpt lat="43.9324965" lon="11.2550715"><ele>358.8333333333333</ele><time>2026-03-28T07:24:06.982Z</time></trkpt><trkpt lat="43.9324576" lon="11.2549629"><ele>358.0</ele><time>2026-03-28T07:24:07.982Z</time></trkpt><trkpt lat="43.9324247" lon="11.2548623"><ele>360.5714285714286</ele><time>2026-03-28T07:24:08.982Z</time></trkpt><trkpt lat="43.9324013" lon="11.2547596"><ele>363.14285714285717</ele><time>2026-03-28T07:24:09.972Z</time></trkpt><trkpt lat="43.932378" lon="11.254649"><ele>365.7142857142857</ele><time>2026-03-28T07:24:10.978Z</time></trkpt><trkpt lat="43.9323657" lon="11.254536"><ele>368.28571428571433</ele><time>2026-03-28T07:24:11.978Z</time></trkpt><trkpt lat="43.932368" lon="11.254441"><ele>370.85714285714283</ele><time>2026-03-28T07:24:12.986Z</time></trkpt><trkpt lat="43.9323573" lon="11.2543495"><ele>373.42857142857144</ele><time>2026-03-28T07:24:13.975Z</time></trkpt><trkpt lat="43.93234" lon="11.2542565"><ele>376.0</ele><time>2026-03-28T07:24:14.979Z</time></trkpt><trkpt lat="43.9323199" lon="11.2541676"><ele>376.0</ele><time>2026-03-28T07:24:15.977Z</time></trkpt><trkpt lat="43.9322815" lon="11.2540118"><ele>376.0</ele><time>2026-03-28T07:24:17.977Z</time></trkpt><trkpt lat="43.9322594" lon="11.2538438"><ele>376.0</ele><time>2026-03-28T07:24:19.984Z</time></trkpt><trkpt lat="43.932239" lon="11.2537467"><ele>376.0</ele><time>2026-03-28T07:24:20.985Z</time></trkpt><trkpt lat="43.9322075" lon="11.253663"><ele>376.0</ele><time>2026-03-28T07:24:21.98Z</time></trkpt><trkpt lat="43.9321624" lon="11.2535828"><ele>374.4</ele><time>2026-03-28T07:24:22.965Z</time></trkpt><trkpt lat="43.9321128" lon="11.2535056"><ele>372.8</ele><time>2026-03-28T07:24:23.98Z</time></trkpt><trkpt lat="43.9320673" lon="11.2534388"><ele>371.2</ele><time>2026-03-28T07:24:24.982Z</time></trkpt><trkpt lat="43.9320033" lon="11.253303"><ele>369.59999999999997</ele><time>2026-03-28T07:24:26.977Z</time></trkpt><trkpt lat="43.9319319" lon="11.2531593"><ele>368.0</ele><time>2026-03-28T07:24:28.985Z</time></trkpt><trkpt lat="43.9318891" lon="11.2530769"><ele>367.5</ele><time>2026-03-28T07:24:29.995Z</time></trkpt><trkpt lat="43.9318424" lon="11.2529914"><ele>367.0</ele><time>2026-03-28T07:24:30.982Z</time></trkpt><trkpt lat="43.9317908" lon="11.2529068"><ele>366.5</ele><time>2026-03-28T07:24:31.979Z</time></trkpt><trkpt lat="43.9317393" lon="11.2528131"><ele>366.0</ele><time>2026-03-28T07:24:32.976Z</time></trkpt><trkpt lat="43.9316903" lon="11.2527167"><ele>365.5</ele><time>2026-03-28T07:24:33.984Z</time></trkpt><trkpt lat="43.9316515" lon="11.2526211"><ele>365.0</ele><time>2026-03-28T07:24:34.983Z</time></trkpt><trkpt lat="43.931609" lon="11.2525281"><ele>366.6</ele><time>2026-03-28T07:24:35.962Z</time></trkpt><trkpt lat="43.9315797" lon="11.2524322"><ele>368.2</ele><time>2026-03-28T07:24:36.978Z</time></trkpt><trkpt lat="43.9315548" lon="11.2523364"><ele>369.79999999999995</ele><time>2026-03-28T07:24:37.966Z</time></trkpt><trkpt lat="43.9315169" lon="11.2521991"><ele>371.4</ele><time>2026-03-28T07:24:39.981Z</time></trkpt><trkpt lat="43.9314785" lon="11.2520558"><ele>373.0</ele><time>2026-03-28T07:24:41.97Z</time></trkpt><trkpt lat="43.9314347" lon="11.2518905"><ele>373.0</ele><time>2026-03-28T07:24:43.977Z</time></trkpt><trkpt lat="43.9314181" lon="11.251806"><ele>373.0</ele><time>2026-03-28T07:24:44.98Z</time></trkpt><trkpt lat="43.9313966" lon="11.2517097"><ele>373.0</ele><time>2026-03-28T07:24:45.971Z</time></trkpt><trkpt lat="43.9313467" lon="11.2515175"><ele>373.0</ele><time>2026-03-28T07:24:47.968Z</time></trkpt><trkpt lat="43.931313" lon="11.251404"><ele>373.0</ele><time>2026-03-28T07:24:48.969Z</time></trkpt><trkpt lat="43.9312976" lon="11.2512729"><ele>376.0</ele><time>2026-03-28T07:24:49.976Z</time></trkpt><trkpt lat="43.9312892" lon="11.2511604"><ele>379.0</ele><time>2026-03-28T07:24:50.977Z</time></trkpt><trkpt lat="43.9312804" lon="11.2510549"><ele>382.0</ele><time>2026-03-28T07:24:51.981Z</time></trkpt><trkpt lat="43.9312762" lon="11.2509641"><ele>385.0</ele><time>2026-03-28T07:24:53.983Z</time></trkpt><trkpt lat="43.9312718" lon="11.2508309"><ele>388.00000000000006</ele><time>2026-03-28T07:25:05.976Z</time></trkpt><trkpt lat="43.9312591" lon="11.2507275"><ele>391.0</ele><time>2026-03-28T07:25:07.984Z</time></trkpt><trkpt lat="43.9312339" lon="11.2506137"><ele>395.4</ele><time>2026-03-28T07:25:09.975Z</time></trkpt><trkpt lat="43.9311998" lon="11.2505242"><ele>399.8</ele><time>2026-03-28T07:25:11.978Z</time></trkpt><trkpt lat="43.9311761" lon="11.2504181"><ele>404.2</ele><time>2026-03-28T07:25:13.977Z</time></trkpt><trkpt lat="43.9311455" lon="11.2502835"><ele>408.59999999999997</ele><time>2026-03-28T07:25:15.957Z</time></trkpt><trkpt lat="43.9311234" lon="11.2501171"><ele>413.0</ele><time>2026-03-28T07:25:17.98Z</time></trkpt><trkpt lat="43.9311276" lon="11.2499526"><ele>413.59999999999997</ele><time>2026-03-28T07:25:19.975Z</time></trkpt><trkpt lat="43.9311396" lon="11.2497894"><ele>414.2</ele><time>2026-03-28T07:25:21.971Z</time></trkpt><trkpt lat="43.9311579" lon="11.2496206"><ele>414.8</ele><time>2026-03-28T07:25:23.975Z</time></trkpt><trkpt lat="43.9311795" lon="11.2494538"><ele>415.4</ele><time>2026-03-28T07:25:25.97Z</time></trkpt><trkpt lat="43.931205" lon="11.2493677"><ele>416.0</ele><time>2026-03-28T07:25:26.972Z</time></trkpt><trkpt lat="43.9312351" lon="11.2492821"><ele>415.99999999999994</ele><time>2026-03-28T07:25:27.972Z</time></trkpt><trkpt lat="43.9312619" lon="11.2492012"><ele>416.0</ele><time>2026-03-28T07:25:28.979Z</time></trkpt><trkpt lat="43.931283" lon="11.2491042"><ele>416.0</ele><time>2026-03-28T07:25:29.978Z</time></trkpt><trkpt lat="43.9313012" lon="11.2490141"><ele>416.0</ele><time>2026-03-28T07:25:30.98Z</time></trkpt><trkpt lat="43.9313312" lon="11.2488437"><ele>415.99999999999994</ele><time>2026-03-28T07:25:32.976Z</time></trkpt><trkpt lat="43.9313444" lon="11.2487561"><ele>416.0</ele><time>2026-03-28T07:25:33.981Z</time></trkpt><trkpt lat="43.9313543" lon="11.2486011"><ele>415.6</ele><time>2026-03-28T07:25:35.975Z</time></trkpt><trkpt lat="43.9313581" lon="11.2484407"><ele>415.20000000000005</ele><time>2026-03-28T07:25:37.976Z</time></trkpt><trkpt lat="43.9313849" lon="11.2482771"><ele>414.79999999999995</ele><time>2026-03-28T07:25:39.967Z</time></trkpt><trkpt lat="43.9314186" lon="11.2480993"><ele>414.4</ele><time>2026-03-28T07:25:41.978Z</time></trkpt><trkpt lat="43.9314453" lon="11.2480167"><ele>414.0</ele><time>2026-03-28T07:25:42.979Z</time></trkpt><trkpt lat="43.931471" lon="11.2479325"><ele>414.0</ele><time>2026-03-28T07:25:43.972Z</time></trkpt><trkpt lat="43.9314897" lon="11.2478464"><ele>414.0</ele><time>2026-03-28T07:25:44.978Z</time></trkpt><trkpt lat="43.9315103" lon="11.2477557"><ele>414.0</ele><time>2026-03-28T07:25:45.976Z</time></trkpt><trkpt lat="43.9315379" lon="11.2476039"><ele>414.0</ele><time>2026-03-28T07:25:47.987Z</time></trkpt><trkpt lat="43.931556" lon="11.247462"><ele>414.0</ele><time>2026-03-28T07:25:49.984Z</time></trkpt><trkpt lat="43.9315974" lon="11.247332"><ele>414.6</ele><time>2026-03-28T07:25:51.984Z</time></trkpt><trkpt lat="43.931653" lon="11.2472086"><ele>415.2</ele><time>2026-03-28T07:25:53.981Z</time></trkpt><trkpt lat="43.931725" lon="11.2471093"><ele>415.8</ele><time>2026-03-28T07:25:55.988Z</time></trkpt><trkpt lat="43.9318069" lon="11.2470481"><ele>416.40000000000003</ele><time>2026-03-28T07:25:57.981Z</time></trkpt><trkpt lat="43.9319148" lon="11.2470362"><ele>417.0</ele><time>2026-03-28T07:25:59.971Z</time></trkpt><trkpt lat="43.9320294" lon="11.2470802"><ele>417.0</ele><time>2026-03-28T07:26:01.987Z</time></trkpt><trkpt lat="43.9321353" lon="11.2471315"><ele>417.0</ele><time>2026-03-28T07:26:03.98Z</time></trkpt><trkpt lat="43.9321956" lon="11.2471661"><ele>417.0</ele><time>2026-03-28T07:26:04.983Z</time></trkpt><trkpt lat="43.9323041" lon="11.2472148"><ele>417.0</ele><time>2026-03-28T07:26:06.977Z</time></trkpt><trkpt lat="43.9324132" lon="11.247237"><ele>417.0</ele><time>2026-03-28T07:26:08.98Z</time></trkpt><trkpt lat="43.9325229" lon="11.2472455"><ele>420.75</ele><time>2026-03-28T07:26:10.979Z</time></trkpt><trkpt lat="43.9326409" lon="11.2472429"><ele>424.5</ele><time>2026-03-28T07:26:12.986Z</time></trkpt><trkpt lat="43.9327592" lon="11.2472441"><ele>428.25</ele><time>2026-03-28T07:26:14.982Z</time></trkpt><trkpt lat="43.9328673" lon="11.2472445"><ele>432.0</ele><time>2026-03-28T07:26:16.985Z</time></trkpt><trkpt lat="43.9329758" lon="11.2472419"><ele>432.0</ele><time>2026-03-28T07:26:18.989Z</time></trkpt><trkpt lat="43.9330842" lon="11.247274"><ele>432.00000000000006</ele><time>2026-03-28T07:26:20.976Z</time></trkpt><trkpt lat="43.9331899" lon="11.2473128"><ele>432.00000000000006</ele><time>2026-03-28T07:26:22.957Z</time></trkpt><trkpt lat="43.9333002" lon="11.2473719"><ele>432.0</ele><time>2026-03-28T07:26:24.979Z</time></trkpt><trkpt lat="43.9334014" lon="11.2474262"><ele>432.0</ele><time>2026-03-28T07:26:27.038Z</time></trkpt><trkpt lat="43.9335046" lon="11.2474627"><ele>439.75</ele><time>2026-03-28T07:26:28.958Z</time></trkpt><trkpt lat="43.9336122" lon="11.2475006"><ele>447.5</ele><time>2026-03-28T07:26:30.966Z</time></trkpt><trkpt lat="43.9337288" lon="11.24753"><ele>455.25</ele><time>2026-03-28T07:26:32.971Z</time></trkpt><trkpt lat="43.933857" lon="11.2475527"><ele>463.0</ele><time>2026-03-28T07:26:34.969Z</time></trkpt><trkpt lat="43.9339726" lon="11.2475729"><ele>463.0</ele><time>2026-03-28T07:26:36.98Z</time></trkpt><trkpt lat="43.9340797" lon="11.2475591"><ele>462.99999999999994</ele><time>2026-03-28T07:26:39.03Z</time></trkpt><trkpt lat="43.9341882" lon="11.2475294"><ele>462.99999999999994</ele><time>2026-03-28T07:26:40.97Z</time></trkpt><trkpt lat="43.9342886" lon="11.2474889"><ele>463.0</ele><time>2026-03-28T07:26:42.972Z</time></trkpt><trkpt lat="43.9343904" lon="11.2474263"><ele>463.0</ele><time>2026-03-28T07:26:44.968Z</time></trkpt><trkpt lat="43.9344935" lon="11.2473385"><ele>463.79999999999995</ele><time>2026-03-28T07:26:46.976Z</time></trkpt><trkpt lat="43.9345928" lon="11.2472695"><ele>464.59999999999997</ele><time>2026-03-28T07:26:49.018Z</time></trkpt><trkpt lat="43.9346907" lon="11.2472157"><ele>465.40000000000003</ele><time>2026-03-28T07:26:50.968Z</time></trkpt><trkpt lat="43.9347818" lon="11.2471658"><ele>466.20000000000005</ele><time>2026-03-28T07:26:52.969Z</time></trkpt><trkpt lat="43.9348748" lon="11.2471476"><ele>467.0</ele><time>2026-03-28T07:26:54.967Z</time></trkpt><trkpt lat="43.9349749" lon="11.2471372"><ele>466.99999999999994</ele><time>2026-03-28T07:26:57.044Z</time></trkpt><trkpt lat="43.9350423" lon="11.2471346"><ele>467.0</ele><time>2026-03-28T07:26:58.017Z</time></trkpt><trkpt lat="43.9351078" lon="11.2471369"><ele>467.0</ele><time>2026-03-28T07:26:58.967Z</time></trkpt><trkpt lat="43.9351727" lon="11.2471299"><ele>467.0</ele><time>2026-03-28T07:26:59.974Z</time></trkpt><trkpt lat="43.9352362" lon="11.2471241"><ele>466.99999999999994</ele><time>2026-03-28T07:27:00.967Z</time></trkpt><trkpt lat="43.9353525" lon="11.2471246"><ele>467.0</ele><time>2026-03-28T07:27:02.969Z</time></trkpt><trkpt lat="43.9354713" lon="11.2471233"><ele>469.3333333333333</ele><time>2026-03-28T07:27:04.969Z</time></trkpt><trkpt lat="43.9355975" lon="11.2471046"><ele>471.66666666666663</ele><time>2026-03-28T07:27:06.992Z</time></trkpt><trkpt lat="43.9356681" lon="11.247089"><ele>474.0</ele><time>2026-03-28T07:27:07.989Z</time></trkpt><trkpt lat="43.9357346" lon="11.2470725"><ele>476.33333333333337</ele><time>2026-03-28T07:27:08.965Z</time></trkpt><trkpt lat="43.935808" lon="11.2470696"><ele>478.6666666666667</ele><time>2026-03-28T07:27:09.962Z</time></trkpt><trkpt lat="43.9358854" lon="11.2470781"><ele>481.0</ele><time>2026-03-28T07:27:10.968Z</time></trkpt><trkpt lat="43.9359631" lon="11.2471088"><ele>483.6666666666667</ele><time>2026-03-28T07:27:11.963Z</time></trkpt><trkpt lat="43.9360286" lon="11.2471339"><ele>486.33333333333337</ele><time>2026-03-28T07:27:12.959Z</time></trkpt><trkpt lat="43.9360976" lon="11.247143"><ele>489.0</ele><time>2026-03-28T07:27:13.962Z</time></trkpt><trkpt lat="43.9361676" lon="11.247131"><ele>491.66666666666663</ele><time>2026-03-28T07:27:14.971Z</time></trkpt><trkpt lat="43.9362357" lon="11.2471089"><ele>494.3333333333333</ele><time>2026-03-28T07:27:15.965Z</time></trkpt><trkpt lat="43.9363026" lon="11.247092"><ele>497.0</ele><time>2026-03-28T07:27:16.961Z</time></trkpt><trkpt lat="43.9364092" lon="11.2470513"><ele>497.0</ele><time>2026-03-28T07:27:18.961Z</time></trkpt><trkpt lat="43.9365108" lon="11.2470227"><ele>497.00000000000006</ele><time>2026-03-28T07:27:20.964Z</time></trkpt><trkpt lat="43.9366191" lon="11.2470122"><ele>497.00000000000006</ele><time>2026-03-28T07:27:22.97Z</time></trkpt><trkpt lat="43.9367231" lon="11.2470059"><ele>497.0</ele><time>2026-03-28T07:27:24.956Z</time></trkpt><trkpt lat="43.936837" lon="11.2469997"><ele>497.0</ele><time>2026-03-28T07:27:26.96Z</time></trkpt><trkpt lat="43.9369008" lon="11.2469917"><ele>497.3333333333333</ele><time>2026-03-28T07:27:27.954Z</time></trkpt><trkpt lat="43.9369664" lon="11.2469754"><ele>497.66666666666663</ele><time>2026-03-28T07:27:28.94Z</time></trkpt><trkpt lat="43.9370421" lon="11.2469567"><ele>498.0</ele><time>2026-03-28T07:27:29.959Z</time></trkpt><trkpt lat="43.9371173" lon="11.2469357"><ele>498.33333333333337</ele><time>2026-03-28T07:27:30.961Z</time></trkpt><trkpt lat="43.9371914" lon="11.2469183"><ele>498.6666666666667</ele><time>2026-03-28T07:27:32.067Z</time></trkpt><trkpt lat="43.9373355" lon="11.2468739"><ele>499.0</ele><time>2026-03-28T07:27:33.967Z</time></trkpt><trkpt lat="43.9374061" lon="11.2468449"><ele>499.0</ele><time>2026-03-28T07:27:34.956Z</time></trkpt><trkpt lat="43.937473" lon="11.2468084"><ele>499.0</ele><time>2026-03-28T07:27:35.957Z</time></trkpt><trkpt lat="43.9375399" lon="11.2467736"><ele>499.0</ele><time>2026-03-28T07:27:36.96Z</time></trkpt><trkpt lat="43.9376561" lon="11.2467199"><ele>499.0</ele><time>2026-03-28T07:27:39.029Z</time></trkpt><trkpt lat="43.9377578" lon="11.246655"><ele>499.0</ele><time>2026-03-28T07:27:40.977Z</time></trkpt><trkpt lat="43.9378253" lon="11.2466165"><ele>499.00000000000006</ele><time>2026-03-28T07:27:42.949Z</time></trkpt><trkpt lat="43.9379111" lon="11.2465659"><ele>499.0</ele><time>2026-03-28T07:27:44.967Z</time></trkpt><trkpt lat="43.9379949" lon="11.2465071"><ele>499.0</ele><time>2026-03-28T07:27:47.015Z</time></trkpt><trkpt lat="43.9380595" lon="11.2464313"><ele>499.0</ele><time>2026-03-28T07:27:48.964Z</time></trkpt><trkpt lat="43.9381201" lon="11.2463859"><ele>499.00000000000006</ele><time>2026-03-28T07:27:50.96Z</time></trkpt><trkpt lat="43.9381953" lon="11.246344"><ele>499.0</ele><time>2026-03-28T07:27:52.958Z</time></trkpt><trkpt lat="43.9382626" lon="11.2463249"><ele>499.33333333333337</ele><time>2026-03-28T07:27:54.971Z</time></trkpt><trkpt lat="43.9383374" lon="11.2462833"><ele>499.6666666666667</ele><time>2026-03-28T07:27:57.96Z</time></trkpt><trkpt lat="43.9384203" lon="11.2462507"><ele>500.0</ele><time>2026-03-28T07:28:00.968Z</time></trkpt><trkpt lat="43.9385019" lon="11.2462492"><ele>500.33333333333337</ele><time>2026-03-28T07:28:03.962Z</time></trkpt><trkpt lat="43.9385657" lon="11.2462744"><ele>500.6666666666667</ele><time>2026-03-28T07:28:05.957Z</time></trkpt><trkpt lat="43.9386345" lon="11.2462875"><ele>501.0</ele><time>2026-03-28T07:28:07.96Z</time></trkpt><trkpt lat="43.9387211" lon="11.2463249"><ele>501.0</ele><time>2026-03-28T07:28:11.045Z</time></trkpt><trkpt lat="43.9387928" lon="11.2463583"><ele>501.0</ele><time>2026-03-28T07:28:13.038Z</time></trkpt><trkpt lat="43.9388733" lon="11.246404"><ele>501.0</ele><time>2026-03-28T07:28:14.968Z</time></trkpt><trkpt lat="43.9389508" lon="11.2464571"><ele>501.0</ele><time>2026-03-28T07:28:16.973Z</time></trkpt><trkpt lat="43.9390346" lon="11.2465047"><ele>501.0</ele><time>2026-03-28T07:28:19.038Z</time></trkpt><trkpt lat="43.9391086" lon="11.2465046"><ele>501.0</ele><time>2026-03-28T07:28:21.04Z</time></trkpt><trkpt lat="43.9391945" lon="11.2465071"><ele>504.3333333333333</ele><time>2026-03-28T07:28:22.963Z</time></trkpt><trkpt lat="43.9392782" lon="11.2465462"><ele>507.66666666666663</ele><time>2026-03-28T07:28:24.967Z</time></trkpt><trkpt lat="43.9393632" lon="11.2465995"><ele>511.0</ele><time>2026-03-28T07:28:26.964Z</time></trkpt><trkpt lat="43.9394392" lon="11.2466563"><ele>514.3333333333333</ele><time>2026-03-28T07:28:28.954Z</time></trkpt><trkpt lat="43.9394994" lon="11.2466933"><ele>517.6666666666666</ele><time>2026-03-28T07:28:30.973Z</time></trkpt><trkpt lat="43.9395787" lon="11.2467427"><ele>521.0</ele><time>2026-03-28T07:28:33.972Z</time></trkpt><trkpt lat="43.9396493" lon="11.2467896"><ele>521.0</ele><time>2026-03-28T07:28:36.965Z</time></trkpt><trkpt lat="43.9397156" lon="11.2468761"><ele>521.0</ele><time>2026-03-28T07:28:39.97Z</time></trkpt><trkpt lat="43.9397699" lon="11.2469383"><ele>521.0</ele><time>2026-03-28T07:28:41.965Z</time></trkpt><trkpt lat="43.9398256" lon="11.2470139"><ele>521.0</ele><time>2026-03-28T07:28:43.963Z</time></trkpt><trkpt lat="43.9398695" lon="11.2470876"><ele>521.0</ele><time>2026-03-28T07:28:45.971Z</time></trkpt><trkpt lat="43.9399091" lon="11.2471683"><ele>521.0</ele><time>2026-03-28T07:28:47.954Z</time></trkpt><trkpt lat="43.9399635" lon="11.2472498"><ele>521.0</ele><time>2026-03-28T07:28:49.958Z</time></trkpt><trkpt lat="43.9400338" lon="11.247288"><ele>521.0</ele><time>2026-03-28T07:28:51.96Z</time></trkpt><trkpt lat="43.9401014" lon="11.247322"><ele>521.0</ele><time>2026-03-28T07:28:53.967Z</time></trkpt><trkpt lat="43.9401558" lon="11.2473877"><ele>521.0</ele><time>2026-03-28T07:28:55.952Z</time></trkpt><trkpt lat="43.9402049" lon="11.2474599"><ele>521.0</ele><time>2026-03-28T07:28:57.957Z</time></trkpt><trkpt lat="43.9402685" lon="11.2475303"><ele>521.0</ele><time>2026-03-28T07:28:59.969Z</time></trkpt><trkpt lat="43.9403342" lon="11.2475621"><ele>521.0</ele><time>2026-03-28T07:29:01.97Z</time></trkpt><trkpt lat="43.9404108" lon="11.2475027"><ele>523.3333333333333</ele><time>2026-03-28T07:29:04.959Z</time></trkpt><trkpt lat="43.9405023" lon="11.2475164"><ele>525.6666666666666</ele><time>2026-03-28T07:29:07.971Z</time></trkpt><trkpt lat="43.9405791" lon="11.2475482"><ele>528.0</ele><time>2026-03-28T07:29:09.975Z</time></trkpt><trkpt lat="43.940649" lon="11.2475881"><ele>530.3333333333334</ele><time>2026-03-28T07:29:11.961Z</time></trkpt><trkpt lat="43.9407367" lon="11.2476201"><ele>532.6666666666667</ele><time>2026-03-28T07:29:14.963Z</time></trkpt><trkpt lat="43.9408037" lon="11.2476498"><ele>535.0</ele><time>2026-03-28T07:29:16.965Z</time></trkpt><trkpt lat="43.9408681" lon="11.2476842"><ele>536.0</ele><time>2026-03-28T07:29:18.969Z</time></trkpt><trkpt lat="43.9409445" lon="11.2477425"><ele>537.0</ele><time>2026-03-28T07:29:21.966Z</time></trkpt><trkpt lat="43.9410081" lon="11.2477564"><ele>538.0</ele><time>2026-03-28T07:29:23.971Z</time></trkpt><trkpt lat="43.9410947" lon="11.2478035"><ele>539.0</ele><time>2026-03-28T07:29:26.957Z</time></trkpt><trkpt lat="43.9411532" lon="11.2478614"><ele>540.0</ele><time>2026-03-28T07:29:28.973Z</time></trkpt><trkpt lat="43.9412031" lon="11.2479257"><ele>541.0</ele><time>2026-03-28T07:29:31.038Z</time></trkpt><trkpt lat="43.9412554" lon="11.2479812"><ele>541.0</ele><time>2026-03-28T07:29:32.96Z</time></trkpt><trkpt lat="43.9413205" lon="11.2480243"><ele>541.0</ele><time>2026-03-28T07:29:34.965Z</time></trkpt><trkpt lat="43.9413856" lon="11.2480404"><ele>541.0</ele><time>2026-03-28T07:29:36.968Z</time></trkpt><trkpt lat="43.941453" lon="11.2480563"><ele>541.0</ele><time>2026-03-28T07:29:38.963Z</time></trkpt><trkpt lat="43.941532" lon="11.2480802"><ele>541.0</ele><time>2026-03-28T07:29:40.948Z</time></trkpt><trkpt lat="43.9416049" lon="11.2481276"><ele>541.0</ele><time>2026-03-28T07:29:42.964Z</time></trkpt><trkpt lat="43.9416938" lon="11.2480981"><ele>540.6666666666667</ele><time>2026-03-28T07:29:45.964Z</time></trkpt><trkpt lat="43.9417643" lon="11.2480806"><ele>540.3333333333334</ele><time>2026-03-28T07:29:47.96Z</time></trkpt><trkpt lat="43.941837" lon="11.2480744"><ele>540.0</ele><time>2026-03-28T07:29:49.957Z</time></trkpt><trkpt lat="43.9418986" lon="11.2481624"><ele>539.6666666666666</ele><time>2026-03-28T07:29:52.967Z</time></trkpt><trkpt lat="43.941975" lon="11.2482095"><ele>539.3333333333333</ele><time>2026-03-28T07:29:54.969Z</time></trkpt><trkpt lat="43.9420681" lon="11.2482283"><ele>539.0</ele><time>2026-03-28T07:29:56.97Z</time></trkpt><trkpt lat="43.9421516" lon="11.2482504"><ele>541.0</ele><time>2026-03-28T07:29:58.968Z</time></trkpt><trkpt lat="43.9422284" lon="11.2482753"><ele>543.0</ele><time>2026-03-28T07:30:00.965Z</time></trkpt><trkpt lat="43.9423081" lon="11.2483003"><ele>545.0</ele><time>2026-03-28T07:30:02.962Z</time></trkpt><trkpt lat="43.9423896" lon="11.2483296"><ele>547.0</ele><time>2026-03-28T07:30:04.968Z</time></trkpt><trkpt lat="43.9424469" lon="11.2483837"><ele>549.0</ele><time>2026-03-28T07:30:06.965Z</time></trkpt><trkpt lat="43.9425124" lon="11.2484166"><ele>551.0</ele><time>2026-03-28T07:30:09.046Z</time></trkpt><trkpt lat="43.9425844" lon="11.2484245"><ele>552.5</ele><time>2026-03-28T07:30:10.968Z</time></trkpt><trkpt lat="43.94267" lon="11.2484388"><ele>554.0</ele><time>2026-03-28T07:30:13.94Z</time></trkpt><trkpt lat="43.9427441" lon="11.2485069"><ele>555.5</ele><time>2026-03-28T07:30:16.959Z</time></trkpt><trkpt lat="43.9427893" lon="11.2485698"><ele>557.0</ele><time>2026-03-28T07:30:18.973Z</time></trkpt><trkpt lat="43.9428445" lon="11.248656"><ele>558.5</ele><time>2026-03-28T07:30:21.003Z</time></trkpt><trkpt lat="43.9428968" lon="11.2487448"><ele>560.0</ele><time>2026-03-28T07:30:22.958Z</time></trkpt><trkpt lat="43.9429396" lon="11.2488146"><ele>560.0</ele><time>2026-03-28T07:30:24.972Z</time></trkpt><trkpt lat="43.9429949" lon="11.2488632"><ele>560.0</ele><time>2026-03-28T07:30:26.967Z</time></trkpt><trkpt lat="43.9430659" lon="11.2488716"><ele>560.0</ele><time>2026-03-28T07:30:28.972Z</time></trkpt><trkpt lat="43.9431347" lon="11.2488714"><ele>560.0</ele><time>2026-03-28T07:30:30.959Z</time></trkpt><trkpt lat="43.9432153" lon="11.2488897"><ele>560.0</ele><time>2026-03-28T07:30:32.967Z</time></trkpt><trkpt lat="43.9432705" lon="11.2489321"><ele>560.0</ele><time>2026-03-28T07:30:34.972Z</time></trkpt><trkpt lat="43.9433543" lon="11.2489722"><ele>560.0</ele><time>2026-03-28T07:30:37.961Z</time></trkpt><trkpt lat="43.9434365" lon="11.2490115"><ele>562.8333333333333</ele><time>2026-03-28T07:30:39.955Z</time></trkpt><trkpt lat="43.9435031" lon="11.2490811"><ele>565.6666666666666</ele><time>2026-03-28T07:30:41.968Z</time></trkpt><trkpt lat="43.9435531" lon="11.2491367"><ele>568.5</ele><time>2026-03-28T07:30:43.962Z</time></trkpt><trkpt lat="43.9436044" lon="11.2492234"><ele>571.3333333333334</ele><time>2026-03-28T07:30:46.968Z</time></trkpt><trkpt lat="43.943651" lon="11.2492871"><ele>574.1666666666667</ele><time>2026-03-28T07:30:48.97Z</time></trkpt><trkpt lat="43.9437313" lon="11.2493549"><ele>577.0</ele><time>2026-03-28T07:30:50.971Z</time></trkpt><trkpt lat="43.9438348" lon="11.2494413"><ele>577.0</ele><time>2026-03-28T07:30:53.97Z</time></trkpt><trkpt lat="43.9439182" lon="11.249463"><ele>577.0</ele><time>2026-03-28T07:30:55.979Z</time></trkpt><trkpt lat="43.9439995" lon="11.2495049"><ele>577.0</ele><time>2026-03-28T07:30:57.973Z</time></trkpt><trkpt lat="43.9440705" lon="11.2495159"><ele>577.0</ele><time>2026-03-28T07:30:59.975Z</time></trkpt><trkpt lat="43.9441326" lon="11.2494998"><ele>577.0</ele><time>2026-03-28T07:31:02.036Z</time></trkpt><trkpt lat="43.9442271" lon="11.2494939"><ele>577.0</ele><time>2026-03-28T07:31:04.957Z</time></trkpt><trkpt lat="43.944293" lon="11.2494873"><ele>577.8571428571429</ele><time>2026-03-28T07:31:06.979Z</time></trkpt><trkpt lat="43.9443614" lon="11.2495264"><ele>578.7142857142858</ele><time>2026-03-28T07:31:10.968Z</time></trkpt><trkpt lat="43.9443761" lon="11.2496247"><ele>579.5714285714287</ele><time>2026-03-28T07:31:13.973Z</time></trkpt><trkpt lat="43.944392" lon="11.2497168"><ele>580.4285714285714</ele><time>2026-03-28T07:31:15.981Z</time></trkpt><trkpt lat="43.9444376" lon="11.2498145"><ele>581.2857142857143</ele><time>2026-03-28T07:31:17.969Z</time></trkpt><trkpt lat="43.9444905" lon="11.2498875"><ele>582.1428571428572</ele><time>2026-03-28T07:31:19.986Z</time></trkpt><trkpt lat="43.944553" lon="11.2499087"><ele>583.0</ele><time>2026-03-28T07:31:21.97Z</time></trkpt><trkpt lat="43.944651" lon="11.2498837"><ele>582.6666666666667</ele><time>2026-03-28T07:31:24.984Z</time></trkpt><trkpt lat="43.9447316" lon="11.2498758"><ele>582.3333333333334</ele><time>2026-03-28T07:31:26.977Z</time></trkpt><trkpt lat="43.9448018" lon="11.2498609"><ele>582.0</ele><time>2026-03-28T07:31:28.982Z</time></trkpt><trkpt lat="43.9448965" lon="11.2498444"><ele>581.6666666666666</ele><time>2026-03-28T07:31:31.973Z</time></trkpt><trkpt lat="43.9449802" lon="11.2498022"><ele>581.3333333333333</ele><time>2026-03-28T07:31:33.97Z</time></trkpt><trkpt lat="43.9450491" lon="11.2497799"><ele>581.0</ele><time>2026-03-28T07:31:35.975Z</time></trkpt><trkpt lat="43.9451126" lon="11.2497648"><ele>583.8333333333333</ele><time>2026-03-28T07:31:37.974Z</time></trkpt><trkpt lat="43.945176" lon="11.2498576"><ele>586.6666666666666</ele><time>2026-03-28T07:31:40.973Z</time></trkpt><trkpt lat="43.9451893" lon="11.2499583"><ele>589.5</ele><time>2026-03-28T07:31:42.957Z</time></trkpt><trkpt lat="43.9452166" lon="11.2500395"><ele>592.3333333333334</ele><time>2026-03-28T07:31:44.978Z</time></trkpt><trkpt lat="43.9452813" lon="11.2501026"><ele>595.1666666666667</ele><time>2026-03-28T07:31:46.979Z</time></trkpt><trkpt lat="43.945364" lon="11.2501671"><ele>598.0</ele><time>2026-03-28T07:31:48.972Z</time></trkpt><trkpt lat="43.9454468" lon="11.2502448"><ele>598.0</ele><time>2026-03-28T07:31:50.952Z</time></trkpt><trkpt lat="43.9455125" lon="11.2502956"><ele>598.0</ele><time>2026-03-28T07:31:52.979Z</time></trkpt><trkpt lat="43.9455805" lon="11.2503424"><ele>598.0</ele><time>2026-03-28T07:31:54.973Z</time></trkpt><trkpt lat="43.9456344" lon="11.2504046"><ele>598.0</ele><time>2026-03-28T07:31:56.975Z</time></trkpt><trkpt lat="43.9457119" lon="11.2504647"><ele>598.0</ele><time>2026-03-28T07:31:59.98Z</time></trkpt><trkpt lat="43.9457775" lon="11.2504976"><ele>598.0</ele><time>2026-03-28T07:32:02.974Z</time></trkpt><trkpt lat="43.945821" lon="11.2505809"><ele>599.0</ele><time>2026-03-28T07:32:05.988Z</time></trkpt><trkpt lat="43.9458538" lon="11.2506589"><ele>600.0</ele><time>2026-03-28T07:32:07.986Z</time></trkpt><trkpt lat="43.9458869" lon="11.2507425"><ele>601.0</ele><time>2026-03-28T07:32:09.981Z</time></trkpt><trkpt lat="43.9459427" lon="11.2508302"><ele>602.0</ele><time>2026-03-28T07:32:12.975Z</time></trkpt><trkpt lat="43.9460095" lon="11.2508535"><ele>603.0</ele><time>2026-03-28T07:32:15.974Z</time></trkpt><trkpt lat="43.9460837" lon="11.2508757"><ele>604.0</ele><time>2026-03-28T07:32:18.984Z</time></trkpt><trkpt lat="43.946154" lon="11.2509097"><ele>605.0</ele><time>2026-03-28T07:32:20.977Z</time></trkpt><trkpt lat="43.9462112" lon="11.2509765"><ele>606.3333333333333</ele><time>2026-03-28T07:32:22.977Z</time></trkpt><trkpt lat="43.9462214" lon="11.2510841"><ele>607.6666666666666</ele><time>2026-03-28T07:32:24.979Z</time></trkpt><trkpt lat="43.9462058" lon="11.2512159"><ele>609.0</ele><time>2026-03-28T07:32:26.966Z</time></trkpt><trkpt lat="43.946198" lon="11.251346"><ele>610.3333333333334</ele><time>2026-03-28T07:32:28.98Z</time></trkpt><trkpt lat="43.9462011" lon="11.2514584"><ele>611.6666666666667</ele><time>2026-03-28T07:32:30.977Z</time></trkpt><trkpt lat="43.9462147" lon="11.2515724"><ele>613.0</ele><time>2026-03-28T07:32:32.966Z</time></trkpt><trkpt lat="43.9462447" lon="11.2516606"><ele>614.1999999999999</ele><time>2026-03-28T07:32:34.982Z</time></trkpt><trkpt lat="43.9462871" lon="11.2517652"><ele>615.4</ele><time>2026-03-28T07:32:36.976Z</time></trkpt><trkpt lat="43.9463306" lon="11.2518687"><ele>616.5999999999999</ele><time>2026-03-28T07:32:38.979Z</time></trkpt><trkpt lat="43.9463747" lon="11.2519799"><ele>617.8</ele><time>2026-03-28T07:32:40.982Z</time></trkpt><trkpt lat="43.9464143" lon="11.2521002"><ele>619.0</ele><time>2026-03-28T07:32:42.97Z</time></trkpt><trkpt lat="43.9464862" lon="11.2522057"><ele>618.0</ele><time>2026-03-28T07:32:44.979Z</time></trkpt><trkpt lat="43.9465676" lon="11.2523082"><ele>617.0</ele><time>2026-03-28T07:32:46.974Z</time></trkpt><trkpt lat="43.9466502" lon="11.2524047"><ele>616.0</ele><time>2026-03-28T07:32:48.981Z</time></trkpt><trkpt lat="43.9467372" lon="11.2524767"><ele>615.0</ele><time>2026-03-28T07:32:50.982Z</time></trkpt><trkpt lat="43.9468182" lon="11.2525099"><ele>614.0</ele><time>2026-03-28T07:32:52.977Z</time></trkpt><trkpt lat="43.9468857" lon="11.2525532"><ele>614.0</ele><time>2026-03-28T07:32:54.979Z</time></trkpt><trkpt lat="43.946981" lon="11.2526326"><ele>614.0</ele><time>2026-03-28T07:32:56.979Z</time></trkpt><trkpt lat="43.9470729" lon="11.2526988"><ele>614.0</ele><time>2026-03-28T07:32:58.989Z</time></trkpt><trkpt lat="43.9471579" lon="11.2527714"><ele>614.0</ele><time>2026-03-28T07:33:00.978Z</time></trkpt><trkpt lat="43.9472409" lon="11.2528535"><ele>614.0</ele><time>2026-03-28T07:33:02.974Z</time></trkpt><trkpt lat="43.9473292" lon="11.2529244"><ele>614.0</ele><time>2026-03-28T07:33:04.977Z</time></trkpt><trkpt lat="43.9474086" lon="11.252989"><ele>614.0</ele><time>2026-03-28T07:33:06.992Z</time></trkpt><trkpt lat="43.9474797" lon="11.2530315"><ele>614.0</ele><time>2026-03-28T07:33:09.981Z</time></trkpt><trkpt lat="43.9474421" lon="11.2531478"><ele>614.0</ele><time>2026-03-28T07:35:53.954Z</time></trkpt><trkpt lat="43.9474351" lon="11.2532561"><ele>614.0</ele><time>2026-03-28T07:35:55.978Z</time></trkpt><trkpt lat="43.9474474" lon="11.2533771"><ele>614.0</ele><time>2026-03-28T07:35:57.976Z</time></trkpt><trkpt lat="43.9474749" lon="11.2534852"><ele>612.8333333333333</ele><time>2026-03-28T07:35:59.981Z</time></trkpt><trkpt lat="43.9474851" lon="11.253573"><ele>611.6666666666666</ele><time>2026-03-28T07:36:01.975Z</time></trkpt><trkpt lat="43.9474881" lon="11.2536895"><ele>610.5</ele><time>2026-03-28T07:36:04.974Z</time></trkpt><trkpt lat="43.9474816" lon="11.2537911"><ele>609.3333333333334</ele><time>2026-03-28T07:36:07.978Z</time></trkpt><trkpt lat="43.9475075" lon="11.2539073"><ele>608.1666666666667</ele><time>2026-03-28T07:36:10.983Z</time></trkpt><trkpt lat="43.9474951" lon="11.2540137"><ele>607.0</ele><time>2026-03-28T07:36:13.962Z</time></trkpt><trkpt lat="43.9474893" lon="11.2541127"><ele>605.5</ele><time>2026-03-28T07:36:16.975Z</time></trkpt><trkpt lat="43.9474935" lon="11.2542336"><ele>604.0</ele><time>2026-03-28T07:36:20.978Z</time></trkpt><trkpt lat="43.9474932" lon="11.2543301"><ele>602.5</ele><time>2026-03-28T07:36:23.974Z</time></trkpt><trkpt lat="43.9475061" lon="11.254417"><ele>601.0</ele><time>2026-03-28T07:36:26.958Z</time></trkpt><trkpt lat="43.9475437" lon="11.2545232"><ele>599.5</ele><time>2026-03-28T07:36:29.982Z</time></trkpt><trkpt lat="43.9475586" lon="11.2546346"><ele>598.0</ele><time>2026-03-28T07:36:32.968Z</time></trkpt><trkpt lat="43.9475537" lon="11.254754"><ele>596.2857142857142</ele><time>2026-03-28T07:36:35.958Z</time></trkpt><trkpt lat="43.9475348" lon="11.2548414"><ele>594.5714285714286</ele><time>2026-03-28T07:36:37.973Z</time></trkpt><trkpt lat="43.9475194" lon="11.2549405"><ele>592.8571428571429</ele><time>2026-03-28T07:36:39.981Z</time></trkpt><trkpt lat="43.9475172" lon="11.255054"><ele>591.1428571428571</ele><time>2026-03-28T07:36:41.975Z</time></trkpt><trkpt lat="43.9475243" lon="11.2551539"><ele>589.4285714285714</ele><time>2026-03-28T07:36:43.982Z</time></trkpt><trkpt lat="43.9475281" lon="11.2552427"><ele>587.7142857142857</ele><time>2026-03-28T07:36:45.983Z</time></trkpt><trkpt lat="43.9475076" lon="11.255343"><ele>586.0</ele><time>2026-03-28T07:36:48.973Z</time></trkpt><trkpt lat="43.9475067" lon="11.2554599"><ele>585.9999999999999</ele><time>2026-03-28T07:36:52.97Z</time></trkpt><trkpt lat="43.9475009" lon="11.2555504"><ele>586.0</ele><time>2026-03-28T07:36:55.959Z</time></trkpt><trkpt lat="43.9474831" lon="11.2556444"><ele>586.0</ele><time>2026-03-28T07:36:59.983Z</time></trkpt><trkpt lat="43.9474553" lon="11.2557315"><ele>586.0</ele><time>2026-03-28T07:37:03.954Z</time></trkpt><trkpt lat="43.9474496" lon="11.2558268"><ele>586.0</ele><time>2026-03-28T07:37:07.975Z</time></trkpt><trkpt lat="43.9475029" lon="11.2559023"><ele>585.9999999999999</ele><time>2026-03-28T07:37:12.981Z</time></trkpt><trkpt lat="43.9475399" lon="11.2559769"><ele>586.0</ele><time>2026-03-28T07:37:15.981Z</time></trkpt><trkpt lat="43.9475268" lon="11.2560908"><ele>584.1666666666667</ele><time>2026-03-28T07:37:18.958Z</time></trkpt><trkpt lat="43.9475193" lon="11.2562045"><ele>582.3333333333334</ele><time>2026-03-28T07:37:21.987Z</time></trkpt><trkpt lat="43.9475186" lon="11.2563253"><ele>580.5</ele><time>2026-03-28T07:37:24.972Z</time></trkpt><trkpt lat="43.9475159" lon="11.2564358"><ele>578.6666666666666</ele><time>2026-03-28T07:37:27.979Z</time></trkpt><trkpt lat="43.9475065" lon="11.2565416"><ele>576.8333333333333</ele><time>2026-03-28T07:37:30.975Z</time></trkpt><trkpt lat="43.9474997" lon="11.2566394"><ele>575.0</ele><time>2026-03-28T07:37:33.972Z</time></trkpt><trkpt lat="43.9474998" lon="11.2567427"><ele>573.6666666666666</ele><time>2026-03-28T07:37:36.974Z</time></trkpt><trkpt lat="43.9474685" lon="11.2568452"><ele>572.3333333333333</ele><time>2026-03-28T07:37:39.958Z</time></trkpt><trkpt lat="43.9474548" lon="11.2569634"><ele>571.0</ele><time>2026-03-28T07:37:42.973Z</time></trkpt><trkpt lat="43.9474625" lon="11.2570609"><ele>569.6666666666666</ele><time>2026-03-28T07:37:45.973Z</time></trkpt><trkpt lat="43.9474832" lon="11.2571677"><ele>568.3333333333334</ele><time>2026-03-28T07:37:49.981Z</time></trkpt><trkpt lat="43.9474965" lon="11.257268"><ele>567.0</ele><time>2026-03-28T07:37:52.972Z</time></trkpt><trkpt lat="43.9475116" lon="11.2573578"><ele>566.2</ele><time>2026-03-28T07:37:54.969Z</time></trkpt><trkpt lat="43.9475224" lon="11.2574605"><ele>565.4000000000001</ele><time>2026-03-28T07:37:56.976Z</time></trkpt><trkpt lat="43.947538" lon="11.2575917"><ele>564.5999999999999</ele><time>2026-03-28T07:37:58.972Z</time></trkpt><trkpt lat="43.9475547" lon="11.2577129"><ele>563.8</ele><time>2026-03-28T07:38:00.979Z</time></trkpt><trkpt lat="43.9475654" lon="11.2578488"><ele>563.0</ele><time>2026-03-28T07:38:02.968Z</time></trkpt><trkpt lat="43.9475738" lon="11.2580002"><ele>563.8333333333333</ele><time>2026-03-28T07:38:04.983Z</time></trkpt><trkpt lat="43.9475767" lon="11.2581237"><ele>564.6666666666666</ele><time>2026-03-28T07:38:06.966Z</time></trkpt><trkpt lat="43.9475401" lon="11.2582289"><ele>565.5</ele><time>2026-03-28T07:38:09.975Z</time></trkpt><trkpt lat="43.9475387" lon="11.2583214"><ele>566.3333333333334</ele><time>2026-03-28T07:38:12.975Z</time></trkpt><trkpt lat="43.9475573" lon="11.2584215"><ele>567.1666666666667</ele><time>2026-03-28T07:38:15.987Z</time></trkpt><trkpt lat="43.9475466" lon="11.2585216"><ele>568.0</ele><time>2026-03-28T07:38:19.979Z</time></trkpt><trkpt lat="43.9475024" lon="11.2585964"><ele>568.0</ele><time>2026-03-28T07:38:23.972Z</time></trkpt><trkpt lat="43.9474535" lon="11.2587059"><ele>568.0</ele><time>2026-03-28T07:38:29.987Z</time></trkpt><trkpt lat="43.9474257" lon="11.2587878"><ele>568.0</ele><time>2026-03-28T07:38:32.992Z</time></trkpt><trkpt lat="43.9473656" lon="11.2588387"><ele>568.0</ele><time>2026-03-28T07:38:35.982Z</time></trkpt><trkpt lat="43.9472975" lon="11.2588696"><ele>568.0</ele><time>2026-03-28T07:38:37.977Z</time></trkpt><trkpt lat="43.9472239" lon="11.2588954"><ele>568.0</ele><time>2026-03-28T07:38:39.983Z</time></trkpt><trkpt lat="43.947153" lon="11.2589062"><ele>568.0</ele><time>2026-03-28T07:38:41.989Z</time></trkpt><trkpt lat="43.9470589" lon="11.2589261"><ele>569.1666666666667</ele><time>2026-03-28T07:38:43.99Z</time></trkpt><trkpt lat="43.9469697" lon="11.2589539"><ele>570.3333333333334</ele><time>2026-03-28T07:38:45.984Z</time></trkpt><trkpt lat="43.9468666" lon="11.2589723"><ele>571.5</ele><time>2026-03-28T07:38:47.977Z</time></trkpt><trkpt lat="43.9467798" lon="11.2590006"><ele>572.6666666666666</ele><time>2026-03-28T07:38:49.983Z</time></trkpt><trkpt lat="43.9467078" lon="11.2590134"><ele>573.8333333333333</ele><time>2026-03-28T07:38:51.986Z</time></trkpt><trkpt lat="43.946629" lon="11.2589957"><ele>575.0</ele><time>2026-03-28T07:39:01.983Z</time></trkpt><trkpt lat="43.9465664" lon="11.2590198"><ele>575.0</ele><time>2026-03-28T07:39:04.973Z</time></trkpt><trkpt lat="43.946639" lon="11.2589914"><ele>575.0</ele><time>2026-03-28T07:41:05.967Z</time></trkpt><trkpt lat="43.9467051" lon="11.2589754"><ele>575.0</ele><time>2026-03-28T07:41:07.958Z</time></trkpt><trkpt lat="43.9467669" lon="11.2589497"><ele>575.0</ele><time>2026-03-28T07:41:09.97Z</time></trkpt><trkpt lat="43.9468386" lon="11.2589311"><ele>575.0</ele><time>2026-03-28T07:41:11.959Z</time></trkpt><trkpt lat="43.9469041" lon="11.2589234"><ele>575.0</ele><time>2026-03-28T07:41:13.964Z</time></trkpt><trkpt lat="43.9469727" lon="11.2589145"><ele>575.0</ele><time>2026-03-28T07:41:15.966Z</time></trkpt><trkpt lat="43.9470383" lon="11.2589058"><ele>573.8333333333333</ele><time>2026-03-28T07:41:17.965Z</time></trkpt><trkpt lat="43.9471287" lon="11.2588876"><ele>572.6666666666666</ele><time>2026-03-28T07:41:20.954Z</time></trkpt><trkpt lat="43.9471964" lon="11.2588695"><ele>571.5</ele><time>2026-03-28T07:41:22.963Z</time></trkpt><trkpt lat="43.947272" lon="11.2588119"><ele>570.3333333333334</ele><time>2026-03-28T07:41:25.967Z</time></trkpt><trkpt lat="43.9473302" lon="11.2587292"><ele>569.1666666666667</ele><time>2026-03-28T07:41:28.968Z</time></trkpt><trkpt lat="43.9473685" lon="11.2586591"><ele>568.0</ele><time>2026-03-28T07:41:32.96Z</time></trkpt><trkpt lat="43.947416" lon="11.2585672"><ele>568.0</ele><time>2026-03-28T07:41:36.957Z</time></trkpt><trkpt lat="43.9474299" lon="11.2584369"><ele>568.0</ele><time>2026-03-28T07:41:39.964Z</time></trkpt><trkpt lat="43.9474775" lon="11.2583226"><ele>568.0</ele><time>2026-03-28T07:41:42.969Z</time></trkpt><trkpt lat="43.9475275" lon="11.2582302"><ele>568.0</ele><time>2026-03-28T07:41:44.962Z</time></trkpt><trkpt lat="43.9475372" lon="11.2581284"><ele>568.0</ele><time>2026-03-28T07:41:46.961Z</time></trkpt><trkpt lat="43.947541" lon="11.2579804"><ele>567.0</ele><time>2026-03-28T07:41:48.963Z</time></trkpt><trkpt lat="43.9475353" lon="11.2578289"><ele>566.0</ele><time>2026-03-28T07:41:50.978Z</time></trkpt><trkpt lat="43.9475282" lon="11.2577051"><ele>565.0</ele><time>2026-03-28T07:41:52.963Z</time></trkpt><trkpt lat="43.9475179" lon="11.2575798"><ele>564.0</ele><time>2026-03-28T07:41:54.961Z</time></trkpt><trkpt lat="43.9475052" lon="11.2574338"><ele>563.0</ele><time>2026-03-28T07:41:56.963Z</time></trkpt><trkpt lat="43.9474878" lon="11.257301"><ele>563.5714285714286</ele><time>2026-03-28T07:41:58.96Z</time></trkpt><trkpt lat="43.9474706" lon="11.2572019"><ele>564.1428571428571</ele><time>2026-03-28T07:42:00.958Z</time></trkpt><trkpt lat="43.9474618" lon="11.2571079"><ele>564.7142857142858</ele><time>2026-03-28T07:42:03.96Z</time></trkpt><trkpt lat="43.9474556" lon="11.257"><ele>565.2857142857142</ele><time>2026-03-28T07:42:07.966Z</time></trkpt><trkpt lat="43.9474814" lon="11.256897"><ele>565.8571428571429</ele><time>2026-03-28T07:42:10.956Z</time></trkpt><trkpt lat="43.9475143" lon="11.256811"><ele>566.4285714285714</ele><time>2026-03-28T07:42:18.962Z</time></trkpt><trkpt lat="43.947576" lon="11.2567868"><ele>567.0</ele><time>2026-03-28T07:42:23.96Z</time></trkpt><trkpt lat="43.9475139" lon="11.2567583"><ele>567.0</ele><time>2026-03-28T07:45:05.982Z</time></trkpt><trkpt lat="43.9475209" lon="11.2566692"><ele>567.0</ele><time>2026-03-28T07:45:09.971Z</time></trkpt><trkpt lat="43.9475336" lon="11.256574"><ele>567.0</ele><time>2026-03-28T07:45:12.983Z</time></trkpt><trkpt lat="43.9475379" lon="11.2564705"><ele>567.0</ele><time>2026-03-28T07:45:15.993Z</time></trkpt><trkpt lat="43.9475407" lon="11.2563446"><ele>567.0</ele><time>2026-03-28T07:45:18.993Z</time></trkpt><trkpt lat="43.9475503" lon="11.2562264"><ele>567.0</ele><time>2026-03-28T07:45:21.99Z</time></trkpt><trkpt lat="43.9475631" lon="11.2561372"><ele>568.1428571428571</ele><time>2026-03-28T07:45:23.989Z</time></trkpt><trkpt lat="43.9475264" lon="11.2560506"><ele>569.2857142857142</ele><time>2026-03-28T07:45:26.985Z</time></trkpt><trkpt lat="43.9474652" lon="11.2559977"><ele>570.4285714285714</ele><time>2026-03-28T07:45:29.975Z</time></trkpt><trkpt lat="43.9474485" lon="11.255899"><ele>571.5714285714286</ele><time>2026-03-28T07:45:32.974Z</time></trkpt><trkpt lat="43.9474468" lon="11.2557989"><ele>572.7142857142857</ele><time>2026-03-28T07:45:35.987Z</time></trkpt><trkpt lat="43.9474591" lon="11.2556962"><ele>573.8571428571429</ele><time>2026-03-28T07:45:38.984Z</time></trkpt><trkpt lat="43.9474713" lon="11.2555878"><ele>575.0</ele><time>2026-03-28T07:45:41.987Z</time></trkpt><trkpt lat="43.9474765" lon="11.2554903"><ele>576.8333333333333</ele><time>2026-03-28T07:45:44.98Z</time></trkpt><trkpt lat="43.9474834" lon="11.2553953"><ele>578.6666666666666</ele><time>2026-03-28T07:45:47.975Z</time></trkpt><trkpt lat="43.9474836" lon="11.2552971"><ele>580.5</ele><time>2026-03-28T07:45:50.979Z</time></trkpt><trkpt lat="43.9474826" lon="11.2551866"><ele>582.3333333333334</ele><time>2026-03-28T07:45:53.993Z</time></trkpt><trkpt lat="43.9475037" lon="11.2550613"><ele>584.1666666666667</ele><time>2026-03-28T07:45:56.985Z</time></trkpt><trkpt lat="43.9475273" lon="11.2549407"><ele>586.0</ele><time>2026-03-28T07:45:59.972Z</time></trkpt><trkpt lat="43.9475418" lon="11.254852"><ele>587.7142857142857</ele><time>2026-03-28T07:46:01.981Z</time></trkpt><trkpt lat="43.9475407" lon="11.2547259"><ele>589.4285714285714</ele><time>2026-03-28T07:46:04.978Z</time></trkpt><trkpt lat="43.9475194" lon="11.2546388"><ele>591.1428571428571</ele><time>2026-03-28T07:46:07.038Z</time></trkpt><trkpt lat="43.9475151" lon="11.2545248"><ele>592.8571428571429</ele><time>2026-03-28T07:46:09.97Z</time></trkpt><trkpt lat="43.9475146" lon="11.2544335"><ele>594.5714285714286</ele><time>2026-03-28T07:46:11.967Z</time></trkpt><trkpt lat="43.9475064" lon="11.2543386"><ele>596.2857142857142</ele><time>2026-03-28T07:46:13.979Z</time></trkpt><trkpt lat="43.9475092" lon="11.254249"><ele>598.0</ele><time>2026-03-28T07:46:15.979Z</time></trkpt><trkpt lat="43.9475128" lon="11.254147"><ele>598.0</ele><time>2026-03-28T07:46:18.041Z</time></trkpt><trkpt lat="43.9475031" lon="11.2540516"><ele>598.0</ele><time>2026-03-28T07:46:19.974Z</time></trkpt><trkpt lat="43.9474947" lon="11.2539631"><ele>598.0</ele><time>2026-03-28T07:46:21.969Z</time></trkpt><trkpt lat="43.9474962" lon="11.2538719"><ele>598.0</ele><time>2026-03-28T07:46:23.958Z</time></trkpt><trkpt lat="43.9475042" lon="11.2537691"><ele>598.0</ele><time>2026-03-28T07:46:25.979Z</time></trkpt><trkpt lat="43.9475037" lon="11.2536551"><ele>598.0</ele><time>2026-03-28T07:46:27.971Z</time></trkpt><trkpt lat="43.9474604" lon="11.2534834"><ele>599.4</ele><time>2026-03-28T07:46:29.969Z</time></trkpt><trkpt lat="43.9474475" lon="11.2533109"><ele>600.8</ele><time>2026-03-28T07:46:31.956Z</time></trkpt><trkpt lat="43.9474574" lon="11.2532232"><ele>602.2</ele><time>2026-03-28T07:46:32.966Z</time></trkpt><trkpt lat="43.9475011" lon="11.2530896"><ele>603.6</ele><time>2026-03-28T07:46:34.966Z</time></trkpt><trkpt lat="43.9475241" lon="11.2529572"><ele>605.0</ele><time>2026-03-28T07:46:36.959Z</time></trkpt><trkpt lat="43.9475443" lon="11.2528319"><ele>605.0</ele><time>2026-03-28T07:46:38.977Z</time></trkpt><trkpt lat="43.9475674" lon="11.2527338"><ele>605.0</ele><time>2026-03-28T07:46:40.974Z</time></trkpt><trkpt lat="43.9476188" lon="11.2526025"><ele>605.0</ele><time>2026-03-28T07:46:42.976Z</time></trkpt><trkpt lat="43.94767" lon="11.2525195"><ele>605.0</ele><time>2026-03-28T07:46:44.95Z</time></trkpt><trkpt lat="43.9477394" lon="11.2524624"><ele>605.0</ele><time>2026-03-28T07:46:46.982Z</time></trkpt><trkpt lat="43.9478073" lon="11.2524063"><ele>605.0</ele><time>2026-03-28T07:46:48.962Z</time></trkpt><trkpt lat="43.9478974" lon="11.2523598"><ele>605.0</ele><time>2026-03-28T07:46:51.979Z</time></trkpt><trkpt lat="43.9479791" lon="11.252312"><ele>605.0</ele><time>2026-03-28T07:46:53.96Z</time></trkpt><trkpt lat="43.9480907" lon="11.2522574"><ele>605.0</ele><time>2026-03-28T07:46:55.985Z</time></trkpt><trkpt lat="43.9481935" lon="11.252202"><ele>605.0</ele><time>2026-03-28T07:46:57.975Z</time></trkpt><trkpt lat="43.9482922" lon="11.2521495"><ele>605.0</ele><time>2026-03-28T07:46:59.979Z</time></trkpt><trkpt lat="43.9483882" lon="11.2520928"><ele>604.0</ele><time>2026-03-28T07:47:01.975Z</time></trkpt><trkpt lat="43.9484532" lon="11.2520586"><ele>603.0</ele><time>2026-03-28T07:47:03.968Z</time></trkpt><trkpt lat="43.9485178" lon="11.252016"><ele>602.0</ele><time>2026-03-28T07:47:05.973Z</time></trkpt><trkpt lat="43.9485745" lon="11.2519652"><ele>601.0</ele><time>2026-03-28T07:47:07.977Z</time></trkpt><trkpt lat="43.9486358" lon="11.2519253"><ele>600.0</ele><time>2026-03-28T07:47:09.971Z</time></trkpt><trkpt lat="43.9486942" lon="11.2518922"><ele>599.0</ele><time>2026-03-28T07:47:11.973Z</time></trkpt><trkpt lat="43.9487604" lon="11.2518511"><ele>598.0</ele><time>2026-03-28T07:47:13.982Z</time></trkpt><trkpt lat="43.9488194" lon="11.2517898"><ele>598.0</ele><time>2026-03-28T07:47:15.976Z</time></trkpt><trkpt lat="43.9488844" lon="11.2517235"><ele>598.0</ele><time>2026-03-28T07:47:17.973Z</time></trkpt><trkpt lat="43.9489455" lon="11.2516419"><ele>598.0</ele><time>2026-03-28T07:47:19.978Z</time></trkpt><trkpt lat="43.9490049" lon="11.2515551"><ele>598.0</ele><time>2026-03-28T07:47:21.97Z</time></trkpt><trkpt lat="43.9490542" lon="11.2514603"><ele>598.0</ele><time>2026-03-28T07:47:23.969Z</time></trkpt><trkpt lat="43.9491113" lon="11.2513993"><ele>598.0</ele><time>2026-03-28T07:47:25.97Z</time></trkpt><trkpt lat="43.9491633" lon="11.2513481"><ele>596.5714285714286</ele><time>2026-03-28T07:47:28Z</time></trkpt><trkpt lat="43.9492024" lon="11.2512744"><ele>595.1428571428571</ele><time>2026-03-28T07:47:29.969Z</time></trkpt><trkpt lat="43.9492291" lon="11.2511806"><ele>593.7142857142858</ele><time>2026-03-28T07:47:31.978Z</time></trkpt><trkpt lat="43.9492672" lon="11.2511"><ele>592.2857142857142</ele><time>2026-03-28T07:47:33.946Z</time></trkpt><trkpt lat="43.9493117" lon="11.2510134"><ele>590.8571428571429</ele><time>2026-03-28T07:47:35.98Z</time></trkpt><trkpt lat="43.949355" lon="11.2509241"><ele>589.4285714285714</ele><time>2026-03-28T07:47:37.99Z</time></trkpt><trkpt lat="43.9494061" lon="11.2508545"><ele>588.0</ele><time>2026-03-28T07:47:39.979Z</time></trkpt><trkpt lat="43.9494589" lon="11.250787"><ele>586.8571428571429</ele><time>2026-03-28T07:47:42.972Z</time></trkpt><trkpt lat="43.9495208" lon="11.2507568"><ele>585.7142857142858</ele><time>2026-03-28T07:47:46.003Z</time></trkpt><trkpt lat="43.9495893" lon="11.2507732"><ele>584.5714285714286</ele><time>2026-03-28T07:47:48.983Z</time></trkpt><trkpt lat="43.9496652" lon="11.2507781"><ele>583.4285714285714</ele><time>2026-03-28T07:47:53.036Z</time></trkpt><trkpt lat="43.949733" lon="11.2507099"><ele>582.2857142857143</ele><time>2026-03-28T07:47:56.97Z</time></trkpt><trkpt lat="43.9497872" lon="11.2506554"><ele>581.1428571428571</ele><time>2026-03-28T07:47:59.961Z</time></trkpt><trkpt lat="43.9498549" lon="11.2505982"><ele>580.0</ele><time>2026-03-28T07:48:04.032Z</time></trkpt><trkpt lat="43.9499026" lon="11.2505243"><ele>578.8333333333334</ele><time>2026-03-28T07:48:06.973Z</time></trkpt><trkpt lat="43.9499442" lon="11.2504364"><ele>577.6666666666667</ele><time>2026-03-28T07:48:09.97Z</time></trkpt><trkpt lat="43.9499641" lon="11.2503344"><ele>576.5</ele><time>2026-03-28T07:48:12.961Z</time></trkpt><trkpt lat="43.9499762" lon="11.2502214"><ele>575.3333333333334</ele><time>2026-03-28T07:48:15.967Z</time></trkpt><trkpt lat="43.9499906" lon="11.2501203"><ele>574.1666666666666</ele><time>2026-03-28T07:48:18.963Z</time></trkpt><trkpt lat="43.9500121" lon="11.2500159"><ele>573.0</ele><time>2026-03-28T07:48:22.964Z</time></trkpt><trkpt lat="43.9500448" lon="11.2499169"><ele>572.2857142857143</ele><time>2026-03-28T07:48:26.964Z</time></trkpt><trkpt lat="43.9501116" lon="11.2499403"><ele>571.5714285714287</ele><time>2026-03-28T07:48:32.974Z</time></trkpt><trkpt lat="43.9501494" lon="11.2500239"><ele>570.8571428571429</ele><time>2026-03-28T07:48:35.967Z</time></trkpt><trkpt lat="43.9501924" lon="11.2501359"><ele>570.1428571428571</ele><time>2026-03-28T07:48:38.97Z</time></trkpt><trkpt lat="43.950224" lon="11.2502157"><ele>569.4285714285713</ele><time>2026-03-28T07:48:41.967Z</time></trkpt><trkpt lat="43.9502513" lon="11.2502997"><ele>568.7142857142857</ele><time>2026-03-28T07:48:44.973Z</time></trkpt><trkpt lat="43.9502941" lon="11.2503897"><ele>568.0</ele><time>2026-03-28T07:48:47.967Z</time></trkpt><trkpt lat="43.9503337" lon="11.2504987"><ele>568.0</ele><time>2026-03-28T07:48:50.955Z</time></trkpt><trkpt lat="43.950386" lon="11.2505773"><ele>568.0</ele><time>2026-03-28T07:48:53.977Z</time></trkpt><trkpt lat="43.9504567" lon="11.2507282"><ele>568.0</ele><time>2026-03-28T07:49:12.968Z</time></trkpt><trkpt lat="43.9505283" lon="11.2507179"><ele>568.0</ele><time>2026-03-28T07:49:17.964Z</time></trkpt><trkpt lat="43.9506012" lon="11.2507171"><ele>568.0</ele><time>2026-03-28T07:49:20.962Z</time></trkpt><trkpt lat="43.9506604" lon="11.2507679"><ele>568.0</ele><time>2026-03-28T07:49:23.981Z</time></trkpt><trkpt lat="43.9507181" lon="11.250826"><ele>568.3333333333334</ele><time>2026-03-28T07:49:26.971Z</time></trkpt><trkpt lat="43.950807" lon="11.2508767"><ele>568.6666666666667</ele><time>2026-03-28T07:49:32.968Z</time></trkpt><trkpt lat="43.9509037" lon="11.2508448"><ele>569.0</ele><time>2026-03-28T07:49:38.965Z</time></trkpt><trkpt lat="43.9509707" lon="11.2508821"><ele>569.3333333333334</ele><time>2026-03-28T07:49:44.944Z</time></trkpt><trkpt lat="43.9510479" lon="11.250897"><ele>569.6666666666666</ele><time>2026-03-28T07:49:50.969Z</time></trkpt><trkpt lat="43.9511146" lon="11.2508693"><ele>570.0</ele><time>2026-03-28T07:49:53.956Z</time></trkpt><trkpt lat="43.9512046" lon="11.2508538"><ele>570.5</ele><time>2026-03-28T07:49:56.97Z</time></trkpt><trkpt lat="43.9513122" lon="11.2508283"><ele>571.0</ele><time>2026-03-28T07:49:58.975Z</time></trkpt><trkpt lat="43.9514033" lon="11.2507686"><ele>571.5</ele><time>2026-03-28T07:50:00.97Z</time></trkpt><trkpt lat="43.9514654" lon="11.2507154"><ele>572.0</ele><time>2026-03-28T07:50:02.972Z</time></trkpt><trkpt lat="43.951511" lon="11.2506374"><ele>572.5</ele><time>2026-03-28T07:50:05.964Z</time></trkpt><trkpt lat="43.9515825" lon="11.2505991"><ele>573.0</ele><time>2026-03-28T07:50:08.964Z</time></trkpt><trkpt lat="43.9516453" lon="11.2506068"><ele>573.5</ele><time>2026-03-28T07:50:10.967Z</time></trkpt><trkpt lat="43.9517356" lon="11.2506421"><ele>574.0</ele><time>2026-03-28T07:50:13.953Z</time></trkpt><trkpt lat="43.9517977" lon="11.2506737"><ele>574.5</ele><time>2026-03-28T07:50:15.967Z</time></trkpt><trkpt lat="43.9518762" lon="11.2507007"><ele>575.0</ele><time>2026-03-28T07:50:17.968Z</time></trkpt><trkpt lat="43.9519632" lon="11.2507341"><ele>575.5</ele><time>2026-03-28T07:50:19.958Z</time></trkpt><trkpt lat="43.9520528" lon="11.2507887"><ele>576.0</ele><time>2026-03-28T07:50:21.971Z</time></trkpt><trkpt lat="43.9521311" lon="11.2508194"><ele>576.0</ele><time>2026-03-28T07:50:23.963Z</time></trkpt><trkpt lat="43.9522396" lon="11.2508612"><ele>576.0</ele><time>2026-03-28T07:50:25.965Z</time></trkpt><trkpt lat="43.9523218" lon="11.2508617"><ele>576.0</ele><time>2026-03-28T07:50:27.969Z</time></trkpt><trkpt lat="43.9524257" lon="11.2508733"><ele>576.0</ele><time>2026-03-28T07:50:30.96Z</time></trkpt><trkpt lat="43.9525128" lon="11.2508643"><ele>576.0</ele><time>2026-03-28T07:50:32.959Z</time></trkpt><trkpt lat="43.9525838" lon="11.250828"><ele>575.0</ele><time>2026-03-28T07:50:34.955Z</time></trkpt><trkpt lat="43.9526537" lon="11.2507757"><ele>574.0</ele><time>2026-03-28T07:50:36.961Z</time></trkpt><trkpt lat="43.9527128" lon="11.250713"><ele>573.0</ele><time>2026-03-28T07:50:38.965Z</time></trkpt><trkpt lat="43.9527622" lon="11.2506295"><ele>572.0</ele><time>2026-03-28T07:50:40.96Z</time></trkpt><trkpt lat="43.9528146" lon="11.2505495"><ele>571.0</ele><time>2026-03-28T07:50:42.96Z</time></trkpt><trkpt lat="43.9528666" lon="11.2504784"><ele>570.0</ele><time>2026-03-28T07:50:45.972Z</time></trkpt><trkpt lat="43.9529237" lon="11.2504002"><ele>569.0</ele><time>2026-03-28T07:50:48.968Z</time></trkpt><trkpt lat="43.9529856" lon="11.2503164"><ele>568.0</ele><time>2026-03-28T07:50:51.967Z</time></trkpt><trkpt lat="43.953063" lon="11.2502733"><ele>567.0</ele><time>2026-03-28T07:50:54.98Z</time></trkpt><trkpt lat="43.9531527" lon="11.250272"><ele>566.0</ele><time>2026-03-28T07:50:57.973Z</time></trkpt><trkpt lat="43.9532231" lon="11.2502701"><ele>565.0</ele><time>2026-03-28T07:51:00.97Z</time></trkpt><trkpt lat="43.9532919" lon="11.2503341"><ele>564.0</ele><time>2026-03-28T07:51:03.947Z</time></trkpt><trkpt lat="43.9533431" lon="11.250419"><ele>564.6666666666666</ele><time>2026-03-28T07:51:06.959Z</time></trkpt><trkpt lat="43.9533868" lon="11.2505122"><ele>565.3333333333334</ele><time>2026-03-28T07:51:09.968Z</time></trkpt><trkpt lat="43.9534363" lon="11.2506151"><ele>566.0</ele><time>2026-03-28T07:51:12.955Z</time></trkpt><trkpt lat="43.9534818" lon="11.2507218"><ele>566.6666666666667</ele><time>2026-03-28T07:51:15.964Z</time></trkpt><trkpt lat="43.9535135" lon="11.2508145"><ele>567.3333333333334</ele><time>2026-03-28T07:51:18.965Z</time></trkpt><trkpt lat="43.9535356" lon="11.2509252"><ele>568.0</ele><time>2026-03-28T07:51:22.975Z</time></trkpt><trkpt lat="43.9535517" lon="11.2510214"><ele>568.6666666666667</ele><time>2026-03-28T07:51:25.953Z</time></trkpt><trkpt lat="43.9535806" lon="11.2511401"><ele>569.3333333333334</ele><time>2026-03-28T07:51:28.97Z</time></trkpt><trkpt lat="43.9535944" lon="11.2512325"><ele>570.0</ele><time>2026-03-28T07:51:30.969Z</time></trkpt><trkpt lat="43.9536084" lon="11.2513208"><ele>570.6666666666666</ele><time>2026-03-28T07:51:32.952Z</time></trkpt><trkpt lat="43.95362" lon="11.2514266"><ele>571.3333333333333</ele><time>2026-03-28T07:51:35.977Z</time></trkpt><trkpt lat="43.9536326" lon="11.2515284"><ele>572.0</ele><time>2026-03-28T07:51:38.975Z</time></trkpt><trkpt lat="43.9536559" lon="11.25163"><ele>569.3333333333333</ele><time>2026-03-28T07:51:41.968Z</time></trkpt><trkpt lat="43.9536605" lon="11.251734"><ele>566.6666666666666</ele><time>2026-03-28T07:51:44.949Z</time></trkpt><trkpt lat="43.9536471" lon="11.2518599"><ele>564.0</ele><time>2026-03-28T07:51:48.027Z</time></trkpt><trkpt lat="43.9536338" lon="11.2519762"><ele>561.3333333333334</ele><time>2026-03-28T07:51:50.977Z</time></trkpt><trkpt lat="43.9536201" lon="11.2520731"><ele>558.6666666666667</ele><time>2026-03-28T07:51:53.971Z</time></trkpt><trkpt lat="43.9535957" lon="11.2521762"><ele>556.0</ele><time>2026-03-28T07:51:56.963Z</time></trkpt><trkpt lat="43.9535496" lon="11.2522746"><ele>553.3333333333334</ele><time>2026-03-28T07:51:59.988Z</time></trkpt><trkpt lat="43.9535173" lon="11.2523599"><ele>550.6666666666667</ele><time>2026-03-28T07:52:01.983Z</time></trkpt><trkpt lat="43.9534989" lon="11.2524582"><ele>548.0</ele><time>2026-03-28T07:52:05.047Z</time></trkpt><trkpt lat="43.9534834" lon="11.2525618"><ele>545.3333333333334</ele><time>2026-03-28T07:52:07.953Z</time></trkpt><trkpt lat="43.9534765" lon="11.2526544"><ele>542.6666666666666</ele><time>2026-03-28T07:52:10.966Z</time></trkpt><trkpt lat="43.9534638" lon="11.252798"><ele>540.0</ele><time>2026-03-28T07:52:13.974Z</time></trkpt><trkpt lat="43.9534495" lon="11.2529028"><ele>540.0</ele><time>2026-03-28T07:52:15.976Z</time></trkpt><trkpt lat="43.9534289" lon="11.2529883"><ele>540.0</ele><time>2026-03-28T07:52:17.985Z</time></trkpt><trkpt lat="43.9533973" lon="11.2530694"><ele>540.0</ele><time>2026-03-28T07:52:19.985Z</time></trkpt><trkpt lat="43.9533474" lon="11.2531871"><ele>540.0</ele><time>2026-03-28T07:52:23.035Z</time></trkpt><trkpt lat="43.9533052" lon="11.2532712"><ele>540.0</ele><time>2026-03-28T07:52:24.968Z</time></trkpt><trkpt lat="43.9532506" lon="11.2533556"><ele>540.0</ele><time>2026-03-28T07:52:27.968Z</time></trkpt><trkpt lat="43.9531891" lon="11.2534447"><ele>541.0</ele><time>2026-03-28T07:52:30.969Z</time></trkpt><trkpt lat="43.9531199" lon="11.2535154"><ele>542.0</ele><time>2026-03-28T07:52:33.978Z</time></trkpt><trkpt lat="43.9530624" lon="11.2535521"><ele>543.0</ele><time>2026-03-28T07:52:35.974Z</time></trkpt><trkpt lat="43.9530078" lon="11.2535963"><ele>544.0</ele><time>2026-03-28T07:52:37.978Z</time></trkpt><trkpt lat="43.9529472" lon="11.2536476"><ele>545.0</ele><time>2026-03-28T07:52:39.981Z</time></trkpt><trkpt lat="43.9528952" lon="11.2537048"><ele>546.0</ele><time>2026-03-28T07:52:41.977Z</time></trkpt><trkpt lat="43.9528389" lon="11.2537691"><ele>547.0</ele><time>2026-03-28T07:52:43.981Z</time></trkpt><trkpt lat="43.9527844" lon="11.2538237"><ele>547.0</ele><time>2026-03-28T07:52:45.957Z</time></trkpt><trkpt lat="43.9527365" lon="11.2539178"><ele>547.0</ele><time>2026-03-28T07:52:48.957Z</time></trkpt><trkpt lat="43.9526869" lon="11.2540187"><ele>547.0</ele><time>2026-03-28T07:52:51.976Z</time></trkpt><trkpt lat="43.9526592" lon="11.2541043"><ele>547.0</ele><time>2026-03-28T07:52:53.973Z</time></trkpt><trkpt lat="43.9526391" lon="11.2541882"><ele>547.0</ele><time>2026-03-28T07:52:55.968Z</time></trkpt><trkpt lat="43.9526393" lon="11.2542966"><ele>547.0</ele><time>2026-03-28T07:52:58.982Z</time></trkpt><trkpt lat="43.9526562" lon="11.2543986"><ele>545.5</ele><time>2026-03-28T07:53:01.968Z</time></trkpt><trkpt lat="43.9526735" lon="11.2544987"><ele>544.0</ele><time>2026-03-28T07:53:04.967Z</time></trkpt><trkpt lat="43.9526851" lon="11.2546041"><ele>542.5</ele><time>2026-03-28T07:53:07.974Z</time></trkpt><trkpt lat="43.9526785" lon="11.2547283"><ele>541.0</ele><time>2026-03-28T07:53:10.963Z</time></trkpt><trkpt lat="43.9526671" lon="11.2548453"><ele>539.5</ele><time>2026-03-28T07:53:13.962Z</time></trkpt><trkpt lat="43.9526439" lon="11.2549669"><ele>538.0</ele><time>2026-03-28T07:53:16.957Z</time></trkpt><trkpt lat="43.9526077" lon="11.2550733"><ele>537.8333333333334</ele><time>2026-03-28T07:53:19.035Z</time></trkpt><trkpt lat="43.9525944" lon="11.2551592"><ele>537.6666666666667</ele><time>2026-03-28T07:53:20.031Z</time></trkpt><trkpt lat="43.9525718" lon="11.2552669"><ele>537.5</ele><time>2026-03-28T07:53:20.986Z</time></trkpt><trkpt lat="43.9525463" lon="11.2554004"><ele>537.3333333333334</ele><time>2026-03-28T07:53:22.974Z</time></trkpt><trkpt lat="43.9525137" lon="11.2555014"><ele>537.1666666666666</ele><time>2026-03-28T07:53:31.954Z</time></trkpt><trkpt lat="43.9524589" lon="11.2555839"><ele>537.0</ele><time>2026-03-28T07:53:41.984Z</time></trkpt><trkpt lat="43.9523966" lon="11.2556827"><ele>538.3333333333334</ele><time>2026-03-28T07:53:44.997Z</time></trkpt><trkpt lat="43.9523643" lon="11.2557608"><ele>539.6666666666666</ele><time>2026-03-28T07:53:46.99Z</time></trkpt><trkpt lat="43.9523995" lon="11.2558783"><ele>541.0</ele><time>2026-03-28T07:53:49.999Z</time></trkpt><trkpt lat="43.9524545" lon="11.2559259"><ele>542.3333333333333</ele><time>2026-03-28T07:53:52.012Z</time></trkpt><trkpt lat="43.9525137" lon="11.2560239"><ele>543.6666666666666</ele><time>2026-03-28T07:53:54.973Z</time></trkpt><trkpt lat="43.9525512" lon="11.256132"><ele>545.0</ele><time>2026-03-28T07:53:57.99Z</time></trkpt><trkpt lat="43.9525354" lon="11.2562226"><ele>545.0</ele><time>2026-03-28T07:54:01.973Z</time></trkpt><trkpt lat="43.9525413" lon="11.2561275"><ele>545.0</ele><time>2026-03-28T07:57:28.96Z</time></trkpt><trkpt lat="43.9524965" lon="11.25605"><ele>545.0</ele><time>2026-03-28T07:57:31.964Z</time></trkpt><trkpt lat="43.9524284" lon="11.2559583"><ele>545.0</ele><time>2026-03-28T07:57:34.963Z</time></trkpt><trkpt lat="43.9523599" lon="11.2558813"><ele>545.0</ele><time>2026-03-28T07:57:37.975Z</time></trkpt><trkpt lat="43.9523148" lon="11.255786"><ele>545.0</ele><time>2026-03-28T07:57:40.966Z</time></trkpt><trkpt lat="43.9523645" lon="11.255674"><ele>543.6666666666666</ele><time>2026-03-28T07:57:43.979Z</time></trkpt><trkpt lat="43.9524288" lon="11.2555968"><ele>542.3333333333333</ele><time>2026-03-28T07:57:45.971Z</time></trkpt><trkpt lat="43.9525018" lon="11.2555347"><ele>541.0</ele><time>2026-03-28T07:57:48.946Z</time></trkpt><trkpt lat="43.9525924" lon="11.2555136"><ele>539.6666666666666</ele><time>2026-03-28T07:57:51.965Z</time></trkpt><trkpt lat="43.9526603" lon="11.2554999"><ele>538.3333333333334</ele><time>2026-03-28T07:57:53.975Z</time></trkpt><trkpt lat="43.9527297" lon="11.255505"><ele>537.0</ele><time>2026-03-28T07:57:55.964Z</time></trkpt><trkpt lat="43.9527985" lon="11.255512"><ele>536.9999999999999</ele><time>2026-03-28T07:57:57.97Z</time></trkpt><trkpt lat="43.9528872" lon="11.255516"><ele>537.0</ele><time>2026-03-28T07:58:00.954Z</time></trkpt><trkpt lat="43.9529494" lon="11.2555332"><ele>537.0</ele><time>2026-03-28T07:58:02.963Z</time></trkpt><trkpt lat="43.9530207" lon="11.2555636"><ele>537.0</ele><time>2026-03-28T07:58:04.961Z</time></trkpt><trkpt lat="43.9530782" lon="11.2556058"><ele>537.0</ele><time>2026-03-28T07:58:06.951Z</time></trkpt><trkpt lat="43.9531368" lon="11.2556392"><ele>536.9999999999999</ele><time>2026-03-28T07:58:08.966Z</time></trkpt><trkpt lat="43.9532079" lon="11.25567"><ele>537.0</ele><time>2026-03-28T07:58:11.959Z</time></trkpt><trkpt lat="43.9532819" lon="11.2556835"><ele>538.3333333333334</ele><time>2026-03-28T07:58:14.965Z</time></trkpt><trkpt lat="43.953344" lon="11.2557138"><ele>539.6666666666666</ele><time>2026-03-28T07:58:16.962Z</time></trkpt><trkpt lat="43.9534045" lon="11.2558022"><ele>541.0</ele><time>2026-03-28T07:58:19.964Z</time></trkpt><trkpt lat="43.9534531" lon="11.2558849"><ele>542.3333333333333</ele><time>2026-03-28T07:58:22.961Z</time></trkpt><trkpt lat="43.9535046" lon="11.2559603"><ele>543.6666666666666</ele><time>2026-03-28T07:58:25.947Z</time></trkpt><trkpt lat="43.9535799" lon="11.2560023"><ele>545.0</ele><time>2026-03-28T07:58:29.962Z</time></trkpt><trkpt lat="43.9536527" lon="11.2560259"><ele>541.7142857142858</ele><time>2026-03-28T07:58:32.968Z</time></trkpt><trkpt lat="43.9537403" lon="11.2560583"><ele>538.4285714285714</ele><time>2026-03-28T07:58:35.963Z</time></trkpt><trkpt lat="43.9538047" lon="11.2560719"><ele>535.1428571428571</ele><time>2026-03-28T07:58:37.956Z</time></trkpt><trkpt lat="43.9538749" lon="11.25606"><ele>531.8571428571429</ele><time>2026-03-28T07:58:40.975Z</time></trkpt><trkpt lat="43.9539396" lon="11.2560703"><ele>528.5714285714286</ele><time>2026-03-28T07:58:44.965Z</time></trkpt><trkpt lat="43.954011" lon="11.2561234"><ele>525.2857142857143</ele><time>2026-03-28T07:58:48.966Z</time></trkpt><trkpt lat="43.954077" lon="11.2561693"><ele>522.0</ele><time>2026-03-28T07:58:53.96Z</time></trkpt><trkpt lat="43.9541488" lon="11.2562288"><ele>520.0</ele><time>2026-03-28T07:58:56.962Z</time></trkpt><trkpt lat="43.9542173" lon="11.2562957"><ele>518.0</ele><time>2026-03-28T07:58:59.965Z</time></trkpt><trkpt lat="43.9542846" lon="11.2563402"><ele>516.0</ele><time>2026-03-28T07:59:01.963Z</time></trkpt><trkpt lat="43.9543452" lon="11.2563899"><ele>514.0</ele><time>2026-03-28T07:59:03.971Z</time></trkpt><trkpt lat="43.954408" lon="11.2564377"><ele>512.0</ele><time>2026-03-28T07:59:05.975Z</time></trkpt><trkpt lat="43.9544731" lon="11.2564871"><ele>510.0</ele><time>2026-03-28T07:59:07.978Z</time></trkpt><trkpt lat="43.9545249" lon="11.2565425"><ele>508.0</ele><time>2026-03-28T07:59:09.972Z</time></trkpt><trkpt lat="43.9545794" lon="11.2565865"><ele>508.00000000000006</ele><time>2026-03-28T07:59:12.054Z</time></trkpt><trkpt lat="43.9546556" lon="11.256618"><ele>508.0</ele><time>2026-03-28T07:59:15.037Z</time></trkpt><trkpt lat="43.9547315" lon="11.2566352"><ele>508.0</ele><time>2026-03-28T07:59:17.974Z</time></trkpt><trkpt lat="43.9548067" lon="11.2566542"><ele>508.0</ele><time>2026-03-28T07:59:20.96Z</time></trkpt><trkpt lat="43.9548907" lon="11.2566871"><ele>508.00000000000006</ele><time>2026-03-28T07:59:24.945Z</time></trkpt><trkpt lat="43.9549655" lon="11.2567427"><ele>508.0</ele><time>2026-03-28T07:59:27.962Z</time></trkpt><trkpt lat="43.9550416" lon="11.256795"><ele>504.6666666666667</ele><time>2026-03-28T07:59:30.951Z</time></trkpt><trkpt lat="43.9550993" lon="11.2568375"><ele>501.33333333333337</ele><time>2026-03-28T07:59:33.962Z</time></trkpt><trkpt lat="43.9551617" lon="11.2568704"><ele>498.0</ele><time>2026-03-28T07:59:40.947Z</time></trkpt><trkpt lat="43.95526" lon="11.2568888"><ele>494.66666666666663</ele><time>2026-03-28T07:59:59.969Z</time></trkpt><trkpt lat="43.9553256" lon="11.2569139"><ele>491.3333333333333</ele><time>2026-03-28T08:00:26.951Z</time></trkpt><trkpt lat="43.955394" lon="11.2569665"><ele>488.0</ele><time>2026-03-28T08:00:31.951Z</time></trkpt><trkpt lat="43.9554618" lon="11.2570094"><ele>487.99999999999994</ele><time>2026-03-28T08:00:36.036Z</time></trkpt><trkpt lat="43.9555362" lon="11.2570599"><ele>488.0</ele><time>2026-03-28T08:00:38.972Z</time></trkpt><trkpt lat="43.9556241" lon="11.2571032"><ele>487.99999999999994</ele><time>2026-03-28T08:00:41.972Z</time></trkpt><trkpt lat="43.9556854" lon="11.2571343"><ele>487.99999999999994</ele><time>2026-03-28T08:00:43.976Z</time></trkpt><trkpt lat="43.9557535" lon="11.2571732"><ele>488.0</ele><time>2026-03-28T08:00:45.972Z</time></trkpt><trkpt lat="43.9558141" lon="11.257213"><ele>487.99999999999994</ele><time>2026-03-28T08:00:47.976Z</time></trkpt><trkpt lat="43.955875" lon="11.2572503"><ele>487.99999999999994</ele><time>2026-03-28T08:00:49.967Z</time></trkpt><trkpt lat="43.9559432" lon="11.2572921"><ele>483.4</ele><time>2026-03-28T08:00:51.981Z</time></trkpt><trkpt lat="43.9560073" lon="11.257345"><ele>478.79999999999995</ele><time>2026-03-28T08:00:53.97Z</time></trkpt><trkpt lat="43.9560501" lon="11.2574297"><ele>474.2</ele><time>2026-03-28T08:00:55.977Z</time></trkpt><trkpt lat="43.9560795" lon="11.2575762"><ele>469.6</ele><time>2026-03-28T08:00:57.968Z</time></trkpt><trkpt lat="43.9560845" lon="11.257716"><ele>465.0</ele><time>2026-03-28T08:00:59.969Z</time></trkpt><trkpt lat="43.9560959" lon="11.2578591"><ele>465.0</ele><time>2026-03-28T08:01:01.974Z</time></trkpt><trkpt lat="43.9561146" lon="11.2579971"><ele>465.0</ele><time>2026-03-28T08:01:03.974Z</time></trkpt><trkpt lat="43.9561536" lon="11.2581359"><ele>465.0</ele><time>2026-03-28T08:01:05.967Z</time></trkpt><trkpt lat="43.9562093" lon="11.2582488"><ele>465.0</ele><time>2026-03-28T08:01:07.973Z</time></trkpt><trkpt lat="43.9562814" lon="11.2583653"><ele>465.0</ele><time>2026-03-28T08:01:09.979Z</time></trkpt><trkpt lat="43.9563555" lon="11.2584813"><ele>465.8</ele><time>2026-03-28T08:01:11.97Z</time></trkpt><trkpt lat="43.9564573" lon="11.2585687"><ele>466.6</ele><time>2026-03-28T08:01:13.974Z</time></trkpt><trkpt lat="43.9565603" lon="11.2586319"><ele>467.4</ele><time>2026-03-28T08:01:15.983Z</time></trkpt><trkpt lat="43.9566563" lon="11.2587013"><ele>468.2</ele><time>2026-03-28T08:01:17.971Z</time></trkpt><trkpt lat="43.9567452" lon="11.2587843"><ele>469.0</ele><time>2026-03-28T08:01:19.982Z</time></trkpt><trkpt lat="43.9568235" lon="11.2588821"><ele>463.79999999999995</ele><time>2026-03-28T08:01:21.973Z</time></trkpt><trkpt lat="43.9568836" lon="11.258969"><ele>458.59999999999997</ele><time>2026-03-28T08:01:23.979Z</time></trkpt><trkpt lat="43.9569195" lon="11.2590751"><ele>453.4</ele><time>2026-03-28T08:01:25.959Z</time></trkpt><trkpt lat="43.9569241" lon="11.2592071"><ele>448.2</ele><time>2026-03-28T08:01:27.968Z</time></trkpt><trkpt lat="43.9569402" lon="11.2593368"><ele>443.0</ele><time>2026-03-28T08:01:29.954Z</time></trkpt><trkpt lat="43.9569602" lon="11.2594697"><ele>443.0</ele><time>2026-03-28T08:01:31.978Z</time></trkpt><trkpt lat="43.9569493" lon="11.2596156"><ele>442.99999999999994</ele><time>2026-03-28T08:01:33.982Z</time></trkpt><trkpt lat="43.956943" lon="11.2597455"><ele>442.99999999999994</ele><time>2026-03-28T08:01:35.98Z</time></trkpt><trkpt lat="43.9569545" lon="11.2598571"><ele>443.0</ele><time>2026-03-28T08:01:37.976Z</time></trkpt><trkpt lat="43.9569752" lon="11.2599651"><ele>443.0</ele><time>2026-03-28T08:01:39.985Z</time></trkpt><trkpt lat="43.9570111" lon="11.2600932"><ele>442.49999999999994</ele><time>2026-03-28T08:01:41.974Z</time></trkpt><trkpt lat="43.9570515" lon="11.2602113"><ele>442.0</ele><time>2026-03-28T08:01:43.986Z</time></trkpt><trkpt lat="43.9570855" lon="11.2603236"><ele>441.5</ele><time>2026-03-28T08:01:45.984Z</time></trkpt><trkpt lat="43.9570834" lon="11.2604255"><ele>441.0</ele><time>2026-03-28T08:01:47.957Z</time></trkpt><trkpt lat="43.9570667" lon="11.2605418"><ele>440.49999999999994</ele><time>2026-03-28T08:01:49.97Z</time></trkpt><trkpt lat="43.9570677" lon="11.2606728"><ele>440.0</ele><time>2026-03-28T08:01:51.979Z</time></trkpt><trkpt lat="43.9570934" lon="11.2607922"><ele>440.0</ele><time>2026-03-28T08:01:54.035Z</time></trkpt><trkpt lat="43.957144" lon="11.2609256"><ele>440.0</ele><time>2026-03-28T08:01:55.976Z</time></trkpt><trkpt lat="43.9572001" lon="11.2610587"><ele>440.0</ele><time>2026-03-28T08:01:57.965Z</time></trkpt><trkpt lat="43.9572395" lon="11.261195"><ele>440.0</ele><time>2026-03-28T08:02:00.02Z</time></trkpt><trkpt lat="43.9572343" lon="11.2613341"><ele>440.0</ele><time>2026-03-28T08:02:02.029Z</time></trkpt><trkpt lat="43.957237" lon="11.2614783"><ele>439.8</ele><time>2026-03-28T08:02:03.955Z</time></trkpt><trkpt lat="43.9572566" lon="11.261618"><ele>439.6</ele><time>2026-03-28T08:02:05.96Z</time></trkpt><trkpt lat="43.9572632" lon="11.2617811"><ele>439.4</ele><time>2026-03-28T08:02:07.965Z</time></trkpt><trkpt lat="43.9572809" lon="11.2619471"><ele>439.2</ele><time>2026-03-28T08:02:10.032Z</time></trkpt><trkpt lat="43.9573025" lon="11.2620688"><ele>439.0</ele><time>2026-03-28T08:02:12.027Z</time></trkpt><trkpt lat="43.9573283" lon="11.2621497"><ele>439.0</ele><time>2026-03-28T08:02:13.957Z</time></trkpt><trkpt lat="43.9573772" lon="11.2622616"><ele>439.0</ele><time>2026-03-28T08:02:16.955Z</time></trkpt><trkpt lat="43.957459" lon="11.2623345"><ele>439.0</ele><time>2026-03-28T08:02:18.961Z</time></trkpt><trkpt lat="43.9575367" lon="11.2624403"><ele>439.0</ele><time>2026-03-28T08:02:20.961Z</time></trkpt><trkpt lat="43.9575965" lon="11.2625305"><ele>439.0</ele><time>2026-03-28T08:02:22.967Z</time></trkpt><trkpt lat="43.9576562" lon="11.2625791"><ele>436.83333333333337</ele><time>2026-03-28T08:02:24.976Z</time></trkpt><trkpt lat="43.9577309" lon="11.2626258"><ele>434.6666666666667</ele><time>2026-03-28T08:02:27.961Z</time></trkpt><trkpt lat="43.9577834" lon="11.2626925"><ele>432.5</ele><time>2026-03-28T08:02:30.956Z</time></trkpt><trkpt lat="43.9578423" lon="11.2627474"><ele>430.33333333333337</ele><time>2026-03-28T08:04:05.962Z</time></trkpt><trkpt lat="43.9578792" lon="11.2628227"><ele>428.1666666666667</ele><time>2026-03-28T08:04:08.963Z</time></trkpt><trkpt lat="43.9579374" lon="11.2629102"><ele>426.0</ele><time>2026-03-28T08:04:10.966Z</time></trkpt><trkpt lat="43.957994" lon="11.2629828"><ele>426.0</ele><time>2026-03-28T08:04:12.966Z</time></trkpt><trkpt lat="43.9580451" lon="11.2630444"><ele>426.0</ele><time>2026-03-28T08:04:14.957Z</time></trkpt><trkpt lat="43.9581273" lon="11.2630821"><ele>426.0</ele><time>2026-03-28T08:04:16.961Z</time></trkpt><trkpt lat="43.958221" lon="11.2631054"><ele>426.0</ele><time>2026-03-28T08:04:18.972Z</time></trkpt><trkpt lat="43.958326" lon="11.2631687"><ele>426.0</ele><time>2026-03-28T08:04:20.964Z</time></trkpt><trkpt lat="43.958386" lon="11.263208"><ele>426.0</ele><time>2026-03-28T08:04:21.97Z</time></trkpt><trkpt lat="43.9584876" lon="11.2632951"><ele>427.0</ele><time>2026-03-28T08:04:23.969Z</time></trkpt><trkpt lat="43.9585732" lon="11.2634221"><ele>428.0</ele><time>2026-03-28T08:04:25.963Z</time></trkpt><trkpt lat="43.9586243" lon="11.2634831"><ele>429.0</ele><time>2026-03-28T08:04:26.965Z</time></trkpt><trkpt lat="43.9586785" lon="11.2635289"><ele>430.0</ele><time>2026-03-28T08:04:27.961Z</time></trkpt><trkpt lat="43.9587442" lon="11.2635662"><ele>431.0</ele><time>2026-03-28T08:04:28.96Z</time></trkpt><trkpt lat="43.9588172" lon="11.2635812"><ele>432.0</ele><time>2026-03-28T08:04:29.958Z</time></trkpt><trkpt lat="43.958894" lon="11.263583"><ele>432.0</ele><time>2026-03-28T08:04:30.961Z</time></trkpt><trkpt lat="43.9589675" lon="11.26359"><ele>432.0</ele><time>2026-03-28T08:04:31.96Z</time></trkpt><trkpt lat="43.9590329" lon="11.2636006"><ele>432.0</ele><time>2026-03-28T08:04:32.975Z</time></trkpt><trkpt lat="43.9591014" lon="11.2636059"><ele>432.0</ele><time>2026-03-28T08:04:33.965Z</time></trkpt><trkpt lat="43.9591659" lon="11.2636172"><ele>432.0</ele><time>2026-03-28T08:04:34.964Z</time></trkpt><trkpt lat="43.9592262" lon="11.2636426"><ele>432.0</ele><time>2026-03-28T08:04:35.971Z</time></trkpt><trkpt lat="43.9592871" lon="11.2636729"><ele>432.0</ele><time>2026-03-28T08:04:36.967Z</time></trkpt><trkpt lat="43.959398" lon="11.2637445"><ele>431.0</ele><time>2026-03-28T08:04:38.966Z</time></trkpt><trkpt lat="43.9594982" lon="11.2638306"><ele>430.00000000000006</ele><time>2026-03-28T08:04:40.965Z</time></trkpt><trkpt lat="43.9595482" lon="11.2638846"><ele>429.00000000000006</ele><time>2026-03-28T08:04:41.956Z</time></trkpt><trkpt lat="43.9596395" lon="11.2639949"><ele>428.0</ele><time>2026-03-28T08:04:43.961Z</time></trkpt><trkpt lat="43.9597283" lon="11.2641193"><ele>427.0</ele><time>2026-03-28T08:04:45.967Z</time></trkpt><trkpt lat="43.9597766" lon="11.2641795"><ele>427.0</ele><time>2026-03-28T08:04:46.968Z</time></trkpt><trkpt lat="43.959823" lon="11.2642464"><ele>427.0</ele><time>2026-03-28T08:04:47.965Z</time></trkpt><trkpt lat="43.9598688" lon="11.264321"><ele>427.0</ele><time>2026-03-28T08:04:48.967Z</time></trkpt><trkpt lat="43.9599168" lon="11.2643972"><ele>427.0</ele><time>2026-03-28T08:04:49.964Z</time></trkpt><trkpt lat="43.9599627" lon="11.264474"><ele>427.0</ele><time>2026-03-28T08:04:50.977Z</time></trkpt><trkpt lat="43.9600152" lon="11.2645473"><ele>427.0</ele><time>2026-03-28T08:04:51.965Z</time></trkpt><trkpt lat="43.9600682" lon="11.2646209"><ele>427.0</ele><time>2026-03-28T08:04:52.962Z</time></trkpt><trkpt lat="43.9601197" lon="11.2646867"><ele>425.00000000000006</ele><time>2026-03-28T08:04:53.96Z</time></trkpt><trkpt lat="43.9601749" lon="11.2647522"><ele>423.0</ele><time>2026-03-28T08:04:54.966Z</time></trkpt><trkpt lat="43.9602218" lon="11.2648187"><ele>421.0</ele><time>2026-03-28T08:04:55.968Z</time></trkpt><trkpt lat="43.9603036" lon="11.2649459"><ele>419.0</ele><time>2026-03-28T08:04:57.965Z</time></trkpt><trkpt lat="43.9603491" lon="11.265014"><ele>417.00000000000006</ele><time>2026-03-28T08:04:58.962Z</time></trkpt><trkpt lat="43.9603918" lon="11.2650821"><ele>415.0</ele><time>2026-03-28T08:04:59.955Z</time></trkpt><trkpt lat="43.9604745" lon="11.2651971"><ele>415.0</ele><time>2026-03-28T08:05:01.97Z</time></trkpt><trkpt lat="43.9605638" lon="11.2652967"><ele>415.0</ele><time>2026-03-28T08:05:03.968Z</time></trkpt><trkpt lat="43.9606646" lon="11.2653359"><ele>415.0</ele><time>2026-03-28T08:05:05.959Z</time></trkpt><trkpt lat="43.9607705" lon="11.2653202"><ele>415.0</ele><time>2026-03-28T08:05:07.964Z</time></trkpt><trkpt lat="43.960885" lon="11.2652983"><ele>415.0</ele><time>2026-03-28T08:05:09.966Z</time></trkpt><trkpt lat="43.9609786" lon="11.2652904"><ele>412.2</ele><time>2026-03-28T08:05:11.971Z</time></trkpt><trkpt lat="43.9610579" lon="11.2652533"><ele>409.4</ele><time>2026-03-28T08:05:13.967Z</time></trkpt><trkpt lat="43.9611599" lon="11.2651729"><ele>406.6</ele><time>2026-03-28T08:05:15.958Z</time></trkpt><trkpt lat="43.9612373" lon="11.2650866"><ele>403.8</ele><time>2026-03-28T08:05:17.962Z</time></trkpt><trkpt lat="43.9613105" lon="11.2649642"><ele>401.0</ele><time>2026-03-28T08:05:19.974Z</time></trkpt><trkpt lat="43.96139" lon="11.2648493"><ele>400.6</ele><time>2026-03-28T08:05:21.965Z</time></trkpt><trkpt lat="43.9614677" lon="11.2647408"><ele>400.20000000000005</ele><time>2026-03-28T08:05:23.98Z</time></trkpt><trkpt lat="43.961524" lon="11.2646139"><ele>399.79999999999995</ele><time>2026-03-28T08:05:25.967Z</time></trkpt><trkpt lat="43.9615507" lon="11.2644626"><ele>399.4</ele><time>2026-03-28T08:05:27.965Z</time></trkpt><trkpt lat="43.961557" lon="11.2643023"><ele>399.0</ele><time>2026-03-28T08:05:29.963Z</time></trkpt><trkpt lat="43.9615459" lon="11.2641475"><ele>399.0</ele><time>2026-03-28T08:05:31.954Z</time></trkpt><trkpt lat="43.9615576" lon="11.2639925"><ele>399.0</ele><time>2026-03-28T08:05:33.966Z</time></trkpt><trkpt lat="43.961616" lon="11.2638888"><ele>399.0</ele><time>2026-03-28T08:05:35.959Z</time></trkpt><trkpt lat="43.9616956" lon="11.2638646"><ele>399.0</ele><time>2026-03-28T08:05:37.952Z</time></trkpt><trkpt lat="43.9617737" lon="11.2639187"><ele>399.0</ele><time>2026-03-28T08:05:39.957Z</time></trkpt><trkpt lat="43.961877" lon="11.2640328"><ele>396.6666666666667</ele><time>2026-03-28T08:05:41.962Z</time></trkpt><trkpt lat="43.9619224" lon="11.2641045"><ele>394.33333333333337</ele><time>2026-03-28T08:05:42.976Z</time></trkpt><trkpt lat="43.9619659" lon="11.2641867"><ele>392.0</ele><time>2026-03-28T08:05:43.962Z</time></trkpt><trkpt lat="43.9620102" lon="11.2642706"><ele>389.6666666666667</ele><time>2026-03-28T08:05:44.956Z</time></trkpt><trkpt lat="43.9620495" lon="11.2643419"><ele>387.33333333333337</ele><time>2026-03-28T08:05:45.958Z</time></trkpt><trkpt lat="43.9621093" lon="11.2644444"><ele>385.0</ele><time>2026-03-28T08:05:47.971Z</time></trkpt><trkpt lat="43.9621653" lon="11.2645569"><ele>385.0</ele><time>2026-03-28T08:05:49.967Z</time></trkpt><trkpt lat="43.962241" lon="11.2646952"><ele>385.0</ele><time>2026-03-28T08:05:51.954Z</time></trkpt><trkpt lat="43.9623079" lon="11.2648337"><ele>385.0</ele><time>2026-03-28T08:05:53.969Z</time></trkpt><trkpt lat="43.9623537" lon="11.2649564"><ele>385.0</ele><time>2026-03-28T08:05:55.972Z</time></trkpt><trkpt lat="43.9624049" lon="11.2650895"><ele>385.2</ele><time>2026-03-28T08:05:57.974Z</time></trkpt><trkpt lat="43.9624554" lon="11.2652208"><ele>385.4</ele><time>2026-03-28T08:05:59.971Z</time></trkpt><trkpt lat="43.9625024" lon="11.2653582"><ele>385.6</ele><time>2026-03-28T08:06:01.969Z</time></trkpt><trkpt lat="43.9625614" lon="11.2654671"><ele>385.8</ele><time>2026-03-28T08:06:03.955Z</time></trkpt><trkpt lat="43.9626519" lon="11.2655426"><ele>386.0</ele><time>2026-03-28T08:06:05.972Z</time></trkpt><trkpt lat="43.9627447" lon="11.2656049"><ele>384.20000000000005</ele><time>2026-03-28T08:06:07.96Z</time></trkpt><trkpt lat="43.9628176" lon="11.2656846"><ele>382.40000000000003</ele><time>2026-03-28T08:06:09.974Z</time></trkpt><trkpt lat="43.9629047" lon="11.2657745"><ele>380.6</ele><time>2026-03-28T08:06:11.974Z</time></trkpt><trkpt lat="43.9630025" lon="11.265846"><ele>378.8</ele><time>2026-03-28T08:06:13.953Z</time></trkpt><trkpt lat="43.9630987" lon="11.2658876"><ele>377.0</ele><time>2026-03-28T08:06:15.968Z</time></trkpt><trkpt lat="43.9632161" lon="11.2659088"><ele>377.0</ele><time>2026-03-28T08:06:17.976Z</time></trkpt><trkpt lat="43.9633354" lon="11.265931"><ele>377.0</ele><time>2026-03-28T08:06:19.973Z</time></trkpt><trkpt lat="43.9633981" lon="11.2659444"><ele>377.0</ele><time>2026-03-28T08:06:20.974Z</time></trkpt><trkpt lat="43.9635115" lon="11.2659892"><ele>377.0</ele><time>2026-03-28T08:06:22.962Z</time></trkpt><trkpt lat="43.9636113" lon="11.2660351"><ele>377.0</ele><time>2026-03-28T08:06:24.975Z</time></trkpt><trkpt lat="43.9636943" lon="11.2660965"><ele>375.6666666666667</ele><time>2026-03-28T08:06:26.974Z</time></trkpt><trkpt lat="43.9637845" lon="11.2661726"><ele>374.33333333333337</ele><time>2026-03-28T08:06:28.975Z</time></trkpt><trkpt lat="43.9638405" lon="11.2662168"><ele>373.0</ele><time>2026-03-28T08:06:29.955Z</time></trkpt><trkpt lat="43.9639351" lon="11.2662953"><ele>371.6666666666667</ele><time>2026-03-28T08:06:31.978Z</time></trkpt><trkpt lat="43.9639917" lon="11.2663568"><ele>370.3333333333333</ele><time>2026-03-28T08:06:33.969Z</time></trkpt><trkpt lat="43.9640813" lon="11.2663756"><ele>369.0</ele><time>2026-03-28T08:06:36.976Z</time></trkpt><trkpt lat="43.9641824" lon="11.2663642"><ele>367.79999999999995</ele><time>2026-03-28T08:06:38.967Z</time></trkpt><trkpt lat="43.9643063" lon="11.2663578"><ele>366.59999999999997</ele><time>2026-03-28T08:06:40.969Z</time></trkpt><trkpt lat="43.9643704" lon="11.2663596"><ele>365.4</ele><time>2026-03-28T08:06:41.969Z</time></trkpt><trkpt lat="43.9644969" lon="11.2663634"><ele>364.2</ele><time>2026-03-28T08:06:43.972Z</time></trkpt><trkpt lat="43.9645615" lon="11.2663655"><ele>363.0</ele><time>2026-03-28T08:06:44.975Z</time></trkpt><trkpt lat="43.9646834" lon="11.2663752"><ele>363.0</ele><time>2026-03-28T08:06:46.975Z</time></trkpt><trkpt lat="43.9648032" lon="11.2663776"><ele>363.0</ele><time>2026-03-28T08:06:48.968Z</time></trkpt><trkpt lat="43.964918" lon="11.2663808"><ele>363.0</ele><time>2026-03-28T08:06:50.969Z</time></trkpt><trkpt lat="43.9650288" lon="11.2663821"><ele>363.0</ele><time>2026-03-28T08:06:52.987Z</time></trkpt><trkpt lat="43.9651176" lon="11.2663222"><ele>363.0</ele><time>2026-03-28T08:06:54.979Z</time></trkpt><trkpt lat="43.9651557" lon="11.2661788"><ele>361.6666666666667</ele><time>2026-03-28T08:06:56.964Z</time></trkpt><trkpt lat="43.9651551" lon="11.2660715"><ele>360.3333333333333</ele><time>2026-03-28T08:06:57.975Z</time></trkpt><trkpt lat="43.9651477" lon="11.2659653"><ele>359.0</ele><time>2026-03-28T08:06:58.977Z</time></trkpt><trkpt lat="43.9651426" lon="11.2658472"><ele>357.66666666666663</ele><time>2026-03-28T08:06:59.974Z</time></trkpt><trkpt lat="43.9651421" lon="11.2657421"><ele>356.3333333333333</ele><time>2026-03-28T08:07:00.967Z</time></trkpt><trkpt lat="43.9651512" lon="11.2656375"><ele>355.0</ele><time>2026-03-28T08:07:01.976Z</time></trkpt><trkpt lat="43.9651674" lon="11.265543"><ele>354.3333333333333</ele><time>2026-03-28T08:07:02.967Z</time></trkpt><trkpt lat="43.9651906" lon="11.2654557"><ele>353.66666666666663</ele><time>2026-03-28T08:07:03.972Z</time></trkpt><trkpt lat="43.9652482" lon="11.2653287"><ele>353.0</ele><time>2026-03-28T08:07:05.977Z</time></trkpt><trkpt lat="43.9653721" lon="11.2652946"><ele>352.3333333333333</ele><time>2026-03-28T08:07:07.974Z</time></trkpt><trkpt lat="43.9654368" lon="11.2652858"><ele>351.6666666666667</ele><time>2026-03-28T08:07:08.97Z</time></trkpt><trkpt lat="43.9655154" lon="11.2652725"><ele>351.0</ele><time>2026-03-28T08:07:09.955Z</time></trkpt><trkpt lat="43.9655906" lon="11.26526"><ele>351.0</ele><time>2026-03-28T08:07:10.971Z</time></trkpt><trkpt lat="43.9656602" lon="11.2652565"><ele>351.0</ele><time>2026-03-28T08:07:11.982Z</time></trkpt><trkpt lat="43.9657244" lon="11.2652523"><ele>351.0</ele><time>2026-03-28T08:07:12.971Z</time></trkpt><trkpt lat="43.9657979" lon="11.2652456"><ele>351.0</ele><time>2026-03-28T08:07:13.969Z</time></trkpt><trkpt lat="43.9658615" lon="11.2652454"><ele>351.0</ele><time>2026-03-28T08:07:14.971Z</time></trkpt><trkpt lat="43.9659726" lon="11.2652577"><ele>351.0</ele><time>2026-03-28T08:07:16.974Z</time></trkpt><trkpt lat="43.9660952" lon="11.2652639"><ele>349.0</ele><time>2026-03-28T08:07:18.972Z</time></trkpt><trkpt lat="43.9661691" lon="11.2652652"><ele>347.0</ele><time>2026-03-28T08:07:19.967Z</time></trkpt><trkpt lat="43.9662445" lon="11.2652749"><ele>345.0</ele><time>2026-03-28T08:07:20.97Z</time></trkpt><trkpt lat="43.9663286" lon="11.26528"><ele>343.0</ele><time>2026-03-28T08:07:21.977Z</time></trkpt><trkpt lat="43.9664087" lon="11.2653028"><ele>341.0</ele><time>2026-03-28T08:07:22.974Z</time></trkpt><trkpt lat="43.9664776" lon="11.2653416"><ele>339.0</ele><time>2026-03-28T08:07:23.981Z</time></trkpt><trkpt lat="43.9665449" lon="11.265381"><ele>339.0</ele><time>2026-03-28T08:07:24.973Z</time></trkpt><trkpt lat="43.9666123" lon="11.2654197"><ele>339.0</ele><time>2026-03-28T08:07:25.978Z</time></trkpt><trkpt lat="43.9666679" lon="11.2654621"><ele>339.0</ele><time>2026-03-28T08:07:26.975Z</time></trkpt><trkpt lat="43.9667278" lon="11.2655106"><ele>339.0</ele><time>2026-03-28T08:07:27.973Z</time></trkpt><trkpt lat="43.9667814" lon="11.2655632"><ele>339.0</ele><time>2026-03-28T08:07:28.977Z</time></trkpt><trkpt lat="43.966886" lon="11.2656003"><ele>339.0</ele><time>2026-03-28T08:07:30.975Z</time></trkpt><trkpt lat="43.9669506" lon="11.2655748"><ele>339.0</ele><time>2026-03-28T08:07:31.969Z</time></trkpt><trkpt lat="43.9670694" lon="11.2655162"><ele>336.79999999999995</ele><time>2026-03-28T08:07:33.958Z</time></trkpt><trkpt lat="43.9671287" lon="11.2654745"><ele>334.59999999999997</ele><time>2026-03-28T08:07:34.982Z</time></trkpt><trkpt lat="43.9671981" lon="11.2654234"><ele>332.4</ele><time>2026-03-28T08:07:35.982Z</time></trkpt><trkpt lat="43.9672925" lon="11.2653307"><ele>330.2</ele><time>2026-03-28T08:07:37.983Z</time></trkpt><trkpt lat="43.967372" lon="11.2652373"><ele>328.0</ele><time>2026-03-28T08:07:39.995Z</time></trkpt><trkpt lat="43.9674548" lon="11.2651372"><ele>328.0</ele><time>2026-03-28T08:07:41.959Z</time></trkpt><trkpt lat="43.9675088" lon="11.2650765"><ele>328.0</ele><time>2026-03-28T08:07:42.981Z</time></trkpt><trkpt lat="43.9675714" lon="11.2650236"><ele>328.0</ele><time>2026-03-28T08:07:43.973Z</time></trkpt><trkpt lat="43.9676427" lon="11.2649648"><ele>328.0</ele><time>2026-03-28T08:07:44.975Z</time></trkpt><trkpt lat="43.9677177" lon="11.2649181"><ele>328.0</ele><time>2026-03-28T08:07:45.99Z</time></trkpt><trkpt lat="43.967791" lon="11.2648829"><ele>328.0</ele><time>2026-03-28T08:07:46.982Z</time></trkpt><trkpt lat="43.9678623" lon="11.2648677"><ele>326.0</ele><time>2026-03-28T08:07:47.976Z</time></trkpt><trkpt lat="43.9679391" lon="11.2648462"><ele>324.0</ele><time>2026-03-28T08:07:48.974Z</time></trkpt><trkpt lat="43.9680108" lon="11.264823"><ele>322.0</ele><time>2026-03-28T08:07:49.976Z</time></trkpt><trkpt lat="43.9680796" lon="11.2648023"><ele>320.0</ele><time>2026-03-28T08:07:50.977Z</time></trkpt><trkpt lat="43.9682006" lon="11.2647673"><ele>318.0</ele><time>2026-03-28T08:07:52.984Z</time></trkpt><trkpt lat="43.9682671" lon="11.2647415"><ele>316.0</ele><time>2026-03-28T08:07:53.984Z</time></trkpt><trkpt lat="43.9683293" lon="11.2647162"><ele>313.7142857142857</ele><time>2026-03-28T08:07:54.981Z</time></trkpt><trkpt lat="43.9683994" lon="11.2646909"><ele>311.42857142857144</ele><time>2026-03-28T08:07:55.99Z</time></trkpt><trkpt lat="43.9684712" lon="11.2646693"><ele>309.1428571428571</ele><time>2026-03-28T08:07:56.982Z</time></trkpt><trkpt lat="43.9685386" lon="11.2646481"><ele>306.8571428571429</ele><time>2026-03-28T08:07:57.988Z</time></trkpt><trkpt lat="43.9686098" lon="11.2646259"><ele>304.57142857142856</ele><time>2026-03-28T08:07:59.03Z</time></trkpt><trkpt lat="43.9686758" lon="11.2645985"><ele>302.2857142857143</ele><time>2026-03-28T08:08:00.031Z</time></trkpt><trkpt lat="43.9687398" lon="11.2645558"><ele>300.0</ele><time>2026-03-28T08:08:00.961Z</time></trkpt><trkpt lat="43.9688517" lon="11.2645206"><ele>300.0</ele><time>2026-03-28T08:08:02.969Z</time></trkpt><trkpt lat="43.9689248" lon="11.2645473"><ele>300.0</ele><time>2026-03-28T08:08:04.956Z</time></trkpt><trkpt lat="43.9690083" lon="11.2645397"><ele>300.0</ele><time>2026-03-28T08:08:07.982Z</time></trkpt><trkpt lat="43.9690649" lon="11.2644107"><ele>300.0</ele><time>2026-03-28T08:08:10.042Z</time></trkpt><trkpt lat="43.9690418" lon="11.2642354"><ele>300.0</ele><time>2026-03-28T08:08:11.982Z</time></trkpt><trkpt lat="43.9690169" lon="11.2641357"><ele>300.0</ele><time>2026-03-28T08:08:12.966Z</time></trkpt><trkpt lat="43.9689902" lon="11.2640228"><ele>300.0</ele><time>2026-03-28T08:08:13.951Z</time></trkpt><trkpt lat="43.968972" lon="11.2638889"><ele>300.0</ele><time>2026-03-28T08:08:14.978Z</time></trkpt><trkpt lat="43.9689621" lon="11.2637483"><ele>300.0</ele><time>2026-03-28T08:08:15.954Z</time></trkpt><trkpt lat="43.9689474" lon="11.2636079"><ele>300.0</ele><time>2026-03-28T08:08:16.972Z</time></trkpt><trkpt lat="43.9689396" lon="11.2634856"><ele>298.6666666666667</ele><time>2026-03-28T08:08:17.976Z</time></trkpt><trkpt lat="43.9689394" lon="11.2633768"><ele>297.3333333333333</ele><time>2026-03-28T08:08:18.965Z</time></trkpt><trkpt lat="43.9689491" lon="11.263273"><ele>296.0</ele><time>2026-03-28T08:08:19.958Z</time></trkpt><trkpt lat="43.9689658" lon="11.2631669"><ele>294.66666666666663</ele><time>2026-03-28T08:08:20.971Z</time></trkpt><trkpt lat="43.9690042" lon="11.2630403"><ele>293.3333333333333</ele><time>2026-03-28T08:08:21.977Z</time></trkpt><trkpt lat="43.9690536" lon="11.2629206"><ele>292.0</ele><time>2026-03-28T08:08:22.972Z</time></trkpt><trkpt lat="43.9691118" lon="11.262811"><ele>291.8</ele><time>2026-03-28T08:08:23.97Z</time></trkpt><trkpt lat="43.9691758" lon="11.2627258"><ele>291.6</ele><time>2026-03-28T08:08:25.033Z</time></trkpt><trkpt lat="43.9692567" lon="11.2626331"><ele>291.40000000000003</ele><time>2026-03-28T08:08:25.966Z</time></trkpt><trkpt lat="43.969342" lon="11.2625647"><ele>291.2</ele><time>2026-03-28T08:08:26.972Z</time></trkpt><trkpt lat="43.9694218" lon="11.2624914"><ele>291.0</ele><time>2026-03-28T08:08:27.97Z</time></trkpt><trkpt lat="43.9694993" lon="11.2624235"><ele>289.1666666666667</ele><time>2026-03-28T08:08:29.041Z</time></trkpt><trkpt lat="43.9695742" lon="11.2623563"><ele>287.3333333333333</ele><time>2026-03-28T08:08:30.039Z</time></trkpt><trkpt lat="43.9696481" lon="11.2622921"><ele>285.5</ele><time>2026-03-28T08:08:30.971Z</time></trkpt><trkpt lat="43.9697223" lon="11.2622256"><ele>283.66666666666663</ele><time>2026-03-28T08:08:31.969Z</time></trkpt><trkpt lat="43.96979" lon="11.2621491"><ele>281.8333333333333</ele><time>2026-03-28T08:08:32.979Z</time></trkpt><trkpt lat="43.9698525" lon="11.2620692"><ele>280.0</ele><time>2026-03-28T08:08:34.036Z</time></trkpt><trkpt lat="43.9699163" lon="11.2619864"><ele>280.0</ele><time>2026-03-28T08:08:34.986Z</time></trkpt><trkpt lat="43.9699819" lon="11.2619052"><ele>280.0</ele><time>2026-03-28T08:08:35.965Z</time></trkpt><trkpt lat="43.9700493" lon="11.2618271"><ele>280.0</ele><time>2026-03-28T08:08:36.973Z</time></trkpt><trkpt lat="43.9701028" lon="11.2617487"><ele>280.0</ele><time>2026-03-28T08:08:38.026Z</time></trkpt><trkpt lat="43.9701382" lon="11.26167"><ele>280.0</ele><time>2026-03-28T08:08:38.984Z</time></trkpt><trkpt lat="43.9701267" lon="11.2614847"><ele>278.6</ele><time>2026-03-28T08:08:40.965Z</time></trkpt><trkpt lat="43.9700865" lon="11.2613721"><ele>277.2</ele><time>2026-03-28T08:08:41.969Z</time></trkpt><trkpt lat="43.9700347" lon="11.2612682"><ele>275.8</ele><time>2026-03-28T08:08:42.973Z</time></trkpt><trkpt lat="43.9699825" lon="11.2611648"><ele>274.4</ele><time>2026-03-28T08:08:43.972Z</time></trkpt><trkpt lat="43.9699242" lon="11.2610656"><ele>273.0</ele><time>2026-03-28T08:08:45.023Z</time></trkpt><trkpt lat="43.9698664" lon="11.2609727"><ele>273.0</ele><time>2026-03-28T08:08:45.961Z</time></trkpt><trkpt lat="43.9698302" lon="11.2608673"><ele>273.0</ele><time>2026-03-28T08:08:46.974Z</time></trkpt><trkpt lat="43.9698512" lon="11.2607218"><ele>273.0</ele><time>2026-03-28T08:08:48.975Z</time></trkpt><trkpt lat="43.9699297" lon="11.2606961"><ele>273.0</ele><time>2026-03-28T08:08:51.96Z</time></trkpt><trkpt lat="43.9700132" lon="11.2607661"><ele>273.0</ele><time>2026-03-28T08:08:55.03Z</time></trkpt><trkpt lat="43.9700647" lon="11.2608968"><ele>272.6666666666667</ele><time>2026-03-28T08:08:56.982Z</time></trkpt><trkpt lat="43.970122" lon="11.2610485"><ele>272.3333333333333</ele><time>2026-03-28T08:08:58.981Z</time></trkpt><trkpt lat="43.9701527" lon="11.2611303"><ele>272.0</ele><time>2026-03-28T08:08:59.981Z</time></trkpt><trkpt lat="43.9701834" lon="11.2612151"><ele>271.66666666666663</ele><time>2026-03-28T08:09:00.967Z</time></trkpt><trkpt lat="43.9702138" lon="11.2613044"><ele>271.3333333333333</ele><time>2026-03-28T08:09:01.994Z</time></trkpt><trkpt lat="43.9702462" lon="11.2614038"><ele>271.0</ele><time>2026-03-28T08:09:02.979Z</time></trkpt><trkpt lat="43.9702741" lon="11.261512"><ele>271.0</ele><time>2026-03-28T08:09:03.98Z</time></trkpt><trkpt lat="43.970299" lon="11.2616217"><ele>271.0</ele><time>2026-03-28T08:09:05.029Z</time></trkpt><trkpt lat="43.970324" lon="11.2617334"><ele>271.0</ele><time>2026-03-28T08:09:05.956Z</time></trkpt><trkpt lat="43.9703475" lon="11.2618365"><ele>271.0</ele><time>2026-03-28T08:09:06.973Z</time></trkpt><trkpt lat="43.9703761" lon="11.2619476"><ele>271.0</ele><time>2026-03-28T08:09:07.982Z</time></trkpt><trkpt lat="43.9704076" lon="11.2620652"><ele>271.0</ele><time>2026-03-28T08:09:09.056Z</time></trkpt><trkpt lat="43.9704606" lon="11.2623208"><ele>270.16666666666663</ele><time>2026-03-28T08:09:10.96Z</time></trkpt><trkpt lat="43.9704847" lon="11.2624387"><ele>269.3333333333333</ele><time>2026-03-28T08:09:11.965Z</time></trkpt><trkpt lat="43.9705037" lon="11.2625533"><ele>268.5</ele><time>2026-03-28T08:09:13.015Z</time></trkpt><trkpt lat="43.9705248" lon="11.2626537"><ele>267.6666666666667</ele><time>2026-03-28T08:09:13.945Z</time></trkpt><trkpt lat="43.9705494" lon="11.262749"><ele>266.83333333333337</ele><time>2026-03-28T08:09:15.022Z</time></trkpt><trkpt lat="43.9705803" lon="11.262836"><ele>266.0</ele><time>2026-03-28T08:09:15.95Z</time></trkpt><trkpt lat="43.9706124" lon="11.2629148"><ele>266.0</ele><time>2026-03-28T08:09:16.946Z</time></trkpt><trkpt lat="43.9706472" lon="11.2629919"><ele>266.0</ele><time>2026-03-28T08:09:17.949Z</time></trkpt><trkpt lat="43.9707082" lon="11.2631395"><ele>266.0</ele><time>2026-03-28T08:09:20.019Z</time></trkpt><trkpt lat="43.9707671" lon="11.263264"><ele>266.0</ele><time>2026-03-28T08:09:21.963Z</time></trkpt><trkpt lat="43.9708286" lon="11.2633802"><ele>266.0</ele><time>2026-03-28T08:09:23.981Z</time></trkpt><trkpt lat="43.97089" lon="11.2634793"><ele>265.5</ele><time>2026-03-28T08:09:25.965Z</time></trkpt><trkpt lat="43.9709358" lon="11.2635763"><ele>265.0</ele><time>2026-03-28T08:09:27.97Z</time></trkpt><trkpt lat="43.9709912" lon="11.2636827"><ele>264.5</ele><time>2026-03-28T08:09:29.966Z</time></trkpt><trkpt lat="43.9710584" lon="11.2638104"><ele>264.0</ele><time>2026-03-28T08:09:31.958Z</time></trkpt><trkpt lat="43.9710989" lon="11.2638875"><ele>263.5</ele><time>2026-03-28T08:09:32.965Z</time></trkpt><trkpt lat="43.9711396" lon="11.263969"><ele>263.0</ele><time>2026-03-28T08:09:33.962Z</time></trkpt><trkpt lat="43.9711851" lon="11.2640451"><ele>263.0</ele><time>2026-03-28T08:09:34.966Z</time></trkpt><trkpt lat="43.971229" lon="11.2641251"><ele>263.0</ele><time>2026-03-28T08:09:35.965Z</time></trkpt><trkpt lat="43.9712775" lon="11.2642178"><ele>263.0</ele><time>2026-03-28T08:09:36.956Z</time></trkpt><trkpt lat="43.9713286" lon="11.2643199"><ele>263.0</ele><time>2026-03-28T08:09:37.963Z</time></trkpt><trkpt lat="43.9713829" lon="11.2644356"><ele>263.0</ele><time>2026-03-28T08:09:38.971Z</time></trkpt><trkpt lat="43.9714338" lon="11.2645496"><ele>263.0</ele><time>2026-03-28T08:09:39.972Z</time></trkpt><trkpt lat="43.9714784" lon="11.2646589"><ele>263.0</ele><time>2026-03-28T08:09:40.976Z</time></trkpt><trkpt lat="43.9715227" lon="11.2647595"><ele>263.0</ele><time>2026-03-28T08:09:41.962Z</time></trkpt><trkpt lat="43.9715621" lon="11.2648457"><ele>263.0</ele><time>2026-03-28T08:09:42.96Z</time></trkpt><trkpt lat="43.9715935" lon="11.2649242"><ele>263.0</ele><time>2026-03-28T08:09:43.972Z</time></trkpt><trkpt lat="43.9716198" lon="11.2650046"><ele>263.0</ele><time>2026-03-28T08:09:44.974Z</time></trkpt><trkpt lat="43.9716616" lon="11.265151"><ele>263.0</ele><time>2026-03-28T08:09:46.966Z</time></trkpt><trkpt lat="43.9716937" lon="11.2652846"><ele>261.2</ele><time>2026-03-28T08:09:48.971Z</time></trkpt><trkpt lat="43.9717247" lon="11.265443"><ele>259.4</ele><time>2026-03-28T08:09:50.96Z</time></trkpt><trkpt lat="43.971744" lon="11.2655353"><ele>257.59999999999997</ele><time>2026-03-28T08:09:51.965Z</time></trkpt><trkpt lat="43.9717482" lon="11.2656562"><ele>255.79999999999998</ele><time>2026-03-28T08:09:52.967Z</time></trkpt><trkpt lat="43.9717536" lon="11.2658015"><ele>254.0</ele><time>2026-03-28T08:09:54.034Z</time></trkpt><trkpt lat="43.9717627" lon="11.2659485"><ele>254.0</ele><time>2026-03-28T08:09:55.029Z</time></trkpt><trkpt lat="43.971766" lon="11.2661035"><ele>253.99999999999997</ele><time>2026-03-28T08:09:55.953Z</time></trkpt><trkpt lat="43.9717649" lon="11.2662568"><ele>253.99999999999997</ele><time>2026-03-28T08:09:56.96Z</time></trkpt><trkpt lat="43.97176" lon="11.266392"><ele>254.0</ele><time>2026-03-28T08:09:58.02Z</time></trkpt><trkpt lat="43.9717642" lon="11.2665151"><ele>254.0</ele><time>2026-03-28T08:09:59.034Z</time></trkpt><trkpt lat="43.9717648" lon="11.2666265"><ele>254.79999999999998</ele><time>2026-03-28T08:10:00.029Z</time></trkpt><trkpt lat="43.9717721" lon="11.2667247"><ele>255.59999999999997</ele><time>2026-03-28T08:10:00.961Z</time></trkpt><trkpt lat="43.9717732" lon="11.2668165"><ele>256.4</ele><time>2026-03-28T08:10:01.972Z</time></trkpt><trkpt lat="43.9717821" lon="11.2669801"><ele>257.2</ele><time>2026-03-28T08:10:04.03Z</time></trkpt><trkpt lat="43.9717901" lon="11.2671267"><ele>258.0</ele><time>2026-03-28T08:10:05.953Z</time></trkpt><trkpt lat="43.9717939" lon="11.2672526"><ele>258.4285714285714</ele><time>2026-03-28T08:10:08.004Z</time></trkpt><trkpt lat="43.971791" lon="11.2673481"><ele>258.85714285714283</ele><time>2026-03-28T08:10:09.95Z</time></trkpt><trkpt lat="43.9717766" lon="11.2674492"><ele>259.2857142857143</ele><time>2026-03-28T08:10:13.06Z</time></trkpt><trkpt lat="43.9717518" lon="11.2675304"><ele>259.71428571428567</ele><time>2026-03-28T08:10:16.001Z</time></trkpt><trkpt lat="43.9717154" lon="11.2676211"><ele>260.1428571428571</ele><time>2026-03-28T08:10:17.964Z</time></trkpt><trkpt lat="43.9716689" lon="11.2676829"><ele>260.57142857142856</ele><time>2026-03-28T08:10:18.965Z</time></trkpt><trkpt lat="43.9716138" lon="11.267739"><ele>261.0</ele><time>2026-03-28T08:10:19.991Z</time></trkpt><trkpt lat="43.9715492" lon="11.267797"><ele>261.8333333333333</ele><time>2026-03-28T08:10:20.982Z</time></trkpt><trkpt lat="43.9714827" lon="11.267858"><ele>262.6666666666667</ele><time>2026-03-28T08:10:21.965Z</time></trkpt><trkpt lat="43.9714124" lon="11.2679314"><ele>263.5</ele><time>2026-03-28T08:10:23.044Z</time></trkpt><trkpt lat="43.9713457" lon="11.2680092"><ele>264.33333333333337</ele><time>2026-03-28T08:10:24.026Z</time></trkpt><trkpt lat="43.9712806" lon="11.2680936"><ele>265.1666666666667</ele><time>2026-03-28T08:10:24.97Z</time></trkpt><trkpt lat="43.9712298" lon="11.2681985"><ele>266.0</ele><time>2026-03-28T08:10:25.963Z</time></trkpt><trkpt lat="43.9712003" lon="11.2683175"><ele>266.0</ele><time>2026-03-28T08:10:26.967Z</time></trkpt><trkpt lat="43.9711965" lon="11.2684533"><ele>266.0</ele><time>2026-03-28T08:10:27.976Z</time></trkpt><trkpt lat="43.9712125" lon="11.2685921"><ele>266.0</ele><time>2026-03-28T08:10:29.028Z</time></trkpt><trkpt lat="43.9712505" lon="11.268726"><ele>266.0</ele><time>2026-03-28T08:10:30.032Z</time></trkpt><trkpt lat="43.9713152" lon="11.2688451"><ele>266.0</ele><time>2026-03-28T08:10:30.962Z</time></trkpt><trkpt lat="43.9713952" lon="11.2689511"><ele>266.8</ele><time>2026-03-28T08:10:31.972Z</time></trkpt><trkpt lat="43.9714748" lon="11.269063"><ele>267.6</ele><time>2026-03-28T08:10:32.986Z</time></trkpt><trkpt lat="43.9715396" lon="11.2691797"><ele>268.4</ele><time>2026-03-28T08:10:34.027Z</time></trkpt><trkpt lat="43.9715714" lon="11.2693182"><ele>269.2</ele><time>2026-03-28T08:10:35.043Z</time></trkpt><trkpt lat="43.9715684" lon="11.269472"><ele>270.0</ele><time>2026-03-28T08:10:35.973Z</time></trkpt><trkpt lat="43.9715445" lon="11.2696256"><ele>271.25</ele><time>2026-03-28T08:10:36.975Z</time></trkpt><trkpt lat="43.9715055" lon="11.2697833"><ele>272.5</ele><time>2026-03-28T08:10:37.989Z</time></trkpt><trkpt lat="43.9714722" lon="11.2699511"><ele>273.75</ele><time>2026-03-28T08:10:38.974Z</time></trkpt><trkpt lat="43.9714464" lon="11.270122"><ele>275.0</ele><time>2026-03-28T08:10:39.952Z</time></trkpt><trkpt lat="43.9714405" lon="11.2702854"><ele>275.0</ele><time>2026-03-28T08:10:40.977Z</time></trkpt><trkpt lat="43.9714521" lon="11.2704628"><ele>275.0</ele><time>2026-03-28T08:10:42.035Z</time></trkpt><trkpt lat="43.9714562" lon="11.270651"><ele>275.0</ele><time>2026-03-28T08:10:42.989Z</time></trkpt><trkpt lat="43.9714638" lon="11.2708527"><ele>275.0</ele><time>2026-03-28T08:10:43.967Z</time></trkpt><trkpt lat="43.9714736" lon="11.2710648"><ele>275.33333333333337</ele><time>2026-03-28T08:10:45.03Z</time></trkpt><trkpt lat="43.9714805" lon="11.2712833"><ele>275.6666666666667</ele><time>2026-03-28T08:10:45.971Z</time></trkpt><trkpt lat="43.9714984" lon="11.2714992"><ele>276.0</ele><time>2026-03-28T08:10:46.973Z</time></trkpt><trkpt lat="43.9715104" lon="11.2717135"><ele>276.0</ele><time>2026-03-28T08:10:47.953Z</time></trkpt><trkpt lat="43.9715224" lon="11.2719242"><ele>276.0</ele><time>2026-03-28T08:10:48.966Z</time></trkpt><trkpt lat="43.9715255" lon="11.2721117"><ele>276.0</ele><time>2026-03-28T08:10:49.959Z</time></trkpt><trkpt lat="43.9715144" lon="11.2722887"><ele>276.0</ele><time>2026-03-28T08:10:50.965Z</time></trkpt><trkpt lat="43.9714687" lon="11.2724698"><ele>275.6666666666667</ele><time>2026-03-28T08:10:51.959Z</time></trkpt><trkpt lat="43.9713913" lon="11.2726518"><ele>275.33333333333337</ele><time>2026-03-28T08:10:52.964Z</time></trkpt><trkpt lat="43.9713078" lon="11.2728371"><ele>275.0</ele><time>2026-03-28T08:10:53.961Z</time></trkpt><trkpt lat="43.9712289" lon="11.2730303"><ele>272.75</ele><time>2026-03-28T08:10:55.042Z</time></trkpt><trkpt lat="43.9711507" lon="11.2732082"><ele>270.5</ele><time>2026-03-28T08:10:55.965Z</time></trkpt><trkpt lat="43.9710718" lon="11.2733829"><ele>268.25</ele><time>2026-03-28T08:10:56.965Z</time></trkpt><trkpt lat="43.9709822" lon="11.2735319"><ele>266.0</ele><time>2026-03-28T08:10:57.95Z</time></trkpt><trkpt lat="43.9708795" lon="11.273653"><ele>267.75</ele><time>2026-03-28T08:10:58.963Z</time></trkpt><trkpt lat="43.9707855" lon="11.2737588"><ele>269.5</ele><time>2026-03-28T08:10:59.968Z</time></trkpt><trkpt lat="43.9707043" lon="11.2738852"><ele>271.25</ele><time>2026-03-28T08:11:00.964Z</time></trkpt><trkpt lat="43.9706585" lon="11.2740341"><ele>273.0</ele><time>2026-03-28T08:11:02.037Z</time></trkpt><trkpt lat="43.9706456" lon="11.2742071"><ele>273.0</ele><time>2026-03-28T08:11:03.036Z</time></trkpt><trkpt lat="43.9706548" lon="11.27439"><ele>273.0</ele><time>2026-03-28T08:11:04.046Z</time></trkpt><trkpt lat="43.9706699" lon="11.2745743"><ele>273.0</ele><time>2026-03-28T08:11:05.039Z</time></trkpt><trkpt lat="43.9706802" lon="11.274764"><ele>273.0</ele><time>2026-03-28T08:11:05.965Z</time></trkpt><trkpt lat="43.9706951" lon="11.2749575"><ele>272.75</ele><time>2026-03-28T08:11:06.96Z</time></trkpt><trkpt lat="43.9707108" lon="11.2751351"><ele>272.5</ele><time>2026-03-28T08:11:07.991Z</time></trkpt><trkpt lat="43.9707471" lon="11.2753046"><ele>272.25</ele><time>2026-03-28T08:11:09.034Z</time></trkpt><trkpt lat="43.9708116" lon="11.2754584"><ele>272.0</ele><time>2026-03-28T08:11:10.029Z</time></trkpt><trkpt lat="43.9709126" lon="11.2755765"><ele>272.5</ele><time>2026-03-28T08:11:10.965Z</time></trkpt><trkpt lat="43.9710468" lon="11.2756772"><ele>273.0</ele><time>2026-03-28T08:11:11.968Z</time></trkpt><trkpt lat="43.9711832" lon="11.2757424"><ele>273.5</ele><time>2026-03-28T08:11:12.992Z</time></trkpt><trkpt lat="43.9713199" lon="11.2757959"><ele>274.0</ele><time>2026-03-28T08:11:13.961Z</time></trkpt><trkpt lat="43.9714478" lon="11.2758526"><ele>274.0</ele><time>2026-03-28T08:11:15.046Z</time></trkpt><trkpt lat="43.971577" lon="11.2759013"><ele>274.0</ele><time>2026-03-28T08:11:15.966Z</time></trkpt><trkpt lat="43.9717001" lon="11.2759655"><ele>274.0</ele><time>2026-03-28T08:11:16.959Z</time></trkpt><trkpt lat="43.9718051" lon="11.2760445"><ele>274.0</ele><time>2026-03-28T08:11:17.955Z</time></trkpt><trkpt lat="43.9718855" lon="11.2761458"><ele>272.0</ele><time>2026-03-28T08:11:18.939Z</time></trkpt><trkpt lat="43.9719511" lon="11.2762703"><ele>270.0</ele><time>2026-03-28T08:11:19.944Z</time></trkpt><trkpt lat="43.9720013" lon="11.2764036"><ele>268.0</ele><time>2026-03-28T08:11:20.964Z</time></trkpt><trkpt lat="43.9720338" lon="11.2765675"><ele>266.0</ele><time>2026-03-28T08:11:21.966Z</time></trkpt><trkpt lat="43.9720447" lon="11.2767416"><ele>266.0</ele><time>2026-03-28T08:11:22.966Z</time></trkpt><trkpt lat="43.9720458" lon="11.27693"><ele>266.0</ele><time>2026-03-28T08:11:23.948Z</time></trkpt><trkpt lat="43.9720447" lon="11.2771116"><ele>266.0</ele><time>2026-03-28T08:11:24.958Z</time></trkpt><trkpt lat="43.9720324" lon="11.2772672"><ele>266.0</ele><time>2026-03-28T08:11:25.968Z</time></trkpt><trkpt lat="43.9719892" lon="11.2774051"><ele>266.0</ele><time>2026-03-28T08:11:26.976Z</time></trkpt><trkpt lat="43.9719157" lon="11.2775163"><ele>266.0</ele><time>2026-03-28T08:11:27.969Z</time></trkpt><trkpt lat="43.9718224" lon="11.2776198"><ele>266.0</ele><time>2026-03-28T08:11:28.946Z</time></trkpt><trkpt lat="43.9717082" lon="11.277709"><ele>266.0</ele><time>2026-03-28T08:11:29.951Z</time></trkpt><trkpt lat="43.971599" lon="11.2777943"><ele>268.75</ele><time>2026-03-28T08:11:30.962Z</time></trkpt><trkpt lat="43.9714819" lon="11.277874"><ele>271.5</ele><time>2026-03-28T08:11:31.961Z</time></trkpt><trkpt lat="43.9713615" lon="11.2779103"><ele>274.25</ele><time>2026-03-28T08:11:32.971Z</time></trkpt><trkpt lat="43.9712408" lon="11.277893"><ele>277.0</ele><time>2026-03-28T08:11:33.963Z</time></trkpt><trkpt lat="43.9711174" lon="11.2778029"><ele>277.0</ele><time>2026-03-28T08:11:34.963Z</time></trkpt><trkpt lat="43.9710048" lon="11.2776818"><ele>277.0</ele><time>2026-03-28T08:11:35.964Z</time></trkpt><trkpt lat="43.9709113" lon="11.2775308"><ele>277.0</ele><time>2026-03-28T08:11:36.961Z</time></trkpt><trkpt lat="43.9708158" lon="11.2773873"><ele>277.0</ele><time>2026-03-28T08:11:37.955Z</time></trkpt><trkpt lat="43.9707168" lon="11.2772873"><ele>278.25</ele><time>2026-03-28T08:11:38.961Z</time></trkpt><trkpt lat="43.9706077" lon="11.2772155"><ele>279.5</ele><time>2026-03-28T08:11:39.968Z</time></trkpt><trkpt lat="43.970487" lon="11.2771874"><ele>280.75</ele><time>2026-03-28T08:11:40.962Z</time></trkpt><trkpt lat="43.9703627" lon="11.2772051"><ele>282.0</ele><time>2026-03-28T08:11:41.961Z</time></trkpt><trkpt lat="43.9702571" lon="11.2772391"><ele>279.75</ele><time>2026-03-28T08:11:42.957Z</time></trkpt><trkpt lat="43.9701643" lon="11.2773331"><ele>277.5</ele><time>2026-03-28T08:11:43.962Z</time></trkpt><trkpt lat="43.970089" lon="11.2774424"><ele>275.25</ele><time>2026-03-28T08:11:44.961Z</time></trkpt><trkpt lat="43.9700314" lon="11.277587"><ele>273.0</ele><time>2026-03-28T08:11:45.954Z</time></trkpt><trkpt lat="43.9699776" lon="11.2777485"><ele>273.0</ele><time>2026-03-28T08:11:46.966Z</time></trkpt><trkpt lat="43.9699184" lon="11.2779298"><ele>273.0</ele><time>2026-03-28T08:11:47.965Z</time></trkpt><trkpt lat="43.9698582" lon="11.2781036"><ele>273.0</ele><time>2026-03-28T08:11:48.957Z</time></trkpt><trkpt lat="43.9698145" lon="11.278271"><ele>273.0</ele><time>2026-03-28T08:11:49.964Z</time></trkpt><trkpt lat="43.9697948" lon="11.2784361"><ele>270.0</ele><time>2026-03-28T08:11:50.958Z</time></trkpt><trkpt lat="43.9698045" lon="11.2786183"><ele>267.0</ele><time>2026-03-28T08:11:51.959Z</time></trkpt><trkpt lat="43.9698478" lon="11.2788039"><ele>264.0</ele><time>2026-03-28T08:11:52.939Z</time></trkpt><trkpt lat="43.9699123" lon="11.2789735"><ele>261.0</ele><time>2026-03-28T08:11:53.96Z</time></trkpt><trkpt lat="43.9699883" lon="11.2791471"><ele>257.3333333333333</ele><time>2026-03-28T08:11:54.964Z</time></trkpt><trkpt lat="43.9700579" lon="11.2793398"><ele>253.66666666666666</ele><time>2026-03-28T08:11:55.964Z</time></trkpt><trkpt lat="43.9701275" lon="11.2795344"><ele>250.0</ele><time>2026-03-28T08:11:56.967Z</time></trkpt><trkpt lat="43.970202" lon="11.2797292"><ele>249.0</ele><time>2026-03-28T08:11:57.964Z</time></trkpt><trkpt lat="43.9702742" lon="11.2799227"><ele>248.0</ele><time>2026-03-28T08:11:58.953Z</time></trkpt><trkpt lat="43.9703515" lon="11.2801227"><ele>247.0</ele><time>2026-03-28T08:11:59.964Z</time></trkpt><trkpt lat="43.970437" lon="11.2803169"><ele>247.0</ele><time>2026-03-28T08:12:00.961Z</time></trkpt><trkpt lat="43.9705256" lon="11.2804899"><ele>247.0</ele><time>2026-03-28T08:12:01.955Z</time></trkpt><trkpt lat="43.9706251" lon="11.2806564"><ele>247.0</ele><time>2026-03-28T08:12:02.956Z</time></trkpt><trkpt lat="43.9707247" lon="11.2808255"><ele>248.33333333333331</ele><time>2026-03-28T08:12:04.03Z</time></trkpt><trkpt lat="43.9708302" lon="11.2809903"><ele>249.66666666666669</ele><time>2026-03-28T08:12:05.029Z</time></trkpt><trkpt lat="43.9709117" lon="11.2811745"><ele>251.0</ele><time>2026-03-28T08:12:05.956Z</time></trkpt><trkpt lat="43.9709951" lon="11.2813647"><ele>256.0</ele><time>2026-03-28T08:12:06.964Z</time></trkpt><trkpt lat="43.9710734" lon="11.2815493"><ele>261.0</ele><time>2026-03-28T08:12:07.971Z</time></trkpt><trkpt lat="43.9711419" lon="11.2817418"><ele>266.0</ele><time>2026-03-28T08:12:09.035Z</time></trkpt><trkpt lat="43.9712019" lon="11.281934"><ele>266.0</ele><time>2026-03-28T08:12:09.967Z</time></trkpt><trkpt lat="43.9712695" lon="11.2821169"><ele>266.0</ele><time>2026-03-28T08:12:10.959Z</time></trkpt><trkpt lat="43.9713373" lon="11.2822909"><ele>266.0</ele><time>2026-03-28T08:12:11.954Z</time></trkpt><trkpt lat="43.9723526" lon="11.2857624"><ele>262.75</ele><time>2026-03-28T08:12:28.043Z</time></trkpt><trkpt lat="43.9724103" lon="11.2859654"><ele>259.5</ele><time>2026-03-28T08:12:28.972Z</time></trkpt><trkpt lat="43.9724611" lon="11.2861208"><ele>256.25</ele><time>2026-03-28T08:12:29.958Z</time></trkpt><trkpt lat="43.9725472" lon="11.286242"><ele>253.0</ele><time>2026-03-28T08:12:30.968Z</time></trkpt><trkpt lat="43.9726435" lon="11.286352"><ele>249.5</ele><time>2026-03-28T08:12:31.955Z</time></trkpt><trkpt lat="43.972731" lon="11.2864625"><ele>246.0</ele><time>2026-03-28T08:12:32.95Z</time></trkpt><trkpt lat="43.9728134" lon="11.2865775"><ele>242.5</ele><time>2026-03-28T08:12:33.964Z</time></trkpt><trkpt lat="43.9728906" lon="11.2867233"><ele>239.0</ele><time>2026-03-28T08:12:34.961Z</time></trkpt><trkpt lat="43.9729622" lon="11.286889"><ele>239.0</ele><time>2026-03-28T08:12:35.962Z</time></trkpt><trkpt lat="43.973019" lon="11.2870595"><ele>239.0</ele><time>2026-03-28T08:12:36.992Z</time></trkpt><trkpt lat="43.9730474" lon="11.2872115"><ele>239.0</ele><time>2026-03-28T08:12:37.956Z</time></trkpt><trkpt lat="43.9730571" lon="11.2873715"><ele>239.0</ele><time>2026-03-28T08:12:38.963Z</time></trkpt><trkpt lat="43.9730374" lon="11.2875373"><ele>236.5</ele><time>2026-03-28T08:12:39.972Z</time></trkpt><trkpt lat="43.9729799" lon="11.2876963"><ele>234.0</ele><time>2026-03-28T08:12:41.039Z</time></trkpt><trkpt lat="43.9729249" lon="11.2878468"><ele>231.5</ele><time>2026-03-28T08:12:42.029Z</time></trkpt><trkpt lat="43.9728868" lon="11.2879866"><ele>229.0</ele><time>2026-03-28T08:12:42.959Z</time></trkpt><trkpt lat="43.9728872" lon="11.2881317"><ele>228.2</ele><time>2026-03-28T08:12:43.97Z</time></trkpt><trkpt lat="43.9729146" lon="11.2882645"><ele>227.39999999999998</ele><time>2026-03-28T08:12:44.98Z</time></trkpt><trkpt lat="43.9729334" lon="11.2883763"><ele>226.6</ele><time>2026-03-28T08:12:46.027Z</time></trkpt><trkpt lat="43.9729386" lon="11.2884967"><ele>225.8</ele><time>2026-03-28T08:12:46.974Z</time></trkpt><trkpt lat="43.972916" lon="11.2886169"><ele>225.0</ele><time>2026-03-28T08:12:47.961Z</time></trkpt><trkpt lat="43.9728811" lon="11.2887492"><ele>225.0</ele><time>2026-03-28T08:12:48.955Z</time></trkpt><trkpt lat="43.9728851" lon="11.2888818"><ele>225.0</ele><time>2026-03-28T08:12:49.96Z</time></trkpt><trkpt lat="43.9729248" lon="11.288997"><ele>225.0</ele><time>2026-03-28T08:12:50.964Z</time></trkpt><trkpt lat="43.972988" lon="11.2890919"><ele>225.0</ele><time>2026-03-28T08:12:51.966Z</time></trkpt><trkpt lat="43.9730765" lon="11.2891551"><ele>225.0</ele><time>2026-03-28T08:12:52.96Z</time></trkpt><trkpt lat="43.9731651" lon="11.2891772"><ele>224.4</ele><time>2026-03-28T08:12:54.048Z</time></trkpt><trkpt lat="43.9732548" lon="11.2891406"><ele>223.8</ele><time>2026-03-28T08:12:55.015Z</time></trkpt><trkpt lat="43.9733292" lon="11.289073"><ele>223.2</ele><time>2026-03-28T08:12:55.955Z</time></trkpt><trkpt lat="43.9733968" lon="11.2889634"><ele>222.6</ele><time>2026-03-28T08:12:56.966Z</time></trkpt><trkpt lat="43.9734444" lon="11.2888247"><ele>222.0</ele><time>2026-03-28T08:12:57.961Z</time></trkpt><trkpt lat="43.9735052" lon="11.2886846"><ele>222.0</ele><time>2026-03-28T08:12:58.968Z</time></trkpt><trkpt lat="43.9735832" lon="11.2885723"><ele>222.0</ele><time>2026-03-28T08:12:59.97Z</time></trkpt><trkpt lat="43.9736927" lon="11.288507"><ele>222.0</ele><time>2026-03-28T08:13:00.963Z</time></trkpt><trkpt lat="43.9738305" lon="11.2884584"><ele>222.0</ele><time>2026-03-28T08:13:02.033Z</time></trkpt><trkpt lat="43.9739579" lon="11.2884245"><ele>222.0</ele><time>2026-03-28T08:13:02.969Z</time></trkpt><trkpt lat="43.9740875" lon="11.2883792"><ele>222.0</ele><time>2026-03-28T08:13:03.98Z</time></trkpt><trkpt lat="43.9742161" lon="11.2883359"><ele>222.0</ele><time>2026-03-28T08:13:04.971Z</time></trkpt><trkpt lat="43.9743493" lon="11.2882932"><ele>222.0</ele><time>2026-03-28T08:13:05.966Z</time></trkpt><trkpt lat="43.9744842" lon="11.2882545"><ele>222.5</ele><time>2026-03-28T08:13:06.967Z</time></trkpt><trkpt lat="43.9746224" lon="11.2882166"><ele>223.0</ele><time>2026-03-28T08:13:07.954Z</time></trkpt><trkpt lat="43.9747599" lon="11.288189"><ele>223.5</ele><time>2026-03-28T08:13:08.973Z</time></trkpt><trkpt lat="43.9749002" lon="11.2881679"><ele>224.0</ele><time>2026-03-28T08:13:09.977Z</time></trkpt><trkpt lat="43.9750473" lon="11.2881479"><ele>222.66666666666669</ele><time>2026-03-28T08:13:10.975Z</time></trkpt><trkpt lat="43.975197" lon="11.2881429"><ele>221.33333333333331</ele><time>2026-03-28T08:13:11.977Z</time></trkpt><trkpt lat="43.9753535" lon="11.2881347"><ele>220.0</ele><time>2026-03-28T08:13:12.967Z</time></trkpt><trkpt lat="43.9755094" lon="11.2881358"><ele>220.0</ele><time>2026-03-28T08:13:13.963Z</time></trkpt><trkpt lat="43.9756673" lon="11.2881408"><ele>220.0</ele><time>2026-03-28T08:13:14.963Z</time></trkpt><trkpt lat="43.9758259" lon="11.288154"><ele>220.0</ele><time>2026-03-28T08:13:15.971Z</time></trkpt><trkpt lat="43.9759817" lon="11.2881691"><ele>220.66666666666666</ele><time>2026-03-28T08:13:16.969Z</time></trkpt><trkpt lat="43.9761392" lon="11.288189"><ele>221.33333333333331</ele><time>2026-03-28T08:13:17.971Z</time></trkpt><trkpt lat="43.9762951" lon="11.2882167"><ele>222.0</ele><time>2026-03-28T08:13:18.968Z</time></trkpt><trkpt lat="43.976447" lon="11.2882428"><ele>222.0</ele><time>2026-03-28T08:13:19.959Z</time></trkpt><trkpt lat="43.976599" lon="11.2882716"><ele>222.0</ele><time>2026-03-28T08:13:20.973Z</time></trkpt><trkpt lat="43.9767469" lon="11.2883017"><ele>222.0</ele><time>2026-03-28T08:13:21.968Z</time></trkpt><trkpt lat="43.9768926" lon="11.2883255"><ele>224.0</ele><time>2026-03-28T08:13:22.974Z</time></trkpt><trkpt lat="43.9770414" lon="11.2883521"><ele>226.0</ele><time>2026-03-28T08:13:23.959Z</time></trkpt><trkpt lat="43.9771959" lon="11.2883809"><ele>228.0</ele><time>2026-03-28T08:13:24.977Z</time></trkpt><trkpt lat="43.9773509" lon="11.2884146"><ele>228.0</ele><time>2026-03-28T08:13:25.97Z</time></trkpt><trkpt lat="43.9775032" lon="11.2884479"><ele>228.0</ele><time>2026-03-28T08:13:26.969Z</time></trkpt><trkpt lat="43.977656" lon="11.288471"><ele>228.0</ele><time>2026-03-28T08:13:27.978Z</time></trkpt><trkpt lat="43.9778088" lon="11.288491"><ele>229.33333333333331</ele><time>2026-03-28T08:13:28.965Z</time></trkpt><trkpt lat="43.9779655" lon="11.2885143"><ele>230.66666666666666</ele><time>2026-03-28T08:13:29.966Z</time></trkpt><trkpt lat="43.9781238" lon="11.2885289"><ele>232.0</ele><time>2026-03-28T08:13:30.971Z</time></trkpt><trkpt lat="43.9782855" lon="11.2885403"><ele>233.66666666666666</ele><time>2026-03-28T08:13:31.973Z</time></trkpt><trkpt lat="43.9784462" lon="11.288549"><ele>235.33333333333331</ele><time>2026-03-28T08:13:32.959Z</time></trkpt><trkpt lat="43.978601" lon="11.2885595"><ele>237.0</ele><time>2026-03-28T08:13:33.975Z</time></trkpt><trkpt lat="43.9787604" lon="11.2885544"><ele>237.0</ele><time>2026-03-28T08:13:34.98Z</time></trkpt><trkpt lat="43.9789216" lon="11.2885451"><ele>237.0</ele><time>2026-03-28T08:13:35.97Z</time></trkpt><trkpt lat="43.9790845" lon="11.28853"><ele>237.0</ele><time>2026-03-28T08:13:36.974Z</time></trkpt><trkpt lat="43.9792451" lon="11.2885132"><ele>237.66666666666669</ele><time>2026-03-28T08:13:37.976Z</time></trkpt><trkpt lat="43.9794049" lon="11.2884893"><ele>238.33333333333334</ele><time>2026-03-28T08:13:38.986Z</time></trkpt><trkpt lat="43.9795641" lon="11.2884641"><ele>239.0</ele><time>2026-03-28T08:13:39.965Z</time></trkpt><trkpt lat="43.9797211" lon="11.2884423"><ele>239.0</ele><time>2026-03-28T08:13:40.971Z</time></trkpt><trkpt lat="43.9798774" lon="11.2884241"><ele>239.0</ele><time>2026-03-28T08:13:41.969Z</time></trkpt><trkpt lat="43.9800328" lon="11.288418"><ele>239.0</ele><time>2026-03-28T08:13:42.971Z</time></trkpt><trkpt lat="43.9801839" lon="11.2884354"><ele>241.0</ele><time>2026-03-28T08:13:43.98Z</time></trkpt><trkpt lat="43.9803347" lon="11.2884746"><ele>243.0</ele><time>2026-03-28T08:13:44.972Z</time></trkpt><trkpt lat="43.9804872" lon="11.288533"><ele>245.0</ele><time>2026-03-28T08:13:45.97Z</time></trkpt><trkpt lat="43.9806306" lon="11.288603"><ele>245.0</ele><time>2026-03-28T08:13:46.969Z</time></trkpt><trkpt lat="43.9807782" lon="11.2886804"><ele>245.0</ele><time>2026-03-28T08:13:47.963Z</time></trkpt><trkpt lat="43.980928" lon="11.2887527"><ele>245.0</ele><time>2026-03-28T08:13:48.974Z</time></trkpt><trkpt lat="43.9810801" lon="11.288833"><ele>246.33333333333334</ele><time>2026-03-28T08:13:49.964Z</time></trkpt><trkpt lat="43.9812325" lon="11.2889008"><ele>247.66666666666669</ele><time>2026-03-28T08:13:50.967Z</time></trkpt><trkpt lat="43.9813864" lon="11.2889608"><ele>249.0</ele><time>2026-03-28T08:13:51.964Z</time></trkpt><trkpt lat="43.9815411" lon="11.2889997"><ele>250.33333333333331</ele><time>2026-03-28T08:13:52.97Z</time></trkpt><trkpt lat="43.9816955" lon="11.2890076"><ele>251.66666666666666</ele><time>2026-03-28T08:13:53.963Z</time></trkpt><trkpt lat="43.9818437" lon="11.2889647"><ele>253.0</ele><time>2026-03-28T08:13:54.966Z</time></trkpt><trkpt lat="43.9819986" lon="11.2888729"><ele>253.0</ele><time>2026-03-28T08:13:55.969Z</time></trkpt><trkpt lat="43.9821314" lon="11.2887366"><ele>253.0</ele><time>2026-03-28T08:13:56.965Z</time></trkpt><trkpt lat="43.9822574" lon="11.2885835"><ele>253.0</ele><time>2026-03-28T08:13:57.976Z</time></trkpt><trkpt lat="43.9823793" lon="11.2884251"><ele>253.0</ele><time>2026-03-28T08:13:58.967Z</time></trkpt><trkpt lat="43.9825077" lon="11.2882727"><ele>253.0</ele><time>2026-03-28T08:13:59.973Z</time></trkpt><trkpt lat="43.9826422" lon="11.288118"><ele>253.0</ele><time>2026-03-28T08:14:00.973Z</time></trkpt><trkpt lat="43.982788" lon="11.2879639"><ele>253.0</ele><time>2026-03-28T08:14:01.973Z</time></trkpt><trkpt lat="43.982946" lon="11.2878175"><ele>253.0</ele><time>2026-03-28T08:14:02.97Z</time></trkpt><trkpt lat="43.9831161" lon="11.287691"><ele>253.0</ele><time>2026-03-28T08:14:03.97Z</time></trkpt><trkpt lat="43.9833022" lon="11.2876099"><ele>254.0</ele><time>2026-03-28T08:14:04.977Z</time></trkpt><trkpt lat="43.9835026" lon="11.2875628"><ele>255.0</ele><time>2026-03-28T08:14:05.977Z</time></trkpt><trkpt lat="43.98371" lon="11.2875414"><ele>256.0</ele><time>2026-03-28T08:14:06.968Z</time></trkpt><trkpt lat="43.9839237" lon="11.2875322"><ele>256.0</ele><time>2026-03-28T08:14:07.973Z</time></trkpt><trkpt lat="43.9841402" lon="11.2875268"><ele>256.0</ele><time>2026-03-28T08:14:08.968Z</time></trkpt><trkpt lat="43.984363" lon="11.2875161"><ele>256.0</ele><time>2026-03-28T08:14:09.974Z</time></trkpt><trkpt lat="43.9845953" lon="11.287513"><ele>255.5</ele><time>2026-03-28T08:14:11.042Z</time></trkpt><trkpt lat="43.9848281" lon="11.2875093"><ele>255.0</ele><time>2026-03-28T08:14:12.029Z</time></trkpt><trkpt lat="43.9850652" lon="11.2875026"><ele>255.0</ele><time>2026-03-28T08:14:12.969Z</time></trkpt><trkpt lat="43.9852903" lon="11.2875281"><ele>255.0</ele><time>2026-03-28T08:14:13.963Z</time></trkpt><trkpt lat="43.9855247" lon="11.28757"><ele>255.0</ele><time>2026-03-28T08:14:14.951Z</time></trkpt><trkpt lat="43.9857623" lon="11.2876297"><ele>255.0</ele><time>2026-03-28T08:14:15.959Z</time></trkpt><trkpt lat="43.9859986" lon="11.2877001"><ele>254.0</ele><time>2026-03-28T08:14:17.031Z</time></trkpt><trkpt lat="43.9862361" lon="11.2877869"><ele>253.0</ele><time>2026-03-28T08:14:17.968Z</time></trkpt><trkpt lat="43.986479" lon="11.2878683"><ele>254.0</ele><time>2026-03-28T08:14:18.965Z</time></trkpt><trkpt lat="43.9867184" lon="11.28795"><ele>255.0</ele><time>2026-03-28T08:14:19.971Z</time></trkpt><trkpt lat="43.9869551" lon="11.2880332"><ele>256.0</ele><time>2026-03-28T08:14:20.957Z</time></trkpt><trkpt lat="43.9871733" lon="11.288105"><ele>257.0</ele><time>2026-03-28T08:14:21.969Z</time></trkpt><trkpt lat="43.9873723" lon="11.2881827"><ele>258.0</ele><time>2026-03-28T08:14:22.971Z</time></trkpt><trkpt lat="43.9875713" lon="11.2882522"><ele>258.0</ele><time>2026-03-28T08:14:23.936Z</time></trkpt><trkpt lat="43.9877616" lon="11.2883206"><ele>258.0</ele><time>2026-03-28T08:14:24.959Z</time></trkpt><trkpt lat="43.9879416" lon="11.2883887"><ele>258.0</ele><time>2026-03-28T08:14:25.948Z</time></trkpt><trkpt lat="43.9881226" lon="11.2884532"><ele>258.0</ele><time>2026-03-28T08:14:26.965Z</time></trkpt><trkpt lat="43.9882933" lon="11.2885143"><ele>258.0</ele><time>2026-03-28T08:14:27.971Z</time></trkpt><trkpt lat="43.9884607" lon="11.2885729"><ele>258.0</ele><time>2026-03-28T08:14:28.961Z</time></trkpt><trkpt lat="43.9886262" lon="11.2886293"><ele>258.3333333333333</ele><time>2026-03-28T08:14:29.968Z</time></trkpt><trkpt lat="43.9887904" lon="11.2886863"><ele>258.66666666666663</ele><time>2026-03-28T08:14:30.969Z</time></trkpt><trkpt lat="43.9889556" lon="11.2887434"><ele>259.0</ele><time>2026-03-28T08:14:31.963Z</time></trkpt><trkpt lat="43.9891196" lon="11.2887964"><ele>259.66666666666663</ele><time>2026-03-28T08:14:32.965Z</time></trkpt><trkpt lat="43.9892812" lon="11.2888503"><ele>260.3333333333333</ele><time>2026-03-28T08:14:33.963Z</time></trkpt><trkpt lat="43.9894417" lon="11.2889041"><ele>261.0</ele><time>2026-03-28T08:14:34.967Z</time></trkpt><trkpt lat="43.989599" lon="11.2889567"><ele>261.3333333333333</ele><time>2026-03-28T08:14:35.971Z</time></trkpt><trkpt lat="43.9897536" lon="11.2890069"><ele>261.66666666666663</ele><time>2026-03-28T08:14:36.968Z</time></trkpt><trkpt lat="43.9899103" lon="11.2890633"><ele>262.0</ele><time>2026-03-28T08:14:37.962Z</time></trkpt><trkpt lat="43.9900649" lon="11.2891147"><ele>263.0</ele><time>2026-03-28T08:14:38.964Z</time></trkpt><trkpt lat="43.9902162" lon="11.2891643"><ele>264.0</ele><time>2026-03-28T08:14:39.963Z</time></trkpt><trkpt lat="43.9903675" lon="11.2892145"><ele>265.0</ele><time>2026-03-28T08:14:40.945Z</time></trkpt><trkpt lat="43.9905195" lon="11.2892709"><ele>265.0</ele><time>2026-03-28T08:14:41.956Z</time></trkpt><trkpt lat="43.9906707" lon="11.2893232"><ele>265.0</ele><time>2026-03-28T08:14:42.961Z</time></trkpt><trkpt lat="43.9908227" lon="11.2893851"><ele>265.0</ele><time>2026-03-28T08:14:43.963Z</time></trkpt><trkpt lat="43.9909725" lon="11.289445"><ele>264.66666666666663</ele><time>2026-03-28T08:14:44.971Z</time></trkpt><trkpt lat="43.9911173" lon="11.2894954"><ele>264.3333333333333</ele><time>2026-03-28T08:14:45.966Z</time></trkpt><trkpt lat="43.9912686" lon="11.2895322"><ele>264.0</ele><time>2026-03-28T08:14:46.962Z</time></trkpt><trkpt lat="43.9914221" lon="11.2895577"><ele>264.0</ele><time>2026-03-28T08:14:47.965Z</time></trkpt><trkpt lat="43.9915785" lon="11.2895764"><ele>264.0</ele><time>2026-03-28T08:14:48.97Z</time></trkpt><trkpt lat="43.9917369" lon="11.2895697"><ele>264.0</ele><time>2026-03-28T08:14:49.964Z</time></trkpt><trkpt lat="43.9918994" lon="11.2895561"><ele>264.6666666666667</ele><time>2026-03-28T08:14:50.967Z</time></trkpt><trkpt lat="43.992065" lon="11.2895441"><ele>265.33333333333337</ele><time>2026-03-28T08:14:51.998Z</time></trkpt><trkpt lat="43.9922261" lon="11.289533"><ele>266.0</ele><time>2026-03-28T08:14:52.987Z</time></trkpt><trkpt lat="43.9923919" lon="11.2895246"><ele>266.33333333333337</ele><time>2026-03-28T08:14:53.968Z</time></trkpt><trkpt lat="43.9925513" lon="11.289516"><ele>266.6666666666667</ele><time>2026-03-28T08:14:55.044Z</time></trkpt><trkpt lat="43.9927143" lon="11.2895063"><ele>267.0</ele><time>2026-03-28T08:14:56.04Z</time></trkpt><trkpt lat="43.9928752" lon="11.2894996"><ele>267.0</ele><time>2026-03-28T08:14:56.969Z</time></trkpt><trkpt lat="43.9930344" lon="11.2894889"><ele>267.0</ele><time>2026-03-28T08:14:57.98Z</time></trkpt><trkpt lat="43.9931911" lon="11.289474"><ele>267.0</ele><time>2026-03-28T08:14:59.032Z</time></trkpt><trkpt lat="43.9933501" lon="11.2894607"><ele>266.3333333333333</ele><time>2026-03-28T08:15:00.046Z</time></trkpt><trkpt lat="43.9935082" lon="11.2894446"><ele>265.66666666666663</ele><time>2026-03-28T08:15:01.015Z</time></trkpt><trkpt lat="43.9936676" lon="11.2894342"><ele>265.0</ele><time>2026-03-28T08:15:01.943Z</time></trkpt><trkpt lat="43.9938246" lon="11.2894271"><ele>265.0</ele><time>2026-03-28T08:15:02.958Z</time></trkpt><trkpt lat="43.9939863" lon="11.2894197"><ele>265.0</ele><time>2026-03-28T08:15:03.964Z</time></trkpt><trkpt lat="43.9941462" lon="11.2894173"><ele>265.0</ele><time>2026-03-28T08:15:05.048Z</time></trkpt><trkpt lat="43.9943039" lon="11.28941"><ele>264.3333333333333</ele><time>2026-03-28T08:15:06.03Z</time></trkpt><trkpt lat="43.9944641" lon="11.2894032"><ele>263.6666666666667</ele><time>2026-03-28T08:15:06.964Z</time></trkpt><trkpt lat="43.9946229" lon="11.2893982"><ele>263.0</ele><time>2026-03-28T08:15:07.966Z</time></trkpt><trkpt lat="43.9947809" lon="11.2893904"><ele>263.0</ele><time>2026-03-28T08:15:08.962Z</time></trkpt><trkpt lat="43.9949384" lon="11.2893836"><ele>263.0</ele><time>2026-03-28T08:15:09.974Z</time></trkpt><trkpt lat="43.9950946" lon="11.2893788"><ele>263.0</ele><time>2026-03-28T08:15:10.964Z</time></trkpt><trkpt lat="43.9952522" lon="11.2893588"><ele>263.0</ele><time>2026-03-28T08:15:11.968Z</time></trkpt><trkpt lat="43.9954098" lon="11.2893276"><ele>263.0</ele><time>2026-03-28T08:15:12.962Z</time></trkpt><trkpt lat="43.9955668" lon="11.289281"><ele>263.0</ele><time>2026-03-28T08:15:13.969Z</time></trkpt><trkpt lat="43.9957243" lon="11.289222"><ele>262.6666666666667</ele><time>2026-03-28T08:15:14.959Z</time></trkpt><trkpt lat="43.9958789" lon="11.2891581"><ele>262.3333333333333</ele><time>2026-03-28T08:15:16.016Z</time></trkpt><trkpt lat="43.9960264" lon="11.2890696"><ele>262.0</ele><time>2026-03-28T08:15:16.947Z</time></trkpt><trkpt lat="43.9961702" lon="11.2889681"><ele>261.0</ele><time>2026-03-28T08:15:17.966Z</time></trkpt><trkpt lat="43.9963077" lon="11.2888699"><ele>260.0</ele><time>2026-03-28T08:15:18.965Z</time></trkpt><trkpt lat="43.9964467" lon="11.2887616"><ele>259.0</ele><time>2026-03-28T08:15:19.954Z</time></trkpt><trkpt lat="43.9965848" lon="11.2886475"><ele>259.3333333333333</ele><time>2026-03-28T08:15:20.941Z</time></trkpt><trkpt lat="43.9967217" lon="11.2885429"><ele>259.6666666666667</ele><time>2026-03-28T08:15:21.958Z</time></trkpt><trkpt lat="43.9968623" lon="11.2884418"><ele>260.0</ele><time>2026-03-28T08:15:22.97Z</time></trkpt><trkpt lat="43.9970031" lon="11.288347"><ele>260.0</ele><time>2026-03-28T08:15:23.968Z</time></trkpt><trkpt lat="43.9971374" lon="11.288246"><ele>260.0</ele><time>2026-03-28T08:15:25.037Z</time></trkpt><trkpt lat="43.9972737" lon="11.2881459"><ele>260.0</ele><time>2026-03-28T08:15:26.033Z</time></trkpt><trkpt lat="43.997408" lon="11.2880463"><ele>259.6666666666667</ele><time>2026-03-28T08:15:27.04Z</time></trkpt><trkpt lat="43.9975388" lon="11.2879481"><ele>259.3333333333333</ele><time>2026-03-28T08:15:27.969Z</time></trkpt><trkpt lat="43.9976727" lon="11.2878487"><ele>259.0</ele><time>2026-03-28T08:15:28.966Z</time></trkpt><trkpt lat="43.9978054" lon="11.2877507"><ele>259.0</ele><time>2026-03-28T08:15:30.032Z</time></trkpt><trkpt lat="43.9979354" lon="11.2876499"><ele>259.0</ele><time>2026-03-28T08:15:31.04Z</time></trkpt><trkpt lat="43.9980659" lon="11.287549"><ele>259.0</ele><time>2026-03-28T08:15:32.051Z</time></trkpt><trkpt lat="43.9981994" lon="11.2874457"><ele>259.0</ele><time>2026-03-28T08:15:32.961Z</time></trkpt><trkpt lat="43.9983308" lon="11.2873467"><ele>259.0</ele><time>2026-03-28T08:15:33.963Z</time></trkpt><trkpt lat="43.9984594" lon="11.2872469"><ele>259.0</ele><time>2026-03-28T08:15:35.043Z</time></trkpt><trkpt lat="43.9985872" lon="11.28715"><ele>259.0</ele><time>2026-03-28T08:15:35.955Z</time></trkpt><trkpt lat="43.998717" lon="11.287055"><ele>259.0</ele><time>2026-03-28T08:15:37.021Z</time></trkpt><trkpt lat="43.9988474" lon="11.2869561"><ele>259.0</ele><time>2026-03-28T08:15:37.973Z</time></trkpt><trkpt lat="43.9989813" lon="11.2868578"><ele>259.0</ele><time>2026-03-28T08:15:38.975Z</time></trkpt><trkpt lat="43.9991117" lon="11.2867582"><ele>259.0</ele><time>2026-03-28T08:15:39.972Z</time></trkpt><trkpt lat="43.999244" lon="11.2866551"><ele>259.66666666666663</ele><time>2026-03-28T08:15:40.962Z</time></trkpt><trkpt lat="43.9993754" lon="11.2865569"><ele>260.3333333333333</ele><time>2026-03-28T08:15:42.031Z</time></trkpt><trkpt lat="43.9995067" lon="11.2864616"><ele>261.0</ele><time>2026-03-28T08:15:42.961Z</time></trkpt><trkpt lat="43.9996427" lon="11.2863656"><ele>261.25</ele><time>2026-03-28T08:15:43.971Z</time></trkpt><trkpt lat="43.999774" lon="11.2862664"><ele>261.5</ele><time>2026-03-28T08:15:44.984Z</time></trkpt><trkpt lat="43.999903" lon="11.2861674"><ele>261.75</ele><time>2026-03-28T08:15:46.031Z</time></trkpt><trkpt lat="44.0000312" lon="11.2860651"><ele>262.0</ele><time>2026-03-28T08:15:46.976Z</time></trkpt><trkpt lat="44.0001589" lon="11.2859667"><ele>262.0</ele><time>2026-03-28T08:15:47.968Z</time></trkpt><trkpt lat="44.00029" lon="11.2858676"><ele>262.0</ele><time>2026-03-28T08:15:49.027Z</time></trkpt><trkpt lat="44.0004222" lon="11.2857678"><ele>262.0</ele><time>2026-03-28T08:15:49.966Z</time></trkpt><trkpt lat="44.0005536" lon="11.2856676"><ele>262.0</ele><time>2026-03-28T08:15:50.965Z</time></trkpt><trkpt lat="44.0006824" lon="11.2855747"><ele>262.0</ele><time>2026-03-28T08:15:51.947Z</time></trkpt><trkpt lat="44.0008096" lon="11.2854814"><ele>262.0</ele><time>2026-03-28T08:15:52.944Z</time></trkpt><trkpt lat="44.0009393" lon="11.2853858"><ele>262.0</ele><time>2026-03-28T08:15:53.948Z</time></trkpt><trkpt lat="44.0010692" lon="11.2852893"><ele>262.25</ele><time>2026-03-28T08:15:55.037Z</time></trkpt><trkpt lat="44.0011998" lon="11.2851908"><ele>262.5</ele><time>2026-03-28T08:15:56.032Z</time></trkpt><trkpt lat="44.0013351" lon="11.2851007"><ele>262.75</ele><time>2026-03-28T08:15:56.988Z</time></trkpt><trkpt lat="44.0014622" lon="11.2850173"><ele>263.0</ele><time>2026-03-28T08:15:57.97Z</time></trkpt><trkpt lat="44.001597" lon="11.2849332"><ele>263.25</ele><time>2026-03-28T08:15:58.974Z</time></trkpt><trkpt lat="44.0017323" lon="11.2848732"><ele>263.5</ele><time>2026-03-28T08:15:59.982Z</time></trkpt><trkpt lat="44.0018703" lon="11.2848213"><ele>263.75</ele><time>2026-03-28T08:16:00.98Z</time></trkpt><trkpt lat="44.0020118" lon="11.2847703"><ele>264.0</ele><time>2026-03-28T08:16:01.973Z</time></trkpt><trkpt lat="44.0021502" lon="11.2847338"><ele>264.25</ele><time>2026-03-28T08:16:02.956Z</time></trkpt><trkpt lat="44.0022914" lon="11.284707"><ele>264.5</ele><time>2026-03-28T08:16:04.035Z</time></trkpt><trkpt lat="44.0024312" lon="11.284674"><ele>264.75</ele><time>2026-03-28T08:16:05.043Z</time></trkpt><trkpt lat="44.0025684" lon="11.2846437"><ele>265.0</ele><time>2026-03-28T08:16:06.036Z</time></trkpt><trkpt lat="44.0027057" lon="11.284608"><ele>265.0</ele><time>2026-03-28T08:16:07.029Z</time></trkpt><trkpt lat="44.0028445" lon="11.2845816"><ele>265.0</ele><time>2026-03-28T08:16:07.994Z</time></trkpt><trkpt lat="44.0029821" lon="11.2845635"><ele>265.0</ele><time>2026-03-28T08:16:08.965Z</time></trkpt><trkpt lat="44.0031175" lon="11.2845572"><ele>265.0</ele><time>2026-03-28T08:16:10.036Z</time></trkpt><trkpt lat="44.0032468" lon="11.2845776"><ele>265.0</ele><time>2026-03-28T08:16:11.033Z</time></trkpt><trkpt lat="44.0033782" lon="11.2845978"><ele>265.0</ele><time>2026-03-28T08:16:11.968Z</time></trkpt><trkpt lat="44.0035124" lon="11.284634"><ele>265.0</ele><time>2026-03-28T08:16:12.956Z</time></trkpt><trkpt lat="44.0036431" lon="11.2846805"><ele>265.0</ele><time>2026-03-28T08:16:14.034Z</time></trkpt><trkpt lat="44.0037754" lon="11.2847354"><ele>265.25</ele><time>2026-03-28T08:16:15.03Z</time></trkpt><trkpt lat="44.003903" lon="11.2847904"><ele>265.5</ele><time>2026-03-28T08:16:16.046Z</time></trkpt><trkpt lat="44.0040269" lon="11.2848595"><ele>265.75</ele><time>2026-03-28T08:16:17.039Z</time></trkpt><trkpt lat="44.0041472" lon="11.2849323"><ele>266.0</ele><time>2026-03-28T08:16:17.976Z</time></trkpt><trkpt lat="44.0042658" lon="11.2850038"><ele>266.25</ele><time>2026-03-28T08:16:18.979Z</time></trkpt><trkpt lat="44.0043906" lon="11.285078"><ele>266.5</ele><time>2026-03-28T08:16:19.989Z</time></trkpt><trkpt lat="44.0045096" lon="11.2851478"><ele>266.75</ele><time>2026-03-28T08:16:21.058Z</time></trkpt><trkpt lat="44.0046323" lon="11.2852192"><ele>267.0</ele><time>2026-03-28T08:16:21.974Z</time></trkpt><trkpt lat="44.004759" lon="11.2852887"><ele>267.0</ele><time>2026-03-28T08:16:22.973Z</time></trkpt><trkpt lat="44.0048836" lon="11.2853582"><ele>267.0</ele><time>2026-03-28T08:16:23.963Z</time></trkpt><trkpt lat="44.0050061" lon="11.2854287"><ele>267.0</ele><time>2026-03-28T08:16:24.971Z</time></trkpt><trkpt lat="44.0051281" lon="11.2854999"><ele>267.0</ele><time>2026-03-28T08:16:25.963Z</time></trkpt><trkpt lat="44.0052526" lon="11.2855708"><ele>267.75</ele><time>2026-03-28T08:16:26.974Z</time></trkpt><trkpt lat="44.0053757" lon="11.2856454"><ele>268.5</ele><time>2026-03-28T08:16:27.972Z</time></trkpt><trkpt lat="44.0054951" lon="11.2857124"><ele>269.25</ele><time>2026-03-28T08:16:28.975Z</time></trkpt><trkpt lat="44.0056168" lon="11.2857845"><ele>270.0</ele><time>2026-03-28T08:16:29.973Z</time></trkpt><trkpt lat="44.0057407" lon="11.28586"><ele>270.0</ele><time>2026-03-28T08:16:30.96Z</time></trkpt><trkpt lat="44.0058583" lon="11.2859382"><ele>270.0</ele><time>2026-03-28T08:16:31.971Z</time></trkpt><trkpt lat="44.0059813" lon="11.2860097"><ele>270.0</ele><time>2026-03-28T08:16:32.969Z</time></trkpt><trkpt lat="44.0061038" lon="11.2860749"><ele>270.0</ele><time>2026-03-28T08:16:33.972Z</time></trkpt><trkpt lat="44.0062227" lon="11.2861511"><ele>270.0</ele><time>2026-03-28T08:16:34.98Z</time></trkpt><trkpt lat="44.0063389" lon="11.28622"><ele>270.0</ele><time>2026-03-28T08:16:35.968Z</time></trkpt><trkpt lat="44.0064561" lon="11.2862878"><ele>270.0</ele><time>2026-03-28T08:16:36.964Z</time></trkpt><trkpt lat="44.0065716" lon="11.2863608"><ele>270.0</ele><time>2026-03-28T08:16:37.977Z</time></trkpt><trkpt lat="44.0066853" lon="11.2864284"><ele>271.25</ele><time>2026-03-28T08:16:38.974Z</time></trkpt><trkpt lat="44.0068027" lon="11.2865039"><ele>272.5</ele><time>2026-03-28T08:16:39.967Z</time></trkpt><trkpt lat="44.0069147" lon="11.2865819"><ele>273.75</ele><time>2026-03-28T08:16:40.962Z</time></trkpt><trkpt lat="44.0070327" lon="11.2866578"><ele>275.0</ele><time>2026-03-28T08:16:41.971Z</time></trkpt><trkpt lat="44.0071466" lon="11.2867337"><ele>275.0</ele><time>2026-03-28T08:16:42.972Z</time></trkpt><trkpt lat="44.007255" lon="11.2868147"><ele>275.0</ele><time>2026-03-28T08:16:43.956Z</time></trkpt><trkpt lat="44.0073665" lon="11.286896"><ele>275.0</ele><time>2026-03-28T08:16:44.976Z</time></trkpt><trkpt lat="44.007478" lon="11.2869829"><ele>275.0</ele><time>2026-03-28T08:16:45.975Z</time></trkpt><trkpt lat="44.0075894" lon="11.2870646"><ele>275.5</ele><time>2026-03-28T08:16:46.976Z</time></trkpt><trkpt lat="44.0077045" lon="11.2871411"><ele>276.0</ele><time>2026-03-28T08:16:47.971Z</time></trkpt><trkpt lat="44.0078184" lon="11.2872093"><ele>276.5</ele><time>2026-03-28T08:16:48.976Z</time></trkpt><trkpt lat="44.0079351" lon="11.2872748"><ele>277.0</ele><time>2026-03-28T08:16:49.975Z</time></trkpt><trkpt lat="44.0080567" lon="11.287335"><ele>277.0</ele><time>2026-03-28T08:16:51.046Z</time></trkpt><trkpt lat="44.0081786" lon="11.287391"><ele>277.0</ele><time>2026-03-28T08:16:51.965Z</time></trkpt><trkpt lat="44.008298" lon="11.2874519"><ele>277.0</ele><time>2026-03-28T08:16:52.97Z</time></trkpt><trkpt lat="44.0084181" lon="11.2875098"><ele>277.0</ele><time>2026-03-28T08:16:53.969Z</time></trkpt><trkpt lat="44.0085386" lon="11.2875703"><ele>277.25</ele><time>2026-03-28T08:16:55.03Z</time></trkpt><trkpt lat="44.0086597" lon="11.2876298"><ele>277.5</ele><time>2026-03-28T08:16:56.03Z</time></trkpt><trkpt lat="44.0087842" lon="11.2876876"><ele>277.75</ele><time>2026-03-28T08:16:57.02Z</time></trkpt><trkpt lat="44.0089052" lon="11.2877469"><ele>278.0</ele><time>2026-03-28T08:16:57.973Z</time></trkpt><trkpt lat="44.0090261" lon="11.2878078"><ele>278.0</ele><time>2026-03-28T08:16:58.963Z</time></trkpt><trkpt lat="44.0091486" lon="11.2878651"><ele>278.0</ele><time>2026-03-28T08:16:59.994Z</time></trkpt><trkpt lat="44.0092721" lon="11.2879144"><ele>278.0</ele><time>2026-03-28T08:17:00.967Z</time></trkpt><trkpt lat="44.0093941" lon="11.2879642"><ele>278.0</ele><time>2026-03-28T08:17:01.964Z</time></trkpt><trkpt lat="44.0095168" lon="11.2880118"><ele>278.0</ele><time>2026-03-28T08:17:02.964Z</time></trkpt><trkpt lat="44.0096418" lon="11.2880471"><ele>278.0</ele><time>2026-03-28T08:17:03.962Z</time></trkpt><trkpt lat="44.0097645" lon="11.2880682"><ele>278.0</ele><time>2026-03-28T08:17:04.961Z</time></trkpt><trkpt lat="44.0098882" lon="11.2880841"><ele>278.0</ele><time>2026-03-28T08:17:06.03Z</time></trkpt><trkpt lat="44.0100142" lon="11.2880945"><ele>278.0</ele><time>2026-03-28T08:17:07.032Z</time></trkpt><trkpt lat="44.0101407" lon="11.2880959"><ele>278.0</ele><time>2026-03-28T08:17:07.964Z</time></trkpt><trkpt lat="44.0102647" lon="11.2880958"><ele>278.0</ele><time>2026-03-28T08:17:09.039Z</time></trkpt><trkpt lat="44.0103952" lon="11.2880852"><ele>278.0</ele><time>2026-03-28T08:17:10.028Z</time></trkpt><trkpt lat="44.0105203" lon="11.2880694"><ele>278.0</ele><time>2026-03-28T08:17:11.05Z</time></trkpt><trkpt lat="44.010646" lon="11.2880459"><ele>278.0</ele><time>2026-03-28T08:17:11.974Z</time></trkpt><trkpt lat="44.0107675" lon="11.2880082"><ele>278.0</ele><time>2026-03-28T08:17:12.972Z</time></trkpt><trkpt lat="44.0108876" lon="11.2879686"><ele>278.0</ele><time>2026-03-28T08:17:13.967Z</time></trkpt><trkpt lat="44.0110076" lon="11.2879324"><ele>278.75</ele><time>2026-03-28T08:17:14.975Z</time></trkpt><trkpt lat="44.0111294" lon="11.2878929"><ele>279.5</ele><time>2026-03-28T08:17:15.969Z</time></trkpt><trkpt lat="44.0112482" lon="11.2878533"><ele>280.25</ele><time>2026-03-28T08:17:16.974Z</time></trkpt><trkpt lat="44.0113683" lon="11.2878133"><ele>281.0</ele><time>2026-03-28T08:17:17.973Z</time></trkpt><trkpt lat="44.0114871" lon="11.2877737"><ele>281.0</ele><time>2026-03-28T08:17:18.976Z</time></trkpt><trkpt lat="44.0116043" lon="11.287737"><ele>281.0</ele><time>2026-03-28T08:17:19.967Z</time></trkpt><trkpt lat="44.0117216" lon="11.2876949"><ele>281.0</ele><time>2026-03-28T08:17:20.975Z</time></trkpt><trkpt lat="44.0118339" lon="11.2876559"><ele>281.0</ele><time>2026-03-28T08:17:21.968Z</time></trkpt><trkpt lat="44.0119453" lon="11.287613"><ele>281.40000000000003</ele><time>2026-03-28T08:17:22.981Z</time></trkpt><trkpt lat="44.0120573" lon="11.2875731"><ele>281.8</ele><time>2026-03-28T08:17:23.966Z</time></trkpt><trkpt lat="44.0121687" lon="11.2875355"><ele>282.20000000000005</ele><time>2026-03-28T08:17:24.973Z</time></trkpt><trkpt lat="44.0122755" lon="11.2875"><ele>282.6</ele><time>2026-03-28T08:17:25.977Z</time></trkpt><trkpt lat="44.0123797" lon="11.2874695"><ele>283.0</ele><time>2026-03-28T08:17:26.973Z</time></trkpt><trkpt lat="44.0124752" lon="11.2874504"><ele>283.2</ele><time>2026-03-28T08:17:27.976Z</time></trkpt><trkpt lat="44.0125666" lon="11.2874291"><ele>283.4</ele><time>2026-03-28T08:17:28.958Z</time></trkpt><trkpt lat="44.0126584" lon="11.2874362"><ele>283.59999999999997</ele><time>2026-03-28T08:17:29.972Z</time></trkpt><trkpt lat="44.012759" lon="11.2874576"><ele>283.8</ele><time>2026-03-28T08:17:30.975Z</time></trkpt><trkpt lat="44.0128558" lon="11.2875037"><ele>284.0</ele><time>2026-03-28T08:17:31.978Z</time></trkpt><trkpt lat="44.012931" lon="11.28759"><ele>284.0</ele><time>2026-03-28T08:17:32.975Z</time></trkpt><trkpt lat="44.0130081" lon="11.2876904"><ele>284.0</ele><time>2026-03-28T08:17:33.953Z</time></trkpt><trkpt lat="44.0130752" lon="11.2878026"><ele>284.0</ele><time>2026-03-28T08:17:34.974Z</time></trkpt><trkpt lat="44.0131427" lon="11.2879144"><ele>284.0</ele><time>2026-03-28T08:17:35.976Z</time></trkpt><trkpt lat="44.0132009" lon="11.2880305"><ele>284.0</ele><time>2026-03-28T08:17:36.97Z</time></trkpt><trkpt lat="44.0132542" lon="11.2881574"><ele>284.0</ele><time>2026-03-28T08:17:37.97Z</time></trkpt><trkpt lat="44.0132981" lon="11.288291"><ele>284.0</ele><time>2026-03-28T08:17:38.972Z</time></trkpt><trkpt lat="44.0133197" lon="11.288438"><ele>284.0</ele><time>2026-03-28T08:17:39.974Z</time></trkpt><trkpt lat="44.013322" lon="11.2885979"><ele>284.0</ele><time>2026-03-28T08:17:40.986Z</time></trkpt><trkpt lat="44.0133074" lon="11.288749"><ele>284.0</ele><time>2026-03-28T08:17:41.976Z</time></trkpt><trkpt lat="44.0132866" lon="11.2888914"><ele>284.0</ele><time>2026-03-28T08:17:42.977Z</time></trkpt><trkpt lat="44.013272" lon="11.2890436"><ele>284.0</ele><time>2026-03-28T08:17:43.984Z</time></trkpt><trkpt lat="44.013259" lon="11.289204"><ele>284.0</ele><time>2026-03-28T08:17:44.978Z</time></trkpt><trkpt lat="44.0132578" lon="11.2893584"><ele>284.0</ele><time>2026-03-28T08:17:45.984Z</time></trkpt><trkpt lat="44.013283" lon="11.2895062"><ele>284.0</ele><time>2026-03-28T08:17:46.979Z</time></trkpt><trkpt lat="44.0133313" lon="11.2896538"><ele>284.25</ele><time>2026-03-28T08:17:47.979Z</time></trkpt><trkpt lat="44.0133976" lon="11.2897794"><ele>284.5</ele><time>2026-03-28T08:17:48.976Z</time></trkpt><trkpt lat="44.0134762" lon="11.2898958"><ele>284.75</ele><time>2026-03-28T08:17:50.052Z</time></trkpt><trkpt lat="44.013567" lon="11.2899887"><ele>285.0</ele><time>2026-03-28T08:17:51.03Z</time></trkpt><trkpt lat="44.0136636" lon="11.2900784"><ele>285.0</ele><time>2026-03-28T08:17:51.965Z</time></trkpt><trkpt lat="44.0137663" lon="11.2901587"><ele>285.0</ele><time>2026-03-28T08:17:52.976Z</time></trkpt><trkpt lat="44.013872" lon="11.2902239"><ele>285.0</ele><time>2026-03-28T08:17:53.969Z</time></trkpt><trkpt lat="44.0139758" lon="11.2902805"><ele>285.0</ele><time>2026-03-28T08:17:55.033Z</time></trkpt><trkpt lat="44.0140747" lon="11.2903533"><ele>285.4</ele><time>2026-03-28T08:17:56.03Z</time></trkpt><trkpt lat="44.0141642" lon="11.2904522"><ele>285.8</ele><time>2026-03-28T08:17:57.038Z</time></trkpt><trkpt lat="44.0142441" lon="11.2905579"><ele>286.2</ele><time>2026-03-28T08:17:57.964Z</time></trkpt><trkpt lat="44.0143096" lon="11.2906711"><ele>286.6</ele><time>2026-03-28T08:17:58.967Z</time></trkpt><trkpt lat="44.0143704" lon="11.290785"><ele>287.0</ele><time>2026-03-28T08:17:59.979Z</time></trkpt><trkpt lat="44.014425" lon="11.2909005"><ele>287.1666666666667</ele><time>2026-03-28T08:18:01.03Z</time></trkpt><trkpt lat="44.014471" lon="11.2910066"><ele>287.33333333333337</ele><time>2026-03-28T08:18:01.966Z</time></trkpt><trkpt lat="44.0145165" lon="11.2911059"><ele>287.5</ele><time>2026-03-28T08:18:02.988Z</time></trkpt><trkpt lat="44.0145642" lon="11.2911939"><ele>287.6666666666667</ele><time>2026-03-28T08:18:03.967Z</time></trkpt><trkpt lat="44.0146198" lon="11.291269"><ele>287.8333333333333</ele><time>2026-03-28T08:18:04.965Z</time></trkpt><trkpt lat="44.0146875" lon="11.2913138"><ele>288.0</ele><time>2026-03-28T08:18:05.969Z</time></trkpt><trkpt lat="44.014759" lon="11.291319"><ele>288.0</ele><time>2026-03-28T08:18:06.97Z</time></trkpt><trkpt lat="44.0148424" lon="11.2913149"><ele>288.0</ele><time>2026-03-28T08:18:07.963Z</time></trkpt><trkpt lat="44.0149243" lon="11.2913053"><ele>288.0</ele><time>2026-03-28T08:18:09.037Z</time></trkpt><trkpt lat="44.015017" lon="11.2912914"><ele>288.0</ele><time>2026-03-28T08:18:09.986Z</time></trkpt><trkpt lat="44.0151037" lon="11.2912791"><ele>288.0</ele><time>2026-03-28T08:18:10.952Z</time></trkpt><trkpt lat="44.0151857" lon="11.291257"><ele>288.0</ele><time>2026-03-28T08:18:11.973Z</time></trkpt><trkpt lat="44.0152703" lon="11.2912296"><ele>288.5</ele><time>2026-03-28T08:18:12.977Z</time></trkpt><trkpt lat="44.0153529" lon="11.2912211"><ele>289.0</ele><time>2026-03-28T08:18:13.963Z</time></trkpt><trkpt lat="44.0154345" lon="11.2912017"><ele>289.5</ele><time>2026-03-28T08:18:14.98Z</time></trkpt><trkpt lat="44.0155148" lon="11.2911841"><ele>290.0</ele><time>2026-03-28T08:18:16.029Z</time></trkpt><trkpt lat="44.0155826" lon="11.2911791"><ele>290.5</ele><time>2026-03-28T08:18:17.032Z</time></trkpt><trkpt lat="44.0156859" lon="11.2911903"><ele>291.0</ele><time>2026-03-28T08:18:18.948Z</time></trkpt><trkpt lat="44.01578" lon="11.2912148"><ele>292.0</ele><time>2026-03-28T08:18:21.038Z</time></trkpt><trkpt lat="44.01589" lon="11.2912047"><ele>293.0</ele><time>2026-03-28T08:18:22.958Z</time></trkpt><trkpt lat="44.0159938" lon="11.2912354"><ele>294.0</ele><time>2026-03-28T08:18:25.036Z</time></trkpt><trkpt lat="44.0161066" lon="11.2913019"><ele>295.0</ele><time>2026-03-28T08:18:26.964Z</time></trkpt><trkpt lat="44.01617" lon="11.2913299"><ele>296.0</ele><time>2026-03-28T08:18:27.967Z</time></trkpt><trkpt lat="44.0162321" lon="11.2913679"><ele>296.0</ele><time>2026-03-28T08:18:28.972Z</time></trkpt><trkpt lat="44.0162953" lon="11.2914006"><ele>296.0</ele><time>2026-03-28T08:18:29.954Z</time></trkpt><trkpt lat="44.0163635" lon="11.2914411"><ele>296.0</ele><time>2026-03-28T08:18:30.967Z</time></trkpt><trkpt lat="44.0164228" lon="11.2914784"><ele>296.0</ele><time>2026-03-28T08:18:31.979Z</time></trkpt><trkpt lat="44.0165158" lon="11.29157"><ele>296.0</ele><time>2026-03-28T08:18:33.969Z</time></trkpt><trkpt lat="44.0166007" lon="11.2916391"><ele>296.0</ele><time>2026-03-28T08:18:36.035Z</time></trkpt><trkpt lat="44.016659" lon="11.2917081"><ele>296.6666666666667</ele><time>2026-03-28T08:18:37.97Z</time></trkpt><trkpt lat="44.0167118" lon="11.2917586"><ele>297.33333333333337</ele><time>2026-03-28T08:18:42.034Z</time></trkpt><trkpt lat="44.0167618" lon="11.2918413"><ele>298.0</ele><time>2026-03-28T08:18:44.966Z</time></trkpt><trkpt lat="44.0168138" lon="11.2919218"><ele>298.6666666666667</ele><time>2026-03-28T08:18:46.971Z</time></trkpt><trkpt lat="44.0168699" lon="11.2919974"><ele>299.3333333333333</ele><time>2026-03-28T08:18:49.029Z</time></trkpt><trkpt lat="44.016913" lon="11.2920757"><ele>300.0</ele><time>2026-03-28T08:19:03.972Z</time></trkpt><trkpt lat="44.0169917" lon="11.2921787"><ele>300.0</ele><time>2026-03-28T08:19:07.031Z</time></trkpt><trkpt lat="44.0170394" lon="11.2922381"><ele>300.0</ele><time>2026-03-28T08:19:07.964Z</time></trkpt><trkpt lat="44.0170948" lon="11.2922922"><ele>300.0</ele><time>2026-03-28T08:19:08.97Z</time></trkpt><trkpt lat="44.0171915" lon="11.2924056"><ele>300.0</ele><time>2026-03-28T08:19:10.961Z</time></trkpt><trkpt lat="44.0172473" lon="11.2924665"><ele>300.0</ele><time>2026-03-28T08:19:11.97Z</time></trkpt><trkpt lat="44.0173148" lon="11.2925151"><ele>300.0</ele><time>2026-03-28T08:19:12.968Z</time></trkpt><trkpt lat="44.0173755" lon="11.2925638"><ele>300.0</ele><time>2026-03-28T08:19:13.978Z</time></trkpt><trkpt lat="44.0174457" lon="11.2926352"><ele>300.0</ele><time>2026-03-28T08:19:15.979Z</time></trkpt><trkpt lat="44.0175437" lon="11.2926675"><ele>300.0</ele><time>2026-03-28T08:19:18.978Z</time></trkpt><trkpt lat="44.0176579" lon="11.2926979"><ele>300.0</ele><time>2026-03-28T08:19:21.035Z</time></trkpt><trkpt lat="44.0177344" lon="11.2926996"><ele>300.0</ele><time>2026-03-28T08:19:22.037Z</time></trkpt><trkpt lat="44.0178062" lon="11.2927182"><ele>300.0</ele><time>2026-03-28T08:19:22.97Z</time></trkpt><trkpt lat="44.0178813" lon="11.2927307"><ele>300.0</ele><time>2026-03-28T08:19:23.979Z</time></trkpt><trkpt lat="44.0179558" lon="11.2927449"><ele>300.0</ele><time>2026-03-28T08:19:24.978Z</time></trkpt><trkpt lat="44.018036" lon="11.2927673"><ele>300.0</ele><time>2026-03-28T08:19:25.977Z</time></trkpt><trkpt lat="44.0181068" lon="11.2927971"><ele>300.0</ele><time>2026-03-28T08:19:26.978Z</time></trkpt><trkpt lat="44.0181908" lon="11.2928221"><ele>300.0</ele><time>2026-03-28T08:19:28.977Z</time></trkpt><trkpt lat="44.0183068" lon="11.2928873"><ele>300.0</ele><time>2026-03-28T08:19:30.961Z</time></trkpt><trkpt lat="44.0183749" lon="11.2929179"><ele>300.0</ele><time>2026-03-28T08:19:31.977Z</time></trkpt><trkpt lat="44.0184517" lon="11.2929415"><ele>300.0</ele><time>2026-03-28T08:19:32.961Z</time></trkpt><trkpt lat="44.0185343" lon="11.2929652"><ele>300.0</ele><time>2026-03-28T08:19:33.952Z</time></trkpt><trkpt lat="44.0186309" lon="11.2929886"><ele>300.0</ele><time>2026-03-28T08:19:34.964Z</time></trkpt><trkpt lat="44.0187217" lon="11.2930249"><ele>300.0</ele><time>2026-03-28T08:19:35.979Z</time></trkpt><trkpt lat="44.018809" lon="11.2930537"><ele>300.0</ele><time>2026-03-28T08:19:36.975Z</time></trkpt><trkpt lat="44.0188939" lon="11.2930815"><ele>300.0</ele><time>2026-03-28T08:19:37.978Z</time></trkpt><trkpt lat="44.0189696" lon="11.2931086"><ele>300.0</ele><time>2026-03-28T08:19:38.972Z</time></trkpt><trkpt lat="44.0190493" lon="11.293129"><ele>300.0</ele><time>2026-03-28T08:19:39.985Z</time></trkpt><trkpt lat="44.0191302" lon="11.2931479"><ele>300.0</ele><time>2026-03-28T08:19:40.995Z</time></trkpt><trkpt lat="44.0192079" lon="11.2931598"><ele>300.0</ele><time>2026-03-28T08:19:41.977Z</time></trkpt><trkpt lat="44.0192812" lon="11.2931624"><ele>300.57142857142856</ele><time>2026-03-28T08:19:42.967Z</time></trkpt><trkpt lat="44.019348" lon="11.29317"><ele>301.1428571428571</ele><time>2026-03-28T08:19:43.979Z</time></trkpt><trkpt lat="44.019426" lon="11.2931771"><ele>301.71428571428567</ele><time>2026-03-28T08:19:44.97Z</time></trkpt><trkpt lat="44.0194956" lon="11.2931743"><ele>302.2857142857143</ele><time>2026-03-28T08:19:45.976Z</time></trkpt><trkpt lat="44.0195674" lon="11.2931895"><ele>302.8571428571429</ele><time>2026-03-28T08:19:46.969Z</time></trkpt><trkpt lat="44.0196408" lon="11.2932025"><ele>303.4285714285714</ele><time>2026-03-28T08:19:47.968Z</time></trkpt><trkpt lat="44.0197135" lon="11.29321"><ele>304.0</ele><time>2026-03-28T08:19:49.028Z</time></trkpt><trkpt lat="44.0197784" lon="11.2932542"><ele>304.0</ele><time>2026-03-28T08:19:50.032Z</time></trkpt><trkpt lat="44.0198455" lon="11.2933267"><ele>304.0</ele><time>2026-03-28T08:19:51.041Z</time></trkpt><trkpt lat="44.0199244" lon="11.293406"><ele>304.0</ele><time>2026-03-28T08:19:51.979Z</time></trkpt><trkpt lat="44.0200055" lon="11.2934762"><ele>304.0</ele><time>2026-03-28T08:19:52.983Z</time></trkpt><trkpt lat="44.0200878" lon="11.2935169"><ele>304.0</ele><time>2026-03-28T08:19:53.981Z</time></trkpt><trkpt lat="44.0201663" lon="11.2935528"><ele>304.0</ele><time>2026-03-28T08:19:55.003Z</time></trkpt><trkpt lat="44.0202503" lon="11.2935821"><ele>303.8</ele><time>2026-03-28T08:19:55.987Z</time></trkpt><trkpt lat="44.0203382" lon="11.293605"><ele>303.59999999999997</ele><time>2026-03-28T08:19:56.981Z</time></trkpt><trkpt lat="44.0204232" lon="11.29363"><ele>303.4</ele><time>2026-03-28T08:19:57.977Z</time></trkpt><trkpt lat="44.0205229" lon="11.2936477"><ele>303.2</ele><time>2026-03-28T08:19:58.978Z</time></trkpt><trkpt lat="44.0206178" lon="11.2936738"><ele>303.0</ele><time>2026-03-28T08:19:59.977Z</time></trkpt><trkpt lat="44.0207177" lon="11.2937001"><ele>303.4</ele><time>2026-03-28T08:20:00.974Z</time></trkpt><trkpt lat="44.0208169" lon="11.293726"><ele>303.8</ele><time>2026-03-28T08:20:02.05Z</time></trkpt><trkpt lat="44.0209236" lon="11.2937496"><ele>304.2</ele><time>2026-03-28T08:20:02.966Z</time></trkpt><trkpt lat="44.0210244" lon="11.2937866"><ele>304.6</ele><time>2026-03-28T08:20:03.968Z</time></trkpt><trkpt lat="44.0211258" lon="11.2938265"><ele>305.0</ele><time>2026-03-28T08:20:04.998Z</time></trkpt><trkpt lat="44.0212285" lon="11.2938757"><ele>305.4</ele><time>2026-03-28T08:20:06.029Z</time></trkpt><trkpt lat="44.0213318" lon="11.2939274"><ele>305.8</ele><time>2026-03-28T08:20:07.028Z</time></trkpt><trkpt lat="44.0214323" lon="11.2939927"><ele>306.2</ele><time>2026-03-28T08:20:07.976Z</time></trkpt><trkpt lat="44.0215232" lon="11.2940693"><ele>306.6</ele><time>2026-03-28T08:20:08.974Z</time></trkpt><trkpt lat="44.0216149" lon="11.2941425"><ele>307.0</ele><time>2026-03-28T08:20:10.009Z</time></trkpt><trkpt lat="44.0217111" lon="11.2942181"><ele>307.4</ele><time>2026-03-28T08:20:11.035Z</time></trkpt><trkpt lat="44.0218112" lon="11.2942905"><ele>307.79999999999995</ele><time>2026-03-28T08:20:12.034Z</time></trkpt><trkpt lat="44.0219066" lon="11.2943642"><ele>308.2</ele><time>2026-03-28T08:20:12.971Z</time></trkpt><trkpt lat="44.0220049" lon="11.2944278"><ele>308.59999999999997</ele><time>2026-03-28T08:20:13.969Z</time></trkpt><trkpt lat="44.0221028" lon="11.29449"><ele>309.0</ele><time>2026-03-28T08:20:15.015Z</time></trkpt><trkpt lat="44.0222032" lon="11.2945505"><ele>309.0</ele><time>2026-03-28T08:20:15.965Z</time></trkpt><trkpt lat="44.022307" lon="11.2946066"><ele>309.0</ele><time>2026-03-28T08:20:16.943Z</time></trkpt><trkpt lat="44.0224114" lon="11.2946485"><ele>309.0</ele><time>2026-03-28T08:20:17.963Z</time></trkpt><trkpt lat="44.0225112" lon="11.2946828"><ele>309.0</ele><time>2026-03-28T08:20:18.965Z</time></trkpt><trkpt lat="44.0226215" lon="11.2946871"><ele>309.0</ele><time>2026-03-28T08:20:19.973Z</time></trkpt><trkpt lat="44.0227369" lon="11.2946714"><ele>309.5</ele><time>2026-03-28T08:20:20.96Z</time></trkpt><trkpt lat="44.0228569" lon="11.2946558"><ele>310.0</ele><time>2026-03-28T08:20:21.968Z</time></trkpt><trkpt lat="44.0229709" lon="11.2946237"><ele>310.5</ele><time>2026-03-28T08:20:22.974Z</time></trkpt><trkpt lat="44.0230827" lon="11.2945734"><ele>311.0</ele><time>2026-03-28T08:20:23.968Z</time></trkpt><trkpt lat="44.0231899" lon="11.2945077"><ele>311.0</ele><time>2026-03-28T08:20:24.958Z</time></trkpt><trkpt lat="44.0233087" lon="11.2944539"><ele>311.0</ele><time>2026-03-28T08:20:25.962Z</time></trkpt><trkpt lat="44.0234273" lon="11.2944208"><ele>311.0</ele><time>2026-03-28T08:20:26.961Z</time></trkpt><trkpt lat="44.0235443" lon="11.2944053"><ele>311.0</ele><time>2026-03-28T08:20:27.98Z</time></trkpt><trkpt lat="44.0236589" lon="11.2944142"><ele>311.5</ele><time>2026-03-28T08:20:28.947Z</time></trkpt><trkpt lat="44.0237675" lon="11.294447"><ele>312.0</ele><time>2026-03-28T08:20:30.04Z</time></trkpt><trkpt lat="44.0238835" lon="11.2944755"><ele>312.5</ele><time>2026-03-28T08:20:31.047Z</time></trkpt><trkpt lat="44.0239975" lon="11.2944983"><ele>313.0</ele><time>2026-03-28T08:20:32.028Z</time></trkpt><trkpt lat="44.0241114" lon="11.2945223"><ele>313.5</ele><time>2026-03-28T08:20:32.974Z</time></trkpt><trkpt lat="44.024228" lon="11.294542"><ele>314.0</ele><time>2026-03-28T08:20:33.978Z</time></trkpt><trkpt lat="44.0243444" lon="11.2945627"><ele>314.5</ele><time>2026-03-28T08:20:34.986Z</time></trkpt><trkpt lat="44.0244632" lon="11.2945867"><ele>315.0</ele><time>2026-03-28T08:20:36.034Z</time></trkpt><trkpt lat="44.0245834" lon="11.2946097"><ele>315.0</ele><time>2026-03-28T08:20:37.048Z</time></trkpt><trkpt lat="44.0247044" lon="11.294628"><ele>315.0</ele><time>2026-03-28T08:20:37.967Z</time></trkpt><trkpt lat="44.024824" lon="11.294639"><ele>315.0</ele><time>2026-03-28T08:20:39.031Z</time></trkpt><trkpt lat="44.0249452" lon="11.2946405"><ele>315.0</ele><time>2026-03-28T08:20:40.038Z</time></trkpt><trkpt lat="44.0250635" lon="11.294633"><ele>315.5</ele><time>2026-03-28T08:20:41.031Z</time></trkpt><trkpt lat="44.0251805" lon="11.2946256"><ele>316.0</ele><time>2026-03-28T08:20:41.98Z</time></trkpt><trkpt lat="44.0252934" lon="11.2946114"><ele>316.5</ele><time>2026-03-28T08:20:42.965Z</time></trkpt><trkpt lat="44.0254054" lon="11.2946156"><ele>317.0</ele><time>2026-03-28T08:20:43.962Z</time></trkpt><trkpt lat="44.025519" lon="11.2946244"><ele>317.0</ele><time>2026-03-28T08:20:45.063Z</time></trkpt><trkpt lat="44.0256279" lon="11.2946505"><ele>317.0</ele><time>2026-03-28T08:20:46.033Z</time></trkpt><trkpt lat="44.0257395" lon="11.2946726"><ele>317.0</ele><time>2026-03-28T08:20:46.97Z</time></trkpt><trkpt lat="44.0258522" lon="11.2946975"><ele>317.0</ele><time>2026-03-28T08:20:47.958Z</time></trkpt><trkpt lat="44.0259581" lon="11.2947218"><ele>317.0</ele><time>2026-03-28T08:20:48.973Z</time></trkpt><trkpt lat="44.0260668" lon="11.2947423"><ele>319.75</ele><time>2026-03-28T08:20:49.996Z</time></trkpt><trkpt lat="44.0261772" lon="11.294761"><ele>322.5</ele><time>2026-03-28T08:20:50.979Z</time></trkpt><trkpt lat="44.0262896" lon="11.2947845"><ele>325.25</ele><time>2026-03-28T08:20:51.976Z</time></trkpt><trkpt lat="44.0264008" lon="11.2948044"><ele>328.0</ele><time>2026-03-28T08:20:52.971Z</time></trkpt><trkpt lat="44.0265146" lon="11.2948191"><ele>328.0</ele><time>2026-03-28T08:20:53.972Z</time></trkpt><trkpt lat="44.0266318" lon="11.2948287"><ele>328.0</ele><time>2026-03-28T08:20:54.97Z</time></trkpt><trkpt lat="44.0267491" lon="11.2948278"><ele>328.0</ele><time>2026-03-28T08:20:55.964Z</time></trkpt><trkpt lat="44.026853" lon="11.2948169"><ele>328.0</ele><time>2026-03-28T08:20:56.964Z</time></trkpt><trkpt lat="44.0269536" lon="11.294822"><ele>328.0</ele><time>2026-03-28T08:20:57.965Z</time></trkpt><trkpt lat="44.0270509" lon="11.2948433"><ele>328.4</ele><time>2026-03-28T08:20:58.96Z</time></trkpt><trkpt lat="44.0271457" lon="11.2948931"><ele>328.79999999999995</ele><time>2026-03-28T08:20:59.944Z</time></trkpt><trkpt lat="44.0272329" lon="11.2949583"><ele>329.2</ele><time>2026-03-28T08:21:00.966Z</time></trkpt><trkpt lat="44.02732" lon="11.2950417"><ele>329.6</ele><time>2026-03-28T08:21:01.974Z</time></trkpt><trkpt lat="44.027411" lon="11.2951218"><ele>330.0</ele><time>2026-03-28T08:21:02.96Z</time></trkpt><trkpt lat="44.0275048" lon="11.2952046"><ele>330.0</ele><time>2026-03-28T08:21:03.97Z</time></trkpt><trkpt lat="44.0275889" lon="11.2952993"><ele>330.0</ele><time>2026-03-28T08:21:05.032Z</time></trkpt><trkpt lat="44.0276617" lon="11.2954083"><ele>330.0</ele><time>2026-03-28T08:21:05.972Z</time></trkpt><trkpt lat="44.0277309" lon="11.2955142"><ele>330.0</ele><time>2026-03-28T08:21:06.982Z</time></trkpt><trkpt lat="44.027804" lon="11.2956235"><ele>330.0</ele><time>2026-03-28T08:21:07.981Z</time></trkpt><trkpt lat="44.0278924" lon="11.2957188"><ele>331.0</ele><time>2026-03-28T08:21:08.983Z</time></trkpt><trkpt lat="44.0279755" lon="11.2958151"><ele>332.0</ele><time>2026-03-28T08:21:09.982Z</time></trkpt><trkpt lat="44.0280684" lon="11.2958878"><ele>333.0</ele><time>2026-03-28T08:21:11.031Z</time></trkpt><trkpt lat="44.0281675" lon="11.2959534"><ele>334.0</ele><time>2026-03-28T08:21:12.029Z</time></trkpt><trkpt lat="44.0282666" lon="11.2960128"><ele>335.0</ele><time>2026-03-28T08:21:12.979Z</time></trkpt><trkpt lat="44.0283699" lon="11.2960674"><ele>335.0</ele><time>2026-03-28T08:21:13.977Z</time></trkpt><trkpt lat="44.0284776" lon="11.2961158"><ele>335.0</ele><time>2026-03-28T08:21:14.993Z</time></trkpt><trkpt lat="44.0285931" lon="11.2961579"><ele>335.0</ele><time>2026-03-28T08:21:15.974Z</time></trkpt><trkpt lat="44.0287043" lon="11.2961991"><ele>335.0</ele><time>2026-03-28T08:21:16.977Z</time></trkpt><trkpt lat="44.0288183" lon="11.2962378"><ele>335.0</ele><time>2026-03-28T08:21:17.975Z</time></trkpt><trkpt lat="44.0289293" lon="11.2962842"><ele>335.0</ele><time>2026-03-28T08:21:18.98Z</time></trkpt><trkpt lat="44.0290401" lon="11.2963303"><ele>335.0</ele><time>2026-03-28T08:21:20.029Z</time></trkpt><trkpt lat="44.0291519" lon="11.2963694"><ele>335.0</ele><time>2026-03-28T08:21:21.026Z</time></trkpt><trkpt lat="44.0292579" lon="11.2964078"><ele>337.4</ele><time>2026-03-28T08:21:22.025Z</time></trkpt><trkpt lat="44.0293603" lon="11.296445"><ele>339.8</ele><time>2026-03-28T08:21:22.97Z</time></trkpt><trkpt lat="44.0294566" lon="11.296489"><ele>342.20000000000005</ele><time>2026-03-28T08:21:23.968Z</time></trkpt><trkpt lat="44.0295427" lon="11.2965477"><ele>344.6</ele><time>2026-03-28T08:21:24.968Z</time></trkpt><trkpt lat="44.0296226" lon="11.2966194"><ele>347.0</ele><time>2026-03-28T08:21:25.98Z</time></trkpt><trkpt lat="44.0296992" lon="11.2967035"><ele>347.0</ele><time>2026-03-28T08:21:27.034Z</time></trkpt><trkpt lat="44.0297785" lon="11.2967962"><ele>347.0</ele><time>2026-03-28T08:21:27.967Z</time></trkpt><trkpt lat="44.0298556" lon="11.2968927"><ele>347.0</ele><time>2026-03-28T08:21:28.984Z</time></trkpt><trkpt lat="44.0299301" lon="11.2969941"><ele>347.0</ele><time>2026-03-28T08:21:29.988Z</time></trkpt><trkpt lat="44.0299999" lon="11.2971065"><ele>347.0</ele><time>2026-03-28T08:21:31.032Z</time></trkpt><trkpt lat="44.0300643" lon="11.2972169"><ele>351.0</ele><time>2026-03-28T08:21:31.974Z</time></trkpt><trkpt lat="44.0301351" lon="11.2973148"><ele>355.0</ele><time>2026-03-28T08:21:32.965Z</time></trkpt><trkpt lat="44.0302244" lon="11.297397"><ele>359.0</ele><time>2026-03-28T08:21:33.97Z</time></trkpt><trkpt lat="44.0303315" lon="11.2974495"><ele>363.0</ele><time>2026-03-28T08:21:34.973Z</time></trkpt><trkpt lat="44.0304326" lon="11.2974626"><ele>367.0</ele><time>2026-03-28T08:21:35.991Z</time></trkpt><trkpt lat="44.0305454" lon="11.2974464"><ele>367.0</ele><time>2026-03-28T08:21:36.963Z</time></trkpt><trkpt lat="44.0306679" lon="11.2974239"><ele>367.0</ele><time>2026-03-28T08:21:37.96Z</time></trkpt><trkpt lat="44.0307865" lon="11.2974065"><ele>367.0</ele><time>2026-03-28T08:21:39.097Z</time></trkpt><trkpt lat="44.0309101" lon="11.2973889"><ele>367.0</ele><time>2026-03-28T08:21:40.035Z</time></trkpt><trkpt lat="44.0310252" lon="11.2973684"><ele>367.25</ele><time>2026-03-28T08:21:41.037Z</time></trkpt><trkpt lat="44.0311397" lon="11.2973416"><ele>367.5</ele><time>2026-03-28T08:21:41.98Z</time></trkpt><trkpt lat="44.0312553" lon="11.2973215"><ele>367.75</ele><time>2026-03-28T08:21:42.983Z</time></trkpt><trkpt lat="44.0313726" lon="11.2973035"><ele>368.0</ele><time>2026-03-28T08:21:43.988Z</time></trkpt><trkpt lat="44.031488" lon="11.2972899"><ele>368.0</ele><time>2026-03-28T08:21:45.098Z</time></trkpt><trkpt lat="44.0315944" lon="11.2972878"><ele>368.0</ele><time>2026-03-28T08:21:46.032Z</time></trkpt><trkpt lat="44.0316755" lon="11.297308"><ele>368.0</ele><time>2026-03-28T08:21:46.967Z</time></trkpt><trkpt lat="44.0317337" lon="11.2973595"><ele>368.0</ele><time>2026-03-28T08:21:47.977Z</time></trkpt><trkpt lat="44.0317643" lon="11.2974478"><ele>368.0</ele><time>2026-03-28T08:21:48.961Z</time></trkpt><trkpt lat="44.0317832" lon="11.2975669"><ele>368.0</ele><time>2026-03-28T08:21:49.958Z</time></trkpt><trkpt lat="44.0318013" lon="11.2976812"><ele>369.1666666666667</ele><time>2026-03-28T08:21:50.945Z</time></trkpt><trkpt lat="44.0318096" lon="11.2978014"><ele>370.33333333333337</ele><time>2026-03-28T08:21:51.963Z</time></trkpt><trkpt lat="44.0318248" lon="11.2979257"><ele>371.5</ele><time>2026-03-28T08:21:52.97Z</time></trkpt><trkpt lat="44.0318582" lon="11.2980359"><ele>372.6666666666667</ele><time>2026-03-28T08:21:53.976Z</time></trkpt><trkpt lat="44.0319032" lon="11.2981171"><ele>373.8333333333333</ele><time>2026-03-28T08:21:54.976Z</time></trkpt><trkpt lat="44.0319568" lon="11.2981702"><ele>375.0</ele><time>2026-03-28T08:21:55.956Z</time></trkpt><trkpt lat="44.0320449" lon="11.2982518"><ele>377.3333333333333</ele><time>2026-03-28T08:21:57.974Z</time></trkpt><trkpt lat="44.0321047" lon="11.2982864"><ele>379.66666666666663</ele><time>2026-03-28T08:21:58.959Z</time></trkpt><trkpt lat="44.0321729" lon="11.2983179"><ele>382.0</ele><time>2026-03-28T08:21:59.972Z</time></trkpt><trkpt lat="44.0322413" lon="11.2983472"><ele>384.3333333333333</ele><time>2026-03-28T08:22:00.97Z</time></trkpt><trkpt lat="44.0323198" lon="11.2983833"><ele>386.66666666666663</ele><time>2026-03-28T08:22:01.986Z</time></trkpt><trkpt lat="44.0324016" lon="11.2984143"><ele>389.0</ele><time>2026-03-28T08:22:02.965Z</time></trkpt><trkpt lat="44.0324898" lon="11.2984354"><ele>389.4</ele><time>2026-03-28T08:22:03.965Z</time></trkpt><trkpt lat="44.0325844" lon="11.2984226"><ele>389.79999999999995</ele><time>2026-03-28T08:22:04.972Z</time></trkpt><trkpt lat="44.0326901" lon="11.2983883"><ele>390.20000000000005</ele><time>2026-03-28T08:22:05.963Z</time></trkpt><trkpt lat="44.0327947" lon="11.2983421"><ele>390.6</ele><time>2026-03-28T08:22:06.974Z</time></trkpt><trkpt lat="44.0329061" lon="11.298285"><ele>391.0</ele><time>2026-03-28T08:22:07.975Z</time></trkpt><trkpt lat="44.033023" lon="11.2982093"><ele>391.0</ele><time>2026-03-28T08:22:09.033Z</time></trkpt><trkpt lat="44.0331356" lon="11.2981394"><ele>391.0</ele><time>2026-03-28T08:22:10.032Z</time></trkpt><trkpt lat="44.0332473" lon="11.2980682"><ele>391.0</ele><time>2026-03-28T08:22:11.025Z</time></trkpt><trkpt lat="44.0333579" lon="11.2980003"><ele>391.0</ele><time>2026-03-28T08:22:11.962Z</time></trkpt><trkpt lat="44.0334675" lon="11.2979205"><ele>391.5</ele><time>2026-03-28T08:22:12.965Z</time></trkpt><trkpt lat="44.0335579" lon="11.297811"><ele>392.0</ele><time>2026-03-28T08:22:13.966Z</time></trkpt><trkpt lat="44.0336105" lon="11.297658"><ele>392.5</ele><time>2026-03-28T08:22:14.959Z</time></trkpt><trkpt lat="44.0336638" lon="11.2975159"><ele>393.0</ele><time>2026-03-28T08:22:15.968Z</time></trkpt><trkpt lat="44.03372" lon="11.297382"><ele>393.0</ele><time>2026-03-28T08:22:16.963Z</time></trkpt><trkpt lat="44.0337781" lon="11.2972562"><ele>393.0</ele><time>2026-03-28T08:22:17.964Z</time></trkpt><trkpt lat="44.0338399" lon="11.2971357"><ele>393.0</ele><time>2026-03-28T08:22:19.049Z</time></trkpt><trkpt lat="44.0338994" lon="11.2970353"><ele>393.0</ele><time>2026-03-28T08:22:19.964Z</time></trkpt><trkpt lat="44.033958" lon="11.2969554"><ele>393.0</ele><time>2026-03-28T08:22:20.957Z</time></trkpt><trkpt lat="44.034028" lon="11.2969122"><ele>392.4</ele><time>2026-03-28T08:22:21.963Z</time></trkpt><trkpt lat="44.0341105" lon="11.2968962"><ele>391.79999999999995</ele><time>2026-03-28T08:22:22.976Z</time></trkpt><trkpt lat="44.0341938" lon="11.2969087"><ele>391.2</ele><time>2026-03-28T08:22:23.97Z</time></trkpt><trkpt lat="44.0342826" lon="11.2969295"><ele>390.6</ele><time>2026-03-28T08:22:25.038Z</time></trkpt><trkpt lat="44.0343797" lon="11.2969676"><ele>390.0</ele><time>2026-03-28T08:22:26.03Z</time></trkpt><trkpt lat="44.0344729" lon="11.2970098"><ele>390.0</ele><time>2026-03-28T08:22:27.04Z</time></trkpt><trkpt lat="44.0345698" lon="11.2970533"><ele>390.0</ele><time>2026-03-28T08:22:27.969Z</time></trkpt><trkpt lat="44.0346905" lon="11.2970961"><ele>390.0</ele><time>2026-03-28T08:22:28.96Z</time></trkpt><trkpt lat="44.0348337" lon="11.2971284"><ele>390.0</ele><time>2026-03-28T08:22:29.961Z</time></trkpt><trkpt lat="44.0349709" lon="11.2971613"><ele>389.5</ele><time>2026-03-28T08:22:30.959Z</time></trkpt><trkpt lat="44.035112" lon="11.2971848"><ele>389.0</ele><time>2026-03-28T08:22:31.956Z</time></trkpt><trkpt lat="44.0352454" lon="11.2972166"><ele>388.5</ele><time>2026-03-28T08:22:32.963Z</time></trkpt><trkpt lat="44.0353776" lon="11.2972487"><ele>388.0</ele><time>2026-03-28T08:22:33.963Z</time></trkpt><trkpt lat="44.0355401" lon="11.2972808"><ele>392.75</ele><time>2026-03-28T08:22:34.963Z</time></trkpt><trkpt lat="44.0356948" lon="11.2973088"><ele>397.5</ele><time>2026-03-28T08:22:35.968Z</time></trkpt><trkpt lat="44.0358362" lon="11.2973384"><ele>402.25</ele><time>2026-03-28T08:22:36.965Z</time></trkpt><trkpt lat="44.0359726" lon="11.2973673"><ele>407.0</ele><time>2026-03-28T08:22:37.965Z</time></trkpt><trkpt lat="44.0360992" lon="11.2974042"><ele>407.0</ele><time>2026-03-28T08:22:38.969Z</time></trkpt><trkpt lat="44.0362232" lon="11.2974488"><ele>407.0</ele><time>2026-03-28T08:22:39.97Z</time></trkpt><trkpt lat="44.0363389" lon="11.2975149"><ele>407.0</ele><time>2026-03-28T08:22:40.965Z</time></trkpt><trkpt lat="44.0364437" lon="11.2975932"><ele>407.0</ele><time>2026-03-28T08:22:42.037Z</time></trkpt><trkpt lat="44.0365449" lon="11.297669"><ele>407.8</ele><time>2026-03-28T08:22:42.959Z</time></trkpt><trkpt lat="44.0366468" lon="11.2977419"><ele>408.6</ele><time>2026-03-28T08:22:43.962Z</time></trkpt><trkpt lat="44.0367479" lon="11.297801"><ele>409.40000000000003</ele><time>2026-03-28T08:22:44.999Z</time></trkpt><trkpt lat="44.0368519" lon="11.2978559"><ele>410.20000000000005</ele><time>2026-03-28T08:22:45.948Z</time></trkpt><trkpt lat="44.0369627" lon="11.2978866"><ele>411.0</ele><time>2026-03-28T08:22:46.968Z</time></trkpt><trkpt lat="44.0370828" lon="11.297897"><ele>411.0</ele><time>2026-03-28T08:22:47.967Z</time></trkpt><trkpt lat="44.0372146" lon="11.2978867"><ele>411.0</ele><time>2026-03-28T08:22:48.959Z</time></trkpt><trkpt lat="44.0373562" lon="11.2978668"><ele>411.0</ele><time>2026-03-28T08:22:49.967Z</time></trkpt><trkpt lat="44.0375111" lon="11.2978353"><ele>411.0</ele><time>2026-03-28T08:22:51.033Z</time></trkpt><trkpt lat="44.0376685" lon="11.2978145"><ele>412.0</ele><time>2026-03-28T08:22:52.032Z</time></trkpt><trkpt lat="44.0378205" lon="11.2977974"><ele>413.0</ele><time>2026-03-28T08:22:52.961Z</time></trkpt><trkpt lat="44.0379705" lon="11.2977767"><ele>414.0</ele><time>2026-03-28T08:22:53.97Z</time></trkpt><trkpt lat="44.0381182" lon="11.2977683"><ele>414.0</ele><time>2026-03-28T08:22:54.987Z</time></trkpt><trkpt lat="44.0382676" lon="11.2977584"><ele>414.0</ele><time>2026-03-28T08:22:56.054Z</time></trkpt><trkpt lat="44.038417" lon="11.2977474"><ele>414.0</ele><time>2026-03-28T08:22:57.031Z</time></trkpt><trkpt lat="44.0385649" lon="11.2977304"><ele>414.0</ele><time>2026-03-28T08:22:57.966Z</time></trkpt><trkpt lat="44.0387102" lon="11.2977112"><ele>413.25</ele><time>2026-03-28T08:22:58.964Z</time></trkpt><trkpt lat="44.0388528" lon="11.2976976"><ele>412.5</ele><time>2026-03-28T08:22:59.967Z</time></trkpt><trkpt lat="44.0389947" lon="11.2976969"><ele>411.75</ele><time>2026-03-28T08:23:01.031Z</time></trkpt><trkpt lat="44.0391239" lon="11.2977147"><ele>411.0</ele><time>2026-03-28T08:23:01.959Z</time></trkpt><trkpt lat="44.0392396" lon="11.2977642"><ele>410.5</ele><time>2026-03-28T08:23:02.979Z</time></trkpt><trkpt lat="44.0393424" lon="11.2978506"><ele>410.0</ele><time>2026-03-28T08:23:03.985Z</time></trkpt><trkpt lat="44.0394407" lon="11.2979616"><ele>409.5</ele><time>2026-03-28T08:23:04.96Z</time></trkpt><trkpt lat="44.0395323" lon="11.2980719"><ele>409.0</ele><time>2026-03-28T08:23:05.961Z</time></trkpt><trkpt lat="44.0396234" lon="11.2981833"><ele>411.0</ele><time>2026-03-28T08:23:06.959Z</time></trkpt><trkpt lat="44.0397113" lon="11.2982902"><ele>413.0</ele><time>2026-03-28T08:23:07.961Z</time></trkpt><trkpt lat="44.0398015" lon="11.2983923"><ele>415.0</ele><time>2026-03-28T08:23:08.972Z</time></trkpt><trkpt lat="44.0399003" lon="11.2984978"><ele>417.0</ele><time>2026-03-28T08:23:10.001Z</time></trkpt><trkpt lat="44.0400147" lon="11.2986013"><ele>417.0</ele><time>2026-03-28T08:23:10.968Z</time></trkpt><trkpt lat="44.0401229" lon="11.2986984"><ele>417.0</ele><time>2026-03-28T08:23:12.038Z</time></trkpt><trkpt lat="44.0402312" lon="11.2987918"><ele>417.0</ele><time>2026-03-28T08:23:12.969Z</time></trkpt><trkpt lat="44.0403354" lon="11.2988926"><ele>417.0</ele><time>2026-03-28T08:23:14.052Z</time></trkpt><trkpt lat="44.0404304" lon="11.2990148"><ele>421.75</ele><time>2026-03-28T08:23:14.979Z</time></trkpt><trkpt lat="44.0405212" lon="11.2991596"><ele>426.5</ele><time>2026-03-28T08:23:16.032Z</time></trkpt><trkpt lat="44.0406004" lon="11.2993087"><ele>431.25</ele><time>2026-03-28T08:23:17.033Z</time></trkpt><trkpt lat="44.0406849" lon="11.2994682"><ele>436.0</ele><time>2026-03-28T08:23:17.964Z</time></trkpt><trkpt lat="44.0407703" lon="11.2996168"><ele>434.25</ele><time>2026-03-28T08:23:18.966Z</time></trkpt><trkpt lat="44.0408538" lon="11.2997713"><ele>432.5</ele><time>2026-03-28T08:23:19.955Z</time></trkpt><trkpt lat="44.040942" lon="11.2999095"><ele>430.75</ele><time>2026-03-28T08:23:20.956Z</time></trkpt><trkpt lat="44.0410383" lon="11.3000405"><ele>429.0</ele><time>2026-03-28T08:23:21.966Z</time></trkpt><trkpt lat="44.0411416" lon="11.3001557"><ele>429.0</ele><time>2026-03-28T08:23:22.963Z</time></trkpt><trkpt lat="44.0412519" lon="11.3002495"><ele>429.0</ele><time>2026-03-28T08:23:23.965Z</time></trkpt><trkpt lat="44.0413519" lon="11.3003247"><ele>429.0</ele><time>2026-03-28T08:23:24.96Z</time></trkpt><trkpt lat="44.0414506" lon="11.3003958"><ele>429.0</ele><time>2026-03-28T08:23:25.95Z</time></trkpt><trkpt lat="44.0415469" lon="11.3004705"><ele>429.6</ele><time>2026-03-28T08:23:26.961Z</time></trkpt><trkpt lat="44.0416415" lon="11.3005544"><ele>430.2</ele><time>2026-03-28T08:23:27.951Z</time></trkpt><trkpt lat="44.0417289" lon="11.3006516"><ele>430.80000000000007</ele><time>2026-03-28T08:23:28.942Z</time></trkpt><trkpt lat="44.0418192" lon="11.3007488"><ele>431.40000000000003</ele><time>2026-03-28T08:23:29.961Z</time></trkpt><trkpt lat="44.0418983" lon="11.3008568"><ele>432.0</ele><time>2026-03-28T08:23:30.96Z</time></trkpt><trkpt lat="44.041971" lon="11.3009676"><ele>432.0</ele><time>2026-03-28T08:23:31.971Z</time></trkpt><trkpt lat="44.0420348" lon="11.3010801"><ele>432.00000000000006</ele><time>2026-03-28T08:23:32.96Z</time></trkpt><trkpt lat="44.0420734" lon="11.3012064"><ele>432.00000000000006</ele><time>2026-03-28T08:23:33.968Z</time></trkpt><trkpt lat="44.0421027" lon="11.3013428"><ele>432.0</ele><time>2026-03-28T08:23:34.961Z</time></trkpt><trkpt lat="44.0421306" lon="11.301493"><ele>432.0</ele><time>2026-03-28T08:23:35.97Z</time></trkpt><trkpt lat="44.0421587" lon="11.3016464"><ele>433.40000000000003</ele><time>2026-03-28T08:23:36.965Z</time></trkpt><trkpt lat="44.0421902" lon="11.3017945"><ele>434.80000000000007</ele><time>2026-03-28T08:23:37.961Z</time></trkpt><trkpt lat="44.0422174" lon="11.3019356"><ele>436.2</ele><time>2026-03-28T08:23:38.959Z</time></trkpt><trkpt lat="44.0422495" lon="11.3020706"><ele>437.6</ele><time>2026-03-28T08:23:39.97Z</time></trkpt><trkpt lat="44.0422887" lon="11.3022107"><ele>439.0</ele><time>2026-03-28T08:23:41.034Z</time></trkpt><trkpt lat="44.0423408" lon="11.3023499"><ele>438.79999999999995</ele><time>2026-03-28T08:23:42.031Z</time></trkpt><trkpt lat="44.042406" lon="11.3024776"><ele>438.59999999999997</ele><time>2026-03-28T08:23:42.978Z</time></trkpt><trkpt lat="44.0424855" lon="11.3025858"><ele>438.4</ele><time>2026-03-28T08:23:43.973Z</time></trkpt><trkpt lat="44.0425694" lon="11.3026837"><ele>438.2</ele><time>2026-03-28T08:23:44.972Z</time></trkpt><trkpt lat="44.0426612" lon="11.3027694"><ele>438.0</ele><time>2026-03-28T08:23:45.972Z</time></trkpt><trkpt lat="44.0427643" lon="11.302828"><ele>438.0</ele><time>2026-03-28T08:23:47.033Z</time></trkpt><trkpt lat="44.0428679" lon="11.3028578"><ele>437.99999999999994</ele><time>2026-03-28T08:23:47.959Z</time></trkpt><trkpt lat="44.0429786" lon="11.3028619"><ele>437.99999999999994</ele><time>2026-03-28T08:23:48.964Z</time></trkpt><trkpt lat="44.0430887" lon="11.3028507"><ele>438.0</ele><time>2026-03-28T08:23:49.956Z</time></trkpt><trkpt lat="44.0432011" lon="11.3028332"><ele>438.0</ele><time>2026-03-28T08:23:50.967Z</time></trkpt><trkpt lat="44.0433164" lon="11.3028086"><ele>438.75</ele><time>2026-03-28T08:23:51.972Z</time></trkpt><trkpt lat="44.0434322" lon="11.3027821"><ele>439.5</ele><time>2026-03-28T08:23:52.962Z</time></trkpt><trkpt lat="44.0435477" lon="11.302756"><ele>440.25</ele><time>2026-03-28T08:23:53.954Z</time></trkpt><trkpt lat="44.0436601" lon="11.3027299"><ele>441.0</ele><time>2026-03-28T08:23:54.961Z</time></trkpt><trkpt lat="44.0437711" lon="11.3027034"><ele>441.0</ele><time>2026-03-28T08:23:55.959Z</time></trkpt><trkpt lat="44.0438719" lon="11.3026701"><ele>441.0</ele><time>2026-03-28T08:23:56.958Z</time></trkpt><trkpt lat="44.0439591" lon="11.3026474"><ele>441.0</ele><time>2026-03-28T08:23:57.938Z</time></trkpt><trkpt lat="44.044045" lon="11.3026435"><ele>441.0</ele><time>2026-03-28T08:23:58.953Z</time></trkpt><trkpt lat="44.0441353" lon="11.3026643"><ele>441.0</ele><time>2026-03-28T08:23:59.957Z</time></trkpt><trkpt lat="44.0442077" lon="11.3027223"><ele>441.8</ele><time>2026-03-28T08:24:01.03Z</time></trkpt><trkpt lat="44.044282" lon="11.3028186"><ele>442.6</ele><time>2026-03-28T08:24:02.029Z</time></trkpt><trkpt lat="44.0443467" lon="11.3029385"><ele>443.4</ele><time>2026-03-28T08:24:02.974Z</time></trkpt><trkpt lat="44.0444276" lon="11.3030445"><ele>444.2</ele><time>2026-03-28T08:24:04.036Z</time></trkpt><trkpt lat="44.0445334" lon="11.3031083"><ele>445.0</ele><time>2026-03-28T08:24:05.031Z</time></trkpt><trkpt lat="44.0446486" lon="11.3031631"><ele>447.5</ele><time>2026-03-28T08:24:06.027Z</time></trkpt><trkpt lat="44.0447699" lon="11.3031962"><ele>450.0</ele><time>2026-03-28T08:24:07.031Z</time></trkpt><trkpt lat="44.0448904" lon="11.3032032"><ele>452.5</ele><time>2026-03-28T08:24:07.986Z</time></trkpt><trkpt lat="44.0450178" lon="11.3031858"><ele>455.0</ele><time>2026-03-28T08:24:08.979Z</time></trkpt><trkpt lat="44.0451385" lon="11.3031489"><ele>455.0</ele><time>2026-03-28T08:24:09.975Z</time></trkpt><trkpt lat="44.0452522" lon="11.3030944"><ele>455.0</ele><time>2026-03-28T08:24:10.986Z</time></trkpt><trkpt lat="44.0453635" lon="11.3030507"><ele>455.0</ele><time>2026-03-28T08:24:11.981Z</time></trkpt><trkpt lat="44.0454692" lon="11.3030129"><ele>455.0</ele><time>2026-03-28T08:24:12.982Z</time></trkpt><trkpt lat="44.0455783" lon="11.3029843"><ele>450.75</ele><time>2026-03-28T08:24:14.034Z</time></trkpt><trkpt lat="44.0456867" lon="11.3029741"><ele>446.5</ele><time>2026-03-28T08:24:15.035Z</time></trkpt><trkpt lat="44.0457925" lon="11.3029809"><ele>442.25</ele><time>2026-03-28T08:24:15.977Z</time></trkpt><trkpt lat="44.0459134" lon="11.3029828"><ele>438.0</ele><time>2026-03-28T08:24:16.974Z</time></trkpt><trkpt lat="44.046046" lon="11.3029729"><ele>436.5</ele><time>2026-03-28T08:24:17.976Z</time></trkpt><trkpt lat="44.0461755" lon="11.3029645"><ele>435.0</ele><time>2026-03-28T08:24:18.973Z</time></trkpt><trkpt lat="44.0463033" lon="11.3029449"><ele>433.5</ele><time>2026-03-28T08:24:19.971Z</time></trkpt><trkpt lat="44.0464244" lon="11.3029291"><ele>432.0</ele><time>2026-03-28T08:24:20.971Z</time></trkpt><trkpt lat="44.0465483" lon="11.302909"><ele>434.25</ele><time>2026-03-28T08:24:21.98Z</time></trkpt><trkpt lat="44.0466676" lon="11.3028982"><ele>436.5</ele><time>2026-03-28T08:24:22.973Z</time></trkpt><trkpt lat="44.046778" lon="11.3028942"><ele>438.75</ele><time>2026-03-28T08:24:23.977Z</time></trkpt><trkpt lat="44.046888" lon="11.3029165"><ele>441.0</ele><time>2026-03-28T08:24:24.978Z</time></trkpt><trkpt lat="44.0469961" lon="11.3029863"><ele>441.0</ele><time>2026-03-28T08:24:25.973Z</time></trkpt><trkpt lat="44.0470964" lon="11.3030704"><ele>441.0</ele><time>2026-03-28T08:24:26.967Z</time></trkpt><trkpt lat="44.0472028" lon="11.3031683"><ele>441.0</ele><time>2026-03-28T08:24:27.97Z</time></trkpt><trkpt lat="44.0473137" lon="11.3032675"><ele>441.0</ele><time>2026-03-28T08:24:28.972Z</time></trkpt><trkpt lat="44.0474263" lon="11.3033679"><ele>441.5</ele><time>2026-03-28T08:24:29.965Z</time></trkpt><trkpt lat="44.0475456" lon="11.3034679"><ele>442.0</ele><time>2026-03-28T08:24:30.973Z</time></trkpt><trkpt lat="44.047653" lon="11.3035686"><ele>442.5</ele><time>2026-03-28T08:24:31.969Z</time></trkpt><trkpt lat="44.0477611" lon="11.3036643"><ele>443.0</ele><time>2026-03-28T08:24:32.972Z</time></trkpt><trkpt lat="44.0478633" lon="11.303761"><ele>443.0</ele><time>2026-03-28T08:24:34.041Z</time></trkpt><trkpt lat="44.0479555" lon="11.3038505"><ele>442.99999999999994</ele><time>2026-03-28T08:24:34.972Z</time></trkpt><trkpt lat="44.0480404" lon="11.3039315"><ele>442.99999999999994</ele><time>2026-03-28T08:24:35.976Z</time></trkpt><trkpt lat="44.0481242" lon="11.3040057"><ele>443.0</ele><time>2026-03-28T08:24:36.969Z</time></trkpt><trkpt lat="44.0481943" lon="11.3040722"><ele>443.0</ele><time>2026-03-28T08:24:37.944Z</time></trkpt><trkpt lat="44.0482622" lon="11.3041125"><ele>443.8333333333333</ele><time>2026-03-28T08:24:39.037Z</time></trkpt><trkpt lat="44.0483273" lon="11.3041328"><ele>444.66666666666663</ele><time>2026-03-28T08:24:40.028Z</time></trkpt><trkpt lat="44.0483927" lon="11.3041375"><ele>445.5</ele><time>2026-03-28T08:24:41.03Z</time></trkpt><trkpt lat="44.0485116" lon="11.3041138"><ele>446.33333333333337</ele><time>2026-03-28T08:24:42.97Z</time></trkpt><trkpt lat="44.0485745" lon="11.3040815"><ele>447.1666666666667</ele><time>2026-03-28T08:24:43.977Z</time></trkpt><trkpt lat="44.0486736" lon="11.3039878"><ele>448.0</ele><time>2026-03-28T08:24:46.021Z</time></trkpt><trkpt lat="44.048721" lon="11.3039224"><ele>448.00000000000006</ele><time>2026-03-28T08:24:47.033Z</time></trkpt><trkpt lat="44.0487678" lon="11.3038589"><ele>448.0</ele><time>2026-03-28T08:24:47.96Z</time></trkpt><trkpt lat="44.0488645" lon="11.3037882"><ele>448.0</ele><time>2026-03-28T08:24:49.971Z</time></trkpt><trkpt lat="44.0489485" lon="11.3038568"><ele>448.0</ele><time>2026-03-28T08:24:51.966Z</time></trkpt><trkpt lat="44.0489898" lon="11.3039752"><ele>448.00000000000006</ele><time>2026-03-28T08:24:53.955Z</time></trkpt><trkpt lat="44.0490156" lon="11.3040579"><ele>448.0</ele><time>2026-03-28T08:24:54.97Z</time></trkpt><trkpt lat="44.0490572" lon="11.3041271"><ele>448.59999999999997</ele><time>2026-03-28T08:24:55.969Z</time></trkpt><trkpt lat="44.0491589" lon="11.3041769"><ele>449.19999999999993</ele><time>2026-03-28T08:24:57.964Z</time></trkpt><trkpt lat="44.049222" lon="11.3041716"><ele>449.8</ele><time>2026-03-28T08:24:58.97Z</time></trkpt><trkpt lat="44.0492771" lon="11.3040829"><ele>450.4</ele><time>2026-03-28T08:25:00.967Z</time></trkpt><trkpt lat="44.0492875" lon="11.3039211"><ele>451.0</ele><time>2026-03-28T08:25:02.972Z</time></trkpt><trkpt lat="44.0493154" lon="11.3037931"><ele>451.0</ele><time>2026-03-28T08:25:04.967Z</time></trkpt><trkpt lat="44.0494045" lon="11.3037226"><ele>451.0</ele><time>2026-03-28T08:25:07.032Z</time></trkpt><trkpt lat="44.0495117" lon="11.3037494"><ele>451.0</ele><time>2026-03-28T08:25:08.956Z</time></trkpt><trkpt lat="44.0496258" lon="11.3037614"><ele>451.0</ele><time>2026-03-28T08:25:10.963Z</time></trkpt><trkpt lat="44.0497421" lon="11.3037312"><ele>451.0</ele><time>2026-03-28T08:25:12.963Z</time></trkpt><trkpt lat="44.0498576" lon="11.3036843"><ele>451.00000000000006</ele><time>2026-03-28T08:25:14.97Z</time></trkpt><trkpt lat="44.0499723" lon="11.3036171"><ele>451.0</ele><time>2026-03-28T08:25:16.959Z</time></trkpt><trkpt lat="44.0500631" lon="11.303585"><ele>451.0</ele><time>2026-03-28T08:25:18.966Z</time></trkpt><trkpt lat="44.0501088" lon="11.3036473"><ele>451.0</ele><time>2026-03-28T08:25:20.946Z</time></trkpt><trkpt lat="44.0500621" lon="11.3037141"><ele>451.00000000000006</ele><time>2026-03-28T08:25:22.964Z</time></trkpt><trkpt lat="44.0500109" lon="11.3037667"><ele>451.0</ele><time>2026-03-28T08:25:24.06Z</time></trkpt><trkpt lat="44.0499485" lon="11.3038117"><ele>451.0</ele><time>2026-03-28T08:25:25.043Z</time></trkpt><trkpt lat="44.049885" lon="11.3038613"><ele>451.0</ele><time>2026-03-28T08:25:25.962Z</time></trkpt><trkpt lat="44.0498208" lon="11.303914"><ele>451.0</ele><time>2026-03-28T08:25:26.961Z</time></trkpt><trkpt lat="44.0497623" lon="11.3039593"><ele>451.0</ele><time>2026-03-28T08:25:27.973Z</time></trkpt><trkpt lat="44.0496948" lon="11.3040181"><ele>451.0</ele><time>2026-03-28T08:25:28.96Z</time></trkpt><trkpt lat="44.0496392" lon="11.3040827"><ele>451.0</ele><time>2026-03-28T08:25:29.969Z</time></trkpt><trkpt lat="44.0496037" lon="11.3041616"><ele>451.0</ele><time>2026-03-28T08:25:30.962Z</time></trkpt><trkpt lat="44.0495843" lon="11.3042511"><ele>451.42857142857144</ele><time>2026-03-28T08:25:31.987Z</time></trkpt><trkpt lat="44.0495925" lon="11.3043453"><ele>451.8571428571429</ele><time>2026-03-28T08:25:32.967Z</time></trkpt><trkpt lat="44.0496161" lon="11.3044431"><ele>452.28571428571433</ele><time>2026-03-28T08:25:33.976Z</time></trkpt><trkpt lat="44.0496626" lon="11.3045179"><ele>452.7142857142857</ele><time>2026-03-28T08:25:34.969Z</time></trkpt><trkpt lat="44.0497237" lon="11.3045844"><ele>453.1428571428572</ele><time>2026-03-28T08:25:36.042Z</time></trkpt><trkpt lat="44.0497829" lon="11.3046488"><ele>453.5714285714286</ele><time>2026-03-28T08:25:36.962Z</time></trkpt><trkpt lat="44.0498447" lon="11.3047197"><ele>454.0</ele><time>2026-03-28T08:25:37.968Z</time></trkpt><trkpt lat="44.049909" lon="11.3047819"><ele>460.1666666666667</ele><time>2026-03-28T08:25:38.959Z</time></trkpt><trkpt lat="44.049967" lon="11.3048461"><ele>466.33333333333337</ele><time>2026-03-28T08:25:40.014Z</time></trkpt><trkpt lat="44.0500308" lon="11.3049186"><ele>472.5</ele><time>2026-03-28T08:25:41.019Z</time></trkpt><trkpt lat="44.0501102" lon="11.3049982"><ele>478.66666666666663</ele><time>2026-03-28T08:25:42.02Z</time></trkpt><trkpt lat="44.0501975" lon="11.305076"><ele>484.8333333333333</ele><time>2026-03-28T08:25:42.96Z</time></trkpt><trkpt lat="44.050279" lon="11.3051318"><ele>491.0</ele><time>2026-03-28T08:25:43.97Z</time></trkpt><trkpt lat="44.0503582" lon="11.3051833"><ele>490.99999999999994</ele><time>2026-03-28T08:25:44.974Z</time></trkpt><trkpt lat="44.0504431" lon="11.3052201"><ele>491.0</ele><time>2026-03-28T08:25:45.976Z</time></trkpt><trkpt lat="44.0505273" lon="11.3052574"><ele>491.0</ele><time>2026-03-28T08:25:46.956Z</time></trkpt><trkpt lat="44.050608" lon="11.3053038"><ele>491.0</ele><time>2026-03-28T08:25:47.968Z</time></trkpt><trkpt lat="44.0506784" lon="11.3053695"><ele>490.99999999999994</ele><time>2026-03-28T08:25:48.959Z</time></trkpt><trkpt lat="44.0507485" lon="11.3054518"><ele>491.0</ele><time>2026-03-28T08:25:49.954Z</time></trkpt><trkpt lat="44.0508233" lon="11.3055402"><ele>491.8333333333333</ele><time>2026-03-28T08:25:50.952Z</time></trkpt><trkpt lat="44.0508924" lon="11.3056222"><ele>492.66666666666663</ele><time>2026-03-28T08:25:51.95Z</time></trkpt><trkpt lat="44.0509656" lon="11.3056895"><ele>493.5</ele><time>2026-03-28T08:25:52.953Z</time></trkpt><trkpt lat="44.0510325" lon="11.3057427"><ele>494.33333333333337</ele><time>2026-03-28T08:25:53.963Z</time></trkpt><trkpt lat="44.0510995" lon="11.3057947"><ele>495.1666666666667</ele><time>2026-03-28T08:25:54.963Z</time></trkpt><trkpt lat="44.0511765" lon="11.3058617"><ele>496.0</ele><time>2026-03-28T08:25:55.967Z</time></trkpt><trkpt lat="44.0512353" lon="11.3059427"><ele>496.0</ele><time>2026-03-28T08:25:56.959Z</time></trkpt><trkpt lat="44.0512937" lon="11.3060309"><ele>496.0</ele><time>2026-03-28T08:25:57.969Z</time></trkpt><trkpt lat="44.0513589" lon="11.3061112"><ele>496.0</ele><time>2026-03-28T08:25:59.008Z</time></trkpt><trkpt lat="44.0514605" lon="11.3061129"><ele>496.0</ele><time>2026-03-28T08:26:00.955Z</time></trkpt><trkpt lat="44.0515328" lon="11.3060251"><ele>496.0</ele><time>2026-03-28T08:26:02.957Z</time></trkpt><trkpt lat="44.0514695" lon="11.3058899"><ele>496.00000000000006</ele><time>2026-03-28T08:26:04.945Z</time></trkpt><trkpt lat="44.051404" lon="11.3058162"><ele>496.0</ele><time>2026-03-28T08:26:05.957Z</time></trkpt><trkpt lat="44.0513369" lon="11.3057418"><ele>496.0</ele><time>2026-03-28T08:26:06.962Z</time></trkpt><trkpt lat="44.0512852" lon="11.305661"><ele>496.0</ele><time>2026-03-28T08:26:07.969Z</time></trkpt><trkpt lat="44.0512531" lon="11.3055808"><ele>496.00000000000006</ele><time>2026-03-28T08:26:08.959Z</time></trkpt><trkpt lat="44.0512461" lon="11.3054847"><ele>496.0</ele><time>2026-03-28T08:26:09.954Z</time></trkpt><trkpt lat="44.0512666" lon="11.3053816"><ele>496.0</ele><time>2026-03-28T08:26:10.961Z</time></trkpt><trkpt lat="44.0513693" lon="11.3053041"><ele>496.0</ele><time>2026-03-28T08:26:12.966Z</time></trkpt><trkpt lat="44.0514691" lon="11.3054114"><ele>496.0</ele><time>2026-03-28T08:26:14.959Z</time></trkpt><trkpt lat="44.0515245" lon="11.3055061"><ele>496.0</ele><time>2026-03-28T08:26:15.95Z</time></trkpt><trkpt lat="44.051585" lon="11.3056045"><ele>496.0</ele><time>2026-03-28T08:26:16.941Z</time></trkpt><trkpt lat="44.0516629" lon="11.3056719"><ele>500.50000000000006</ele><time>2026-03-28T08:26:17.965Z</time></trkpt><trkpt lat="44.0517427" lon="11.3057034"><ele>505.0</ele><time>2026-03-28T08:26:18.965Z</time></trkpt><trkpt lat="44.0518107" lon="11.3056876"><ele>509.5</ele><time>2026-03-28T08:26:19.966Z</time></trkpt><trkpt lat="44.0518629" lon="11.305527"><ele>514.0</ele><time>2026-03-28T08:26:21.961Z</time></trkpt><trkpt lat="44.0518685" lon="11.3054285"><ele>518.5</ele><time>2026-03-28T08:26:22.961Z</time></trkpt><trkpt lat="44.0518606" lon="11.3053373"><ele>523.0</ele><time>2026-03-28T08:26:23.96Z</time></trkpt><trkpt lat="44.0518503" lon="11.3052414"><ele>524.6666666666667</ele><time>2026-03-28T08:26:24.962Z</time></trkpt><trkpt lat="44.0518386" lon="11.3051418"><ele>526.3333333333334</ele><time>2026-03-28T08:26:25.953Z</time></trkpt><trkpt lat="44.0518257" lon="11.3050508"><ele>528.0</ele><time>2026-03-28T08:26:26.964Z</time></trkpt><trkpt lat="44.0518129" lon="11.3049593"><ele>529.6666666666666</ele><time>2026-03-28T08:26:27.963Z</time></trkpt><trkpt lat="44.0518304" lon="11.3048019"><ele>531.3333333333333</ele><time>2026-03-28T08:26:29.948Z</time></trkpt><trkpt lat="44.0518692" lon="11.3046763"><ele>533.0</ele><time>2026-03-28T08:26:31.939Z</time></trkpt><trkpt lat="44.0519634" lon="11.3046369"><ele>533.0</ele><time>2026-03-28T08:26:33.944Z</time></trkpt><trkpt lat="44.0520531" lon="11.3046097"><ele>533.0</ele><time>2026-03-28T08:26:35.966Z</time></trkpt><trkpt lat="44.0521201" lon="11.3044979"><ele>533.0</ele><time>2026-03-28T08:26:37.957Z</time></trkpt><trkpt lat="44.0521963" lon="11.3043848"><ele>533.0</ele><time>2026-03-28T08:26:39.959Z</time></trkpt><trkpt lat="44.0523211" lon="11.3043649"><ele>533.0</ele><time>2026-03-28T08:26:41.969Z</time></trkpt><trkpt lat="44.0524093" lon="11.3043538"><ele>536.1999999999999</ele><time>2026-03-28T08:26:43.968Z</time></trkpt><trkpt lat="44.0524891" lon="11.3043015"><ele>539.4</ele><time>2026-03-28T08:26:45.968Z</time></trkpt><trkpt lat="44.0525903" lon="11.3042102"><ele>542.5999999999999</ele><time>2026-03-28T08:26:47.961Z</time></trkpt><trkpt lat="44.0526527" lon="11.3041538"><ele>545.8</ele><time>2026-03-28T08:26:48.968Z</time></trkpt><trkpt lat="44.0527129" lon="11.304074"><ele>549.0</ele><time>2026-03-28T08:26:49.963Z</time></trkpt><trkpt lat="44.052783" lon="11.3039933"><ele>547.0</ele><time>2026-03-28T08:26:50.962Z</time></trkpt><trkpt lat="44.0528535" lon="11.3039059"><ele>545.0</ele><time>2026-03-28T08:26:51.96Z</time></trkpt><trkpt lat="44.0529213" lon="11.3038211"><ele>543.0</ele><time>2026-03-28T08:26:52.958Z</time></trkpt><trkpt lat="44.0529891" lon="11.3037345"><ele>541.0</ele><time>2026-03-28T08:26:53.97Z</time></trkpt><trkpt lat="44.0530541" lon="11.3036485"><ele>539.0</ele><time>2026-03-28T08:26:54.957Z</time></trkpt><trkpt lat="44.0531184" lon="11.3035687"><ele>539.0</ele><time>2026-03-28T08:26:55.967Z</time></trkpt><trkpt lat="44.0531799" lon="11.3034994"><ele>539.0</ele><time>2026-03-28T08:26:56.964Z</time></trkpt><trkpt lat="44.0532417" lon="11.3034338"><ele>539.0</ele><time>2026-03-28T08:26:57.953Z</time></trkpt><trkpt lat="44.0532992" lon="11.3033731"><ele>539.0</ele><time>2026-03-28T08:26:58.96Z</time></trkpt><trkpt lat="44.0533578" lon="11.3033237"><ele>539.0</ele><time>2026-03-28T08:26:59.959Z</time></trkpt><trkpt lat="44.0534621" lon="11.3032631"><ele>539.0</ele><time>2026-03-28T08:27:01.961Z</time></trkpt><trkpt lat="44.0535732" lon="11.3032545"><ele>539.4</ele><time>2026-03-28T08:27:03.973Z</time></trkpt><trkpt lat="44.0536877" lon="11.3032031"><ele>539.8</ele><time>2026-03-28T08:27:05.973Z</time></trkpt><trkpt lat="44.0537702" lon="11.3031418"><ele>540.2</ele><time>2026-03-28T08:27:07.958Z</time></trkpt><trkpt lat="44.0538252" lon="11.3030963"><ele>540.6</ele><time>2026-03-28T08:27:10.958Z</time></trkpt><trkpt lat="44.0539043" lon="11.3030207"><ele>541.0</ele><time>2026-03-28T08:27:24.953Z</time></trkpt><trkpt lat="44.0539915" lon="11.3029291"><ele>541.0</ele><time>2026-03-28T08:27:26.959Z</time></trkpt><trkpt lat="44.0540412" lon="11.3028742"><ele>541.0</ele><time>2026-03-28T08:27:27.962Z</time></trkpt><trkpt lat="44.0540988" lon="11.3028172"><ele>541.0</ele><time>2026-03-28T08:27:28.962Z</time></trkpt><trkpt lat="44.0541643" lon="11.3027498"><ele>541.0</ele><time>2026-03-28T08:27:29.96Z</time></trkpt><trkpt lat="44.0542364" lon="11.3026752"><ele>541.0</ele><time>2026-03-28T08:27:30.967Z</time></trkpt><trkpt lat="44.0543082" lon="11.3025941"><ele>541.0</ele><time>2026-03-28T08:27:31.954Z</time></trkpt><trkpt lat="44.0543787" lon="11.3025134"><ele>542.6666666666667</ele><time>2026-03-28T08:27:32.967Z</time></trkpt><trkpt lat="44.0544593" lon="11.302444"><ele>544.3333333333334</ele><time>2026-03-28T08:27:33.967Z</time></trkpt><trkpt lat="44.0545359" lon="11.3023835"><ele>546.0</ele><time>2026-03-28T08:27:34.964Z</time></trkpt><trkpt lat="44.05461" lon="11.3023231"><ele>547.6666666666666</ele><time>2026-03-28T08:27:35.966Z</time></trkpt><trkpt lat="44.0546889" lon="11.3022704"><ele>549.3333333333333</ele><time>2026-03-28T08:27:36.964Z</time></trkpt><trkpt lat="44.0547625" lon="11.3022199"><ele>551.0</ele><time>2026-03-28T08:27:37.964Z</time></trkpt><trkpt lat="44.0548375" lon="11.302173"><ele>549.6</ele><time>2026-03-28T08:27:38.964Z</time></trkpt><trkpt lat="44.0549137" lon="11.3021198"><ele>548.2</ele><time>2026-03-28T08:27:39.962Z</time></trkpt><trkpt lat="44.0549776" lon="11.302048"><ele>546.8</ele><time>2026-03-28T08:27:40.969Z</time></trkpt><trkpt lat="44.0550228" lon="11.3019365"><ele>545.4</ele><time>2026-03-28T08:27:41.967Z</time></trkpt><trkpt lat="44.0550635" lon="11.3018136"><ele>544.0</ele><time>2026-03-28T08:27:42.968Z</time></trkpt><trkpt lat="44.0551133" lon="11.3016895"><ele>544.0</ele><time>2026-03-28T08:27:43.96Z</time></trkpt><trkpt lat="44.0551738" lon="11.3015733"><ele>544.0</ele><time>2026-03-28T08:27:44.964Z</time></trkpt><trkpt lat="44.0552319" lon="11.3014699"><ele>544.0</ele><time>2026-03-28T08:27:45.961Z</time></trkpt><trkpt lat="44.0552911" lon="11.3013748"><ele>544.0</ele><time>2026-03-28T08:27:46.963Z</time></trkpt><trkpt lat="44.0553298" lon="11.3012726"><ele>544.0</ele><time>2026-03-28T08:27:47.951Z</time></trkpt><trkpt lat="44.0553556" lon="11.3011701"><ele>544.0</ele><time>2026-03-28T08:27:48.974Z</time></trkpt><trkpt lat="44.0553733" lon="11.3010771"><ele>541.0</ele><time>2026-03-28T08:27:49.966Z</time></trkpt><trkpt lat="44.055409" lon="11.3009749"><ele>538.0</ele><time>2026-03-28T08:27:50.961Z</time></trkpt><trkpt lat="44.0554628" lon="11.3008763"><ele>535.0</ele><time>2026-03-28T08:27:51.967Z</time></trkpt><trkpt lat="44.0555204" lon="11.3007897"><ele>532.0</ele><time>2026-03-28T08:27:52.95Z</time></trkpt><trkpt lat="44.0555745" lon="11.3007307"><ele>529.0</ele><time>2026-03-28T08:27:53.972Z</time></trkpt><trkpt lat="44.0556922" lon="11.3007105"><ele>526.0</ele><time>2026-03-28T08:27:55.965Z</time></trkpt><trkpt lat="44.055753" lon="11.3007581"><ele>528.4</ele><time>2026-03-28T08:27:56.953Z</time></trkpt><trkpt lat="44.0558328" lon="11.300842"><ele>530.8</ele><time>2026-03-28T08:27:57.948Z</time></trkpt><trkpt lat="44.0559167" lon="11.3009478"><ele>533.1999999999999</ele><time>2026-03-28T08:27:58.956Z</time></trkpt><trkpt lat="44.0560046" lon="11.3010526"><ele>535.6</ele><time>2026-03-28T08:27:59.961Z</time></trkpt><trkpt lat="44.056093" lon="11.3011203"><ele>538.0</ele><time>2026-03-28T08:28:00.976Z</time></trkpt><trkpt lat="44.0561731" lon="11.3011461"><ele>538.0</ele><time>2026-03-28T08:28:01.96Z</time></trkpt><trkpt lat="44.0562513" lon="11.3011447"><ele>538.0</ele><time>2026-03-28T08:28:02.945Z</time></trkpt><trkpt lat="44.0563272" lon="11.3010994"><ele>538.0</ele><time>2026-03-28T08:28:03.963Z</time></trkpt><trkpt lat="44.0563951" lon="11.3010248"><ele>538.0</ele><time>2026-03-28T08:28:04.952Z</time></trkpt><trkpt lat="44.0564456" lon="11.3009308"><ele>538.0</ele><time>2026-03-28T08:28:05.965Z</time></trkpt><trkpt lat="44.0564676" lon="11.3008136"><ele>538.0</ele><time>2026-03-28T08:28:06.958Z</time></trkpt><trkpt lat="44.0564446" lon="11.3006853"><ele>535.8333333333334</ele><time>2026-03-28T08:28:07.959Z</time></trkpt><trkpt lat="44.0564267" lon="11.3005673"><ele>533.6666666666667</ele><time>2026-03-28T08:28:08.959Z</time></trkpt><trkpt lat="44.0564098" lon="11.3004502"><ele>531.5</ele><time>2026-03-28T08:28:09.959Z</time></trkpt><trkpt lat="44.0564098" lon="11.3003373"><ele>529.3333333333334</ele><time>2026-03-28T08:28:11.008Z</time></trkpt><trkpt lat="44.0564158" lon="11.3002393"><ele>527.1666666666666</ele><time>2026-03-28T08:28:11.962Z</time></trkpt><trkpt lat="44.0564381" lon="11.3001569"><ele>525.0</ele><time>2026-03-28T08:28:12.956Z</time></trkpt><trkpt lat="44.0565006" lon="11.300026"><ele>525.0</ele><time>2026-03-28T08:28:14.942Z</time></trkpt><trkpt lat="44.0566031" lon="11.2999556"><ele>525.0</ele><time>2026-03-28T08:28:17.036Z</time></trkpt><trkpt lat="44.0567144" lon="11.2999292"><ele>525.0</ele><time>2026-03-28T08:28:18.959Z</time></trkpt><trkpt lat="44.056822" lon="11.2998604"><ele>525.0</ele><time>2026-03-28T08:28:21.027Z</time></trkpt><trkpt lat="44.0569263" lon="11.2997929"><ele>527.8333333333334</ele><time>2026-03-28T08:28:22.962Z</time></trkpt><trkpt lat="44.0570364" lon="11.299718"><ele>530.6666666666666</ele><time>2026-03-28T08:28:24.99Z</time></trkpt><trkpt lat="44.0570959" lon="11.2996823"><ele>533.5</ele><time>2026-03-28T08:28:26.033Z</time></trkpt><trkpt lat="44.0571595" lon="11.2996604"><ele>536.3333333333333</ele><time>2026-03-28T08:28:27.036Z</time></trkpt><trkpt lat="44.0572847" lon="11.2996345"><ele>539.1666666666666</ele><time>2026-03-28T08:28:28.967Z</time></trkpt><trkpt lat="44.0573509" lon="11.2996287"><ele>542.0</ele><time>2026-03-28T08:28:29.967Z</time></trkpt><trkpt lat="44.057415" lon="11.2996157"><ele>545.8000000000001</ele><time>2026-03-28T08:28:31.035Z</time></trkpt><trkpt lat="44.0575381" lon="11.2995855"><ele>549.6</ele><time>2026-03-28T08:28:32.967Z</time></trkpt><trkpt lat="44.0576036" lon="11.2995695"><ele>553.4000000000001</ele><time>2026-03-28T08:28:33.968Z</time></trkpt><trkpt lat="44.0576675" lon="11.2995604"><ele>557.2</ele><time>2026-03-28T08:28:34.997Z</time></trkpt><trkpt lat="44.0577839" lon="11.2995829"><ele>561.0</ele><time>2026-03-28T08:28:36.956Z</time></trkpt><trkpt lat="44.0578649" lon="11.2997027"><ele>563.7142857142857</ele><time>2026-03-28T08:28:38.958Z</time></trkpt><trkpt lat="44.0579182" lon="11.2997818"><ele>566.4285714285713</ele><time>2026-03-28T08:28:39.967Z</time></trkpt><trkpt lat="44.0579727" lon="11.299854"><ele>569.1428571428571</ele><time>2026-03-28T08:28:40.958Z</time></trkpt><trkpt lat="44.0580375" lon="11.299915"><ele>571.8571428571429</ele><time>2026-03-28T08:28:41.967Z</time></trkpt><trkpt lat="44.0581026" lon="11.2999684"><ele>574.5714285714287</ele><time>2026-03-28T08:28:42.966Z</time></trkpt><trkpt lat="44.0581625" lon="11.3000162"><ele>577.2857142857143</ele><time>2026-03-28T08:28:43.97Z</time></trkpt><trkpt lat="44.0582246" lon="11.3000438"><ele>580.0</ele><time>2026-03-28T08:28:44.957Z</time></trkpt><trkpt lat="44.0583393" lon="11.299989"><ele>580.4285714285714</ele><time>2026-03-28T08:28:46.962Z</time></trkpt><trkpt lat="44.0584" lon="11.2999142"><ele>580.8571428571429</ele><time>2026-03-28T08:28:47.971Z</time></trkpt><trkpt lat="44.0584524" lon="11.2998411"><ele>581.2857142857143</ele><time>2026-03-28T08:28:48.975Z</time></trkpt><trkpt lat="44.0585066" lon="11.2997689"><ele>581.7142857142858</ele><time>2026-03-28T08:28:50.021Z</time></trkpt><trkpt lat="44.0585601" lon="11.2996997"><ele>582.1428571428571</ele><time>2026-03-28T08:28:51.027Z</time></trkpt><trkpt lat="44.058606" lon="11.2996292"><ele>582.5714285714287</ele><time>2026-03-28T08:28:52.011Z</time></trkpt><trkpt lat="44.0586482" lon="11.299556"><ele>583.0</ele><time>2026-03-28T08:28:52.968Z</time></trkpt><trkpt lat="44.058749" lon="11.2994566"><ele>583.0</ele><time>2026-03-28T08:28:54.961Z</time></trkpt><trkpt lat="44.058821" lon="11.2993675"><ele>583.0</ele><time>2026-03-28T08:28:56.965Z</time></trkpt><trkpt lat="44.05888" lon="11.2992813"><ele>583.0</ele><time>2026-03-28T08:28:58.962Z</time></trkpt><trkpt lat="44.0589246" lon="11.2992175"><ele>583.0</ele><time>2026-03-28T08:29:01.969Z</time></trkpt><trkpt lat="44.0589913" lon="11.2991305"><ele>583.0</ele><time>2026-03-28T08:29:24.973Z</time></trkpt><trkpt lat="44.0590484" lon="11.2990699"><ele>583.0</ele><time>2026-03-28T08:29:26.973Z</time></trkpt><trkpt lat="44.0591636" lon="11.298974"><ele>584.3333333333334</ele><time>2026-03-28T08:29:28.968Z</time></trkpt><trkpt lat="44.0592082" lon="11.2989017"><ele>585.6666666666667</ele><time>2026-03-28T08:29:29.953Z</time></trkpt><trkpt lat="44.0592483" lon="11.2988092"><ele>587.0</ele><time>2026-03-28T08:29:30.97Z</time></trkpt><trkpt lat="44.0592865" lon="11.2987312"><ele>588.3333333333334</ele><time>2026-03-28T08:29:31.967Z</time></trkpt><trkpt lat="44.0593543" lon="11.2986055"><ele>589.6666666666666</ele><time>2026-03-28T08:29:33.967Z</time></trkpt><trkpt lat="44.0594249" lon="11.2984818"><ele>591.0</ele><time>2026-03-28T08:29:35.965Z</time></trkpt><trkpt lat="44.0594752" lon="11.2983564"><ele>591.0</ele><time>2026-03-28T08:29:37.978Z</time></trkpt><trkpt lat="44.0595277" lon="11.2982353"><ele>591.0</ele><time>2026-03-28T08:29:40.035Z</time></trkpt><trkpt lat="44.0595763" lon="11.2981075"><ele>591.0</ele><time>2026-03-28T08:29:42.039Z</time></trkpt><trkpt lat="44.0596271" lon="11.2980143"><ele>591.0</ele><time>2026-03-28T08:29:43.971Z</time></trkpt><trkpt lat="44.0596825" lon="11.2978978"><ele>591.0</ele><time>2026-03-28T08:29:45.978Z</time></trkpt><trkpt lat="44.0597712" lon="11.2977858"><ele>592.4</ele><time>2026-03-28T08:29:47.97Z</time></trkpt><trkpt lat="44.0598725" lon="11.2976982"><ele>593.8</ele><time>2026-03-28T08:29:50.033Z</time></trkpt><trkpt lat="44.0599652" lon="11.2976484"><ele>595.1999999999999</ele><time>2026-03-28T08:29:51.959Z</time></trkpt><trkpt lat="44.0600325" lon="11.2976175"><ele>596.6</ele><time>2026-03-28T08:29:53.959Z</time></trkpt><trkpt lat="44.0601019" lon="11.2975609"><ele>598.0</ele><time>2026-03-28T08:29:57.975Z</time></trkpt><trkpt lat="44.0601778" lon="11.2974821"><ele>598.0</ele><time>2026-03-28T08:30:00.95Z</time></trkpt><trkpt lat="44.0602418" lon="11.297344"><ele>598.0</ele><time>2026-03-28T08:30:02.965Z</time></trkpt><trkpt lat="44.0602766" lon="11.2972659"><ele>598.0</ele><time>2026-03-28T08:30:03.967Z</time></trkpt><trkpt lat="44.0603107" lon="11.2971771"><ele>598.0</ele><time>2026-03-28T08:30:04.948Z</time></trkpt><trkpt lat="44.0603275" lon="11.2970697"><ele>598.0</ele><time>2026-03-28T08:30:05.947Z</time></trkpt><trkpt lat="44.0603257" lon="11.2969557"><ele>598.0</ele><time>2026-03-28T08:30:06.962Z</time></trkpt><trkpt lat="44.0603357" lon="11.2968455"><ele>596.1666666666667</ele><time>2026-03-28T08:30:07.968Z</time></trkpt><trkpt lat="44.0603457" lon="11.296741"><ele>594.3333333333334</ele><time>2026-03-28T08:30:08.967Z</time></trkpt><trkpt lat="44.0603557" lon="11.2966351"><ele>592.5</ele><time>2026-03-28T08:30:09.967Z</time></trkpt><trkpt lat="44.060378" lon="11.2965378"><ele>590.6666666666666</ele><time>2026-03-28T08:30:10.965Z</time></trkpt><trkpt lat="44.0604188" lon="11.2964473"><ele>588.8333333333333</ele><time>2026-03-28T08:30:11.966Z</time></trkpt><trkpt lat="44.0604889" lon="11.2963497"><ele>587.0</ele><time>2026-03-28T08:30:12.955Z</time></trkpt><trkpt lat="44.0605692" lon="11.2962735"><ele>586.1666666666666</ele><time>2026-03-28T08:30:13.958Z</time></trkpt><trkpt lat="44.0606531" lon="11.2962049"><ele>585.3333333333333</ele><time>2026-03-28T08:30:14.955Z</time></trkpt><trkpt lat="44.0607317" lon="11.2961477"><ele>584.5</ele><time>2026-03-28T08:30:15.966Z</time></trkpt><trkpt lat="44.0608077" lon="11.2961079"><ele>583.6666666666666</ele><time>2026-03-28T08:30:16.941Z</time></trkpt><trkpt lat="44.0608805" lon="11.2960609"><ele>582.8333333333334</ele><time>2026-03-28T08:30:17.957Z</time></trkpt><trkpt lat="44.0609421" lon="11.296013"><ele>582.0</ele><time>2026-03-28T08:30:18.963Z</time></trkpt><trkpt lat="44.0610116" lon="11.2959676"><ele>584.3333333333334</ele><time>2026-03-28T08:30:19.966Z</time></trkpt><trkpt lat="44.0610715" lon="11.2959255"><ele>586.6666666666666</ele><time>2026-03-28T08:30:20.97Z</time></trkpt><trkpt lat="44.06116" lon="11.2958246"><ele>589.0</ele><time>2026-03-28T08:30:22.965Z</time></trkpt><trkpt lat="44.0611762" lon="11.2956754"><ele>591.3333333333333</ele><time>2026-03-28T08:30:24.961Z</time></trkpt><trkpt lat="44.0611426" lon="11.2955877"><ele>593.6666666666666</ele><time>2026-03-28T08:30:25.97Z</time></trkpt><trkpt lat="44.0610998" lon="11.2955023"><ele>596.0</ele><time>2026-03-28T08:30:26.97Z</time></trkpt><trkpt lat="44.06105" lon="11.2954317"><ele>597.1666666666666</ele><time>2026-03-28T08:30:27.967Z</time></trkpt><trkpt lat="44.0609908" lon="11.2953653"><ele>598.3333333333333</ele><time>2026-03-28T08:30:28.972Z</time></trkpt><trkpt lat="44.060926" lon="11.2953018"><ele>599.5</ele><time>2026-03-28T08:30:29.967Z</time></trkpt><trkpt lat="44.0608621" lon="11.2952328"><ele>600.6666666666666</ele><time>2026-03-28T08:30:30.97Z</time></trkpt><trkpt lat="44.0607983" lon="11.2951609"><ele>601.8333333333334</ele><time>2026-03-28T08:30:31.961Z</time></trkpt><trkpt lat="44.0607482" lon="11.2950792"><ele>603.0</ele><time>2026-03-28T08:30:32.964Z</time></trkpt><trkpt lat="44.0607152" lon="11.2949815"><ele>603.0</ele><time>2026-03-28T08:30:33.984Z</time></trkpt><trkpt lat="44.0606868" lon="11.2948786"><ele>603.0</ele><time>2026-03-28T08:30:34.964Z</time></trkpt><trkpt lat="44.0606634" lon="11.2947745"><ele>603.0</ele><time>2026-03-28T08:30:35.963Z</time></trkpt><trkpt lat="44.0606332" lon="11.2946697"><ele>603.0</ele><time>2026-03-28T08:30:36.96Z</time></trkpt><trkpt lat="44.0605922" lon="11.294571"><ele>603.0</ele><time>2026-03-28T08:30:37.966Z</time></trkpt><trkpt lat="44.0605336" lon="11.2944861"><ele>603.0</ele><time>2026-03-28T08:30:38.964Z</time></trkpt><trkpt lat="44.0604756" lon="11.2944075"><ele>607.6</ele><time>2026-03-28T08:30:39.963Z</time></trkpt><trkpt lat="44.060423" lon="11.2943492"><ele>612.1999999999999</ele><time>2026-03-28T08:30:40.969Z</time></trkpt><trkpt lat="44.0602918" lon="11.294259"><ele>616.8</ele><time>2026-03-28T08:30:42.957Z</time></trkpt><trkpt lat="44.0602203" lon="11.2942015"><ele>621.4</ele><time>2026-03-28T08:30:43.948Z</time></trkpt><trkpt lat="44.0601487" lon="11.2941184"><ele>626.0</ele><time>2026-03-28T08:30:44.952Z</time></trkpt><trkpt lat="44.0600797" lon="11.2940213"><ele>626.0</ele><time>2026-03-28T08:30:45.958Z</time></trkpt><trkpt lat="44.0600087" lon="11.2939218"><ele>626.0</ele><time>2026-03-28T08:30:46.959Z</time></trkpt><trkpt lat="44.0599388" lon="11.2938298"><ele>626.0</ele><time>2026-03-28T08:30:47.942Z</time></trkpt><trkpt lat="44.0598678" lon="11.2937313"><ele>626.0</ele><time>2026-03-28T08:30:48.953Z</time></trkpt><trkpt lat="44.0597921" lon="11.2936385"><ele>626.0</ele><time>2026-03-28T08:30:49.968Z</time></trkpt><trkpt lat="44.0597056" lon="11.2935518"><ele>627.2</ele><time>2026-03-28T08:30:50.96Z</time></trkpt><trkpt lat="44.0596195" lon="11.2934623"><ele>628.4000000000001</ele><time>2026-03-28T08:30:51.964Z</time></trkpt><trkpt lat="44.0595376" lon="11.2933772"><ele>629.6</ele><time>2026-03-28T08:30:52.967Z</time></trkpt><trkpt lat="44.0594568" lon="11.2932859"><ele>630.8000000000001</ele><time>2026-03-28T08:30:53.947Z</time></trkpt><trkpt lat="44.0593718" lon="11.2931863"><ele>632.0</ele><time>2026-03-28T08:30:54.965Z</time></trkpt><trkpt lat="44.059293" lon="11.2930868"><ele>634.0</ele><time>2026-03-28T08:30:55.97Z</time></trkpt><trkpt lat="44.059221" lon="11.2929717"><ele>636.0</ele><time>2026-03-28T08:30:56.968Z</time></trkpt><trkpt lat="44.0591498" lon="11.2928545"><ele>638.0</ele><time>2026-03-28T08:30:57.958Z</time></trkpt><trkpt lat="44.0590675" lon="11.2927467"><ele>640.0</ele><time>2026-03-28T08:30:58.958Z</time></trkpt><trkpt lat="44.0589713" lon="11.2926677"><ele>642.0</ele><time>2026-03-28T08:30:59.969Z</time></trkpt><trkpt lat="44.0588818" lon="11.2925972"><ele>642.5</ele><time>2026-03-28T08:31:00.965Z</time></trkpt><trkpt lat="44.0588023" lon="11.2925232"><ele>643.0</ele><time>2026-03-28T08:31:01.968Z</time></trkpt><trkpt lat="44.0587357" lon="11.2924454"><ele>643.5</ele><time>2026-03-28T08:31:02.967Z</time></trkpt><trkpt lat="44.0586936" lon="11.292375"><ele>644.0</ele><time>2026-03-28T08:31:03.973Z</time></trkpt><trkpt lat="44.0587092" lon="11.2922819"><ele>644.5</ele><time>2026-03-28T08:31:15.968Z</time></trkpt><trkpt lat="44.0587891" lon="11.2922471"><ele>645.0</ele><time>2026-03-28T08:31:18.976Z</time></trkpt><trkpt lat="44.0588497" lon="11.2921855"><ele>644.5</ele><time>2026-03-28T08:31:21.964Z</time></trkpt><trkpt lat="44.0589269" lon="11.2921287"><ele>644.0</ele><time>2026-03-28T08:31:24.967Z</time></trkpt><trkpt lat="44.0589901" lon="11.2920883"><ele>643.5</ele><time>2026-03-28T08:31:26.987Z</time></trkpt><trkpt lat="44.0590461" lon="11.2920439"><ele>643.0</ele><time>2026-03-28T08:31:28.958Z</time></trkpt><trkpt lat="44.0591175" lon="11.2919955"><ele>642.5</ele><time>2026-03-28T08:31:31.953Z</time></trkpt><trkpt lat="44.0591892" lon="11.2919342"><ele>642.0</ele><time>2026-03-28T08:31:35.944Z</time></trkpt><trkpt lat="44.0592567" lon="11.2918731"><ele>641.9999999999999</ele><time>2026-03-28T08:31:38.962Z</time></trkpt><trkpt lat="44.0593112" lon="11.2918264"><ele>642.0</ele><time>2026-03-28T08:31:41.957Z</time></trkpt><trkpt lat="44.0593616" lon="11.2917718"><ele>642.0</ele><time>2026-03-28T08:31:44.96Z</time></trkpt><trkpt lat="44.0594158" lon="11.2917183"><ele>642.0</ele><time>2026-03-28T08:31:47.958Z</time></trkpt><trkpt lat="44.0594824" lon="11.2916433"><ele>642.0</ele><time>2026-03-28T08:31:50.967Z</time></trkpt><trkpt lat="44.0595541" lon="11.2915897"><ele>641.9999999999999</ele><time>2026-03-28T08:31:53.958Z</time></trkpt><trkpt lat="44.0596092" lon="11.2915409"><ele>642.0</ele><time>2026-03-28T08:31:56.961Z</time></trkpt><trkpt lat="44.0596555" lon="11.2914812"><ele>641.9999999999999</ele><time>2026-03-28T08:31:59.975Z</time></trkpt><trkpt lat="44.0597141" lon="11.2914286"><ele>642.0</ele><time>2026-03-28T08:32:02.971Z</time></trkpt><trkpt lat="44.0597919" lon="11.2913944"><ele>642.0</ele><time>2026-03-28T08:32:05.961Z</time></trkpt><trkpt lat="44.0598543" lon="11.2913644"><ele>642.0</ele><time>2026-03-28T08:32:07.964Z</time></trkpt><trkpt lat="44.0599323" lon="11.2913211"><ele>642.0</ele><time>2026-03-28T08:32:10.973Z</time></trkpt><trkpt lat="44.0599958" lon="11.2913323"><ele>641.9999999999999</ele><time>2026-03-28T08:32:13.965Z</time></trkpt><trkpt lat="44.0600442" lon="11.2913976"><ele>642.0</ele><time>2026-03-28T08:32:16.966Z</time></trkpt><trkpt lat="44.0600963" lon="11.2914886"><ele>642.2</ele><time>2026-03-28T08:32:19.975Z</time></trkpt><trkpt lat="44.0601458" lon="11.2915616"><ele>642.4000000000001</ele><time>2026-03-28T08:32:22.05Z</time></trkpt><trkpt lat="44.0601932" lon="11.2916496"><ele>642.5999999999999</ele><time>2026-03-28T08:32:23.964Z</time></trkpt><trkpt lat="44.0602444" lon="11.2917415"><ele>642.8</ele><time>2026-03-28T08:32:25.949Z</time></trkpt><trkpt lat="44.0603293" lon="11.2918316"><ele>643.0</ele><time>2026-03-28T08:32:27.965Z</time></trkpt><trkpt lat="44.0604336" lon="11.2919258"><ele>643.0</ele><time>2026-03-28T08:32:30.044Z</time></trkpt><trkpt lat="44.0605385" lon="11.2919913"><ele>643.0</ele><time>2026-03-28T08:32:32.036Z</time></trkpt><trkpt lat="44.0606211" lon="11.2919508"><ele>643.0</ele><time>2026-03-28T08:32:33.976Z</time></trkpt><trkpt lat="44.0607042" lon="11.2919154"><ele>643.0</ele><time>2026-03-28T08:32:35.975Z</time></trkpt><trkpt lat="44.0607742" lon="11.291921"><ele>643.0</ele><time>2026-03-28T08:32:37.973Z</time></trkpt><trkpt lat="44.0608487" lon="11.2919488"><ele>643.0</ele><time>2026-03-28T08:32:39.961Z</time></trkpt><trkpt lat="44.0609591" lon="11.2919784"><ele>642.5714285714286</ele><time>2026-03-28T08:32:41.972Z</time></trkpt><trkpt lat="44.0610296" lon="11.2919728"><ele>642.1428571428572</ele><time>2026-03-28T08:32:42.973Z</time></trkpt><trkpt lat="44.0611089" lon="11.2919573"><ele>641.7142857142858</ele><time>2026-03-28T08:32:43.97Z</time></trkpt><trkpt lat="44.0611813" lon="11.2919165"><ele>641.2857142857142</ele><time>2026-03-28T08:32:44.953Z</time></trkpt><trkpt lat="44.0612531" lon="11.2918841"><ele>640.8571428571429</ele><time>2026-03-28T08:32:45.973Z</time></trkpt><trkpt lat="44.0613211" lon="11.2918644"><ele>640.4285714285714</ele><time>2026-03-28T08:32:46.981Z</time></trkpt><trkpt lat="44.0613884" lon="11.2918602"><ele>640.0</ele><time>2026-03-28T08:32:47.966Z</time></trkpt><trkpt lat="44.0615082" lon="11.2918731"><ele>640.0</ele><time>2026-03-28T08:32:49.961Z</time></trkpt><trkpt lat="44.0615823" lon="11.2919099"><ele>640.0</ele><time>2026-03-28T08:32:50.972Z</time></trkpt><trkpt lat="44.0616638" lon="11.2919622"><ele>640.0</ele><time>2026-03-28T08:32:51.972Z</time></trkpt><trkpt lat="44.0617475" lon="11.2920158"><ele>640.0</ele><time>2026-03-28T08:32:52.977Z</time></trkpt><trkpt lat="44.0618292" lon="11.2920792"><ele>640.0</ele><time>2026-03-28T08:32:53.964Z</time></trkpt><trkpt lat="44.0619069" lon="11.292136"><ele>640.0</ele><time>2026-03-28T08:32:54.974Z</time></trkpt><trkpt lat="44.0619691" lon="11.2921776"><ele>641.0</ele><time>2026-03-28T08:32:55.992Z</time></trkpt><trkpt lat="44.0620633" lon="11.2922327"><ele>642.0</ele><time>2026-03-28T08:32:57.979Z</time></trkpt><trkpt lat="44.0621828" lon="11.292289"><ele>643.0</ele><time>2026-03-28T08:32:59.989Z</time></trkpt><trkpt lat="44.0622537" lon="11.2923166"><ele>644.0</ele><time>2026-03-28T08:33:00.974Z</time></trkpt><trkpt lat="44.0623223" lon="11.2923579"><ele>645.0</ele><time>2026-03-28T08:33:01.974Z</time></trkpt><trkpt lat="44.0623956" lon="11.2923852"><ele>646.5</ele><time>2026-03-28T08:33:02.969Z</time></trkpt><trkpt lat="44.0624614" lon="11.2923957"><ele>648.0</ele><time>2026-03-28T08:33:03.968Z</time></trkpt><trkpt lat="44.0625428" lon="11.2923951"><ele>649.5</ele><time>2026-03-28T08:33:05.976Z</time></trkpt><trkpt lat="44.0626136" lon="11.2924044"><ele>651.0</ele><time>2026-03-28T08:33:07.979Z</time></trkpt><trkpt lat="44.0626809" lon="11.2924456"><ele>652.5</ele><time>2026-03-28T08:33:10.973Z</time></trkpt><trkpt lat="44.0627357" lon="11.2925702"><ele>654.0</ele><time>2026-03-28T08:33:13.985Z</time></trkpt><trkpt lat="44.0627672" lon="11.2927143"><ele>654.0</ele><time>2026-03-28T08:33:15.974Z</time></trkpt><trkpt lat="44.0627858" lon="11.2928599"><ele>654.0</ele><time>2026-03-28T08:33:17.977Z</time></trkpt><trkpt lat="44.0628184" lon="11.2929978"><ele>654.0</ele><time>2026-03-28T08:33:19.978Z</time></trkpt><trkpt lat="44.0628689" lon="11.2930819"><ele>654.0</ele><time>2026-03-28T08:33:21.98Z</time></trkpt><trkpt lat="44.0629278" lon="11.2931601"><ele>654.0</ele><time>2026-03-28T08:33:23.968Z</time></trkpt><trkpt lat="44.0630129" lon="11.2932245"><ele>653.0</ele><time>2026-03-28T08:33:25.978Z</time></trkpt><trkpt lat="44.0631046" lon="11.2932353"><ele>652.0</ele><time>2026-03-28T08:33:27.966Z</time></trkpt><trkpt lat="44.0632168" lon="11.2932461"><ele>651.0</ele><time>2026-03-28T08:33:29.977Z</time></trkpt><trkpt lat="44.0633178" lon="11.2932572"><ele>650.0</ele><time>2026-03-28T08:33:31.973Z</time></trkpt><trkpt lat="44.063422" lon="11.2932935"><ele>649.0</ele><time>2026-03-28T08:33:33.969Z</time></trkpt><trkpt lat="44.0635058" lon="11.293351"><ele>649.0</ele><time>2026-03-28T08:33:35.983Z</time></trkpt><trkpt lat="44.063583" lon="11.2934298"><ele>649.0</ele><time>2026-03-28T08:33:37.982Z</time></trkpt><trkpt lat="44.0636578" lon="11.2934986"><ele>649.0</ele><time>2026-03-28T08:33:39.966Z</time></trkpt><trkpt lat="44.0637225" lon="11.2935971"><ele>649.0</ele><time>2026-03-28T08:33:41.97Z</time></trkpt><trkpt lat="44.0637893" lon="11.2936788"><ele>649.0</ele><time>2026-03-28T08:33:43.978Z</time></trkpt><trkpt lat="44.0638407" lon="11.2937656"><ele>649.0</ele><time>2026-03-28T08:33:45.976Z</time></trkpt><trkpt lat="44.0638982" lon="11.2938474"><ele>649.0</ele><time>2026-03-28T08:33:47.967Z</time></trkpt><trkpt lat="44.0639636" lon="11.2939363"><ele>649.0</ele><time>2026-03-28T08:33:49.977Z</time></trkpt><trkpt lat="44.0640464" lon="11.2940223"><ele>649.0</ele><time>2026-03-28T08:33:51.963Z</time></trkpt><trkpt lat="44.0641409" lon="11.2940928"><ele>649.0</ele><time>2026-03-28T08:33:53.962Z</time></trkpt><trkpt lat="44.0642285" lon="11.2941412"><ele>650.5</ele><time>2026-03-28T08:33:55.979Z</time></trkpt><trkpt lat="44.0642939" lon="11.2941885"><ele>652.0</ele><time>2026-03-28T08:33:58.972Z</time></trkpt><trkpt lat="44.0643563" lon="11.2942429"><ele>653.5</ele><time>2026-03-28T08:34:01.979Z</time></trkpt><trkpt lat="44.064438" lon="11.2942915"><ele>655.0</ele><time>2026-03-28T08:34:04.981Z</time></trkpt><trkpt lat="44.0645241" lon="11.2943393"><ele>656.5</ele><time>2026-03-28T08:34:07.971Z</time></trkpt><trkpt lat="44.0645991" lon="11.2943814"><ele>658.0</ele><time>2026-03-28T08:34:09.977Z</time></trkpt><trkpt lat="44.0646779" lon="11.2944082"><ele>658.0</ele><time>2026-03-28T08:34:11.979Z</time></trkpt><trkpt lat="44.0647675" lon="11.2944263"><ele>658.0</ele><time>2026-03-28T08:34:13.968Z</time></trkpt><trkpt lat="44.0648606" lon="11.2944634"><ele>658.0</ele><time>2026-03-28T08:34:15.972Z</time></trkpt><trkpt lat="44.0649358" lon="11.2944863"><ele>658.0</ele><time>2026-03-28T08:34:17.978Z</time></trkpt><trkpt lat="44.0650052" lon="11.2945026"><ele>658.0</ele><time>2026-03-28T08:34:19.976Z</time></trkpt><trkpt lat="44.0650741" lon="11.2945281"><ele>658.0</ele><time>2026-03-28T08:34:21.955Z</time></trkpt><trkpt lat="44.0651397" lon="11.2945538"><ele>660.1666666666667</ele><time>2026-03-28T08:34:23.963Z</time></trkpt><trkpt lat="44.0652048" lon="11.2945774"><ele>662.3333333333334</ele><time>2026-03-28T08:34:25.961Z</time></trkpt><trkpt lat="44.065282" lon="11.2945987"><ele>664.5</ele><time>2026-03-28T08:34:27.976Z</time></trkpt><trkpt lat="44.0653699" lon="11.2946254"><ele>666.6666666666666</ele><time>2026-03-28T08:34:29.972Z</time></trkpt><trkpt lat="44.0654709" lon="11.2946707"><ele>668.8333333333333</ele><time>2026-03-28T08:34:31.958Z</time></trkpt><trkpt lat="44.065572" lon="11.2947026"><ele>671.0</ele><time>2026-03-28T08:34:33.972Z</time></trkpt><trkpt lat="44.0656757" lon="11.2947437"><ele>671.8333333333333</ele><time>2026-03-28T08:34:35.965Z</time></trkpt><trkpt lat="44.0657661" lon="11.2947651"><ele>672.6666666666666</ele><time>2026-03-28T08:34:38.962Z</time></trkpt><trkpt lat="44.0658576" lon="11.2947693"><ele>673.5</ele><time>2026-03-28T08:34:41.969Z</time></trkpt><trkpt lat="44.0659305" lon="11.2947636"><ele>674.3333333333334</ele><time>2026-03-28T08:34:43.969Z</time></trkpt><trkpt lat="44.0659968" lon="11.2947744"><ele>675.1666666666667</ele><time>2026-03-28T08:34:45.969Z</time></trkpt><trkpt lat="44.0660878" lon="11.2948169"><ele>676.0</ele><time>2026-03-28T08:34:48.973Z</time></trkpt><trkpt lat="44.0661601" lon="11.2948307"><ele>679.8333333333334</ele><time>2026-03-28T08:34:50.965Z</time></trkpt><trkpt lat="44.0662471" lon="11.2948501"><ele>683.6666666666667</ele><time>2026-03-28T08:34:52.976Z</time></trkpt><trkpt lat="44.0663389" lon="11.2948515"><ele>687.5</ele><time>2026-03-28T08:34:54.978Z</time></trkpt><trkpt lat="44.0664289" lon="11.2948521"><ele>691.3333333333334</ele><time>2026-03-28T08:34:56.973Z</time></trkpt><trkpt lat="44.0665025" lon="11.2948526"><ele>695.1666666666666</ele><time>2026-03-28T08:34:58.955Z</time></trkpt><trkpt lat="44.0665878" lon="11.2948864"><ele>699.0</ele><time>2026-03-28T08:35:01.947Z</time></trkpt><trkpt lat="44.0666436" lon="11.2949412"><ele>699.1666666666666</ele><time>2026-03-28T08:35:03.983Z</time></trkpt><trkpt lat="44.0666856" lon="11.2950227"><ele>699.3333333333334</ele><time>2026-03-28T08:35:07.977Z</time></trkpt><trkpt lat="44.0666959" lon="11.2951127"><ele>699.5</ele><time>2026-03-28T08:35:10.976Z</time></trkpt><trkpt lat="44.0666874" lon="11.2952211"><ele>699.6666666666667</ele><time>2026-03-28T08:35:13.979Z</time></trkpt><trkpt lat="44.0666647" lon="11.2953435"><ele>699.8333333333334</ele><time>2026-03-28T08:35:16.968Z</time></trkpt><trkpt lat="44.0666512" lon="11.2954318"><ele>700.0</ele><time>2026-03-28T08:35:18.972Z</time></trkpt><trkpt lat="44.066646" lon="11.2955614"><ele>702.3333333333334</ele><time>2026-03-28T08:35:21.947Z</time></trkpt><trkpt lat="44.0666445" lon="11.295654"><ele>704.6666666666667</ele><time>2026-03-28T08:35:23.978Z</time></trkpt><trkpt lat="44.0666724" lon="11.2957751"><ele>707.0</ele><time>2026-03-28T08:35:26.969Z</time></trkpt><trkpt lat="44.0666954" lon="11.2958802"><ele>709.3333333333334</ele><time>2026-03-28T08:35:29.976Z</time></trkpt><trkpt lat="44.0666943" lon="11.295985"><ele>711.6666666666666</ele><time>2026-03-28T08:35:31.981Z</time></trkpt><trkpt lat="44.066703" lon="11.2960922"><ele>714.0</ele><time>2026-03-28T08:35:33.972Z</time></trkpt><trkpt lat="44.0667004" lon="11.2962145"><ele>714.0</ele><time>2026-03-28T08:35:35.959Z</time></trkpt><trkpt lat="44.0667024" lon="11.2963405"><ele>714.0</ele><time>2026-03-28T08:35:37.989Z</time></trkpt><trkpt lat="44.0667131" lon="11.2964822"><ele>714.0</ele><time>2026-03-28T08:35:40.032Z</time></trkpt><trkpt lat="44.0667309" lon="11.2965921"><ele>714.0</ele><time>2026-03-28T08:35:41.975Z</time></trkpt><trkpt lat="44.0667474" lon="11.2966945"><ele>714.0</ele><time>2026-03-28T08:35:43.981Z</time></trkpt><trkpt lat="44.0667743" lon="11.2968002"><ele>714.0</ele><time>2026-03-28T08:35:46.985Z</time></trkpt><trkpt lat="44.066835" lon="11.2967563"><ele>714.2857142857143</ele><time>2026-03-28T08:36:27.961Z</time></trkpt><trkpt lat="44.0667736" lon="11.2967811"><ele>714.5714285714286</ele><time>2026-03-28T08:37:21.051Z</time></trkpt><trkpt lat="44.0667213" lon="11.2968356"><ele>714.8571428571429</ele><time>2026-03-28T08:37:33.959Z</time></trkpt><trkpt lat="44.0667865" lon="11.2968078"><ele>715.1428571428571</ele><time>2026-03-28T08:42:26.947Z</time></trkpt><trkpt lat="44.0668204" lon="11.2967275"><ele>715.4285714285714</ele><time>2026-03-28T08:44:27.976Z</time></trkpt><trkpt lat="44.0668513" lon="11.2966424"><ele>715.7142857142858</ele><time>2026-03-28T08:44:31.957Z</time></trkpt><trkpt lat="44.0669096" lon="11.2965622"><ele>716.0</ele><time>2026-03-28T08:44:36.953Z</time></trkpt><trkpt lat="44.0669699" lon="11.296504"><ele>716.0</ele><time>2026-03-28T08:44:41.959Z</time></trkpt><trkpt lat="44.0670465" lon="11.2964519"><ele>716.0</ele><time>2026-03-28T08:44:46.958Z</time></trkpt><trkpt lat="44.0671103" lon="11.296414"><ele>716.0</ele><time>2026-03-28T08:44:49.959Z</time></trkpt><trkpt lat="44.0671749" lon="11.2963695"><ele>716.0</ele><time>2026-03-28T08:44:52.96Z</time></trkpt><trkpt lat="44.0672392" lon="11.2963061"><ele>716.0</ele><time>2026-03-28T08:44:55.963Z</time></trkpt><trkpt lat="44.0672882" lon="11.2962474"><ele>716.0</ele><time>2026-03-28T08:44:57.963Z</time></trkpt><trkpt lat="44.0673664" lon="11.2961796"><ele>715.6666666666666</ele><time>2026-03-28T08:45:00.956Z</time></trkpt><trkpt lat="44.0674411" lon="11.2961465"><ele>715.3333333333333</ele><time>2026-03-28T08:45:03.944Z</time></trkpt><trkpt lat="44.0675109" lon="11.2961294"><ele>715.0</ele><time>2026-03-28T08:45:05.961Z</time></trkpt><trkpt lat="44.0675763" lon="11.2961055"><ele>714.6666666666666</ele><time>2026-03-28T08:45:07.96Z</time></trkpt><trkpt lat="44.0676636" lon="11.296083"><ele>714.3333333333334</ele><time>2026-03-28T08:45:10.962Z</time></trkpt><trkpt lat="44.0677364" lon="11.2960627"><ele>714.0</ele><time>2026-03-28T08:45:12.957Z</time></trkpt><trkpt lat="44.0678083" lon="11.2960441"><ele>712.6666666666666</ele><time>2026-03-28T08:45:14.959Z</time></trkpt><trkpt lat="44.0678836" lon="11.2960367"><ele>711.3333333333334</ele><time>2026-03-28T08:45:17.958Z</time></trkpt><trkpt lat="44.0679586" lon="11.295999"><ele>710.0</ele><time>2026-03-28T08:45:20.948Z</time></trkpt><trkpt lat="44.0680402" lon="11.2960039"><ele>708.6666666666667</ele><time>2026-03-28T08:45:24.961Z</time></trkpt><trkpt lat="44.0681293" lon="11.2960047"><ele>707.3333333333334</ele><time>2026-03-28T08:45:31.96Z</time></trkpt><trkpt lat="44.0681867" lon="11.2960557"><ele>706.0</ele><time>2026-03-28T08:45:36.962Z</time></trkpt><trkpt lat="44.0682661" lon="11.2960606"><ele>706.0</ele><time>2026-03-28T08:46:04.946Z</time></trkpt><trkpt lat="44.0683535" lon="11.2960642"><ele>706.0</ele><time>2026-03-28T08:47:26.949Z</time></trkpt><trkpt lat="44.0682995" lon="11.2960187"><ele>706.0</ele><time>2026-03-28T08:49:21.954Z</time></trkpt><trkpt lat="44.0682762" lon="11.2959372"><ele>706.0</ele><time>2026-03-28T08:49:25.959Z</time></trkpt><trkpt lat="44.0683035" lon="11.2958552"><ele>706.0</ele><time>2026-03-28T08:49:33.962Z</time></trkpt><trkpt lat="44.068356" lon="11.2958064"><ele>706.0</ele><time>2026-03-28T08:49:36.962Z</time></trkpt><trkpt lat="44.0684131" lon="11.2957455"><ele>706.0</ele><time>2026-03-28T08:49:39.961Z</time></trkpt><trkpt lat="44.0684844" lon="11.2957305"><ele>706.0</ele><time>2026-03-28T08:49:43.971Z</time></trkpt><trkpt lat="44.0685572" lon="11.2957284"><ele>706.0</ele><time>2026-03-28T08:49:57.95Z</time></trkpt><trkpt lat="44.0686195" lon="11.2956877"><ele>706.0</ele><time>2026-03-28T08:50:10.956Z</time></trkpt><trkpt lat="44.0686784" lon="11.2956308"><ele>706.0</ele><time>2026-03-28T08:50:16.962Z</time></trkpt><trkpt lat="44.0687284" lon="11.2955663"><ele>706.0</ele><time>2026-03-28T08:50:20.956Z</time></trkpt><trkpt lat="44.0687791" lon="11.2955097"><ele>706.0</ele><time>2026-03-28T08:50:38.958Z</time></trkpt><trkpt lat="44.0687488" lon="11.295595"><ele>706.0</ele><time>2026-03-28T08:51:01.958Z</time></trkpt><trkpt lat="44.0686987" lon="11.2956584"><ele>706.0</ele><time>2026-03-28T08:51:06.959Z</time></trkpt><trkpt lat="44.068623" lon="11.2956794"><ele>706.0</ele><time>2026-03-28T08:51:11.962Z</time></trkpt><trkpt lat="44.0685371" lon="11.2956743"><ele>706.0</ele><time>2026-03-28T08:51:15.965Z</time></trkpt><trkpt lat="44.0684532" lon="11.2957138"><ele>706.0</ele><time>2026-03-28T08:51:18.986Z</time></trkpt><trkpt lat="44.0683859" lon="11.2957872"><ele>706.0</ele><time>2026-03-28T08:51:21.97Z</time></trkpt><trkpt lat="44.0683623" lon="11.2958841"><ele>706.0</ele><time>2026-03-28T08:51:24.952Z</time></trkpt><trkpt lat="44.0683274" lon="11.2959849"><ele>706.0</ele><time>2026-03-28T08:51:34.969Z</time></trkpt><trkpt lat="44.0682435" lon="11.2960072"><ele>706.0</ele><time>2026-03-28T08:51:39.959Z</time></trkpt><trkpt lat="44.068151" lon="11.2960205"><ele>706.0</ele><time>2026-03-28T08:51:42.968Z</time></trkpt><trkpt lat="44.0680811" lon="11.2960458"><ele>706.0</ele><time>2026-03-28T08:51:44.958Z</time></trkpt><trkpt lat="44.0679845" lon="11.2960947"><ele>706.0</ele><time>2026-03-28T08:51:46.96Z</time></trkpt><trkpt lat="44.067904" lon="11.2961104"><ele>706.0</ele><time>2026-03-28T08:51:48.988Z</time></trkpt><trkpt lat="44.0678281" lon="11.2961274"><ele>706.0</ele><time>2026-03-28T08:51:51.026Z</time></trkpt><trkpt lat="44.0677665" lon="11.2961507"><ele>706.0</ele><time>2026-03-28T08:51:52.962Z</time></trkpt><trkpt lat="44.0676893" lon="11.2961936"><ele>706.0</ele><time>2026-03-28T08:51:55.955Z</time></trkpt><trkpt lat="44.0676263" lon="11.2962494"><ele>706.0</ele><time>2026-03-28T08:51:58.017Z</time></trkpt><trkpt lat="44.067551" lon="11.2962974"><ele>706.0</ele><time>2026-03-28T08:52:00.021Z</time></trkpt><trkpt lat="44.0674801" lon="11.2963404"><ele>706.0</ele><time>2026-03-28T08:52:01.949Z</time></trkpt><trkpt lat="44.0673961" lon="11.2963723"><ele>707.3333333333334</ele><time>2026-03-28T08:52:03.97Z</time></trkpt><trkpt lat="44.06731" lon="11.2963981"><ele>708.6666666666667</ele><time>2026-03-28T08:52:05.968Z</time></trkpt><trkpt lat="44.0672436" lon="11.2964393"><ele>710.0</ele><time>2026-03-28T08:52:07.969Z</time></trkpt><trkpt lat="44.0671788" lon="11.2964619"><ele>711.3333333333334</ele><time>2026-03-28T08:52:09.959Z</time></trkpt><trkpt lat="44.0670925" lon="11.2964951"><ele>712.6666666666666</ele><time>2026-03-28T08:52:12.945Z</time></trkpt><trkpt lat="44.0670203" lon="11.2965568"><ele>714.0</ele><time>2026-03-28T08:52:15.971Z</time></trkpt><trkpt lat="44.0669467" lon="11.2966167"><ele>714.4000000000001</ele><time>2026-03-28T08:52:19.037Z</time></trkpt><trkpt lat="44.0668931" lon="11.2966824"><ele>714.8</ele><time>2026-03-28T08:52:20.973Z</time></trkpt><trkpt lat="44.0668469" lon="11.2968008"><ele>715.2</ele><time>2026-03-28T08:52:22.968Z</time></trkpt><trkpt lat="44.0668155" lon="11.2969328"><ele>715.5999999999999</ele><time>2026-03-28T08:52:24.966Z</time></trkpt><trkpt lat="44.0667977" lon="11.2970734"><ele>716.0</ele><time>2026-03-28T08:52:26.962Z</time></trkpt><trkpt lat="44.0668074" lon="11.2972198"><ele>717.1666666666666</ele><time>2026-03-28T08:52:28.963Z</time></trkpt><trkpt lat="44.0668334" lon="11.2973492"><ele>718.3333333333333</ele><time>2026-03-28T08:52:31.015Z</time></trkpt><trkpt lat="44.066868" lon="11.2974609"><ele>719.5</ele><time>2026-03-28T08:52:32.941Z</time></trkpt><trkpt lat="44.0668822" lon="11.2975598"><ele>720.6666666666666</ele><time>2026-03-28T08:52:35.972Z</time></trkpt><trkpt lat="44.0669151" lon="11.2976587"><ele>721.8333333333334</ele><time>2026-03-28T08:52:38.965Z</time></trkpt><trkpt lat="44.0669338" lon="11.2977645"><ele>723.0</ele><time>2026-03-28T08:52:41.953Z</time></trkpt><trkpt lat="44.0669371" lon="11.2978654"><ele>723.0</ele><time>2026-03-28T08:52:44.96Z</time></trkpt><trkpt lat="44.0669821" lon="11.2977874"><ele>723.0</ele><time>2026-03-28T08:52:53.952Z</time></trkpt><trkpt lat="44.067024" lon="11.2976746"><ele>723.0</ele><time>2026-03-28T08:52:56.962Z</time></trkpt><trkpt lat="44.0670911" lon="11.2975931"><ele>723.0</ele><time>2026-03-28T08:52:59.956Z</time></trkpt><trkpt lat="44.0671571" lon="11.2974978"><ele>723.0</ele><time>2026-03-28T08:53:02.963Z</time></trkpt><trkpt lat="44.0672282" lon="11.2974405"><ele>723.0</ele><time>2026-03-28T08:53:05.958Z</time></trkpt><trkpt lat="44.0672927" lon="11.29743"><ele>723.0</ele><time>2026-03-28T08:53:10.956Z</time></trkpt><trkpt lat="44.0672181" lon="11.2974384"><ele>723.0</ele><time>2026-03-28T08:53:39.962Z</time></trkpt><trkpt lat="44.067157" lon="11.2975082"><ele>723.0</ele><time>2026-03-28T08:53:43.964Z</time></trkpt><trkpt lat="44.067108" lon="11.2975815"><ele>723.0</ele><time>2026-03-28T08:53:46.973Z</time></trkpt><trkpt lat="44.0670531" lon="11.2976809"><ele>723.0</ele><time>2026-03-28T08:53:49.961Z</time></trkpt><trkpt lat="44.0670132" lon="11.2977665"><ele>723.0</ele><time>2026-03-28T08:53:51.957Z</time></trkpt><trkpt lat="44.0669772" lon="11.2979012"><ele>723.0000000000001</ele><time>2026-03-28T08:53:54.967Z</time></trkpt><trkpt lat="44.066945" lon="11.2979939"><ele>723.0</ele><time>2026-03-28T08:53:56.959Z</time></trkpt><trkpt lat="44.0669122" lon="11.2980737"><ele>723.0</ele><time>2026-03-28T08:53:58.966Z</time></trkpt><trkpt lat="44.0668887" lon="11.2981576"><ele>723.0</ele><time>2026-03-28T08:54:00.973Z</time></trkpt><trkpt lat="44.0668564" lon="11.298265"><ele>723.0</ele><time>2026-03-28T08:54:02.956Z</time></trkpt><trkpt lat="44.0668395" lon="11.2983526"><ele>723.0000000000001</ele><time>2026-03-28T08:54:04.966Z</time></trkpt><trkpt lat="44.0668332" lon="11.2984604"><ele>723.0</ele><time>2026-03-28T08:54:07.034Z</time></trkpt><trkpt lat="44.0668398" lon="11.2985767"><ele>722.8</ele><time>2026-03-28T08:54:09.038Z</time></trkpt><trkpt lat="44.0668465" lon="11.2986924"><ele>722.5999999999999</ele><time>2026-03-28T08:54:10.95Z</time></trkpt><trkpt lat="44.0668536" lon="11.2988136"><ele>722.4000000000001</ele><time>2026-03-28T08:54:12.962Z</time></trkpt><trkpt lat="44.0668641" lon="11.2989393"><ele>722.2</ele><time>2026-03-28T08:54:14.961Z</time></trkpt><trkpt lat="44.0668747" lon="11.2990849"><ele>722.0</ele><time>2026-03-28T08:54:16.962Z</time></trkpt><trkpt lat="44.0668928" lon="11.2992424"><ele>722.0</ele><time>2026-03-28T08:54:18.971Z</time></trkpt><trkpt lat="44.0669156" lon="11.2993885"><ele>722.0</ele><time>2026-03-28T08:54:20.973Z</time></trkpt><trkpt lat="44.0669257" lon="11.2995305"><ele>722.0</ele><time>2026-03-28T08:54:22.954Z</time></trkpt><trkpt lat="44.0669262" lon="11.2996747"><ele>722.0</ele><time>2026-03-28T08:54:24.976Z</time></trkpt><trkpt lat="44.0669242" lon="11.2998252"><ele>722.0</ele><time>2026-03-28T08:54:26.992Z</time></trkpt><trkpt lat="44.0669162" lon="11.2999565"><ele>724.0</ele><time>2026-03-28T08:54:28.969Z</time></trkpt><trkpt lat="44.0669055" lon="11.3000784"><ele>726.0</ele><time>2026-03-28T08:54:30.965Z</time></trkpt><trkpt lat="44.066915" lon="11.3002177"><ele>728.0</ele><time>2026-03-28T08:54:32.967Z</time></trkpt><trkpt lat="44.0669402" lon="11.3003519"><ele>730.0</ele><time>2026-03-28T08:54:35.025Z</time></trkpt><trkpt lat="44.0669677" lon="11.3004832"><ele>732.0</ele><time>2026-03-28T08:54:36.966Z</time></trkpt><trkpt lat="44.0670086" lon="11.3006097"><ele>734.1666666666666</ele><time>2026-03-28T08:54:39.026Z</time></trkpt><trkpt lat="44.0670402" lon="11.3007344"><ele>736.3333333333334</ele><time>2026-03-28T08:54:40.961Z</time></trkpt><trkpt lat="44.0670699" lon="11.3008528"><ele>738.5</ele><time>2026-03-28T08:54:42.968Z</time></trkpt><trkpt lat="44.0671051" lon="11.3009578"><ele>740.6666666666667</ele><time>2026-03-28T08:54:44.966Z</time></trkpt><trkpt lat="44.0671398" lon="11.3010584"><ele>742.8333333333334</ele><time>2026-03-28T08:54:47.023Z</time></trkpt><trkpt lat="44.0671522" lon="11.3011539"><ele>745.0</ele><time>2026-03-28T08:54:49.949Z</time></trkpt><trkpt lat="44.0671568" lon="11.3012451"><ele>745.0</ele><time>2026-03-28T08:54:51.967Z</time></trkpt><trkpt lat="44.0671402" lon="11.3013633"><ele>745.0</ele><time>2026-03-28T08:54:54.977Z</time></trkpt><trkpt lat="44.067131" lon="11.3014661"><ele>745.0</ele><time>2026-03-28T08:54:57.959Z</time></trkpt><trkpt lat="44.0671515" lon="11.3015745"><ele>745.0</ele><time>2026-03-28T08:55:00.945Z</time></trkpt><trkpt lat="44.0671868" lon="11.3016614"><ele>745.0</ele><time>2026-03-28T08:55:04.958Z</time></trkpt><trkpt lat="44.0672382" lon="11.3017611"><ele>745.0</ele><time>2026-03-28T08:55:08.956Z</time></trkpt><trkpt lat="44.067279" lon="11.3018542"><ele>747.8571428571429</ele><time>2026-03-28T08:55:12.961Z</time></trkpt><trkpt lat="44.0673026" lon="11.3019508"><ele>750.7142857142857</ele><time>2026-03-28T08:55:16.961Z</time></trkpt><trkpt lat="44.0673807" lon="11.3019945"><ele>753.5714285714287</ele><time>2026-03-28T08:55:58.952Z</time></trkpt><trkpt lat="44.0674257" lon="11.3020812"><ele>756.4285714285714</ele><time>2026-03-28T08:57:02.969Z</time></trkpt><trkpt lat="44.0674857" lon="11.3021254"><ele>759.2857142857143</ele><time>2026-03-28T08:57:11.967Z</time></trkpt><trkpt lat="44.0675478" lon="11.3021092"><ele>762.1428571428572</ele><time>2026-03-28T08:57:15.975Z</time></trkpt><trkpt lat="44.0676139" lon="11.3020985"><ele>765.0</ele><time>2026-03-28T08:57:18.978Z</time></trkpt><trkpt lat="44.0677021" lon="11.302081"><ele>766.0</ele><time>2026-03-28T08:57:21.977Z</time></trkpt><trkpt lat="44.0677837" lon="11.30208"><ele>767.0</ele><time>2026-03-28T08:57:24.974Z</time></trkpt><trkpt lat="44.0678388" lon="11.3021556"><ele>768.0</ele><time>2026-03-28T08:57:27.955Z</time></trkpt><trkpt lat="44.0678802" lon="11.3022504"><ele>769.0</ele><time>2026-03-28T08:57:30.97Z</time></trkpt><trkpt lat="44.0679187" lon="11.302335"><ele>770.0</ele><time>2026-03-28T08:57:32.974Z</time></trkpt><trkpt lat="44.0679675" lon="11.3024604"><ele>771.0</ele><time>2026-03-28T08:57:34.953Z</time></trkpt><trkpt lat="44.068029" lon="11.3025333"><ele>771.8333333333334</ele><time>2026-03-28T08:57:36.977Z</time></trkpt><trkpt lat="44.0680906" lon="11.3025788"><ele>772.6666666666667</ele><time>2026-03-28T08:57:38.979Z</time></trkpt><trkpt lat="44.0681394" lon="11.3026554"><ele>773.5</ele><time>2026-03-28T08:57:40.983Z</time></trkpt><trkpt lat="44.0681809" lon="11.3027363"><ele>774.3333333333334</ele><time>2026-03-28T08:57:42.973Z</time></trkpt><trkpt lat="44.0681995" lon="11.3028548"><ele>775.1666666666667</ele><time>2026-03-28T08:57:45.97Z</time></trkpt><trkpt lat="44.068193" lon="11.3029455"><ele>776.0</ele><time>2026-03-28T08:57:48.978Z</time></trkpt><trkpt lat="44.0681386" lon="11.3030319"><ele>779.6666666666667</ele><time>2026-03-28T08:57:51.976Z</time></trkpt><trkpt lat="44.0680886" lon="11.3030869"><ele>783.3333333333334</ele><time>2026-03-28T08:57:54.026Z</time></trkpt><trkpt lat="44.0680319" lon="11.3031367"><ele>787.0</ele><time>2026-03-28T08:57:55.984Z</time></trkpt><trkpt lat="44.0679591" lon="11.3031865"><ele>790.6666666666667</ele><time>2026-03-28T08:57:57.974Z</time></trkpt><trkpt lat="44.0678772" lon="11.3032538"><ele>794.3333333333334</ele><time>2026-03-28T08:57:59.949Z</time></trkpt><trkpt lat="44.0678198" lon="11.3033227"><ele>798.0</ele><time>2026-03-28T08:58:01.988Z</time></trkpt><trkpt lat="44.0677927" lon="11.3034168"><ele>798.0</ele><time>2026-03-28T08:58:03.975Z</time></trkpt><trkpt lat="44.0678192" lon="11.3035373"><ele>798.0</ele><time>2026-03-28T08:58:06.974Z</time></trkpt><trkpt lat="44.0678763" lon="11.3036264"><ele>798.0</ele><time>2026-03-28T08:58:10.032Z</time></trkpt><trkpt lat="44.067921" lon="11.3037324"><ele>798.0</ele><time>2026-03-28T08:58:12.992Z</time></trkpt><trkpt lat="44.0680052" lon="11.3037923"><ele>798.0</ele><time>2026-03-28T08:58:15.956Z</time></trkpt><trkpt lat="44.0680712" lon="11.3038246"><ele>798.0</ele><time>2026-03-28T08:58:18.024Z</time></trkpt><trkpt lat="44.0681353" lon="11.3038532"><ele>798.0</ele><time>2026-03-28T08:58:19.958Z</time></trkpt><trkpt lat="44.0681948" lon="11.3039039"><ele>798.0</ele><time>2026-03-28T08:58:22.032Z</time></trkpt><trkpt lat="44.0682443" lon="11.3039634"><ele>798.0</ele><time>2026-03-28T08:58:24.027Z</time></trkpt><trkpt lat="44.0683094" lon="11.3040567"><ele>798.0</ele><time>2026-03-28T08:58:26.969Z</time></trkpt><trkpt lat="44.0683567" lon="11.3041605"><ele>798.0</ele><time>2026-03-28T08:58:29.968Z</time></trkpt><trkpt lat="44.0684024" lon="11.3042807"><ele>798.0</ele><time>2026-03-28T08:58:32.968Z</time></trkpt><trkpt lat="44.0684348" lon="11.3043826"><ele>800.6666666666666</ele><time>2026-03-28T08:58:34.957Z</time></trkpt><trkpt lat="44.0684659" lon="11.3044776"><ele>803.3333333333333</ele><time>2026-03-28T08:58:36.958Z</time></trkpt><trkpt lat="44.068491" lon="11.3045685"><ele>806.0</ele><time>2026-03-28T08:58:38.96Z</time></trkpt><trkpt lat="44.0684844" lon="11.3046754"><ele>808.6666666666666</ele><time>2026-03-28T08:58:40.965Z</time></trkpt><trkpt lat="44.068477" lon="11.3047932"><ele>811.3333333333333</ele><time>2026-03-28T08:58:43.969Z</time></trkpt><trkpt lat="44.0684389" lon="11.3048928"><ele>814.0</ele><time>2026-03-28T08:58:50.969Z</time></trkpt><trkpt lat="44.068387" lon="11.3049442"><ele>815.8571428571429</ele><time>2026-03-28T08:59:23.966Z</time></trkpt><trkpt lat="44.0683278" lon="11.3049894"><ele>817.7142857142858</ele><time>2026-03-28T08:59:37.963Z</time></trkpt><trkpt lat="44.0683098" lon="11.305075"><ele>819.5714285714287</ele><time>2026-03-28T09:00:37.946Z</time></trkpt><trkpt lat="44.068267" lon="11.3050026"><ele>821.4285714285714</ele><time>2026-03-28T09:01:22.952Z</time></trkpt><trkpt lat="44.0682028" lon="11.3049398"><ele>823.2857142857142</ele><time>2026-03-28T09:01:27.957Z</time></trkpt><trkpt lat="44.0681351" lon="11.3048982"><ele>825.1428571428572</ele><time>2026-03-28T09:01:30.963Z</time></trkpt><trkpt lat="44.0680759" lon="11.3048649"><ele>827.0</ele><time>2026-03-28T09:01:32.956Z</time></trkpt><trkpt lat="44.0680049" lon="11.3048213"><ele>827.8571428571429</ele><time>2026-03-28T09:01:35.958Z</time></trkpt><trkpt lat="44.0679319" lon="11.3048042"><ele>828.7142857142857</ele><time>2026-03-28T09:01:38.94Z</time></trkpt><trkpt lat="44.0678487" lon="11.3047961"><ele>829.5714285714286</ele><time>2026-03-28T09:01:42.964Z</time></trkpt><trkpt lat="44.067779" lon="11.304803"><ele>830.4285714285714</ele><time>2026-03-28T09:01:45.958Z</time></trkpt><trkpt lat="44.067704" lon="11.304804"><ele>831.2857142857142</ele><time>2026-03-28T09:01:48.957Z</time></trkpt><trkpt lat="44.0676369" lon="11.3047886"><ele>832.1428571428571</ele><time>2026-03-28T09:01:51.961Z</time></trkpt><trkpt lat="44.0675659" lon="11.3047572"><ele>833.0</ele><time>2026-03-28T09:01:54.951Z</time></trkpt><trkpt lat="44.0674837" lon="11.3047369"><ele>832.8333333333334</ele><time>2026-03-28T09:01:57.95Z</time></trkpt><trkpt lat="44.0674121" lon="11.3047053"><ele>832.6666666666667</ele><time>2026-03-28T09:02:00.962Z</time></trkpt><trkpt lat="44.0673513" lon="11.3046685"><ele>832.5</ele><time>2026-03-28T09:02:03.974Z</time></trkpt><trkpt lat="44.0672906" lon="11.3046141"><ele>832.3333333333333</ele><time>2026-03-28T09:02:06.956Z</time></trkpt><trkpt lat="44.0672466" lon="11.3045272"><ele>832.1666666666666</ele><time>2026-03-28T09:02:09.956Z</time></trkpt><trkpt lat="44.0671946" lon="11.3044431"><ele>832.0</ele><time>2026-03-28T09:02:12.952Z</time></trkpt><trkpt lat="44.0671295" lon="11.3043589"><ele>831.9999999999999</ele><time>2026-03-28T09:02:15.952Z</time></trkpt><trkpt lat="44.0670723" lon="11.3043097"><ele>832.0</ele><time>2026-03-28T09:02:17.957Z</time></trkpt><trkpt lat="44.0670069" lon="11.3042539"><ele>832.0</ele><time>2026-03-28T09:02:19.954Z</time></trkpt><trkpt lat="44.0669242" lon="11.3041974"><ele>832.0</ele><time>2026-03-28T09:02:21.957Z</time></trkpt><trkpt lat="44.0668492" lon="11.3041525"><ele>831.9999999999999</ele><time>2026-03-28T09:02:23.964Z</time></trkpt><trkpt lat="44.0667737" lon="11.3041054"><ele>832.0</ele><time>2026-03-28T09:02:25.957Z</time></trkpt><trkpt lat="44.0667025" lon="11.3040475"><ele>832.0</ele><time>2026-03-28T09:02:27.953Z</time></trkpt><trkpt lat="44.0666341" lon="11.3040095"><ele>832.0</ele><time>2026-03-28T09:02:29.968Z</time></trkpt><trkpt lat="44.0665488" lon="11.3039879"><ele>832.0</ele><time>2026-03-28T09:02:32.957Z</time></trkpt><trkpt lat="44.0664889" lon="11.3040214"><ele>832.0</ele><time>2026-03-28T09:02:36.951Z</time></trkpt><trkpt lat="44.0665079" lon="11.3041248"><ele>832.0</ele><time>2026-03-28T09:02:44.949Z</time></trkpt><trkpt lat="44.0665325" lon="11.3042109"><ele>832.0</ele><time>2026-03-28T09:02:47.95Z</time></trkpt><trkpt lat="44.0665522" lon="11.3042975"><ele>832.0</ele><time>2026-03-28T09:02:49.959Z</time></trkpt><trkpt lat="44.0665418" lon="11.3044083"><ele>830.8</ele><time>2026-03-28T09:02:51.955Z</time></trkpt><trkpt lat="44.0665455" lon="11.3045498"><ele>829.6</ele><time>2026-03-28T09:02:53.943Z</time></trkpt><trkpt lat="44.0665307" lon="11.3046969"><ele>828.4</ele><time>2026-03-28T09:02:55.961Z</time></trkpt><trkpt lat="44.0665138" lon="11.3047847"><ele>827.1999999999999</ele><time>2026-03-28T09:02:56.947Z</time></trkpt><trkpt lat="44.066509" lon="11.3048824"><ele>826.0</ele><time>2026-03-28T09:02:57.967Z</time></trkpt><trkpt lat="44.066519" lon="11.305047"><ele>828.6666666666666</ele><time>2026-03-28T09:02:59.959Z</time></trkpt><trkpt lat="44.0665242" lon="11.3051605"><ele>831.3333333333333</ele><time>2026-03-28T09:03:01.961Z</time></trkpt><trkpt lat="44.0665298" lon="11.3052642"><ele>834.0</ele><time>2026-03-28T09:03:04.968Z</time></trkpt><trkpt lat="44.0665374" lon="11.3053909"><ele>836.6666666666667</ele><time>2026-03-28T09:03:07.974Z</time></trkpt><trkpt lat="44.066553" lon="11.3054762"><ele>839.3333333333334</ele><time>2026-03-28T09:03:09.966Z</time></trkpt><trkpt lat="44.0665375" lon="11.3055783"><ele>842.0</ele><time>2026-03-28T09:03:11.96Z</time></trkpt><trkpt lat="44.0665119" lon="11.3056788"><ele>844.1666666666667</ele><time>2026-03-28T09:03:13.962Z</time></trkpt><trkpt lat="44.0664883" lon="11.305793"><ele>846.3333333333334</ele><time>2026-03-28T09:03:16.973Z</time></trkpt><trkpt lat="44.0664755" lon="11.3059148"><ele>848.5</ele><time>2026-03-28T09:03:20.966Z</time></trkpt><trkpt lat="44.066458" lon="11.3060227"><ele>850.6666666666667</ele><time>2026-03-28T09:03:24.943Z</time></trkpt><trkpt lat="44.066428" lon="11.3061158"><ele>852.8333333333334</ele><time>2026-03-28T09:03:27.945Z</time></trkpt><trkpt lat="44.0664225" lon="11.3062369"><ele>855.0</ele><time>2026-03-28T09:03:30.946Z</time></trkpt><trkpt lat="44.0664213" lon="11.3063549"><ele>855.5714285714286</ele><time>2026-03-28T09:03:33.951Z</time></trkpt><trkpt lat="44.0664196" lon="11.3064441"><ele>856.1428571428571</ele><time>2026-03-28T09:03:38.946Z</time></trkpt><trkpt lat="44.0664301" lon="11.3065339"><ele>856.7142857142857</ele><time>2026-03-28T09:03:44.968Z</time></trkpt><trkpt lat="44.0664263" lon="11.3066474"><ele>857.2857142857142</ele><time>2026-03-28T09:03:48.962Z</time></trkpt><trkpt lat="44.0664022" lon="11.3067288"><ele>857.8571428571429</ele><time>2026-03-28T09:05:50.95Z</time></trkpt><trkpt lat="44.066417" lon="11.3068387"><ele>858.4285714285713</ele><time>2026-03-28T09:18:36.976Z</time></trkpt><trkpt lat="44.0664113" lon="11.3069367"><ele>859.0</ele><time>2026-03-28T09:18:40.972Z</time></trkpt><trkpt lat="44.0664275" lon="11.3070399"><ele>858.9999999999999</ele><time>2026-03-28T09:18:43.969Z</time></trkpt><trkpt lat="44.0664408" lon="11.3071589"><ele>859.0</ele><time>2026-03-28T09:18:46.977Z</time></trkpt><trkpt lat="44.0664471" lon="11.307258"><ele>859.0</ele><time>2026-03-28T09:18:48.968Z</time></trkpt><trkpt lat="44.06645" lon="11.3073549"><ele>859.0</ele><time>2026-03-28T09:18:50.967Z</time></trkpt><trkpt lat="44.0664675" lon="11.3074467"><ele>858.9999999999999</ele><time>2026-03-28T09:18:52.968Z</time></trkpt><trkpt lat="44.0665147" lon="11.3075542"><ele>859.0</ele><time>2026-03-28T09:18:55.973Z</time></trkpt><trkpt lat="44.0665655" lon="11.3076449"><ele>859.3333333333333</ele><time>2026-03-28T09:18:58.969Z</time></trkpt><trkpt lat="44.0665921" lon="11.3077411"><ele>859.6666666666666</ele><time>2026-03-28T09:19:01.962Z</time></trkpt><trkpt lat="44.0666218" lon="11.3078242"><ele>860.0</ele><time>2026-03-28T09:20:58.952Z</time></trkpt><trkpt lat="44.0666312" lon="11.3079171"><ele>860.3333333333333</ele><time>2026-03-28T09:21:11.954Z</time></trkpt><trkpt lat="44.0665978" lon="11.3080383"><ele>860.6666666666666</ele><time>2026-03-28T09:21:31.969Z</time></trkpt><trkpt lat="44.0666074" lon="11.3081249"><ele>861.0</ele><time>2026-03-28T09:21:40.95Z</time></trkpt><trkpt lat="44.0666699" lon="11.3080424"><ele>861.0</ele><time>2026-03-28T09:22:33.951Z</time></trkpt><trkpt lat="44.0666441" lon="11.307903"><ele>861.0</ele><time>2026-03-28T09:23:22.946Z</time></trkpt><trkpt lat="44.066639" lon="11.307795"><ele>861.0</ele><time>2026-03-28T09:24:25.949Z</time></trkpt><trkpt lat="44.0666614" lon="11.3078774"><ele>861.0</ele><time>2026-03-28T09:24:30.949Z</time></trkpt><trkpt lat="44.0666798" lon="11.3077909"><ele>861.0</ele><time>2026-03-28T09:24:50.958Z</time></trkpt><trkpt lat="44.0666341" lon="11.3077144"><ele>861.0</ele><time>2026-03-28T09:25:01.95Z</time></trkpt><trkpt lat="44.0665851" lon="11.307643"><ele>861.0</ele><time>2026-03-28T09:25:06.953Z</time></trkpt><trkpt lat="44.0665359" lon="11.3075659"><ele>861.0</ele><time>2026-03-28T09:25:10.963Z</time></trkpt><trkpt lat="44.0665019" lon="11.307484"><ele>861.0</ele><time>2026-03-28T09:25:13.966Z</time></trkpt><trkpt lat="44.0664865" lon="11.307379"><ele>861.0</ele><time>2026-03-28T09:25:16.969Z</time></trkpt><trkpt lat="44.0664722" lon="11.3072486"><ele>861.0</ele><time>2026-03-28T09:25:19.964Z</time></trkpt><trkpt lat="44.0664634" lon="11.3071614"><ele>861.0</ele><time>2026-03-28T09:25:21.972Z</time></trkpt><trkpt lat="44.0664585" lon="11.3070436"><ele>860.7142857142857</ele><time>2026-03-28T09:25:24.967Z</time></trkpt><trkpt lat="44.0664504" lon="11.3069544"><ele>860.4285714285714</ele><time>2026-03-28T09:25:26.962Z</time></trkpt><trkpt lat="44.0664411" lon="11.3068645"><ele>860.1428571428571</ele><time>2026-03-28T09:25:28.966Z</time></trkpt><trkpt lat="44.0664289" lon="11.3067749"><ele>859.8571428571429</ele><time>2026-03-28T09:25:30.972Z</time></trkpt><trkpt lat="44.0664156" lon="11.3066735"><ele>859.5714285714286</ele><time>2026-03-28T09:25:34.966Z</time></trkpt><trkpt lat="44.0664177" lon="11.3065676"><ele>859.2857142857142</ele><time>2026-03-28T09:25:41.951Z</time></trkpt><trkpt lat="44.0664218" lon="11.3064576"><ele>859.0</ele><time>2026-03-28T09:25:45.968Z</time></trkpt><trkpt lat="44.0664359" lon="11.3063707"><ele>858.4285714285713</ele><time>2026-03-28T09:25:48.973Z</time></trkpt><trkpt lat="44.066453" lon="11.3062758"><ele>857.8571428571429</ele><time>2026-03-28T09:25:51.953Z</time></trkpt><trkpt lat="44.0664616" lon="11.3061839"><ele>857.2857142857142</ele><time>2026-03-28T09:25:54.98Z</time></trkpt><trkpt lat="44.0664808" lon="11.3060799"><ele>856.7142857142857</ele><time>2026-03-28T09:25:58.969Z</time></trkpt><trkpt lat="44.0665035" lon="11.305997"><ele>856.1428571428571</ele><time>2026-03-28T09:26:01.974Z</time></trkpt><trkpt lat="44.0665225" lon="11.3059059"><ele>855.5714285714286</ele><time>2026-03-28T09:26:04.965Z</time></trkpt><trkpt lat="44.0665333" lon="11.3058138"><ele>855.0</ele><time>2026-03-28T09:26:07.957Z</time></trkpt><trkpt lat="44.0665406" lon="11.305696"><ele>855.0</ele><time>2026-03-28T09:26:11.956Z</time></trkpt><trkpt lat="44.066543" lon="11.3056012"><ele>855.0</ele><time>2026-03-28T09:26:15.949Z</time></trkpt><trkpt lat="44.0665335" lon="11.3054942"><ele>855.0</ele><time>2026-03-28T09:26:19.972Z</time></trkpt><trkpt lat="44.0665274" lon="11.3053942"><ele>855.0</ele><time>2026-03-28T09:26:23.969Z</time></trkpt><trkpt lat="44.066538" lon="11.3052823"><ele>855.0</ele><time>2026-03-28T09:26:27.984Z</time></trkpt><trkpt lat="44.066548" lon="11.3051711"><ele>855.0</ele><time>2026-03-28T09:26:30.971Z</time></trkpt><trkpt lat="44.0665216" lon="11.3050026"><ele>852.8333333333334</ele><time>2026-03-28T09:26:32.956Z</time></trkpt><trkpt lat="44.0665087" lon="11.3049077"><ele>850.6666666666667</ele><time>2026-03-28T09:26:33.967Z</time></trkpt><trkpt lat="44.0664974" lon="11.3048144"><ele>848.5</ele><time>2026-03-28T09:26:34.968Z</time></trkpt><trkpt lat="44.0664889" lon="11.3047249"><ele>846.3333333333334</ele><time>2026-03-28T09:26:35.956Z</time></trkpt><trkpt lat="44.0664781" lon="11.3045587"><ele>844.1666666666667</ele><time>2026-03-28T09:26:37.977Z</time></trkpt><trkpt lat="44.0664568" lon="11.3044068"><ele>842.0</ele><time>2026-03-28T09:26:39.953Z</time></trkpt><trkpt lat="44.0664374" lon="11.3042789"><ele>839.3333333333334</ele><time>2026-03-28T09:26:41.95Z</time></trkpt><trkpt lat="44.0664183" lon="11.3041635"><ele>836.6666666666667</ele><time>2026-03-28T09:26:43.975Z</time></trkpt><trkpt lat="44.0663915" lon="11.3040634"><ele>834.0</ele><time>2026-03-28T09:26:45.978Z</time></trkpt><trkpt lat="44.0663588" lon="11.3039664"><ele>831.3333333333333</ele><time>2026-03-28T09:26:47.978Z</time></trkpt><trkpt lat="44.0663275" lon="11.3038872"><ele>828.6666666666666</ele><time>2026-03-28T09:26:49.974Z</time></trkpt><trkpt lat="44.0662996" lon="11.303778"><ele>826.0</ele><time>2026-03-28T09:26:52.967Z</time></trkpt><trkpt lat="44.0663284" lon="11.303693"><ele>825.3333333333333</ele><time>2026-03-28T09:26:55.981Z</time></trkpt><trkpt lat="44.0663815" lon="11.3036329"><ele>824.6666666666666</ele><time>2026-03-28T09:26:58.972Z</time></trkpt><trkpt lat="44.0664491" lon="11.3036436"><ele>824.0</ele><time>2026-03-28T09:27:01.959Z</time></trkpt><trkpt lat="44.0665155" lon="11.303679"><ele>823.3333333333333</ele><time>2026-03-28T09:27:04.983Z</time></trkpt><trkpt lat="44.0665996" lon="11.3037355"><ele>822.6666666666666</ele><time>2026-03-28T09:27:07.964Z</time></trkpt><trkpt lat="44.0666648" lon="11.30378"><ele>822.0</ele><time>2026-03-28T09:27:09.976Z</time></trkpt><trkpt lat="44.0667276" lon="11.3038503"><ele>822.0</ele><time>2026-03-28T09:27:11.976Z</time></trkpt><trkpt lat="44.0667933" lon="11.3039125"><ele>822.0</ele><time>2026-03-28T09:27:13.966Z</time></trkpt><trkpt lat="44.0668502" lon="11.3039694"><ele>822.0</ele><time>2026-03-28T09:27:15.968Z</time></trkpt><trkpt lat="44.0669082" lon="11.3040153"><ele>822.0</ele><time>2026-03-28T09:27:17.977Z</time></trkpt><trkpt lat="44.0669594" lon="11.3040707"><ele>822.0</ele><time>2026-03-28T09:27:19.987Z</time></trkpt><trkpt lat="44.0670218" lon="11.3041562"><ele>822.0</ele><time>2026-03-28T09:27:22.974Z</time></trkpt><trkpt lat="44.0670417" lon="11.3042489"><ele>822.0</ele><time>2026-03-28T09:27:24.962Z</time></trkpt><trkpt lat="44.0670899" lon="11.3043291"><ele>821.8333333333334</ele><time>2026-03-28T09:27:27.976Z</time></trkpt><trkpt lat="44.0671418" lon="11.3043925"><ele>821.6666666666667</ele><time>2026-03-28T09:27:29.971Z</time></trkpt><trkpt lat="44.067192" lon="11.3044545"><ele>821.5</ele><time>2026-03-28T09:27:31.973Z</time></trkpt><trkpt lat="44.0672626" lon="11.304527"><ele>821.3333333333334</ele><time>2026-03-28T09:27:34.956Z</time></trkpt><trkpt lat="44.0673159" lon="11.3045737"><ele>821.1666666666667</ele><time>2026-03-28T09:27:36.974Z</time></trkpt><trkpt lat="44.0673935" lon="11.3046371"><ele>821.0</ele><time>2026-03-28T09:27:40.965Z</time></trkpt><trkpt lat="44.0674787" lon="11.3046843"><ele>821.0000000000001</ele><time>2026-03-28T09:27:43.977Z</time></trkpt><trkpt lat="44.0675898" lon="11.3047281"><ele>821.0</ele><time>2026-03-28T09:27:49.972Z</time></trkpt><trkpt lat="44.0676395" lon="11.3047834"><ele>821.0</ele><time>2026-03-28T09:27:51.972Z</time></trkpt><trkpt lat="44.0677141" lon="11.3048529"><ele>821.0</ele><time>2026-03-28T09:27:53.983Z</time></trkpt><trkpt lat="44.0677934" lon="11.3049241"><ele>821.0000000000001</ele><time>2026-03-28T09:27:55.968Z</time></trkpt><trkpt lat="44.0678567" lon="11.3049719"><ele>821.0</ele><time>2026-03-28T09:27:57.968Z</time></trkpt><trkpt lat="44.0679524" lon="11.3049955"><ele>822.0000000000001</ele><time>2026-03-28T09:28:00.967Z</time></trkpt><trkpt lat="44.0680205" lon="11.3050129"><ele>823.0</ele><time>2026-03-28T09:28:02.972Z</time></trkpt><trkpt lat="44.0681114" lon="11.3050162"><ele>824.0</ele><time>2026-03-28T09:28:05.974Z</time></trkpt><trkpt lat="44.0682075" lon="11.3049814"><ele>825.0</ele><time>2026-03-28T09:28:08.97Z</time></trkpt><trkpt lat="44.0682748" lon="11.3049116"><ele>826.0000000000001</ele><time>2026-03-28T09:28:13.972Z</time></trkpt><trkpt lat="44.0683207" lon="11.3048438"><ele>827.0</ele><time>2026-03-28T09:28:14.982Z</time></trkpt><trkpt lat="44.0683544" lon="11.3046694"><ele>826.0000000000001</ele><time>2026-03-28T09:28:20.974Z</time></trkpt><trkpt lat="44.0683606" lon="11.3045246"><ele>825.0</ele><time>2026-03-28T09:28:26.97Z</time></trkpt><trkpt lat="44.068339" lon="11.3044265"><ele>824.0</ele><time>2026-03-28T09:28:30.976Z</time></trkpt><trkpt lat="44.0683113" lon="11.3043324"><ele>823.0</ele><time>2026-03-28T09:28:34.969Z</time></trkpt><trkpt lat="44.0682497" lon="11.3042751"><ele>822.0000000000001</ele><time>2026-03-28T09:28:37.979Z</time></trkpt><trkpt lat="44.0681853" lon="11.3042445"><ele>821.0</ele><time>2026-03-28T09:28:40.964Z</time></trkpt><trkpt lat="44.0681225" lon="11.3042366"><ele>821.0000000000001</ele><time>2026-03-28T09:28:43.978Z</time></trkpt><trkpt lat="44.0680351" lon="11.3042333"><ele>821.0</ele><time>2026-03-28T09:28:47.964Z</time></trkpt><trkpt lat="44.0679642" lon="11.3042137"><ele>821.0</ele><time>2026-03-28T09:28:51.967Z</time></trkpt><trkpt lat="44.0679071" lon="11.3041573"><ele>821.0</ele><time>2026-03-28T09:28:55.985Z</time></trkpt><trkpt lat="44.0679193" lon="11.3040633"><ele>821.0000000000001</ele><time>2026-03-28T09:28:58.969Z</time></trkpt><trkpt lat="44.0679747" lon="11.303963"><ele>821.0</ele><time>2026-03-28T09:29:01.956Z</time></trkpt><trkpt lat="44.0680239" lon="11.3038707"><ele>817.1666666666667</ele><time>2026-03-28T09:29:04.97Z</time></trkpt><trkpt lat="44.0680686" lon="11.3037858"><ele>813.3333333333334</ele><time>2026-03-28T09:29:08.972Z</time></trkpt><trkpt lat="44.0681306" lon="11.3037025"><ele>809.5</ele><time>2026-03-28T09:29:11.968Z</time></trkpt><trkpt lat="44.0682028" lon="11.3036238"><ele>805.6666666666667</ele><time>2026-03-28T09:29:14.979Z</time></trkpt><trkpt lat="44.068242" lon="11.303532"><ele>801.8333333333334</ele><time>2026-03-28T09:29:17.968Z</time></trkpt><trkpt lat="44.0682427" lon="11.3034382"><ele>798.0</ele><time>2026-03-28T09:29:20.975Z</time></trkpt><trkpt lat="44.0682024" lon="11.3033271"><ele>798.0</ele><time>2026-03-28T09:29:24.977Z</time></trkpt><trkpt lat="44.0681542" lon="11.3032656"><ele>798.0</ele><time>2026-03-28T09:29:27.966Z</time></trkpt><trkpt lat="44.0680994" lon="11.3032211"><ele>798.0</ele><time>2026-03-28T09:29:29.967Z</time></trkpt><trkpt lat="44.068058" lon="11.3031333"><ele>798.0</ele><time>2026-03-28T09:29:32.963Z</time></trkpt><trkpt lat="44.0680797" lon="11.3030478"><ele>798.0</ele><time>2026-03-28T09:29:34.968Z</time></trkpt><trkpt lat="44.0681027" lon="11.3029626"><ele>798.0</ele><time>2026-03-28T09:29:36.958Z</time></trkpt><trkpt lat="44.068121" lon="11.3028785"><ele>798.0</ele><time>2026-03-28T09:29:38.983Z</time></trkpt><trkpt lat="44.0680951" lon="11.3027942"><ele>794.3333333333334</ele><time>2026-03-28T09:29:41.955Z</time></trkpt><trkpt lat="44.0680216" lon="11.3027025"><ele>790.6666666666667</ele><time>2026-03-28T09:29:44.978Z</time></trkpt><trkpt lat="44.0679606" lon="11.3026503"><ele>787.0</ele><time>2026-03-28T09:29:46.975Z</time></trkpt><trkpt lat="44.0679005" lon="11.3026125"><ele>783.3333333333334</ele><time>2026-03-28T09:29:48.968Z</time></trkpt><trkpt lat="44.067839" lon="11.3025783"><ele>779.6666666666667</ele><time>2026-03-28T09:29:50.956Z</time></trkpt><trkpt lat="44.0677779" lon="11.3025485"><ele>776.0</ele><time>2026-03-28T09:29:52.982Z</time></trkpt><trkpt lat="44.0676912" lon="11.3025027"><ele>776.0000000000001</ele><time>2026-03-28T09:29:55.97Z</time></trkpt><trkpt lat="44.0676177" lon="11.3024626"><ele>776.0</ele><time>2026-03-28T09:29:58.968Z</time></trkpt><trkpt lat="44.0675647" lon="11.3024136"><ele>776.0</ele><time>2026-03-28T09:30:00.95Z</time></trkpt><trkpt lat="44.0674977" lon="11.3023255"><ele>776.0</ele><time>2026-03-28T09:30:03.974Z</time></trkpt><trkpt lat="44.067436" lon="11.3022623"><ele>776.0000000000001</ele><time>2026-03-28T09:30:06.953Z</time></trkpt><trkpt lat="44.0673795" lon="11.3021755"><ele>776.0</ele><time>2026-03-28T09:30:09.957Z</time></trkpt><trkpt lat="44.0673357" lon="11.3020949"><ele>774.1666666666667</ele><time>2026-03-28T09:30:12.957Z</time></trkpt><trkpt lat="44.0673179" lon="11.3019933"><ele>772.3333333333334</ele><time>2026-03-28T09:30:15.97Z</time></trkpt><trkpt lat="44.0673171" lon="11.3018751"><ele>770.5</ele><time>2026-03-28T09:30:18.96Z</time></trkpt><trkpt lat="44.0673156" lon="11.301765"><ele>768.6666666666667</ele><time>2026-03-28T09:30:20.964Z</time></trkpt><trkpt lat="44.0672899" lon="11.3016411"><ele>766.8333333333334</ele><time>2026-03-28T09:30:22.966Z</time></trkpt><trkpt lat="44.0672637" lon="11.3015169"><ele>765.0</ele><time>2026-03-28T09:30:23.968Z</time></trkpt><trkpt lat="44.0672248" lon="11.3013578"><ele>761.6666666666666</ele><time>2026-03-28T09:30:24.961Z</time></trkpt><trkpt lat="44.0671889" lon="11.3012449"><ele>758.3333333333334</ele><time>2026-03-28T09:30:25.976Z</time></trkpt><trkpt lat="44.0671665" lon="11.3011398"><ele>755.0</ele><time>2026-03-28T09:30:26.97Z</time></trkpt><trkpt lat="44.0671384" lon="11.3010523"><ele>751.6666666666667</ele><time>2026-03-28T09:30:27.955Z</time></trkpt><trkpt lat="44.0671087" lon="11.3009615"><ele>748.3333333333334</ele><time>2026-03-28T09:30:28.962Z</time></trkpt><trkpt lat="44.0670812" lon="11.3008652"><ele>745.0</ele><time>2026-03-28T09:30:29.98Z</time></trkpt><trkpt lat="44.0670536" lon="11.3007541"><ele>745.0</ele><time>2026-03-28T09:30:30.96Z</time></trkpt><trkpt lat="44.0670267" lon="11.3006637"><ele>745.0</ele><time>2026-03-28T09:30:31.978Z</time></trkpt><trkpt lat="44.066999" lon="11.3005765"><ele>745.0</ele><time>2026-03-28T09:30:32.972Z</time></trkpt><trkpt lat="44.0669744" lon="11.3004902"><ele>745.0</ele><time>2026-03-28T09:30:33.971Z</time></trkpt><trkpt lat="44.0669538" lon="11.3003386"><ele>745.0</ele><time>2026-03-28T09:30:35.962Z</time></trkpt><trkpt lat="44.0669507" lon="11.3001862"><ele>745.0</ele><time>2026-03-28T09:30:37.965Z</time></trkpt><trkpt lat="44.06696" lon="11.3000394"><ele>743.1428571428571</ele><time>2026-03-28T09:30:39.961Z</time></trkpt><trkpt lat="44.0669688" lon="11.2999109"><ele>741.2857142857142</ele><time>2026-03-28T09:30:41.969Z</time></trkpt><trkpt lat="44.0669764" lon="11.2998016"><ele>739.4285714285714</ele><time>2026-03-28T09:30:43.97Z</time></trkpt><trkpt lat="44.0669766" lon="11.2997081"><ele>737.5714285714286</ele><time>2026-03-28T09:30:45.976Z</time></trkpt><trkpt lat="44.0669746" lon="11.2996132"><ele>735.7142857142858</ele><time>2026-03-28T09:30:47.969Z</time></trkpt><trkpt lat="44.0669653" lon="11.2995223"><ele>733.8571428571429</ele><time>2026-03-28T09:30:49.968Z</time></trkpt><trkpt lat="44.0669536" lon="11.2994278"><ele>732.0</ele><time>2026-03-28T09:30:51.959Z</time></trkpt><trkpt lat="44.0669402" lon="11.2993163"><ele>730.3333333333334</ele><time>2026-03-28T09:30:53.965Z</time></trkpt><trkpt lat="44.0669317" lon="11.299194"><ele>728.6666666666666</ele><time>2026-03-28T09:30:55.963Z</time></trkpt><trkpt lat="44.0669071" lon="11.2990759"><ele>727.0</ele><time>2026-03-28T09:30:57.973Z</time></trkpt><trkpt lat="44.0668974" lon="11.2989704"><ele>725.3333333333333</ele><time>2026-03-28T09:30:59.962Z</time></trkpt><trkpt lat="44.0668977" lon="11.298862"><ele>723.6666666666666</ele><time>2026-03-28T09:31:01.961Z</time></trkpt><trkpt lat="44.0669026" lon="11.2987647"><ele>722.0</ele><time>2026-03-28T09:31:03.953Z</time></trkpt><trkpt lat="44.0669184" lon="11.2986761"><ele>722.0</ele><time>2026-03-28T09:31:05.968Z</time></trkpt><trkpt lat="44.0669336" lon="11.298567"><ele>722.0</ele><time>2026-03-28T09:31:07.978Z</time></trkpt><trkpt lat="44.0669585" lon="11.2984379"><ele>722.0</ele><time>2026-03-28T09:31:09.964Z</time></trkpt><trkpt lat="44.0669753" lon="11.2983128"><ele>722.0</ele><time>2026-03-28T09:31:12.972Z</time></trkpt><trkpt lat="44.0669802" lon="11.2981871"><ele>722.0</ele><time>2026-03-28T09:31:15.974Z</time></trkpt><trkpt lat="44.0669593" lon="11.2981025"><ele>722.0</ele><time>2026-03-28T09:31:17.971Z</time></trkpt><trkpt lat="44.066945" lon="11.2980115"><ele>722.2</ele><time>2026-03-28T09:31:19.962Z</time></trkpt><trkpt lat="44.066929" lon="11.2978639"><ele>722.4000000000001</ele><time>2026-03-28T09:31:24.966Z</time></trkpt><trkpt lat="44.0669086" lon="11.2977632"><ele>722.5999999999999</ele><time>2026-03-28T09:31:26.98Z</time></trkpt><trkpt lat="44.0669048" lon="11.2976441"><ele>722.8</ele><time>2026-03-28T09:31:28.976Z</time></trkpt><trkpt lat="44.0669042" lon="11.2974866"><ele>723.0</ele><time>2026-03-28T09:31:30.973Z</time></trkpt><trkpt lat="44.0668967" lon="11.2973817"><ele>723.0</ele><time>2026-03-28T09:31:31.969Z</time></trkpt><trkpt lat="44.0668849" lon="11.297273"><ele>723.0</ele><time>2026-03-28T09:31:32.968Z</time></trkpt><trkpt lat="44.06687" lon="11.2971543"><ele>723.0</ele><time>2026-03-28T09:31:33.978Z</time></trkpt><trkpt lat="44.0668526" lon="11.2970255"><ele>723.0</ele><time>2026-03-28T09:31:34.958Z</time></trkpt><trkpt lat="44.0668509" lon="11.2969265"><ele>723.0</ele><time>2026-03-28T09:31:35.977Z</time></trkpt><trkpt lat="44.0668517" lon="11.2968184"><ele>723.0</ele><time>2026-03-28T09:31:36.969Z</time></trkpt><trkpt lat="44.066847" lon="11.2967114"><ele>721.8333333333334</ele><time>2026-03-28T09:31:37.966Z</time></trkpt><trkpt lat="44.0668389" lon="11.2965949"><ele>720.6666666666666</ele><time>2026-03-28T09:31:38.964Z</time></trkpt><trkpt lat="44.0668296" lon="11.2964874"><ele>719.5</ele><time>2026-03-28T09:31:39.965Z</time></trkpt><trkpt lat="44.0668323" lon="11.2963824"><ele>718.3333333333333</ele><time>2026-03-28T09:31:40.963Z</time></trkpt><trkpt lat="44.0668249" lon="11.2962887"><ele>717.1666666666666</ele><time>2026-03-28T09:31:41.975Z</time></trkpt><trkpt lat="44.0668143" lon="11.2961978"><ele>716.0</ele><time>2026-03-28T09:31:42.966Z</time></trkpt><trkpt lat="44.0667952" lon="11.2960442"><ele>715.6666666666666</ele><time>2026-03-28T09:31:44.968Z</time></trkpt><trkpt lat="44.0667687" lon="11.2959528"><ele>715.3333333333333</ele><time>2026-03-28T09:31:46.964Z</time></trkpt><trkpt lat="44.0667728" lon="11.2958489"><ele>715.0</ele><time>2026-03-28T09:31:48.967Z</time></trkpt><trkpt lat="44.0667766" lon="11.2957431"><ele>714.6666666666666</ele><time>2026-03-28T09:31:50.974Z</time></trkpt><trkpt lat="44.0667926" lon="11.295604"><ele>714.3333333333334</ele><time>2026-03-28T09:31:53.975Z</time></trkpt><trkpt lat="44.0668117" lon="11.2955145"><ele>714.0</ele><time>2026-03-28T09:31:55.971Z</time></trkpt><trkpt lat="44.0668401" lon="11.2954241"><ele>711.6666666666666</ele><time>2026-03-28T09:31:57.976Z</time></trkpt><trkpt lat="44.0668772" lon="11.2953292"><ele>709.3333333333334</ele><time>2026-03-28T09:31:59.979Z</time></trkpt><trkpt lat="44.06692" lon="11.2952426"><ele>707.0</ele><time>2026-03-28T09:32:01.966Z</time></trkpt><trkpt lat="44.0668949" lon="11.2951302"><ele>704.6666666666667</ele><time>2026-03-28T09:32:04.965Z</time></trkpt><trkpt lat="44.0668066" lon="11.2950742"><ele>702.3333333333334</ele><time>2026-03-28T09:32:07.971Z</time></trkpt><trkpt lat="44.0667191" lon="11.2950397"><ele>700.0</ele><time>2026-03-28T09:32:09.984Z</time></trkpt><trkpt lat="44.0666517" lon="11.2950203"><ele>699.8</ele><time>2026-03-28T09:32:11.977Z</time></trkpt><trkpt lat="44.0665503" lon="11.2950031"><ele>699.6</ele><time>2026-03-28T09:32:13.971Z</time></trkpt><trkpt lat="44.0664354" lon="11.2949729"><ele>699.4000000000001</ele><time>2026-03-28T09:32:15.976Z</time></trkpt><trkpt lat="44.0663495" lon="11.2949469"><ele>699.2</ele><time>2026-03-28T09:32:17.979Z</time></trkpt><trkpt lat="44.0662619" lon="11.2949231"><ele>699.0</ele><time>2026-03-28T09:32:19.962Z</time></trkpt><trkpt lat="44.0661562" lon="11.2948828"><ele>699.0</ele><time>2026-03-28T09:32:21.952Z</time></trkpt><trkpt lat="44.0660719" lon="11.2948871"><ele>699.0</ele><time>2026-03-28T09:32:23.971Z</time></trkpt><trkpt lat="44.0659875" lon="11.2948899"><ele>699.0</ele><time>2026-03-28T09:32:25.976Z</time></trkpt><trkpt lat="44.0658939" lon="11.2948753"><ele>699.0</ele><time>2026-03-28T09:32:27.97Z</time></trkpt><trkpt lat="44.0658165" lon="11.2948497"><ele>699.0</ele><time>2026-03-28T09:32:29.977Z</time></trkpt><trkpt lat="44.0657421" lon="11.2948326"><ele>699.0</ele><time>2026-03-28T09:32:31.973Z</time></trkpt><trkpt lat="44.0656606" lon="11.2948112"><ele>694.4000000000001</ele><time>2026-03-28T09:32:33.992Z</time></trkpt><trkpt lat="44.065576" lon="11.2947885"><ele>689.8</ele><time>2026-03-28T09:32:35.977Z</time></trkpt><trkpt lat="44.0654818" lon="11.2947489"><ele>685.2</ele><time>2026-03-28T09:32:37.979Z</time></trkpt><trkpt lat="44.0654183" lon="11.2947098"><ele>680.5999999999999</ele><time>2026-03-28T09:32:38.961Z</time></trkpt><trkpt lat="44.0653095" lon="11.2946546"><ele>676.0</ele><time>2026-03-28T09:32:40.96Z</time></trkpt><trkpt lat="44.0652102" lon="11.2946108"><ele>675.1666666666667</ele><time>2026-03-28T09:32:42.967Z</time></trkpt><trkpt lat="44.0651174" lon="11.2945649"><ele>674.3333333333334</ele><time>2026-03-28T09:32:44.974Z</time></trkpt><trkpt lat="44.0650505" lon="11.2945425"><ele>673.5</ele><time>2026-03-28T09:32:46.975Z</time></trkpt><trkpt lat="44.0649825" lon="11.2945186"><ele>672.6666666666666</ele><time>2026-03-28T09:32:48.968Z</time></trkpt><trkpt lat="44.0649037" lon="11.2944966"><ele>671.8333333333333</ele><time>2026-03-28T09:32:50.976Z</time></trkpt><trkpt lat="44.064826" lon="11.2944781"><ele>671.0</ele><time>2026-03-28T09:32:52.974Z</time></trkpt><trkpt lat="44.064762" lon="11.2944541"><ele>669.1428571428571</ele><time>2026-03-28T09:32:54.97Z</time></trkpt><trkpt lat="44.0646967" lon="11.2944285"><ele>667.2857142857143</ele><time>2026-03-28T09:32:56.982Z</time></trkpt><trkpt lat="44.0646263" lon="11.294394"><ele>665.4285714285714</ele><time>2026-03-28T09:32:58.959Z</time></trkpt><trkpt lat="44.0645584" lon="11.294364"><ele>663.5714285714286</ele><time>2026-03-28T09:33:00.97Z</time></trkpt><trkpt lat="44.0644867" lon="11.2943449"><ele>661.7142857142858</ele><time>2026-03-28T09:33:02.964Z</time></trkpt><trkpt lat="44.0644238" lon="11.2943226"><ele>659.8571428571429</ele><time>2026-03-28T09:33:04.964Z</time></trkpt><trkpt lat="44.0643593" lon="11.2943023"><ele>658.0</ele><time>2026-03-28T09:33:06.979Z</time></trkpt><trkpt lat="44.0642696" lon="11.2942738"><ele>658.0</ele><time>2026-03-28T09:33:09.967Z</time></trkpt><trkpt lat="44.0641909" lon="11.294228"><ele>658.0</ele><time>2026-03-28T09:33:11.978Z</time></trkpt><trkpt lat="44.0640831" lon="11.2941504"><ele>658.0</ele><time>2026-03-28T09:33:13.962Z</time></trkpt><trkpt lat="44.0640314" lon="11.294095"><ele>658.0</ele><time>2026-03-28T09:33:14.97Z</time></trkpt><trkpt lat="44.0639689" lon="11.2939903"><ele>658.0</ele><time>2026-03-28T09:33:16.976Z</time></trkpt><trkpt lat="44.0639345" lon="11.293913"><ele>658.0</ele><time>2026-03-28T09:33:18.966Z</time></trkpt><trkpt lat="44.06389" lon="11.293835"><ele>656.5</ele><time>2026-03-28T09:33:20.97Z</time></trkpt><trkpt lat="44.0638156" lon="11.2937532"><ele>655.0</ele><time>2026-03-28T09:33:22.968Z</time></trkpt><trkpt lat="44.0637442" lon="11.2936742"><ele>653.5</ele><time>2026-03-28T09:33:24.968Z</time></trkpt><trkpt lat="44.0636973" lon="11.2936048"><ele>652.0</ele><time>2026-03-28T09:33:25.977Z</time></trkpt><trkpt lat="44.0636436" lon="11.2935411"><ele>650.5</ele><time>2026-03-28T09:33:26.985Z</time></trkpt><trkpt lat="44.0635836" lon="11.2934803"><ele>649.0</ele><time>2026-03-28T09:33:27.975Z</time></trkpt><trkpt lat="44.0635311" lon="11.2934229"><ele>649.0</ele><time>2026-03-28T09:33:28.985Z</time></trkpt><trkpt lat="44.0634702" lon="11.2933798"><ele>649.0</ele><time>2026-03-28T09:33:29.972Z</time></trkpt><trkpt lat="44.063398" lon="11.2933456"><ele>649.0</ele><time>2026-03-28T09:33:30.969Z</time></trkpt><trkpt lat="44.0633279" lon="11.2933157"><ele>649.0</ele><time>2026-03-28T09:33:31.973Z</time></trkpt><trkpt lat="44.0632656" lon="11.2932942"><ele>649.0</ele><time>2026-03-28T09:33:32.975Z</time></trkpt><trkpt lat="44.0631938" lon="11.2932932"><ele>649.0</ele><time>2026-03-28T09:33:33.977Z</time></trkpt><trkpt lat="44.063092" lon="11.29329"><ele>648.8333333333334</ele><time>2026-03-28T09:33:35.978Z</time></trkpt><trkpt lat="44.0630243" lon="11.2932824"><ele>648.6666666666667</ele><time>2026-03-28T09:33:38.968Z</time></trkpt><trkpt lat="44.0630984" lon="11.2932692"><ele>648.5</ele><time>2026-03-28T09:35:22.994Z</time></trkpt><trkpt lat="44.0631716" lon="11.2932553"><ele>648.3333333333334</ele><time>2026-03-28T09:35:26.991Z</time></trkpt><trkpt lat="44.063213" lon="11.2931859"><ele>648.1666666666666</ele><time>2026-03-28T09:35:28.992Z</time></trkpt><trkpt lat="44.0632227" lon="11.2930702"><ele>648.0</ele><time>2026-03-28T09:35:31.99Z</time></trkpt><trkpt lat="44.0632274" lon="11.2929297"><ele>647.6666666666666</ele><time>2026-03-28T09:35:35.007Z</time></trkpt><trkpt lat="44.0632441" lon="11.2928251"><ele>647.3333333333334</ele><time>2026-03-28T09:35:36.993Z</time></trkpt><trkpt lat="44.063267" lon="11.2927217"><ele>647.0</ele><time>2026-03-28T09:35:38.997Z</time></trkpt><trkpt lat="44.0632843" lon="11.292637"><ele>646.6666666666667</ele><time>2026-03-28T09:35:40.994Z</time></trkpt><trkpt lat="44.0632956" lon="11.2925195"><ele>646.3333333333334</ele><time>2026-03-28T09:35:43.992Z</time></trkpt><trkpt lat="44.0633071" lon="11.2923947"><ele>646.0</ele><time>2026-03-28T09:35:46.997Z</time></trkpt><trkpt lat="44.0633323" lon="11.2922727"><ele>645.8571428571429</ele><time>2026-03-28T09:35:49.993Z</time></trkpt><trkpt lat="44.0633528" lon="11.2921477"><ele>645.7142857142858</ele><time>2026-03-28T09:35:52.995Z</time></trkpt><trkpt lat="44.0633606" lon="11.292043"><ele>645.5714285714287</ele><time>2026-03-28T09:35:55.996Z</time></trkpt><trkpt lat="44.0633801" lon="11.2919519"><ele>645.4285714285714</ele><time>2026-03-28T09:35:58.994Z</time></trkpt><trkpt lat="44.063408" lon="11.2918728"><ele>645.2857142857142</ele><time>2026-03-28T09:36:01.992Z</time></trkpt><trkpt lat="44.0634492" lon="11.291784"><ele>645.1428571428572</ele><time>2026-03-28T09:36:04.991Z</time></trkpt><trkpt lat="44.0634915" lon="11.2917026"><ele>645.0</ele><time>2026-03-28T09:36:07.99Z</time></trkpt><trkpt lat="44.0635367" lon="11.2916109"><ele>645.0</ele><time>2026-03-28T09:36:10.999Z</time></trkpt><trkpt lat="44.0635765" lon="11.2915237"><ele>645.0</ele><time>2026-03-28T09:36:13.989Z</time></trkpt><trkpt lat="44.0636221" lon="11.291421"><ele>645.0</ele><time>2026-03-28T09:36:16.992Z</time></trkpt><trkpt lat="44.0636493" lon="11.2913217"><ele>645.0</ele><time>2026-03-28T09:37:24.008Z</time></trkpt><trkpt lat="44.0637105" lon="11.2912924"><ele>645.0</ele><time>2026-03-28T09:37:28.014Z</time></trkpt><trkpt lat="44.0637666" lon="11.2913331"><ele>645.0</ele><time>2026-03-28T09:37:33.012Z</time></trkpt><trkpt lat="44.0638218" lon="11.2914021"><ele>645.0</ele><time>2026-03-28T09:37:38.011Z</time></trkpt><trkpt lat="44.0638871" lon="11.2914447"><ele>645.0</ele><time>2026-03-28T09:37:41.006Z</time></trkpt><trkpt lat="44.0639453" lon="11.2914825"><ele>645.0</ele><time>2026-03-28T09:37:43.011Z</time></trkpt><trkpt lat="44.0640077" lon="11.2915246"><ele>645.0</ele><time>2026-03-28T09:37:45.005Z</time></trkpt><trkpt lat="44.0640725" lon="11.2915902"><ele>645.0</ele><time>2026-03-28T09:37:47.004Z</time></trkpt><trkpt lat="44.0641375" lon="11.2916287"><ele>645.0</ele><time>2026-03-28T09:37:48.992Z</time></trkpt><trkpt lat="44.0641994" lon="11.291674"><ele>645.0</ele><time>2026-03-28T09:37:51.013Z</time></trkpt><trkpt lat="44.0642719" lon="11.2917362"><ele>645.0</ele><time>2026-03-28T09:37:53.021Z</time></trkpt><trkpt lat="44.0643331" lon="11.2917755"><ele>642.8333333333334</ele><time>2026-03-28T09:37:55.012Z</time></trkpt><trkpt lat="44.0643937" lon="11.2918221"><ele>640.6666666666666</ele><time>2026-03-28T09:37:58.014Z</time></trkpt><trkpt lat="44.0644745" lon="11.291826"><ele>638.5</ele><time>2026-03-28T09:38:01.962Z</time></trkpt><trkpt lat="44.0645412" lon="11.291787"><ele>636.3333333333333</ele><time>2026-03-28T09:38:03.959Z</time></trkpt><trkpt lat="44.0646195" lon="11.2917265"><ele>634.1666666666666</ele><time>2026-03-28T09:38:05.958Z</time></trkpt><trkpt lat="44.0646933" lon="11.2916694"><ele>632.0</ele><time>2026-03-28T09:38:08.038Z</time></trkpt><trkpt lat="44.0647689" lon="11.2916056"><ele>632.0</ele><time>2026-03-28T09:38:09.964Z</time></trkpt><trkpt lat="44.0648273" lon="11.2915658"><ele>632.0</ele><time>2026-03-28T09:38:11.968Z</time></trkpt><trkpt lat="44.0648941" lon="11.2915297"><ele>632.0</ele><time>2026-03-28T09:38:14.967Z</time></trkpt><trkpt lat="44.0649681" lon="11.2914649"><ele>632.0</ele><time>2026-03-28T09:38:18.03Z</time></trkpt><trkpt lat="44.0650349" lon="11.2914126"><ele>632.0</ele><time>2026-03-28T09:38:19.97Z</time></trkpt><trkpt lat="44.0651097" lon="11.2913585"><ele>632.0</ele><time>2026-03-28T09:38:21.967Z</time></trkpt><trkpt lat="44.0651878" lon="11.2913007"><ele>629.3333333333333</ele><time>2026-03-28T09:38:24.024Z</time></trkpt><trkpt lat="44.0652848" lon="11.2912424"><ele>626.6666666666666</ele><time>2026-03-28T09:38:25.96Z</time></trkpt><trkpt lat="44.065356" lon="11.2911904"><ele>624.0</ele><time>2026-03-28T09:38:28Z</time></trkpt><trkpt lat="44.0654232" lon="11.2911282"><ele>621.3333333333334</ele><time>2026-03-28T09:38:30.972Z</time></trkpt><trkpt lat="44.0654949" lon="11.2910834"><ele>618.6666666666667</ele><time>2026-03-28T09:38:34.944Z</time></trkpt><trkpt lat="44.0655608" lon="11.2910799"><ele>616.0</ele><time>2026-03-28T09:39:25.944Z</time></trkpt><trkpt lat="44.0656165" lon="11.2910322"><ele>616.0</ele><time>2026-03-28T09:40:39.964Z</time></trkpt><trkpt lat="44.0655758" lon="11.2909376"><ele>616.0</ele><time>2026-03-28T09:40:42.963Z</time></trkpt><trkpt lat="44.0655342" lon="11.2908316"><ele>616.0</ele><time>2026-03-28T09:40:44.96Z</time></trkpt><trkpt lat="44.0654788" lon="11.2907188"><ele>616.0</ele><time>2026-03-28T09:40:46.965Z</time></trkpt><trkpt lat="44.0654167" lon="11.2906081"><ele>616.0</ele><time>2026-03-28T09:40:48.963Z</time></trkpt><trkpt lat="44.0653653" lon="11.2905553"><ele>616.0</ele><time>2026-03-28T09:40:49.964Z</time></trkpt><trkpt lat="44.0653129" lon="11.2905041"><ele>613.6666666666667</ele><time>2026-03-28T09:40:50.96Z</time></trkpt><trkpt lat="44.0652544" lon="11.2904447"><ele>611.3333333333334</ele><time>2026-03-28T09:40:51.972Z</time></trkpt><trkpt lat="44.0651944" lon="11.2903734"><ele>609.0</ele><time>2026-03-28T09:40:52.966Z</time></trkpt><trkpt lat="44.0651303" lon="11.2902852"><ele>606.6666666666666</ele><time>2026-03-28T09:40:53.966Z</time></trkpt><trkpt lat="44.0650708" lon="11.2901928"><ele>604.3333333333333</ele><time>2026-03-28T09:40:54.95Z</time></trkpt><trkpt lat="44.0650251" lon="11.2901015"><ele>602.0</ele><time>2026-03-28T09:40:55.965Z</time></trkpt><trkpt lat="44.0649899" lon="11.2900202"><ele>600.4</ele><time>2026-03-28T09:40:56.959Z</time></trkpt><trkpt lat="44.0649237" lon="11.2899006"><ele>598.8000000000001</ele><time>2026-03-28T09:40:58.96Z</time></trkpt><trkpt lat="44.0649014" lon="11.2897632"><ele>597.2</ele><time>2026-03-28T09:41:00.97Z</time></trkpt><trkpt lat="44.0648933" lon="11.2896301"><ele>595.6</ele><time>2026-03-28T09:41:02.969Z</time></trkpt><trkpt lat="44.0648477" lon="11.2895359"><ele>594.0</ele><time>2026-03-28T09:41:04.962Z</time></trkpt><trkpt lat="44.0647731" lon="11.2894515"><ele>594.0</ele><time>2026-03-28T09:41:06.963Z</time></trkpt><trkpt lat="44.0646736" lon="11.2893429"><ele>594.0</ele><time>2026-03-28T09:41:08.966Z</time></trkpt><trkpt lat="44.0646265" lon="11.2892806"><ele>594.0</ele><time>2026-03-28T09:41:09.971Z</time></trkpt><trkpt lat="44.0645386" lon="11.289217"><ele>594.0</ele><time>2026-03-28T09:41:11.959Z</time></trkpt><trkpt lat="44.0644776" lon="11.2891644"><ele>594.0</ele><time>2026-03-28T09:41:13.959Z</time></trkpt><trkpt lat="44.064399" lon="11.28911"><ele>594.0</ele><time>2026-03-28T09:41:16.967Z</time></trkpt><trkpt lat="44.0643098" lon="11.2890789"><ele>594.0</ele><time>2026-03-28T09:41:18.965Z</time></trkpt><trkpt lat="44.0641932" lon="11.2890535"><ele>594.0</ele><time>2026-03-28T09:41:20.965Z</time></trkpt><trkpt lat="44.0640707" lon="11.2890485"><ele>594.0</ele><time>2026-03-28T09:41:22.972Z</time></trkpt><trkpt lat="44.0640058" lon="11.2890543"><ele>594.0</ele><time>2026-03-28T09:41:23.97Z</time></trkpt><trkpt lat="44.063938" lon="11.2890649"><ele>594.2857142857143</ele><time>2026-03-28T09:41:24.969Z</time></trkpt><trkpt lat="44.0638661" lon="11.2890716"><ele>594.5714285714287</ele><time>2026-03-28T09:41:25.956Z</time></trkpt><trkpt lat="44.0637894" lon="11.2890739"><ele>594.8571428571429</ele><time>2026-03-28T09:41:26.97Z</time></trkpt><trkpt lat="44.0637176" lon="11.2890862"><ele>595.1428571428571</ele><time>2026-03-28T09:41:27.964Z</time></trkpt><trkpt lat="44.0636433" lon="11.289091"><ele>595.4285714285713</ele><time>2026-03-28T09:41:28.972Z</time></trkpt><trkpt lat="44.0635745" lon="11.2890993"><ele>595.7142857142857</ele><time>2026-03-28T09:41:29.957Z</time></trkpt><trkpt lat="44.0635015" lon="11.2891007"><ele>596.0</ele><time>2026-03-28T09:41:30.966Z</time></trkpt><trkpt lat="44.0634318" lon="11.2891076"><ele>596.0</ele><time>2026-03-28T09:41:31.961Z</time></trkpt><trkpt lat="44.0633631" lon="11.2891151"><ele>596.0</ele><time>2026-03-28T09:41:32.972Z</time></trkpt><trkpt lat="44.0632973" lon="11.2891166"><ele>596.0</ele><time>2026-03-28T09:41:33.961Z</time></trkpt><trkpt lat="44.0631716" lon="11.2891125"><ele>596.0</ele><time>2026-03-28T09:41:35.969Z</time></trkpt><trkpt lat="44.0630456" lon="11.2891179"><ele>596.0</ele><time>2026-03-28T09:41:37.969Z</time></trkpt><trkpt lat="44.062979" lon="11.2891216"><ele>595.1666666666666</ele><time>2026-03-28T09:41:38.975Z</time></trkpt><trkpt lat="44.0629124" lon="11.289136"><ele>594.3333333333333</ele><time>2026-03-28T09:41:39.969Z</time></trkpt><trkpt lat="44.0628443" lon="11.2891507"><ele>593.5</ele><time>2026-03-28T09:41:40.97Z</time></trkpt><trkpt lat="44.062721" lon="11.2892338"><ele>592.6666666666666</ele><time>2026-03-28T09:41:42.972Z</time></trkpt><trkpt lat="44.0626664" lon="11.2892965"><ele>591.8333333333334</ele><time>2026-03-28T09:41:43.973Z</time></trkpt><trkpt lat="44.0626233" lon="11.2893692"><ele>591.0</ele><time>2026-03-28T09:41:44.971Z</time></trkpt><trkpt lat="44.0625923" lon="11.2894484"><ele>591.0</ele><time>2026-03-28T09:41:45.975Z</time></trkpt><trkpt lat="44.0625576" lon="11.2895266"><ele>591.0</ele><time>2026-03-28T09:41:46.972Z</time></trkpt><trkpt lat="44.0624926" lon="11.2896785"><ele>591.0</ele><time>2026-03-28T09:41:48.978Z</time></trkpt><trkpt lat="44.0624669" lon="11.2897595"><ele>591.0</ele><time>2026-03-28T09:41:49.968Z</time></trkpt><trkpt lat="44.0624362" lon="11.2898378"><ele>591.0</ele><time>2026-03-28T09:41:50.972Z</time></trkpt><trkpt lat="44.0623918" lon="11.2899077"><ele>591.0</ele><time>2026-03-28T09:41:51.974Z</time></trkpt><trkpt lat="44.0623393" lon="11.2899696"><ele>593.4285714285714</ele><time>2026-03-28T09:41:52.965Z</time></trkpt><trkpt lat="44.062283" lon="11.2900269"><ele>595.8571428571429</ele><time>2026-03-28T09:41:53.965Z</time></trkpt><trkpt lat="44.0622193" lon="11.2900779"><ele>598.2857142857142</ele><time>2026-03-28T09:41:54.971Z</time></trkpt><trkpt lat="44.062155" lon="11.2901175"><ele>600.7142857142858</ele><time>2026-03-28T09:41:55.975Z</time></trkpt><trkpt lat="44.0620863" lon="11.2901592"><ele>603.1428571428572</ele><time>2026-03-28T09:41:56.95Z</time></trkpt><trkpt lat="44.0620139" lon="11.2902006"><ele>605.5714285714286</ele><time>2026-03-28T09:41:57.961Z</time></trkpt><trkpt lat="44.0619382" lon="11.2902326"><ele>608.0</ele><time>2026-03-28T09:41:58.955Z</time></trkpt><trkpt lat="44.0618597" lon="11.2902458"><ele>608.0</ele><time>2026-03-28T09:41:59.968Z</time></trkpt><trkpt lat="44.0617786" lon="11.2902463"><ele>608.0</ele><time>2026-03-28T09:42:00.963Z</time></trkpt><trkpt lat="44.0616921" lon="11.2902378"><ele>608.0</ele><time>2026-03-28T09:42:01.969Z</time></trkpt><trkpt lat="44.0616068" lon="11.2902341"><ele>608.0</ele><time>2026-03-28T09:42:02.968Z</time></trkpt><trkpt lat="44.0615224" lon="11.2902401"><ele>608.0</ele><time>2026-03-28T09:42:03.967Z</time></trkpt><trkpt lat="44.0614396" lon="11.2902447"><ele>608.0</ele><time>2026-03-28T09:42:04.972Z</time></trkpt><trkpt lat="44.0613557" lon="11.2902416"><ele>608.8333333333333</ele><time>2026-03-28T09:42:05.964Z</time></trkpt><trkpt lat="44.061268" lon="11.2902408"><ele>609.6666666666666</ele><time>2026-03-28T09:42:06.961Z</time></trkpt><trkpt lat="44.0611773" lon="11.2902448"><ele>610.5</ele><time>2026-03-28T09:42:07.972Z</time></trkpt><trkpt lat="44.0610822" lon="11.290248"><ele>611.3333333333334</ele><time>2026-03-28T09:42:08.96Z</time></trkpt><trkpt lat="44.0609974" lon="11.2902565"><ele>612.1666666666667</ele><time>2026-03-28T09:42:09.965Z</time></trkpt><trkpt lat="44.0609108" lon="11.2902637"><ele>613.0</ele><time>2026-03-28T09:42:10.965Z</time></trkpt><trkpt lat="44.0608269" lon="11.2902556"><ele>614.3333333333334</ele><time>2026-03-28T09:42:11.969Z</time></trkpt><trkpt lat="44.0607494" lon="11.2902401"><ele>615.6666666666667</ele><time>2026-03-28T09:42:12.968Z</time></trkpt><trkpt lat="44.0606716" lon="11.2902161"><ele>617.0</ele><time>2026-03-28T09:42:13.973Z</time></trkpt><trkpt lat="44.0605971" lon="11.2901847"><ele>618.3333333333334</ele><time>2026-03-28T09:42:14.948Z</time></trkpt><trkpt lat="44.0605228" lon="11.2901515"><ele>619.6666666666666</ele><time>2026-03-28T09:42:15.97Z</time></trkpt><trkpt lat="44.0604516" lon="11.2901148"><ele>621.0</ele><time>2026-03-28T09:42:16.968Z</time></trkpt><trkpt lat="44.0603809" lon="11.2900649"><ele>621.0</ele><time>2026-03-28T09:42:17.962Z</time></trkpt><trkpt lat="44.0603121" lon="11.2900205"><ele>621.0</ele><time>2026-03-28T09:42:18.974Z</time></trkpt><trkpt lat="44.0602374" lon="11.2899752"><ele>621.0</ele><time>2026-03-28T09:42:19.97Z</time></trkpt><trkpt lat="44.0601662" lon="11.2899332"><ele>621.0</ele><time>2026-03-28T09:42:20.965Z</time></trkpt><trkpt lat="44.0600908" lon="11.2898934"><ele>621.0</ele><time>2026-03-28T09:42:21.967Z</time></trkpt><trkpt lat="44.0600069" lon="11.2898694"><ele>621.0</ele><time>2026-03-28T09:42:22.967Z</time></trkpt><trkpt lat="44.0599266" lon="11.289866"><ele>621.3333333333334</ele><time>2026-03-28T09:42:23.971Z</time></trkpt><trkpt lat="44.0598427" lon="11.2898712"><ele>621.6666666666666</ele><time>2026-03-28T09:42:24.959Z</time></trkpt><trkpt lat="44.0597557" lon="11.2898947"><ele>622.0</ele><time>2026-03-28T09:42:25.959Z</time></trkpt><trkpt lat="44.0596675" lon="11.2899089"><ele>622.3333333333333</ele><time>2026-03-28T09:42:26.964Z</time></trkpt><trkpt lat="44.0595794" lon="11.2899211"><ele>622.6666666666666</ele><time>2026-03-28T09:42:27.966Z</time></trkpt><trkpt lat="44.0594926" lon="11.289934"><ele>623.0</ele><time>2026-03-28T09:42:28.965Z</time></trkpt><trkpt lat="44.059408" lon="11.289953"><ele>623.0</ele><time>2026-03-28T09:42:29.961Z</time></trkpt><trkpt lat="44.059325" lon="11.2899694"><ele>623.0</ele><time>2026-03-28T09:42:30.97Z</time></trkpt><trkpt lat="44.0592428" lon="11.2899845"><ele>623.0</ele><time>2026-03-28T09:42:31.967Z</time></trkpt><trkpt lat="44.0591674" lon="11.2899941"><ele>623.0</ele><time>2026-03-28T09:42:32.961Z</time></trkpt><trkpt lat="44.0590928" lon="11.2900085"><ele>623.0</ele><time>2026-03-28T09:42:33.981Z</time></trkpt><trkpt lat="44.0590257" lon="11.2900259"><ele>623.0</ele><time>2026-03-28T09:42:34.967Z</time></trkpt><trkpt lat="44.0589576" lon="11.2900518"><ele>622.1428571428571</ele><time>2026-03-28T09:42:35.958Z</time></trkpt><trkpt lat="44.0588963" lon="11.290091"><ele>621.2857142857142</ele><time>2026-03-28T09:42:36.942Z</time></trkpt><trkpt lat="44.0588298" lon="11.2901379"><ele>620.4285714285714</ele><time>2026-03-28T09:42:37.969Z</time></trkpt><trkpt lat="44.0587677" lon="11.2901766"><ele>619.5714285714286</ele><time>2026-03-28T09:42:38.955Z</time></trkpt><trkpt lat="44.0587006" lon="11.2902145"><ele>618.7142857142857</ele><time>2026-03-28T09:42:39.963Z</time></trkpt><trkpt lat="44.0586343" lon="11.2902634"><ele>617.8571428571429</ele><time>2026-03-28T09:42:40.97Z</time></trkpt><trkpt lat="44.0585651" lon="11.2903185"><ele>617.0</ele><time>2026-03-28T09:42:41.955Z</time></trkpt><trkpt lat="44.0584979" lon="11.2903685"><ele>617.0</ele><time>2026-03-28T09:42:42.952Z</time></trkpt><trkpt lat="44.0584275" lon="11.2904265"><ele>617.0</ele><time>2026-03-28T09:42:43.951Z</time></trkpt><trkpt lat="44.0583601" lon="11.2904858"><ele>617.0</ele><time>2026-03-28T09:42:44.968Z</time></trkpt><trkpt lat="44.0582847" lon="11.2905449"><ele>617.0</ele><time>2026-03-28T09:42:45.965Z</time></trkpt><trkpt lat="44.0582074" lon="11.2905877"><ele>617.0</ele><time>2026-03-28T09:42:46.981Z</time></trkpt><trkpt lat="44.0581257" lon="11.2906166"><ele>617.0</ele><time>2026-03-28T09:42:47.963Z</time></trkpt><trkpt lat="44.0580405" lon="11.2906281"><ele>617.1666666666666</ele><time>2026-03-28T09:42:48.964Z</time></trkpt><trkpt lat="44.0579556" lon="11.2906106"><ele>617.3333333333333</ele><time>2026-03-28T09:42:49.973Z</time></trkpt><trkpt lat="44.0578744" lon="11.2905769"><ele>617.5</ele><time>2026-03-28T09:42:50.963Z</time></trkpt><trkpt lat="44.0577942" lon="11.2905506"><ele>617.6666666666666</ele><time>2026-03-28T09:42:51.973Z</time></trkpt><trkpt lat="44.0577193" lon="11.2905195"><ele>617.8333333333334</ele><time>2026-03-28T09:42:52.964Z</time></trkpt><trkpt lat="44.0576448" lon="11.2904926"><ele>618.0</ele><time>2026-03-28T09:42:53.967Z</time></trkpt><trkpt lat="44.0575754" lon="11.2904693"><ele>618.0</ele><time>2026-03-28T09:42:54.97Z</time></trkpt><trkpt lat="44.0574566" lon="11.2904271"><ele>618.0</ele><time>2026-03-28T09:42:56.948Z</time></trkpt><trkpt lat="44.0573553" lon="11.2903969"><ele>618.0</ele><time>2026-03-28T09:42:58.969Z</time></trkpt><trkpt lat="44.0572537" lon="11.2903599"><ele>618.0</ele><time>2026-03-28T09:43:00.955Z</time></trkpt><trkpt lat="44.0571918" lon="11.2903364"><ele>618.0</ele><time>2026-03-28T09:43:01.976Z</time></trkpt><trkpt lat="44.0571242" lon="11.2903137"><ele>618.6666666666666</ele><time>2026-03-28T09:43:02.971Z</time></trkpt><trkpt lat="44.057052" lon="11.2902864"><ele>619.3333333333334</ele><time>2026-03-28T09:43:03.973Z</time></trkpt><trkpt lat="44.0569731" lon="11.2902566"><ele>620.0</ele><time>2026-03-28T09:43:04.963Z</time></trkpt><trkpt lat="44.0568906" lon="11.2902239"><ele>620.6666666666667</ele><time>2026-03-28T09:43:05.971Z</time></trkpt><trkpt lat="44.0568123" lon="11.2901939"><ele>621.3333333333334</ele><time>2026-03-28T09:43:06.97Z</time></trkpt><trkpt lat="44.0567323" lon="11.2901644"><ele>622.0</ele><time>2026-03-28T09:43:07.967Z</time></trkpt><trkpt lat="44.0566497" lon="11.2901409"><ele>623.0</ele><time>2026-03-28T09:43:08.959Z</time></trkpt><trkpt lat="44.0565639" lon="11.2901177"><ele>624.0</ele><time>2026-03-28T09:43:09.975Z</time></trkpt><trkpt lat="44.0564801" lon="11.2900885"><ele>625.0</ele><time>2026-03-28T09:43:10.973Z</time></trkpt><trkpt lat="44.0563966" lon="11.2900552"><ele>626.0</ele><time>2026-03-28T09:43:11.968Z</time></trkpt><trkpt lat="44.0563115" lon="11.2900174"><ele>627.0</ele><time>2026-03-28T09:43:12.964Z</time></trkpt><trkpt lat="44.0562282" lon="11.2899693"><ele>628.0</ele><time>2026-03-28T09:43:13.975Z</time></trkpt><trkpt lat="44.0561459" lon="11.2899177"><ele>628.0</ele><time>2026-03-28T09:43:14.966Z</time></trkpt><trkpt lat="44.0560728" lon="11.2898624"><ele>628.0</ele><time>2026-03-28T09:43:15.975Z</time></trkpt><trkpt lat="44.0559956" lon="11.289804"><ele>628.0</ele><time>2026-03-28T09:43:16.972Z</time></trkpt><trkpt lat="44.0559165" lon="11.2897472"><ele>628.0</ele><time>2026-03-28T09:43:17.963Z</time></trkpt><trkpt lat="44.0558394" lon="11.289689"><ele>628.0</ele><time>2026-03-28T09:43:18.96Z</time></trkpt><trkpt lat="44.0557569" lon="11.289632"><ele>628.0</ele><time>2026-03-28T09:43:19.964Z</time></trkpt><trkpt lat="44.055672" lon="11.2895755"><ele>627.1999999999999</ele><time>2026-03-28T09:43:20.97Z</time></trkpt><trkpt lat="44.0555885" lon="11.2895156"><ele>626.4</ele><time>2026-03-28T09:43:21.972Z</time></trkpt><trkpt lat="44.0555068" lon="11.2894559"><ele>625.5999999999999</ele><time>2026-03-28T09:43:22.957Z</time></trkpt><trkpt lat="44.0554251" lon="11.2893911"><ele>624.8</ele><time>2026-03-28T09:43:23.968Z</time></trkpt><trkpt lat="44.0553415" lon="11.2893245"><ele>624.0</ele><time>2026-03-28T09:43:24.972Z</time></trkpt><trkpt lat="44.0552617" lon="11.2892592"><ele>624.0</ele><time>2026-03-28T09:43:25.966Z</time></trkpt><trkpt lat="44.0551802" lon="11.2892018"><ele>624.0</ele><time>2026-03-28T09:43:26.964Z</time></trkpt><trkpt lat="44.0550964" lon="11.2891555"><ele>624.0</ele><time>2026-03-28T09:43:27.969Z</time></trkpt><trkpt lat="44.055007" lon="11.289126"><ele>624.0</ele><time>2026-03-28T09:43:28.969Z</time></trkpt><trkpt lat="44.0549122" lon="11.2891088"><ele>624.0</ele><time>2026-03-28T09:43:29.968Z</time></trkpt><trkpt lat="44.0548308" lon="11.2891045"><ele>622.8571428571429</ele><time>2026-03-28T09:43:30.962Z</time></trkpt><trkpt lat="44.0547522" lon="11.289104"><ele>621.7142857142857</ele><time>2026-03-28T09:43:31.946Z</time></trkpt><trkpt lat="44.0546785" lon="11.289113"><ele>620.5714285714286</ele><time>2026-03-28T09:43:32.957Z</time></trkpt><trkpt lat="44.054606" lon="11.2891285"><ele>619.4285714285714</ele><time>2026-03-28T09:43:33.965Z</time></trkpt><trkpt lat="44.0545383" lon="11.2891646"><ele>618.2857142857142</ele><time>2026-03-28T09:43:34.973Z</time></trkpt><trkpt lat="44.0544795" lon="11.2892159"><ele>617.1428571428571</ele><time>2026-03-28T09:43:35.972Z</time></trkpt><trkpt lat="44.054426" lon="11.2892727"><ele>616.0</ele><time>2026-03-28T09:43:36.943Z</time></trkpt><trkpt lat="44.0543666" lon="11.2893405"><ele>616.0</ele><time>2026-03-28T09:43:37.963Z</time></trkpt><trkpt lat="44.0543095" lon="11.2894268"><ele>616.0</ele><time>2026-03-28T09:43:38.97Z</time></trkpt><trkpt lat="44.0542442" lon="11.2895058"><ele>616.0</ele><time>2026-03-28T09:43:39.972Z</time></trkpt><trkpt lat="44.0541697" lon="11.2895861"><ele>616.0</ele><time>2026-03-28T09:43:40.966Z</time></trkpt><trkpt lat="44.0540835" lon="11.2896544"><ele>616.0</ele><time>2026-03-28T09:43:41.958Z</time></trkpt><trkpt lat="44.0540011" lon="11.2897179"><ele>616.8</ele><time>2026-03-28T09:43:42.973Z</time></trkpt><trkpt lat="44.0539213" lon="11.2897792"><ele>617.6</ele><time>2026-03-28T09:43:43.964Z</time></trkpt><trkpt lat="44.0538391" lon="11.2898404"><ele>618.4</ele><time>2026-03-28T09:43:44.97Z</time></trkpt><trkpt lat="44.0537501" lon="11.2898922"><ele>619.2</ele><time>2026-03-28T09:43:45.953Z</time></trkpt><trkpt lat="44.0536556" lon="11.2899269"><ele>620.0</ele><time>2026-03-28T09:43:46.955Z</time></trkpt><trkpt lat="44.0535584" lon="11.2899452"><ele>620.0</ele><time>2026-03-28T09:43:47.969Z</time></trkpt><trkpt lat="44.0534626" lon="11.2899483"><ele>620.0</ele><time>2026-03-28T09:43:48.963Z</time></trkpt><trkpt lat="44.0533807" lon="11.2899259"><ele>620.0</ele><time>2026-03-28T09:43:49.962Z</time></trkpt><trkpt lat="44.0532984" lon="11.2898803"><ele>620.0</ele><time>2026-03-28T09:43:50.959Z</time></trkpt><trkpt lat="44.0532204" lon="11.2898414"><ele>620.0</ele><time>2026-03-28T09:43:51.967Z</time></trkpt><trkpt lat="44.0531466" lon="11.2897986"><ele>620.0</ele><time>2026-03-28T09:43:52.971Z</time></trkpt><trkpt lat="44.0530689" lon="11.2897651"><ele>618.3333333333333</ele><time>2026-03-28T09:43:53.969Z</time></trkpt><trkpt lat="44.0529901" lon="11.2897399"><ele>616.6666666666666</ele><time>2026-03-28T09:43:54.969Z</time></trkpt><trkpt lat="44.0529143" lon="11.2897236"><ele>615.0</ele><time>2026-03-28T09:43:55.974Z</time></trkpt><trkpt lat="44.0528351" lon="11.289717"><ele>613.3333333333334</ele><time>2026-03-28T09:43:56.966Z</time></trkpt><trkpt lat="44.0527527" lon="11.2896979"><ele>611.6666666666667</ele><time>2026-03-28T09:43:57.974Z</time></trkpt><trkpt lat="44.0526711" lon="11.2896807"><ele>610.0</ele><time>2026-03-28T09:43:58.965Z</time></trkpt><trkpt lat="44.0525869" lon="11.2896672"><ele>610.0</ele><time>2026-03-28T09:43:59.964Z</time></trkpt><trkpt lat="44.0525023" lon="11.2896543"><ele>610.0</ele><time>2026-03-28T09:44:00.959Z</time></trkpt><trkpt lat="44.0524175" lon="11.2896344"><ele>610.0</ele><time>2026-03-28T09:44:01.975Z</time></trkpt><trkpt lat="44.0523404" lon="11.2896162"><ele>610.0</ele><time>2026-03-28T09:44:02.964Z</time></trkpt><trkpt lat="44.0522667" lon="11.2896008"><ele>610.0</ele><time>2026-03-28T09:44:03.966Z</time></trkpt><trkpt lat="44.0521974" lon="11.2895838"><ele>610.0</ele><time>2026-03-28T09:44:04.968Z</time></trkpt><trkpt lat="44.0521323" lon="11.2895669"><ele>609.0</ele><time>2026-03-28T09:44:05.974Z</time></trkpt><trkpt lat="44.0520604" lon="11.2895592"><ele>608.0</ele><time>2026-03-28T09:44:06.963Z</time></trkpt><trkpt lat="44.0519805" lon="11.28955"><ele>607.0</ele><time>2026-03-28T09:44:07.966Z</time></trkpt><trkpt lat="44.0519056" lon="11.2895392"><ele>606.0</ele><time>2026-03-28T09:44:08.968Z</time></trkpt><trkpt lat="44.0518331" lon="11.2895221"><ele>605.0</ele><time>2026-03-28T09:44:09.969Z</time></trkpt><trkpt lat="44.0517642" lon="11.2895135"><ele>604.0</ele><time>2026-03-28T09:44:10.964Z</time></trkpt><trkpt lat="44.0516874" lon="11.2895049"><ele>603.0</ele><time>2026-03-28T09:44:11.962Z</time></trkpt><trkpt lat="44.0516142" lon="11.2895073"><ele>601.6</ele><time>2026-03-28T09:44:12.958Z</time></trkpt><trkpt lat="44.0515469" lon="11.289511"><ele>600.1999999999999</ele><time>2026-03-28T09:44:13.956Z</time></trkpt><trkpt lat="44.0514208" lon="11.2895211"><ele>598.8</ele><time>2026-03-28T09:44:15.962Z</time></trkpt><trkpt lat="44.0512881" lon="11.2895437"><ele>597.4</ele><time>2026-03-28T09:44:17.982Z</time></trkpt><trkpt lat="44.0512167" lon="11.2895459"><ele>596.0</ele><time>2026-03-28T09:44:18.97Z</time></trkpt><trkpt lat="44.0511482" lon="11.289531"><ele>596.0</ele><time>2026-03-28T09:44:19.967Z</time></trkpt><trkpt lat="44.0510778" lon="11.2894823"><ele>596.0</ele><time>2026-03-28T09:44:20.951Z</time></trkpt><trkpt lat="44.051013" lon="11.2894261"><ele>596.0</ele><time>2026-03-28T09:44:21.974Z</time></trkpt><trkpt lat="44.0509459" lon="11.2893595"><ele>596.0</ele><time>2026-03-28T09:44:22.951Z</time></trkpt><trkpt lat="44.050877" lon="11.2892962"><ele>596.0</ele><time>2026-03-28T09:44:23.956Z</time></trkpt><trkpt lat="44.0508124" lon="11.2892238"><ele>596.0</ele><time>2026-03-28T09:44:24.966Z</time></trkpt><trkpt lat="44.0507444" lon="11.2891495"><ele>594.1666666666666</ele><time>2026-03-28T09:44:25.969Z</time></trkpt><trkpt lat="44.0506756" lon="11.2890751"><ele>592.3333333333333</ele><time>2026-03-28T09:44:26.958Z</time></trkpt><trkpt lat="44.0506089" lon="11.2890089"><ele>590.5</ele><time>2026-03-28T09:44:27.975Z</time></trkpt><trkpt lat="44.0505398" lon="11.2889367"><ele>588.6666666666666</ele><time>2026-03-28T09:44:28.967Z</time></trkpt><trkpt lat="44.0504675" lon="11.2888764"><ele>586.8333333333334</ele><time>2026-03-28T09:44:29.969Z</time></trkpt><trkpt lat="44.0503878" lon="11.2888244"><ele>585.0</ele><time>2026-03-28T09:44:30.968Z</time></trkpt><trkpt lat="44.0503057" lon="11.2887908"><ele>584.1666666666666</ele><time>2026-03-28T09:44:31.964Z</time></trkpt><trkpt lat="44.0502186" lon="11.2887857"><ele>583.3333333333334</ele><time>2026-03-28T09:44:32.965Z</time></trkpt><trkpt lat="44.0501297" lon="11.288797"><ele>582.5</ele><time>2026-03-28T09:44:33.964Z</time></trkpt><trkpt lat="44.0500472" lon="11.2888049"><ele>581.6666666666667</ele><time>2026-03-28T09:44:34.97Z</time></trkpt><trkpt lat="44.0499663" lon="11.2888191"><ele>580.8333333333334</ele><time>2026-03-28T09:44:35.972Z</time></trkpt><trkpt lat="44.049879" lon="11.2888277"><ele>580.0</ele><time>2026-03-28T09:44:36.965Z</time></trkpt><trkpt lat="44.0497942" lon="11.2888334"><ele>579.0</ele><time>2026-03-28T09:44:37.961Z</time></trkpt><trkpt lat="44.0497005" lon="11.2888434"><ele>578.0</ele><time>2026-03-28T09:44:38.968Z</time></trkpt><trkpt lat="44.0496172" lon="11.2888645"><ele>577.0</ele><time>2026-03-28T09:44:39.954Z</time></trkpt><trkpt lat="44.0495368" lon="11.2888866"><ele>576.0</ele><time>2026-03-28T09:44:40.961Z</time></trkpt><trkpt lat="44.0494561" lon="11.2889158"><ele>575.0</ele><time>2026-03-28T09:44:41.963Z</time></trkpt><trkpt lat="44.0493794" lon="11.288961"><ele>574.0</ele><time>2026-03-28T09:44:42.978Z</time></trkpt><trkpt lat="44.0493032" lon="11.2890002"><ele>574.0</ele><time>2026-03-28T09:44:43.974Z</time></trkpt><trkpt lat="44.0492221" lon="11.2890158"><ele>574.0</ele><time>2026-03-28T09:44:44.962Z</time></trkpt><trkpt lat="44.0491422" lon="11.2889892"><ele>574.0</ele><time>2026-03-28T09:44:45.965Z</time></trkpt><trkpt lat="44.049066" lon="11.2889303"><ele>574.0</ele><time>2026-03-28T09:44:46.97Z</time></trkpt><trkpt lat="44.0489999" lon="11.2888552"><ele>574.0</ele><time>2026-03-28T09:44:47.975Z</time></trkpt><trkpt lat="44.0489334" lon="11.2887907"><ele>574.0</ele><time>2026-03-28T09:44:49.012Z</time></trkpt><trkpt lat="44.0488577" lon="11.2887726"><ele>572.3333333333334</ele><time>2026-03-28T09:44:50.051Z</time></trkpt><trkpt lat="44.0487857" lon="11.2887768"><ele>570.6666666666667</ele><time>2026-03-28T09:44:50.97Z</time></trkpt><trkpt lat="44.048713" lon="11.2888036"><ele>569.0</ele><time>2026-03-28T09:44:51.972Z</time></trkpt><trkpt lat="44.0486395" lon="11.2888321"><ele>567.3333333333334</ele><time>2026-03-28T09:44:52.998Z</time></trkpt><trkpt lat="44.0485635" lon="11.2888761"><ele>565.6666666666666</ele><time>2026-03-28T09:44:54.034Z</time></trkpt><trkpt lat="44.0484886" lon="11.2889223"><ele>564.0</ele><time>2026-03-28T09:44:54.96Z</time></trkpt><trkpt lat="44.0484138" lon="11.2889525"><ele>563.6666666666666</ele><time>2026-03-28T09:44:55.95Z</time></trkpt><trkpt lat="44.0483315" lon="11.2889706"><ele>563.3333333333334</ele><time>2026-03-28T09:44:57.015Z</time></trkpt><trkpt lat="44.0482518" lon="11.2889549"><ele>563.0</ele><time>2026-03-28T09:44:58.02Z</time></trkpt><trkpt lat="44.0481859" lon="11.288909"><ele>562.6666666666667</ele><time>2026-03-28T09:44:59.035Z</time></trkpt><trkpt lat="44.0481243" lon="11.288845"><ele>562.3333333333334</ele><time>2026-03-28T09:45:00.026Z</time></trkpt><trkpt lat="44.0480804" lon="11.2887552"><ele>562.0</ele><time>2026-03-28T09:45:00.977Z</time></trkpt><trkpt lat="44.048032" lon="11.2886649"><ele>561.3333333333334</ele><time>2026-03-28T09:45:01.953Z</time></trkpt><trkpt lat="44.0479765" lon="11.2885804"><ele>560.6666666666667</ele><time>2026-03-28T09:45:02.969Z</time></trkpt><trkpt lat="44.047916" lon="11.2885129"><ele>560.0</ele><time>2026-03-28T09:45:03.959Z</time></trkpt><trkpt lat="44.0478489" lon="11.2884656"><ele>559.3333333333334</ele><time>2026-03-28T09:45:04.969Z</time></trkpt><trkpt lat="44.0477738" lon="11.2884312"><ele>558.6666666666666</ele><time>2026-03-28T09:45:05.966Z</time></trkpt><trkpt lat="44.0476906" lon="11.2884112"><ele>558.0</ele><time>2026-03-28T09:45:06.97Z</time></trkpt><trkpt lat="44.0476106" lon="11.2883828"><ele>558.0</ele><time>2026-03-28T09:45:07.976Z</time></trkpt><trkpt lat="44.0475345" lon="11.2883518"><ele>558.0</ele><time>2026-03-28T09:45:08.972Z</time></trkpt><trkpt lat="44.0474512" lon="11.2883261"><ele>558.0</ele><time>2026-03-28T09:45:09.976Z</time></trkpt><trkpt lat="44.0473703" lon="11.2882939"><ele>558.0</ele><time>2026-03-28T09:45:10.96Z</time></trkpt><trkpt lat="44.0472883" lon="11.2882555"><ele>558.0</ele><time>2026-03-28T09:45:11.965Z</time></trkpt><trkpt lat="44.0472156" lon="11.2882033"><ele>558.0</ele><time>2026-03-28T09:45:12.96Z</time></trkpt><trkpt lat="44.0471447" lon="11.2881427"><ele>555.8333333333334</ele><time>2026-03-28T09:45:13.981Z</time></trkpt><trkpt lat="44.0470752" lon="11.2880808"><ele>553.6666666666666</ele><time>2026-03-28T09:45:14.976Z</time></trkpt><trkpt lat="44.0470048" lon="11.2880207"><ele>551.5</ele><time>2026-03-28T09:45:15.967Z</time></trkpt><trkpt lat="44.0469344" lon="11.2879657"><ele>549.3333333333333</ele><time>2026-03-28T09:45:16.971Z</time></trkpt><trkpt lat="44.0468692" lon="11.2879062"><ele>547.1666666666666</ele><time>2026-03-28T09:45:17.973Z</time></trkpt><trkpt lat="44.0467987" lon="11.2878556"><ele>545.0</ele><time>2026-03-28T09:45:19.013Z</time></trkpt><trkpt lat="44.0467287" lon="11.2878048"><ele>545.0</ele><time>2026-03-28T09:45:19.963Z</time></trkpt><trkpt lat="44.0466545" lon="11.2877767"><ele>545.0</ele><time>2026-03-28T09:45:20.973Z</time></trkpt><trkpt lat="44.046571" lon="11.2877751"><ele>545.0</ele><time>2026-03-28T09:45:21.973Z</time></trkpt><trkpt lat="44.0464908" lon="11.2877962"><ele>545.0</ele><time>2026-03-28T09:45:22.976Z</time></trkpt><trkpt lat="44.046416" lon="11.2878268"><ele>545.0</ele><time>2026-03-28T09:45:23.962Z</time></trkpt><trkpt lat="44.0463378" lon="11.2878629"><ele>545.0</ele><time>2026-03-28T09:45:25.023Z</time></trkpt><trkpt lat="44.0462693" lon="11.2878858"><ele>544.2</ele><time>2026-03-28T09:45:25.969Z</time></trkpt><trkpt lat="44.0461975" lon="11.2879158"><ele>543.4</ele><time>2026-03-28T09:45:26.964Z</time></trkpt><trkpt lat="44.046131" lon="11.2879483"><ele>542.6</ele><time>2026-03-28T09:45:27.969Z</time></trkpt><trkpt lat="44.0460091" lon="11.287995"><ele>541.8</ele><time>2026-03-28T09:45:29.969Z</time></trkpt><trkpt lat="44.045889" lon="11.2880498"><ele>541.0</ele><time>2026-03-28T09:45:31.978Z</time></trkpt><trkpt lat="44.045823" lon="11.2880836"><ele>540.1428571428572</ele><time>2026-03-28T09:45:33.005Z</time></trkpt><trkpt lat="44.0457605" lon="11.2881144"><ele>539.2857142857143</ele><time>2026-03-28T09:45:33.988Z</time></trkpt><trkpt lat="44.0456971" lon="11.2881419"><ele>538.4285714285714</ele><time>2026-03-28T09:45:34.968Z</time></trkpt><trkpt lat="44.0456333" lon="11.2881672"><ele>537.5714285714287</ele><time>2026-03-28T09:45:35.971Z</time></trkpt><trkpt lat="44.0455639" lon="11.2881975"><ele>536.7142857142858</ele><time>2026-03-28T09:45:36.966Z</time></trkpt><trkpt lat="44.0454946" lon="11.2882341"><ele>535.8571428571429</ele><time>2026-03-28T09:45:37.971Z</time></trkpt><trkpt lat="44.0454238" lon="11.2882654"><ele>535.0</ele><time>2026-03-28T09:45:38.97Z</time></trkpt><trkpt lat="44.0453515" lon="11.2882874"><ele>535.0</ele><time>2026-03-28T09:45:40.036Z</time></trkpt><trkpt lat="44.0452835" lon="11.288311"><ele>535.0</ele><time>2026-03-28T09:45:40.976Z</time></trkpt><trkpt lat="44.0452086" lon="11.2883324"><ele>535.0</ele><time>2026-03-28T09:45:41.977Z</time></trkpt><trkpt lat="44.0451357" lon="11.2883392"><ele>535.0</ele><time>2026-03-28T09:45:42.996Z</time></trkpt><trkpt lat="44.0450556" lon="11.2883433"><ele>535.0</ele><time>2026-03-28T09:45:44.032Z</time></trkpt><trkpt lat="44.0449831" lon="11.2883498"><ele>535.0</ele><time>2026-03-28T09:45:45.026Z</time></trkpt><trkpt lat="44.0449132" lon="11.2883375"><ele>535.0</ele><time>2026-03-28T09:45:45.953Z</time></trkpt><trkpt lat="44.0448427" lon="11.2883139"><ele>533.5714285714286</ele><time>2026-03-28T09:45:46.978Z</time></trkpt><trkpt lat="44.0447706" lon="11.288287"><ele>532.1428571428571</ele><time>2026-03-28T09:45:47.996Z</time></trkpt><trkpt lat="44.0446992" lon="11.2882615"><ele>530.7142857142858</ele><time>2026-03-28T09:45:48.979Z</time></trkpt><trkpt lat="44.0446258" lon="11.2882442"><ele>529.2857142857142</ele><time>2026-03-28T09:45:50.028Z</time></trkpt><trkpt lat="44.0445594" lon="11.2882217"><ele>527.8571428571429</ele><time>2026-03-28T09:45:50.974Z</time></trkpt><trkpt lat="44.0444884" lon="11.2881926"><ele>526.4285714285714</ele><time>2026-03-28T09:45:51.972Z</time></trkpt><trkpt lat="44.0444146" lon="11.2881615"><ele>525.0</ele><time>2026-03-28T09:45:52.981Z</time></trkpt><trkpt lat="44.0443477" lon="11.2881248"><ele>525.2857142857143</ele><time>2026-03-28T09:45:54.035Z</time></trkpt><trkpt lat="44.0442812" lon="11.2880779"><ele>525.5714285714286</ele><time>2026-03-28T09:45:55.036Z</time></trkpt><trkpt lat="44.0442215" lon="11.2880186"><ele>525.8571428571429</ele><time>2026-03-28T09:45:55.962Z</time></trkpt><trkpt lat="44.0441637" lon="11.2879573"><ele>526.1428571428571</ele><time>2026-03-28T09:45:56.967Z</time></trkpt><trkpt lat="44.0441092" lon="11.2878969"><ele>526.4285714285714</ele><time>2026-03-28T09:45:57.992Z</time></trkpt><trkpt lat="44.0440585" lon="11.2878437"><ele>526.7142857142858</ele><time>2026-03-28T09:45:59.031Z</time></trkpt><trkpt lat="44.0440068" lon="11.2877916"><ele>527.0</ele><time>2026-03-28T09:46:00.031Z</time></trkpt><trkpt lat="44.0439517" lon="11.287744"><ele>525.0</ele><time>2026-03-28T09:46:00.96Z</time></trkpt><trkpt lat="44.0438942" lon="11.2876958"><ele>523.0</ele><time>2026-03-28T09:46:01.96Z</time></trkpt><trkpt lat="44.0437815" lon="11.2876215"><ele>521.0</ele><time>2026-03-28T09:46:03.963Z</time></trkpt><trkpt lat="44.0437172" lon="11.2875973"><ele>519.0</ele><time>2026-03-28T09:46:04.961Z</time></trkpt><trkpt lat="44.0435968" lon="11.2875357"><ele>517.0</ele><time>2026-03-28T09:46:06.967Z</time></trkpt><trkpt lat="44.0434861" lon="11.2874778"><ele>517.0</ele><time>2026-03-28T09:46:08.962Z</time></trkpt><trkpt lat="44.0434222" lon="11.2874601"><ele>517.0</ele><time>2026-03-28T09:46:09.961Z</time></trkpt><trkpt lat="44.0433537" lon="11.2874383"><ele>517.0</ele><time>2026-03-28T09:46:10.957Z</time></trkpt><trkpt lat="44.0432919" lon="11.2874109"><ele>517.0</ele><time>2026-03-28T09:46:11.949Z</time></trkpt><trkpt lat="44.04317" lon="11.2873441"><ele>517.0</ele><time>2026-03-28T09:46:13.96Z</time></trkpt><trkpt lat="44.0431037" lon="11.2873177"><ele>517.0</ele><time>2026-03-28T09:46:15.025Z</time></trkpt><trkpt lat="44.043043" lon="11.2872944"><ele>516.1428571428571</ele><time>2026-03-28T09:46:15.962Z</time></trkpt><trkpt lat="44.0429812" lon="11.2872664"><ele>515.2857142857143</ele><time>2026-03-28T09:46:16.964Z</time></trkpt><trkpt lat="44.0429193" lon="11.2872417"><ele>514.4285714285714</ele><time>2026-03-28T09:46:17.998Z</time></trkpt><trkpt lat="44.0428539" lon="11.287217"><ele>513.5714285714286</ele><time>2026-03-28T09:46:18.955Z</time></trkpt><trkpt lat="44.0427819" lon="11.2871982"><ele>512.7142857142858</ele><time>2026-03-28T09:46:20.038Z</time></trkpt><trkpt lat="44.0427061" lon="11.2871786"><ele>511.8571428571429</ele><time>2026-03-28T09:46:20.963Z</time></trkpt><trkpt lat="44.0426279" lon="11.2871592"><ele>511.0</ele><time>2026-03-28T09:46:21.96Z</time></trkpt><trkpt lat="44.0425557" lon="11.287128"><ele>510.7142857142857</ele><time>2026-03-28T09:46:22.998Z</time></trkpt><trkpt lat="44.0424787" lon="11.2871091"><ele>510.42857142857144</ele><time>2026-03-28T09:46:24.028Z</time></trkpt><trkpt lat="44.0424035" lon="11.2870903"><ele>510.1428571428571</ele><time>2026-03-28T09:46:24.966Z</time></trkpt><trkpt lat="44.0423332" lon="11.2870732"><ele>509.85714285714283</ele><time>2026-03-28T09:46:25.977Z</time></trkpt><trkpt lat="44.0422626" lon="11.287053"><ele>509.57142857142856</ele><time>2026-03-28T09:46:27.029Z</time></trkpt><trkpt lat="44.0421896" lon="11.2870273"><ele>509.2857142857142</ele><time>2026-03-28T09:46:28.033Z</time></trkpt><trkpt lat="44.0421223" lon="11.2870061"><ele>508.99999999999994</ele><time>2026-03-28T09:46:29.035Z</time></trkpt><trkpt lat="44.0420541" lon="11.2869858"><ele>508.5714285714285</ele><time>2026-03-28T09:46:29.984Z</time></trkpt><trkpt lat="44.0419859" lon="11.2869656"><ele>508.1428571428571</ele><time>2026-03-28T09:46:30.984Z</time></trkpt><trkpt lat="44.041912" lon="11.286951"><ele>507.7142857142857</ele><time>2026-03-28T09:46:31.979Z</time></trkpt><trkpt lat="44.0418302" lon="11.2869352"><ele>507.2857142857143</ele><time>2026-03-28T09:46:33.026Z</time></trkpt><trkpt lat="44.0417557" lon="11.2869118"><ele>506.8571428571429</ele><time>2026-03-28T09:46:34.013Z</time></trkpt><trkpt lat="44.0416856" lon="11.2868878"><ele>506.4285714285715</ele><time>2026-03-28T09:46:34.984Z</time></trkpt><trkpt lat="44.0416174" lon="11.2868734"><ele>506.00000000000006</ele><time>2026-03-28T09:46:35.981Z</time></trkpt><trkpt lat="44.0415505" lon="11.2868547"><ele>505.8333333333333</ele><time>2026-03-28T09:46:36.981Z</time></trkpt><trkpt lat="44.041479" lon="11.2868352"><ele>505.66666666666663</ele><time>2026-03-28T09:46:37.987Z</time></trkpt><trkpt lat="44.0414045" lon="11.2868101"><ele>505.5</ele><time>2026-03-28T09:46:38.978Z</time></trkpt><trkpt lat="44.0413357" lon="11.2867908"><ele>505.33333333333337</ele><time>2026-03-28T09:46:40.027Z</time></trkpt><trkpt lat="44.0412707" lon="11.2867753"><ele>505.1666666666667</ele><time>2026-03-28T09:46:40.97Z</time></trkpt><trkpt lat="44.0412056" lon="11.2867646"><ele>505.0</ele><time>2026-03-28T09:46:41.973Z</time></trkpt><trkpt lat="44.0410869" lon="11.2867477"><ele>505.0</ele><time>2026-03-28T09:46:43.956Z</time></trkpt><trkpt lat="44.0410219" lon="11.2867387"><ele>504.99999999999994</ele><time>2026-03-28T09:46:44.966Z</time></trkpt><trkpt lat="44.0409576" lon="11.2867268"><ele>505.0</ele><time>2026-03-28T09:46:45.971Z</time></trkpt><trkpt lat="44.04089" lon="11.2867029"><ele>505.0</ele><time>2026-03-28T09:46:47.037Z</time></trkpt><trkpt lat="44.0408193" lon="11.2866811"><ele>504.99999999999994</ele><time>2026-03-28T09:46:48.042Z</time></trkpt><trkpt lat="44.0407462" lon="11.2866598"><ele>505.0</ele><time>2026-03-28T09:46:48.985Z</time></trkpt><trkpt lat="44.0406727" lon="11.2866388"><ele>505.0</ele><time>2026-03-28T09:46:49.981Z</time></trkpt><trkpt lat="44.0405995" lon="11.2866225"><ele>504.50000000000006</ele><time>2026-03-28T09:46:50.961Z</time></trkpt><trkpt lat="44.0405281" lon="11.2865919"><ele>504.0</ele><time>2026-03-28T09:46:51.973Z</time></trkpt><trkpt lat="44.0404533" lon="11.2865666"><ele>503.5</ele><time>2026-03-28T09:46:52.969Z</time></trkpt><trkpt lat="44.0403811" lon="11.2865357"><ele>503.0</ele><time>2026-03-28T09:46:53.963Z</time></trkpt><trkpt lat="44.0403029" lon="11.286515"><ele>502.50000000000006</ele><time>2026-03-28T09:46:54.972Z</time></trkpt><trkpt lat="44.040227" lon="11.2864977"><ele>502.0</ele><time>2026-03-28T09:46:55.968Z</time></trkpt><trkpt lat="44.0401563" lon="11.2864763"><ele>502.00000000000006</ele><time>2026-03-28T09:46:56.966Z</time></trkpt><trkpt lat="44.0400912" lon="11.2864574"><ele>502.0</ele><time>2026-03-28T09:46:57.976Z</time></trkpt><trkpt lat="44.040027" lon="11.2864382"><ele>502.0</ele><time>2026-03-28T09:46:58.962Z</time></trkpt><trkpt lat="44.039918" lon="11.2864055"><ele>502.0</ele><time>2026-03-28T09:47:00.963Z</time></trkpt><trkpt lat="44.0398185" lon="11.2863847"><ele>502.00000000000006</ele><time>2026-03-28T09:47:02.972Z</time></trkpt><trkpt lat="44.0397244" lon="11.2863538"><ele>502.0</ele><time>2026-03-28T09:47:04.967Z</time></trkpt><trkpt lat="44.0396228" lon="11.286329"><ele>501.20000000000005</ele><time>2026-03-28T09:47:06.971Z</time></trkpt><trkpt lat="44.0394936" lon="11.2863065"><ele>500.40000000000003</ele><time>2026-03-28T09:47:08.967Z</time></trkpt><trkpt lat="44.0394162" lon="11.2862845"><ele>499.59999999999997</ele><time>2026-03-28T09:47:09.966Z</time></trkpt><trkpt lat="44.039343" lon="11.2862603"><ele>498.79999999999995</ele><time>2026-03-28T09:47:10.966Z</time></trkpt><trkpt lat="44.0392609" lon="11.2862336"><ele>498.0</ele><time>2026-03-28T09:47:12.04Z</time></trkpt><trkpt lat="44.0391731" lon="11.2862134"><ele>497.0</ele><time>2026-03-28T09:47:13.026Z</time></trkpt><trkpt lat="44.039084" lon="11.2861917"><ele>496.0</ele><time>2026-03-28T09:47:14.027Z</time></trkpt><trkpt lat="44.0389975" lon="11.286175"><ele>495.0</ele><time>2026-03-28T09:47:15.031Z</time></trkpt><trkpt lat="44.0389177" lon="11.2861597"><ele>494.0</ele><time>2026-03-28T09:47:15.967Z</time></trkpt><trkpt lat="44.0388413" lon="11.2861487"><ele>493.0</ele><time>2026-03-28T09:47:17.026Z</time></trkpt><trkpt lat="44.0387654" lon="11.2861331"><ele>492.0</ele><time>2026-03-28T09:47:18.03Z</time></trkpt><trkpt lat="44.0386866" lon="11.2861154"><ele>492.00000000000006</ele><time>2026-03-28T09:47:19.03Z</time></trkpt><trkpt lat="44.0386068" lon="11.2861024"><ele>492.0</ele><time>2026-03-28T09:47:19.965Z</time></trkpt><trkpt lat="44.0385317" lon="11.286093"><ele>492.00000000000006</ele><time>2026-03-28T09:47:20.983Z</time></trkpt><trkpt lat="44.0384608" lon="11.286084"><ele>492.00000000000006</ele><time>2026-03-28T09:47:21.981Z</time></trkpt><trkpt lat="44.0383877" lon="11.2860743"><ele>492.0</ele><time>2026-03-28T09:47:23.038Z</time></trkpt><trkpt lat="44.0383132" lon="11.2860614"><ele>492.00000000000006</ele><time>2026-03-28T09:47:24.035Z</time></trkpt><trkpt lat="44.0382429" lon="11.2860528"><ele>492.00000000000006</ele><time>2026-03-28T09:47:25.029Z</time></trkpt><trkpt lat="44.038172" lon="11.286047"><ele>491.57142857142867</ele><time>2026-03-28T09:47:25.968Z</time></trkpt><trkpt lat="44.0381029" lon="11.2860411"><ele>491.14285714285717</ele><time>2026-03-28T09:47:26.97Z</time></trkpt><trkpt lat="44.0380315" lon="11.2860403"><ele>490.7142857142858</ele><time>2026-03-28T09:47:27.977Z</time></trkpt><trkpt lat="44.0379557" lon="11.2860264"><ele>490.28571428571433</ele><time>2026-03-28T09:47:29.03Z</time></trkpt><trkpt lat="44.0378866" lon="11.2860139"><ele>489.8571428571429</ele><time>2026-03-28T09:47:30.032Z</time></trkpt><trkpt lat="44.0378134" lon="11.2860011"><ele>489.42857142857144</ele><time>2026-03-28T09:47:30.961Z</time></trkpt><trkpt lat="44.0377485" lon="11.2859948"><ele>489.0</ele><time>2026-03-28T09:47:31.963Z</time></trkpt><trkpt lat="44.0376817" lon="11.2859853"><ele>489.0</ele><time>2026-03-28T09:47:32.985Z</time></trkpt><trkpt lat="44.0376166" lon="11.2859722"><ele>489.0</ele><time>2026-03-28T09:47:33.96Z</time></trkpt><trkpt lat="44.0374991" lon="11.2859459"><ele>489.0</ele><time>2026-03-28T09:47:35.96Z</time></trkpt><trkpt lat="44.0373975" lon="11.2859532"><ele>489.0</ele><time>2026-03-28T09:47:37.957Z</time></trkpt><trkpt lat="44.037305" lon="11.2859567"><ele>489.0</ele><time>2026-03-28T09:47:39.97Z</time></trkpt><trkpt lat="44.0372214" lon="11.2859671"><ele>488.5714285714286</ele><time>2026-03-28T09:47:41.966Z</time></trkpt><trkpt lat="44.037149" lon="11.2859973"><ele>488.1428571428572</ele><time>2026-03-28T09:47:43.959Z</time></trkpt><trkpt lat="44.0370838" lon="11.2860045"><ele>487.7142857142857</ele><time>2026-03-28T09:47:45.964Z</time></trkpt><trkpt lat="44.0370406" lon="11.2859373"><ele>487.28571428571433</ele><time>2026-03-28T09:47:47.946Z</time></trkpt><trkpt lat="44.0370001" lon="11.2858642"><ele>486.8571428571429</ele><time>2026-03-28T09:47:49.963Z</time></trkpt><trkpt lat="44.036919" lon="11.2858929"><ele>486.42857142857144</ele><time>2026-03-28T09:47:52.942Z</time></trkpt><trkpt lat="44.0370011" lon="11.2858657"><ele>486.0</ele><time>2026-03-28T09:48:03.944Z</time></trkpt><trkpt lat="44.0370515" lon="11.2857918"><ele>486.0</ele><time>2026-03-28T09:48:06.948Z</time></trkpt><trkpt lat="44.0370479" lon="11.2856993"><ele>486.0</ele><time>2026-03-28T09:48:10.032Z</time></trkpt><trkpt lat="44.0370531" lon="11.2856005"><ele>486.0</ele><time>2026-03-28T09:48:12.965Z</time></trkpt><trkpt lat="44.0370907" lon="11.2855249"><ele>486.0</ele><time>2026-03-28T09:48:15.962Z</time></trkpt><trkpt lat="44.03715" lon="11.2854736"><ele>486.0</ele><time>2026-03-28T09:48:18.965Z</time></trkpt><trkpt lat="44.037224" lon="11.285415"><ele>486.0</ele><time>2026-03-28T09:48:21.966Z</time></trkpt><trkpt lat="44.0372472" lon="11.2853097"><ele>486.0</ele><time>2026-03-28T09:48:27.959Z</time></trkpt><trkpt lat="44.0371608" lon="11.2853161"><ele>486.0</ele><time>2026-03-28T09:48:46.982Z</time></trkpt><trkpt lat="44.037213" lon="11.2853762"><ele>486.0</ele><time>2026-03-28T09:48:50.975Z</time></trkpt><trkpt lat="44.037263" lon="11.2854328"><ele>486.0</ele><time>2026-03-28T09:50:58.956Z</time></trkpt><trkpt lat="44.0371846" lon="11.2854818"><ele>486.0</ele><time>2026-03-28T09:51:02.966Z</time></trkpt><trkpt lat="44.0371243" lon="11.285515"><ele>486.0</ele><time>2026-03-28T09:51:04.949Z</time></trkpt><trkpt lat="44.0370593" lon="11.2855891"><ele>486.0</ele><time>2026-03-28T09:51:07.966Z</time></trkpt><trkpt lat="44.0370633" lon="11.2857051"><ele>486.0</ele><time>2026-03-28T09:51:10.954Z</time></trkpt><trkpt lat="44.0370718" lon="11.2858051"><ele>486.0</ele><time>2026-03-28T09:51:12.957Z</time></trkpt><trkpt lat="44.0370861" lon="11.2858959"><ele>486.0</ele><time>2026-03-28T09:51:14.955Z</time></trkpt><trkpt lat="44.0370366" lon="11.286038"><ele>486.0</ele><time>2026-03-28T09:51:17.962Z</time></trkpt><trkpt lat="44.0369257" lon="11.286134"><ele>486.0</ele><time>2026-03-28T09:51:19.954Z</time></trkpt><trkpt lat="44.0368622" lon="11.2861734"><ele>486.0</ele><time>2026-03-28T09:51:20.952Z</time></trkpt><trkpt lat="44.036787" lon="11.2862287"><ele>486.0</ele><time>2026-03-28T09:51:21.959Z</time></trkpt><trkpt lat="44.036717" lon="11.2862727"><ele>486.0</ele><time>2026-03-28T09:51:22.974Z</time></trkpt><trkpt lat="44.0366434" lon="11.2863281"><ele>486.0</ele><time>2026-03-28T09:51:23.955Z</time></trkpt><trkpt lat="44.0365703" lon="11.2863783"><ele>486.0</ele><time>2026-03-28T09:51:24.955Z</time></trkpt><trkpt lat="44.0364983" lon="11.2864265"><ele>486.0</ele><time>2026-03-28T09:51:25.958Z</time></trkpt><trkpt lat="44.0364275" lon="11.2864788"><ele>484.8</ele><time>2026-03-28T09:51:26.951Z</time></trkpt><trkpt lat="44.0363549" lon="11.2865291"><ele>483.6</ele><time>2026-03-28T09:51:27.961Z</time></trkpt><trkpt lat="44.0362779" lon="11.2865712"><ele>482.4</ele><time>2026-03-28T09:51:28.952Z</time></trkpt><trkpt lat="44.0361897" lon="11.2866078"><ele>481.2</ele><time>2026-03-28T09:51:29.956Z</time></trkpt><trkpt lat="44.0360979" lon="11.286644"><ele>480.0</ele><time>2026-03-28T09:51:30.958Z</time></trkpt><trkpt lat="44.0360032" lon="11.2866804"><ele>480.0</ele><time>2026-03-28T09:51:31.958Z</time></trkpt><trkpt lat="44.0359081" lon="11.2867143"><ele>480.0</ele><time>2026-03-28T09:51:32.956Z</time></trkpt><trkpt lat="44.0358094" lon="11.286741"><ele>480.0</ele><time>2026-03-28T09:51:33.957Z</time></trkpt><trkpt lat="44.0357072" lon="11.2867629"><ele>480.0</ele><time>2026-03-28T09:51:34.959Z</time></trkpt><trkpt lat="44.0356081" lon="11.2867852"><ele>480.0</ele><time>2026-03-28T09:51:35.954Z</time></trkpt><trkpt lat="44.0355109" lon="11.2868061"><ele>478.6</ele><time>2026-03-28T09:51:36.955Z</time></trkpt><trkpt lat="44.0354093" lon="11.2868259"><ele>477.2</ele><time>2026-03-28T09:51:37.96Z</time></trkpt><trkpt lat="44.0353085" lon="11.2868347"><ele>475.79999999999995</ele><time>2026-03-28T09:51:38.951Z</time></trkpt><trkpt lat="44.0352106" lon="11.2868165"><ele>474.4</ele><time>2026-03-28T09:51:39.95Z</time></trkpt><trkpt lat="44.0351137" lon="11.2867854"><ele>473.0</ele><time>2026-03-28T09:51:40.967Z</time></trkpt><trkpt lat="44.0350172" lon="11.2867327"><ele>472.0</ele><time>2026-03-28T09:51:41.955Z</time></trkpt><trkpt lat="44.0349218" lon="11.2866489"><ele>471.0</ele><time>2026-03-28T09:51:42.953Z</time></trkpt><trkpt lat="44.0348304" lon="11.2865549"><ele>470.0</ele><time>2026-03-28T09:51:43.957Z</time></trkpt><trkpt lat="44.0347497" lon="11.2864464"><ele>469.0</ele><time>2026-03-28T09:51:44.954Z</time></trkpt><trkpt lat="44.0346695" lon="11.2863387"><ele>469.0</ele><time>2026-03-28T09:51:45.965Z</time></trkpt><trkpt lat="44.0345698" lon="11.2862518"><ele>469.0</ele><time>2026-03-28T09:51:46.957Z</time></trkpt><trkpt lat="44.0344459" lon="11.2862052"><ele>469.0</ele><time>2026-03-28T09:51:47.957Z</time></trkpt><trkpt lat="44.0343171" lon="11.2861847"><ele>469.0</ele><time>2026-03-28T09:51:48.953Z</time></trkpt><trkpt lat="44.0341826" lon="11.2861974"><ele>468.75</ele><time>2026-03-28T09:51:49.954Z</time></trkpt><trkpt lat="44.0340509" lon="11.2862267"><ele>468.5</ele><time>2026-03-28T09:51:50.955Z</time></trkpt><trkpt lat="44.0339222" lon="11.2862606"><ele>468.25</ele><time>2026-03-28T09:51:51.951Z</time></trkpt><trkpt lat="44.0337984" lon="11.2863001"><ele>468.0</ele><time>2026-03-28T09:51:52.96Z</time></trkpt><trkpt lat="44.0336885" lon="11.2863668"><ele>466.0</ele><time>2026-03-28T09:51:53.961Z</time></trkpt><trkpt lat="44.0335944" lon="11.286494"><ele>464.0</ele><time>2026-03-28T09:51:54.953Z</time></trkpt><trkpt lat="44.0335243" lon="11.2866267"><ele>462.0</ele><time>2026-03-28T09:51:55.958Z</time></trkpt><trkpt lat="44.0334561" lon="11.2867572"><ele>460.0</ele><time>2026-03-28T09:51:56.954Z</time></trkpt><trkpt lat="44.0333837" lon="11.2868805"><ele>458.75</ele><time>2026-03-28T09:51:57.974Z</time></trkpt><trkpt lat="44.0332955" lon="11.2869768"><ele>457.5</ele><time>2026-03-28T09:51:58.953Z</time></trkpt><trkpt lat="44.0331824" lon="11.2870347"><ele>456.25</ele><time>2026-03-28T09:51:59.951Z</time></trkpt><trkpt lat="44.0330537" lon="11.2870535"><ele>455.0</ele><time>2026-03-28T09:52:00.958Z</time></trkpt><trkpt lat="44.0329266" lon="11.2870611"><ele>455.0</ele><time>2026-03-28T09:52:01.952Z</time></trkpt><trkpt lat="44.0328102" lon="11.2870756"><ele>455.0</ele><time>2026-03-28T09:52:02.967Z</time></trkpt><trkpt lat="44.0326899" lon="11.2870808"><ele>455.0</ele><time>2026-03-28T09:52:03.956Z</time></trkpt><trkpt lat="44.0325735" lon="11.2871177"><ele>455.0</ele><time>2026-03-28T09:52:04.955Z</time></trkpt><trkpt lat="44.0324565" lon="11.2871913"><ele>451.99999999999994</ele><time>2026-03-28T09:52:05.955Z</time></trkpt><trkpt lat="44.0323522" lon="11.2872708"><ele>449.0</ele><time>2026-03-28T09:52:06.955Z</time></trkpt><trkpt lat="44.032264" lon="11.287346"><ele>446.0</ele><time>2026-03-28T09:52:07.963Z</time></trkpt><trkpt lat="44.0322" lon="11.2873942"><ele>443.0</ele><time>2026-03-28T09:52:08.954Z</time></trkpt><trkpt lat="44.0321341" lon="11.2874382"><ele>439.99999999999994</ele><time>2026-03-28T09:52:10.956Z</time></trkpt><trkpt lat="44.0320804" lon="11.2873559"><ele>437.0</ele><time>2026-03-28T09:52:14.95Z</time></trkpt><trkpt lat="44.0320417" lon="11.2872857"><ele>437.85714285714283</ele><time>2026-03-28T09:52:16.953Z</time></trkpt><trkpt lat="44.0320096" lon="11.2872033"><ele>438.7142857142857</ele><time>2026-03-28T09:52:18.957Z</time></trkpt><trkpt lat="44.0320165" lon="11.2871003"><ele>439.57142857142856</ele><time>2026-03-28T09:52:21.946Z</time></trkpt><trkpt lat="44.0320588" lon="11.2870005"><ele>440.42857142857144</ele><time>2026-03-28T09:52:24.959Z</time></trkpt><trkpt lat="44.0320946" lon="11.2869173"><ele>441.28571428571433</ele><time>2026-03-28T09:52:28.955Z</time></trkpt><trkpt lat="44.0321215" lon="11.2868261"><ele>442.14285714285717</ele><time>2026-03-28T09:52:32.975Z</time></trkpt><trkpt lat="44.0321367" lon="11.2867323"><ele>443.0</ele><time>2026-03-28T09:52:35.958Z</time></trkpt><trkpt lat="44.0321292" lon="11.2866453"><ele>443.0</ele><time>2026-03-28T09:52:37.965Z</time></trkpt><trkpt lat="44.032146" lon="11.2865525"><ele>443.0</ele><time>2026-03-28T09:52:39.954Z</time></trkpt><trkpt lat="44.0321587" lon="11.286458"><ele>443.0</ele><time>2026-03-28T09:52:41.952Z</time></trkpt><trkpt lat="44.0321705" lon="11.2863653"><ele>443.0</ele><time>2026-03-28T09:52:43.959Z</time></trkpt><trkpt lat="44.0321814" lon="11.2862789"><ele>443.0</ele><time>2026-03-28T09:52:45.961Z</time></trkpt><trkpt lat="44.03218" lon="11.286157"><ele>443.0</ele><time>2026-03-28T09:52:48.963Z</time></trkpt><trkpt lat="44.0321981" lon="11.2860335"><ele>443.0</ele><time>2026-03-28T09:52:51.98Z</time></trkpt><trkpt lat="44.0322413" lon="11.2859412"><ele>443.49999999999994</ele><time>2026-03-28T09:52:55.035Z</time></trkpt><trkpt lat="44.0322614" lon="11.2858219"><ele>444.0</ele><time>2026-03-28T09:52:58.008Z</time></trkpt><trkpt lat="44.0322875" lon="11.2857225"><ele>444.5</ele><time>2026-03-28T09:53:00.974Z</time></trkpt><trkpt lat="44.0323222" lon="11.2856213"><ele>445.0</ele><time>2026-03-28T09:53:04.035Z</time></trkpt><trkpt lat="44.0323648" lon="11.2855224"><ele>445.49999999999994</ele><time>2026-03-28T09:53:06.96Z</time></trkpt><trkpt lat="44.0323724" lon="11.285424"><ele>446.0</ele><time>2026-03-28T09:53:13.951Z</time></trkpt><trkpt lat="44.0323719" lon="11.2853186"><ele>446.1428571428571</ele><time>2026-03-28T09:53:17.96Z</time></trkpt><trkpt lat="44.032384" lon="11.2852271"><ele>446.2857142857143</ele><time>2026-03-28T09:53:20.952Z</time></trkpt><trkpt lat="44.0323299" lon="11.2851804"><ele>446.42857142857144</ele><time>2026-03-28T09:53:32.966Z</time></trkpt><trkpt lat="44.0322624" lon="11.2851731"><ele>446.57142857142856</ele><time>2026-03-28T09:53:35.957Z</time></trkpt><trkpt lat="44.0321809" lon="11.2851964"><ele>446.7142857142857</ele><time>2026-03-28T09:53:39.028Z</time></trkpt><trkpt lat="44.0321185" lon="11.285184"><ele>446.85714285714283</ele><time>2026-03-28T09:53:42.959Z</time></trkpt><trkpt lat="44.0320692" lon="11.2851056"><ele>447.0</ele><time>2026-03-28T09:53:47.036Z</time></trkpt><trkpt lat="44.0320452" lon="11.2849947"><ele>447.0</ele><time>2026-03-28T09:53:49.948Z</time></trkpt><trkpt lat="44.0320251" lon="11.2848869"><ele>447.0</ele><time>2026-03-28T09:53:52.957Z</time></trkpt><trkpt lat="44.0319952" lon="11.2847853"><ele>447.0</ele><time>2026-03-28T09:53:55.965Z</time></trkpt><trkpt lat="44.0319509" lon="11.2846836"><ele>447.0</ele><time>2026-03-28T09:53:59.962Z</time></trkpt><trkpt lat="44.0319016" lon="11.2845994"><ele>447.0</ele><time>2026-03-28T09:54:02.947Z</time></trkpt><trkpt lat="44.031855" lon="11.2845359"><ele>447.0</ele><time>2026-03-28T09:54:04.963Z</time></trkpt><trkpt lat="44.0318094" lon="11.2844653"><ele>446.71428571428567</ele><time>2026-03-28T09:54:06.962Z</time></trkpt><trkpt lat="44.031761" lon="11.2843988"><ele>446.42857142857144</ele><time>2026-03-28T09:54:08.964Z</time></trkpt><trkpt lat="44.0316954" lon="11.2843172"><ele>446.1428571428571</ele><time>2026-03-28T09:54:11.968Z</time></trkpt><trkpt lat="44.0316421" lon="11.2842647"><ele>445.85714285714283</ele><time>2026-03-28T09:56:56.955Z</time></trkpt><trkpt lat="44.0315934" lon="11.2841653"><ele>445.57142857142856</ele><time>2026-03-28T09:56:59.955Z</time></trkpt><trkpt lat="44.0315593" lon="11.2840886"><ele>445.2857142857143</ele><time>2026-03-28T09:57:01.945Z</time></trkpt><trkpt lat="44.0315144" lon="11.284006"><ele>445.0</ele><time>2026-03-28T09:57:03.954Z</time></trkpt><trkpt lat="44.0314582" lon="11.2839475"><ele>442.83333333333337</ele><time>2026-03-28T09:57:05.942Z</time></trkpt><trkpt lat="44.0314058" lon="11.2838669"><ele>440.6666666666667</ele><time>2026-03-28T09:57:07.958Z</time></trkpt><trkpt lat="44.0313576" lon="11.2837869"><ele>438.5</ele><time>2026-03-28T09:57:09.947Z</time></trkpt><trkpt lat="44.0313206" lon="11.2837139"><ele>436.33333333333337</ele><time>2026-03-28T09:57:11.954Z</time></trkpt><trkpt lat="44.0312552" lon="11.2836252"><ele>434.1666666666667</ele><time>2026-03-28T09:57:14.956Z</time></trkpt><trkpt lat="44.0312042" lon="11.2835598"><ele>432.0</ele><time>2026-03-28T09:57:16.958Z</time></trkpt><trkpt lat="44.0311412" lon="11.2834895"><ele>432.0</ele><time>2026-03-28T09:57:18.949Z</time></trkpt><trkpt lat="44.0310868" lon="11.2834243"><ele>432.0</ele><time>2026-03-28T09:57:20.953Z</time></trkpt><trkpt lat="44.0310255" lon="11.283358"><ele>432.0</ele><time>2026-03-28T09:57:22.951Z</time></trkpt><trkpt lat="44.0309588" lon="11.2833264"><ele>432.0</ele><time>2026-03-28T09:57:24.954Z</time></trkpt><trkpt lat="44.0308843" lon="11.283322"><ele>432.0</ele><time>2026-03-28T09:57:26.954Z</time></trkpt><trkpt lat="44.030811" lon="11.2833259"><ele>432.0</ele><time>2026-03-28T09:57:28.952Z</time></trkpt><trkpt lat="44.0307311" lon="11.283332"><ele>432.0</ele><time>2026-03-28T09:57:30.955Z</time></trkpt><trkpt lat="44.0306431" lon="11.2833412"><ele>430.1666666666667</ele><time>2026-03-28T09:57:32.95Z</time></trkpt><trkpt lat="44.0305637" lon="11.2833442"><ele>428.33333333333337</ele><time>2026-03-28T09:57:34.955Z</time></trkpt><trkpt lat="44.03047" lon="11.2833452"><ele>426.5</ele><time>2026-03-28T09:57:36.954Z</time></trkpt><trkpt lat="44.0303837" lon="11.2833335"><ele>424.6666666666667</ele><time>2026-03-28T09:57:38.953Z</time></trkpt><trkpt lat="44.0302918" lon="11.2833117"><ele>422.83333333333337</ele><time>2026-03-28T09:57:40.955Z</time></trkpt><trkpt lat="44.0302023" lon="11.2832867"><ele>421.0</ele><time>2026-03-28T09:57:42.956Z</time></trkpt><trkpt lat="44.0301231" lon="11.2832472"><ele>421.00000000000006</ele><time>2026-03-28T09:57:44.956Z</time></trkpt><trkpt lat="44.0300524" lon="11.283222"><ele>421.0</ele><time>2026-03-28T09:57:46.95Z</time></trkpt><trkpt lat="44.0299797" lon="11.2831914"><ele>421.0</ele><time>2026-03-28T09:57:48.951Z</time></trkpt><trkpt lat="44.0299197" lon="11.283145"><ele>421.0</ele><time>2026-03-28T09:57:50.951Z</time></trkpt><trkpt lat="44.0298428" lon="11.2830911"><ele>421.00000000000006</ele><time>2026-03-28T09:57:53.961Z</time></trkpt><trkpt lat="44.0297883" lon="11.2830413"><ele>421.0</ele><time>2026-03-28T09:57:57.951Z</time></trkpt><trkpt lat="44.0297077" lon="11.2829966"><ele>418.6666666666667</ele><time>2026-03-28T09:58:00.954Z</time></trkpt><trkpt lat="44.0296502" lon="11.2829584"><ele>416.33333333333337</ele><time>2026-03-28T09:58:02.948Z</time></trkpt><trkpt lat="44.029586" lon="11.2829152"><ele>414.0</ele><time>2026-03-28T09:58:04.947Z</time></trkpt><trkpt lat="44.0295109" lon="11.2828698"><ele>411.66666666666663</ele><time>2026-03-28T09:58:06.954Z</time></trkpt><trkpt lat="44.0294281" lon="11.2828212"><ele>409.3333333333333</ele><time>2026-03-28T09:58:08.953Z</time></trkpt><trkpt lat="44.0293507" lon="11.282763"><ele>407.0</ele><time>2026-03-28T09:58:10.956Z</time></trkpt><trkpt lat="44.0292743" lon="11.2827064"><ele>406.99999999999994</ele><time>2026-03-28T09:58:12.955Z</time></trkpt><trkpt lat="44.0292073" lon="11.2826591"><ele>407.0</ele><time>2026-03-28T09:58:14.951Z</time></trkpt><trkpt lat="44.0291366" lon="11.2826186"><ele>407.0</ele><time>2026-03-28T09:58:16.953Z</time></trkpt><trkpt lat="44.0290722" lon="11.2825867"><ele>407.0</ele><time>2026-03-28T09:58:18.947Z</time></trkpt><trkpt lat="44.029007" lon="11.2825531"><ele>406.99999999999994</ele><time>2026-03-28T09:58:20.941Z</time></trkpt><trkpt lat="44.0289209" lon="11.2825087"><ele>407.0</ele><time>2026-03-28T09:58:23.972Z</time></trkpt><trkpt lat="44.0288427" lon="11.2824622"><ele>405.16666666666663</ele><time>2026-03-28T09:58:26.945Z</time></trkpt><trkpt lat="44.0287688" lon="11.2824121"><ele>403.3333333333333</ele><time>2026-03-28T09:58:29.944Z</time></trkpt><trkpt lat="44.0286919" lon="11.282428"><ele>401.5</ele><time>2026-03-28T09:58:33.941Z</time></trkpt><trkpt lat="44.0286512" lon="11.2825187"><ele>399.66666666666663</ele><time>2026-03-28T09:58:36.948Z</time></trkpt><trkpt lat="44.0286062" lon="11.2825974"><ele>397.8333333333333</ele><time>2026-03-28T09:58:38.951Z</time></trkpt><trkpt lat="44.0285543" lon="11.2826748"><ele>396.0</ele><time>2026-03-28T09:58:40.965Z</time></trkpt><trkpt lat="44.0285027" lon="11.282739"><ele>396.0</ele><time>2026-03-28T09:58:42.944Z</time></trkpt><trkpt lat="44.0284288" lon="11.2828264"><ele>396.0</ele><time>2026-03-28T09:58:45.957Z</time></trkpt><trkpt lat="44.0283704" lon="11.2828641"><ele>396.0</ele><time>2026-03-28T09:58:47.957Z</time></trkpt><trkpt lat="44.0283114" lon="11.2829039"><ele>396.0</ele><time>2026-03-28T09:58:49.959Z</time></trkpt><trkpt lat="44.0282207" lon="11.2829379"><ele>396.0</ele><time>2026-03-28T09:59:32.957Z</time></trkpt><trkpt lat="44.0281408" lon="11.2829317"><ele>396.0</ele><time>2026-03-28T09:59:36.946Z</time></trkpt><trkpt lat="44.0280643" lon="11.2829423"><ele>394.8571428571429</ele><time>2026-03-28T09:59:40.947Z</time></trkpt><trkpt lat="44.0279983" lon="11.2829928"><ele>393.71428571428567</ele><time>2026-03-28T09:59:43.959Z</time></trkpt><trkpt lat="44.0279387" lon="11.283049"><ele>392.57142857142856</ele><time>2026-03-28T09:59:45.955Z</time></trkpt><trkpt lat="44.0278845" lon="11.2831045"><ele>391.42857142857144</ele><time>2026-03-28T09:59:47.962Z</time></trkpt><trkpt lat="44.0278182" lon="11.2831822"><ele>390.28571428571433</ele><time>2026-03-28T09:59:50.974Z</time></trkpt><trkpt lat="44.0277614" lon="11.2832336"><ele>389.1428571428571</ele><time>2026-03-28T09:59:52.972Z</time></trkpt><trkpt lat="44.0277056" lon="11.2832885"><ele>388.0</ele><time>2026-03-28T09:59:54.958Z</time></trkpt><trkpt lat="44.0276247" lon="11.2833352"><ele>386.83333333333337</ele><time>2026-03-28T09:59:57.957Z</time></trkpt><trkpt lat="44.0275586" lon="11.2834191"><ele>385.6666666666667</ele><time>2026-03-28T10:00:00.96Z</time></trkpt><trkpt lat="44.0275139" lon="11.2835062"><ele>384.5</ele><time>2026-03-28T10:00:03.959Z</time></trkpt><trkpt lat="44.0274475" lon="11.283585"><ele>383.33333333333337</ele><time>2026-03-28T10:00:06.956Z</time></trkpt><trkpt lat="44.0273834" lon="11.2835958"><ele>382.1666666666667</ele><time>2026-03-28T10:00:08.965Z</time></trkpt><trkpt lat="44.0273064" lon="11.2835953"><ele>381.0</ele><time>2026-03-28T10:00:10.966Z</time></trkpt><trkpt lat="44.0272218" lon="11.2835929"><ele>379.3333333333333</ele><time>2026-03-28T10:00:12.964Z</time></trkpt><trkpt lat="44.0271285" lon="11.2835937"><ele>377.6666666666667</ele><time>2026-03-28T10:00:14.959Z</time></trkpt><trkpt lat="44.0270411" lon="11.2835849"><ele>376.0</ele><time>2026-03-28T10:00:16.949Z</time></trkpt><trkpt lat="44.0269467" lon="11.2836041"><ele>374.33333333333337</ele><time>2026-03-28T10:00:18.941Z</time></trkpt><trkpt lat="44.0268664" lon="11.2836103"><ele>372.6666666666667</ele><time>2026-03-28T10:00:20.945Z</time></trkpt><trkpt lat="44.0268005" lon="11.2836106"><ele>371.0</ele><time>2026-03-28T10:00:22.964Z</time></trkpt><trkpt lat="44.0267327" lon="11.2836067"><ele>371.0</ele><time>2026-03-28T10:00:24.964Z</time></trkpt><trkpt lat="44.0266452" lon="11.2836153"><ele>371.0</ele><time>2026-03-28T10:00:27.964Z</time></trkpt><trkpt lat="44.0265585" lon="11.2836734"><ele>371.0</ele><time>2026-03-28T10:00:30.956Z</time></trkpt><trkpt lat="44.026486" lon="11.2837398"><ele>371.0</ele><time>2026-03-28T10:00:32.963Z</time></trkpt><trkpt lat="44.0264057" lon="11.2838605"><ele>371.0</ele><time>2026-03-28T10:00:34.974Z</time></trkpt><trkpt lat="44.02631" lon="11.2839626"><ele>370.83333333333337</ele><time>2026-03-28T10:00:36.969Z</time></trkpt><trkpt lat="44.0262345" lon="11.2840303"><ele>370.6666666666667</ele><time>2026-03-28T10:00:38.969Z</time></trkpt><trkpt lat="44.0261618" lon="11.2841102"><ele>370.5</ele><time>2026-03-28T10:00:41.97Z</time></trkpt><trkpt lat="44.0260837" lon="11.2840692"><ele>370.3333333333333</ele><time>2026-03-28T10:00:59.97Z</time></trkpt><trkpt lat="44.0260328" lon="11.2839896"><ele>370.16666666666663</ele><time>2026-03-28T10:01:02.971Z</time></trkpt><trkpt lat="44.0259745" lon="11.2839219"><ele>370.0</ele><time>2026-03-28T10:01:05.966Z</time></trkpt><trkpt lat="44.0258785" lon="11.2838939"><ele>368.71428571428567</ele><time>2026-03-28T10:01:08.964Z</time></trkpt><trkpt lat="44.0258002" lon="11.2838823"><ele>367.42857142857144</ele><time>2026-03-28T10:01:10.96Z</time></trkpt><trkpt lat="44.0257186" lon="11.2838718"><ele>366.1428571428571</ele><time>2026-03-28T10:01:12.975Z</time></trkpt><trkpt lat="44.0256442" lon="11.2838512"><ele>364.85714285714283</ele><time>2026-03-28T10:01:14.965Z</time></trkpt><trkpt lat="44.0255735" lon="11.2838364"><ele>363.57142857142856</ele><time>2026-03-28T10:01:16.971Z</time></trkpt><trkpt lat="44.0255077" lon="11.2838191"><ele>362.2857142857143</ele><time>2026-03-28T10:01:18.98Z</time></trkpt><trkpt lat="44.0254375" lon="11.2837922"><ele>361.0</ele><time>2026-03-28T10:01:20.942Z</time></trkpt><trkpt lat="44.0253587" lon="11.2837787"><ele>361.0</ele><time>2026-03-28T10:01:22.971Z</time></trkpt><trkpt lat="44.0252856" lon="11.2837621"><ele>361.0</ele><time>2026-03-28T10:01:24.973Z</time></trkpt><trkpt lat="44.0252202" lon="11.2837077"><ele>361.0</ele><time>2026-03-28T10:01:27.957Z</time></trkpt><trkpt lat="44.0252585" lon="11.2835903"><ele>361.0</ele><time>2026-03-28T10:01:31.975Z</time></trkpt><trkpt lat="44.0253188" lon="11.2835241"><ele>361.0</ele><time>2026-03-28T10:01:33.972Z</time></trkpt><trkpt lat="44.0253974" lon="11.2834311"><ele>361.0</ele><time>2026-03-28T10:01:35.958Z</time></trkpt><trkpt lat="44.0254647" lon="11.2833604"><ele>361.0</ele><time>2026-03-28T10:01:37.972Z</time></trkpt><trkpt lat="44.0255362" lon="11.2832799"><ele>361.0</ele><time>2026-03-28T10:01:39.982Z</time></trkpt><trkpt lat="44.0256069" lon="11.2832163"><ele>361.0</ele><time>2026-03-28T10:01:41.964Z</time></trkpt><trkpt lat="44.0256786" lon="11.2831485"><ele>361.0</ele><time>2026-03-28T10:01:44.024Z</time></trkpt><trkpt lat="44.0257646" lon="11.2830982"><ele>361.0</ele><time>2026-03-28T10:01:45.973Z</time></trkpt><trkpt lat="44.0258588" lon="11.2830768"><ele>361.6</ele><time>2026-03-28T10:01:47.958Z</time></trkpt><trkpt lat="44.0259373" lon="11.2831089"><ele>362.20000000000005</ele><time>2026-03-28T10:01:49.959Z</time></trkpt><trkpt lat="44.0260395" lon="11.2831059"><ele>362.79999999999995</ele><time>2026-03-28T10:01:51.968Z</time></trkpt><trkpt lat="44.0261518" lon="11.2830846"><ele>363.4</ele><time>2026-03-28T10:01:53.975Z</time></trkpt><trkpt lat="44.0262606" lon="11.2830292"><ele>364.0</ele><time>2026-03-28T10:01:55.956Z</time></trkpt><trkpt lat="44.0263795" lon="11.283012"><ele>364.0</ele><time>2026-03-28T10:01:57.952Z</time></trkpt><trkpt lat="44.0264437" lon="11.2830017"><ele>364.0</ele><time>2026-03-28T10:01:58.956Z</time></trkpt><trkpt lat="44.0265527" lon="11.2829946"><ele>364.0</ele><time>2026-03-28T10:02:00.972Z</time></trkpt><trkpt lat="44.0266277" lon="11.2829776"><ele>364.0</ele><time>2026-03-28T10:02:02.96Z</time></trkpt><trkpt lat="44.026675" lon="11.2828797"><ele>364.0</ele><time>2026-03-28T10:02:04.968Z</time></trkpt><trkpt lat="44.026728" lon="11.2827986"><ele>364.0</ele><time>2026-03-28T10:02:06.976Z</time></trkpt><trkpt lat="44.0268048" lon="11.2827372"><ele>366.4</ele><time>2026-03-28T10:02:08.962Z</time></trkpt><trkpt lat="44.0268958" lon="11.2826741"><ele>368.79999999999995</ele><time>2026-03-28T10:02:10.958Z</time></trkpt><trkpt lat="44.0270064" lon="11.2826073"><ele>371.20000000000005</ele><time>2026-03-28T10:02:12.948Z</time></trkpt><trkpt lat="44.0270877" lon="11.2825513"><ele>373.6</ele><time>2026-03-28T10:02:15.036Z</time></trkpt><trkpt lat="44.0271405" lon="11.2824904"><ele>376.0</ele><time>2026-03-28T10:02:27.948Z</time></trkpt><trkpt lat="44.0271728" lon="11.2824005"><ele>376.0</ele><time>2026-03-28T10:02:34.97Z</time></trkpt><trkpt lat="44.0271887" lon="11.2822997"><ele>376.0</ele><time>2026-03-28T10:02:38.951Z</time></trkpt><trkpt lat="44.0272222" lon="11.2821726"><ele>376.0</ele><time>2026-03-28T10:02:41.977Z</time></trkpt><trkpt lat="44.0272393" lon="11.2820878"><ele>376.0</ele><time>2026-03-28T10:02:43.976Z</time></trkpt><trkpt lat="44.0272463" lon="11.2819971"><ele>376.0</ele><time>2026-03-28T10:02:45.963Z</time></trkpt><trkpt lat="44.0272685" lon="11.281889"><ele>376.0</ele><time>2026-03-28T10:02:47.968Z</time></trkpt><trkpt lat="44.0272764" lon="11.2817902"><ele>377.3333333333333</ele><time>2026-03-28T10:02:49.993Z</time></trkpt><trkpt lat="44.0272891" lon="11.2816938"><ele>378.66666666666663</ele><time>2026-03-28T10:02:53.967Z</time></trkpt><trkpt lat="44.0273277" lon="11.2815784"><ele>380.0</ele><time>2026-03-28T10:04:15.975Z</time></trkpt><trkpt lat="44.0273536" lon="11.2814981"><ele>381.3333333333333</ele><time>2026-03-28T10:04:20.964Z</time></trkpt><trkpt lat="44.0273241" lon="11.2813947"><ele>382.6666666666667</ele><time>2026-03-28T10:04:28.976Z</time></trkpt><trkpt lat="44.0272459" lon="11.2813455"><ele>384.0</ele><time>2026-03-28T10:04:31.961Z</time></trkpt><trkpt lat="44.0271897" lon="11.2813048"><ele>384.3333333333333</ele><time>2026-03-28T10:04:34.977Z</time></trkpt><trkpt lat="44.027132" lon="11.2812604"><ele>384.66666666666663</ele><time>2026-03-28T10:04:38.961Z</time></trkpt><trkpt lat="44.0270744" lon="11.2811981"><ele>385.0</ele><time>2026-03-28T10:04:42.968Z</time></trkpt><trkpt lat="44.0270282" lon="11.2811301"><ele>385.3333333333333</ele><time>2026-03-28T10:04:47.045Z</time></trkpt><trkpt lat="44.0269823" lon="11.2810212"><ele>385.66666666666663</ele><time>2026-03-28T10:04:49.971Z</time></trkpt><trkpt lat="44.0269394" lon="11.2809116"><ele>386.0</ele><time>2026-03-28T10:04:51.969Z</time></trkpt><trkpt lat="44.0268956" lon="11.2808173"><ele>385.99999999999994</ele><time>2026-03-28T10:04:53.967Z</time></trkpt><trkpt lat="44.026851" lon="11.280715"><ele>386.0</ele><time>2026-03-28T10:04:56.978Z</time></trkpt><trkpt lat="44.0268294" lon="11.2806141"><ele>386.0</ele><time>2026-03-28T10:05:00.975Z</time></trkpt><trkpt lat="44.0268064" lon="11.2805192"><ele>386.0</ele><time>2026-03-28T10:05:03.977Z</time></trkpt><trkpt lat="44.0267799" lon="11.2803972"><ele>385.99999999999994</ele><time>2026-03-28T10:05:06.975Z</time></trkpt><trkpt lat="44.0267414" lon="11.2802817"><ele>386.0</ele><time>2026-03-28T10:05:08.974Z</time></trkpt><trkpt lat="44.0266984" lon="11.2802161"><ele>385.3333333333333</ele><time>2026-03-28T10:05:09.98Z</time></trkpt><trkpt lat="44.0266307" lon="11.2800904"><ele>384.66666666666663</ele><time>2026-03-28T10:05:11.978Z</time></trkpt><trkpt lat="44.0265839" lon="11.2799708"><ele>384.0</ele><time>2026-03-28T10:05:13.963Z</time></trkpt><trkpt lat="44.0265422" lon="11.2798838"><ele>383.3333333333333</ele><time>2026-03-28T10:05:15.974Z</time></trkpt><trkpt lat="44.026471" lon="11.2798387"><ele>382.66666666666663</ele><time>2026-03-28T10:05:17.983Z</time></trkpt><trkpt lat="44.0264118" lon="11.2797998"><ele>382.0</ele><time>2026-03-28T10:05:19.979Z</time></trkpt><trkpt lat="44.0263394" lon="11.279748"><ele>385.40000000000003</ele><time>2026-03-28T10:05:21.976Z</time></trkpt><trkpt lat="44.02624" lon="11.2796993"><ele>388.8</ele><time>2026-03-28T10:05:23.98Z</time></trkpt><trkpt lat="44.0261417" lon="11.2796594"><ele>392.2</ele><time>2026-03-28T10:05:25.962Z</time></trkpt><trkpt lat="44.0260282" lon="11.2796407"><ele>395.6</ele><time>2026-03-28T10:05:28.026Z</time></trkpt><trkpt lat="44.0259149" lon="11.27963"><ele>399.0</ele><time>2026-03-28T10:05:29.964Z</time></trkpt><trkpt lat="44.0258068" lon="11.2796086"><ele>400.2</ele><time>2026-03-28T10:05:31.969Z</time></trkpt><trkpt lat="44.0257123" lon="11.2795702"><ele>401.4</ele><time>2026-03-28T10:05:33.975Z</time></trkpt><trkpt lat="44.0256255" lon="11.2794818"><ele>402.6</ele><time>2026-03-28T10:05:35.966Z</time></trkpt><trkpt lat="44.0255319" lon="11.2794048"><ele>403.8</ele><time>2026-03-28T10:05:37.958Z</time></trkpt><trkpt lat="44.0254457" lon="11.2793379"><ele>405.0</ele><time>2026-03-28T10:05:39.972Z</time></trkpt><trkpt lat="44.0253471" lon="11.2792808"><ele>405.0</ele><time>2026-03-28T10:05:41.962Z</time></trkpt><trkpt lat="44.0252552" lon="11.2792166"><ele>405.0</ele><time>2026-03-28T10:05:43.964Z</time></trkpt><trkpt lat="44.0251618" lon="11.2791612"><ele>405.0</ele><time>2026-03-28T10:05:45.959Z</time></trkpt><trkpt lat="44.0250629" lon="11.2791274"><ele>405.0</ele><time>2026-03-28T10:05:47.971Z</time></trkpt><trkpt lat="44.0249641" lon="11.2791046"><ele>405.0</ele><time>2026-03-28T10:05:50.031Z</time></trkpt><trkpt lat="44.0248542" lon="11.2790907"><ele>404.8333333333333</ele><time>2026-03-28T10:05:51.977Z</time></trkpt><trkpt lat="44.0247617" lon="11.2791038"><ele>404.66666666666663</ele><time>2026-03-28T10:05:54.968Z</time></trkpt><trkpt lat="44.0246885" lon="11.2791129"><ele>404.5</ele><time>2026-03-28T10:05:57.037Z</time></trkpt><trkpt lat="44.0246149" lon="11.2791095"><ele>404.3333333333333</ele><time>2026-03-28T10:05:58.967Z</time></trkpt><trkpt lat="44.024547" lon="11.279114"><ele>404.16666666666663</ele><time>2026-03-28T10:06:01.024Z</time></trkpt><trkpt lat="44.0244794" lon="11.2791421"><ele>404.0</ele><time>2026-03-28T10:06:02.964Z</time></trkpt><trkpt lat="44.0244151" lon="11.2791986"><ele>403.99999999999994</ele><time>2026-03-28T10:06:05.958Z</time></trkpt><trkpt lat="44.0243583" lon="11.2792484"><ele>404.0</ele><time>2026-03-28T10:06:08.039Z</time></trkpt><trkpt lat="44.0242595" lon="11.2793175"><ele>404.0</ele><time>2026-03-28T10:06:09.954Z</time></trkpt><trkpt lat="44.0242031" lon="11.2793634"><ele>404.0</ele><time>2026-03-28T10:06:10.966Z</time></trkpt><trkpt lat="44.0241449" lon="11.2794092"><ele>403.99999999999994</ele><time>2026-03-28T10:06:11.967Z</time></trkpt><trkpt lat="44.0240891" lon="11.2794565"><ele>404.0</ele><time>2026-03-28T10:06:12.955Z</time></trkpt><trkpt lat="44.0239832" lon="11.2795281"><ele>403.99999999999994</ele><time>2026-03-28T10:06:14.962Z</time></trkpt><trkpt lat="44.0239194" lon="11.2795723"><ele>404.0</ele><time>2026-03-28T10:06:15.983Z</time></trkpt><trkpt lat="44.023855" lon="11.279604"><ele>404.0</ele><time>2026-03-28T10:06:16.951Z</time></trkpt><trkpt lat="44.0237906" lon="11.2796314"><ele>404.0</ele><time>2026-03-28T10:06:17.971Z</time></trkpt><trkpt lat="44.0236993" lon="11.2796696"><ele>403.99999999999994</ele><time>2026-03-28T10:06:20.024Z</time></trkpt><trkpt lat="44.0236052" lon="11.2796822"><ele>404.0</ele><time>2026-03-28T10:06:21.969Z</time></trkpt><trkpt lat="44.0234981" lon="11.2797119"><ele>404.0</ele><time>2026-03-28T10:06:23.97Z</time></trkpt><trkpt lat="44.0233849" lon="11.2797396"><ele>404.0</ele><time>2026-03-28T10:06:25.974Z</time></trkpt><trkpt lat="44.0232581" lon="11.2797763"><ele>404.0</ele><time>2026-03-28T10:06:27.979Z</time></trkpt><trkpt lat="44.0231892" lon="11.2797956"><ele>404.0</ele><time>2026-03-28T10:06:28.968Z</time></trkpt><trkpt lat="44.0231185" lon="11.2798082"><ele>404.0</ele><time>2026-03-28T10:06:29.973Z</time></trkpt><trkpt lat="44.0230487" lon="11.2798164"><ele>405.4</ele><time>2026-03-28T10:06:30.965Z</time></trkpt><trkpt lat="44.0229847" lon="11.2798252"><ele>406.79999999999995</ele><time>2026-03-28T10:06:31.968Z</time></trkpt><trkpt lat="44.0228571" lon="11.2798635"><ele>408.20000000000005</ele><time>2026-03-28T10:06:33.98Z</time></trkpt><trkpt lat="44.0227493" lon="11.2799359"><ele>409.6</ele><time>2026-03-28T10:06:35.967Z</time></trkpt><trkpt lat="44.0226507" lon="11.2800451"><ele>411.0</ele><time>2026-03-28T10:06:37.965Z</time></trkpt><trkpt lat="44.0226025" lon="11.2801017"><ele>411.0</ele><time>2026-03-28T10:06:38.968Z</time></trkpt><trkpt lat="44.0225506" lon="11.2801555"><ele>411.0</ele><time>2026-03-28T10:06:40.032Z</time></trkpt><trkpt lat="44.0224466" lon="11.2802379"><ele>411.0</ele><time>2026-03-28T10:06:41.96Z</time></trkpt><trkpt lat="44.0223922" lon="11.2802848"><ele>411.0</ele><time>2026-03-28T10:06:42.966Z</time></trkpt><trkpt lat="44.022303" lon="11.2803911"><ele>411.0</ele><time>2026-03-28T10:06:45.034Z</time></trkpt><trkpt lat="44.0222168" lon="11.2804834"><ele>410.8</ele><time>2026-03-28T10:06:46.971Z</time></trkpt><trkpt lat="44.0221532" lon="11.2805829"><ele>410.6</ele><time>2026-03-28T10:06:49.032Z</time></trkpt><trkpt lat="44.0221262" lon="11.2807146"><ele>410.4</ele><time>2026-03-28T10:06:50.972Z</time></trkpt><trkpt lat="44.0221078" lon="11.2808602"><ele>410.2</ele><time>2026-03-28T10:06:52.976Z</time></trkpt><trkpt lat="44.0220736" lon="11.280971"><ele>410.0</ele><time>2026-03-28T10:06:55.015Z</time></trkpt><trkpt lat="44.0220491" lon="11.2810589"><ele>409.99999999999994</ele><time>2026-03-28T10:06:56.973Z</time></trkpt><trkpt lat="44.0220218" lon="11.2811492"><ele>410.0</ele><time>2026-03-28T10:07:03.978Z</time></trkpt><trkpt lat="44.0219683" lon="11.2812127"><ele>410.0</ele><time>2026-03-28T10:07:06.992Z</time></trkpt><trkpt lat="44.0218908" lon="11.2812802"><ele>410.0</ele><time>2026-03-28T10:07:08.969Z</time></trkpt><trkpt lat="44.0217923" lon="11.2813259"><ele>409.99999999999994</ele><time>2026-03-28T10:07:10.967Z</time></trkpt><trkpt lat="44.0217208" lon="11.2813368"><ele>410.0</ele><time>2026-03-28T10:07:11.965Z</time></trkpt><trkpt lat="44.0216516" lon="11.2813373"><ele>405.8</ele><time>2026-03-28T10:07:12.967Z</time></trkpt><trkpt lat="44.0215419" lon="11.28133"><ele>401.6</ele><time>2026-03-28T10:07:14.956Z</time></trkpt><trkpt lat="44.0214346" lon="11.2813257"><ele>397.4</ele><time>2026-03-28T10:07:16.968Z</time></trkpt><trkpt lat="44.0213438" lon="11.2812743"><ele>393.2</ele><time>2026-03-28T10:07:18.96Z</time></trkpt><trkpt lat="44.0212753" lon="11.281145"><ele>389.0</ele><time>2026-03-28T10:07:20.969Z</time></trkpt><trkpt lat="44.0212264" lon="11.2810712"><ele>388.99999999999994</ele><time>2026-03-28T10:07:22.056Z</time></trkpt><trkpt lat="44.0211759" lon="11.2809907"><ele>389.0</ele><time>2026-03-28T10:07:23.034Z</time></trkpt><trkpt lat="44.0211264" lon="11.2809099"><ele>389.0</ele><time>2026-03-28T10:07:23.955Z</time></trkpt><trkpt lat="44.0210689" lon="11.2808308"><ele>389.0</ele><time>2026-03-28T10:07:24.968Z</time></trkpt><trkpt lat="44.0210108" lon="11.2807631"><ele>388.99999999999994</ele><time>2026-03-28T10:07:25.973Z</time></trkpt><trkpt lat="44.0209514" lon="11.2807107"><ele>389.0</ele><time>2026-03-28T10:07:26.966Z</time></trkpt><trkpt lat="44.0208891" lon="11.2806665"><ele>389.0</ele><time>2026-03-28T10:07:27.976Z</time></trkpt><trkpt lat="44.0208225" lon="11.2806321"><ele>389.0</ele><time>2026-03-28T10:07:28.954Z</time></trkpt><trkpt lat="44.0207526" lon="11.2806017"><ele>389.0</ele><time>2026-03-28T10:07:30.039Z</time></trkpt><trkpt lat="44.0206775" lon="11.2805805"><ele>389.0</ele><time>2026-03-28T10:07:30.957Z</time></trkpt><trkpt lat="44.0205988" lon="11.280562"><ele>389.0</ele><time>2026-03-28T10:07:31.964Z</time></trkpt><trkpt lat="44.0205241" lon="11.2805454"><ele>389.0</ele><time>2026-03-28T10:07:32.988Z</time></trkpt><trkpt lat="44.0204531" lon="11.2805391"><ele>389.0</ele><time>2026-03-28T10:07:34.043Z</time></trkpt><trkpt lat="44.0203866" lon="11.280523"><ele>387.99999999999994</ele><time>2026-03-28T10:07:35.031Z</time></trkpt><trkpt lat="44.0202765" lon="11.2804738"><ele>387.0</ele><time>2026-03-28T10:07:36.981Z</time></trkpt><trkpt lat="44.0202179" lon="11.2804157"><ele>386.0</ele><time>2026-03-28T10:07:37.986Z</time></trkpt><trkpt lat="44.0201559" lon="11.2803407"><ele>385.0</ele><time>2026-03-28T10:07:39.026Z</time></trkpt><trkpt lat="44.0200924" lon="11.280266"><ele>384.0</ele><time>2026-03-28T10:07:40.03Z</time></trkpt><trkpt lat="44.020026" lon="11.280198"><ele>383.0</ele><time>2026-03-28T10:07:40.964Z</time></trkpt><trkpt lat="44.019959" lon="11.2801516"><ele>382.1666666666667</ele><time>2026-03-28T10:07:41.965Z</time></trkpt><trkpt lat="44.0198789" lon="11.2801301"><ele>381.33333333333337</ele><time>2026-03-28T10:07:42.979Z</time></trkpt><trkpt lat="44.0197961" lon="11.2801308"><ele>380.5</ele><time>2026-03-28T10:07:44.043Z</time></trkpt><trkpt lat="44.0197195" lon="11.2801364"><ele>379.6666666666667</ele><time>2026-03-28T10:07:45.037Z</time></trkpt><trkpt lat="44.0196508" lon="11.2801588"><ele>378.8333333333333</ele><time>2026-03-28T10:07:45.961Z</time></trkpt><trkpt lat="44.0195739" lon="11.2801929"><ele>378.0</ele><time>2026-03-28T10:07:46.97Z</time></trkpt><trkpt lat="44.0194893" lon="11.2802273"><ele>378.0</ele><time>2026-03-28T10:07:47.958Z</time></trkpt><trkpt lat="44.0194103" lon="11.2802518"><ele>378.0</ele><time>2026-03-28T10:07:48.963Z</time></trkpt><trkpt lat="44.0193284" lon="11.2802791"><ele>378.0</ele><time>2026-03-28T10:07:49.968Z</time></trkpt><trkpt lat="44.0192425" lon="11.2803007"><ele>378.0</ele><time>2026-03-28T10:07:50.96Z</time></trkpt><trkpt lat="44.0191594" lon="11.2803304"><ele>378.0</ele><time>2026-03-28T10:07:51.966Z</time></trkpt><trkpt lat="44.0190783" lon="11.2803474"><ele>378.0</ele><time>2026-03-28T10:07:52.962Z</time></trkpt><trkpt lat="44.0190003" lon="11.2803754"><ele>375.6666666666667</ele><time>2026-03-28T10:07:53.956Z</time></trkpt><trkpt lat="44.0189156" lon="11.2804011"><ele>373.3333333333333</ele><time>2026-03-28T10:07:54.962Z</time></trkpt><trkpt lat="44.0188382" lon="11.2804181"><ele>371.0</ele><time>2026-03-28T10:07:55.963Z</time></trkpt><trkpt lat="44.0187619" lon="11.2804347"><ele>368.66666666666663</ele><time>2026-03-28T10:07:56.942Z</time></trkpt><trkpt lat="44.0186864" lon="11.2804529"><ele>366.3333333333333</ele><time>2026-03-28T10:07:57.958Z</time></trkpt><trkpt lat="44.0186126" lon="11.280468"><ele>364.0</ele><time>2026-03-28T10:07:58.964Z</time></trkpt><trkpt lat="44.0185349" lon="11.2804778"><ele>364.0</ele><time>2026-03-28T10:08:00.022Z</time></trkpt><trkpt lat="44.0184567" lon="11.2804953"><ele>364.0</ele><time>2026-03-28T10:08:00.956Z</time></trkpt><trkpt lat="44.0183754" lon="11.2805095"><ele>364.0</ele><time>2026-03-28T10:08:02.012Z</time></trkpt><trkpt lat="44.0183001" lon="11.2805303"><ele>364.0</ele><time>2026-03-28T10:08:02.951Z</time></trkpt><trkpt lat="44.0182336" lon="11.2805465"><ele>364.0</ele><time>2026-03-28T10:08:03.965Z</time></trkpt><trkpt lat="44.0181621" lon="11.2805659"><ele>364.0</ele><time>2026-03-28T10:08:04.963Z</time></trkpt><trkpt lat="44.0180545" lon="11.2806056"><ele>366.0</ele><time>2026-03-28T10:08:06.962Z</time></trkpt><trkpt lat="44.0179541" lon="11.2806525"><ele>368.0</ele><time>2026-03-28T10:08:09.018Z</time></trkpt><trkpt lat="44.017855" lon="11.2806817"><ele>370.0</ele><time>2026-03-28T10:08:10.961Z</time></trkpt><trkpt lat="44.0177679" lon="11.2807083"><ele>372.0</ele><time>2026-03-28T10:08:12.968Z</time></trkpt><trkpt lat="44.0176737" lon="11.2807195"><ele>374.0</ele><time>2026-03-28T10:08:14.959Z</time></trkpt><trkpt lat="44.0175754" lon="11.2807126"><ele>371.4</ele><time>2026-03-28T10:08:16.959Z</time></trkpt><trkpt lat="44.0174755" lon="11.2807177"><ele>368.79999999999995</ele><time>2026-03-28T10:08:18.94Z</time></trkpt><trkpt lat="44.017347" lon="11.280755"><ele>366.20000000000005</ele><time>2026-03-28T10:08:20.96Z</time></trkpt><trkpt lat="44.017271" lon="11.2807748"><ele>363.6</ele><time>2026-03-28T10:08:21.968Z</time></trkpt><trkpt lat="44.0171899" lon="11.2808031"><ele>361.0</ele><time>2026-03-28T10:08:22.962Z</time></trkpt><trkpt lat="44.0171045" lon="11.2808348"><ele>361.0</ele><time>2026-03-28T10:08:23.944Z</time></trkpt><trkpt lat="44.0170178" lon="11.2808605"><ele>361.0</ele><time>2026-03-28T10:08:25.036Z</time></trkpt><trkpt lat="44.0169226" lon="11.2808871"><ele>361.0</ele><time>2026-03-28T10:08:25.959Z</time></trkpt><trkpt lat="44.0168222" lon="11.2809104"><ele>361.0</ele><time>2026-03-28T10:08:26.957Z</time></trkpt><trkpt lat="44.0167277" lon="11.2809322"><ele>361.0</ele><time>2026-03-28T10:08:27.96Z</time></trkpt><trkpt lat="44.0166379" lon="11.2809561"><ele>359.5</ele><time>2026-03-28T10:08:28.942Z</time></trkpt><trkpt lat="44.0165619" lon="11.2809675"><ele>358.0</ele><time>2026-03-28T10:08:29.958Z</time></trkpt><trkpt lat="44.0164943" lon="11.2809881"><ele>356.5</ele><time>2026-03-28T10:08:30.965Z</time></trkpt><trkpt lat="44.0164263" lon="11.2810085"><ele>355.0</ele><time>2026-03-28T10:08:31.968Z</time></trkpt><trkpt lat="44.0163604" lon="11.2810302"><ele>353.5</ele><time>2026-03-28T10:08:32.957Z</time></trkpt><trkpt lat="44.0162949" lon="11.2810554"><ele>352.0</ele><time>2026-03-28T10:08:33.967Z</time></trkpt><trkpt lat="44.016187" lon="11.2811402"><ele>352.0</ele><time>2026-03-28T10:08:35.968Z</time></trkpt><trkpt lat="44.0161216" lon="11.2811919"><ele>352.0</ele><time>2026-03-28T10:08:36.944Z</time></trkpt><trkpt lat="44.0160492" lon="11.2812443"><ele>352.0</ele><time>2026-03-28T10:08:37.959Z</time></trkpt><trkpt lat="44.0159772" lon="11.281308"><ele>352.0</ele><time>2026-03-28T10:08:38.971Z</time></trkpt><trkpt lat="44.0159027" lon="11.2813771"><ele>352.0</ele><time>2026-03-28T10:08:39.966Z</time></trkpt><trkpt lat="44.0158281" lon="11.2814379"><ele>352.0</ele><time>2026-03-28T10:08:40.965Z</time></trkpt><trkpt lat="44.0157445" lon="11.281503"><ele>350.0</ele><time>2026-03-28T10:08:41.961Z</time></trkpt><trkpt lat="44.0156598" lon="11.2815755"><ele>348.0</ele><time>2026-03-28T10:08:42.955Z</time></trkpt><trkpt lat="44.0155747" lon="11.2816461"><ele>346.0</ele><time>2026-03-28T10:08:43.961Z</time></trkpt><trkpt lat="44.0155019" lon="11.2817012"><ele>344.0</ele><time>2026-03-28T10:08:44.959Z</time></trkpt><trkpt lat="44.0154355" lon="11.2817591"><ele>342.0</ele><time>2026-03-28T10:08:45.961Z</time></trkpt><trkpt lat="44.015378" lon="11.2818066"><ele>340.0</ele><time>2026-03-28T10:08:46.973Z</time></trkpt><trkpt lat="44.0152853" lon="11.2818866"><ele>340.0</ele><time>2026-03-28T10:08:48.973Z</time></trkpt><trkpt lat="44.01519" lon="11.2819703"><ele>340.0</ele><time>2026-03-28T10:08:50.958Z</time></trkpt><trkpt lat="44.0151092" lon="11.2820538"><ele>340.0</ele><time>2026-03-28T10:08:52.965Z</time></trkpt><trkpt lat="44.0150254" lon="11.2821231"><ele>340.0</ele><time>2026-03-28T10:08:54.974Z</time></trkpt><trkpt lat="44.0149338" lon="11.282193"><ele>340.0</ele><time>2026-03-28T10:08:56.961Z</time></trkpt><trkpt lat="44.0148362" lon="11.2822817"><ele>338.4</ele><time>2026-03-28T10:08:58.955Z</time></trkpt><trkpt lat="44.0147314" lon="11.2823647"><ele>336.8</ele><time>2026-03-28T10:09:00.963Z</time></trkpt><trkpt lat="44.0146745" lon="11.2824184"><ele>335.20000000000005</ele><time>2026-03-28T10:09:01.96Z</time></trkpt><trkpt lat="44.014576" lon="11.2825067"><ele>333.6</ele><time>2026-03-28T10:09:03.968Z</time></trkpt><trkpt lat="44.014468" lon="11.2825728"><ele>332.0</ele><time>2026-03-28T10:09:05.946Z</time></trkpt><trkpt lat="44.0143993" lon="11.2826057"><ele>332.0</ele><time>2026-03-28T10:09:07.037Z</time></trkpt><trkpt lat="44.0143279" lon="11.282641"><ele>332.0</ele><time>2026-03-28T10:09:08.031Z</time></trkpt><trkpt lat="44.0142589" lon="11.2826804"><ele>332.0</ele><time>2026-03-28T10:09:08.977Z</time></trkpt><trkpt lat="44.0141938" lon="11.2827208"><ele>332.0</ele><time>2026-03-28T10:09:09.99Z</time></trkpt><trkpt lat="44.0141309" lon="11.2827629"><ele>332.0</ele><time>2026-03-28T10:09:10.985Z</time></trkpt><trkpt lat="44.0140695" lon="11.2827991"><ele>332.0</ele><time>2026-03-28T10:09:11.99Z</time></trkpt><trkpt lat="44.0140094" lon="11.282832"><ele>332.0</ele><time>2026-03-28T10:09:12.984Z</time></trkpt><trkpt lat="44.013896" lon="11.2828965"><ele>331.1666666666667</ele><time>2026-03-28T10:09:15.028Z</time></trkpt><trkpt lat="44.0137818" lon="11.2829491"><ele>330.33333333333337</ele><time>2026-03-28T10:09:16.977Z</time></trkpt><trkpt lat="44.0136795" lon="11.2830276"><ele>329.5</ele><time>2026-03-28T10:09:18.96Z</time></trkpt><trkpt lat="44.0136178" lon="11.2830765"><ele>328.6666666666667</ele><time>2026-03-28T10:09:19.966Z</time></trkpt><trkpt lat="44.0135566" lon="11.2831203"><ele>327.8333333333333</ele><time>2026-03-28T10:09:20.971Z</time></trkpt><trkpt lat="44.0134963" lon="11.2831614"><ele>327.0</ele><time>2026-03-28T10:09:21.975Z</time></trkpt><trkpt lat="44.0134386" lon="11.2831984"><ele>327.0</ele><time>2026-03-28T10:09:22.978Z</time></trkpt><trkpt lat="44.0133584" lon="11.2832464"><ele>327.0</ele><time>2026-03-28T10:09:24.957Z</time></trkpt><trkpt lat="44.0132744" lon="11.2832908"><ele>327.0</ele><time>2026-03-28T10:09:26.939Z</time></trkpt><trkpt lat="44.0131817" lon="11.2833359"><ele>327.0</ele><time>2026-03-28T10:09:29.045Z</time></trkpt><trkpt lat="44.0130697" lon="11.2834409"><ele>327.0</ele><time>2026-03-28T10:09:31.946Z</time></trkpt><trkpt lat="44.0130483" lon="11.2835304"><ele>326.0</ele><time>2026-03-28T10:09:38.951Z</time></trkpt><trkpt lat="44.0129974" lon="11.2835881"><ele>325.0</ele><time>2026-03-28T10:09:44.961Z</time></trkpt><trkpt lat="44.012937" lon="11.283697"><ele>324.0</ele><time>2026-03-28T10:09:53.953Z</time></trkpt><trkpt lat="44.0128906" lon="11.28384"><ele>323.0</ele><time>2026-03-28T10:09:55.955Z</time></trkpt><trkpt lat="44.0128622" lon="11.2839211"><ele>322.0</ele><time>2026-03-28T10:09:56.969Z</time></trkpt><trkpt lat="44.0128311" lon="11.2840053"><ele>321.0</ele><time>2026-03-28T10:09:57.952Z</time></trkpt><trkpt lat="44.012812" lon="11.2840962"><ele>319.8333333333333</ele><time>2026-03-28T10:09:58.956Z</time></trkpt><trkpt lat="44.0128025" lon="11.284194"><ele>318.6666666666667</ele><time>2026-03-28T10:09:59.964Z</time></trkpt><trkpt lat="44.0128041" lon="11.2843005"><ele>317.5</ele><time>2026-03-28T10:10:00.948Z</time></trkpt><trkpt lat="44.0128208" lon="11.2844189"><ele>316.33333333333337</ele><time>2026-03-28T10:10:01.958Z</time></trkpt><trkpt lat="44.0128433" lon="11.284537"><ele>315.1666666666667</ele><time>2026-03-28T10:10:02.962Z</time></trkpt><trkpt lat="44.0128657" lon="11.2846522"><ele>314.0</ele><time>2026-03-28T10:10:03.965Z</time></trkpt><trkpt lat="44.0128939" lon="11.2847645"><ele>312.83333333333337</ele><time>2026-03-28T10:10:04.942Z</time></trkpt><trkpt lat="44.0129246" lon="11.2848798"><ele>311.6666666666667</ele><time>2026-03-28T10:10:05.955Z</time></trkpt><trkpt lat="44.0129528" lon="11.284983"><ele>310.5</ele><time>2026-03-28T10:10:06.96Z</time></trkpt><trkpt lat="44.0129786" lon="11.2850895"><ele>309.3333333333333</ele><time>2026-03-28T10:10:07.953Z</time></trkpt><trkpt lat="44.0130058" lon="11.2852012"><ele>308.16666666666663</ele><time>2026-03-28T10:10:08.965Z</time></trkpt><trkpt lat="44.0130366" lon="11.2853153"><ele>307.0</ele><time>2026-03-28T10:10:09.955Z</time></trkpt><trkpt lat="44.0130666" lon="11.2854284"><ele>307.0</ele><time>2026-03-28T10:10:10.963Z</time></trkpt><trkpt lat="44.0130984" lon="11.2855429"><ele>307.0</ele><time>2026-03-28T10:10:11.962Z</time></trkpt><trkpt lat="44.0131275" lon="11.2856616"><ele>307.0</ele><time>2026-03-28T10:10:12.955Z</time></trkpt><trkpt lat="44.0131652" lon="11.2857768"><ele>307.0</ele><time>2026-03-28T10:10:13.962Z</time></trkpt><trkpt lat="44.0132099" lon="11.2858793"><ele>307.0</ele><time>2026-03-28T10:10:14.94Z</time></trkpt><trkpt lat="44.013257" lon="11.2859755"><ele>307.0</ele><time>2026-03-28T10:10:15.967Z</time></trkpt><trkpt lat="44.0133008" lon="11.286062"><ele>306.3333333333333</ele><time>2026-03-28T10:10:16.952Z</time></trkpt><trkpt lat="44.0133484" lon="11.2861353"><ele>305.66666666666663</ele><time>2026-03-28T10:10:17.961Z</time></trkpt><trkpt lat="44.0133994" lon="11.2862005"><ele>305.0</ele><time>2026-03-28T10:10:18.956Z</time></trkpt><trkpt lat="44.0135184" lon="11.2862768"><ele>304.3333333333333</ele><time>2026-03-28T10:10:20.959Z</time></trkpt><trkpt lat="44.0135846" lon="11.2862992"><ele>303.6666666666667</ele><time>2026-03-28T10:10:21.964Z</time></trkpt><trkpt lat="44.0136543" lon="11.2863066"><ele>303.0</ele><time>2026-03-28T10:10:22.934Z</time></trkpt><trkpt lat="44.0137569" lon="11.2863558"><ele>301.3333333333333</ele><time>2026-03-28T10:10:24.96Z</time></trkpt><trkpt lat="44.0137582" lon="11.2864713"><ele>299.6666666666667</ele><time>2026-03-28T10:10:26.956Z</time></trkpt><trkpt lat="44.0137029" lon="11.286521"><ele>298.0</ele><time>2026-03-28T10:10:27.965Z</time></trkpt><trkpt lat="44.0136328" lon="11.2865656"><ele>296.33333333333337</ele><time>2026-03-28T10:10:28.955Z</time></trkpt><trkpt lat="44.0135527" lon="11.286619"><ele>294.6666666666667</ele><time>2026-03-28T10:10:29.961Z</time></trkpt><trkpt lat="44.0134897" lon="11.2866627"><ele>293.0</ele><time>2026-03-28T10:10:30.959Z</time></trkpt><trkpt lat="44.013424" lon="11.2867137"><ele>292.99999999999994</ele><time>2026-03-28T10:10:31.97Z</time></trkpt><trkpt lat="44.0133606" lon="11.2867615"><ele>293.0</ele><time>2026-03-28T10:10:32.953Z</time></trkpt><trkpt lat="44.0133011" lon="11.2868066"><ele>293.0</ele><time>2026-03-28T10:10:33.965Z</time></trkpt><trkpt lat="44.0132434" lon="11.2868545"><ele>293.0</ele><time>2026-03-28T10:10:34.958Z</time></trkpt><trkpt lat="44.0131844" lon="11.2868983"><ele>293.0</ele><time>2026-03-28T10:10:35.959Z</time></trkpt><trkpt lat="44.0131275" lon="11.2869406"><ele>292.99999999999994</ele><time>2026-03-28T10:10:36.954Z</time></trkpt><trkpt lat="44.0130351" lon="11.2870214"><ele>293.0</ele><time>2026-03-28T10:10:38.957Z</time></trkpt><trkpt lat="44.012955" lon="11.2870868"><ele>291.83333333333337</ele><time>2026-03-28T10:10:40.969Z</time></trkpt><trkpt lat="44.012881" lon="11.2871381"><ele>290.6666666666667</ele><time>2026-03-28T10:10:42.954Z</time></trkpt><trkpt lat="44.0128172" lon="11.2871711"><ele>289.5</ele><time>2026-03-28T10:10:44.963Z</time></trkpt><trkpt lat="44.0127491" lon="11.2871846"><ele>288.3333333333333</ele><time>2026-03-28T10:10:46.951Z</time></trkpt><trkpt lat="44.0126824" lon="11.2872416"><ele>287.16666666666663</ele><time>2026-03-28T10:10:50.028Z</time></trkpt><trkpt lat="44.0126321" lon="11.2873265"><ele>286.0</ele><time>2026-03-28T10:11:07.028Z</time></trkpt><trkpt lat="44.0125461" lon="11.2873794"><ele>285.5</ele><time>2026-03-28T10:11:09.966Z</time></trkpt><trkpt lat="44.0124322" lon="11.2873914"><ele>285.0</ele><time>2026-03-28T10:11:11.966Z</time></trkpt><trkpt lat="44.0123687" lon="11.287393"><ele>284.5</ele><time>2026-03-28T10:11:12.961Z</time></trkpt><trkpt lat="44.0123014" lon="11.2873995"><ele>284.0</ele><time>2026-03-28T10:11:13.962Z</time></trkpt><trkpt lat="44.0122352" lon="11.287413"><ele>283.5</ele><time>2026-03-28T10:11:15.036Z</time></trkpt><trkpt lat="44.0121688" lon="11.287441"><ele>283.0</ele><time>2026-03-28T10:11:15.966Z</time></trkpt><trkpt lat="44.0121025" lon="11.2874694"><ele>283.0</ele><time>2026-03-28T10:11:16.948Z</time></trkpt><trkpt lat="44.0120348" lon="11.2875"><ele>283.0</ele><time>2026-03-28T10:11:17.967Z</time></trkpt><trkpt lat="44.0119628" lon="11.2875341"><ele>283.0</ele><time>2026-03-28T10:11:18.968Z</time></trkpt><trkpt lat="44.0118891" lon="11.2875639"><ele>283.0</ele><time>2026-03-28T10:11:19.959Z</time></trkpt><trkpt lat="44.0118167" lon="11.2875904"><ele>283.0</ele><time>2026-03-28T10:11:20.959Z</time></trkpt><trkpt lat="44.0116986" lon="11.2876242"><ele>283.0</ele><time>2026-03-28T10:11:22.961Z</time></trkpt><trkpt lat="44.0115948" lon="11.2875958"><ele>282.6</ele><time>2026-03-28T10:11:25.028Z</time></trkpt><trkpt lat="44.0114937" lon="11.2876057"><ele>282.20000000000005</ele><time>2026-03-28T10:11:26.968Z</time></trkpt><trkpt lat="44.0114085" lon="11.2876423"><ele>281.8</ele><time>2026-03-28T10:11:28.966Z</time></trkpt><trkpt lat="44.0113236" lon="11.287657"><ele>281.40000000000003</ele><time>2026-03-28T10:11:30.96Z</time></trkpt><trkpt lat="44.0112363" lon="11.2876815"><ele>281.0</ele><time>2026-03-28T10:11:32.969Z</time></trkpt><trkpt lat="44.0111386" lon="11.2877286"><ele>281.0</ele><time>2026-03-28T10:11:35.031Z</time></trkpt><trkpt lat="44.0110384" lon="11.287773"><ele>281.0</ele><time>2026-03-28T10:11:36.97Z</time></trkpt><trkpt lat="44.0109285" lon="11.2878166"><ele>281.0</ele><time>2026-03-28T10:11:38.96Z</time></trkpt><trkpt lat="44.0108128" lon="11.2878544"><ele>281.0</ele><time>2026-03-28T10:11:40.958Z</time></trkpt><trkpt lat="44.0107009" lon="11.2878874"><ele>280.25</ele><time>2026-03-28T10:11:42.966Z</time></trkpt><trkpt lat="44.0105855" lon="11.2879173"><ele>279.5</ele><time>2026-03-28T10:11:45.029Z</time></trkpt><trkpt lat="44.0104677" lon="11.2879303"><ele>278.75</ele><time>2026-03-28T10:11:46.976Z</time></trkpt><trkpt lat="44.0103519" lon="11.2879373"><ele>278.0</ele><time>2026-03-28T10:11:49.032Z</time></trkpt><trkpt lat="44.0102385" lon="11.2879372"><ele>278.0</ele><time>2026-03-28T10:11:50.967Z</time></trkpt><trkpt lat="44.0101189" lon="11.2879222"><ele>278.0</ele><time>2026-03-28T10:11:52.964Z</time></trkpt><trkpt lat="44.0099974" lon="11.2879148"><ele>278.0</ele><time>2026-03-28T10:11:54.986Z</time></trkpt><trkpt lat="44.0098788" lon="11.2878997"><ele>278.0</ele><time>2026-03-28T10:11:57.041Z</time></trkpt><trkpt lat="44.009768" lon="11.2878786"><ele>278.0</ele><time>2026-03-28T10:11:58.968Z</time></trkpt><trkpt lat="44.0096548" lon="11.2878586"><ele>278.0</ele><time>2026-03-28T10:12:00.972Z</time></trkpt><trkpt lat="44.0095357" lon="11.2878325"><ele>278.0</ele><time>2026-03-28T10:12:02.973Z</time></trkpt><trkpt lat="44.0094729" lon="11.2878156"><ele>278.0</ele><time>2026-03-28T10:12:03.981Z</time></trkpt><trkpt lat="44.0093543" lon="11.2877747"><ele>278.0</ele><time>2026-03-28T10:12:05.961Z</time></trkpt><trkpt lat="44.0092373" lon="11.2877234"><ele>278.0</ele><time>2026-03-28T10:12:07.964Z</time></trkpt><trkpt lat="44.0091165" lon="11.2876706"><ele>278.0</ele><time>2026-03-28T10:12:09.976Z</time></trkpt><trkpt lat="44.0090547" lon="11.287644"><ele>278.0</ele><time>2026-03-28T10:12:10.959Z</time></trkpt><trkpt lat="44.0089925" lon="11.2876185"><ele>278.0</ele><time>2026-03-28T10:12:11.97Z</time></trkpt><trkpt lat="44.0088789" lon="11.287568"><ele>278.0</ele><time>2026-03-28T10:12:13.965Z</time></trkpt><trkpt lat="44.0087837" lon="11.2875223"><ele>278.0</ele><time>2026-03-28T10:12:15.968Z</time></trkpt><trkpt lat="44.0087058" lon="11.287468"><ele>278.0</ele><time>2026-03-28T10:12:17.969Z</time></trkpt><trkpt lat="44.0086832" lon="11.2873792"><ele>278.0</ele><time>2026-03-28T10:12:19.968Z</time></trkpt><trkpt lat="44.008692" lon="11.2872702"><ele>278.0</ele><time>2026-03-28T10:12:21.961Z</time></trkpt><trkpt lat="44.0086952" lon="11.2871617"><ele>278.0</ele><time>2026-03-28T10:12:23.965Z</time></trkpt><trkpt lat="44.0086808" lon="11.2870516"><ele>278.0</ele><time>2026-03-28T10:12:25.973Z</time></trkpt><trkpt lat="44.0086499" lon="11.2869347"><ele>278.0</ele><time>2026-03-28T10:12:27.965Z</time></trkpt><trkpt lat="44.008599" lon="11.2868211"><ele>278.0</ele><time>2026-03-28T10:12:29.965Z</time></trkpt><trkpt lat="44.0085387" lon="11.2867133"><ele>278.0</ele><time>2026-03-28T10:12:31.965Z</time></trkpt><trkpt lat="44.0084745" lon="11.2865949"><ele>278.0</ele><time>2026-03-28T10:12:33.965Z</time></trkpt><trkpt lat="44.0084197" lon="11.2864768"><ele>278.0</ele><time>2026-03-28T10:12:35.946Z</time></trkpt><trkpt lat="44.0083606" lon="11.2863607"><ele>277.25</ele><time>2026-03-28T10:12:37.968Z</time></trkpt><trkpt lat="44.0083066" lon="11.2862295"><ele>276.5</ele><time>2026-03-28T10:12:39.97Z</time></trkpt><trkpt lat="44.0082512" lon="11.2860745"><ele>275.75</ele><time>2026-03-28T10:12:41.971Z</time></trkpt><trkpt lat="44.0081872" lon="11.2859439"><ele>275.0</ele><time>2026-03-28T10:12:43.969Z</time></trkpt><trkpt lat="44.00815" lon="11.2858077"><ele>275.0</ele><time>2026-03-28T10:12:45.961Z</time></trkpt><trkpt lat="44.0081808" lon="11.285632"><ele>275.0</ele><time>2026-03-28T10:12:47.962Z</time></trkpt><trkpt lat="44.0082038" lon="11.285537"><ele>275.0</ele><time>2026-03-28T10:12:48.963Z</time></trkpt><trkpt lat="44.008225" lon="11.2854422"><ele>275.0</ele><time>2026-03-28T10:12:49.972Z</time></trkpt><trkpt lat="44.0082442" lon="11.2853438"><ele>275.0</ele><time>2026-03-28T10:12:50.969Z</time></trkpt><trkpt lat="44.0082603" lon="11.2852363"><ele>275.0</ele><time>2026-03-28T10:12:51.964Z</time></trkpt><trkpt lat="44.0082772" lon="11.2851422"><ele>274.5</ele><time>2026-03-28T10:12:52.963Z</time></trkpt><trkpt lat="44.0082844" lon="11.2850522"><ele>274.0</ele><time>2026-03-28T10:12:53.965Z</time></trkpt><trkpt lat="44.0082937" lon="11.2849614"><ele>273.5</ele><time>2026-03-28T10:12:54.963Z</time></trkpt><trkpt lat="44.0083036" lon="11.2848727"><ele>273.0</ele><time>2026-03-28T10:12:55.961Z</time></trkpt><trkpt lat="44.008309" lon="11.2847127"><ele>272.5</ele><time>2026-03-28T10:12:57.975Z</time></trkpt><trkpt lat="44.008307" lon="11.2845734"><ele>272.0</ele><time>2026-03-28T10:12:59.976Z</time></trkpt><trkpt lat="44.0083121" lon="11.2844624"><ele>271.83333333333337</ele><time>2026-03-28T10:13:01.972Z</time></trkpt><trkpt lat="44.0083187" lon="11.2843728"><ele>271.6666666666667</ele><time>2026-03-28T10:13:03.959Z</time></trkpt><trkpt lat="44.0083244" lon="11.2842758"><ele>271.5</ele><time>2026-03-28T10:13:06.973Z</time></trkpt><trkpt lat="44.0083488" lon="11.2841726"><ele>271.3333333333333</ele><time>2026-03-28T10:15:33.952Z</time></trkpt><trkpt lat="44.0083626" lon="11.2840428"><ele>271.16666666666663</ele><time>2026-03-28T10:15:35.948Z</time></trkpt><trkpt lat="44.0084017" lon="11.2838893"><ele>271.0</ele><time>2026-03-28T10:15:37.943Z</time></trkpt><trkpt lat="44.0084233" lon="11.2837967"><ele>271.40000000000003</ele><time>2026-03-28T10:15:38.947Z</time></trkpt><trkpt lat="44.0084538" lon="11.2837045"><ele>271.8</ele><time>2026-03-28T10:15:39.956Z</time></trkpt><trkpt lat="44.0084833" lon="11.2836192"><ele>272.20000000000005</ele><time>2026-03-28T10:15:40.949Z</time></trkpt><trkpt lat="44.008538" lon="11.2834881"><ele>272.6</ele><time>2026-03-28T10:15:42.946Z</time></trkpt><trkpt lat="44.0085973" lon="11.2833886"><ele>273.0</ele><time>2026-03-28T10:15:44.951Z</time></trkpt><trkpt lat="44.0086643" lon="11.2832492"><ele>273.0</ele><time>2026-03-28T10:15:46.943Z</time></trkpt><trkpt lat="44.0087044" lon="11.2831693"><ele>273.0</ele><time>2026-03-28T10:15:47.952Z</time></trkpt><trkpt lat="44.0087507" lon="11.2830886"><ele>273.0</ele><time>2026-03-28T10:15:48.945Z</time></trkpt><trkpt lat="44.0088008" lon="11.2830097"><ele>273.0</ele><time>2026-03-28T10:15:49.966Z</time></trkpt><trkpt lat="44.0088517" lon="11.2829212"><ele>273.0</ele><time>2026-03-28T10:15:50.948Z</time></trkpt><trkpt lat="44.0088965" lon="11.2828322"><ele>273.0</ele><time>2026-03-28T10:15:51.945Z</time></trkpt><trkpt lat="44.0089404" lon="11.2827502"><ele>272.6</ele><time>2026-03-28T10:15:52.945Z</time></trkpt><trkpt lat="44.0090243" lon="11.2826057"><ele>272.20000000000005</ele><time>2026-03-28T10:15:54.946Z</time></trkpt><trkpt lat="44.0090717" lon="11.2825278"><ele>271.8</ele><time>2026-03-28T10:15:55.95Z</time></trkpt><trkpt lat="44.0091285" lon="11.2824423"><ele>271.40000000000003</ele><time>2026-03-28T10:15:56.962Z</time></trkpt><trkpt lat="44.0091827" lon="11.2823566"><ele>271.0</ele><time>2026-03-28T10:15:57.95Z</time></trkpt><trkpt lat="44.0092309" lon="11.2822666"><ele>271.5</ele><time>2026-03-28T10:15:58.95Z</time></trkpt><trkpt lat="44.0092765" lon="11.282189"><ele>272.0</ele><time>2026-03-28T10:15:59.947Z</time></trkpt><trkpt lat="44.0093205" lon="11.2821196"><ele>272.5</ele><time>2026-03-28T10:16:00.947Z</time></trkpt><trkpt lat="44.0093613" lon="11.2820526"><ele>273.0</ele><time>2026-03-28T10:16:01.947Z</time></trkpt><trkpt lat="44.0094066" lon="11.2819872"><ele>273.5</ele><time>2026-03-28T10:16:02.944Z</time></trkpt><trkpt lat="44.0094794" lon="11.2818431"><ele>274.0</ele><time>2026-03-28T10:16:04.943Z</time></trkpt><trkpt lat="44.0095167" lon="11.2816942"><ele>274.0</ele><time>2026-03-28T10:16:06.948Z</time></trkpt><trkpt lat="44.009541" lon="11.2815602"><ele>274.0</ele><time>2026-03-28T10:16:08.945Z</time></trkpt><trkpt lat="44.0095461" lon="11.2814441"><ele>274.0</ele><time>2026-03-28T10:16:10.949Z</time></trkpt><trkpt lat="44.0095486" lon="11.2813283"><ele>274.0</ele><time>2026-03-28T10:16:12.942Z</time></trkpt><trkpt lat="44.0095487" lon="11.2812158"><ele>274.0</ele><time>2026-03-28T10:16:14.95Z</time></trkpt><trkpt lat="44.0095551" lon="11.2811074"><ele>274.0</ele><time>2026-03-28T10:16:44.944Z</time></trkpt><trkpt lat="44.0095738" lon="11.2810166"><ele>274.0</ele><time>2026-03-28T10:16:48.946Z</time></trkpt><trkpt lat="44.0095501" lon="11.2811414"><ele>274.0</ele><time>2026-03-28T10:17:46.973Z</time></trkpt><trkpt lat="44.0095464" lon="11.2812663"><ele>274.0</ele><time>2026-03-28T10:17:48.967Z</time></trkpt><trkpt lat="44.0095458" lon="11.2813878"><ele>274.0</ele><time>2026-03-28T10:17:50.969Z</time></trkpt><trkpt lat="44.0095371" lon="11.2814965"><ele>274.0</ele><time>2026-03-28T10:17:52.948Z</time></trkpt><trkpt lat="44.0095241" lon="11.2816459"><ele>274.0</ele><time>2026-03-28T10:17:54.974Z</time></trkpt><trkpt lat="44.0094859" lon="11.2818118"><ele>274.0</ele><time>2026-03-28T10:17:56.972Z</time></trkpt><trkpt lat="44.0094213" lon="11.2819592"><ele>274.0</ele><time>2026-03-28T10:17:58.974Z</time></trkpt><trkpt lat="44.0093723" lon="11.2820277"><ele>274.0</ele><time>2026-03-28T10:17:59.967Z</time></trkpt><trkpt lat="44.0093212" lon="11.2820965"><ele>274.0</ele><time>2026-03-28T10:18:00.966Z</time></trkpt><trkpt lat="44.0092681" lon="11.2821721"><ele>274.0</ele><time>2026-03-28T10:18:01.969Z</time></trkpt><trkpt lat="44.0092207" lon="11.2822573"><ele>274.0</ele><time>2026-03-28T10:18:02.971Z</time></trkpt><trkpt lat="44.0091683" lon="11.2823456"><ele>274.0</ele><time>2026-03-28T10:18:03.968Z</time></trkpt><trkpt lat="44.0091143" lon="11.2824461"><ele>274.0</ele><time>2026-03-28T10:18:04.959Z</time></trkpt><trkpt lat="44.0090529" lon="11.2825526"><ele>274.0</ele><time>2026-03-28T10:18:05.965Z</time></trkpt><trkpt lat="44.0089986" lon="11.2826467"><ele>274.0</ele><time>2026-03-28T10:18:06.969Z</time></trkpt><trkpt lat="44.0089523" lon="11.2827367"><ele>273.8333333333333</ele><time>2026-03-28T10:18:07.972Z</time></trkpt><trkpt lat="44.008902" lon="11.2828271"><ele>273.66666666666663</ele><time>2026-03-28T10:18:08.969Z</time></trkpt><trkpt lat="44.0088501" lon="11.2829207"><ele>273.5</ele><time>2026-03-28T10:18:09.969Z</time></trkpt><trkpt lat="44.0088008" lon="11.2830175"><ele>273.3333333333333</ele><time>2026-03-28T10:18:10.97Z</time></trkpt><trkpt lat="44.0087511" lon="11.2831182"><ele>273.1666666666667</ele><time>2026-03-28T10:18:11.949Z</time></trkpt><trkpt lat="44.0087013" lon="11.2832254"><ele>273.0</ele><time>2026-03-28T10:18:12.958Z</time></trkpt><trkpt lat="44.0086478" lon="11.2833347"><ele>273.0</ele><time>2026-03-28T10:18:13.977Z</time></trkpt><trkpt lat="44.0085929" lon="11.2834349"><ele>273.0</ele><time>2026-03-28T10:18:14.972Z</time></trkpt><trkpt lat="44.0085441" lon="11.2835299"><ele>273.0</ele><time>2026-03-28T10:18:15.963Z</time></trkpt><trkpt lat="44.0085028" lon="11.2836223"><ele>273.0</ele><time>2026-03-28T10:18:16.964Z</time></trkpt><trkpt lat="44.0084626" lon="11.2837188"><ele>273.0</ele><time>2026-03-28T10:18:17.972Z</time></trkpt><trkpt lat="44.0084263" lon="11.2838214"><ele>273.0</ele><time>2026-03-28T10:18:18.973Z</time></trkpt><trkpt lat="44.0084025" lon="11.2839272"><ele>273.1666666666667</ele><time>2026-03-28T10:18:19.963Z</time></trkpt><trkpt lat="44.0083779" lon="11.2840385"><ele>273.3333333333333</ele><time>2026-03-28T10:18:20.973Z</time></trkpt><trkpt lat="44.0083649" lon="11.284147"><ele>273.5</ele><time>2026-03-28T10:18:21.961Z</time></trkpt><trkpt lat="44.0083516" lon="11.2842533"><ele>273.66666666666663</ele><time>2026-03-28T10:18:22.96Z</time></trkpt><trkpt lat="44.0083442" lon="11.28435"><ele>273.8333333333333</ele><time>2026-03-28T10:18:23.966Z</time></trkpt><trkpt lat="44.0083097" lon="11.2844774"><ele>274.0</ele><time>2026-03-28T10:18:25.967Z</time></trkpt><trkpt lat="44.0082452" lon="11.2845262"><ele>273.4</ele><time>2026-03-28T10:18:27.968Z</time></trkpt><trkpt lat="44.0081277" lon="11.2845085"><ele>272.79999999999995</ele><time>2026-03-28T10:18:29.971Z</time></trkpt><trkpt lat="44.0080046" lon="11.2844497"><ele>272.20000000000005</ele><time>2026-03-28T10:18:31.964Z</time></trkpt><trkpt lat="44.0079196" lon="11.284427"><ele>271.6</ele><time>2026-03-28T10:18:32.963Z</time></trkpt><trkpt lat="44.0078378" lon="11.2843986"><ele>271.0</ele><time>2026-03-28T10:18:33.975Z</time></trkpt><trkpt lat="44.0077524" lon="11.2843614"><ele>271.0</ele><time>2026-03-28T10:18:34.963Z</time></trkpt><trkpt lat="44.0076602" lon="11.2843189"><ele>271.0</ele><time>2026-03-28T10:18:35.963Z</time></trkpt><trkpt lat="44.0075677" lon="11.2842788"><ele>271.0</ele><time>2026-03-28T10:18:36.975Z</time></trkpt><trkpt lat="44.0074786" lon="11.2842255"><ele>271.0</ele><time>2026-03-28T10:18:37.951Z</time></trkpt><trkpt lat="44.0073955" lon="11.2841714"><ele>271.0</ele><time>2026-03-28T10:18:38.965Z</time></trkpt><trkpt lat="44.0073117" lon="11.2841099"><ele>270.40000000000003</ele><time>2026-03-28T10:18:39.974Z</time></trkpt><trkpt lat="44.0072232" lon="11.2840545"><ele>269.8</ele><time>2026-03-28T10:18:40.97Z</time></trkpt><trkpt lat="44.0071284" lon="11.284012"><ele>269.20000000000005</ele><time>2026-03-28T10:18:41.96Z</time></trkpt><trkpt lat="44.007043" lon="11.2839794"><ele>268.6</ele><time>2026-03-28T10:18:42.973Z</time></trkpt><trkpt lat="44.0069614" lon="11.2839456"><ele>268.0</ele><time>2026-03-28T10:18:43.973Z</time></trkpt><trkpt lat="44.0068771" lon="11.2839167"><ele>268.0</ele><time>2026-03-28T10:18:44.965Z</time></trkpt><trkpt lat="44.0067904" lon="11.2838933"><ele>268.0</ele><time>2026-03-28T10:18:45.959Z</time></trkpt><trkpt lat="44.0067176" lon="11.2838769"><ele>268.0</ele><time>2026-03-28T10:18:46.973Z</time></trkpt><trkpt lat="44.0066531" lon="11.2838634"><ele>268.0</ele><time>2026-03-28T10:18:47.97Z</time></trkpt><trkpt lat="44.0065833" lon="11.2838452"><ele>268.0</ele><time>2026-03-28T10:18:48.963Z</time></trkpt><trkpt lat="44.0065086" lon="11.2838216"><ele>268.0</ele><time>2026-03-28T10:18:49.967Z</time></trkpt><trkpt lat="44.0064278" lon="11.2837952"><ele>267.4</ele><time>2026-03-28T10:18:50.967Z</time></trkpt><trkpt lat="44.0063411" lon="11.2837581"><ele>266.8</ele><time>2026-03-28T10:18:51.968Z</time></trkpt><trkpt lat="44.0062502" lon="11.2837227"><ele>266.2</ele><time>2026-03-28T10:18:52.966Z</time></trkpt><trkpt lat="44.0061584" lon="11.2836837"><ele>265.6</ele><time>2026-03-28T10:18:53.968Z</time></trkpt><trkpt lat="44.0060602" lon="11.283641"><ele>265.0</ele><time>2026-03-28T10:18:54.945Z</time></trkpt><trkpt lat="44.005962" lon="11.283599"><ele>265.0</ele><time>2026-03-28T10:18:55.967Z</time></trkpt><trkpt lat="44.0058705" lon="11.2835666"><ele>265.0</ele><time>2026-03-28T10:18:56.964Z</time></trkpt><trkpt lat="44.0058011" lon="11.2835351"><ele>265.0</ele><time>2026-03-28T10:18:57.969Z</time></trkpt><trkpt lat="44.0057009" lon="11.2834768"><ele>265.0</ele><time>2026-03-28T10:18:59.974Z</time></trkpt><trkpt lat="44.0056436" lon="11.2834361"><ele>265.0</ele><time>2026-03-28T10:19:01.963Z</time></trkpt><trkpt lat="44.0055714" lon="11.283342"><ele>265.0</ele><time>2026-03-28T10:19:04.984Z</time></trkpt><trkpt lat="44.0054586" lon="11.2832854"><ele>264.8333333333333</ele><time>2026-03-28T10:19:06.962Z</time></trkpt><trkpt lat="44.005394" lon="11.2832372"><ele>264.66666666666663</ele><time>2026-03-28T10:19:07.976Z</time></trkpt><trkpt lat="44.0053172" lon="11.28318"><ele>264.5</ele><time>2026-03-28T10:19:08.966Z</time></trkpt><trkpt lat="44.0052398" lon="11.2831106"><ele>264.3333333333333</ele><time>2026-03-28T10:19:09.962Z</time></trkpt><trkpt lat="44.0051618" lon="11.2830448"><ele>264.1666666666667</ele><time>2026-03-28T10:19:10.973Z</time></trkpt><trkpt lat="44.0050823" lon="11.2829688"><ele>264.0</ele><time>2026-03-28T10:19:11.965Z</time></trkpt><trkpt lat="44.0050059" lon="11.2828981"><ele>263.6666666666667</ele><time>2026-03-28T10:19:12.945Z</time></trkpt><trkpt lat="44.0049271" lon="11.2828441"><ele>263.3333333333333</ele><time>2026-03-28T10:19:13.962Z</time></trkpt><trkpt lat="44.004852" lon="11.2827857"><ele>263.0</ele><time>2026-03-28T10:19:14.943Z</time></trkpt><trkpt lat="44.0047807" lon="11.2827332"><ele>262.66666666666663</ele><time>2026-03-28T10:19:15.947Z</time></trkpt><trkpt lat="44.0047045" lon="11.2826833"><ele>262.3333333333333</ele><time>2026-03-28T10:19:16.973Z</time></trkpt><trkpt lat="44.004633" lon="11.2826323"><ele>262.0</ele><time>2026-03-28T10:19:17.958Z</time></trkpt><trkpt lat="44.0045609" lon="11.2825771"><ele>262.0</ele><time>2026-03-28T10:19:18.97Z</time></trkpt><trkpt lat="44.0044848" lon="11.2825283"><ele>262.0</ele><time>2026-03-28T10:19:19.973Z</time></trkpt><trkpt lat="44.0044202" lon="11.2824854"><ele>262.0</ele><time>2026-03-28T10:19:20.966Z</time></trkpt><trkpt lat="44.0043346" lon="11.2824465"><ele>262.0</ele><time>2026-03-28T10:19:22.949Z</time></trkpt><trkpt lat="44.0042686" lon="11.2824107"><ele>262.0</ele><time>2026-03-28T10:19:25.97Z</time></trkpt><trkpt lat="44.0041931" lon="11.2823532"><ele>262.0</ele><time>2026-03-28T10:19:29.975Z</time></trkpt><trkpt lat="44.0041563" lon="11.2822751"><ele>261.5</ele><time>2026-03-28T10:19:32.972Z</time></trkpt><trkpt lat="44.0041364" lon="11.2821868"><ele>261.0</ele><time>2026-03-28T10:19:35.962Z</time></trkpt><trkpt lat="44.004133" lon="11.2820988"><ele>260.5</ele><time>2026-03-28T10:19:38.967Z</time></trkpt><trkpt lat="44.0041116" lon="11.2819727"><ele>260.0</ele><time>2026-03-28T10:19:41.948Z</time></trkpt><trkpt lat="44.0040986" lon="11.2818623"><ele>259.5</ele><time>2026-03-28T10:19:43.976Z</time></trkpt><trkpt lat="44.0040931" lon="11.28176"><ele>259.0</ele><time>2026-03-28T10:19:45.969Z</time></trkpt><trkpt lat="44.0040802" lon="11.2816482"><ele>259.0</ele><time>2026-03-28T10:19:47.953Z</time></trkpt><trkpt lat="44.0040677" lon="11.2815337"><ele>259.0</ele><time>2026-03-28T10:19:50.966Z</time></trkpt><trkpt lat="44.0040369" lon="11.2814522"><ele>259.0</ele><time>2026-03-28T10:20:55.952Z</time></trkpt><trkpt lat="44.0039432" lon="11.281423"><ele>259.0</ele><time>2026-03-28T10:20:57.947Z</time></trkpt><trkpt lat="44.0038785" lon="11.2814119"><ele>259.0</ele><time>2026-03-28T10:20:58.939Z</time></trkpt><trkpt lat="44.0038036" lon="11.2813848"><ele>259.0</ele><time>2026-03-28T10:20:59.943Z</time></trkpt><trkpt lat="44.0037252" lon="11.2813546"><ele>259.59999999999997</ele><time>2026-03-28T10:21:00.942Z</time></trkpt><trkpt lat="44.0036394" lon="11.2813405"><ele>260.2</ele><time>2026-03-28T10:21:01.947Z</time></trkpt><trkpt lat="44.0035466" lon="11.2813331"><ele>260.79999999999995</ele><time>2026-03-28T10:21:02.942Z</time></trkpt><trkpt lat="44.0034484" lon="11.2813184"><ele>261.4</ele><time>2026-03-28T10:21:03.95Z</time></trkpt><trkpt lat="44.00336" lon="11.281295"><ele>262.0</ele><time>2026-03-28T10:21:04.938Z</time></trkpt><trkpt lat="44.0032713" lon="11.2812637"><ele>261.0</ele><time>2026-03-28T10:21:05.947Z</time></trkpt><trkpt lat="44.0031887" lon="11.2812461"><ele>260.0</ele><time>2026-03-28T10:21:06.941Z</time></trkpt><trkpt lat="44.003114" lon="11.2812315"><ele>259.0</ele><time>2026-03-28T10:21:07.944Z</time></trkpt><trkpt lat="44.0030356" lon="11.281215"><ele>258.0</ele><time>2026-03-28T10:21:08.944Z</time></trkpt><trkpt lat="44.0029551" lon="11.2811985"><ele>257.0</ele><time>2026-03-28T10:21:09.943Z</time></trkpt><trkpt lat="44.002881" lon="11.2811787"><ele>256.0</ele><time>2026-03-28T10:21:10.952Z</time></trkpt><trkpt lat="44.0028126" lon="11.2811667"><ele>255.99999999999997</ele><time>2026-03-28T10:21:11.945Z</time></trkpt><trkpt lat="44.0027252" lon="11.2811804"><ele>256.0</ele><time>2026-03-28T10:21:13.942Z</time></trkpt><trkpt lat="44.0026471" lon="11.2811518"><ele>256.0</ele><time>2026-03-28T10:21:18.948Z</time></trkpt><trkpt lat="44.0025567" lon="11.2810867"><ele>256.0</ele><time>2026-03-28T10:21:20.945Z</time></trkpt><trkpt lat="44.0024858" lon="11.2810608"><ele>255.99999999999997</ele><time>2026-03-28T10:21:21.942Z</time></trkpt><trkpt lat="44.0024075" lon="11.2810296"><ele>256.0</ele><time>2026-03-28T10:21:22.958Z</time></trkpt><trkpt lat="44.0023266" lon="11.2810037"><ele>256.16666666666663</ele><time>2026-03-28T10:21:23.942Z</time></trkpt><trkpt lat="44.0022425" lon="11.2809755"><ele>256.3333333333333</ele><time>2026-03-28T10:21:24.943Z</time></trkpt><trkpt lat="44.0021602" lon="11.2809403"><ele>256.5</ele><time>2026-03-28T10:21:25.942Z</time></trkpt><trkpt lat="44.0020716" lon="11.2809064"><ele>256.6666666666667</ele><time>2026-03-28T10:21:26.942Z</time></trkpt><trkpt lat="44.0019877" lon="11.280872"><ele>256.83333333333337</ele><time>2026-03-28T10:21:27.945Z</time></trkpt><trkpt lat="44.0019073" lon="11.2808441"><ele>257.0</ele><time>2026-03-28T10:21:28.94Z</time></trkpt><trkpt lat="44.0018351" lon="11.2808145"><ele>257.0</ele><time>2026-03-28T10:21:29.956Z</time></trkpt><trkpt lat="44.0017657" lon="11.2807908"><ele>257.0</ele><time>2026-03-28T10:21:30.943Z</time></trkpt><trkpt lat="44.0017067" lon="11.2807596"><ele>257.0</ele><time>2026-03-28T10:21:31.942Z</time></trkpt><trkpt lat="44.001652" lon="11.2807111"><ele>257.0</ele><time>2026-03-28T10:21:32.947Z</time></trkpt><trkpt lat="44.0015796" lon="11.2806448"><ele>257.0</ele><time>2026-03-28T10:21:34.957Z</time></trkpt><trkpt lat="44.0015148" lon="11.2805754"><ele>257.0</ele><time>2026-03-28T10:21:38.939Z</time></trkpt><trkpt lat="44.0014606" lon="11.2805004"><ele>257.0</ele><time>2026-03-28T10:21:40.942Z</time></trkpt><trkpt lat="44.0014283" lon="11.2803955"><ele>257.0</ele><time>2026-03-28T10:21:42.94Z</time></trkpt><trkpt lat="44.0014175" lon="11.2802748"><ele>257.0</ele><time>2026-03-28T10:21:44.944Z</time></trkpt><trkpt lat="44.0014445" lon="11.2801531"><ele>257.0</ele><time>2026-03-28T10:21:46.944Z</time></trkpt><trkpt lat="44.0014829" lon="11.2800577"><ele>257.0</ele><time>2026-03-28T10:21:48.945Z</time></trkpt><trkpt lat="44.0015384" lon="11.2799609"><ele>257.0</ele><time>2026-03-28T10:21:50.943Z</time></trkpt><trkpt lat="44.0015888" lon="11.2798187"><ele>258.4</ele><time>2026-03-28T10:21:52.943Z</time></trkpt><trkpt lat="44.0016324" lon="11.2796786"><ele>259.79999999999995</ele><time>2026-03-28T10:21:54.942Z</time></trkpt><trkpt lat="44.0016651" lon="11.2795589"><ele>261.2</ele><time>2026-03-28T10:21:56.948Z</time></trkpt><trkpt lat="44.0016907" lon="11.2794327"><ele>262.59999999999997</ele><time>2026-03-28T10:21:58.946Z</time></trkpt><trkpt lat="44.001728" lon="11.279327"><ele>264.0</ele><time>2026-03-28T10:22:00.938Z</time></trkpt><trkpt lat="44.001761" lon="11.2792264"><ele>264.42857142857144</ele><time>2026-03-28T10:22:02.941Z</time></trkpt><trkpt lat="44.0017879" lon="11.2791249"><ele>264.8571428571429</ele><time>2026-03-28T10:22:04.938Z</time></trkpt><trkpt lat="44.0018148" lon="11.2790367"><ele>265.28571428571433</ele><time>2026-03-28T10:22:06.94Z</time></trkpt><trkpt lat="44.0018382" lon="11.2789464"><ele>265.7142857142857</ele><time>2026-03-28T10:22:09.943Z</time></trkpt><trkpt lat="44.0018737" lon="11.2788403"><ele>266.14285714285717</ele><time>2026-03-28T10:22:12.94Z</time></trkpt><trkpt lat="44.0019088" lon="11.2787465"><ele>266.5714285714286</ele><time>2026-03-28T10:22:14.942Z</time></trkpt><trkpt lat="44.0019296" lon="11.2786612"><ele>267.0</ele><time>2026-03-28T10:22:16.947Z</time></trkpt><trkpt lat="44.0019534" lon="11.2785799"><ele>267.28571428571433</ele><time>2026-03-28T10:22:21.948Z</time></trkpt><trkpt lat="44.001978" lon="11.2784971"><ele>267.57142857142856</ele><time>2026-03-28T10:22:31.94Z</time></trkpt><trkpt lat="44.0019714" lon="11.278395"><ele>267.8571428571429</ele><time>2026-03-28T10:22:36.942Z</time></trkpt><trkpt lat="44.0019694" lon="11.2783008"><ele>268.14285714285717</ele><time>2026-03-28T10:22:40.964Z</time></trkpt><trkpt lat="44.0019623" lon="11.2782081"><ele>268.42857142857144</ele><time>2026-03-28T10:22:43.954Z</time></trkpt><trkpt lat="44.0019417" lon="11.2781007"><ele>268.7142857142857</ele><time>2026-03-28T10:22:46.97Z</time></trkpt><trkpt lat="44.0019195" lon="11.2779875"><ele>269.0</ele><time>2026-03-28T10:22:50.037Z</time></trkpt><trkpt lat="44.0018954" lon="11.2778744"><ele>268.42857142857144</ele><time>2026-03-28T10:22:52.972Z</time></trkpt><trkpt lat="44.0018621" lon="11.2777478"><ele>267.8571428571429</ele><time>2026-03-28T10:22:55.967Z</time></trkpt><trkpt lat="44.0018451" lon="11.2776525"><ele>267.2857142857143</ele><time>2026-03-28T10:22:57.974Z</time></trkpt><trkpt lat="44.0018289" lon="11.2775636"><ele>266.7142857142857</ele><time>2026-03-28T10:22:59.97Z</time></trkpt><trkpt lat="44.0018136" lon="11.2774687"><ele>266.1428571428571</ele><time>2026-03-28T10:23:01.971Z</time></trkpt><trkpt lat="44.0017965" lon="11.2773757"><ele>265.57142857142856</ele><time>2026-03-28T10:23:03.978Z</time></trkpt><trkpt lat="44.001779" lon="11.2772794"><ele>265.0</ele><time>2026-03-28T10:23:06.96Z</time></trkpt><trkpt lat="44.0017612" lon="11.2771868"><ele>264.99999999999994</ele><time>2026-03-28T10:25:07.963Z</time></trkpt><trkpt lat="44.0016783" lon="11.2771709"><ele>265.0</ele><time>2026-03-28T10:25:13.954Z</time></trkpt><trkpt lat="44.0016148" lon="11.2771757"><ele>265.0</ele><time>2026-03-28T10:25:15.96Z</time></trkpt><trkpt lat="44.0015486" lon="11.2771859"><ele>265.0</ele><time>2026-03-28T10:25:35.954Z</time></trkpt><trkpt lat="44.001478" lon="11.2771966"><ele>265.0</ele><time>2026-03-28T10:25:40.96Z</time></trkpt><trkpt lat="44.001543" lon="11.2772175"><ele>264.99999999999994</ele><time>2026-03-28T10:26:30.971Z</time></trkpt><trkpt lat="44.0016334" lon="11.2772015"><ele>265.0</ele><time>2026-03-28T10:27:48.975Z</time></trkpt><trkpt lat="44.0016974" lon="11.277188"><ele>265.0</ele><time>2026-03-28T10:27:53.978Z</time></trkpt><trkpt lat="44.0017628" lon="11.2771979"><ele>265.0</ele><time>2026-03-28T10:28:58.98Z</time></trkpt><trkpt lat="44.0017939" lon="11.2773081"><ele>265.0</ele><time>2026-03-28T10:32:51.977Z</time></trkpt><trkpt lat="44.0018168" lon="11.2774326"><ele>265.0</ele><time>2026-03-28T10:32:54.973Z</time></trkpt><trkpt lat="44.0018388" lon="11.2775408"><ele>265.0</ele><time>2026-03-28T10:32:57.983Z</time></trkpt><trkpt lat="44.0018564" lon="11.2776424"><ele>265.0</ele><time>2026-03-28T10:33:00.98Z</time></trkpt><trkpt lat="44.0018775" lon="11.2777622"><ele>264.8333333333333</ele><time>2026-03-28T10:33:03.977Z</time></trkpt><trkpt lat="44.0019019" lon="11.2778871"><ele>264.66666666666663</ele><time>2026-03-28T10:33:06.978Z</time></trkpt><trkpt lat="44.0019297" lon="11.2780088"><ele>264.5</ele><time>2026-03-28T10:33:09.98Z</time></trkpt><trkpt lat="44.0019482" lon="11.2780976"><ele>264.3333333333333</ele><time>2026-03-28T10:33:11.984Z</time></trkpt><trkpt lat="44.0019675" lon="11.2781965"><ele>264.1666666666667</ele><time>2026-03-28T10:33:13.978Z</time></trkpt><trkpt lat="44.0019771" lon="11.2783297"><ele>264.0</ele><time>2026-03-28T10:33:15.97Z</time></trkpt><trkpt lat="44.0019921" lon="11.2784567"><ele>264.5</ele><time>2026-03-28T10:33:17.985Z</time></trkpt><trkpt lat="44.001983" lon="11.2785508"><ele>265.0</ele><time>2026-03-28T10:33:19.988Z</time></trkpt><trkpt lat="44.0019408" lon="11.2786733"><ele>265.5</ele><time>2026-03-28T10:33:22.984Z</time></trkpt><trkpt lat="44.0019235" lon="11.2787823"><ele>266.0</ele><time>2026-03-28T10:33:24.966Z</time></trkpt><trkpt lat="44.0018984" lon="11.2788861"><ele>266.5</ele><time>2026-03-28T10:33:26.977Z</time></trkpt><trkpt lat="44.0018749" lon="11.2789766"><ele>267.0</ele><time>2026-03-28T10:33:28.966Z</time></trkpt><trkpt lat="44.001851" lon="11.2790671"><ele>267.00000000000006</ele><time>2026-03-28T10:33:30.975Z</time></trkpt><trkpt lat="44.0018264" lon="11.2791653"><ele>267.0</ele><time>2026-03-28T10:33:32.973Z</time></trkpt><trkpt lat="44.0017922" lon="11.279249"><ele>267.0</ele><time>2026-03-28T10:33:34.979Z</time></trkpt><trkpt lat="44.0017592" lon="11.2793344"><ele>267.0</ele><time>2026-03-28T10:33:37.989Z</time></trkpt><trkpt lat="44.0017303" lon="11.2794212"><ele>267.0</ele><time>2026-03-28T10:33:40.981Z</time></trkpt><trkpt lat="44.0016937" lon="11.279499"><ele>267.00000000000006</ele><time>2026-03-28T10:33:44.975Z</time></trkpt><trkpt lat="44.0016608" lon="11.27959"><ele>267.0</ele><time>2026-03-28T10:33:50.973Z</time></trkpt><trkpt lat="44.0016368" lon="11.2796792"><ele>266.5714285714286</ele><time>2026-03-28T10:33:55.983Z</time></trkpt><trkpt lat="44.0016116" lon="11.2797622"><ele>266.14285714285717</ele><time>2026-03-28T10:34:02.969Z</time></trkpt><trkpt lat="44.0015574" lon="11.2798435"><ele>265.7142857142857</ele><time>2026-03-28T10:37:19.973Z</time></trkpt><trkpt lat="44.0015174" lon="11.2799312"><ele>265.28571428571433</ele><time>2026-03-28T10:37:22.967Z</time></trkpt><trkpt lat="44.0014938" lon="11.2800183"><ele>264.8571428571429</ele><time>2026-03-28T10:37:25.965Z</time></trkpt><trkpt lat="44.0014718" lon="11.2801054"><ele>264.42857142857144</ele><time>2026-03-28T10:37:29.972Z</time></trkpt><trkpt lat="44.0014229" lon="11.2801961"><ele>264.0</ele><time>2026-03-28T10:37:34.962Z</time></trkpt><trkpt lat="44.0014033" lon="11.2802898"><ele>263.0</ele><time>2026-03-28T10:37:37.964Z</time></trkpt><trkpt lat="44.0014048" lon="11.2803795"><ele>262.0</ele><time>2026-03-28T10:37:40.973Z</time></trkpt><trkpt lat="44.0014376" lon="11.2804697"><ele>261.0</ele><time>2026-03-28T10:37:43.955Z</time></trkpt><trkpt lat="44.0014825" lon="11.2805494"><ele>260.0</ele><time>2026-03-28T10:37:52.961Z</time></trkpt><trkpt lat="44.0015339" lon="11.2806163"><ele>259.0</ele><time>2026-03-28T10:37:57.959Z</time></trkpt><trkpt lat="44.0015885" lon="11.2806775"><ele>258.0</ele><time>2026-03-28T10:38:02.968Z</time></trkpt><trkpt lat="44.0016711" lon="11.2807295"><ele>257.0</ele><time>2026-03-28T10:38:05.953Z</time></trkpt><trkpt lat="44.0017485" lon="11.2807778"><ele>257.0</ele><time>2026-03-28T10:38:08.963Z</time></trkpt><trkpt lat="44.0018111" lon="11.2808077"><ele>257.0</ele><time>2026-03-28T10:38:10.958Z</time></trkpt><trkpt lat="44.0019055" lon="11.2808421"><ele>257.0</ele><time>2026-03-28T10:38:12.969Z</time></trkpt><trkpt lat="44.0020034" lon="11.2808707"><ele>257.0</ele><time>2026-03-28T10:38:14.969Z</time></trkpt><trkpt lat="44.0021018" lon="11.2809128"><ele>257.0</ele><time>2026-03-28T10:38:16.958Z</time></trkpt><trkpt lat="44.002183" lon="11.2809467"><ele>257.0</ele><time>2026-03-28T10:38:18.967Z</time></trkpt><trkpt lat="44.0022684" lon="11.2809915"><ele>257.0</ele><time>2026-03-28T10:38:20.975Z</time></trkpt><trkpt lat="44.0023662" lon="11.2810254"><ele>257.0</ele><time>2026-03-28T10:38:22.974Z</time></trkpt><trkpt lat="44.0024638" lon="11.281051"><ele>257.0</ele><time>2026-03-28T10:38:24.972Z</time></trkpt><trkpt lat="44.0025615" lon="11.2810798"><ele>257.0</ele><time>2026-03-28T10:38:26.97Z</time></trkpt><trkpt lat="44.0026409" lon="11.281114"><ele>256.8</ele><time>2026-03-28T10:38:28.949Z</time></trkpt><trkpt lat="44.0027004" lon="11.2811491"><ele>256.6</ele><time>2026-03-28T10:38:31.969Z</time></trkpt><trkpt lat="44.0028049" lon="11.2811592"><ele>256.40000000000003</ele><time>2026-03-28T10:38:43.965Z</time></trkpt><trkpt lat="44.0029156" lon="11.2811718"><ele>256.2</ele><time>2026-03-28T10:38:45.976Z</time></trkpt><trkpt lat="44.0030273" lon="11.2811955"><ele>256.0</ele><time>2026-03-28T10:38:47.97Z</time></trkpt><trkpt lat="44.0030898" lon="11.2812135"><ele>256.0</ele><time>2026-03-28T10:38:48.964Z</time></trkpt><trkpt lat="44.0031542" lon="11.2812352"><ele>256.0</ele><time>2026-03-28T10:38:49.978Z</time></trkpt><trkpt lat="44.003218" lon="11.2812517"><ele>256.0</ele><time>2026-03-28T10:38:50.972Z</time></trkpt><trkpt lat="44.0033318" lon="11.2812755"><ele>256.0</ele><time>2026-03-28T10:38:52.974Z</time></trkpt><trkpt lat="44.0034242" lon="11.2812952"><ele>256.0</ele><time>2026-03-28T10:38:54.977Z</time></trkpt><trkpt lat="44.0035333" lon="11.2813163"><ele>256.6</ele><time>2026-03-28T10:38:56.972Z</time></trkpt><trkpt lat="44.0035961" lon="11.2813353"><ele>257.20000000000005</ele><time>2026-03-28T10:38:57.97Z</time></trkpt><trkpt lat="44.0036593" lon="11.2813562"><ele>257.79999999999995</ele><time>2026-03-28T10:38:58.969Z</time></trkpt><trkpt lat="44.0037782" lon="11.2813904"><ele>258.4</ele><time>2026-03-28T10:39:00.971Z</time></trkpt><trkpt lat="44.0038929" lon="11.2814199"><ele>259.0</ele><time>2026-03-28T10:39:02.975Z</time></trkpt><trkpt lat="44.0039871" lon="11.2814558"><ele>259.0</ele><time>2026-03-28T10:39:04.966Z</time></trkpt><trkpt lat="44.0040585" lon="11.2815401"><ele>259.0</ele><time>2026-03-28T10:39:06.966Z</time></trkpt><trkpt lat="44.0041112" lon="11.2816622"><ele>259.0</ele><time>2026-03-28T10:39:08.965Z</time></trkpt><trkpt lat="44.0041155" lon="11.2817935"><ele>259.0</ele><time>2026-03-28T10:39:10.977Z</time></trkpt><trkpt lat="44.0041158" lon="11.2819195"><ele>259.0</ele><time>2026-03-28T10:39:12.96Z</time></trkpt><trkpt lat="44.0041214" lon="11.2820127"><ele>259.0</ele><time>2026-03-28T10:39:17.047Z</time></trkpt><trkpt lat="44.0041426" lon="11.2821094"><ele>259.5</ele><time>2026-03-28T10:39:26.034Z</time></trkpt><trkpt lat="44.0041726" lon="11.2822221"><ele>260.0</ele><time>2026-03-28T10:39:29.972Z</time></trkpt><trkpt lat="44.0042098" lon="11.2823268"><ele>260.5</ele><time>2026-03-28T10:39:33.976Z</time></trkpt><trkpt lat="44.0042575" lon="11.2823972"><ele>261.0</ele><time>2026-03-28T10:39:36.967Z</time></trkpt><trkpt lat="44.0043236" lon="11.282454"><ele>261.5</ele><time>2026-03-28T10:39:39.975Z</time></trkpt><trkpt lat="44.0043881" lon="11.2824507"><ele>262.0</ele><time>2026-03-28T10:39:45.963Z</time></trkpt><trkpt lat="44.0043048" lon="11.2824387"><ele>262.0</ele><time>2026-03-28T10:39:55.033Z</time></trkpt><trkpt lat="44.0042488" lon="11.2823909"><ele>262.0</ele><time>2026-03-28T10:39:57.967Z</time></trkpt><trkpt lat="44.0042044" lon="11.2823162"><ele>262.0</ele><time>2026-03-28T10:40:00.964Z</time></trkpt><trkpt lat="44.0041755" lon="11.2822371"><ele>262.0</ele><time>2026-03-28T10:40:04.967Z</time></trkpt><trkpt lat="44.0041408" lon="11.2821635"><ele>262.0</ele><time>2026-03-28T10:40:07.959Z</time></trkpt><trkpt lat="44.0041194" lon="11.2820558"><ele>262.0</ele><time>2026-03-28T10:40:11.961Z</time></trkpt><trkpt lat="44.0041071" lon="11.2819536"><ele>262.0</ele><time>2026-03-28T10:40:14.963Z</time></trkpt><trkpt lat="44.004107" lon="11.2818582"><ele>262.0</ele><time>2026-03-28T10:40:17.968Z</time></trkpt><trkpt lat="44.0040855" lon="11.2817381"><ele>262.0</ele><time>2026-03-28T10:42:14.966Z</time></trkpt><trkpt lat="44.0040683" lon="11.2816447"><ele>262.0</ele><time>2026-03-28T10:42:17.972Z</time></trkpt><trkpt lat="44.0040377" lon="11.281533"><ele>262.0</ele><time>2026-03-28T10:42:20.032Z</time></trkpt><trkpt lat="44.0039824" lon="11.2814363"><ele>262.0</ele><time>2026-03-28T10:42:21.979Z</time></trkpt><trkpt lat="44.0038638" lon="11.2813957"><ele>262.0</ele><time>2026-03-28T10:42:23.977Z</time></trkpt><trkpt lat="44.0037894" lon="11.2813883"><ele>262.0</ele><time>2026-03-28T10:42:24.983Z</time></trkpt><trkpt lat="44.0037241" lon="11.2813792"><ele>262.0</ele><time>2026-03-28T10:42:25.957Z</time></trkpt><trkpt lat="44.0036099" lon="11.2813374"><ele>262.0</ele><time>2026-03-28T10:42:28.008Z</time></trkpt><trkpt lat="44.003545" lon="11.2813221"><ele>262.0</ele><time>2026-03-28T10:42:28.976Z</time></trkpt><trkpt lat="44.0034268" lon="11.2812885"><ele>262.0</ele><time>2026-03-28T10:42:30.967Z</time></trkpt><trkpt lat="44.0033638" lon="11.2812773"><ele>261.0</ele><time>2026-03-28T10:42:31.966Z</time></trkpt><trkpt lat="44.0032972" lon="11.2812649"><ele>260.0</ele><time>2026-03-28T10:42:32.959Z</time></trkpt><trkpt lat="44.0032345" lon="11.2812467"><ele>259.0</ele><time>2026-03-28T10:42:33.966Z</time></trkpt><trkpt lat="44.0031721" lon="11.2812321"><ele>258.0</ele><time>2026-03-28T10:42:34.96Z</time></trkpt><trkpt lat="44.0030503" lon="11.2811999"><ele>257.0</ele><time>2026-03-28T10:42:36.959Z</time></trkpt><trkpt lat="44.0029345" lon="11.2811758"><ele>256.0</ele><time>2026-03-28T10:42:38.952Z</time></trkpt><trkpt lat="44.0028204" lon="11.2811503"><ele>256.0</ele><time>2026-03-28T10:42:40.959Z</time></trkpt><trkpt lat="44.0027276" lon="11.2811769"><ele>256.0</ele><time>2026-03-28T10:42:42.939Z</time></trkpt><trkpt lat="44.002648" lon="11.2812725"><ele>256.0</ele><time>2026-03-28T10:42:44.939Z</time></trkpt><trkpt lat="44.0025883" lon="11.281387"><ele>256.0</ele><time>2026-03-28T10:42:46.954Z</time></trkpt><trkpt lat="44.0025402" lon="11.2815155"><ele>256.0</ele><time>2026-03-28T10:42:48.961Z</time></trkpt><trkpt lat="44.0024884" lon="11.2816329"><ele>256.2</ele><time>2026-03-28T10:42:50.962Z</time></trkpt><trkpt lat="44.0024247" lon="11.2817614"><ele>256.40000000000003</ele><time>2026-03-28T10:42:52.948Z</time></trkpt><trkpt lat="44.0023548" lon="11.281885"><ele>256.6</ele><time>2026-03-28T10:42:54.961Z</time></trkpt><trkpt lat="44.0022942" lon="11.2819916"><ele>256.8</ele><time>2026-03-28T10:42:57.031Z</time></trkpt><trkpt lat="44.002258" lon="11.2821226"><ele>257.0</ele><time>2026-03-28T10:42:59.031Z</time></trkpt><trkpt lat="44.002248" lon="11.2822199"><ele>257.5</ele><time>2026-03-28T10:43:00.037Z</time></trkpt><trkpt lat="44.0022423" lon="11.2823196"><ele>258.0</ele><time>2026-03-28T10:43:00.968Z</time></trkpt><trkpt lat="44.0022497" lon="11.2824132"><ele>258.5</ele><time>2026-03-28T10:43:01.964Z</time></trkpt><trkpt lat="44.0022576" lon="11.2825023"><ele>259.0</ele><time>2026-03-28T10:43:03.007Z</time></trkpt><trkpt lat="44.0022707" lon="11.2826728"><ele>259.5</ele><time>2026-03-28T10:43:04.944Z</time></trkpt><trkpt lat="44.0022701" lon="11.2827637"><ele>260.0</ele><time>2026-03-28T10:43:05.968Z</time></trkpt><trkpt lat="44.0022682" lon="11.2828586"><ele>260.0</ele><time>2026-03-28T10:43:06.968Z</time></trkpt><trkpt lat="44.0022645" lon="11.2829587"><ele>260.0</ele><time>2026-03-28T10:43:07.95Z</time></trkpt><trkpt lat="44.0022645" lon="11.2830509"><ele>260.0</ele><time>2026-03-28T10:43:09.03Z</time></trkpt><trkpt lat="44.0022614" lon="11.283142"><ele>260.0</ele><time>2026-03-28T10:43:10.024Z</time></trkpt><trkpt lat="44.0022684" lon="11.283298"><ele>260.0</ele><time>2026-03-28T10:43:11.967Z</time></trkpt><trkpt lat="44.002264" lon="11.2834414"><ele>260.0</ele><time>2026-03-28T10:43:13.964Z</time></trkpt><trkpt lat="44.0022595" lon="11.2835942"><ele>260.4</ele><time>2026-03-28T10:43:15.971Z</time></trkpt><trkpt lat="44.0022641" lon="11.283745"><ele>260.8</ele><time>2026-03-28T10:43:18.06Z</time></trkpt><trkpt lat="44.00227" lon="11.2838861"><ele>261.2</ele><time>2026-03-28T10:43:19.973Z</time></trkpt><trkpt lat="44.0022711" lon="11.2840245"><ele>261.6</ele><time>2026-03-28T10:43:21.967Z</time></trkpt><trkpt lat="44.0022617" lon="11.2841641"><ele>262.0</ele><time>2026-03-28T10:43:23.983Z</time></trkpt><trkpt lat="44.0022636" lon="11.2842977"><ele>262.0</ele><time>2026-03-28T10:43:25.972Z</time></trkpt><trkpt lat="44.0022656" lon="11.2844184"><ele>262.0</ele><time>2026-03-28T10:43:28.01Z</time></trkpt><trkpt lat="44.0022819" lon="11.2845147"><ele>262.0</ele><time>2026-03-28T10:43:29.973Z</time></trkpt><trkpt lat="44.0022679" lon="11.2846351"><ele>262.0</ele><time>2026-03-28T10:43:33.022Z</time></trkpt><trkpt lat="44.0021952" lon="11.2846937"><ele>262.0</ele><time>2026-03-28T10:43:34.968Z</time></trkpt><trkpt lat="44.0020817" lon="11.2847021"><ele>262.0</ele><time>2026-03-28T10:43:36.961Z</time></trkpt><trkpt lat="44.0020095" lon="11.2846849"><ele>262.0</ele><time>2026-03-28T10:43:37.971Z</time></trkpt><trkpt lat="44.0019389" lon="11.2846676"><ele>262.0</ele><time>2026-03-28T10:43:38.967Z</time></trkpt><trkpt lat="44.0018691" lon="11.2846472"><ele>262.0</ele><time>2026-03-28T10:43:39.955Z</time></trkpt><trkpt lat="44.001796" lon="11.284638"><ele>262.0</ele><time>2026-03-28T10:43:40.959Z</time></trkpt><trkpt lat="44.0017186" lon="11.2846336"><ele>262.0</ele><time>2026-03-28T10:43:41.963Z</time></trkpt><trkpt lat="44.0016404" lon="11.2846305"><ele>262.0</ele><time>2026-03-28T10:43:42.967Z</time></trkpt><trkpt lat="44.0015626" lon="11.2846194"><ele>261.8333333333333</ele><time>2026-03-28T10:43:43.968Z</time></trkpt><trkpt lat="44.0014775" lon="11.2846088"><ele>261.66666666666663</ele><time>2026-03-28T10:43:44.937Z</time></trkpt><trkpt lat="44.001388" lon="11.2845962"><ele>261.5</ele><time>2026-03-28T10:43:45.945Z</time></trkpt><trkpt lat="44.0012968" lon="11.2845908"><ele>261.3333333333333</ele><time>2026-03-28T10:43:46.962Z</time></trkpt><trkpt lat="44.0012044" lon="11.2845868"><ele>261.1666666666667</ele><time>2026-03-28T10:43:47.964Z</time></trkpt><trkpt lat="44.0011223" lon="11.2845858"><ele>261.0</ele><time>2026-03-28T10:43:49.033Z</time></trkpt><trkpt lat="44.0010442" lon="11.2845844"><ele>261.0</ele><time>2026-03-28T10:43:50.01Z</time></trkpt><trkpt lat="44.0009719" lon="11.284586"><ele>261.0</ele><time>2026-03-28T10:43:50.968Z</time></trkpt><trkpt lat="44.0008924" lon="11.2845816"><ele>261.0</ele><time>2026-03-28T10:43:51.967Z</time></trkpt><trkpt lat="44.0007988" lon="11.2845681"><ele>261.0</ele><time>2026-03-28T10:43:52.981Z</time></trkpt><trkpt lat="44.000703" lon="11.2845622"><ele>261.0</ele><time>2026-03-28T10:43:53.954Z</time></trkpt><trkpt lat="44.0005928" lon="11.284556"><ele>260.75</ele><time>2026-03-28T10:43:54.965Z</time></trkpt><trkpt lat="44.0004789" lon="11.2845487"><ele>260.5</ele><time>2026-03-28T10:43:55.967Z</time></trkpt><trkpt lat="44.0003555" lon="11.2845426"><ele>260.25</ele><time>2026-03-28T10:43:57.027Z</time></trkpt><trkpt lat="44.0002293" lon="11.284543"><ele>260.0</ele><time>2026-03-28T10:43:58.033Z</time></trkpt><trkpt lat="44.0000968" lon="11.2845349"><ele>260.0</ele><time>2026-03-28T10:43:59.021Z</time></trkpt><trkpt lat="43.9999601" lon="11.2845271"><ele>260.0</ele><time>2026-03-28T10:44:00.033Z</time></trkpt><trkpt lat="43.9998226" lon="11.2845198"><ele>260.0</ele><time>2026-03-28T10:44:00.965Z</time></trkpt><trkpt lat="43.9996836" lon="11.284507"><ele>260.0</ele><time>2026-03-28T10:44:01.969Z</time></trkpt><trkpt lat="43.9995472" lon="11.2844939"><ele>260.0</ele><time>2026-03-28T10:44:02.974Z</time></trkpt><trkpt lat="43.9994225" lon="11.2844725"><ele>260.0</ele><time>2026-03-28T10:44:03.967Z</time></trkpt><trkpt lat="43.9993014" lon="11.2844442"><ele>260.0</ele><time>2026-03-28T10:44:05.03Z</time></trkpt><trkpt lat="43.9991903" lon="11.284412"><ele>260.0</ele><time>2026-03-28T10:44:05.966Z</time></trkpt><trkpt lat="43.9990799" lon="11.2843818"><ele>259.5</ele><time>2026-03-28T10:44:06.968Z</time></trkpt><trkpt lat="43.9989693" lon="11.2843371"><ele>259.0</ele><time>2026-03-28T10:44:07.977Z</time></trkpt><trkpt lat="43.998855" lon="11.2842837"><ele>258.5</ele><time>2026-03-28T10:44:09.035Z</time></trkpt><trkpt lat="43.9987455" lon="11.2842127"><ele>258.0</ele><time>2026-03-28T10:44:10.036Z</time></trkpt><trkpt lat="43.9986396" lon="11.2841204"><ele>258.0</ele><time>2026-03-28T10:44:10.973Z</time></trkpt><trkpt lat="43.9985292" lon="11.2840247"><ele>258.0</ele><time>2026-03-28T10:44:11.969Z</time></trkpt><trkpt lat="43.9984224" lon="11.2839293"><ele>258.0</ele><time>2026-03-28T10:44:12.996Z</time></trkpt><trkpt lat="43.9983233" lon="11.2838406"><ele>258.0</ele><time>2026-03-28T10:44:14.042Z</time></trkpt><trkpt lat="43.9982351" lon="11.283771"><ele>257.6666666666667</ele><time>2026-03-28T10:44:15.028Z</time></trkpt><trkpt lat="43.9981593" lon="11.2837118"><ele>257.3333333333333</ele><time>2026-03-28T10:44:15.983Z</time></trkpt><trkpt lat="43.9981002" lon="11.283665"><ele>257.0</ele><time>2026-03-28T10:44:16.975Z</time></trkpt><trkpt lat="43.9980232" lon="11.28359"><ele>256.66666666666663</ele><time>2026-03-28T10:44:18.977Z</time></trkpt><trkpt lat="43.9979436" lon="11.2835153"><ele>256.3333333333333</ele><time>2026-03-28T10:44:22.031Z</time></trkpt><trkpt lat="43.9978868" lon="11.2834612"><ele>256.0</ele><time>2026-03-28T10:44:23.972Z</time></trkpt><trkpt lat="43.9978263" lon="11.2834031"><ele>255.99999999999997</ele><time>2026-03-28T10:44:25.95Z</time></trkpt><trkpt lat="43.9977509" lon="11.2833681"><ele>256.0</ele><time>2026-03-28T10:44:27.967Z</time></trkpt><trkpt lat="43.9976645" lon="11.2833259"><ele>256.0</ele><time>2026-03-28T10:44:29.941Z</time></trkpt><trkpt lat="43.9975858" lon="11.2832755"><ele>256.0</ele><time>2026-03-28T10:44:31.955Z</time></trkpt><trkpt lat="43.9975177" lon="11.2832334"><ele>255.99999999999997</ele><time>2026-03-28T10:44:33.956Z</time></trkpt><trkpt lat="43.9974474" lon="11.2831901"><ele>256.0</ele><time>2026-03-28T10:44:35.965Z</time></trkpt><trkpt lat="43.997394" lon="11.2831275"><ele>255.57142857142856</ele><time>2026-03-28T10:44:37.944Z</time></trkpt><trkpt lat="43.9973608" lon="11.2830419"><ele>255.1428571428571</ele><time>2026-03-28T10:44:39.962Z</time></trkpt><trkpt lat="43.9973699" lon="11.2829493"><ele>254.71428571428572</ele><time>2026-03-28T10:44:41.962Z</time></trkpt><trkpt lat="43.9973938" lon="11.2828569"><ele>254.28571428571428</ele><time>2026-03-28T10:44:43.971Z</time></trkpt><trkpt lat="43.9974118" lon="11.282751"><ele>253.85714285714286</ele><time>2026-03-28T10:44:45.965Z</time></trkpt><trkpt lat="43.9974184" lon="11.2826447"><ele>253.42857142857144</ele><time>2026-03-28T10:44:47.965Z</time></trkpt><trkpt lat="43.9974313" lon="11.2825403"><ele>253.00000000000003</ele><time>2026-03-28T10:44:51.971Z</time></trkpt><trkpt lat="43.9974569" lon="11.282435"><ele>252.99999999999997</ele><time>2026-03-28T10:44:55.957Z</time></trkpt><trkpt lat="43.9974902" lon="11.2823509"><ele>253.0</ele><time>2026-03-28T10:44:58.956Z</time></trkpt><trkpt lat="43.9974993" lon="11.2822486"><ele>253.0</ele><time>2026-03-28T10:45:01.964Z</time></trkpt><trkpt lat="43.9975037" lon="11.2821526"><ele>253.0</ele><time>2026-03-28T10:45:09.965Z</time></trkpt><trkpt lat="43.9974566" lon="11.2820815"><ele>252.99999999999997</ele><time>2026-03-28T10:45:12.958Z</time></trkpt><trkpt lat="43.9974061" lon="11.2819998"><ele>253.0</ele><time>2026-03-28T10:45:14.962Z</time></trkpt><trkpt lat="43.9973342" lon="11.2819137"><ele>252.83333333333331</ele><time>2026-03-28T10:45:16.96Z</time></trkpt><trkpt lat="43.9972379" lon="11.2818198"><ele>252.66666666666666</ele><time>2026-03-28T10:45:18.963Z</time></trkpt><trkpt lat="43.99715" lon="11.2817312"><ele>252.5</ele><time>2026-03-28T10:45:20.964Z</time></trkpt><trkpt lat="43.997085" lon="11.2816861"><ele>252.33333333333331</ele><time>2026-03-28T10:45:22.964Z</time></trkpt><trkpt lat="43.9970359" lon="11.2816279"><ele>252.16666666666666</ele><time>2026-03-28T10:45:24.965Z</time></trkpt><trkpt lat="43.9969812" lon="11.2815461"><ele>252.0</ele><time>2026-03-28T10:45:27.03Z</time></trkpt><trkpt lat="43.9968993" lon="11.2814533"><ele>252.0</ele><time>2026-03-28T10:45:28.968Z</time></trkpt><trkpt lat="43.9968471" lon="11.2813911"><ele>252.0</ele><time>2026-03-28T10:45:30.966Z</time></trkpt><trkpt lat="43.9967791" lon="11.2814207"><ele>252.0</ele><time>2026-03-28T10:45:48.956Z</time></trkpt><trkpt lat="43.9967525" lon="11.2815012"><ele>252.0</ele><time>2026-03-28T10:45:50.971Z</time></trkpt><trkpt lat="43.996742" lon="11.2816174"><ele>252.0</ele><time>2026-03-28T10:45:52.974Z</time></trkpt><trkpt lat="43.9967626" lon="11.2817969"><ele>252.0</ele><time>2026-03-28T10:45:54.968Z</time></trkpt><trkpt lat="43.9967882" lon="11.2818851"><ele>252.0</ele><time>2026-03-28T10:45:55.976Z</time></trkpt><trkpt lat="43.9968157" lon="11.2819827"><ele>252.0</ele><time>2026-03-28T10:45:56.964Z</time></trkpt><trkpt lat="43.996836" lon="11.2820817"><ele>252.0</ele><time>2026-03-28T10:45:57.964Z</time></trkpt><trkpt lat="43.9968558" lon="11.2821829"><ele>252.0</ele><time>2026-03-28T10:45:59.025Z</time></trkpt><trkpt lat="43.9968745" lon="11.2822868"><ele>252.0</ele><time>2026-03-28T10:46:00.034Z</time></trkpt><trkpt lat="43.9968923" lon="11.2823729"><ele>252.0</ele><time>2026-03-28T10:46:00.965Z</time></trkpt><trkpt lat="43.9969099" lon="11.2825064"><ele>252.16666666666666</ele><time>2026-03-28T10:46:02.954Z</time></trkpt><trkpt lat="43.9969307" lon="11.2826111"><ele>252.33333333333331</ele><time>2026-03-28T10:46:04.96Z</time></trkpt><trkpt lat="43.9969571" lon="11.2827173"><ele>252.5</ele><time>2026-03-28T10:46:07.052Z</time></trkpt><trkpt lat="43.996978" lon="11.2828172"><ele>252.66666666666666</ele><time>2026-03-28T10:46:09.004Z</time></trkpt><trkpt lat="43.9969933" lon="11.2829296"><ele>252.83333333333331</ele><time>2026-03-28T10:46:10.952Z</time></trkpt><trkpt lat="43.9970135" lon="11.2830524"><ele>253.0</ele><time>2026-03-28T10:46:12.963Z</time></trkpt><trkpt lat="43.9970412" lon="11.2831574"><ele>253.2</ele><time>2026-03-28T10:46:14.979Z</time></trkpt><trkpt lat="43.9970737" lon="11.2832557"><ele>253.4</ele><time>2026-03-28T10:46:16.939Z</time></trkpt><trkpt lat="43.9971223" lon="11.2833614"><ele>253.59999999999997</ele><time>2026-03-28T10:46:18.949Z</time></trkpt><trkpt lat="43.997196" lon="11.283475"><ele>253.79999999999998</ele><time>2026-03-28T10:46:20.963Z</time></trkpt><trkpt lat="43.9972781" lon="11.2835823"><ele>254.0</ele><time>2026-03-28T10:46:23.032Z</time></trkpt><trkpt lat="43.9973557" lon="11.2836855"><ele>254.00000000000003</ele><time>2026-03-28T10:46:25.047Z</time></trkpt><trkpt lat="43.9974178" lon="11.2837178"><ele>254.0</ele><time>2026-03-28T10:46:26.961Z</time></trkpt><trkpt lat="43.9974523" lon="11.2836062"><ele>254.0</ele><time>2026-03-28T10:46:29.962Z</time></trkpt><trkpt lat="43.9974041" lon="11.2835104"><ele>254.0</ele><time>2026-03-28T10:46:32.97Z</time></trkpt><trkpt lat="43.9973997" lon="11.2834226"><ele>254.00000000000003</ele><time>2026-03-28T10:46:34.944Z</time></trkpt><trkpt lat="43.9973904" lon="11.2833285"><ele>254.0</ele><time>2026-03-28T10:46:36.968Z</time></trkpt><trkpt lat="43.9974028" lon="11.2832073"><ele>254.00000000000003</ele><time>2026-03-28T10:46:39.96Z</time></trkpt><trkpt lat="43.997463" lon="11.2831807"><ele>254.0</ele><time>2026-03-28T10:46:42.955Z</time></trkpt><trkpt lat="43.9975358" lon="11.2832101"><ele>254.0</ele><time>2026-03-28T10:46:45.964Z</time></trkpt><trkpt lat="43.9975815" lon="11.2832762"><ele>254.0</ele><time>2026-03-28T10:46:47.969Z</time></trkpt><trkpt lat="43.9976528" lon="11.2833342"><ele>254.00000000000003</ele><time>2026-03-28T10:46:49.962Z</time></trkpt><trkpt lat="43.9977344" lon="11.283388"><ele>254.0</ele><time>2026-03-28T10:46:51.964Z</time></trkpt><trkpt lat="43.997825" lon="11.2834539"><ele>254.39999999999998</ele><time>2026-03-28T10:46:54.032Z</time></trkpt><trkpt lat="43.9979112" lon="11.2835398"><ele>254.79999999999998</ele><time>2026-03-28T10:46:55.962Z</time></trkpt><trkpt lat="43.9979993" lon="11.2836162"><ele>255.20000000000002</ele><time>2026-03-28T10:46:57.958Z</time></trkpt><trkpt lat="43.9980726" lon="11.283669"><ele>255.60000000000002</ele><time>2026-03-28T10:46:59.974Z</time></trkpt><trkpt lat="43.9981619" lon="11.283748"><ele>256.0</ele><time>2026-03-28T10:47:02.033Z</time></trkpt><trkpt lat="43.998226" lon="11.2837975"><ele>256.0</ele><time>2026-03-28T10:47:03.031Z</time></trkpt><trkpt lat="43.9982929" lon="11.2838537"><ele>256.0</ele><time>2026-03-28T10:47:04.03Z</time></trkpt><trkpt lat="43.9983719" lon="11.2839133"><ele>256.0</ele><time>2026-03-28T10:47:04.96Z</time></trkpt><trkpt lat="43.9984504" lon="11.2839834"><ele>256.0</ele><time>2026-03-28T10:47:05.966Z</time></trkpt><trkpt lat="43.9985357" lon="11.2840606"><ele>256.0</ele><time>2026-03-28T10:47:06.961Z</time></trkpt><trkpt lat="43.9986143" lon="11.2841386"><ele>256.5</ele><time>2026-03-28T10:47:07.962Z</time></trkpt><trkpt lat="43.9987093" lon="11.2842127"><ele>257.0</ele><time>2026-03-28T10:47:08.95Z</time></trkpt><trkpt lat="43.9988103" lon="11.2842809"><ele>257.5</ele><time>2026-03-28T10:47:09.962Z</time></trkpt><trkpt lat="43.9989143" lon="11.2843391"><ele>258.0</ele><time>2026-03-28T10:47:10.96Z</time></trkpt><trkpt lat="43.9990249" lon="11.284389"><ele>258.0</ele><time>2026-03-28T10:47:11.965Z</time></trkpt><trkpt lat="43.9991416" lon="11.2844256"><ele>258.0</ele><time>2026-03-28T10:47:12.945Z</time></trkpt><trkpt lat="43.9992678" lon="11.2844552"><ele>258.0</ele><time>2026-03-28T10:47:13.935Z</time></trkpt><trkpt lat="43.9993951" lon="11.2844843"><ele>258.0</ele><time>2026-03-28T10:47:14.956Z</time></trkpt><trkpt lat="43.9995232" lon="11.2845038"><ele>258.5</ele><time>2026-03-28T10:47:15.961Z</time></trkpt><trkpt lat="43.999656" lon="11.284515"><ele>259.0</ele><time>2026-03-28T10:47:16.953Z</time></trkpt><trkpt lat="43.9997967" lon="11.2845331"><ele>259.5</ele><time>2026-03-28T10:47:17.956Z</time></trkpt><trkpt lat="43.9999478" lon="11.2845452"><ele>260.0</ele><time>2026-03-28T10:47:18.952Z</time></trkpt><trkpt lat="44.0001073" lon="11.2845533"><ele>260.0</ele><time>2026-03-28T10:47:19.967Z</time></trkpt><trkpt lat="44.0002619" lon="11.2845659"><ele>260.0</ele><time>2026-03-28T10:47:20.98Z</time></trkpt><trkpt lat="44.0004176" lon="11.2845754"><ele>260.0</ele><time>2026-03-28T10:47:21.963Z</time></trkpt><trkpt lat="44.0005622" lon="11.2845861"><ele>260.0</ele><time>2026-03-28T10:47:22.954Z</time></trkpt><trkpt lat="44.000696" lon="11.284599"><ele>260.0</ele><time>2026-03-28T10:47:23.962Z</time></trkpt><trkpt lat="44.0008193" lon="11.2846039"><ele>260.0</ele><time>2026-03-28T10:47:25.031Z</time></trkpt><trkpt lat="44.0009292" lon="11.2846128"><ele>260.0</ele><time>2026-03-28T10:47:25.976Z</time></trkpt><trkpt lat="44.0010352" lon="11.2846227"><ele>260.2</ele><time>2026-03-28T10:47:27.045Z</time></trkpt><trkpt lat="44.0011324" lon="11.2846251"><ele>260.4</ele><time>2026-03-28T10:47:28.029Z</time></trkpt><trkpt lat="44.0012332" lon="11.2846196"><ele>260.6</ele><time>2026-03-28T10:47:29.042Z</time></trkpt><trkpt lat="44.0013362" lon="11.2846142"><ele>260.8</ele><time>2026-03-28T10:47:30.03Z</time></trkpt><trkpt lat="44.0014345" lon="11.2846069"><ele>261.0</ele><time>2026-03-28T10:47:30.973Z</time></trkpt><trkpt lat="44.0015221" lon="11.2846095"><ele>261.0</ele><time>2026-03-28T10:47:32.042Z</time></trkpt><trkpt lat="44.0015989" lon="11.2846151"><ele>261.0</ele><time>2026-03-28T10:47:33.031Z</time></trkpt><trkpt lat="44.0016597" lon="11.2846396"><ele>261.0</ele><time>2026-03-28T10:47:33.981Z</time></trkpt><trkpt lat="44.0017339" lon="11.2847155"><ele>261.0</ele><time>2026-03-28T10:47:35.962Z</time></trkpt><trkpt lat="44.0017054" lon="11.2848178"><ele>261.0</ele><time>2026-03-28T10:47:40.047Z</time></trkpt><trkpt lat="44.0016189" lon="11.2848633"><ele>261.0</ele><time>2026-03-28T10:47:42.032Z</time></trkpt><trkpt lat="44.0014953" lon="11.2849117"><ele>261.40000000000003</ele><time>2026-03-28T10:47:43.981Z</time></trkpt><trkpt lat="44.0014166" lon="11.2849492"><ele>261.8</ele><time>2026-03-28T10:47:44.973Z</time></trkpt><trkpt lat="44.0013327" lon="11.2850027"><ele>262.20000000000005</ele><time>2026-03-28T10:47:45.973Z</time></trkpt><trkpt lat="44.0012428" lon="11.2850644"><ele>262.6</ele><time>2026-03-28T10:47:46.97Z</time></trkpt><trkpt lat="44.0011555" lon="11.2851309"><ele>263.0</ele><time>2026-03-28T10:47:47.976Z</time></trkpt><trkpt lat="44.0010641" lon="11.2851991"><ele>263.0</ele><time>2026-03-28T10:47:49.056Z</time></trkpt><trkpt lat="44.0009698" lon="11.2852784"><ele>263.0</ele><time>2026-03-28T10:47:49.97Z</time></trkpt><trkpt lat="44.0008696" lon="11.2853515"><ele>263.0</ele><time>2026-03-28T10:47:50.98Z</time></trkpt><trkpt lat="44.0007684" lon="11.2854256"><ele>263.0</ele><time>2026-03-28T10:47:51.968Z</time></trkpt><trkpt lat="44.0006663" lon="11.2855067"><ele>262.75</ele><time>2026-03-28T10:47:52.958Z</time></trkpt><trkpt lat="44.0005673" lon="11.2855844"><ele>262.5</ele><time>2026-03-28T10:47:53.966Z</time></trkpt><trkpt lat="44.0004677" lon="11.285663"><ele>262.25</ele><time>2026-03-28T10:47:54.969Z</time></trkpt><trkpt lat="44.0003645" lon="11.2857442"><ele>262.0</ele><time>2026-03-28T10:47:55.967Z</time></trkpt><trkpt lat="44.0002624" lon="11.2858284"><ele>262.0</ele><time>2026-03-28T10:47:56.956Z</time></trkpt><trkpt lat="44.0001526" lon="11.2859098"><ele>262.0</ele><time>2026-03-28T10:47:57.968Z</time></trkpt><trkpt lat="44.000044" lon="11.2859849"><ele>262.0</ele><time>2026-03-28T10:47:58.978Z</time></trkpt><trkpt lat="43.9999398" lon="11.2860599"><ele>262.0</ele><time>2026-03-28T10:48:00.035Z</time></trkpt><trkpt lat="43.9998381" lon="11.2861441"><ele>262.0</ele><time>2026-03-28T10:48:00.96Z</time></trkpt><trkpt lat="43.9997306" lon="11.2862308"><ele>262.0</ele><time>2026-03-28T10:48:01.973Z</time></trkpt><trkpt lat="43.9996152" lon="11.2863162"><ele>262.0</ele><time>2026-03-28T10:48:02.98Z</time></trkpt><trkpt lat="43.9994979" lon="11.2864015"><ele>262.0</ele><time>2026-03-28T10:48:03.992Z</time></trkpt><trkpt lat="43.9993758" lon="11.2864874"><ele>261.75</ele><time>2026-03-28T10:48:04.958Z</time></trkpt><trkpt lat="43.9992571" lon="11.2865775"><ele>261.5</ele><time>2026-03-28T10:48:05.971Z</time></trkpt><trkpt lat="43.9991403" lon="11.286672"><ele>261.25</ele><time>2026-03-28T10:48:07.045Z</time></trkpt><trkpt lat="43.9990191" lon="11.286763"><ele>261.0</ele><time>2026-03-28T10:48:08.033Z</time></trkpt><trkpt lat="43.9988952" lon="11.2868556"><ele>260.5</ele><time>2026-03-28T10:48:09.013Z</time></trkpt><trkpt lat="43.9987772" lon="11.2869485"><ele>260.0</ele><time>2026-03-28T10:48:09.999Z</time></trkpt><trkpt lat="43.9986589" lon="11.2870358"><ele>259.5</ele><time>2026-03-28T10:48:10.954Z</time></trkpt><trkpt lat="43.9985393" lon="11.2871285"><ele>259.0</ele><time>2026-03-28T10:48:11.958Z</time></trkpt><trkpt lat="43.9984205" lon="11.2872203"><ele>259.0</ele><time>2026-03-28T10:48:12.971Z</time></trkpt><trkpt lat="43.9982978" lon="11.2873116"><ele>259.0</ele><time>2026-03-28T10:48:13.957Z</time></trkpt><trkpt lat="43.9981727" lon="11.2874006"><ele>259.0</ele><time>2026-03-28T10:48:14.95Z</time></trkpt><trkpt lat="43.9980425" lon="11.2874986"><ele>259.0</ele><time>2026-03-28T10:48:15.968Z</time></trkpt><trkpt lat="43.9979128" lon="11.2875997"><ele>259.0</ele><time>2026-03-28T10:48:16.962Z</time></trkpt><trkpt lat="43.997781" lon="11.2876955"><ele>259.0</ele><time>2026-03-28T10:48:17.956Z</time></trkpt><trkpt lat="43.9976543" lon="11.2877899"><ele>259.0</ele><time>2026-03-28T10:48:18.955Z</time></trkpt><trkpt lat="43.9975313" lon="11.2878803"><ele>259.0</ele><time>2026-03-28T10:48:20.029Z</time></trkpt><trkpt lat="43.9974064" lon="11.2879743"><ele>258.75</ele><time>2026-03-28T10:48:20.966Z</time></trkpt><trkpt lat="43.9972776" lon="11.2880711"><ele>258.5</ele><time>2026-03-28T10:48:21.963Z</time></trkpt><trkpt lat="43.9971483" lon="11.2881719"><ele>258.25</ele><time>2026-03-28T10:48:22.973Z</time></trkpt><trkpt lat="43.9970171" lon="11.2882704"><ele>258.0</ele><time>2026-03-28T10:48:23.976Z</time></trkpt><trkpt lat="43.9968863" lon="11.2883698"><ele>258.25</ele><time>2026-03-28T10:48:24.964Z</time></trkpt><trkpt lat="43.9967585" lon="11.2884677"><ele>258.5</ele><time>2026-03-28T10:48:25.959Z</time></trkpt><trkpt lat="43.9966282" lon="11.2885677"><ele>258.75</ele><time>2026-03-28T10:48:26.967Z</time></trkpt><trkpt lat="43.9964984" lon="11.2886667"><ele>259.0</ele><time>2026-03-28T10:48:27.973Z</time></trkpt><trkpt lat="43.9963681" lon="11.288768"><ele>259.0</ele><time>2026-03-28T10:48:28.971Z</time></trkpt><trkpt lat="43.9962341" lon="11.2888649"><ele>259.0</ele><time>2026-03-28T10:48:30.032Z</time></trkpt><trkpt lat="43.996099" lon="11.288956"><ele>259.0</ele><time>2026-03-28T10:48:30.953Z</time></trkpt><trkpt lat="43.9959622" lon="11.2890433"><ele>260.0</ele><time>2026-03-28T10:48:31.969Z</time></trkpt><trkpt lat="43.9958249" lon="11.2891185"><ele>261.0</ele><time>2026-03-28T10:48:32.983Z</time></trkpt><trkpt lat="43.995679" lon="11.2891724"><ele>262.0</ele><time>2026-03-28T10:48:33.971Z</time></trkpt><trkpt lat="43.9955362" lon="11.2892229"><ele>263.0</ele><time>2026-03-28T10:48:34.972Z</time></trkpt><trkpt lat="43.9953864" lon="11.2892593"><ele>263.0</ele><time>2026-03-28T10:48:35.973Z</time></trkpt><trkpt lat="43.9952341" lon="11.289283"><ele>263.0</ele><time>2026-03-28T10:48:36.965Z</time></trkpt><trkpt lat="43.995086" lon="11.2892975"><ele>263.0</ele><time>2026-03-28T10:48:37.972Z</time></trkpt><trkpt lat="43.9949284" lon="11.2893062"><ele>263.0</ele><time>2026-03-28T10:48:38.973Z</time></trkpt><trkpt lat="43.994774" lon="11.2893106"><ele>263.0</ele><time>2026-03-28T10:48:39.963Z</time></trkpt><trkpt lat="43.9946198" lon="11.2893212"><ele>263.0</ele><time>2026-03-28T10:48:40.971Z</time></trkpt><trkpt lat="43.994464" lon="11.2893333"><ele>263.0</ele><time>2026-03-28T10:48:41.969Z</time></trkpt><trkpt lat="43.9943134" lon="11.2893398"><ele>263.0</ele><time>2026-03-28T10:48:42.974Z</time></trkpt><trkpt lat="43.9941539" lon="11.2893519"><ele>263.0</ele><time>2026-03-28T10:48:43.976Z</time></trkpt><trkpt lat="43.9939945" lon="11.2893645"><ele>263.6666666666667</ele><time>2026-03-28T10:48:45.041Z</time></trkpt><trkpt lat="43.993836" lon="11.2893771"><ele>264.3333333333333</ele><time>2026-03-28T10:48:45.967Z</time></trkpt><trkpt lat="43.9936774" lon="11.2893865"><ele>265.0</ele><time>2026-03-28T10:48:46.963Z</time></trkpt><trkpt lat="43.9935195" lon="11.2893965"><ele>265.0</ele><time>2026-03-28T10:48:47.974Z</time></trkpt><trkpt lat="43.9933656" lon="11.2894069"><ele>265.0</ele><time>2026-03-28T10:48:49.029Z</time></trkpt><trkpt lat="43.9932097" lon="11.2894182"><ele>265.0</ele><time>2026-03-28T10:48:50.028Z</time></trkpt><trkpt lat="43.9930521" lon="11.2894255"><ele>265.66666666666663</ele><time>2026-03-28T10:48:50.956Z</time></trkpt><trkpt lat="43.9928936" lon="11.2894362"><ele>266.3333333333333</ele><time>2026-03-28T10:48:51.966Z</time></trkpt><trkpt lat="43.992735" lon="11.289447"><ele>267.0</ele><time>2026-03-28T10:48:52.99Z</time></trkpt><trkpt lat="43.992579" lon="11.289458"><ele>266.6666666666667</ele><time>2026-03-28T10:48:53.97Z</time></trkpt><trkpt lat="43.9924227" lon="11.2894694"><ele>266.33333333333337</ele><time>2026-03-28T10:48:55.031Z</time></trkpt><trkpt lat="43.9922643" lon="11.2894783"><ele>266.0</ele><time>2026-03-28T10:48:55.972Z</time></trkpt><trkpt lat="43.9921085" lon="11.2894828"><ele>266.0</ele><time>2026-03-28T10:48:56.962Z</time></trkpt><trkpt lat="43.99195" lon="11.2894847"><ele>266.0</ele><time>2026-03-28T10:48:57.977Z</time></trkpt><trkpt lat="43.9917897" lon="11.2894923"><ele>266.0</ele><time>2026-03-28T10:48:59.029Z</time></trkpt><trkpt lat="43.9916261" lon="11.2894975"><ele>265.33333333333337</ele><time>2026-03-28T10:49:00.033Z</time></trkpt><trkpt lat="43.9914647" lon="11.2894866"><ele>264.6666666666667</ele><time>2026-03-28T10:49:00.967Z</time></trkpt><trkpt lat="43.9912994" lon="11.289464"><ele>264.0</ele><time>2026-03-28T10:49:01.967Z</time></trkpt><trkpt lat="43.9911306" lon="11.2894287"><ele>264.0</ele><time>2026-03-28T10:49:02.966Z</time></trkpt><trkpt lat="43.9909656" lon="11.2893715"><ele>264.0</ele><time>2026-03-28T10:49:04.049Z</time></trkpt><trkpt lat="43.9908023" lon="11.289312"><ele>264.0</ele><time>2026-03-28T10:49:04.973Z</time></trkpt><trkpt lat="43.9906379" lon="11.2892527"><ele>264.3333333333333</ele><time>2026-03-28T10:49:05.978Z</time></trkpt><trkpt lat="43.9904746" lon="11.2891923"><ele>264.66666666666663</ele><time>2026-03-28T10:49:06.963Z</time></trkpt><trkpt lat="43.9903109" lon="11.2891332"><ele>265.0</ele><time>2026-03-28T10:49:07.962Z</time></trkpt><trkpt lat="43.9901458" lon="11.289069"><ele>264.0</ele><time>2026-03-28T10:49:08.967Z</time></trkpt><trkpt lat="43.9899772" lon="11.2890116"><ele>263.0</ele><time>2026-03-28T10:49:09.972Z</time></trkpt><trkpt lat="43.9898028" lon="11.2889504"><ele>262.0</ele><time>2026-03-28T10:49:10.965Z</time></trkpt><trkpt lat="43.989627" lon="11.2888901"><ele>261.66666666666663</ele><time>2026-03-28T10:49:11.967Z</time></trkpt><trkpt lat="43.9894514" lon="11.2888276"><ele>261.3333333333333</ele><time>2026-03-28T10:49:12.971Z</time></trkpt><trkpt lat="43.989275" lon="11.2887645"><ele>261.0</ele><time>2026-03-28T10:49:13.969Z</time></trkpt><trkpt lat="43.9890992" lon="11.2887036"><ele>260.3333333333333</ele><time>2026-03-28T10:49:14.975Z</time></trkpt><trkpt lat="43.9889255" lon="11.2886428"><ele>259.66666666666663</ele><time>2026-03-28T10:49:15.972Z</time></trkpt><trkpt lat="43.9887517" lon="11.2885821"><ele>259.0</ele><time>2026-03-28T10:49:16.97Z</time></trkpt><trkpt lat="43.9885842" lon="11.2885262"><ele>259.0</ele><time>2026-03-28T10:49:17.965Z</time></trkpt><trkpt lat="43.9884185" lon="11.2884666"><ele>259.0</ele><time>2026-03-28T10:49:18.972Z</time></trkpt><trkpt lat="43.9882591" lon="11.288404"><ele>259.0</ele><time>2026-03-28T10:49:20.034Z</time></trkpt><trkpt lat="43.9881017" lon="11.2883484"><ele>258.66666666666663</ele><time>2026-03-28T10:49:20.96Z</time></trkpt><trkpt lat="43.9879475" lon="11.2882973"><ele>258.3333333333333</ele><time>2026-03-28T10:49:21.969Z</time></trkpt><trkpt lat="43.9877967" lon="11.2882489"><ele>258.0</ele><time>2026-03-28T10:49:22.984Z</time></trkpt><trkpt lat="43.9876438" lon="11.2881994"><ele>258.3333333333333</ele><time>2026-03-28T10:49:24.035Z</time></trkpt><trkpt lat="43.9874917" lon="11.2881451"><ele>258.66666666666663</ele><time>2026-03-28T10:49:25.031Z</time></trkpt><trkpt lat="43.9873459" lon="11.2880912"><ele>259.0</ele><time>2026-03-28T10:49:25.965Z</time></trkpt><trkpt lat="43.987196" lon="11.2880455"><ele>257.66666666666663</ele><time>2026-03-28T10:49:27.033Z</time></trkpt><trkpt lat="43.9870504" lon="11.2879944"><ele>256.3333333333333</ele><time>2026-03-28T10:49:28.034Z</time></trkpt><trkpt lat="43.9869006" lon="11.2879428"><ele>255.0</ele><time>2026-03-28T10:49:29.043Z</time></trkpt><trkpt lat="43.9867516" lon="11.2878929"><ele>254.33333333333331</ele><time>2026-03-28T10:49:29.991Z</time></trkpt><trkpt lat="43.9866012" lon="11.2878399"><ele>253.66666666666666</ele><time>2026-03-28T10:49:30.965Z</time></trkpt><trkpt lat="43.9864477" lon="11.2877876"><ele>253.0</ele><time>2026-03-28T10:49:31.952Z</time></trkpt><trkpt lat="43.986298" lon="11.2877372"><ele>253.0</ele><time>2026-03-28T10:49:32.946Z</time></trkpt><trkpt lat="43.9861471" lon="11.2876886"><ele>253.0</ele><time>2026-03-28T10:49:33.965Z</time></trkpt><trkpt lat="43.9859974" lon="11.2876368"><ele>253.0</ele><time>2026-03-28T10:49:34.961Z</time></trkpt><trkpt lat="43.985846" lon="11.2875888"><ele>253.66666666666666</ele><time>2026-03-28T10:49:35.961Z</time></trkpt><trkpt lat="43.9856996" lon="11.2875421"><ele>254.33333333333331</ele><time>2026-03-28T10:49:36.964Z</time></trkpt><trkpt lat="43.9855489" lon="11.2875098"><ele>255.0</ele><time>2026-03-28T10:49:37.963Z</time></trkpt><trkpt lat="43.9853955" lon="11.2874885"><ele>255.0</ele><time>2026-03-28T10:49:38.966Z</time></trkpt><trkpt lat="43.9852463" lon="11.2874734"><ele>255.0</ele><time>2026-03-28T10:49:40.025Z</time></trkpt><trkpt lat="43.9850915" lon="11.2874649"><ele>255.0</ele><time>2026-03-28T10:49:40.97Z</time></trkpt><trkpt lat="43.9849384" lon="11.2874633"><ele>256.0</ele><time>2026-03-28T10:49:41.965Z</time></trkpt><trkpt lat="43.9847849" lon="11.2874662"><ele>257.0</ele><time>2026-03-28T10:49:43.001Z</time></trkpt><trkpt lat="43.9846297" lon="11.2874735"><ele>258.0</ele><time>2026-03-28T10:49:44.03Z</time></trkpt><trkpt lat="43.9844748" lon="11.2874798"><ele>258.0</ele><time>2026-03-28T10:49:44.998Z</time></trkpt><trkpt lat="43.9843207" lon="11.2874876"><ele>258.0</ele><time>2026-03-28T10:49:45.967Z</time></trkpt><trkpt lat="43.9841652" lon="11.2874981"><ele>258.0</ele><time>2026-03-28T10:49:46.974Z</time></trkpt><trkpt lat="43.9840103" lon="11.2875008"><ele>257.3333333333333</ele><time>2026-03-28T10:49:47.962Z</time></trkpt><trkpt lat="43.9838536" lon="11.2875047"><ele>256.66666666666663</ele><time>2026-03-28T10:49:48.963Z</time></trkpt><trkpt lat="43.9836969" lon="11.287508"><ele>256.0</ele><time>2026-03-28T10:49:49.966Z</time></trkpt><trkpt lat="43.983542" lon="11.287518"><ele>256.0</ele><time>2026-03-28T10:49:50.963Z</time></trkpt><trkpt lat="43.9833948" lon="11.2875336"><ele>256.0</ele><time>2026-03-28T10:49:52.031Z</time></trkpt><trkpt lat="43.9832455" lon="11.2875679"><ele>256.0</ele><time>2026-03-28T10:49:53.032Z</time></trkpt><trkpt lat="43.9830946" lon="11.2876277"><ele>255.0</ele><time>2026-03-28T10:49:54.032Z</time></trkpt><trkpt lat="43.9829429" lon="11.2877036"><ele>254.0</ele><time>2026-03-28T10:49:54.974Z</time></trkpt><trkpt lat="43.9827975" lon="11.2878139"><ele>253.0</ele><time>2026-03-28T10:49:55.96Z</time></trkpt><trkpt lat="43.9826687" lon="11.2879504"><ele>253.0</ele><time>2026-03-28T10:49:56.953Z</time></trkpt><trkpt lat="43.9825442" lon="11.2880956"><ele>253.0</ele><time>2026-03-28T10:49:57.962Z</time></trkpt><trkpt lat="43.9824164" lon="11.2882434"><ele>253.0</ele><time>2026-03-28T10:49:58.96Z</time></trkpt><trkpt lat="43.982288" lon="11.2883897"><ele>253.0</ele><time>2026-03-28T10:49:59.96Z</time></trkpt><trkpt lat="43.9821726" lon="11.2885319"><ele>253.0</ele><time>2026-03-28T10:50:00.969Z</time></trkpt><trkpt lat="43.9820648" lon="11.2886635"><ele>253.0</ele><time>2026-03-28T10:50:01.961Z</time></trkpt><trkpt lat="43.9819552" lon="11.2887806"><ele>253.0</ele><time>2026-03-28T10:50:02.961Z</time></trkpt><trkpt lat="43.9818437" lon="11.2888737"><ele>253.0</ele><time>2026-03-28T10:50:03.958Z</time></trkpt><trkpt lat="43.9817327" lon="11.2889386"><ele>253.0</ele><time>2026-03-28T10:50:04.959Z</time></trkpt><trkpt lat="43.9816036" lon="11.2889624"><ele>253.0</ele><time>2026-03-28T10:50:05.96Z</time></trkpt><trkpt lat="43.9814642" lon="11.2889471"><ele>253.0</ele><time>2026-03-28T10:50:06.957Z</time></trkpt><trkpt lat="43.9813332" lon="11.2888981"><ele>253.0</ele><time>2026-03-28T10:50:07.962Z</time></trkpt><trkpt lat="43.9812085" lon="11.2888191"><ele>253.0</ele><time>2026-03-28T10:50:08.957Z</time></trkpt><trkpt lat="43.9810944" lon="11.2887213"><ele>253.0</ele><time>2026-03-28T10:50:09.962Z</time></trkpt><trkpt lat="43.9809878" lon="11.2886088"><ele>253.0</ele><time>2026-03-28T10:50:10.957Z</time></trkpt><trkpt lat="43.9808922" lon="11.2885002"><ele>251.4</ele><time>2026-03-28T10:50:11.959Z</time></trkpt><trkpt lat="43.9808106" lon="11.2884013"><ele>249.8</ele><time>2026-03-28T10:50:12.96Z</time></trkpt><trkpt lat="43.980748" lon="11.2883259"><ele>248.2</ele><time>2026-03-28T10:50:13.96Z</time></trkpt><trkpt lat="43.980688" lon="11.2882639"><ele>246.6</ele><time>2026-03-28T10:50:14.961Z</time></trkpt><trkpt lat="43.9805998" lon="11.2881846"><ele>245.0</ele><time>2026-03-28T10:50:16.95Z</time></trkpt><trkpt lat="43.9805213" lon="11.2881434"><ele>245.0</ele><time>2026-03-28T10:50:19.966Z</time></trkpt><trkpt lat="43.9804564" lon="11.2881328"><ele>245.0</ele><time>2026-03-28T10:50:21.959Z</time></trkpt><trkpt lat="43.9803308" lon="11.2881001"><ele>245.0</ele><time>2026-03-28T10:50:23.96Z</time></trkpt><trkpt lat="43.9802519" lon="11.2881167"><ele>245.0</ele><time>2026-03-28T10:50:24.952Z</time></trkpt><trkpt lat="43.9801595" lon="11.2881397"><ele>245.0</ele><time>2026-03-28T10:50:25.956Z</time></trkpt><trkpt lat="43.9800566" lon="11.2881782"><ele>243.5</ele><time>2026-03-28T10:50:26.964Z</time></trkpt><trkpt lat="43.9799411" lon="11.2882262"><ele>242.0</ele><time>2026-03-28T10:50:27.955Z</time></trkpt><trkpt lat="43.979821" lon="11.2882723"><ele>240.5</ele><time>2026-03-28T10:50:28.958Z</time></trkpt><trkpt lat="43.9796891" lon="11.2883134"><ele>239.0</ele><time>2026-03-28T10:50:30.032Z</time></trkpt><trkpt lat="43.9795499" lon="11.2883492"><ele>239.0</ele><time>2026-03-28T10:50:30.968Z</time></trkpt><trkpt lat="43.9794096" lon="11.2883787"><ele>239.0</ele><time>2026-03-28T10:50:32.033Z</time></trkpt><trkpt lat="43.9792679" lon="11.288404"><ele>239.0</ele><time>2026-03-28T10:50:32.974Z</time></trkpt><trkpt lat="43.9791276" lon="11.2884298"><ele>239.0</ele><time>2026-03-28T10:50:33.964Z</time></trkpt><trkpt lat="43.9789905" lon="11.2884485"><ele>238.5</ele><time>2026-03-28T10:50:34.969Z</time></trkpt><trkpt lat="43.9788568" lon="11.2884649"><ele>238.0</ele><time>2026-03-28T10:50:35.977Z</time></trkpt><trkpt lat="43.9787157" lon="11.2884684"><ele>237.5</ele><time>2026-03-28T10:50:36.977Z</time></trkpt><trkpt lat="43.9785777" lon="11.2884681"><ele>237.0</ele><time>2026-03-28T10:50:38.04Z</time></trkpt><trkpt lat="43.9784364" lon="11.2884653"><ele>235.75</ele><time>2026-03-28T10:50:38.956Z</time></trkpt><trkpt lat="43.9782972" lon="11.2884554"><ele>234.5</ele><time>2026-03-28T10:50:40.033Z</time></trkpt><trkpt lat="43.9781642" lon="11.2884485"><ele>233.25</ele><time>2026-03-28T10:50:40.978Z</time></trkpt><trkpt lat="43.9780258" lon="11.2884293"><ele>232.0</ele><time>2026-03-28T10:50:41.978Z</time></trkpt><trkpt lat="43.9778874" lon="11.2884127"><ele>232.0</ele><time>2026-03-28T10:50:42.975Z</time></trkpt><trkpt lat="43.9777471" lon="11.2883938"><ele>232.0</ele><time>2026-03-28T10:50:43.972Z</time></trkpt><trkpt lat="43.9776081" lon="11.2883735"><ele>232.0</ele><time>2026-03-28T10:50:44.972Z</time></trkpt><trkpt lat="43.9774675" lon="11.2883491"><ele>232.0</ele><time>2026-03-28T10:50:45.979Z</time></trkpt><trkpt lat="43.9773293" lon="11.288326"><ele>231.0</ele><time>2026-03-28T10:50:46.974Z</time></trkpt><trkpt lat="43.9771867" lon="11.2882997"><ele>230.0</ele><time>2026-03-28T10:50:48.029Z</time></trkpt><trkpt lat="43.9770422" lon="11.2882741"><ele>229.0</ele><time>2026-03-28T10:50:49.029Z</time></trkpt><trkpt lat="43.9768944" lon="11.2882489"><ele>228.0</ele><time>2026-03-28T10:50:49.963Z</time></trkpt><trkpt lat="43.9767455" lon="11.2882227"><ele>226.0</ele><time>2026-03-28T10:50:50.974Z</time></trkpt><trkpt lat="43.9765929" lon="11.2881961"><ele>224.0</ele><time>2026-03-28T10:50:51.968Z</time></trkpt><trkpt lat="43.9764399" lon="11.2881697"><ele>222.0</ele><time>2026-03-28T10:50:53.029Z</time></trkpt><trkpt lat="43.9762884" lon="11.2881399"><ele>222.0</ele><time>2026-03-28T10:50:54.029Z</time></trkpt><trkpt lat="43.9761367" lon="11.2881092"><ele>222.0</ele><time>2026-03-28T10:50:54.983Z</time></trkpt><trkpt lat="43.9759834" lon="11.2880905"><ele>222.0</ele><time>2026-03-28T10:50:55.946Z</time></trkpt><trkpt lat="43.975825" lon="11.2880704"><ele>223.0</ele><time>2026-03-28T10:50:56.963Z</time></trkpt><trkpt lat="43.9756654" lon="11.2880545"><ele>224.0</ele><time>2026-03-28T10:50:57.97Z</time></trkpt><trkpt lat="43.975502" lon="11.2880481"><ele>225.0</ele><time>2026-03-28T10:50:58.999Z</time></trkpt><trkpt lat="43.9753343" lon="11.2880511"><ele>225.0</ele><time>2026-03-28T10:50:59.965Z</time></trkpt><trkpt lat="43.9751679" lon="11.288063"><ele>225.0</ele><time>2026-03-28T10:51:00.957Z</time></trkpt><trkpt lat="43.9750077" lon="11.2880771"><ele>225.0</ele><time>2026-03-28T10:51:01.967Z</time></trkpt><trkpt lat="43.9748494" lon="11.2880946"><ele>224.66666666666669</ele><time>2026-03-28T10:51:02.962Z</time></trkpt><trkpt lat="43.9746915" lon="11.2881179"><ele>224.33333333333334</ele><time>2026-03-28T10:51:03.961Z</time></trkpt><trkpt lat="43.9745369" lon="11.2881517"><ele>224.0</ele><time>2026-03-28T10:51:04.96Z</time></trkpt><trkpt lat="43.9743832" lon="11.2881934"><ele>224.0</ele><time>2026-03-28T10:51:05.966Z</time></trkpt><trkpt lat="43.9742263" lon="11.2882407"><ele>224.0</ele><time>2026-03-28T10:51:06.962Z</time></trkpt><trkpt lat="43.974079" lon="11.2882914"><ele>224.0</ele><time>2026-03-28T10:51:07.96Z</time></trkpt><trkpt lat="43.9739447" lon="11.2883404"><ele>223.5</ele><time>2026-03-28T10:51:08.965Z</time></trkpt><trkpt lat="43.973822" lon="11.2883889"><ele>223.0</ele><time>2026-03-28T10:51:09.955Z</time></trkpt><trkpt lat="43.9737073" lon="11.2884357"><ele>222.5</ele><time>2026-03-28T10:51:10.965Z</time></trkpt><trkpt lat="43.9736058" lon="11.2884802"><ele>222.0</ele><time>2026-03-28T10:51:12.03Z</time></trkpt><trkpt lat="43.9735138" lon="11.2885197"><ele>222.0</ele><time>2026-03-28T10:51:13.036Z</time></trkpt><trkpt lat="43.9734196" lon="11.2885471"><ele>222.0</ele><time>2026-03-28T10:51:13.965Z</time></trkpt><trkpt lat="43.9733279" lon="11.288548"><ele>222.0</ele><time>2026-03-28T10:51:14.968Z</time></trkpt><trkpt lat="43.9732255" lon="11.2885148"><ele>222.0</ele><time>2026-03-28T10:51:15.97Z</time></trkpt><trkpt lat="43.9731224" lon="11.288469"><ele>222.0</ele><time>2026-03-28T10:51:16.964Z</time></trkpt><trkpt lat="43.973033" lon="11.2884179"><ele>222.6</ele><time>2026-03-28T10:51:17.966Z</time></trkpt><trkpt lat="43.9729652" lon="11.2883464"><ele>223.2</ele><time>2026-03-28T10:51:19.032Z</time></trkpt><trkpt lat="43.9729175" lon="11.2882284"><ele>223.8</ele><time>2026-03-28T10:51:20.033Z</time></trkpt><trkpt lat="43.972894" lon="11.288089"><ele>224.4</ele><time>2026-03-28T10:51:20.969Z</time></trkpt><trkpt lat="43.9729098" lon="11.2879348"><ele>225.0</ele><time>2026-03-28T10:51:21.966Z</time></trkpt><trkpt lat="43.9729693" lon="11.2877879"><ele>226.0</ele><time>2026-03-28T10:51:22.962Z</time></trkpt><trkpt lat="43.9730312" lon="11.2876456"><ele>227.0</ele><time>2026-03-28T10:51:23.951Z</time></trkpt><trkpt lat="43.9730652" lon="11.2875088"><ele>228.0</ele><time>2026-03-28T10:51:24.95Z</time></trkpt><trkpt lat="43.9730714" lon="11.2873452"><ele>229.0</ele><time>2026-03-28T10:51:25.968Z</time></trkpt><trkpt lat="43.9730611" lon="11.2871811"><ele>231.5</ele><time>2026-03-28T10:51:26.947Z</time></trkpt><trkpt lat="43.9730253" lon="11.2870274"><ele>234.0</ele><time>2026-03-28T10:51:27.957Z</time></trkpt><trkpt lat="43.9729611" lon="11.2868757"><ele>236.5</ele><time>2026-03-28T10:51:28.976Z</time></trkpt><trkpt lat="43.9728895" lon="11.2867242"><ele>239.0</ele><time>2026-03-28T10:51:29.95Z</time></trkpt><trkpt lat="43.9728139" lon="11.2865764"><ele>239.0</ele><time>2026-03-28T10:51:30.945Z</time></trkpt><trkpt lat="43.972729" lon="11.2864521"><ele>239.0</ele><time>2026-03-28T10:51:31.956Z</time></trkpt><trkpt lat="43.9726321" lon="11.2863305"><ele>239.0</ele><time>2026-03-28T10:51:32.956Z</time></trkpt><trkpt lat="43.9725404" lon="11.2861971"><ele>239.0</ele><time>2026-03-28T10:51:33.962Z</time></trkpt><trkpt lat="43.9724675" lon="11.2860414"><ele>241.75</ele><time>2026-03-28T10:51:35.027Z</time></trkpt><trkpt lat="43.9724019" lon="11.2858823"><ele>244.5</ele><time>2026-03-28T10:51:35.975Z</time></trkpt><trkpt lat="43.9723449" lon="11.2857135"><ele>247.25</ele><time>2026-03-28T10:51:37.032Z</time></trkpt><trkpt lat="43.9722908" lon="11.2855441"><ele>250.0</ele><time>2026-03-28T10:51:37.961Z</time></trkpt><trkpt lat="43.9722417" lon="11.2853721"><ele>258.0</ele><time>2026-03-28T10:51:39.028Z</time></trkpt><trkpt lat="43.9721939" lon="11.2852042"><ele>266.0</ele><time>2026-03-28T10:51:40.031Z</time></trkpt><trkpt lat="43.9712133" lon="11.2818129"><ele>266.0</ele><time>2026-03-28T10:51:57.977Z</time></trkpt><trkpt lat="43.9710909" lon="11.2815868"><ele>266.0</ele><time>2026-03-28T10:51:58.977Z</time></trkpt><trkpt lat="43.9709937" lon="11.2813907"><ele>266.0</ele><time>2026-03-28T10:51:59.97Z</time></trkpt><trkpt lat="43.9709126" lon="11.2812071"><ele>264.6666666666667</ele><time>2026-03-28T10:52:00.983Z</time></trkpt><trkpt lat="43.9708279" lon="11.2810357"><ele>263.3333333333333</ele><time>2026-03-28T10:52:01.974Z</time></trkpt><trkpt lat="43.9707437" lon="11.2808584"><ele>262.0</ele><time>2026-03-28T10:52:02.976Z</time></trkpt><trkpt lat="43.9706586" lon="11.2806877"><ele>257.0</ele><time>2026-03-28T10:52:03.967Z</time></trkpt><trkpt lat="43.9705589" lon="11.2805151"><ele>252.0</ele><time>2026-03-28T10:52:04.968Z</time></trkpt><trkpt lat="43.9704618" lon="11.2803396"><ele>247.0</ele><time>2026-03-28T10:52:05.974Z</time></trkpt><trkpt lat="43.970365" lon="11.2801479"><ele>247.0</ele><time>2026-03-28T10:52:06.983Z</time></trkpt><trkpt lat="43.9702731" lon="11.2799329"><ele>247.0</ele><time>2026-03-28T10:52:07.978Z</time></trkpt><trkpt lat="43.9701995" lon="11.2797197"><ele>247.0</ele><time>2026-03-28T10:52:08.972Z</time></trkpt><trkpt lat="43.9701138" lon="11.2795252"><ele>248.0</ele><time>2026-03-28T10:52:09.971Z</time></trkpt><trkpt lat="43.9700388" lon="11.2793149"><ele>249.0</ele><time>2026-03-28T10:52:10.979Z</time></trkpt><trkpt lat="43.9699597" lon="11.279115"><ele>250.0</ele><time>2026-03-28T10:52:11.978Z</time></trkpt><trkpt lat="43.9698869" lon="11.2789262"><ele>252.75</ele><time>2026-03-28T10:52:12.976Z</time></trkpt><trkpt lat="43.9698271" lon="11.2787517"><ele>255.5</ele><time>2026-03-28T10:52:13.979Z</time></trkpt><trkpt lat="43.9697915" lon="11.2785742"><ele>258.25</ele><time>2026-03-28T10:52:14.975Z</time></trkpt><trkpt lat="43.9697893" lon="11.2784067"><ele>261.0</ele><time>2026-03-28T10:52:15.981Z</time></trkpt><trkpt lat="43.969824" lon="11.2782561"><ele>261.0</ele><time>2026-03-28T10:52:16.978Z</time></trkpt><trkpt lat="43.9698815" lon="11.2781077"><ele>261.0</ele><time>2026-03-28T10:52:17.987Z</time></trkpt><trkpt lat="43.9699412" lon="11.2779418"><ele>261.0</ele><time>2026-03-28T10:52:18.973Z</time></trkpt><trkpt lat="43.9699942" lon="11.2777724"><ele>261.0</ele><time>2026-03-28T10:52:19.977Z</time></trkpt><trkpt lat="43.9700509" lon="11.277607"><ele>263.40000000000003</ele><time>2026-03-28T10:52:21.022Z</time></trkpt><trkpt lat="43.9701156" lon="11.2774675"><ele>265.8</ele><time>2026-03-28T10:52:22.03Z</time></trkpt><trkpt lat="43.970187" lon="11.2773517"><ele>268.20000000000005</ele><time>2026-03-28T10:52:22.975Z</time></trkpt><trkpt lat="43.9702772" lon="11.2772843"><ele>270.6</ele><time>2026-03-28T10:52:23.978Z</time></trkpt><trkpt lat="43.9703889" lon="11.2772622"><ele>273.0</ele><time>2026-03-28T10:52:24.983Z</time></trkpt><trkpt lat="43.9705015" lon="11.2772743"><ele>273.0</ele><time>2026-03-28T10:52:25.987Z</time></trkpt><trkpt lat="43.9706194" lon="11.277308"><ele>273.0</ele><time>2026-03-28T10:52:26.993Z</time></trkpt><trkpt lat="43.9707209" lon="11.2773763"><ele>273.0</ele><time>2026-03-28T10:52:27.973Z</time></trkpt><trkpt lat="43.9708152" lon="11.2774912"><ele>273.0</ele><time>2026-03-28T10:52:29.027Z</time></trkpt><trkpt lat="43.9708976" lon="11.2776243"><ele>274.0</ele><time>2026-03-28T10:52:30.038Z</time></trkpt><trkpt lat="43.9709869" lon="11.27776"><ele>275.0</ele><time>2026-03-28T10:52:31.024Z</time></trkpt><trkpt lat="43.971084" lon="11.2778846"><ele>276.0</ele><time>2026-03-28T10:52:31.962Z</time></trkpt><trkpt lat="43.9711848" lon="11.2779544"><ele>277.0</ele><time>2026-03-28T10:52:32.972Z</time></trkpt><trkpt lat="43.9712908" lon="11.2779901"><ele>277.0</ele><time>2026-03-28T10:52:33.965Z</time></trkpt><trkpt lat="43.9714113" lon="11.277966"><ele>277.0</ele><time>2026-03-28T10:52:34.966Z</time></trkpt><trkpt lat="43.9715196" lon="11.2779231"><ele>277.0</ele><time>2026-03-28T10:52:35.977Z</time></trkpt><trkpt lat="43.9716284" lon="11.2778407"><ele>277.0</ele><time>2026-03-28T10:52:36.97Z</time></trkpt><trkpt lat="43.9717402" lon="11.2777602"><ele>274.25</ele><time>2026-03-28T10:52:37.974Z</time></trkpt><trkpt lat="43.9718529" lon="11.2776687"><ele>271.5</ele><time>2026-03-28T10:52:38.974Z</time></trkpt><trkpt lat="43.9719518" lon="11.2775609"><ele>268.75</ele><time>2026-03-28T10:52:39.979Z</time></trkpt><trkpt lat="43.9720279" lon="11.2774362"><ele>266.0</ele><time>2026-03-28T10:52:40.968Z</time></trkpt><trkpt lat="43.972064" lon="11.2772978"><ele>266.0</ele><time>2026-03-28T10:52:42.009Z</time></trkpt><trkpt lat="43.972071" lon="11.2771331"><ele>266.0</ele><time>2026-03-28T10:52:42.975Z</time></trkpt><trkpt lat="43.9720664" lon="11.2769656"><ele>266.0</ele><time>2026-03-28T10:52:43.966Z</time></trkpt><trkpt lat="43.972068" lon="11.2768016"><ele>266.0</ele><time>2026-03-28T10:52:44.972Z</time></trkpt><trkpt lat="43.9720674" lon="11.2766365"><ele>266.0</ele><time>2026-03-28T10:52:45.98Z</time></trkpt><trkpt lat="43.9720618" lon="11.2764783"><ele>266.0</ele><time>2026-03-28T10:52:46.974Z</time></trkpt><trkpt lat="43.9720358" lon="11.2763296"><ele>266.0</ele><time>2026-03-28T10:52:47.974Z</time></trkpt><trkpt lat="43.9719689" lon="11.2761945"><ele>266.0</ele><time>2026-03-28T10:52:48.964Z</time></trkpt><trkpt lat="43.9718766" lon="11.2760751"><ele>264.75</ele><time>2026-03-28T10:52:50.031Z</time></trkpt><trkpt lat="43.9717688" lon="11.2759866"><ele>263.5</ele><time>2026-03-28T10:52:51.026Z</time></trkpt><trkpt lat="43.9716437" lon="11.275914"><ele>262.25</ele><time>2026-03-28T10:52:52.026Z</time></trkpt><trkpt lat="43.9715078" lon="11.2758536"><ele>261.0</ele><time>2026-03-28T10:52:52.954Z</time></trkpt><trkpt lat="43.9713728" lon="11.2757943"><ele>262.5</ele><time>2026-03-28T10:52:53.94Z</time></trkpt><trkpt lat="43.9712397" lon="11.2757478"><ele>264.0</ele><time>2026-03-28T10:52:54.961Z</time></trkpt><trkpt lat="43.9711167" lon="11.2756956"><ele>265.5</ele><time>2026-03-28T10:52:55.961Z</time></trkpt><trkpt lat="43.9710079" lon="11.2756337"><ele>267.0</ele><time>2026-03-28T10:52:56.959Z</time></trkpt><trkpt lat="43.9708999" lon="11.2755666"><ele>268.25</ele><time>2026-03-28T10:52:57.956Z</time></trkpt><trkpt lat="43.9708054" lon="11.2754708"><ele>269.5</ele><time>2026-03-28T10:52:58.957Z</time></trkpt><trkpt lat="43.9707419" lon="11.2753196"><ele>270.75</ele><time>2026-03-28T10:52:59.981Z</time></trkpt><trkpt lat="43.9707111" lon="11.2751417"><ele>272.0</ele><time>2026-03-28T10:53:00.971Z</time></trkpt><trkpt lat="43.9706978" lon="11.2749573"><ele>272.0</ele><time>2026-03-28T10:53:01.956Z</time></trkpt><trkpt lat="43.9706927" lon="11.274775"><ele>272.0</ele><time>2026-03-28T10:53:02.954Z</time></trkpt><trkpt lat="43.9706843" lon="11.2745809"><ele>272.0</ele><time>2026-03-28T10:53:03.957Z</time></trkpt><trkpt lat="43.9706718" lon="11.2743961"><ele>272.0</ele><time>2026-03-28T10:53:04.959Z</time></trkpt><trkpt lat="43.9706641" lon="11.2742148"><ele>272.25</ele><time>2026-03-28T10:53:05.955Z</time></trkpt><trkpt lat="43.9706729" lon="11.2740513"><ele>272.5</ele><time>2026-03-28T10:53:06.974Z</time></trkpt><trkpt lat="43.9707151" lon="11.2739015"><ele>272.75</ele><time>2026-03-28T10:53:07.965Z</time></trkpt><trkpt lat="43.970794" lon="11.2737681"><ele>273.0</ele><time>2026-03-28T10:53:08.958Z</time></trkpt><trkpt lat="43.9708917" lon="11.2736454"><ele>273.5</ele><time>2026-03-28T10:53:09.963Z</time></trkpt><trkpt lat="43.9709923" lon="11.2735055"><ele>274.0</ele><time>2026-03-28T10:53:10.952Z</time></trkpt><trkpt lat="43.9710763" lon="11.2733488"><ele>274.5</ele><time>2026-03-28T10:53:11.953Z</time></trkpt><trkpt lat="43.971166" lon="11.2731719"><ele>275.0</ele><time>2026-03-28T10:53:12.958Z</time></trkpt><trkpt lat="43.971243" lon="11.2729916"><ele>275.0</ele><time>2026-03-28T10:53:13.968Z</time></trkpt><trkpt lat="43.9713277" lon="11.2728089"><ele>275.0</ele><time>2026-03-28T10:53:14.981Z</time></trkpt><trkpt lat="43.9714066" lon="11.2726333"><ele>275.0</ele><time>2026-03-28T10:53:15.949Z</time></trkpt><trkpt lat="43.9714794" lon="11.2724712"><ele>275.0</ele><time>2026-03-28T10:53:16.96Z</time></trkpt><trkpt lat="43.9715326" lon="11.2723024"><ele>275.25</ele><time>2026-03-28T10:53:17.963Z</time></trkpt><trkpt lat="43.9715576" lon="11.2721245"><ele>275.5</ele><time>2026-03-28T10:53:18.962Z</time></trkpt><trkpt lat="43.9715585" lon="11.2719166"><ele>275.75</ele><time>2026-03-28T10:53:19.961Z</time></trkpt><trkpt lat="43.9715456" lon="11.2717132"><ele>276.0</ele><time>2026-03-28T10:53:20.962Z</time></trkpt><trkpt lat="43.9715267" lon="11.2715049"><ele>274.6666666666667</ele><time>2026-03-28T10:53:21.955Z</time></trkpt><trkpt lat="43.9715098" lon="11.2712879"><ele>273.33333333333337</ele><time>2026-03-28T10:53:22.958Z</time></trkpt><trkpt lat="43.9714981" lon="11.2710733"><ele>272.0</ele><time>2026-03-28T10:53:23.965Z</time></trkpt><trkpt lat="43.9714865" lon="11.2708551"><ele>272.0</ele><time>2026-03-28T10:53:24.951Z</time></trkpt><trkpt lat="43.971472" lon="11.2706379"><ele>272.0</ele><time>2026-03-28T10:53:25.956Z</time></trkpt><trkpt lat="43.9714609" lon="11.270427"><ele>272.0</ele><time>2026-03-28T10:53:26.956Z</time></trkpt><trkpt lat="43.9714554" lon="11.2702255"><ele>271.5</ele><time>2026-03-28T10:53:27.96Z</time></trkpt><trkpt lat="43.9714678" lon="11.2700322"><ele>271.0</ele><time>2026-03-28T10:53:28.967Z</time></trkpt><trkpt lat="43.9714978" lon="11.2698421"><ele>270.5</ele><time>2026-03-28T10:53:29.951Z</time></trkpt><trkpt lat="43.9715369" lon="11.2696644"><ele>270.0</ele><time>2026-03-28T10:53:30.956Z</time></trkpt><trkpt lat="43.9715645" lon="11.2695005"><ele>270.0</ele><time>2026-03-28T10:53:31.938Z</time></trkpt><trkpt lat="43.9715707" lon="11.2693417"><ele>270.0</ele><time>2026-03-28T10:53:32.95Z</time></trkpt><trkpt lat="43.9715455" lon="11.2691894"><ele>270.0</ele><time>2026-03-28T10:53:33.955Z</time></trkpt><trkpt lat="43.9714897" lon="11.2690423"><ele>270.0</ele><time>2026-03-28T10:53:34.952Z</time></trkpt><trkpt lat="43.9714049" lon="11.268917"><ele>269.2</ele><time>2026-03-28T10:53:35.954Z</time></trkpt><trkpt lat="43.971322" lon="11.2688134"><ele>268.4</ele><time>2026-03-28T10:53:36.955Z</time></trkpt><trkpt lat="43.9712547" lon="11.2687053"><ele>267.6</ele><time>2026-03-28T10:53:37.957Z</time></trkpt><trkpt lat="43.9712105" lon="11.2685829"><ele>266.8</ele><time>2026-03-28T10:53:38.957Z</time></trkpt><trkpt lat="43.9712071" lon="11.2684347"><ele>266.0</ele><time>2026-03-28T10:53:39.959Z</time></trkpt><trkpt lat="43.9712402" lon="11.2682779"><ele>266.0</ele><time>2026-03-28T10:53:40.959Z</time></trkpt><trkpt lat="43.9712972" lon="11.2681413"><ele>266.0</ele><time>2026-03-28T10:53:41.963Z</time></trkpt><trkpt lat="43.9713821" lon="11.2680248"><ele>266.0</ele><time>2026-03-28T10:53:42.958Z</time></trkpt><trkpt lat="43.97148" lon="11.2679208"><ele>266.0</ele><time>2026-03-28T10:53:43.96Z</time></trkpt><trkpt lat="43.971587" lon="11.2678253"><ele>265.0</ele><time>2026-03-28T10:53:44.939Z</time></trkpt><trkpt lat="43.971672" lon="11.2677276"><ele>264.0</ele><time>2026-03-28T10:53:45.963Z</time></trkpt><trkpt lat="43.9717393" lon="11.2676246"><ele>263.0</ele><time>2026-03-28T10:53:46.962Z</time></trkpt><trkpt lat="43.9717862" lon="11.2675112"><ele>262.0</ele><time>2026-03-28T10:53:47.964Z</time></trkpt><trkpt lat="43.971808" lon="11.2673791"><ele>261.0</ele><time>2026-03-28T10:53:48.96Z</time></trkpt><trkpt lat="43.9718115" lon="11.2672393"><ele>260.40000000000003</ele><time>2026-03-28T10:53:49.958Z</time></trkpt><trkpt lat="43.9718029" lon="11.2670986"><ele>259.8</ele><time>2026-03-28T10:53:50.96Z</time></trkpt><trkpt lat="43.9717927" lon="11.2669474"><ele>259.20000000000005</ele><time>2026-03-28T10:53:51.964Z</time></trkpt><trkpt lat="43.9717757" lon="11.2667884"><ele>258.6</ele><time>2026-03-28T10:53:52.966Z</time></trkpt><trkpt lat="43.9717789" lon="11.2666212"><ele>258.0</ele><time>2026-03-28T10:53:53.957Z</time></trkpt><trkpt lat="43.9717851" lon="11.2664465"><ele>257.0</ele><time>2026-03-28T10:53:54.962Z</time></trkpt><trkpt lat="43.9717869" lon="11.2662775"><ele>256.0</ele><time>2026-03-28T10:53:56.034Z</time></trkpt><trkpt lat="43.971783" lon="11.266096"><ele>255.0</ele><time>2026-03-28T10:53:57.04Z</time></trkpt><trkpt lat="43.971775" lon="11.2659099"><ele>254.0</ele><time>2026-03-28T10:53:57.967Z</time></trkpt><trkpt lat="43.9717691" lon="11.2657241"><ele>253.25</ele><time>2026-03-28T10:53:58.974Z</time></trkpt><trkpt lat="43.9717628" lon="11.2655399"><ele>252.5</ele><time>2026-03-28T10:53:59.977Z</time></trkpt><trkpt lat="43.9717469" lon="11.2653683"><ele>251.75</ele><time>2026-03-28T10:54:01.036Z</time></trkpt><trkpt lat="43.9717214" lon="11.2652013"><ele>251.0</ele><time>2026-03-28T10:54:01.997Z</time></trkpt><trkpt lat="43.9716806" lon="11.2650407"><ele>254.0</ele><time>2026-03-28T10:54:02.965Z</time></trkpt><trkpt lat="43.971621" lon="11.2648832"><ele>257.0</ele><time>2026-03-28T10:54:03.975Z</time></trkpt><trkpt lat="43.9715539" lon="11.2647293"><ele>260.0</ele><time>2026-03-28T10:54:04.966Z</time></trkpt><trkpt lat="43.9714886" lon="11.2645795"><ele>263.0</ele><time>2026-03-28T10:54:06.033Z</time></trkpt><trkpt lat="43.9714229" lon="11.2644412"><ele>263.0</ele><time>2026-03-28T10:54:07.027Z</time></trkpt><trkpt lat="43.9713579" lon="11.2643173"><ele>263.0</ele><time>2026-03-28T10:54:07.965Z</time></trkpt><trkpt lat="43.971298" lon="11.2642002"><ele>263.0</ele><time>2026-03-28T10:54:08.966Z</time></trkpt><trkpt lat="43.9712394" lon="11.264084"><ele>263.0</ele><time>2026-03-28T10:54:09.969Z</time></trkpt><trkpt lat="43.9711775" lon="11.2639699"><ele>263.0</ele><time>2026-03-28T10:54:11.048Z</time></trkpt><trkpt lat="43.9711074" lon="11.263861"><ele>263.8</ele><time>2026-03-28T10:54:11.98Z</time></trkpt><trkpt lat="43.9710467" lon="11.2637519"><ele>264.6</ele><time>2026-03-28T10:54:12.975Z</time></trkpt><trkpt lat="43.9709859" lon="11.2636388"><ele>265.4</ele><time>2026-03-28T10:54:13.983Z</time></trkpt><trkpt lat="43.9709201" lon="11.2635208"><ele>266.2</ele><time>2026-03-28T10:54:14.955Z</time></trkpt><trkpt lat="43.9708556" lon="11.2634006"><ele>267.0</ele><time>2026-03-28T10:54:15.972Z</time></trkpt><trkpt lat="43.9707906" lon="11.263282"><ele>267.0</ele><time>2026-03-28T10:54:16.975Z</time></trkpt><trkpt lat="43.9707297" lon="11.2631639"><ele>267.0</ele><time>2026-03-28T10:54:17.97Z</time></trkpt><trkpt lat="43.9706694" lon="11.2630339"><ele>267.0</ele><time>2026-03-28T10:54:19.033Z</time></trkpt><trkpt lat="43.9706155" lon="11.2628971"><ele>267.0</ele><time>2026-03-28T10:54:20.029Z</time></trkpt><trkpt lat="43.9705649" lon="11.26275"><ele>267.0</ele><time>2026-03-28T10:54:21.03Z</time></trkpt><trkpt lat="43.9705296" lon="11.2626022"><ele>266.8</ele><time>2026-03-28T10:54:21.963Z</time></trkpt><trkpt lat="43.9705006" lon="11.2624553"><ele>266.6</ele><time>2026-03-28T10:54:22.958Z</time></trkpt><trkpt lat="43.9704708" lon="11.2623103"><ele>266.40000000000003</ele><time>2026-03-28T10:54:23.97Z</time></trkpt><trkpt lat="43.9704407" lon="11.2621689"><ele>266.2</ele><time>2026-03-28T10:54:24.957Z</time></trkpt><trkpt lat="43.97041" lon="11.2620306"><ele>266.0</ele><time>2026-03-28T10:54:25.958Z</time></trkpt><trkpt lat="43.970374" lon="11.261893"><ele>266.0</ele><time>2026-03-28T10:54:26.964Z</time></trkpt><trkpt lat="43.9703357" lon="11.2617582"><ele>266.0</ele><time>2026-03-28T10:54:27.955Z</time></trkpt><trkpt lat="43.9703052" lon="11.2616206"><ele>266.0</ele><time>2026-03-28T10:54:29.015Z</time></trkpt><trkpt lat="43.9702741" lon="11.261482"><ele>266.0</ele><time>2026-03-28T10:54:30.017Z</time></trkpt><trkpt lat="43.9702385" lon="11.2613454"><ele>266.0</ele><time>2026-03-28T10:54:30.966Z</time></trkpt><trkpt lat="43.9702033" lon="11.2612065"><ele>266.0</ele><time>2026-03-28T10:54:31.955Z</time></trkpt><trkpt lat="43.9701547" lon="11.2610741"><ele>266.0</ele><time>2026-03-28T10:54:32.958Z</time></trkpt><trkpt lat="43.970097" lon="11.2609512"><ele>266.0</ele><time>2026-03-28T10:54:33.96Z</time></trkpt><trkpt lat="43.9700353" lon="11.2608303"><ele>266.0</ele><time>2026-03-28T10:54:34.955Z</time></trkpt><trkpt lat="43.9699772" lon="11.2607042"><ele>266.0</ele><time>2026-03-28T10:54:35.963Z</time></trkpt><trkpt lat="43.9699101" lon="11.2605954"><ele>266.0</ele><time>2026-03-28T10:54:36.944Z</time></trkpt><trkpt lat="43.9698415" lon="11.2604847"><ele>266.0</ele><time>2026-03-28T10:54:37.954Z</time></trkpt><trkpt lat="43.9697736" lon="11.260368"><ele>266.0</ele><time>2026-03-28T10:54:38.97Z</time></trkpt><trkpt lat="43.9697069" lon="11.260246"><ele>266.0</ele><time>2026-03-28T10:54:39.95Z</time></trkpt><trkpt lat="43.9696386" lon="11.2601219"><ele>266.0</ele><time>2026-03-28T10:54:40.958Z</time></trkpt><trkpt lat="43.9695851" lon="11.259986"><ele>266.0</ele><time>2026-03-28T10:54:41.956Z</time></trkpt><trkpt lat="43.9695377" lon="11.2598539"><ele>266.0</ele><time>2026-03-28T10:54:42.962Z</time></trkpt><trkpt lat="43.9695036" lon="11.2597107"><ele>266.0</ele><time>2026-03-28T10:54:43.964Z</time></trkpt><trkpt lat="43.9694629" lon="11.2595632"><ele>266.0</ele><time>2026-03-28T10:54:44.966Z</time></trkpt><trkpt lat="43.969422" lon="11.2594137"><ele>266.0</ele><time>2026-03-28T10:54:45.965Z</time></trkpt><trkpt lat="43.9693722" lon="11.2592635"><ele>265.25</ele><time>2026-03-28T10:54:46.94Z</time></trkpt><trkpt lat="43.9693238" lon="11.259115"><ele>264.5</ele><time>2026-03-28T10:54:47.963Z</time></trkpt><trkpt lat="43.9692769" lon="11.2589668"><ele>263.75</ele><time>2026-03-28T10:54:48.962Z</time></trkpt><trkpt lat="43.9692281" lon="11.2588189"><ele>263.0</ele><time>2026-03-28T10:54:49.962Z</time></trkpt><trkpt lat="43.969184" lon="11.2586588"><ele>263.0</ele><time>2026-03-28T10:54:50.961Z</time></trkpt><trkpt lat="43.9691373" lon="11.258492"><ele>263.0</ele><time>2026-03-28T10:54:51.965Z</time></trkpt><trkpt lat="43.9690904" lon="11.2583371"><ele>263.0</ele><time>2026-03-28T10:54:52.959Z</time></trkpt><trkpt lat="43.9690442" lon="11.2581842"><ele>263.0</ele><time>2026-03-28T10:54:54.008Z</time></trkpt><trkpt lat="43.9690073" lon="11.2580336"><ele>263.2</ele><time>2026-03-28T10:54:55.036Z</time></trkpt><trkpt lat="43.9689966" lon="11.2578867"><ele>263.4</ele><time>2026-03-28T10:54:55.991Z</time></trkpt><trkpt lat="43.9690138" lon="11.2577396"><ele>263.59999999999997</ele><time>2026-03-28T10:54:57.024Z</time></trkpt><trkpt lat="43.9690322" lon="11.257597"><ele>263.8</ele><time>2026-03-28T10:54:57.965Z</time></trkpt><trkpt lat="43.9690691" lon="11.2574652"><ele>264.0</ele><time>2026-03-28T10:54:58.965Z</time></trkpt><trkpt lat="43.9691412" lon="11.2573374"><ele>267.3333333333333</ele><time>2026-03-28T10:54:59.975Z</time></trkpt><trkpt lat="43.9692456" lon="11.257238"><ele>270.66666666666663</ele><time>2026-03-28T10:55:01.07Z</time></trkpt><trkpt lat="43.9695055" lon="11.2571028"><ele>274.0</ele><time>2026-03-28T10:55:02.943Z</time></trkpt><trkpt lat="43.9696224" lon="11.2570385"><ele>274.0</ele><time>2026-03-28T10:55:03.965Z</time></trkpt><trkpt lat="43.969729" lon="11.2569595"><ele>274.0</ele><time>2026-03-28T10:55:04.954Z</time></trkpt><trkpt lat="43.9698363" lon="11.2568851"><ele>274.0</ele><time>2026-03-28T10:55:05.963Z</time></trkpt><trkpt lat="43.9699416" lon="11.2568168"><ele>274.0</ele><time>2026-03-28T10:55:06.965Z</time></trkpt><trkpt lat="43.9700427" lon="11.2567473"><ele>273.5</ele><time>2026-03-28T10:55:07.968Z</time></trkpt><trkpt lat="43.9701464" lon="11.2566872"><ele>273.0</ele><time>2026-03-28T10:55:09.026Z</time></trkpt><trkpt lat="43.97025" lon="11.2566154"><ele>272.5</ele><time>2026-03-28T10:55:10.033Z</time></trkpt><trkpt lat="43.9703535" lon="11.2565425"><ele>272.0</ele><time>2026-03-28T10:55:11.042Z</time></trkpt><trkpt lat="43.9704591" lon="11.2564725"><ele>272.5</ele><time>2026-03-28T10:55:11.968Z</time></trkpt><trkpt lat="43.9705738" lon="11.2563991"><ele>273.0</ele><time>2026-03-28T10:55:12.965Z</time></trkpt><trkpt lat="43.970687" lon="11.2563253"><ele>273.5</ele><time>2026-03-28T10:55:13.968Z</time></trkpt><trkpt lat="43.9708006" lon="11.256245"><ele>274.0</ele><time>2026-03-28T10:55:14.959Z</time></trkpt><trkpt lat="43.9709163" lon="11.2561612"><ele>274.0</ele><time>2026-03-28T10:55:15.958Z</time></trkpt><trkpt lat="43.9710219" lon="11.2560675"><ele>274.0</ele><time>2026-03-28T10:55:17.032Z</time></trkpt><trkpt lat="43.9711148" lon="11.25596"><ele>274.0</ele><time>2026-03-28T10:55:17.968Z</time></trkpt><trkpt lat="43.9712032" lon="11.2558433"><ele>274.0</ele><time>2026-03-28T10:55:18.956Z</time></trkpt><trkpt lat="43.9712761" lon="11.2557158"><ele>275.25</ele><time>2026-03-28T10:55:19.969Z</time></trkpt><trkpt lat="43.9713177" lon="11.2555616"><ele>276.5</ele><time>2026-03-28T10:55:20.964Z</time></trkpt><trkpt lat="43.9713308" lon="11.2554007"><ele>277.75</ele><time>2026-03-28T10:55:21.958Z</time></trkpt><trkpt lat="43.971319" lon="11.2552318"><ele>279.0</ele><time>2026-03-28T10:55:22.966Z</time></trkpt><trkpt lat="43.9712821" lon="11.2550719"><ele>279.0</ele><time>2026-03-28T10:55:23.969Z</time></trkpt><trkpt lat="43.9712385" lon="11.2549112"><ele>279.0</ele><time>2026-03-28T10:55:24.954Z</time></trkpt><trkpt lat="43.9711952" lon="11.2547514"><ele>279.0</ele><time>2026-03-28T10:55:25.961Z</time></trkpt><trkpt lat="43.9711507" lon="11.2545887"><ele>279.0</ele><time>2026-03-28T10:55:27.028Z</time></trkpt><trkpt lat="43.9711156" lon="11.2544258"><ele>279.5</ele><time>2026-03-28T10:55:27.975Z</time></trkpt><trkpt lat="43.9710748" lon="11.2542646"><ele>280.0</ele><time>2026-03-28T10:55:28.964Z</time></trkpt><trkpt lat="43.9710325" lon="11.2541039"><ele>280.5</ele><time>2026-03-28T10:55:30.008Z</time></trkpt><trkpt lat="43.9709897" lon="11.2539566"><ele>281.0</ele><time>2026-03-28T10:55:31.032Z</time></trkpt><trkpt lat="43.9709443" lon="11.2538175"><ele>281.0</ele><time>2026-03-28T10:55:32.054Z</time></trkpt><trkpt lat="43.9708975" lon="11.2536743"><ele>281.0</ele><time>2026-03-28T10:55:32.964Z</time></trkpt><trkpt lat="43.9708368" lon="11.2535489"><ele>281.0</ele><time>2026-03-28T10:55:34.034Z</time></trkpt><trkpt lat="43.9707558" lon="11.2534462"><ele>281.0</ele><time>2026-03-28T10:55:35.036Z</time></trkpt><trkpt lat="43.9706663" lon="11.253358"><ele>281.0</ele><time>2026-03-28T10:55:36.021Z</time></trkpt><trkpt lat="43.9705771" lon="11.253278"><ele>281.0</ele><time>2026-03-28T10:55:37.032Z</time></trkpt><trkpt lat="43.970486" lon="11.2531985"><ele>281.0</ele><time>2026-03-28T10:55:37.957Z</time></trkpt><trkpt lat="43.9704134" lon="11.2531075"><ele>281.0</ele><time>2026-03-28T10:55:38.973Z</time></trkpt><trkpt lat="43.970346" lon="11.2529965"><ele>281.0</ele><time>2026-03-28T10:55:39.968Z</time></trkpt><trkpt lat="43.9703102" lon="11.2528564"><ele>281.0</ele><time>2026-03-28T10:55:41.021Z</time></trkpt><trkpt lat="43.9703132" lon="11.2527163"><ele>280.8</ele><time>2026-03-28T10:55:41.961Z</time></trkpt><trkpt lat="43.9703429" lon="11.2525779"><ele>280.6</ele><time>2026-03-28T10:55:42.97Z</time></trkpt><trkpt lat="43.9704054" lon="11.2524643"><ele>280.4</ele><time>2026-03-28T10:55:43.96Z</time></trkpt><trkpt lat="43.97049" lon="11.2523692"><ele>280.2</ele><time>2026-03-28T10:55:44.955Z</time></trkpt><trkpt lat="43.9705905" lon="11.252306"><ele>280.0</ele><time>2026-03-28T10:55:45.969Z</time></trkpt><trkpt lat="43.9707072" lon="11.2522458"><ele>280.0</ele><time>2026-03-28T10:55:46.963Z</time></trkpt><trkpt lat="43.9708273" lon="11.2521927"><ele>280.0</ele><time>2026-03-28T10:55:47.963Z</time></trkpt><trkpt lat="43.9709497" lon="11.2521406"><ele>280.0</ele><time>2026-03-28T10:55:48.966Z</time></trkpt><trkpt lat="43.9710712" lon="11.2520887"><ele>280.0</ele><time>2026-03-28T10:55:49.96Z</time></trkpt><trkpt lat="43.9711849" lon="11.2520487"><ele>279.0</ele><time>2026-03-28T10:55:50.967Z</time></trkpt><trkpt lat="43.9712902" lon="11.2520036"><ele>278.0</ele><time>2026-03-28T10:55:51.969Z</time></trkpt><trkpt lat="43.9713866" lon="11.2519455"><ele>277.0</ele><time>2026-03-28T10:55:52.968Z</time></trkpt><trkpt lat="43.9714774" lon="11.2518594"><ele>276.0</ele><time>2026-03-28T10:55:53.964Z</time></trkpt><trkpt lat="43.971557" lon="11.2517579"><ele>275.0</ele><time>2026-03-28T10:55:54.95Z</time></trkpt><trkpt lat="43.9716327" lon="11.2516464"><ele>273.5</ele><time>2026-03-28T10:55:55.954Z</time></trkpt><trkpt lat="43.9717079" lon="11.2515274"><ele>272.0</ele><time>2026-03-28T10:55:56.965Z</time></trkpt><trkpt lat="43.9717764" lon="11.2514009"><ele>270.5</ele><time>2026-03-28T10:55:57.963Z</time></trkpt><trkpt lat="43.9718326" lon="11.2512636"><ele>269.0</ele><time>2026-03-28T10:55:58.961Z</time></trkpt><trkpt lat="43.9718755" lon="11.2511221"><ele>269.0</ele><time>2026-03-28T10:55:59.951Z</time></trkpt><trkpt lat="43.9718941" lon="11.2509693"><ele>269.0</ele><time>2026-03-28T10:56:00.961Z</time></trkpt><trkpt lat="43.971874" lon="11.2508073"><ele>269.0</ele><time>2026-03-28T10:56:01.958Z</time></trkpt><trkpt lat="43.9718356" lon="11.2506566"><ele>269.0</ele><time>2026-03-28T10:56:02.959Z</time></trkpt><trkpt lat="43.9717716" lon="11.2505202"><ele>268.8</ele><time>2026-03-28T10:56:03.964Z</time></trkpt><trkpt lat="43.9716749" lon="11.2504162"><ele>268.59999999999997</ele><time>2026-03-28T10:56:04.961Z</time></trkpt><trkpt lat="43.9715808" lon="11.2503279"><ele>268.4</ele><time>2026-03-28T10:56:05.964Z</time></trkpt><trkpt lat="43.9714929" lon="11.2502439"><ele>268.2</ele><time>2026-03-28T10:56:06.964Z</time></trkpt><trkpt lat="43.9714129" lon="11.2501458"><ele>268.0</ele><time>2026-03-28T10:56:07.963Z</time></trkpt><trkpt lat="43.9713519" lon="11.2500227"><ele>268.0</ele><time>2026-03-28T10:56:08.95Z</time></trkpt><trkpt lat="43.9713238" lon="11.2498823"><ele>268.0</ele><time>2026-03-28T10:56:09.964Z</time></trkpt><trkpt lat="43.9713384" lon="11.2497366"><ele>268.0</ele><time>2026-03-28T10:56:10.97Z</time></trkpt><trkpt lat="43.9713685" lon="11.2495966"><ele>268.0</ele><time>2026-03-28T10:56:11.965Z</time></trkpt><trkpt lat="43.9714268" lon="11.2494622"><ele>268.0</ele><time>2026-03-28T10:56:12.961Z</time></trkpt><trkpt lat="43.9715059" lon="11.2493471"><ele>268.5</ele><time>2026-03-28T10:56:13.968Z</time></trkpt><trkpt lat="43.9716098" lon="11.2492517"><ele>269.0</ele><time>2026-03-28T10:56:14.984Z</time></trkpt><trkpt lat="43.9717121" lon="11.2491591"><ele>269.5</ele><time>2026-03-28T10:56:15.959Z</time></trkpt><trkpt lat="43.9718105" lon="11.2490663"><ele>270.0</ele><time>2026-03-28T10:56:16.96Z</time></trkpt><trkpt lat="43.9719148" lon="11.2490056"><ele>270.2</ele><time>2026-03-28T10:56:17.968Z</time></trkpt><trkpt lat="43.9720266" lon="11.2489997"><ele>270.4</ele><time>2026-03-28T10:56:18.966Z</time></trkpt><trkpt lat="43.9721373" lon="11.249047"><ele>270.6</ele><time>2026-03-28T10:56:19.964Z</time></trkpt><trkpt lat="43.9722407" lon="11.2490938"><ele>270.8</ele><time>2026-03-28T10:56:20.962Z</time></trkpt><trkpt lat="43.9723458" lon="11.2491266"><ele>271.0</ele><time>2026-03-28T10:56:21.965Z</time></trkpt><trkpt lat="43.9724506" lon="11.2491598"><ele>271.40000000000003</ele><time>2026-03-28T10:56:22.968Z</time></trkpt><trkpt lat="43.9725625" lon="11.249193"><ele>271.8</ele><time>2026-03-28T10:56:23.966Z</time></trkpt><trkpt lat="43.9726699" lon="11.2492232"><ele>272.20000000000005</ele><time>2026-03-28T10:56:24.968Z</time></trkpt><trkpt lat="43.9727815" lon="11.2492536"><ele>272.6</ele><time>2026-03-28T10:56:25.969Z</time></trkpt><trkpt lat="43.9728903" lon="11.2492823"><ele>273.0</ele><time>2026-03-28T10:56:26.968Z</time></trkpt><trkpt lat="43.9729982" lon="11.2493173"><ele>273.0</ele><time>2026-03-28T10:56:27.964Z</time></trkpt><trkpt lat="43.9731115" lon="11.2493534"><ele>273.0</ele><time>2026-03-28T10:56:28.965Z</time></trkpt><trkpt lat="43.9732253" lon="11.2493869"><ele>273.0</ele><time>2026-03-28T10:56:29.963Z</time></trkpt><trkpt lat="43.9733389" lon="11.2494151"><ele>273.0</ele><time>2026-03-28T10:56:30.947Z</time></trkpt><trkpt lat="43.9734543" lon="11.2494369"><ele>272.2</ele><time>2026-03-28T10:56:31.966Z</time></trkpt><trkpt lat="43.9735666" lon="11.2494573"><ele>271.4</ele><time>2026-03-28T10:56:32.965Z</time></trkpt><trkpt lat="43.9736817" lon="11.2494661"><ele>270.59999999999997</ele><time>2026-03-28T10:56:33.968Z</time></trkpt><trkpt lat="43.9737912" lon="11.2494718"><ele>269.8</ele><time>2026-03-28T10:56:34.974Z</time></trkpt><trkpt lat="43.9738916" lon="11.2494688"><ele>269.0</ele><time>2026-03-28T10:56:35.953Z</time></trkpt><trkpt lat="43.9739789" lon="11.2494295"><ele>269.0</ele><time>2026-03-28T10:56:36.961Z</time></trkpt><trkpt lat="43.9740574" lon="11.2493592"><ele>269.0</ele><time>2026-03-28T10:56:37.96Z</time></trkpt><trkpt lat="43.9741242" lon="11.2492742"><ele>269.0</ele><time>2026-03-28T10:56:38.964Z</time></trkpt><trkpt lat="43.974177" lon="11.2491677"><ele>269.0</ele><time>2026-03-28T10:56:39.969Z</time></trkpt><trkpt lat="43.9742251" lon="11.2490517"><ele>269.0</ele><time>2026-03-28T10:56:41.016Z</time></trkpt><trkpt lat="43.9742785" lon="11.2489207"><ele>267.5</ele><time>2026-03-28T10:56:41.959Z</time></trkpt><trkpt lat="43.9743296" lon="11.2487835"><ele>266.0</ele><time>2026-03-28T10:56:42.965Z</time></trkpt><trkpt lat="43.9743905" lon="11.2486479"><ele>264.5</ele><time>2026-03-28T10:56:43.974Z</time></trkpt><trkpt lat="43.9744744" lon="11.2485284"><ele>263.0</ele><time>2026-03-28T10:56:44.969Z</time></trkpt><trkpt lat="43.9745739" lon="11.2484334"><ele>263.0</ele><time>2026-03-28T10:56:45.965Z</time></trkpt><trkpt lat="43.9746899" lon="11.2483747"><ele>263.0</ele><time>2026-03-28T10:56:46.962Z</time></trkpt><trkpt lat="43.9748074" lon="11.2483252"><ele>263.0</ele><time>2026-03-28T10:56:47.961Z</time></trkpt><trkpt lat="43.9749213" lon="11.2482639"><ele>263.0</ele><time>2026-03-28T10:56:48.974Z</time></trkpt><trkpt lat="43.9750251" lon="11.2481772"><ele>260.75</ele><time>2026-03-28T10:56:49.962Z</time></trkpt><trkpt lat="43.9751179" lon="11.2480616"><ele>258.5</ele><time>2026-03-28T10:56:50.966Z</time></trkpt><trkpt lat="43.9751969" lon="11.2479132"><ele>256.25</ele><time>2026-03-28T10:56:51.963Z</time></trkpt><trkpt lat="43.97527" lon="11.2477588"><ele>254.0</ele><time>2026-03-28T10:56:52.956Z</time></trkpt><trkpt lat="43.9753349" lon="11.247602"><ele>254.0</ele><time>2026-03-28T10:56:53.952Z</time></trkpt><trkpt lat="43.9754013" lon="11.2474498"><ele>254.0</ele><time>2026-03-28T10:56:54.964Z</time></trkpt><trkpt lat="43.9754701" lon="11.2473036"><ele>254.0</ele><time>2026-03-28T10:56:55.967Z</time></trkpt><trkpt lat="43.9755362" lon="11.2471452"><ele>254.0</ele><time>2026-03-28T10:56:56.963Z</time></trkpt><trkpt lat="43.9756013" lon="11.2469896"><ele>255.5</ele><time>2026-03-28T10:56:57.962Z</time></trkpt><trkpt lat="43.9756634" lon="11.24683"><ele>257.0</ele><time>2026-03-28T10:56:58.966Z</time></trkpt><trkpt lat="43.9757264" lon="11.2466716"><ele>258.5</ele><time>2026-03-28T10:56:59.961Z</time></trkpt><trkpt lat="43.9757877" lon="11.2465115"><ele>260.0</ele><time>2026-03-28T10:57:00.965Z</time></trkpt><trkpt lat="43.9758501" lon="11.2463569"><ele>256.25</ele><time>2026-03-28T10:57:01.961Z</time></trkpt><trkpt lat="43.9759141" lon="11.2462122"><ele>252.5</ele><time>2026-03-28T10:57:02.969Z</time></trkpt><trkpt lat="43.9759747" lon="11.2460765"><ele>248.75</ele><time>2026-03-28T10:57:03.961Z</time></trkpt><trkpt lat="43.9760288" lon="11.2459388"><ele>245.0</ele><time>2026-03-28T10:57:05.051Z</time></trkpt><trkpt lat="43.9760583" lon="11.2457885"><ele>245.0</ele><time>2026-03-28T10:57:06.033Z</time></trkpt><trkpt lat="43.9760603" lon="11.2456314"><ele>245.0</ele><time>2026-03-28T10:57:07.036Z</time></trkpt><trkpt lat="43.9760472" lon="11.2454678"><ele>245.0</ele><time>2026-03-28T10:57:07.98Z</time></trkpt><trkpt lat="43.9760018" lon="11.2453093"><ele>245.0</ele><time>2026-03-28T10:57:08.982Z</time></trkpt><trkpt lat="43.9759364" lon="11.2451532"><ele>244.25</ele><time>2026-03-28T10:57:09.972Z</time></trkpt><trkpt lat="43.9758689" lon="11.2449968"><ele>243.5</ele><time>2026-03-28T10:57:11.034Z</time></trkpt><trkpt lat="43.9758048" lon="11.2448461"><ele>242.75</ele><time>2026-03-28T10:57:12.032Z</time></trkpt><trkpt lat="43.9757337" lon="11.2447113"><ele>242.0</ele><time>2026-03-28T10:57:12.965Z</time></trkpt><trkpt lat="43.9756505" lon="11.2445799"><ele>243.5</ele><time>2026-03-28T10:57:13.968Z</time></trkpt><trkpt lat="43.9755435" lon="11.2444814"><ele>245.0</ele><time>2026-03-28T10:57:14.97Z</time></trkpt><trkpt lat="43.9754243" lon="11.2444072"><ele>246.5</ele><time>2026-03-28T10:57:16.049Z</time></trkpt><trkpt lat="43.9752899" lon="11.2443799"><ele>248.0</ele><time>2026-03-28T10:57:17.041Z</time></trkpt><trkpt lat="43.9751582" lon="11.2443596"><ele>248.0</ele><time>2026-03-28T10:57:17.963Z</time></trkpt><trkpt lat="43.9750239" lon="11.2443339"><ele>248.0</ele><time>2026-03-28T10:57:18.964Z</time></trkpt><trkpt lat="43.9748984" lon="11.2443123"><ele>248.0</ele><time>2026-03-28T10:57:20.01Z</time></trkpt><trkpt lat="43.9747815" lon="11.2442892"><ele>248.0</ele><time>2026-03-28T10:57:21.029Z</time></trkpt><trkpt lat="43.9746671" lon="11.2442612"><ele>248.5</ele><time>2026-03-28T10:57:22.031Z</time></trkpt><trkpt lat="43.9745526" lon="11.2442094"><ele>249.0</ele><time>2026-03-28T10:57:22.968Z</time></trkpt><trkpt lat="43.9744503" lon="11.2441214"><ele>249.5</ele><time>2026-03-28T10:57:23.963Z</time></trkpt><trkpt lat="43.9743479" lon="11.2440131"><ele>250.0</ele><time>2026-03-28T10:57:24.999Z</time></trkpt><trkpt lat="43.9742615" lon="11.2438765"><ele>251.75</ele><time>2026-03-28T10:57:26.032Z</time></trkpt><trkpt lat="43.9741693" lon="11.243736"><ele>253.5</ele><time>2026-03-28T10:57:27.036Z</time></trkpt><trkpt lat="43.9740829" lon="11.2435992"><ele>255.25</ele><time>2026-03-28T10:57:27.971Z</time></trkpt><trkpt lat="43.9739931" lon="11.2434676"><ele>257.0</ele><time>2026-03-28T10:57:28.975Z</time></trkpt><trkpt lat="43.9739055" lon="11.2433452"><ele>257.0</ele><time>2026-03-28T10:57:29.993Z</time></trkpt><trkpt lat="43.9738223" lon="11.2432189"><ele>257.0</ele><time>2026-03-28T10:57:31.032Z</time></trkpt><trkpt lat="43.9737411" lon="11.2431008"><ele>257.0</ele><time>2026-03-28T10:57:32.037Z</time></trkpt><trkpt lat="43.9736599" lon="11.2429803"><ele>257.0</ele><time>2026-03-28T10:57:32.964Z</time></trkpt><trkpt lat="43.9735843" lon="11.242868"><ele>257.75</ele><time>2026-03-28T10:57:33.963Z</time></trkpt><trkpt lat="43.9735096" lon="11.2427451"><ele>258.5</ele><time>2026-03-28T10:57:34.943Z</time></trkpt><trkpt lat="43.9734323" lon="11.2426251"><ele>259.25</ele><time>2026-03-28T10:57:35.94Z</time></trkpt><trkpt lat="43.9733554" lon="11.2425059"><ele>260.0</ele><time>2026-03-28T10:57:36.938Z</time></trkpt><trkpt lat="43.9732845" lon="11.2423673"><ele>258.0</ele><time>2026-03-28T10:57:37.945Z</time></trkpt><trkpt lat="43.9732267" lon="11.2422159"><ele>256.0</ele><time>2026-03-28T10:57:38.962Z</time></trkpt><trkpt lat="43.9731729" lon="11.2420552"><ele>254.0</ele><time>2026-03-28T10:57:39.968Z</time></trkpt><trkpt lat="43.9731169" lon="11.2418934"><ele>252.0</ele><time>2026-03-28T10:57:40.985Z</time></trkpt><trkpt lat="43.9730634" lon="11.2417369"><ele>252.0</ele><time>2026-03-28T10:57:41.968Z</time></trkpt><trkpt lat="43.9730087" lon="11.241585"><ele>252.0</ele><time>2026-03-28T10:57:42.958Z</time></trkpt><trkpt lat="43.9729627" lon="11.2414452"><ele>252.0</ele><time>2026-03-28T10:57:43.967Z</time></trkpt><trkpt lat="43.9729177" lon="11.2413102"><ele>252.0</ele><time>2026-03-28T10:57:44.952Z</time></trkpt><trkpt lat="43.972874" lon="11.2411953"><ele>252.0</ele><time>2026-03-28T10:57:45.969Z</time></trkpt><trkpt lat="43.9728285" lon="11.2411088"><ele>251.83333333333334</ele><time>2026-03-28T10:57:46.96Z</time></trkpt><trkpt lat="43.97278" lon="11.2410339"><ele>251.66666666666669</ele><time>2026-03-28T10:57:47.969Z</time></trkpt><trkpt lat="43.972727" lon="11.2408714"><ele>251.5</ele><time>2026-03-28T10:57:49.968Z</time></trkpt><trkpt lat="43.9727102" lon="11.2407637"><ele>251.33333333333334</ele><time>2026-03-28T10:57:50.972Z</time></trkpt><trkpt lat="43.9726899" lon="11.24066"><ele>251.16666666666669</ele><time>2026-03-28T10:57:51.967Z</time></trkpt><trkpt lat="43.9726611" lon="11.2405536"><ele>251.0</ele><time>2026-03-28T10:57:52.945Z</time></trkpt><trkpt lat="43.9726186" lon="11.2404566"><ele>251.83333333333334</ele><time>2026-03-28T10:57:53.964Z</time></trkpt><trkpt lat="43.9725687" lon="11.2403716"><ele>252.66666666666669</ele><time>2026-03-28T10:57:54.969Z</time></trkpt><trkpt lat="43.9725161" lon="11.2402874"><ele>253.5</ele><time>2026-03-28T10:57:55.976Z</time></trkpt><trkpt lat="43.9724605" lon="11.2402018"><ele>254.33333333333331</ele><time>2026-03-28T10:57:56.977Z</time></trkpt><trkpt lat="43.9723935" lon="11.2401234"><ele>255.16666666666666</ele><time>2026-03-28T10:57:57.973Z</time></trkpt><trkpt lat="43.9723113" lon="11.2400575"><ele>256.0</ele><time>2026-03-28T10:57:58.965Z</time></trkpt><trkpt lat="43.9722179" lon="11.2400011"><ele>255.99999999999997</ele><time>2026-03-28T10:57:59.969Z</time></trkpt><trkpt lat="43.9721228" lon="11.2399737"><ele>256.0</ele><time>2026-03-28T10:58:00.965Z</time></trkpt><trkpt lat="43.9720351" lon="11.2399509"><ele>256.0</ele><time>2026-03-28T10:58:01.956Z</time></trkpt><trkpt lat="43.971948" lon="11.2399443"><ele>256.0</ele><time>2026-03-28T10:58:02.964Z</time></trkpt><trkpt lat="43.9718638" lon="11.239953"><ele>255.99999999999997</ele><time>2026-03-28T10:58:03.958Z</time></trkpt><trkpt lat="43.9717781" lon="11.2399607"><ele>256.0</ele><time>2026-03-28T10:58:05.035Z</time></trkpt><trkpt lat="43.9716892" lon="11.2399756"><ele>257.0</ele><time>2026-03-28T10:58:06.035Z</time></trkpt><trkpt lat="43.9716046" lon="11.2400008"><ele>258.0</ele><time>2026-03-28T10:58:07.03Z</time></trkpt><trkpt lat="43.9715241" lon="11.2400322"><ele>259.0</ele><time>2026-03-28T10:58:07.955Z</time></trkpt><trkpt lat="43.9714444" lon="11.2400536"><ele>260.0</ele><time>2026-03-28T10:58:08.964Z</time></trkpt><trkpt lat="43.9713601" lon="11.2400733"><ele>261.0</ele><time>2026-03-28T10:58:09.982Z</time></trkpt><trkpt lat="43.9712912" lon="11.2400746"><ele>262.0</ele><time>2026-03-28T10:58:10.978Z</time></trkpt><trkpt lat="43.9711987" lon="11.2400329"><ele>262.0</ele><time>2026-03-28T10:58:12.963Z</time></trkpt><trkpt lat="43.9711186" lon="11.2399534"><ele>262.0</ele><time>2026-03-28T10:58:14.966Z</time></trkpt><trkpt lat="43.9710375" lon="11.239827"><ele>262.0</ele><time>2026-03-28T10:58:16.948Z</time></trkpt><trkpt lat="43.970998" lon="11.2397523"><ele>262.0</ele><time>2026-03-28T10:58:17.965Z</time></trkpt><trkpt lat="43.970951" lon="11.2396878"><ele>262.0</ele><time>2026-03-28T10:58:18.966Z</time></trkpt><trkpt lat="43.9708521" lon="11.2395767"><ele>265.66666666666663</ele><time>2026-03-28T10:58:20.963Z</time></trkpt><trkpt lat="43.9707588" lon="11.2394686"><ele>269.3333333333333</ele><time>2026-03-28T10:58:22.96Z</time></trkpt><trkpt lat="43.9707064" lon="11.2394179"><ele>273.0</ele><time>2026-03-28T10:58:23.958Z</time></trkpt><trkpt lat="43.9706513" lon="11.2393554"><ele>276.6666666666667</ele><time>2026-03-28T10:58:24.997Z</time></trkpt><trkpt lat="43.9706035" lon="11.239295"><ele>280.33333333333337</ele><time>2026-03-28T10:58:25.965Z</time></trkpt><trkpt lat="43.9705094" lon="11.2391904"><ele>284.0</ele><time>2026-03-28T10:58:27.952Z</time></trkpt><trkpt lat="43.9704541" lon="11.2391479"><ele>284.0</ele><time>2026-03-28T10:58:28.955Z</time></trkpt><trkpt lat="43.9703947" lon="11.2391184"><ele>284.0</ele><time>2026-03-28T10:58:29.965Z</time></trkpt><trkpt lat="43.9703304" lon="11.2391091"><ele>284.0</ele><time>2026-03-28T10:58:30.965Z</time></trkpt><trkpt lat="43.9702631" lon="11.239105"><ele>284.0</ele><time>2026-03-28T10:58:31.959Z</time></trkpt><trkpt lat="43.970147" lon="11.2390843"><ele>284.0</ele><time>2026-03-28T10:58:34.012Z</time></trkpt><trkpt lat="43.9700822" lon="11.2390557"><ele>284.0</ele><time>2026-03-28T10:58:34.964Z</time></trkpt><trkpt lat="43.9699775" lon="11.2389978"><ele>286.2</ele><time>2026-03-28T10:58:37.033Z</time></trkpt><trkpt lat="43.9699355" lon="11.238921"><ele>288.4</ele><time>2026-03-28T10:58:38.963Z</time></trkpt><trkpt lat="43.9699822" lon="11.2388198"><ele>290.6</ele><time>2026-03-28T10:58:42.052Z</time></trkpt><trkpt lat="43.9700379" lon="11.2387578"><ele>292.8</ele><time>2026-03-28T10:58:43.969Z</time></trkpt><trkpt lat="43.9701362" lon="11.2386891"><ele>295.0</ele><time>2026-03-28T10:58:45.973Z</time></trkpt><trkpt lat="43.9702539" lon="11.2386781"><ele>295.0</ele><time>2026-03-28T10:58:47.967Z</time></trkpt><trkpt lat="43.970318" lon="11.2386883"><ele>295.0</ele><time>2026-03-28T10:58:48.964Z</time></trkpt><trkpt lat="43.9704389" lon="11.2387156"><ele>295.0</ele><time>2026-03-28T10:58:50.965Z</time></trkpt><trkpt lat="43.9705524" lon="11.2386953"><ele>295.0</ele><time>2026-03-28T10:58:52.945Z</time></trkpt><trkpt lat="43.9706466" lon="11.2386214"><ele>295.0</ele><time>2026-03-28T10:58:54.96Z</time></trkpt><trkpt lat="43.9706691" lon="11.2385277"><ele>295.0</ele><time>2026-03-28T10:58:56.955Z</time></trkpt><trkpt lat="43.9706041" lon="11.2384067"><ele>295.0</ele><time>2026-03-28T10:58:58.96Z</time></trkpt><trkpt lat="43.9705242" lon="11.2383084"><ele>295.0</ele><time>2026-03-28T10:59:00.986Z</time></trkpt><trkpt lat="43.970429" lon="11.2382642"><ele>295.0</ele><time>2026-03-28T10:59:02.942Z</time></trkpt><trkpt lat="43.9703343" lon="11.2382129"><ele>295.0</ele><time>2026-03-28T10:59:04.969Z</time></trkpt><trkpt lat="43.9702503" lon="11.2381217"><ele>295.4</ele><time>2026-03-28T10:59:07.044Z</time></trkpt><trkpt lat="43.9701581" lon="11.23804"><ele>295.8</ele><time>2026-03-28T10:59:08.967Z</time></trkpt><trkpt lat="43.9700684" lon="11.237945"><ele>296.2</ele><time>2026-03-28T10:59:11.031Z</time></trkpt><trkpt lat="43.9699826" lon="11.2378265"><ele>296.6</ele><time>2026-03-28T10:59:12.969Z</time></trkpt><trkpt lat="43.9699272" lon="11.2377607"><ele>297.0</ele><time>2026-03-28T10:59:13.976Z</time></trkpt><trkpt lat="43.9698671" lon="11.2376999"><ele>300.1666666666667</ele><time>2026-03-28T10:59:14.981Z</time></trkpt><trkpt lat="43.9698004" lon="11.237648"><ele>303.3333333333333</ele><time>2026-03-28T10:59:16.028Z</time></trkpt><trkpt lat="43.9697259" lon="11.2375936"><ele>306.5</ele><time>2026-03-28T10:59:17.034Z</time></trkpt><trkpt lat="43.9696513" lon="11.2375541"><ele>309.66666666666663</ele><time>2026-03-28T10:59:17.963Z</time></trkpt><trkpt lat="43.96957" lon="11.2375252"><ele>312.8333333333333</ele><time>2026-03-28T10:59:18.966Z</time></trkpt><trkpt lat="43.9694953" lon="11.2375089"><ele>316.0</ele><time>2026-03-28T10:59:19.966Z</time></trkpt><trkpt lat="43.9694276" lon="11.2375069"><ele>316.0</ele><time>2026-03-28T10:59:21.005Z</time></trkpt><trkpt lat="43.9693139" lon="11.2374732"><ele>316.0</ele><time>2026-03-28T10:59:22.966Z</time></trkpt><trkpt lat="43.9692487" lon="11.2374255"><ele>316.0</ele><time>2026-03-28T10:59:23.968Z</time></trkpt><trkpt lat="43.9691842" lon="11.2373774"><ele>316.0</ele><time>2026-03-28T10:59:24.974Z</time></trkpt><trkpt lat="43.9691201" lon="11.2373341"><ele>316.0</ele><time>2026-03-28T10:59:25.963Z</time></trkpt><trkpt lat="43.9690533" lon="11.2373047"><ele>316.0</ele><time>2026-03-28T10:59:26.969Z</time></trkpt><trkpt lat="43.9689827" lon="11.2372794"><ele>318.4</ele><time>2026-03-28T10:59:27.946Z</time></trkpt><trkpt lat="43.9689053" lon="11.2372629"><ele>320.8</ele><time>2026-03-28T10:59:28.961Z</time></trkpt><trkpt lat="43.9688105" lon="11.2372687"><ele>323.2</ele><time>2026-03-28T10:59:29.967Z</time></trkpt><trkpt lat="43.9687157" lon="11.2372922"><ele>325.59999999999997</ele><time>2026-03-28T10:59:30.947Z</time></trkpt><trkpt lat="43.9686171" lon="11.2373249"><ele>328.0</ele><time>2026-03-28T10:59:32.013Z</time></trkpt><trkpt lat="43.9685238" lon="11.2373505"><ele>328.0</ele><time>2026-03-28T10:59:32.978Z</time></trkpt><trkpt lat="43.9684113" lon="11.2373836"><ele>328.0</ele><time>2026-03-28T10:59:33.971Z</time></trkpt><trkpt lat="43.9682856" lon="11.2374218"><ele>328.0</ele><time>2026-03-28T10:59:34.986Z</time></trkpt><trkpt lat="43.9681821" lon="11.2374535"><ele>328.0</ele><time>2026-03-28T10:59:35.963Z</time></trkpt><trkpt lat="43.9680913" lon="11.2374728"><ele>328.0</ele><time>2026-03-28T10:59:36.974Z</time></trkpt><trkpt lat="43.9680067" lon="11.2374856"><ele>329.8333333333333</ele><time>2026-03-28T10:59:37.968Z</time></trkpt><trkpt lat="43.9679146" lon="11.2374947"><ele>331.66666666666663</ele><time>2026-03-28T10:59:38.967Z</time></trkpt><trkpt lat="43.967826" lon="11.2375038"><ele>333.5</ele><time>2026-03-28T10:59:39.977Z</time></trkpt><trkpt lat="43.9677469" lon="11.2374936"><ele>335.3333333333333</ele><time>2026-03-28T10:59:40.972Z</time></trkpt><trkpt lat="43.9676754" lon="11.2374733"><ele>337.1666666666667</ele><time>2026-03-28T10:59:41.961Z</time></trkpt><trkpt lat="43.967604" lon="11.2374324"><ele>339.0</ele><time>2026-03-28T10:59:42.967Z</time></trkpt><trkpt lat="43.9675356" lon="11.2373836"><ele>339.1666666666667</ele><time>2026-03-28T10:59:43.962Z</time></trkpt><trkpt lat="43.9674656" lon="11.2373342"><ele>339.3333333333333</ele><time>2026-03-28T10:59:44.963Z</time></trkpt><trkpt lat="43.9673915" lon="11.2372878"><ele>339.5</ele><time>2026-03-28T10:59:45.969Z</time></trkpt><trkpt lat="43.9673142" lon="11.2372385"><ele>339.66666666666663</ele><time>2026-03-28T10:59:46.967Z</time></trkpt><trkpt lat="43.9672385" lon="11.237191"><ele>339.8333333333333</ele><time>2026-03-28T10:59:47.996Z</time></trkpt><trkpt lat="43.9671579" lon="11.2371571"><ele>340.0</ele><time>2026-03-28T10:59:48.973Z</time></trkpt><trkpt lat="43.9670858" lon="11.2371176"><ele>343.16666666666663</ele><time>2026-03-28T10:59:49.958Z</time></trkpt><trkpt lat="43.9670123" lon="11.2370874"><ele>346.3333333333333</ele><time>2026-03-28T10:59:50.966Z</time></trkpt><trkpt lat="43.9669373" lon="11.2370595"><ele>349.5</ele><time>2026-03-28T10:59:51.964Z</time></trkpt><trkpt lat="43.9668536" lon="11.2370334"><ele>352.6666666666667</ele><time>2026-03-28T10:59:52.968Z</time></trkpt><trkpt lat="43.9667714" lon="11.237006"><ele>355.83333333333337</ele><time>2026-03-28T10:59:53.975Z</time></trkpt><trkpt lat="43.9666964" lon="11.2369781"><ele>359.0</ele><time>2026-03-28T10:59:55.034Z</time></trkpt><trkpt lat="43.966625" lon="11.2369556"><ele>359.33333333333337</ele><time>2026-03-28T10:59:56.027Z</time></trkpt><trkpt lat="43.9665514" lon="11.2369303"><ele>359.6666666666667</ele><time>2026-03-28T10:59:57.028Z</time></trkpt><trkpt lat="43.9664778" lon="11.2368951"><ele>360.0</ele><time>2026-03-28T10:59:57.961Z</time></trkpt><trkpt lat="43.966402" lon="11.2368549"><ele>360.3333333333333</ele><time>2026-03-28T10:59:58.967Z</time></trkpt><trkpt lat="43.9663248" lon="11.2368158"><ele>360.66666666666663</ele><time>2026-03-28T10:59:59.981Z</time></trkpt><trkpt lat="43.9662502" lon="11.2367736"><ele>361.0</ele><time>2026-03-28T11:00:00.945Z</time></trkpt><trkpt lat="43.9661773" lon="11.2367288"><ele>361.0</ele><time>2026-03-28T11:00:01.978Z</time></trkpt><trkpt lat="43.9661083" lon="11.2366817"><ele>361.0</ele><time>2026-03-28T11:00:02.958Z</time></trkpt><trkpt lat="43.9660374" lon="11.2366376"><ele>361.0</ele><time>2026-03-28T11:00:03.968Z</time></trkpt><trkpt lat="43.9659596" lon="11.2366021"><ele>361.0</ele><time>2026-03-28T11:00:04.96Z</time></trkpt><trkpt lat="43.9658906" lon="11.2365674"><ele>361.0</ele><time>2026-03-28T11:00:05.966Z</time></trkpt><trkpt lat="43.9658229" lon="11.2365449"><ele>361.0</ele><time>2026-03-28T11:00:06.964Z</time></trkpt><trkpt lat="43.9657564" lon="11.2365211"><ele>361.0</ele><time>2026-03-28T11:00:07.971Z</time></trkpt><trkpt lat="43.9656943" lon="11.2365028"><ele>361.8</ele><time>2026-03-28T11:00:09.025Z</time></trkpt><trkpt lat="43.9655689" lon="11.2364771"><ele>362.6</ele><time>2026-03-28T11:00:11.033Z</time></trkpt><trkpt lat="43.9654507" lon="11.2364417"><ele>363.4</ele><time>2026-03-28T11:00:12.967Z</time></trkpt><trkpt lat="43.9653868" lon="11.23641"><ele>364.2</ele><time>2026-03-28T11:00:14.036Z</time></trkpt><trkpt lat="43.9653202" lon="11.236381"><ele>365.0</ele><time>2026-03-28T11:00:15.029Z</time></trkpt><trkpt lat="43.9652535" lon="11.2363515"><ele>367.6</ele><time>2026-03-28T11:00:15.964Z</time></trkpt><trkpt lat="43.9651399" lon="11.2363003"><ele>370.2</ele><time>2026-03-28T11:00:17.969Z</time></trkpt><trkpt lat="43.9650306" lon="11.2362669"><ele>372.79999999999995</ele><time>2026-03-28T11:00:19.965Z</time></trkpt><trkpt lat="43.9649667" lon="11.2362474"><ele>375.4</ele><time>2026-03-28T11:00:21.032Z</time></trkpt><trkpt lat="43.9648531" lon="11.2362171"><ele>378.0</ele><time>2026-03-28T11:00:22.961Z</time></trkpt><trkpt lat="43.9647564" lon="11.2361783"><ele>379.1666666666667</ele><time>2026-03-28T11:00:24.956Z</time></trkpt><trkpt lat="43.9646603" lon="11.236139"><ele>380.33333333333337</ele><time>2026-03-28T11:00:26.957Z</time></trkpt><trkpt lat="43.9645748" lon="11.2360887"><ele>381.5</ele><time>2026-03-28T11:00:28.964Z</time></trkpt><trkpt lat="43.9645273" lon="11.2359594"><ele>382.6666666666667</ele><time>2026-03-28T11:00:31.017Z</time></trkpt><trkpt lat="43.9645175" lon="11.2358675"><ele>383.83333333333337</ele><time>2026-03-28T11:00:32.01Z</time></trkpt><trkpt lat="43.9645145" lon="11.2357755"><ele>385.0</ele><time>2026-03-28T11:00:32.958Z</time></trkpt><trkpt lat="43.9645051" lon="11.2356462"><ele>385.00000000000006</ele><time>2026-03-28T11:00:34.965Z</time></trkpt><trkpt lat="43.9644364" lon="11.2355762"><ele>385.0</ele><time>2026-03-28T11:00:37.956Z</time></trkpt><trkpt lat="43.9643707" lon="11.2355706"><ele>385.0</ele><time>2026-03-28T11:00:39.961Z</time></trkpt><trkpt lat="43.9642869" lon="11.2355892"><ele>385.0</ele><time>2026-03-28T11:00:41.958Z</time></trkpt><trkpt lat="43.9642057" lon="11.2356472"><ele>385.00000000000006</ele><time>2026-03-28T11:00:43.94Z</time></trkpt><trkpt lat="43.9641459" lon="11.2357264"><ele>385.0</ele><time>2026-03-28T11:00:45.951Z</time></trkpt><trkpt lat="43.9640809" lon="11.2357887"><ele>387.2</ele><time>2026-03-28T11:00:47.942Z</time></trkpt><trkpt lat="43.9640452" lon="11.2358872"><ele>389.4</ele><time>2026-03-28T11:00:49.971Z</time></trkpt><trkpt lat="43.964024" lon="11.2360407"><ele>391.6</ele><time>2026-03-28T11:00:51.964Z</time></trkpt><trkpt lat="43.9639904" lon="11.2361681"><ele>393.8</ele><time>2026-03-28T11:00:53.946Z</time></trkpt><trkpt lat="43.9639549" lon="11.2363004"><ele>396.0</ele><time>2026-03-28T11:00:55.979Z</time></trkpt><trkpt lat="43.9639324" lon="11.2364816"><ele>396.7142857142857</ele><time>2026-03-28T11:00:58.945Z</time></trkpt><trkpt lat="43.9639057" lon="11.236561"><ele>397.4285714285714</ele><time>2026-03-28T11:01:00.947Z</time></trkpt><trkpt lat="43.9638574" lon="11.2366243"><ele>398.1428571428571</ele><time>2026-03-28T11:01:02.992Z</time></trkpt><trkpt lat="43.9638042" lon="11.2366749"><ele>398.8571428571429</ele><time>2026-03-28T11:01:04.941Z</time></trkpt><trkpt lat="43.9637543" lon="11.2367471"><ele>399.57142857142856</ele><time>2026-03-28T11:01:06.958Z</time></trkpt><trkpt lat="43.963711" lon="11.2368276"><ele>400.2857142857143</ele><time>2026-03-28T11:01:08.948Z</time></trkpt><trkpt lat="43.9636428" lon="11.2369247"><ele>401.0</ele><time>2026-03-28T11:01:10.962Z</time></trkpt><trkpt lat="43.9635466" lon="11.2370272"><ele>401.0</ele><time>2026-03-28T11:01:12.983Z</time></trkpt><trkpt lat="43.9634578" lon="11.2371163"><ele>401.0</ele><time>2026-03-28T11:01:14.954Z</time></trkpt><trkpt lat="43.9633724" lon="11.2371957"><ele>401.0</ele><time>2026-03-28T11:01:16.956Z</time></trkpt><trkpt lat="43.9632533" lon="11.2372086"><ele>401.0</ele><time>2026-03-28T11:01:18.959Z</time></trkpt><trkpt lat="43.9631897" lon="11.2372097"><ele>401.0</ele><time>2026-03-28T11:01:20.036Z</time></trkpt><trkpt lat="43.9631216" lon="11.2372196"><ele>402.0</ele><time>2026-03-28T11:01:21.034Z</time></trkpt><trkpt lat="43.9630546" lon="11.237235"><ele>403.0</ele><time>2026-03-28T11:01:21.958Z</time></trkpt><trkpt lat="43.9629419" lon="11.2372542"><ele>404.0</ele><time>2026-03-28T11:01:23.944Z</time></trkpt><trkpt lat="43.9628272" lon="11.2372526"><ele>405.0</ele><time>2026-03-28T11:01:25.948Z</time></trkpt><trkpt lat="43.9627024" lon="11.2372453"><ele>406.0</ele><time>2026-03-28T11:01:27.97Z</time></trkpt><trkpt lat="43.9626393" lon="11.2372568"><ele>407.25</ele><time>2026-03-28T11:01:29.03Z</time></trkpt><trkpt lat="43.9625348" lon="11.2373409"><ele>408.5</ele><time>2026-03-28T11:01:31.033Z</time></trkpt><trkpt lat="43.9624286" lon="11.2374278"><ele>409.75</ele><time>2026-03-28T11:01:32.942Z</time></trkpt><trkpt lat="43.9623207" lon="11.2375111"><ele>411.0</ele><time>2026-03-28T11:01:35.035Z</time></trkpt><trkpt lat="43.9622327" lon="11.2375962"><ele>412.6</ele><time>2026-03-28T11:01:37.006Z</time></trkpt><trkpt lat="43.9621529" lon="11.2376849"><ele>414.20000000000005</ele><time>2026-03-28T11:01:38.947Z</time></trkpt><trkpt lat="43.9620822" lon="11.2377829"><ele>415.79999999999995</ele><time>2026-03-28T11:01:41.032Z</time></trkpt><trkpt lat="43.9620091" lon="11.2378754"><ele>417.4</ele><time>2026-03-28T11:01:42.94Z</time></trkpt><trkpt lat="43.9619295" lon="11.2379845"><ele>419.0</ele><time>2026-03-28T11:01:44.971Z</time></trkpt><trkpt lat="43.9618669" lon="11.2380938"><ele>418.3333333333333</ele><time>2026-03-28T11:01:46.94Z</time></trkpt><trkpt lat="43.9618262" lon="11.2382192"><ele>417.66666666666663</ele><time>2026-03-28T11:01:48.94Z</time></trkpt><trkpt lat="43.9617863" lon="11.2383304"><ele>417.0</ele><time>2026-03-28T11:01:51.028Z</time></trkpt><trkpt lat="43.961754" lon="11.2384309"><ele>416.33333333333337</ele><time>2026-03-28T11:01:52.966Z</time></trkpt><trkpt lat="43.9617156" lon="11.2385341"><ele>415.6666666666667</ele><time>2026-03-28T11:01:54.956Z</time></trkpt><trkpt lat="43.9616764" lon="11.2386198"><ele>415.0</ele><time>2026-03-28T11:01:56.958Z</time></trkpt><trkpt lat="43.9616449" lon="11.2387034"><ele>418.0</ele><time>2026-03-28T11:01:59.027Z</time></trkpt><trkpt lat="43.9616252" lon="11.2387879"><ele>421.0</ele><time>2026-03-28T11:02:01.058Z</time></trkpt><trkpt lat="43.9616065" lon="11.2388812"><ele>424.0</ele><time>2026-03-28T11:02:02.943Z</time></trkpt><trkpt lat="43.9615651" lon="11.2389689"><ele>427.0</ele><time>2026-03-28T11:02:05.936Z</time></trkpt><trkpt lat="43.9615063" lon="11.2390243"><ele>430.0</ele><time>2026-03-28T11:02:08.941Z</time></trkpt><trkpt lat="43.9614418" lon="11.2390726"><ele>433.0</ele><time>2026-03-28T11:02:12.029Z</time></trkpt><trkpt lat="43.9613822" lon="11.2391039"><ele>436.0</ele><time>2026-03-28T11:02:13.974Z</time></trkpt><trkpt lat="43.9613034" lon="11.2391587"><ele>436.83333333333337</ele><time>2026-03-28T11:02:16.953Z</time></trkpt><trkpt lat="43.9612388" lon="11.2391876"><ele>437.6666666666667</ele><time>2026-03-28T11:02:20.035Z</time></trkpt><trkpt lat="43.9611729" lon="11.2392202"><ele>438.5</ele><time>2026-03-28T11:02:22.945Z</time></trkpt><trkpt lat="43.961086" lon="11.239265"><ele>439.33333333333337</ele><time>2026-03-28T11:02:25.942Z</time></trkpt><trkpt lat="43.9610298" lon="11.2393389"><ele>440.1666666666667</ele><time>2026-03-28T11:02:27.96Z</time></trkpt><trkpt lat="43.9609619" lon="11.2393903"><ele>441.0</ele><time>2026-03-28T11:02:29.945Z</time></trkpt><trkpt lat="43.9608946" lon="11.2394528"><ele>443.0</ele><time>2026-03-28T11:02:32.048Z</time></trkpt><trkpt lat="43.9608391" lon="11.2395032"><ele>445.0</ele><time>2026-03-28T11:02:33.972Z</time></trkpt><trkpt lat="43.9607924" lon="11.2395739"><ele>447.0</ele><time>2026-03-28T11:02:36.968Z</time></trkpt><trkpt lat="43.9607435" lon="11.2396706"><ele>449.0</ele><time>2026-03-28T11:02:40.031Z</time></trkpt><trkpt lat="43.9606844" lon="11.2397442"><ele>451.0</ele><time>2026-03-28T11:02:41.972Z</time></trkpt><trkpt lat="43.9606044" lon="11.2398053"><ele>453.0</ele><time>2026-03-28T11:02:43.97Z</time></trkpt><trkpt lat="43.9605348" lon="11.2398667"><ele>453.8571428571428</ele><time>2026-03-28T11:02:45.942Z</time></trkpt><trkpt lat="43.9604706" lon="11.2399064"><ele>454.71428571428567</ele><time>2026-03-28T11:02:48.973Z</time></trkpt><trkpt lat="43.9603989" lon="11.2399365"><ele>455.57142857142856</ele><time>2026-03-28T11:02:52.026Z</time></trkpt><trkpt lat="43.9603169" lon="11.239956"><ele>456.4285714285714</ele><time>2026-03-28T11:02:55.947Z</time></trkpt><trkpt lat="43.9602455" lon="11.2399645"><ele>457.2857142857142</ele><time>2026-03-28T11:02:59.944Z</time></trkpt><trkpt lat="43.9601719" lon="11.2399732"><ele>458.14285714285717</ele><time>2026-03-28T11:03:02.971Z</time></trkpt><trkpt lat="43.9601049" lon="11.2399858"><ele>459.0</ele><time>2026-03-28T11:03:05.96Z</time></trkpt><trkpt lat="43.9600267" lon="11.2399891"><ele>461.0</ele><time>2026-03-28T11:03:12.938Z</time></trkpt><trkpt lat="43.9599631" lon="11.2399871"><ele>463.0</ele><time>2026-03-28T11:03:15.942Z</time></trkpt><trkpt lat="43.9598787" lon="11.2400238"><ele>465.0</ele><time>2026-03-28T11:03:20.035Z</time></trkpt><trkpt lat="43.959805" lon="11.240057"><ele>467.0</ele><time>2026-03-28T11:03:21.956Z</time></trkpt><trkpt lat="43.9597171" lon="11.2400928"><ele>469.0</ele><time>2026-03-28T11:03:23.945Z</time></trkpt><trkpt lat="43.9596256" lon="11.2401485"><ele>471.0</ele><time>2026-03-28T11:03:26.034Z</time></trkpt><trkpt lat="43.9595385" lon="11.2402567"><ele>471.0</ele><time>2026-03-28T11:03:27.966Z</time></trkpt><trkpt lat="43.9594393" lon="11.2403525"><ele>471.0</ele><time>2026-03-28T11:03:29.947Z</time></trkpt><trkpt lat="43.9593397" lon="11.2404419"><ele>471.0</ele><time>2026-03-28T11:03:32.046Z</time></trkpt><trkpt lat="43.9592547" lon="11.2405072"><ele>471.0</ele><time>2026-03-28T11:03:33.94Z</time></trkpt><trkpt lat="43.9591936" lon="11.2405521"><ele>471.0</ele><time>2026-03-28T11:03:36.944Z</time></trkpt><trkpt lat="43.9591706" lon="11.2406527"><ele>471.3333333333333</ele><time>2026-03-28T11:09:04.973Z</time></trkpt><trkpt lat="43.9590918" lon="11.2406371"><ele>471.66666666666663</ele><time>2026-03-28T11:14:27.973Z</time></trkpt><trkpt lat="43.959033" lon="11.2407288"><ele>472.0</ele><time>2026-03-28T11:14:30.971Z</time></trkpt><trkpt lat="43.959006" lon="11.2408308"><ele>472.3333333333333</ele><time>2026-03-28T11:14:33.963Z</time></trkpt><trkpt lat="43.9590459" lon="11.2409259"><ele>472.66666666666663</ele><time>2026-03-28T11:14:36.965Z</time></trkpt><trkpt lat="43.9591057" lon="11.2409535"><ele>473.0</ele><time>2026-03-28T11:14:38.975Z</time></trkpt><trkpt lat="43.9591681" lon="11.2409838"><ele>473.0</ele><time>2026-03-28T11:14:40.957Z</time></trkpt><trkpt lat="43.95923" lon="11.2410377"><ele>472.99999999999994</ele><time>2026-03-28T11:14:42.984Z</time></trkpt><trkpt lat="43.9593191" lon="11.2411146"><ele>472.99999999999994</ele><time>2026-03-28T11:14:44.961Z</time></trkpt><trkpt lat="43.9593957" lon="11.241207"><ele>473.0</ele><time>2026-03-28T11:14:46.963Z</time></trkpt><trkpt lat="43.9594664" lon="11.2412871"><ele>473.0</ele><time>2026-03-28T11:14:48.946Z</time></trkpt><trkpt lat="43.9595396" lon="11.2413639"><ele>473.16666666666663</ele><time>2026-03-28T11:14:50.969Z</time></trkpt><trkpt lat="43.9596044" lon="11.2414666"><ele>473.3333333333333</ele><time>2026-03-28T11:14:52.975Z</time></trkpt><trkpt lat="43.9596416" lon="11.2415765"><ele>473.5</ele><time>2026-03-28T11:14:54.973Z</time></trkpt><trkpt lat="43.9596491" lon="11.24167"><ele>473.66666666666663</ele><time>2026-03-28T11:14:56.968Z</time></trkpt><trkpt lat="43.9596606" lon="11.2417773"><ele>473.8333333333333</ele><time>2026-03-28T11:14:58.961Z</time></trkpt><trkpt lat="43.9596748" lon="11.2418915"><ele>474.0</ele><time>2026-03-28T11:15:00.959Z</time></trkpt><trkpt lat="43.9596788" lon="11.2419851"><ele>473.99999999999994</ele><time>2026-03-28T11:15:02.964Z</time></trkpt><trkpt lat="43.9596852" lon="11.242093"><ele>474.0</ele><time>2026-03-28T11:15:05.952Z</time></trkpt><trkpt lat="43.9596931" lon="11.2421968"><ele>473.99999999999994</ele><time>2026-03-28T11:15:07.955Z</time></trkpt><trkpt lat="43.95969" lon="11.2423018"><ele>473.99999999999994</ele><time>2026-03-28T11:15:09.96Z</time></trkpt><trkpt lat="43.9596842" lon="11.2424033"><ele>474.0</ele><time>2026-03-28T11:15:11.959Z</time></trkpt><trkpt lat="43.9596825" lon="11.2425129"><ele>473.99999999999994</ele><time>2026-03-28T11:15:13.973Z</time></trkpt><trkpt lat="43.9596687" lon="11.2425993"><ele>473.99999999999994</ele><time>2026-03-28T11:15:15.96Z</time></trkpt><trkpt lat="43.9596489" lon="11.2427186"><ele>474.99999999999994</ele><time>2026-03-28T11:15:18.966Z</time></trkpt><trkpt lat="43.9596179" lon="11.2428285"><ele>476.0</ele><time>2026-03-28T11:15:21.965Z</time></trkpt><trkpt lat="43.9595904" lon="11.2429277"><ele>476.99999999999994</ele><time>2026-03-28T11:15:24.97Z</time></trkpt><trkpt lat="43.9595743" lon="11.2430144"><ele>477.99999999999994</ele><time>2026-03-28T11:15:28.959Z</time></trkpt><trkpt lat="43.9595304" lon="11.2430963"><ele>479.0</ele><time>2026-03-28T11:15:32.968Z</time></trkpt><trkpt lat="43.9594623" lon="11.2431221"><ele>479.99999999999994</ele><time>2026-03-28T11:15:34.965Z</time></trkpt><trkpt lat="43.9593884" lon="11.243151"><ele>480.99999999999994</ele><time>2026-03-28T11:15:36.961Z</time></trkpt><trkpt lat="43.9593139" lon="11.2431648"><ele>482.1666666666667</ele><time>2026-03-28T11:15:38.963Z</time></trkpt><trkpt lat="43.959233" lon="11.243188"><ele>483.33333333333337</ele><time>2026-03-28T11:15:40.967Z</time></trkpt><trkpt lat="43.9591643" lon="11.2432102"><ele>484.5</ele><time>2026-03-28T11:15:42.95Z</time></trkpt><trkpt lat="43.9590729" lon="11.2432348"><ele>485.66666666666663</ele><time>2026-03-28T11:15:45.963Z</time></trkpt><trkpt lat="43.9590106" lon="11.2432563"><ele>486.8333333333333</ele><time>2026-03-28T11:15:47.962Z</time></trkpt><trkpt lat="43.9589374" lon="11.2433337"><ele>488.0</ele><time>2026-03-28T11:15:50.957Z</time></trkpt><trkpt lat="43.958876" lon="11.2434322"><ele>488.66666666666663</ele><time>2026-03-28T11:15:53.967Z</time></trkpt><trkpt lat="43.958821" lon="11.2435383"><ele>489.3333333333333</ele><time>2026-03-28T11:15:56.971Z</time></trkpt><trkpt lat="43.9587737" lon="11.2436476"><ele>490.0</ele><time>2026-03-28T11:15:59.959Z</time></trkpt><trkpt lat="43.9587399" lon="11.2437224"><ele>490.66666666666663</ele><time>2026-03-28T11:16:01.96Z</time></trkpt><trkpt lat="43.9586888" lon="11.2437753"><ele>491.3333333333333</ele><time>2026-03-28T11:16:03.954Z</time></trkpt><trkpt lat="43.9586293" lon="11.2438259"><ele>492.0</ele><time>2026-03-28T11:16:06.974Z</time></trkpt><trkpt lat="43.9585637" lon="11.2439026"><ele>492.1666666666667</ele><time>2026-03-28T11:16:10.964Z</time></trkpt><trkpt lat="43.9585056" lon="11.2439767"><ele>492.33333333333337</ele><time>2026-03-28T11:16:13.964Z</time></trkpt><trkpt lat="43.9584354" lon="11.24404"><ele>492.5</ele><time>2026-03-28T11:16:16.968Z</time></trkpt><trkpt lat="43.9583715" lon="11.2440806"><ele>492.6666666666667</ele><time>2026-03-28T11:16:18.967Z</time></trkpt><trkpt lat="43.9582716" lon="11.2441419"><ele>492.83333333333337</ele><time>2026-03-28T11:16:20.968Z</time></trkpt><trkpt lat="43.9581915" lon="11.2441902"><ele>493.0</ele><time>2026-03-28T11:16:22.967Z</time></trkpt><trkpt lat="43.9581222" lon="11.244217"><ele>493.00000000000006</ele><time>2026-03-28T11:16:24.961Z</time></trkpt><trkpt lat="43.9580463" lon="11.2442107"><ele>493.0</ele><time>2026-03-28T11:16:26.967Z</time></trkpt><trkpt lat="43.9579766" lon="11.2441614"><ele>493.0</ele><time>2026-03-28T11:16:28.976Z</time></trkpt><trkpt lat="43.9579195" lon="11.2441058"><ele>493.0</ele><time>2026-03-28T11:16:31.964Z</time></trkpt><trkpt lat="43.9578593" lon="11.2440753"><ele>493.00000000000006</ele><time>2026-03-28T11:16:34.959Z</time></trkpt><trkpt lat="43.9577902" lon="11.2439887"><ele>493.0</ele><time>2026-03-28T11:16:41.969Z</time></trkpt><trkpt lat="43.9577374" lon="11.2439198"><ele>492.33333333333337</ele><time>2026-03-28T11:16:44.958Z</time></trkpt><trkpt lat="43.9576738" lon="11.2438449"><ele>491.6666666666667</ele><time>2026-03-28T11:16:47.975Z</time></trkpt><trkpt lat="43.9576106" lon="11.2437515"><ele>491.0</ele><time>2026-03-28T11:16:50.948Z</time></trkpt><trkpt lat="43.9575439" lon="11.2436764"><ele>490.33333333333337</ele><time>2026-03-28T11:16:53.966Z</time></trkpt><trkpt lat="43.9574962" lon="11.2436147"><ele>489.6666666666667</ele><time>2026-03-28T11:16:56.97Z</time></trkpt><trkpt lat="43.9574319" lon="11.2435414"><ele>489.0</ele><time>2026-03-28T11:17:00.962Z</time></trkpt><trkpt lat="43.9573688" lon="11.2434673"><ele>490.5</ele><time>2026-03-28T11:17:04.961Z</time></trkpt><trkpt lat="43.9572974" lon="11.2433998"><ele>492.0</ele><time>2026-03-28T11:17:07.968Z</time></trkpt><trkpt lat="43.9572374" lon="11.2433392"><ele>493.5</ele><time>2026-03-28T11:17:10.952Z</time></trkpt><trkpt lat="43.9571639" lon="11.2433182"><ele>495.0</ele><time>2026-03-28T11:17:13.963Z</time></trkpt><trkpt lat="43.9570625" lon="11.2433097"><ele>496.5</ele><time>2026-03-28T11:17:16.972Z</time></trkpt><trkpt lat="43.9569891" lon="11.2433201"><ele>498.0</ele><time>2026-03-28T11:17:18.963Z</time></trkpt><trkpt lat="43.9569208" lon="11.2433402"><ele>498.0</ele><time>2026-03-28T11:17:20.949Z</time></trkpt><trkpt lat="43.9568512" lon="11.2433626"><ele>498.0</ele><time>2026-03-28T11:17:22.881Z</time></trkpt><trkpt lat="43.9567851" lon="11.2433869"><ele>498.0</ele><time>2026-03-28T11:17:24.821Z</time></trkpt><trkpt lat="43.9567186" lon="11.2434156"><ele>498.0</ele><time>2026-03-28T11:17:26.797Z</time></trkpt><trkpt lat="43.9566366" lon="11.2434829"><ele>498.0</ele><time>2026-03-28T11:17:29.913Z</time></trkpt><trkpt lat="43.9565754" lon="11.2435348"><ele>498.0</ele><time>2026-03-28T11:17:31.727Z</time></trkpt><trkpt lat="43.9564919" lon="11.243593"><ele>499.1666666666667</ele><time>2026-03-28T11:17:34.547Z</time></trkpt><trkpt lat="43.9564271" lon="11.2436278"><ele>500.33333333333337</ele><time>2026-03-28T11:17:36.555Z</time></trkpt><trkpt lat="43.9563417" lon="11.2436776"><ele>501.5</ele><time>2026-03-28T11:17:40.051Z</time></trkpt><trkpt lat="43.9562543" lon="11.2437332"><ele>502.6666666666667</ele><time>2026-03-28T11:17:42.954Z</time></trkpt><trkpt lat="43.956178" lon="11.2437497"><ele>503.83333333333337</ele><time>2026-03-28T11:17:44.96Z</time></trkpt><trkpt lat="43.956105" lon="11.2437684"><ele>505.0</ele><time>2026-03-28T11:17:46.988Z</time></trkpt><trkpt lat="43.9560366" lon="11.243789"><ele>505.00000000000006</ele><time>2026-03-28T11:17:48.839Z</time></trkpt><trkpt lat="43.955968" lon="11.2438068"><ele>505.0</ele><time>2026-03-28T11:17:50.876Z</time></trkpt><trkpt lat="43.9559007" lon="11.2438495"><ele>505.0</ele><time>2026-03-28T11:17:52.841Z</time></trkpt><trkpt lat="43.9558408" lon="11.2439426"><ele>505.0</ele><time>2026-03-28T11:17:54.838Z</time></trkpt><trkpt lat="43.9557897" lon="11.2440366"><ele>505.00000000000006</ele><time>2026-03-28T11:17:56.845Z</time></trkpt><trkpt lat="43.9557262" lon="11.2441272"><ele>505.0</ele><time>2026-03-28T11:17:58.834Z</time></trkpt><trkpt lat="43.9556666" lon="11.2442225"><ele>507.33333333333337</ele><time>2026-03-28T11:18:00.839Z</time></trkpt><trkpt lat="43.9555959" lon="11.2443311"><ele>509.6666666666667</ele><time>2026-03-28T11:18:02.842Z</time></trkpt><trkpt lat="43.9555259" lon="11.2444265"><ele>512.0</ele><time>2026-03-28T11:18:04.824Z</time></trkpt><trkpt lat="43.9554715" lon="11.2444736"><ele>514.3333333333334</ele><time>2026-03-28T11:18:06.844Z</time></trkpt><trkpt lat="43.9553853" lon="11.244471"><ele>516.6666666666666</ele><time>2026-03-28T11:18:09.966Z</time></trkpt><trkpt lat="43.9553072" lon="11.2444553"><ele>519.0</ele><time>2026-03-28T11:18:12.974Z</time></trkpt><trkpt lat="43.9552452" lon="11.2444719"><ele>519.0</ele><time>2026-03-28T11:18:14.971Z</time></trkpt><trkpt lat="43.9551699" lon="11.2445094"><ele>519.0</ele><time>2026-03-28T11:18:16.967Z</time></trkpt><trkpt lat="43.9550745" lon="11.2445777"><ele>519.0</ele><time>2026-03-28T11:18:18.955Z</time></trkpt><trkpt lat="43.9550097" lon="11.2446245"><ele>519.0</ele><time>2026-03-28T11:18:21.008Z</time></trkpt><trkpt lat="43.9549557" lon="11.2446715"><ele>519.0</ele><time>2026-03-28T11:18:22.973Z</time></trkpt><trkpt lat="43.9548938" lon="11.2447435"><ele>519.0</ele><time>2026-03-28T11:18:24.971Z</time></trkpt><trkpt lat="43.9548309" lon="11.2448217"><ele>519.25</ele><time>2026-03-28T11:18:26.961Z</time></trkpt><trkpt lat="43.9547502" lon="11.2449094"><ele>519.5</ele><time>2026-03-28T11:18:28.965Z</time></trkpt><trkpt lat="43.9546534" lon="11.2450068"><ele>519.75</ele><time>2026-03-28T11:18:30.971Z</time></trkpt><trkpt lat="43.9545582" lon="11.2451169"><ele>520.0</ele><time>2026-03-28T11:18:32.96Z</time></trkpt><trkpt lat="43.9544701" lon="11.2452143"><ele>520.0</ele><time>2026-03-28T11:18:34.965Z</time></trkpt><trkpt lat="43.9543831" lon="11.2453055"><ele>520.0</ele><time>2026-03-28T11:18:37.024Z</time></trkpt><trkpt lat="43.9543321" lon="11.2453757"><ele>520.0</ele><time>2026-03-28T11:18:38.964Z</time></trkpt><trkpt lat="43.9542871" lon="11.2454586"><ele>520.0</ele><time>2026-03-28T11:18:42.672Z</time></trkpt><trkpt lat="43.9542249" lon="11.2454859"><ele>520.0</ele><time>2026-03-28T11:18:46.595Z</time></trkpt><trkpt lat="43.9541532" lon="11.2455377"><ele>520.0</ele><time>2026-03-28T11:18:48.61Z</time></trkpt><trkpt lat="43.9540558" lon="11.2455954"><ele>519.3333333333334</ele><time>2026-03-28T11:18:51.031Z</time></trkpt><trkpt lat="43.9539753" lon="11.2456692"><ele>518.6666666666667</ele><time>2026-03-28T11:18:53.957Z</time></trkpt><trkpt lat="43.9539075" lon="11.2457291"><ele>518.0</ele><time>2026-03-28T11:18:55.961Z</time></trkpt><trkpt lat="43.9538526" lon="11.2457937"><ele>517.3333333333334</ele><time>2026-03-28T11:18:57.957Z</time></trkpt><trkpt lat="43.9537957" lon="11.2458599"><ele>516.6666666666666</ele><time>2026-03-28T11:18:59.96Z</time></trkpt><trkpt lat="43.9537424" lon="11.2459326"><ele>516.0</ele><time>2026-03-28T11:19:02.046Z</time></trkpt><trkpt lat="43.9536841" lon="11.2460222"><ele>516.0</ele><time>2026-03-28T11:19:04.955Z</time></trkpt><trkpt lat="43.9536234" lon="11.2461204"><ele>516.0</ele><time>2026-03-28T11:19:07.96Z</time></trkpt><trkpt lat="43.9535714" lon="11.2462"><ele>516.0</ele><time>2026-03-28T11:19:09.968Z</time></trkpt><trkpt lat="43.9535192" lon="11.2462875"><ele>516.0</ele><time>2026-03-28T11:19:12.04Z</time></trkpt><trkpt lat="43.9534809" lon="11.2463611"><ele>516.0</ele><time>2026-03-28T11:19:13.961Z</time></trkpt><trkpt lat="43.9534347" lon="11.2464547"><ele>516.0</ele><time>2026-03-28T11:19:16.95Z</time></trkpt><trkpt lat="43.953415" lon="11.2465519"><ele>515.8333333333334</ele><time>2026-03-28T11:19:19.958Z</time></trkpt><trkpt lat="43.9533571" lon="11.2466328"><ele>515.6666666666666</ele><time>2026-03-28T11:19:23.035Z</time></trkpt><trkpt lat="43.9532751" lon="11.2466182"><ele>515.5</ele><time>2026-03-28T11:19:25.963Z</time></trkpt><trkpt lat="43.9532112" lon="11.2466032"><ele>515.3333333333333</ele><time>2026-03-28T11:19:27.96Z</time></trkpt><trkpt lat="43.9531389" lon="11.2466041"><ele>515.1666666666666</ele><time>2026-03-28T11:19:29.968Z</time></trkpt><trkpt lat="43.9530671" lon="11.246577"><ele>515.0</ele><time>2026-03-28T11:19:32.946Z</time></trkpt><trkpt lat="43.9530007" lon="11.2465021"><ele>513.4285714285714</ele><time>2026-03-28T11:19:35.952Z</time></trkpt><trkpt lat="43.9529506" lon="11.2464486"><ele>511.85714285714283</ele><time>2026-03-28T11:19:37.951Z</time></trkpt><trkpt lat="43.9528935" lon="11.2463961"><ele>510.2857142857143</ele><time>2026-03-28T11:19:39.957Z</time></trkpt><trkpt lat="43.9528197" lon="11.2463271"><ele>508.7142857142857</ele><time>2026-03-28T11:19:42.956Z</time></trkpt><trkpt lat="43.9527424" lon="11.246283"><ele>507.1428571428571</ele><time>2026-03-28T11:19:45.959Z</time></trkpt><trkpt lat="43.9526833" lon="11.2462504"><ele>505.57142857142856</ele><time>2026-03-28T11:19:47.97Z</time></trkpt><trkpt lat="43.9526123" lon="11.2462065"><ele>504.0</ele><time>2026-03-28T11:19:49.961Z</time></trkpt><trkpt lat="43.9525472" lon="11.2461994"><ele>505.3333333333333</ele><time>2026-03-28T11:19:51.954Z</time></trkpt><trkpt lat="43.9524563" lon="11.2461937"><ele>506.66666666666663</ele><time>2026-03-28T11:19:54.943Z</time></trkpt><trkpt lat="43.9523927" lon="11.2461945"><ele>508.0</ele><time>2026-03-28T11:19:56.966Z</time></trkpt><trkpt lat="43.9523098" lon="11.2462084"><ele>509.3333333333333</ele><time>2026-03-28T11:19:59.959Z</time></trkpt><trkpt lat="43.9522238" lon="11.2462188"><ele>510.66666666666663</ele><time>2026-03-28T11:20:02.958Z</time></trkpt><trkpt lat="43.9521466" lon="11.2462355"><ele>512.0</ele><time>2026-03-28T11:20:05.954Z</time></trkpt><trkpt lat="43.9520861" lon="11.2462618"><ele>512.0</ele><time>2026-03-28T11:20:08.962Z</time></trkpt><trkpt lat="43.9520225" lon="11.2462791"><ele>511.99999999999994</ele><time>2026-03-28T11:20:11.949Z</time></trkpt><trkpt lat="43.9519601" lon="11.246315"><ele>512.0</ele><time>2026-03-28T11:20:14.958Z</time></trkpt><trkpt lat="43.9518765" lon="11.2463497"><ele>512.0</ele><time>2026-03-28T11:20:18.962Z</time></trkpt><trkpt lat="43.9518101" lon="11.2463702"><ele>511.99999999999994</ele><time>2026-03-28T11:20:20.962Z</time></trkpt><trkpt lat="43.9517387" lon="11.2463784"><ele>512.0</ele><time>2026-03-28T11:20:23.027Z</time></trkpt><trkpt lat="43.9516566" lon="11.2463773"><ele>512.0</ele><time>2026-03-28T11:20:24.962Z</time></trkpt><trkpt lat="43.9515848" lon="11.246353"><ele>513.3333333333333</ele><time>2026-03-28T11:20:26.963Z</time></trkpt><trkpt lat="43.9515008" lon="11.2463209"><ele>514.6666666666666</ele><time>2026-03-28T11:20:28.957Z</time></trkpt><trkpt lat="43.9514042" lon="11.2463081"><ele>516.0</ele><time>2026-03-28T11:20:31.039Z</time></trkpt><trkpt lat="43.951317" lon="11.2462875"><ele>517.3333333333334</ele><time>2026-03-28T11:20:32.959Z</time></trkpt><trkpt lat="43.9512215" lon="11.2462701"><ele>518.6666666666667</ele><time>2026-03-28T11:20:34.963Z</time></trkpt><trkpt lat="43.9511532" lon="11.2462527"><ele>520.0</ele><time>2026-03-28T11:20:36.959Z</time></trkpt><trkpt lat="43.9510655" lon="11.2462334"><ele>520.0000000000001</ele><time>2026-03-28T11:20:39.975Z</time></trkpt><trkpt lat="43.95099" lon="11.2461958"><ele>520.0</ele><time>2026-03-28T11:20:42.949Z</time></trkpt><trkpt lat="43.9509287" lon="11.2461503"><ele>520.0</ele><time>2026-03-28T11:20:45.951Z</time></trkpt><trkpt lat="43.9508632" lon="11.2460951"><ele>520.0</ele><time>2026-03-28T11:20:48.962Z</time></trkpt><trkpt lat="43.9508037" lon="11.2460289"><ele>520.0</ele><time>2026-03-28T11:20:51.969Z</time></trkpt><trkpt lat="43.9507576" lon="11.2459521"><ele>520.0000000000001</ele><time>2026-03-28T11:20:53.961Z</time></trkpt><trkpt lat="43.9507059" lon="11.2458787"><ele>520.0</ele><time>2026-03-28T11:20:55.96Z</time></trkpt><trkpt lat="43.950634" lon="11.2458169"><ele>520.8</ele><time>2026-03-28T11:20:58.037Z</time></trkpt><trkpt lat="43.9505542" lon="11.2457624"><ele>521.6</ele><time>2026-03-28T11:20:59.973Z</time></trkpt><trkpt lat="43.9504735" lon="11.2456844"><ele>522.4</ele><time>2026-03-28T11:21:01.964Z</time></trkpt><trkpt lat="43.9503967" lon="11.2455892"><ele>523.2</ele><time>2026-03-28T11:21:03.968Z</time></trkpt><trkpt lat="43.9503217" lon="11.2454971"><ele>524.0</ele><time>2026-03-28T11:21:05.954Z</time></trkpt><trkpt lat="43.9502327" lon="11.2454389"><ele>522.0</ele><time>2026-03-28T11:21:07.979Z</time></trkpt><trkpt lat="43.9501364" lon="11.2453708"><ele>520.0</ele><time>2026-03-28T11:21:10.028Z</time></trkpt><trkpt lat="43.9500358" lon="11.2453257"><ele>518.0</ele><time>2026-03-28T11:21:12.032Z</time></trkpt><trkpt lat="43.949934" lon="11.2452709"><ele>516.0</ele><time>2026-03-28T11:21:13.98Z</time></trkpt><trkpt lat="43.949875" lon="11.2452366"><ele>514.0</ele><time>2026-03-28T11:21:14.971Z</time></trkpt><trkpt lat="43.9497959" lon="11.2452127"><ele>514.0</ele><time>2026-03-28T11:21:16.963Z</time></trkpt><trkpt lat="43.9497224" lon="11.2451869"><ele>514.0</ele><time>2026-03-28T11:21:18.962Z</time></trkpt><trkpt lat="43.9496471" lon="11.24516"><ele>514.0</ele><time>2026-03-28T11:21:20.966Z</time></trkpt><trkpt lat="43.9495963" lon="11.2450816"><ele>514.0</ele><time>2026-03-28T11:21:22.958Z</time></trkpt><trkpt lat="43.9495539" lon="11.2450065"><ele>514.0</ele><time>2026-03-28T11:21:24.973Z</time></trkpt><trkpt lat="43.9494749" lon="11.2449227"><ele>514.0</ele><time>2026-03-28T11:21:26.971Z</time></trkpt><trkpt lat="43.9494078" lon="11.2448014"><ele>514.5</ele><time>2026-03-28T11:21:28.965Z</time></trkpt><trkpt lat="43.9493456" lon="11.2446575"><ele>515.0</ele><time>2026-03-28T11:21:30.968Z</time></trkpt><trkpt lat="43.9493224" lon="11.24457"><ele>515.5</ele><time>2026-03-28T11:21:31.971Z</time></trkpt><trkpt lat="43.9493005" lon="11.2444865"><ele>516.0</ele><time>2026-03-28T11:21:32.97Z</time></trkpt><trkpt lat="43.9492779" lon="11.2443949"><ele>516.5</ele><time>2026-03-28T11:21:33.97Z</time></trkpt><trkpt lat="43.9492449" lon="11.2443128"><ele>517.0</ele><time>2026-03-28T11:21:34.969Z</time></trkpt><trkpt lat="43.9491959" lon="11.2442494"><ele>517.0</ele><time>2026-03-28T11:21:35.962Z</time></trkpt><trkpt lat="43.9491388" lon="11.2442044"><ele>517.0</ele><time>2026-03-28T11:21:36.965Z</time></trkpt><trkpt lat="43.9490695" lon="11.2441431"><ele>517.0</ele><time>2026-03-28T11:21:37.968Z</time></trkpt><trkpt lat="43.9489978" lon="11.2440661"><ele>517.0</ele><time>2026-03-28T11:21:38.958Z</time></trkpt><trkpt lat="43.9489211" lon="11.2439984"><ele>517.0</ele><time>2026-03-28T11:21:39.947Z</time></trkpt><trkpt lat="43.9488513" lon="11.2439288"><ele>517.0</ele><time>2026-03-28T11:21:40.971Z</time></trkpt><trkpt lat="43.9487809" lon="11.2438605"><ele>517.6666666666667</ele><time>2026-03-28T11:21:41.951Z</time></trkpt><trkpt lat="43.9487114" lon="11.2438002"><ele>518.3333333333334</ele><time>2026-03-28T11:21:42.944Z</time></trkpt><trkpt lat="43.9486438" lon="11.24373"><ele>519.0</ele><time>2026-03-28T11:21:43.965Z</time></trkpt><trkpt lat="43.9485762" lon="11.2436775"><ele>519.6666666666666</ele><time>2026-03-28T11:21:44.97Z</time></trkpt><trkpt lat="43.9485155" lon="11.2436286"><ele>520.3333333333333</ele><time>2026-03-28T11:21:45.96Z</time></trkpt><trkpt lat="43.948428" lon="11.243571"><ele>521.0</ele><time>2026-03-28T11:21:47.972Z</time></trkpt><trkpt lat="43.9483393" lon="11.2435536"><ele>521.0</ele><time>2026-03-28T11:21:50.971Z</time></trkpt><trkpt lat="43.948252" lon="11.2435142"><ele>521.0</ele><time>2026-03-28T11:21:53.964Z</time></trkpt><trkpt lat="43.9481732" lon="11.2434675"><ele>521.0</ele><time>2026-03-28T11:21:56.971Z</time></trkpt><trkpt lat="43.9481082" lon="11.2434239"><ele>521.0</ele><time>2026-03-28T11:21:58.957Z</time></trkpt><trkpt lat="43.9480391" lon="11.2433806"><ele>521.0</ele><time>2026-03-28T11:22:00.968Z</time></trkpt><trkpt lat="43.9479813" lon="11.2433358"><ele>521.0</ele><time>2026-03-28T11:22:02.957Z</time></trkpt><trkpt lat="43.9479269" lon="11.2432832"><ele>521.0</ele><time>2026-03-28T11:22:04.968Z</time></trkpt><trkpt lat="43.9478684" lon="11.2432331"><ele>521.0</ele><time>2026-03-28T11:22:06.961Z</time></trkpt><trkpt lat="43.9478036" lon="11.2431666"><ele>521.0</ele><time>2026-03-28T11:22:08.959Z</time></trkpt><trkpt lat="43.9476986" lon="11.2430845"><ele>521.0</ele><time>2026-03-28T11:22:10.964Z</time></trkpt><trkpt lat="43.9476422" lon="11.2430341"><ele>521.0</ele><time>2026-03-28T11:22:11.958Z</time></trkpt><trkpt lat="43.9475899" lon="11.2429794"><ele>521.0</ele><time>2026-03-28T11:22:12.964Z</time></trkpt><trkpt lat="43.9475318" lon="11.2429282"><ele>518.8333333333333</ele><time>2026-03-28T11:22:13.971Z</time></trkpt><trkpt lat="43.94747" lon="11.2428762"><ele>516.6666666666666</ele><time>2026-03-28T11:22:14.969Z</time></trkpt><trkpt lat="43.9473967" lon="11.2428169"><ele>514.5</ele><time>2026-03-28T11:22:15.963Z</time></trkpt><trkpt lat="43.9473158" lon="11.2427593"><ele>512.3333333333334</ele><time>2026-03-28T11:22:16.965Z</time></trkpt><trkpt lat="43.9472408" lon="11.2427113"><ele>510.1666666666667</ele><time>2026-03-28T11:22:17.976Z</time></trkpt><trkpt lat="43.947161" lon="11.242659"><ele>508.0</ele><time>2026-03-28T11:22:18.971Z</time></trkpt><trkpt lat="43.9470805" lon="11.2426097"><ele>508.00000000000006</ele><time>2026-03-28T11:22:19.969Z</time></trkpt><trkpt lat="43.9470011" lon="11.2425571"><ele>508.0</ele><time>2026-03-28T11:22:21.029Z</time></trkpt><trkpt lat="43.9469153" lon="11.2425145"><ele>508.0</ele><time>2026-03-28T11:22:21.963Z</time></trkpt><trkpt lat="43.9468338" lon="11.2424829"><ele>508.0</ele><time>2026-03-28T11:22:22.966Z</time></trkpt><trkpt lat="43.9467518" lon="11.2424483"><ele>508.00000000000006</ele><time>2026-03-28T11:22:23.969Z</time></trkpt><trkpt lat="43.9466753" lon="11.2424217"><ele>508.0</ele><time>2026-03-28T11:22:24.964Z</time></trkpt><trkpt lat="43.9466088" lon="11.242396"><ele>507.33333333333337</ele><time>2026-03-28T11:22:25.967Z</time></trkpt><trkpt lat="43.9465572" lon="11.2423441"><ele>506.6666666666667</ele><time>2026-03-28T11:22:26.972Z</time></trkpt><trkpt lat="43.9465107" lon="11.242285"><ele>506.0</ele><time>2026-03-28T11:22:28.019Z</time></trkpt><trkpt lat="43.9464596" lon="11.2422125"><ele>505.33333333333337</ele><time>2026-03-28T11:22:28.971Z</time></trkpt><trkpt lat="43.9464149" lon="11.2421452"><ele>504.6666666666667</ele><time>2026-03-28T11:22:30.013Z</time></trkpt><trkpt lat="43.9463799" lon="11.242069"><ele>504.0</ele><time>2026-03-28T11:22:30.967Z</time></trkpt><trkpt lat="43.9463086" lon="11.2419317"><ele>504.0</ele><time>2026-03-28T11:22:32.962Z</time></trkpt><trkpt lat="43.9462422" lon="11.2418136"><ele>504.0</ele><time>2026-03-28T11:22:34.972Z</time></trkpt><trkpt lat="43.9461693" lon="11.2416981"><ele>504.0</ele><time>2026-03-28T11:22:36.955Z</time></trkpt><trkpt lat="43.9460973" lon="11.2415828"><ele>504.0</ele><time>2026-03-28T11:22:38.97Z</time></trkpt><trkpt lat="43.9460486" lon="11.2414605"><ele>504.0</ele><time>2026-03-28T11:22:40.978Z</time></trkpt><trkpt lat="43.9460384" lon="11.2413103"><ele>503.6</ele><time>2026-03-28T11:22:42.979Z</time></trkpt><trkpt lat="43.9460401" lon="11.2411616"><ele>503.2</ele><time>2026-03-28T11:22:45.037Z</time></trkpt><trkpt lat="43.9460288" lon="11.2410102"><ele>502.80000000000007</ele><time>2026-03-28T11:22:46.952Z</time></trkpt><trkpt lat="43.9460221" lon="11.2408699"><ele>502.40000000000003</ele><time>2026-03-28T11:22:48.962Z</time></trkpt><trkpt lat="43.9460041" lon="11.2407087"><ele>502.0</ele><time>2026-03-28T11:22:50.962Z</time></trkpt><trkpt lat="43.946016" lon="11.2405522"><ele>503.40000000000003</ele><time>2026-03-28T11:22:52.945Z</time></trkpt><trkpt lat="43.9460346" lon="11.240415"><ele>504.80000000000007</ele><time>2026-03-28T11:22:54.955Z</time></trkpt><trkpt lat="43.9460166" lon="11.2403037"><ele>506.2</ele><time>2026-03-28T11:22:57.03Z</time></trkpt><trkpt lat="43.9459665" lon="11.2402076"><ele>507.6</ele><time>2026-03-28T11:22:58.957Z</time></trkpt><trkpt lat="43.9458964" lon="11.2401237"><ele>509.0</ele><time>2026-03-28T11:23:00.964Z</time></trkpt><trkpt lat="43.9458043" lon="11.2400274"><ele>509.16666666666663</ele><time>2026-03-28T11:23:03.032Z</time></trkpt><trkpt lat="43.9457065" lon="11.2399121"><ele>509.3333333333333</ele><time>2026-03-28T11:23:04.965Z</time></trkpt><trkpt lat="43.9456521" lon="11.2398478"><ele>509.5</ele><time>2026-03-28T11:23:05.959Z</time></trkpt><trkpt lat="43.9455977" lon="11.2397828"><ele>509.66666666666663</ele><time>2026-03-28T11:23:06.97Z</time></trkpt><trkpt lat="43.9455456" lon="11.2397178"><ele>509.8333333333333</ele><time>2026-03-28T11:23:07.968Z</time></trkpt><trkpt lat="43.9455003" lon="11.2396482"><ele>510.0</ele><time>2026-03-28T11:23:08.962Z</time></trkpt><trkpt lat="43.9454504" lon="11.2395829"><ele>510.0</ele><time>2026-03-28T11:23:09.997Z</time></trkpt><trkpt lat="43.9454016" lon="11.2395209"><ele>510.0</ele><time>2026-03-28T11:23:11.003Z</time></trkpt><trkpt lat="43.945353" lon="11.2394577"><ele>510.0</ele><time>2026-03-28T11:23:11.968Z</time></trkpt><trkpt lat="43.9452623" lon="11.2393375"><ele>510.0</ele><time>2026-03-28T11:23:13.952Z</time></trkpt><trkpt lat="43.9452126" lon="11.2392789"><ele>510.0</ele><time>2026-03-28T11:23:14.971Z</time></trkpt><trkpt lat="43.9451496" lon="11.2392211"><ele>510.0</ele><time>2026-03-28T11:23:15.96Z</time></trkpt><trkpt lat="43.9450886" lon="11.239158"><ele>510.0</ele><time>2026-03-28T11:23:16.942Z</time></trkpt><trkpt lat="43.945021" lon="11.2390911"><ele>510.0</ele><time>2026-03-28T11:23:17.952Z</time></trkpt><trkpt lat="43.9449557" lon="11.2390215"><ele>510.0</ele><time>2026-03-28T11:23:18.963Z</time></trkpt><trkpt lat="43.9448932" lon="11.2389563"><ele>510.0</ele><time>2026-03-28T11:23:19.944Z</time></trkpt><trkpt lat="43.944835" lon="11.2388834"><ele>510.0</ele><time>2026-03-28T11:23:20.965Z</time></trkpt><trkpt lat="43.9447829" lon="11.2388101"><ele>510.0</ele><time>2026-03-28T11:23:21.962Z</time></trkpt><trkpt lat="43.9447293" lon="11.2387452"><ele>509.0</ele><time>2026-03-28T11:23:22.969Z</time></trkpt><trkpt lat="43.9446176" lon="11.2386387"><ele>508.0</ele><time>2026-03-28T11:23:24.971Z</time></trkpt><trkpt lat="43.9445649" lon="11.2385825"><ele>507.0</ele><time>2026-03-28T11:23:25.97Z</time></trkpt><trkpt lat="43.9444817" lon="11.2384683"><ele>506.0</ele><time>2026-03-28T11:23:28.042Z</time></trkpt><trkpt lat="43.9444231" lon="11.2383248"><ele>505.0</ele><time>2026-03-28T11:23:29.954Z</time></trkpt><trkpt lat="43.9443728" lon="11.2381694"><ele>504.8</ele><time>2026-03-28T11:23:31.967Z</time></trkpt><trkpt lat="43.9443297" lon="11.2380086"><ele>504.6</ele><time>2026-03-28T11:23:33.966Z</time></trkpt><trkpt lat="43.9442723" lon="11.2378638"><ele>504.4</ele><time>2026-03-28T11:23:36.007Z</time></trkpt><trkpt lat="43.9441858" lon="11.2377494"><ele>504.2</ele><time>2026-03-28T11:23:38.018Z</time></trkpt><trkpt lat="43.9441293" lon="11.2377031"><ele>504.0</ele><time>2026-03-28T11:23:38.956Z</time></trkpt><trkpt lat="43.944068" lon="11.2376815"><ele>504.0</ele><time>2026-03-28T11:23:39.966Z</time></trkpt><trkpt lat="43.9439604" lon="11.2376198"><ele>504.0</ele><time>2026-03-28T11:23:41.964Z</time></trkpt><trkpt lat="43.9438743" lon="11.2375654"><ele>504.0</ele><time>2026-03-28T11:23:43.964Z</time></trkpt><trkpt lat="43.9437818" lon="11.2375053"><ele>504.0</ele><time>2026-03-28T11:23:45.952Z</time></trkpt><trkpt lat="43.9436927" lon="11.2374372"><ele>504.0</ele><time>2026-03-28T11:23:47.962Z</time></trkpt><trkpt lat="43.94362" lon="11.2373393"><ele>502.0</ele><time>2026-03-28T11:23:49.964Z</time></trkpt><trkpt lat="43.9435831" lon="11.2372123"><ele>500.0</ele><time>2026-03-28T11:23:51.951Z</time></trkpt><trkpt lat="43.9435513" lon="11.237078"><ele>498.0</ele><time>2026-03-28T11:23:53.97Z</time></trkpt><trkpt lat="43.9435255" lon="11.236993"><ele>496.0</ele><time>2026-03-28T11:23:54.971Z</time></trkpt><trkpt lat="43.9435007" lon="11.2369042"><ele>494.0</ele><time>2026-03-28T11:23:55.963Z</time></trkpt><trkpt lat="43.9434711" lon="11.2368236"><ele>492.0</ele><time>2026-03-28T11:23:56.963Z</time></trkpt><trkpt lat="43.9434352" lon="11.2367402"><ele>492.00000000000006</ele><time>2026-03-28T11:23:57.967Z</time></trkpt><trkpt lat="43.9433903" lon="11.2366587"><ele>492.0</ele><time>2026-03-28T11:23:58.968Z</time></trkpt><trkpt lat="43.9433487" lon="11.2365853"><ele>492.00000000000006</ele><time>2026-03-28T11:23:59.975Z</time></trkpt><trkpt lat="43.9433089" lon="11.2365046"><ele>492.00000000000006</ele><time>2026-03-28T11:24:00.975Z</time></trkpt><trkpt lat="43.9432771" lon="11.2364135"><ele>492.0</ele><time>2026-03-28T11:24:02.037Z</time></trkpt><trkpt lat="43.9432442" lon="11.2363165"><ele>492.00000000000006</ele><time>2026-03-28T11:24:02.97Z</time></trkpt><trkpt lat="43.9432167" lon="11.2362261"><ele>492.00000000000006</ele><time>2026-03-28T11:24:03.972Z</time></trkpt><trkpt lat="43.943196" lon="11.2361336"><ele>492.3333333333333</ele><time>2026-03-28T11:24:04.969Z</time></trkpt><trkpt lat="43.9431722" lon="11.2360378"><ele>492.66666666666663</ele><time>2026-03-28T11:24:05.967Z</time></trkpt><trkpt lat="43.9431449" lon="11.2359411"><ele>493.0</ele><time>2026-03-28T11:24:07.027Z</time></trkpt><trkpt lat="43.9431195" lon="11.2358565"><ele>493.3333333333333</ele><time>2026-03-28T11:24:08.03Z</time></trkpt><trkpt lat="43.9430938" lon="11.2356908"><ele>493.66666666666663</ele><time>2026-03-28T11:24:09.987Z</time></trkpt><trkpt lat="43.9430783" lon="11.2355981"><ele>494.0</ele><time>2026-03-28T11:24:10.972Z</time></trkpt><trkpt lat="43.9430607" lon="11.2354989"><ele>493.0</ele><time>2026-03-28T11:24:11.971Z</time></trkpt><trkpt lat="43.9430465" lon="11.2354017"><ele>492.0</ele><time>2026-03-28T11:24:12.98Z</time></trkpt><trkpt lat="43.943035" lon="11.235307"><ele>491.0</ele><time>2026-03-28T11:24:13.976Z</time></trkpt><trkpt lat="43.9430233" lon="11.2352115"><ele>490.0</ele><time>2026-03-28T11:24:14.975Z</time></trkpt><trkpt lat="43.9430073" lon="11.2351178"><ele>489.0</ele><time>2026-03-28T11:24:16.037Z</time></trkpt><trkpt lat="43.9429955" lon="11.235028"><ele>488.0</ele><time>2026-03-28T11:24:17.021Z</time></trkpt><trkpt lat="43.9429879" lon="11.2349393"><ele>487.0</ele><time>2026-03-28T11:24:17.966Z</time></trkpt><trkpt lat="43.9429688" lon="11.2348029"><ele>487.0</ele><time>2026-03-28T11:24:19.97Z</time></trkpt><trkpt lat="43.9429473" lon="11.2346868"><ele>487.00000000000006</ele><time>2026-03-28T11:24:21.965Z</time></trkpt><trkpt lat="43.9428845" lon="11.2346594"><ele>487.00000000000006</ele><time>2026-03-28T11:24:24.965Z</time></trkpt><trkpt lat="43.9428461" lon="11.2347643"><ele>487.0</ele><time>2026-03-28T11:24:27.032Z</time></trkpt><trkpt lat="43.9428022" lon="11.234887"><ele>487.0</ele><time>2026-03-28T11:24:28.974Z</time></trkpt><trkpt lat="43.9427432" lon="11.2350325"><ele>487.00000000000006</ele><time>2026-03-28T11:24:31.013Z</time></trkpt><trkpt lat="43.9427049" lon="11.2351169"><ele>487.0</ele><time>2026-03-28T11:24:32.029Z</time></trkpt><trkpt lat="43.9426698" lon="11.235209"><ele>487.0</ele><time>2026-03-28T11:24:33.032Z</time></trkpt><trkpt lat="43.9426353" lon="11.2353079"><ele>487.0</ele><time>2026-03-28T11:24:33.968Z</time></trkpt><trkpt lat="43.9425979" lon="11.2354217"><ele>487.00000000000006</ele><time>2026-03-28T11:24:34.972Z</time></trkpt><trkpt lat="43.9425582" lon="11.2355409"><ele>487.0</ele><time>2026-03-28T11:24:35.971Z</time></trkpt><trkpt lat="43.9425186" lon="11.2356669"><ele>488.20000000000005</ele><time>2026-03-28T11:24:37.026Z</time></trkpt><trkpt lat="43.9424743" lon="11.2357967"><ele>489.40000000000003</ele><time>2026-03-28T11:24:38.034Z</time></trkpt><trkpt lat="43.9424145" lon="11.2359099"><ele>490.59999999999997</ele><time>2026-03-28T11:24:38.972Z</time></trkpt><trkpt lat="43.9423496" lon="11.2360208"><ele>491.79999999999995</ele><time>2026-03-28T11:24:39.968Z</time></trkpt><trkpt lat="43.9422911" lon="11.2361419"><ele>493.0</ele><time>2026-03-28T11:24:40.962Z</time></trkpt><trkpt lat="43.9422355" lon="11.2362643"><ele>493.0</ele><time>2026-03-28T11:24:42.041Z</time></trkpt><trkpt lat="43.9421804" lon="11.2363634"><ele>492.99999999999994</ele><time>2026-03-28T11:24:42.958Z</time></trkpt><trkpt lat="43.9421229" lon="11.236466"><ele>492.99999999999994</ele><time>2026-03-28T11:24:43.954Z</time></trkpt><trkpt lat="43.9420553" lon="11.2365729"><ele>493.0</ele><time>2026-03-28T11:24:44.966Z</time></trkpt><trkpt lat="43.9419936" lon="11.2366786"><ele>493.0</ele><time>2026-03-28T11:24:45.967Z</time></trkpt><trkpt lat="43.9419413" lon="11.2367925"><ele>495.79999999999995</ele><time>2026-03-28T11:24:47.03Z</time></trkpt><trkpt lat="43.9419004" lon="11.236929"><ele>498.59999999999997</ele><time>2026-03-28T11:24:47.968Z</time></trkpt><trkpt lat="43.9418615" lon="11.2370659"><ele>501.40000000000003</ele><time>2026-03-28T11:24:48.979Z</time></trkpt><trkpt lat="43.9418277" lon="11.237193"><ele>504.20000000000005</ele><time>2026-03-28T11:24:49.973Z</time></trkpt><trkpt lat="43.9417911" lon="11.2372991"><ele>507.0</ele><time>2026-03-28T11:24:50.978Z</time></trkpt><trkpt lat="43.9417395" lon="11.2373849"><ele>507.0</ele><time>2026-03-28T11:24:51.97Z</time></trkpt><trkpt lat="43.9416743" lon="11.2374272"><ele>507.0</ele><time>2026-03-28T11:24:53.017Z</time></trkpt><trkpt lat="43.9416024" lon="11.2374409"><ele>507.0</ele><time>2026-03-28T11:24:53.967Z</time></trkpt><trkpt lat="43.9415387" lon="11.2374187"><ele>507.0</ele><time>2026-03-28T11:24:54.977Z</time></trkpt><trkpt lat="43.941482" lon="11.2373752"><ele>507.0</ele><time>2026-03-28T11:24:55.968Z</time></trkpt><trkpt lat="43.9413795" lon="11.237331"><ele>507.0</ele><time>2026-03-28T11:24:57.965Z</time></trkpt><trkpt lat="43.9412725" lon="11.2373707"><ele>507.0</ele><time>2026-03-28T11:24:59.966Z</time></trkpt><trkpt lat="43.9411871" lon="11.2374323"><ele>507.0</ele><time>2026-03-28T11:25:01.973Z</time></trkpt><trkpt lat="43.9411272" lon="11.2374934"><ele>507.0</ele><time>2026-03-28T11:25:03.969Z</time></trkpt><trkpt lat="43.9410643" lon="11.2375031"><ele>507.0</ele><time>2026-03-28T11:25:05.967Z</time></trkpt><trkpt lat="43.9409982" lon="11.2375204"><ele>507.0</ele><time>2026-03-28T11:25:29.971Z</time></trkpt><trkpt lat="43.9409351" lon="11.2375416"><ele>507.0</ele><time>2026-03-28T11:25:31.968Z</time></trkpt><trkpt lat="43.9408535" lon="11.2375593"><ele>507.0</ele><time>2026-03-28T11:25:33.957Z</time></trkpt><trkpt lat="43.9407451" lon="11.2375731"><ele>507.8</ele><time>2026-03-28T11:25:35.968Z</time></trkpt><trkpt lat="43.9406379" lon="11.2376026"><ele>508.6</ele><time>2026-03-28T11:25:37.963Z</time></trkpt><trkpt lat="43.9405258" lon="11.2376487"><ele>509.40000000000003</ele><time>2026-03-28T11:25:40.014Z</time></trkpt><trkpt lat="43.9404131" lon="11.2377197"><ele>510.20000000000005</ele><time>2026-03-28T11:25:41.968Z</time></trkpt><trkpt lat="43.9403606" lon="11.2377685"><ele>511.0</ele><time>2026-03-28T11:25:42.982Z</time></trkpt><trkpt lat="43.9403057" lon="11.2378238"><ele>511.0</ele><time>2026-03-28T11:25:43.975Z</time></trkpt><trkpt lat="43.9402564" lon="11.2378887"><ele>511.0</ele><time>2026-03-28T11:25:44.982Z</time></trkpt><trkpt lat="43.9401863" lon="11.2380134"><ele>511.0</ele><time>2026-03-28T11:25:46.98Z</time></trkpt><trkpt lat="43.9401321" lon="11.2381265"><ele>511.0</ele><time>2026-03-28T11:25:48.962Z</time></trkpt><trkpt lat="43.9400846" lon="11.2382327"><ele>511.0</ele><time>2026-03-28T11:25:50.969Z</time></trkpt><trkpt lat="43.9400375" lon="11.2383337"><ele>510.4</ele><time>2026-03-28T11:25:53.028Z</time></trkpt><trkpt lat="43.9399736" lon="11.2384471"><ele>509.8</ele><time>2026-03-28T11:25:54.967Z</time></trkpt><trkpt lat="43.9399012" lon="11.2385577"><ele>509.19999999999993</ele><time>2026-03-28T11:25:56.974Z</time></trkpt><trkpt lat="43.9398323" lon="11.2386679"><ele>508.59999999999997</ele><time>2026-03-28T11:25:58.966Z</time></trkpt><trkpt lat="43.9397563" lon="11.2387956"><ele>508.0</ele><time>2026-03-28T11:26:00.959Z</time></trkpt><trkpt lat="43.9396831" lon="11.2388814"><ele>508.00000000000006</ele><time>2026-03-28T11:26:02.967Z</time></trkpt><trkpt lat="43.9396173" lon="11.2389439"><ele>508.0</ele><time>2026-03-28T11:26:04.965Z</time></trkpt><trkpt lat="43.9395294" lon="11.2389489"><ele>508.0</ele><time>2026-03-28T11:26:06.961Z</time></trkpt><trkpt lat="43.9394514" lon="11.2389052"><ele>508.0</ele><time>2026-03-28T11:26:08.958Z</time></trkpt><trkpt lat="43.9393797" lon="11.2388441"><ele>508.00000000000006</ele><time>2026-03-28T11:26:10.96Z</time></trkpt><trkpt lat="43.9393094" lon="11.2387837"><ele>508.0</ele><time>2026-03-28T11:26:12.967Z</time></trkpt><trkpt lat="43.9392157" lon="11.2387005"><ele>506.0</ele><time>2026-03-28T11:26:14.968Z</time></trkpt><trkpt lat="43.9391248" lon="11.238602"><ele>503.99999999999994</ele><time>2026-03-28T11:26:16.967Z</time></trkpt><trkpt lat="43.9390371" lon="11.2384841"><ele>501.99999999999994</ele><time>2026-03-28T11:26:18.969Z</time></trkpt><trkpt lat="43.9389439" lon="11.2383681"><ele>500.0</ele><time>2026-03-28T11:26:20.97Z</time></trkpt><trkpt lat="43.9388999" lon="11.2383055"><ele>498.0</ele><time>2026-03-28T11:26:21.96Z</time></trkpt><trkpt lat="43.9388242" lon="11.2381847"><ele>500.0</ele><time>2026-03-28T11:26:23.969Z</time></trkpt><trkpt lat="43.9387563" lon="11.2380665"><ele>502.0</ele><time>2026-03-28T11:26:25.965Z</time></trkpt><trkpt lat="43.9386915" lon="11.2379419"><ele>504.0</ele><time>2026-03-28T11:26:27.968Z</time></trkpt><trkpt lat="43.9386257" lon="11.2377996"><ele>506.0</ele><time>2026-03-28T11:26:29.961Z</time></trkpt><trkpt lat="43.9385914" lon="11.2376463"><ele>506.0</ele><time>2026-03-28T11:26:32.039Z</time></trkpt><trkpt lat="43.9385508" lon="11.2375442"><ele>506.0</ele><time>2026-03-28T11:26:33.963Z</time></trkpt><trkpt lat="43.9384726" lon="11.2375302"><ele>506.0</ele><time>2026-03-28T11:26:35.963Z</time></trkpt><trkpt lat="43.9383866" lon="11.2375647"><ele>506.0</ele><time>2026-03-28T11:26:38.033Z</time></trkpt><trkpt lat="43.9382899" lon="11.2376369"><ele>506.0</ele><time>2026-03-28T11:26:39.964Z</time></trkpt><trkpt lat="43.9382134" lon="11.2377436"><ele>502.8</ele><time>2026-03-28T11:26:41.958Z</time></trkpt><trkpt lat="43.9381388" lon="11.2378073"><ele>499.6</ele><time>2026-03-28T11:26:43.967Z</time></trkpt><trkpt lat="43.9380381" lon="11.2378407"><ele>496.4</ele><time>2026-03-28T11:26:45.956Z</time></trkpt><trkpt lat="43.9379415" lon="11.2378781"><ele>493.2</ele><time>2026-03-28T11:26:47.98Z</time></trkpt><trkpt lat="43.9378511" lon="11.2379198"><ele>490.0</ele><time>2026-03-28T11:26:49.956Z</time></trkpt><trkpt lat="43.9377618" lon="11.2379743"><ele>490.00000000000006</ele><time>2026-03-28T11:26:51.969Z</time></trkpt><trkpt lat="43.9377083" lon="11.2380354"><ele>490.0</ele><time>2026-03-28T11:26:53.969Z</time></trkpt><trkpt lat="43.9376575" lon="11.2380997"><ele>490.0</ele><time>2026-03-28T11:26:57.978Z</time></trkpt><trkpt lat="43.937609" lon="11.2381726"><ele>490.0</ele><time>2026-03-28T11:27:21.965Z</time></trkpt><trkpt lat="43.93756" lon="11.2382616"><ele>490.00000000000006</ele><time>2026-03-28T11:27:29.964Z</time></trkpt><trkpt lat="43.9374973" lon="11.2383471"><ele>490.0</ele><time>2026-03-28T11:27:31.963Z</time></trkpt><trkpt lat="43.9374152" lon="11.2384352"><ele>486.33333333333337</ele><time>2026-03-28T11:27:33.974Z</time></trkpt><trkpt lat="43.937349" lon="11.2385339"><ele>482.6666666666667</ele><time>2026-03-28T11:27:35.963Z</time></trkpt><trkpt lat="43.9373144" lon="11.2386188"><ele>479.0</ele><time>2026-03-28T11:27:37.967Z</time></trkpt><trkpt lat="43.937252" lon="11.2386806"><ele>475.33333333333337</ele><time>2026-03-28T11:27:40.967Z</time></trkpt><trkpt lat="43.9371819" lon="11.2387453"><ele>471.6666666666667</ele><time>2026-03-28T11:27:43.963Z</time></trkpt><trkpt lat="43.9371229" lon="11.2388113"><ele>468.0</ele><time>2026-03-28T11:27:45.97Z</time></trkpt><trkpt lat="43.9370567" lon="11.2388568"><ele>468.0</ele><time>2026-03-28T11:27:47.995Z</time></trkpt><trkpt lat="43.936986" lon="11.238899"><ele>468.00000000000006</ele><time>2026-03-28T11:27:49.969Z</time></trkpt><trkpt lat="43.9369271" lon="11.2389357"><ele>468.0</ele><time>2026-03-28T11:27:51.968Z</time></trkpt><trkpt lat="43.9368392" lon="11.2389846"><ele>468.0</ele><time>2026-03-28T11:27:54.964Z</time></trkpt><trkpt lat="43.9367716" lon="11.2389993"><ele>468.00000000000006</ele><time>2026-03-28T11:27:56.964Z</time></trkpt><trkpt lat="43.9367089" lon="11.2390074"><ele>468.0</ele><time>2026-03-28T11:27:58.968Z</time></trkpt><trkpt lat="43.9366439" lon="11.2390146"><ele>468.0</ele><time>2026-03-28T11:28:00.959Z</time></trkpt><trkpt lat="43.9365731" lon="11.2390115"><ele>468.4</ele><time>2026-03-28T11:28:02.969Z</time></trkpt><trkpt lat="43.9365016" lon="11.2390175"><ele>468.79999999999995</ele><time>2026-03-28T11:28:04.983Z</time></trkpt><trkpt lat="43.9364115" lon="11.2390363"><ele>469.2</ele><time>2026-03-28T11:28:06.963Z</time></trkpt><trkpt lat="43.9363451" lon="11.2390572"><ele>469.6</ele><time>2026-03-28T11:28:07.973Z</time></trkpt><trkpt lat="43.9362283" lon="11.2390969"><ele>470.0</ele><time>2026-03-28T11:28:09.965Z</time></trkpt><trkpt lat="43.936122" lon="11.2391143"><ele>470.0</ele><time>2026-03-28T11:28:11.972Z</time></trkpt><trkpt lat="43.9360108" lon="11.2391171"><ele>470.0</ele><time>2026-03-28T11:28:13.97Z</time></trkpt><trkpt lat="43.9359035" lon="11.2391268"><ele>470.0</ele><time>2026-03-28T11:28:15.975Z</time></trkpt><trkpt lat="43.9358108" lon="11.2391335"><ele>470.0</ele><time>2026-03-28T11:28:17.967Z</time></trkpt><trkpt lat="43.9357124" lon="11.2391371"><ele>470.0</ele><time>2026-03-28T11:28:19.965Z</time></trkpt><trkpt lat="43.9356156" lon="11.2391413"><ele>470.4</ele><time>2026-03-28T11:28:21.96Z</time></trkpt><trkpt lat="43.9355134" lon="11.2391516"><ele>470.8</ele><time>2026-03-28T11:28:23.968Z</time></trkpt><trkpt lat="43.9354156" lon="11.2391547"><ele>471.20000000000005</ele><time>2026-03-28T11:28:25.963Z</time></trkpt><trkpt lat="43.9353005" lon="11.2391428"><ele>471.6</ele><time>2026-03-28T11:28:27.974Z</time></trkpt><trkpt lat="43.9352317" lon="11.2391322"><ele>472.0</ele><time>2026-03-28T11:28:28.961Z</time></trkpt><trkpt lat="43.9351549" lon="11.2391173"><ele>472.00000000000006</ele><time>2026-03-28T11:28:29.974Z</time></trkpt><trkpt lat="43.9350718" lon="11.2391008"><ele>472.0</ele><time>2026-03-28T11:28:30.964Z</time></trkpt><trkpt lat="43.934995" lon="11.2390804"><ele>472.0</ele><time>2026-03-28T11:28:31.963Z</time></trkpt><trkpt lat="43.9349231" lon="11.2390538"><ele>472.0</ele><time>2026-03-28T11:28:32.962Z</time></trkpt><trkpt lat="43.9348583" lon="11.2390354"><ele>472.00000000000006</ele><time>2026-03-28T11:28:33.952Z</time></trkpt><trkpt lat="43.9347941" lon="11.2390159"><ele>472.0</ele><time>2026-03-28T11:28:34.974Z</time></trkpt><trkpt lat="43.9346677" lon="11.2389902"><ele>471.0</ele><time>2026-03-28T11:28:36.971Z</time></trkpt><trkpt lat="43.9346037" lon="11.2389856"><ele>470.0</ele><time>2026-03-28T11:28:37.945Z</time></trkpt><trkpt lat="43.9345361" lon="11.2389843"><ele>469.0</ele><time>2026-03-28T11:28:38.963Z</time></trkpt><trkpt lat="43.934469" lon="11.23899"><ele>468.0</ele><time>2026-03-28T11:28:40.025Z</time></trkpt><trkpt lat="43.9343993" lon="11.2390014"><ele>467.0</ele><time>2026-03-28T11:28:41.03Z</time></trkpt><trkpt lat="43.9343255" lon="11.2390146"><ele>466.0</ele><time>2026-03-28T11:28:42.028Z</time></trkpt><trkpt lat="43.9342571" lon="11.239019"><ele>465.0</ele><time>2026-03-28T11:28:43.028Z</time></trkpt><trkpt lat="43.9341921" lon="11.2390154"><ele>463.8</ele><time>2026-03-28T11:28:43.97Z</time></trkpt><trkpt lat="43.9341261" lon="11.2390091"><ele>462.6</ele><time>2026-03-28T11:28:44.973Z</time></trkpt><trkpt lat="43.9340568" lon="11.2389999"><ele>461.4</ele><time>2026-03-28T11:28:45.975Z</time></trkpt><trkpt lat="43.9339396" lon="11.2389775"><ele>460.2</ele><time>2026-03-28T11:28:47.971Z</time></trkpt><trkpt lat="43.9338137" lon="11.2389506"><ele>459.0</ele><time>2026-03-28T11:28:49.978Z</time></trkpt><trkpt lat="43.9336946" lon="11.2389066"><ele>455.0</ele><time>2026-03-28T11:28:51.97Z</time></trkpt><trkpt lat="43.9336325" lon="11.2388693"><ele>451.0</ele><time>2026-03-28T11:28:52.964Z</time></trkpt><trkpt lat="43.9335161" lon="11.2388088"><ele>447.0</ele><time>2026-03-28T11:28:54.969Z</time></trkpt><trkpt lat="43.9334047" lon="11.2388087"><ele>443.0</ele><time>2026-03-28T11:28:56.956Z</time></trkpt><trkpt lat="43.9332871" lon="11.2388687"><ele>439.0</ele><time>2026-03-28T11:28:58.953Z</time></trkpt><trkpt lat="43.9331742" lon="11.2389469"><ele>438.79999999999995</ele><time>2026-03-28T11:29:00.971Z</time></trkpt><trkpt lat="43.9330479" lon="11.2389675"><ele>438.59999999999997</ele><time>2026-03-28T11:29:02.97Z</time></trkpt><trkpt lat="43.932985" lon="11.2389779"><ele>438.4</ele><time>2026-03-28T11:29:03.957Z</time></trkpt><trkpt lat="43.9328767" lon="11.2389794"><ele>438.2</ele><time>2026-03-28T11:29:05.943Z</time></trkpt><trkpt lat="43.9327714" lon="11.2389917"><ele>438.0</ele><time>2026-03-28T11:29:07.961Z</time></trkpt><trkpt lat="43.9326753" lon="11.2389888"><ele>438.0</ele><time>2026-03-28T11:29:09.959Z</time></trkpt><trkpt lat="43.9326023" lon="11.2389577"><ele>438.0</ele><time>2026-03-28T11:29:11.962Z</time></trkpt><trkpt lat="43.9325371" lon="11.2389111"><ele>438.0</ele><time>2026-03-28T11:29:13.963Z</time></trkpt><trkpt lat="43.9324542" lon="11.2388483"><ele>438.0</ele><time>2026-03-28T11:29:15.958Z</time></trkpt><trkpt lat="43.9323661" lon="11.2388217"><ele>438.0</ele><time>2026-03-28T11:29:17.968Z</time></trkpt><trkpt lat="43.9322757" lon="11.2388062"><ele>438.0</ele><time>2026-03-28T11:29:19.959Z</time></trkpt><trkpt lat="43.9321601" lon="11.2388066"><ele>437.59999999999997</ele><time>2026-03-28T11:29:21.961Z</time></trkpt><trkpt lat="43.9320546" lon="11.2388009"><ele>437.19999999999993</ele><time>2026-03-28T11:29:23.969Z</time></trkpt><trkpt lat="43.9319302" lon="11.238772"><ele>436.8</ele><time>2026-03-28T11:29:25.957Z</time></trkpt><trkpt lat="43.9318678" lon="11.2387529"><ele>436.4</ele><time>2026-03-28T11:29:26.956Z</time></trkpt><trkpt lat="43.9318075" lon="11.2387238"><ele>436.0</ele><time>2026-03-28T11:29:27.967Z</time></trkpt><trkpt lat="43.9317071" lon="11.2386481"><ele>435.6666666666667</ele><time>2026-03-28T11:29:29.958Z</time></trkpt><trkpt lat="43.9316509" lon="11.2386064"><ele>435.33333333333337</ele><time>2026-03-28T11:29:30.966Z</time></trkpt><trkpt lat="43.9315343" lon="11.2385526"><ele>435.0</ele><time>2026-03-28T11:29:32.971Z</time></trkpt><trkpt lat="43.9314731" lon="11.2385227"><ele>434.66666666666663</ele><time>2026-03-28T11:29:33.951Z</time></trkpt><trkpt lat="43.9313497" lon="11.2384919"><ele>434.3333333333333</ele><time>2026-03-28T11:29:35.959Z</time></trkpt><trkpt lat="43.9312851" lon="11.238501"><ele>434.0</ele><time>2026-03-28T11:29:36.965Z</time></trkpt><trkpt lat="43.9312162" lon="11.23851"><ele>433.99999999999994</ele><time>2026-03-28T11:29:37.954Z</time></trkpt><trkpt lat="43.9311519" lon="11.2385223"><ele>434.0</ele><time>2026-03-28T11:29:38.962Z</time></trkpt><trkpt lat="43.9310871" lon="11.238539"><ele>434.0</ele><time>2026-03-28T11:29:39.961Z</time></trkpt><trkpt lat="43.9310242" lon="11.2385504"><ele>434.0</ele><time>2026-03-28T11:29:40.97Z</time></trkpt><trkpt lat="43.9309041" lon="11.2385876"><ele>433.99999999999994</ele><time>2026-03-28T11:29:42.959Z</time></trkpt><trkpt lat="43.9307952" lon="11.2386443"><ele>434.0</ele><time>2026-03-28T11:29:44.961Z</time></trkpt><trkpt lat="43.9307292" lon="11.2386646"><ele>432.79999999999995</ele><time>2026-03-28T11:29:45.96Z</time></trkpt><trkpt lat="43.9306587" lon="11.2386652"><ele>431.59999999999997</ele><time>2026-03-28T11:29:46.961Z</time></trkpt><trkpt lat="43.9305934" lon="11.2386567"><ele>430.4</ele><time>2026-03-28T11:29:47.968Z</time></trkpt><trkpt lat="43.9304763" lon="11.2386306"><ele>429.2</ele><time>2026-03-28T11:29:49.956Z</time></trkpt><trkpt lat="43.930385" lon="11.2385162"><ele>428.0</ele><time>2026-03-28T11:29:51.959Z</time></trkpt><trkpt lat="43.9303526" lon="11.2384243"><ele>428.0</ele><time>2026-03-28T11:29:52.955Z</time></trkpt><trkpt lat="43.9303232" lon="11.2383333"><ele>427.99999999999994</ele><time>2026-03-28T11:29:53.963Z</time></trkpt><trkpt lat="43.9302995" lon="11.2382513"><ele>427.99999999999994</ele><time>2026-03-28T11:29:54.958Z</time></trkpt><trkpt lat="43.9302239" lon="11.2381295"><ele>428.0</ele><time>2026-03-28T11:29:56.954Z</time></trkpt><trkpt lat="43.9301173" lon="11.2380832"><ele>428.0</ele><time>2026-03-28T11:29:58.956Z</time></trkpt><trkpt lat="43.9300114" lon="11.2381195"><ele>426.59999999999997</ele><time>2026-03-28T11:30:00.961Z</time></trkpt><trkpt lat="43.9299245" lon="11.2382437"><ele>425.19999999999993</ele><time>2026-03-28T11:30:02.959Z</time></trkpt><trkpt lat="43.9298253" lon="11.238343"><ele>423.8</ele><time>2026-03-28T11:30:04.96Z</time></trkpt><trkpt lat="43.9297539" lon="11.2383275"><ele>422.4</ele><time>2026-03-28T11:30:05.959Z</time></trkpt><trkpt lat="43.9296771" lon="11.2382708"><ele>421.0</ele><time>2026-03-28T11:30:06.967Z</time></trkpt><trkpt lat="43.9295861" lon="11.2382005"><ele>421.0</ele><time>2026-03-28T11:30:07.967Z</time></trkpt><trkpt lat="43.9294851" lon="11.2381565"><ele>421.0</ele><time>2026-03-28T11:30:08.956Z</time></trkpt><trkpt lat="43.9293777" lon="11.2381133"><ele>421.0</ele><time>2026-03-28T11:30:09.96Z</time></trkpt><trkpt lat="43.9292765" lon="11.2380785"><ele>421.0</ele><time>2026-03-28T11:30:10.964Z</time></trkpt><trkpt lat="43.9291818" lon="11.238037"><ele>421.0</ele><time>2026-03-28T11:30:11.969Z</time></trkpt><trkpt lat="43.9290989" lon="11.2380081"><ele>418.1666666666667</ele><time>2026-03-28T11:30:12.957Z</time></trkpt><trkpt lat="43.9290166" lon="11.2379688"><ele>415.33333333333337</ele><time>2026-03-28T11:30:13.959Z</time></trkpt><trkpt lat="43.9289341" lon="11.2379393"><ele>412.5</ele><time>2026-03-28T11:30:14.966Z</time></trkpt><trkpt lat="43.9288574" lon="11.2379208"><ele>409.66666666666663</ele><time>2026-03-28T11:30:15.955Z</time></trkpt><trkpt lat="43.9287842" lon="11.2379186"><ele>406.8333333333333</ele><time>2026-03-28T11:30:16.953Z</time></trkpt><trkpt lat="43.9287049" lon="11.2379506"><ele>404.0</ele><time>2026-03-28T11:30:17.959Z</time></trkpt><trkpt lat="43.9286269" lon="11.2380186"><ele>404.0</ele><time>2026-03-28T11:30:18.96Z</time></trkpt><trkpt lat="43.9285507" lon="11.2381213"><ele>404.0</ele><time>2026-03-28T11:30:19.96Z</time></trkpt><trkpt lat="43.9284683" lon="11.2382298"><ele>404.0</ele><time>2026-03-28T11:30:20.971Z</time></trkpt><trkpt lat="43.9283775" lon="11.2383356"><ele>404.0</ele><time>2026-03-28T11:30:21.958Z</time></trkpt><trkpt lat="43.9282775" lon="11.2384409"><ele>404.5</ele><time>2026-03-28T11:30:22.945Z</time></trkpt><trkpt lat="43.9281794" lon="11.2385528"><ele>405.0</ele><time>2026-03-28T11:30:23.948Z</time></trkpt><trkpt lat="43.9280881" lon="11.2386527"><ele>405.5</ele><time>2026-03-28T11:30:24.961Z</time></trkpt><trkpt lat="43.9279999" lon="11.23875"><ele>406.0</ele><time>2026-03-28T11:30:25.94Z</time></trkpt><trkpt lat="43.9279189" lon="11.2388408"><ele>406.00000000000006</ele><time>2026-03-28T11:30:26.96Z</time></trkpt><trkpt lat="43.9278455" lon="11.2389194"><ele>406.0</ele><time>2026-03-28T11:30:27.965Z</time></trkpt><trkpt lat="43.9277767" lon="11.2389865"><ele>406.0</ele><time>2026-03-28T11:30:28.959Z</time></trkpt><trkpt lat="43.927715" lon="11.2390377"><ele>406.0</ele><time>2026-03-28T11:30:29.966Z</time></trkpt><trkpt lat="43.9276503" lon="11.239073"><ele>406.00000000000006</ele><time>2026-03-28T11:30:30.958Z</time></trkpt><trkpt lat="43.9275309" lon="11.2390925"><ele>406.0</ele><time>2026-03-28T11:30:32.962Z</time></trkpt><trkpt lat="43.9274199" lon="11.2390497"><ele>405.6</ele><time>2026-03-28T11:30:34.964Z</time></trkpt><trkpt lat="43.9273666" lon="11.238993"><ele>405.20000000000005</ele><time>2026-03-28T11:30:35.966Z</time></trkpt><trkpt lat="43.9273037" lon="11.2389143"><ele>404.79999999999995</ele><time>2026-03-28T11:30:36.966Z</time></trkpt><trkpt lat="43.9272423" lon="11.2388203"><ele>404.4</ele><time>2026-03-28T11:30:37.97Z</time></trkpt><trkpt lat="43.9271775" lon="11.2387107"><ele>404.0</ele><time>2026-03-28T11:30:38.962Z</time></trkpt><trkpt lat="43.92712" lon="11.2385642"><ele>402.5</ele><time>2026-03-28T11:30:39.957Z</time></trkpt><trkpt lat="43.9270687" lon="11.2384003"><ele>401.0</ele><time>2026-03-28T11:30:40.96Z</time></trkpt><trkpt lat="43.9270195" lon="11.2382359"><ele>399.5</ele><time>2026-03-28T11:30:41.962Z</time></trkpt><trkpt lat="43.9269716" lon="11.2380805"><ele>398.0</ele><time>2026-03-28T11:30:42.964Z</time></trkpt><trkpt lat="43.9269288" lon="11.23794"><ele>398.0</ele><time>2026-03-28T11:30:43.959Z</time></trkpt><trkpt lat="43.9268795" lon="11.2378139"><ele>398.0</ele><time>2026-03-28T11:30:44.962Z</time></trkpt><trkpt lat="43.92681" lon="11.2377089"><ele>398.0</ele><time>2026-03-28T11:30:45.967Z</time></trkpt><trkpt lat="43.9267273" lon="11.2376359"><ele>398.0</ele><time>2026-03-28T11:30:46.966Z</time></trkpt><trkpt lat="43.9266299" lon="11.2375711"><ele>398.0</ele><time>2026-03-28T11:30:47.964Z</time></trkpt><trkpt lat="43.9265325" lon="11.2375186"><ele>395.25</ele><time>2026-03-28T11:30:48.962Z</time></trkpt><trkpt lat="43.9264337" lon="11.2374497"><ele>392.5</ele><time>2026-03-28T11:30:49.968Z</time></trkpt><trkpt lat="43.9263197" lon="11.2373591"><ele>389.75</ele><time>2026-03-28T11:30:50.963Z</time></trkpt><trkpt lat="43.9262102" lon="11.2372519"><ele>387.0</ele><time>2026-03-28T11:30:51.967Z</time></trkpt><trkpt lat="43.9261071" lon="11.2371361"><ele>385.40000000000003</ele><time>2026-03-28T11:30:52.972Z</time></trkpt><trkpt lat="43.926021" lon="11.2370239"><ele>383.8</ele><time>2026-03-28T11:30:53.964Z</time></trkpt><trkpt lat="43.9259587" lon="11.2369147"><ele>382.2</ele><time>2026-03-28T11:30:54.959Z</time></trkpt><trkpt lat="43.9259165" lon="11.2368068"><ele>380.6</ele><time>2026-03-28T11:30:55.96Z</time></trkpt><trkpt lat="43.9258993" lon="11.2366799"><ele>379.0</ele><time>2026-03-28T11:30:56.957Z</time></trkpt><trkpt lat="43.9258654" lon="11.2365349"><ele>375.75</ele><time>2026-03-28T11:30:57.956Z</time></trkpt><trkpt lat="43.9258108" lon="11.2363687"><ele>372.5</ele><time>2026-03-28T11:30:58.958Z</time></trkpt><trkpt lat="43.9257451" lon="11.2362078"><ele>369.25</ele><time>2026-03-28T11:30:59.959Z</time></trkpt><trkpt lat="43.9256716" lon="11.2360332"><ele>366.0</ele><time>2026-03-28T11:31:00.963Z</time></trkpt><trkpt lat="43.92561" lon="11.2358711"><ele>366.0</ele><time>2026-03-28T11:31:01.957Z</time></trkpt><trkpt lat="43.9255506" lon="11.2357203"><ele>366.0</ele><time>2026-03-28T11:31:02.949Z</time></trkpt><trkpt lat="43.9254975" lon="11.2355842"><ele>366.0</ele><time>2026-03-28T11:31:03.952Z</time></trkpt><trkpt lat="43.925447" lon="11.235473"><ele>366.0</ele><time>2026-03-28T11:31:04.956Z</time></trkpt><trkpt lat="43.9253875" lon="11.235397"><ele>366.0</ele><time>2026-03-28T11:31:05.968Z</time></trkpt><trkpt lat="43.9253188" lon="11.2353804"><ele>364.6</ele><time>2026-03-28T11:31:06.969Z</time></trkpt><trkpt lat="43.9252329" lon="11.2354198"><ele>363.20000000000005</ele><time>2026-03-28T11:31:07.955Z</time></trkpt><trkpt lat="43.9251514" lon="11.2354815"><ele>361.79999999999995</ele><time>2026-03-28T11:31:08.958Z</time></trkpt><trkpt lat="43.9250718" lon="11.2355474"><ele>360.4</ele><time>2026-03-28T11:31:09.964Z</time></trkpt><trkpt lat="43.9249723" lon="11.235598"><ele>359.0</ele><time>2026-03-28T11:31:10.956Z</time></trkpt><trkpt lat="43.9248796" lon="11.2356009"><ele>356.75</ele><time>2026-03-28T11:31:11.968Z</time></trkpt><trkpt lat="43.9247808" lon="11.2355689"><ele>354.5</ele><time>2026-03-28T11:31:12.96Z</time></trkpt><trkpt lat="43.9246777" lon="11.2355148"><ele>352.25</ele><time>2026-03-28T11:31:13.963Z</time></trkpt><trkpt lat="43.924568" lon="11.2354302"><ele>350.0</ele><time>2026-03-28T11:31:14.962Z</time></trkpt><trkpt lat="43.924452" lon="11.2353411"><ele>350.0</ele><time>2026-03-28T11:31:15.959Z</time></trkpt><trkpt lat="43.9243437" lon="11.2352699"><ele>350.0</ele><time>2026-03-28T11:31:16.968Z</time></trkpt><trkpt lat="43.9242367" lon="11.2352035"><ele>350.0</ele><time>2026-03-28T11:31:17.961Z</time></trkpt><trkpt lat="43.9241444" lon="11.2351318"><ele>350.0</ele><time>2026-03-28T11:31:18.953Z</time></trkpt><trkpt lat="43.9240701" lon="11.2350751"><ele>350.0</ele><time>2026-03-28T11:31:19.959Z</time></trkpt><trkpt lat="43.9240043" lon="11.2350134"><ele>347.6666666666667</ele><time>2026-03-28T11:31:20.959Z</time></trkpt><trkpt lat="43.923942" lon="11.2349521"><ele>345.33333333333337</ele><time>2026-03-28T11:31:21.947Z</time></trkpt><trkpt lat="43.923893" lon="11.2348704"><ele>343.0</ele><time>2026-03-28T11:31:22.95Z</time></trkpt><trkpt lat="43.9238508" lon="11.2347682"><ele>340.6666666666667</ele><time>2026-03-28T11:31:23.95Z</time></trkpt><trkpt lat="43.9238091" lon="11.2346617"><ele>338.3333333333333</ele><time>2026-03-28T11:31:24.935Z</time></trkpt><trkpt lat="43.9237676" lon="11.2345485"><ele>336.0</ele><time>2026-03-28T11:31:25.939Z</time></trkpt><trkpt lat="43.9237244" lon="11.2344232"><ele>335.0</ele><time>2026-03-28T11:31:26.95Z</time></trkpt><trkpt lat="43.9236748" lon="11.2342901"><ele>334.0</ele><time>2026-03-28T11:31:27.937Z</time></trkpt><trkpt lat="43.9236255" lon="11.2341607"><ele>333.0</ele><time>2026-03-28T11:31:28.934Z</time></trkpt><trkpt lat="43.9235701" lon="11.2340256"><ele>332.0</ele><time>2026-03-28T11:31:29.96Z</time></trkpt><trkpt lat="43.9235119" lon="11.2338869"><ele>331.0</ele><time>2026-03-28T11:31:30.948Z</time></trkpt><trkpt lat="43.9234527" lon="11.2337539"><ele>329.4</ele><time>2026-03-28T11:31:31.954Z</time></trkpt><trkpt lat="43.9233973" lon="11.233626"><ele>327.8</ele><time>2026-03-28T11:31:32.961Z</time></trkpt><trkpt lat="43.9233452" lon="11.2335096"><ele>326.2</ele><time>2026-03-28T11:31:33.962Z</time></trkpt><trkpt lat="43.9232955" lon="11.2333993"><ele>324.59999999999997</ele><time>2026-03-28T11:31:34.962Z</time></trkpt><trkpt lat="43.9232457" lon="11.2333021"><ele>323.0</ele><time>2026-03-28T11:31:35.968Z</time></trkpt><trkpt lat="43.9231869" lon="11.2332179"><ele>322.79999999999995</ele><time>2026-03-28T11:31:36.963Z</time></trkpt><trkpt lat="43.9231143" lon="11.2331403"><ele>322.6</ele><time>2026-03-28T11:31:37.969Z</time></trkpt><trkpt lat="43.9230264" lon="11.2330687"><ele>322.4</ele><time>2026-03-28T11:31:38.965Z</time></trkpt><trkpt lat="43.9229314" lon="11.2330027"><ele>322.20000000000005</ele><time>2026-03-28T11:31:39.946Z</time></trkpt><trkpt lat="43.9228335" lon="11.232934"><ele>322.0</ele><time>2026-03-28T11:31:40.955Z</time></trkpt><trkpt lat="43.9227399" lon="11.2328585"><ele>321.20000000000005</ele><time>2026-03-28T11:31:41.964Z</time></trkpt><trkpt lat="43.9226497" lon="11.2327721"><ele>320.40000000000003</ele><time>2026-03-28T11:31:42.967Z</time></trkpt><trkpt lat="43.922574" lon="11.2326785"><ele>319.6</ele><time>2026-03-28T11:31:43.965Z</time></trkpt><trkpt lat="43.9225141" lon="11.2325695"><ele>318.8</ele><time>2026-03-28T11:31:44.963Z</time></trkpt><trkpt lat="43.9224506" lon="11.2324553"><ele>318.0</ele><time>2026-03-28T11:31:45.967Z</time></trkpt><trkpt lat="43.9223825" lon="11.2323429"><ele>315.0</ele><time>2026-03-28T11:31:46.968Z</time></trkpt><trkpt lat="43.9223271" lon="11.2322436"><ele>312.0</ele><time>2026-03-28T11:31:47.965Z</time></trkpt><trkpt lat="43.9222875" lon="11.2321441"><ele>309.0</ele><time>2026-03-28T11:31:48.967Z</time></trkpt><trkpt lat="43.9222861" lon="11.2320387"><ele>306.0</ele><time>2026-03-28T11:31:49.96Z</time></trkpt><trkpt lat="43.9223109" lon="11.231927"><ele>303.0</ele><time>2026-03-28T11:31:50.963Z</time></trkpt><trkpt lat="43.9223022" lon="11.2317906"><ele>300.0</ele><time>2026-03-28T11:31:51.967Z</time></trkpt><trkpt lat="43.9222323" lon="11.2316351"><ele>297.5</ele><time>2026-03-28T11:31:52.961Z</time></trkpt><trkpt lat="43.9221646" lon="11.2314662"><ele>295.0</ele><time>2026-03-28T11:31:53.957Z</time></trkpt><trkpt lat="43.9220855" lon="11.2313286"><ele>292.5</ele><time>2026-03-28T11:31:54.963Z</time></trkpt><trkpt lat="43.9219992" lon="11.2312035"><ele>290.0</ele><time>2026-03-28T11:31:55.959Z</time></trkpt><trkpt lat="43.9219132" lon="11.2310526"><ele>290.0</ele><time>2026-03-28T11:31:56.965Z</time></trkpt><trkpt lat="43.9218195" lon="11.2309135"><ele>290.0</ele><time>2026-03-28T11:31:57.955Z</time></trkpt><trkpt lat="43.9217348" lon="11.2308037"><ele>290.0</ele><time>2026-03-28T11:31:58.961Z</time></trkpt><trkpt lat="43.9216714" lon="11.2307034"><ele>290.0</ele><time>2026-03-28T11:31:59.964Z</time></trkpt><trkpt lat="43.9216345" lon="11.2305769"><ele>290.0</ele><time>2026-03-28T11:32:00.961Z</time></trkpt><trkpt lat="43.9216086" lon="11.230454"><ele>286.33333333333337</ele><time>2026-03-28T11:32:01.954Z</time></trkpt><trkpt lat="43.9215668" lon="11.2303605"><ele>282.6666666666667</ele><time>2026-03-28T11:32:02.957Z</time></trkpt><trkpt lat="43.9215433" lon="11.2302719"><ele>279.0</ele><time>2026-03-28T11:32:03.963Z</time></trkpt><trkpt lat="43.9215463" lon="11.2301681"><ele>275.3333333333333</ele><time>2026-03-28T11:32:04.961Z</time></trkpt><trkpt lat="43.9215573" lon="11.2300477"><ele>271.66666666666663</ele><time>2026-03-28T11:32:05.965Z</time></trkpt><trkpt lat="43.9215369" lon="11.2299154"><ele>268.0</ele><time>2026-03-28T11:32:06.96Z</time></trkpt><trkpt lat="43.9214827" lon="11.2297959"><ele>266.25</ele><time>2026-03-28T11:32:07.957Z</time></trkpt><trkpt lat="43.9214017" lon="11.2296839"><ele>264.5</ele><time>2026-03-28T11:32:08.97Z</time></trkpt><trkpt lat="43.9213082" lon="11.2295871"><ele>262.75</ele><time>2026-03-28T11:32:09.967Z</time></trkpt><trkpt lat="43.9212113" lon="11.2294989"><ele>261.0</ele><time>2026-03-28T11:32:10.949Z</time></trkpt><trkpt lat="43.9210961" lon="11.2294077"><ele>261.0</ele><time>2026-03-28T11:32:11.97Z</time></trkpt><trkpt lat="43.92098" lon="11.2293107"><ele>261.0</ele><time>2026-03-28T11:32:12.96Z</time></trkpt><trkpt lat="43.9208704" lon="11.2292303"><ele>261.0</ele><time>2026-03-28T11:32:13.951Z</time></trkpt><trkpt lat="43.9207612" lon="11.2291548"><ele>261.0</ele><time>2026-03-28T11:32:14.961Z</time></trkpt><trkpt lat="43.920663" lon="11.2290841"><ele>259.0</ele><time>2026-03-28T11:32:15.965Z</time></trkpt><trkpt lat="43.9205745" lon="11.2290098"><ele>257.0</ele><time>2026-03-28T11:32:16.946Z</time></trkpt><trkpt lat="43.9204902" lon="11.2289311"><ele>255.00000000000003</ele><time>2026-03-28T11:32:17.957Z</time></trkpt><trkpt lat="43.9204073" lon="11.2288559"><ele>253.0</ele><time>2026-03-28T11:32:18.963Z</time></trkpt><trkpt lat="43.9203452" lon="11.228774"><ele>251.0</ele><time>2026-03-28T11:32:19.956Z</time></trkpt><trkpt lat="43.9202999" lon="11.2286646"><ele>249.8</ele><time>2026-03-28T11:32:20.966Z</time></trkpt><trkpt lat="43.9202771" lon="11.2285263"><ele>248.60000000000002</ele><time>2026-03-28T11:32:21.967Z</time></trkpt><trkpt lat="43.92024" lon="11.2283766"><ele>247.4</ele><time>2026-03-28T11:32:22.957Z</time></trkpt><trkpt lat="43.9201854" lon="11.2282476"><ele>246.2</ele><time>2026-03-28T11:32:23.953Z</time></trkpt><trkpt lat="43.9201154" lon="11.2281299"><ele>245.0</ele><time>2026-03-28T11:32:24.961Z</time></trkpt><trkpt lat="43.9200443" lon="11.2280363"><ele>244.83333333333334</ele><time>2026-03-28T11:32:25.959Z</time></trkpt><trkpt lat="43.920008" lon="11.2279589"><ele>244.66666666666669</ele><time>2026-03-28T11:32:26.951Z</time></trkpt><trkpt lat="43.9199464" lon="11.2278448"><ele>244.5</ele><time>2026-03-28T11:32:28.964Z</time></trkpt><trkpt lat="43.9198775" lon="11.227869"><ele>244.33333333333331</ele><time>2026-03-28T11:32:29.97Z</time></trkpt><trkpt lat="43.9198" lon="11.2279069"><ele>244.16666666666666</ele><time>2026-03-28T11:32:30.96Z</time></trkpt><trkpt lat="43.9197242" lon="11.2279165"><ele>244.0</ele><time>2026-03-28T11:32:31.974Z</time></trkpt><trkpt lat="43.9196363" lon="11.2278667"><ele>244.0</ele><time>2026-03-28T11:32:32.964Z</time></trkpt><trkpt lat="43.9195607" lon="11.2277963"><ele>243.99999999999997</ele><time>2026-03-28T11:32:33.961Z</time></trkpt><trkpt lat="43.9194708" lon="11.2277174"><ele>243.99999999999997</ele><time>2026-03-28T11:32:34.952Z</time></trkpt><trkpt lat="43.9193717" lon="11.2276327"><ele>244.0</ele><time>2026-03-28T11:32:35.958Z</time></trkpt><trkpt lat="43.9192732" lon="11.2275126"><ele>244.0</ele><time>2026-03-28T11:32:36.944Z</time></trkpt><trkpt lat="43.9191764" lon="11.2274106"><ele>242.2</ele><time>2026-03-28T11:32:37.967Z</time></trkpt><trkpt lat="43.9190844" lon="11.2273178"><ele>240.39999999999998</ele><time>2026-03-28T11:32:38.964Z</time></trkpt><trkpt lat="43.9189969" lon="11.2272382"><ele>238.6</ele><time>2026-03-28T11:32:39.954Z</time></trkpt><trkpt lat="43.9189121" lon="11.2271556"><ele>236.8</ele><time>2026-03-28T11:32:40.965Z</time></trkpt><trkpt lat="43.9188398" lon="11.2270529"><ele>235.0</ele><time>2026-03-28T11:32:41.967Z</time></trkpt><trkpt lat="43.9187653" lon="11.2269454"><ele>235.0</ele><time>2026-03-28T11:32:42.967Z</time></trkpt><trkpt lat="43.9186777" lon="11.2268192"><ele>235.0</ele><time>2026-03-28T11:32:43.956Z</time></trkpt><trkpt lat="43.9185832" lon="11.2266817"><ele>235.0</ele><time>2026-03-28T11:32:44.956Z</time></trkpt><trkpt lat="43.9184829" lon="11.2265474"><ele>235.0</ele><time>2026-03-28T11:32:45.962Z</time></trkpt><trkpt lat="43.9183826" lon="11.2264261"><ele>233.25</ele><time>2026-03-28T11:32:46.96Z</time></trkpt><trkpt lat="43.9182799" lon="11.2262981"><ele>231.5</ele><time>2026-03-28T11:32:47.961Z</time></trkpt><trkpt lat="43.9181778" lon="11.2261567"><ele>229.75</ele><time>2026-03-28T11:32:48.958Z</time></trkpt><trkpt lat="43.9180776" lon="11.2260138"><ele>228.0</ele><time>2026-03-28T11:32:49.961Z</time></trkpt><trkpt lat="43.9179856" lon="11.2258769"><ele>228.0</ele><time>2026-03-28T11:32:50.96Z</time></trkpt><trkpt lat="43.917913" lon="11.2257586"><ele>228.0</ele><time>2026-03-28T11:32:51.961Z</time></trkpt><trkpt lat="43.9178565" lon="11.2256375"><ele>228.0</ele><time>2026-03-28T11:32:52.959Z</time></trkpt><trkpt lat="43.9177723" lon="11.2255247"><ele>228.0</ele><time>2026-03-28T11:32:53.949Z</time></trkpt><trkpt lat="43.9176588" lon="11.2254114"><ele>227.75</ele><time>2026-03-28T11:32:54.958Z</time></trkpt><trkpt lat="43.9175436" lon="11.2253073"><ele>227.5</ele><time>2026-03-28T11:32:55.967Z</time></trkpt><trkpt lat="43.9174198" lon="11.2252038"><ele>227.25</ele><time>2026-03-28T11:32:56.945Z</time></trkpt><trkpt lat="43.9172876" lon="11.2251093"><ele>227.0</ele><time>2026-03-28T11:32:57.963Z</time></trkpt><trkpt lat="43.9171594" lon="11.2250334"><ele>227.0</ele><time>2026-03-28T11:32:58.959Z</time></trkpt><trkpt lat="43.9170396" lon="11.2249759"><ele>227.0</ele><time>2026-03-28T11:32:59.965Z</time></trkpt><trkpt lat="43.9169305" lon="11.2249368"><ele>227.0</ele><time>2026-03-28T11:33:00.936Z</time></trkpt><trkpt lat="43.9168045" lon="11.2249089"><ele>227.0</ele><time>2026-03-28T11:33:01.955Z</time></trkpt><trkpt lat="43.9166655" lon="11.2249266"><ele>224.25</ele><time>2026-03-28T11:33:02.959Z</time></trkpt><trkpt lat="43.916537" lon="11.2249467"><ele>221.5</ele><time>2026-03-28T11:33:03.956Z</time></trkpt><trkpt lat="43.9164075" lon="11.224993"><ele>218.75</ele><time>2026-03-28T11:33:04.962Z</time></trkpt><trkpt lat="43.9162887" lon="11.2250733"><ele>216.0</ele><time>2026-03-28T11:33:05.961Z</time></trkpt><trkpt lat="43.9161924" lon="11.2251852"><ele>216.0</ele><time>2026-03-28T11:33:06.977Z</time></trkpt><trkpt lat="43.9160993" lon="11.2252886"><ele>216.00000000000003</ele><time>2026-03-28T11:33:07.96Z</time></trkpt><trkpt lat="43.9160046" lon="11.2253584"><ele>216.00000000000003</ele><time>2026-03-28T11:33:08.973Z</time></trkpt><trkpt lat="43.9158991" lon="11.2253932"><ele>216.0</ele><time>2026-03-28T11:33:10.069Z</time></trkpt><trkpt lat="43.9157936" lon="11.2253626"><ele>216.0</ele><time>2026-03-28T11:33:11.032Z</time></trkpt><trkpt lat="43.9156979" lon="11.2252907"><ele>214.75</ele><time>2026-03-28T11:33:12.03Z</time></trkpt><trkpt lat="43.9155932" lon="11.2252094"><ele>213.5</ele><time>2026-03-28T11:33:12.978Z</time></trkpt><trkpt lat="43.9154821" lon="11.2251438"><ele>212.25</ele><time>2026-03-28T11:33:13.971Z</time></trkpt><trkpt lat="43.9153593" lon="11.2250981"><ele>211.0</ele><time>2026-03-28T11:33:14.99Z</time></trkpt><trkpt lat="43.9152473" lon="11.2250625"><ele>211.0</ele><time>2026-03-28T11:33:16.035Z</time></trkpt><trkpt lat="43.9151377" lon="11.2250302"><ele>211.0</ele><time>2026-03-28T11:33:16.954Z</time></trkpt><trkpt lat="43.9150216" lon="11.2249893"><ele>211.0</ele><time>2026-03-28T11:33:17.96Z</time></trkpt><trkpt lat="43.9148953" lon="11.2249528"><ele>211.0</ele><time>2026-03-28T11:33:18.955Z</time></trkpt><trkpt lat="43.9147761" lon="11.2249098"><ele>210.20000000000002</ele><time>2026-03-28T11:33:19.959Z</time></trkpt><trkpt lat="43.9146629" lon="11.2248684"><ele>209.4</ele><time>2026-03-28T11:33:20.96Z</time></trkpt><trkpt lat="43.914566" lon="11.2248035"><ele>208.6</ele><time>2026-03-28T11:33:22.048Z</time></trkpt><trkpt lat="43.9144826" lon="11.2247338"><ele>207.8</ele><time>2026-03-28T11:33:23.029Z</time></trkpt><trkpt lat="43.914413" lon="11.2246456"><ele>207.0</ele><time>2026-03-28T11:33:23.958Z</time></trkpt><trkpt lat="43.9143606" lon="11.2245497"><ele>207.0</ele><time>2026-03-28T11:33:24.97Z</time></trkpt><trkpt lat="43.9142992" lon="11.2244535"><ele>207.0</ele><time>2026-03-28T11:33:25.958Z</time></trkpt><trkpt lat="43.9142419" lon="11.2243615"><ele>207.0</ele><time>2026-03-28T11:33:27.045Z</time></trkpt><trkpt lat="43.914184" lon="11.2242722"><ele>207.0</ele><time>2026-03-28T11:33:28.028Z</time></trkpt><trkpt lat="43.9141143" lon="11.2241922"><ele>207.0</ele><time>2026-03-28T11:33:28.96Z</time></trkpt><trkpt lat="43.9140198" lon="11.2241317"><ele>205.75</ele><time>2026-03-28T11:33:29.957Z</time></trkpt><trkpt lat="43.9139172" lon="11.2240636"><ele>204.5</ele><time>2026-03-28T11:33:30.946Z</time></trkpt><trkpt lat="43.9138126" lon="11.2239862"><ele>203.25</ele><time>2026-03-28T11:33:31.965Z</time></trkpt><trkpt lat="43.913716" lon="11.2238893"><ele>202.0</ele><time>2026-03-28T11:33:32.954Z</time></trkpt><trkpt lat="43.9136305" lon="11.2237781"><ele>202.0</ele><time>2026-03-28T11:33:33.957Z</time></trkpt><trkpt lat="43.913553" lon="11.2236484"><ele>202.0</ele><time>2026-03-28T11:33:34.957Z</time></trkpt><trkpt lat="43.9134714" lon="11.2235129"><ele>202.0</ele><time>2026-03-28T11:33:35.961Z</time></trkpt><trkpt lat="43.9133909" lon="11.2233761"><ele>202.0</ele><time>2026-03-28T11:33:36.958Z</time></trkpt><trkpt lat="43.9133098" lon="11.2232383"><ele>199.25</ele><time>2026-03-28T11:33:37.982Z</time></trkpt><trkpt lat="43.9132331" lon="11.2231091"><ele>196.5</ele><time>2026-03-28T11:33:38.968Z</time></trkpt><trkpt lat="43.9131648" lon="11.222982"><ele>193.75</ele><time>2026-03-28T11:33:40.031Z</time></trkpt><trkpt lat="43.9131187" lon="11.2228394"><ele>191.0</ele><time>2026-03-28T11:33:40.972Z</time></trkpt><trkpt lat="43.9130985" lon="11.2226607"><ele>191.0</ele><time>2026-03-28T11:33:41.972Z</time></trkpt><trkpt lat="43.9130853" lon="11.2224654"><ele>191.0</ele><time>2026-03-28T11:33:42.969Z</time></trkpt><trkpt lat="43.9130803" lon="11.2222536"><ele>191.0</ele><time>2026-03-28T11:33:43.976Z</time></trkpt><trkpt lat="43.9130611" lon="11.222045"><ele>191.0</ele><time>2026-03-28T11:33:44.97Z</time></trkpt><trkpt lat="43.9130359" lon="11.2218402"><ele>191.25</ele><time>2026-03-28T11:33:45.982Z</time></trkpt><trkpt lat="43.9130148" lon="11.221634"><ele>191.5</ele><time>2026-03-28T11:33:46.977Z</time></trkpt><trkpt lat="43.9129835" lon="11.2214353"><ele>191.75</ele><time>2026-03-28T11:33:48.007Z</time></trkpt><trkpt lat="43.9129358" lon="11.2212486"><ele>192.0</ele><time>2026-03-28T11:33:48.964Z</time></trkpt><trkpt lat="43.9128894" lon="11.221074"><ele>193.6</ele><time>2026-03-28T11:33:49.968Z</time></trkpt><trkpt lat="43.9128551" lon="11.2209057"><ele>195.2</ele><time>2026-03-28T11:33:50.968Z</time></trkpt><trkpt lat="43.9128404" lon="11.2207511"><ele>196.8</ele><time>2026-03-28T11:33:51.971Z</time></trkpt><trkpt lat="43.9128174" lon="11.2206141"><ele>198.4</ele><time>2026-03-28T11:33:52.97Z</time></trkpt><trkpt lat="43.9127672" lon="11.2204788"><ele>200.0</ele><time>2026-03-28T11:33:53.97Z</time></trkpt><trkpt lat="43.9126894" lon="11.2203494"><ele>202.5</ele><time>2026-03-28T11:33:54.969Z</time></trkpt><trkpt lat="43.9125802" lon="11.2202387"><ele>205.0</ele><time>2026-03-28T11:33:55.976Z</time></trkpt><trkpt lat="43.9124665" lon="11.2201369"><ele>207.5</ele><time>2026-03-28T11:33:56.964Z</time></trkpt><trkpt lat="43.9123363" lon="11.220042"><ele>210.0</ele><time>2026-03-28T11:33:57.966Z</time></trkpt><trkpt lat="43.9122094" lon="11.2199439"><ele>206.66666666666669</ele><time>2026-03-28T11:33:58.957Z</time></trkpt><trkpt lat="43.9120653" lon="11.2198553"><ele>203.33333333333334</ele><time>2026-03-28T11:33:59.968Z</time></trkpt><trkpt lat="43.9119221" lon="11.2197807"><ele>200.0</ele><time>2026-03-28T11:34:01.026Z</time></trkpt><trkpt lat="43.9117872" lon="11.2196884"><ele>196.25</ele><time>2026-03-28T11:34:02.035Z</time></trkpt><trkpt lat="43.9116662" lon="11.219578"><ele>192.5</ele><time>2026-03-28T11:34:03.033Z</time></trkpt><trkpt lat="43.9115496" lon="11.2194502"><ele>188.75</ele><time>2026-03-28T11:34:03.958Z</time></trkpt><trkpt lat="43.9114373" lon="11.2193115"><ele>185.0</ele><time>2026-03-28T11:34:04.967Z</time></trkpt><trkpt lat="43.9113213" lon="11.2191682"><ele>185.0</ele><time>2026-03-28T11:34:05.978Z</time></trkpt><trkpt lat="43.9112047" lon="11.2190256"><ele>185.0</ele><time>2026-03-28T11:34:07.034Z</time></trkpt><trkpt lat="43.9110796" lon="11.2188871"><ele>185.0</ele><time>2026-03-28T11:34:08.027Z</time></trkpt><trkpt lat="43.9109506" lon="11.2187564"><ele>185.33333333333331</ele><time>2026-03-28T11:34:08.955Z</time></trkpt><trkpt lat="43.9108205" lon="11.2186336"><ele>185.66666666666666</ele><time>2026-03-28T11:34:09.959Z</time></trkpt><trkpt lat="43.9106894" lon="11.2185099"><ele>186.0</ele><time>2026-03-28T11:34:10.984Z</time></trkpt><trkpt lat="43.9105565" lon="11.2183947"><ele>186.0</ele><time>2026-03-28T11:34:12.034Z</time></trkpt><trkpt lat="43.9104243" lon="11.2182698"><ele>186.0</ele><time>2026-03-28T11:34:12.956Z</time></trkpt><trkpt lat="43.9102915" lon="11.218151"><ele>186.0</ele><time>2026-03-28T11:34:13.965Z</time></trkpt><trkpt lat="43.9101567" lon="11.2180384"><ele>185.0</ele><time>2026-03-28T11:34:14.953Z</time></trkpt><trkpt lat="43.9100218" lon="11.2179359"><ele>184.0</ele><time>2026-03-28T11:34:15.959Z</time></trkpt><trkpt lat="43.909885" lon="11.2178309"><ele>183.0</ele><time>2026-03-28T11:34:16.953Z</time></trkpt><trkpt lat="43.9097481" lon="11.2177298"><ele>183.0</ele><time>2026-03-28T11:34:17.954Z</time></trkpt><trkpt lat="43.9096124" lon="11.2176253"><ele>183.0</ele><time>2026-03-28T11:34:18.953Z</time></trkpt><trkpt lat="43.9094728" lon="11.2175221"><ele>183.0</ele><time>2026-03-28T11:34:19.957Z</time></trkpt><trkpt lat="43.9093429" lon="11.2174108"><ele>181.33333333333334</ele><time>2026-03-28T11:34:20.987Z</time></trkpt><trkpt lat="43.9092199" lon="11.2172853"><ele>179.66666666666669</ele><time>2026-03-28T11:34:21.965Z</time></trkpt><trkpt lat="43.9090993" lon="11.2171566"><ele>178.0</ele><time>2026-03-28T11:34:22.966Z</time></trkpt><trkpt lat="43.9089851" lon="11.2170259"><ele>178.0</ele><time>2026-03-28T11:34:23.956Z</time></trkpt><trkpt lat="43.9088679" lon="11.2168984"><ele>178.0</ele><time>2026-03-28T11:34:24.966Z</time></trkpt><trkpt lat="43.9087534" lon="11.2167719"><ele>178.0</ele><time>2026-03-28T11:34:25.963Z</time></trkpt><trkpt lat="43.9086385" lon="11.2166451"><ele>178.0</ele><time>2026-03-28T11:34:27.006Z</time></trkpt><trkpt lat="43.9085225" lon="11.2165151"><ele>178.33333333333334</ele><time>2026-03-28T11:34:27.958Z</time></trkpt><trkpt lat="43.9084047" lon="11.216385"><ele>178.66666666666666</ele><time>2026-03-28T11:34:28.962Z</time></trkpt><trkpt lat="43.9082847" lon="11.2162555"><ele>179.0</ele><time>2026-03-28T11:34:29.959Z</time></trkpt><trkpt lat="43.9081575" lon="11.2161315"><ele>179.0</ele><time>2026-03-28T11:34:31.029Z</time></trkpt><trkpt lat="43.9080281" lon="11.2160162"><ele>179.0</ele><time>2026-03-28T11:34:31.96Z</time></trkpt><trkpt lat="43.9079025" lon="11.2159097"><ele>179.0</ele><time>2026-03-28T11:34:33.018Z</time></trkpt><trkpt lat="43.907779" lon="11.2157995"><ele>179.0</ele><time>2026-03-28T11:34:33.962Z</time></trkpt><trkpt lat="43.9076553" lon="11.2156799"><ele>178.5</ele><time>2026-03-28T11:34:34.964Z</time></trkpt><trkpt lat="43.9075333" lon="11.2155715"><ele>178.0</ele><time>2026-03-28T11:34:35.973Z</time></trkpt><trkpt lat="43.9074126" lon="11.2154594"><ele>177.5</ele><time>2026-03-28T11:34:37.033Z</time></trkpt><trkpt lat="43.9073033" lon="11.215331"><ele>177.0</ele><time>2026-03-28T11:34:38.03Z</time></trkpt><trkpt lat="43.9072082" lon="11.2151878"><ele>177.0</ele><time>2026-03-28T11:34:38.957Z</time></trkpt><trkpt lat="43.9071218" lon="11.2150399"><ele>177.0</ele><time>2026-03-28T11:34:39.965Z</time></trkpt><trkpt lat="43.907048" lon="11.2148806"><ele>177.0</ele><time>2026-03-28T11:34:40.969Z</time></trkpt><trkpt lat="43.9069802" lon="11.2147186"><ele>177.0</ele><time>2026-03-28T11:34:42.028Z</time></trkpt><trkpt lat="43.9069266" lon="11.2145465"><ele>175.33333333333334</ele><time>2026-03-28T11:34:42.964Z</time></trkpt><trkpt lat="43.9068704" lon="11.214363"><ele>173.66666666666669</ele><time>2026-03-28T11:34:43.965Z</time></trkpt><trkpt lat="43.9068085" lon="11.2141649"><ele>172.0</ele><time>2026-03-28T11:34:44.973Z</time></trkpt><trkpt lat="43.9067443" lon="11.213969"><ele>172.0</ele><time>2026-03-28T11:34:46.048Z</time></trkpt><trkpt lat="43.9066774" lon="11.2137684"><ele>172.0</ele><time>2026-03-28T11:34:47.017Z</time></trkpt><trkpt lat="43.9066076" lon="11.2135688"><ele>172.0</ele><time>2026-03-28T11:34:47.961Z</time></trkpt><trkpt lat="43.9065349" lon="11.2133743"><ele>172.0</ele><time>2026-03-28T11:34:48.972Z</time></trkpt><trkpt lat="43.9064571" lon="11.2131797"><ele>172.0</ele><time>2026-03-28T11:34:49.974Z</time></trkpt><trkpt lat="43.9063788" lon="11.2130062"><ele>172.0</ele><time>2026-03-28T11:34:50.968Z</time></trkpt><trkpt lat="43.9062903" lon="11.2128547"><ele>172.0</ele><time>2026-03-28T11:34:52.026Z</time></trkpt><trkpt lat="43.9061936" lon="11.2127143"><ele>173.66666666666669</ele><time>2026-03-28T11:34:53.032Z</time></trkpt><trkpt lat="43.9060689" lon="11.2126032"><ele>175.33333333333334</ele><time>2026-03-28T11:34:53.964Z</time></trkpt><trkpt lat="43.9059326" lon="11.2125166"><ele>177.0</ele><time>2026-03-28T11:34:54.966Z</time></trkpt><trkpt lat="43.9057851" lon="11.2124574"><ele>174.5</ele><time>2026-03-28T11:34:55.967Z</time></trkpt><trkpt lat="43.9056388" lon="11.2124083"><ele>172.0</ele><time>2026-03-28T11:34:56.962Z</time></trkpt><trkpt lat="43.9055105" lon="11.2123477"><ele>169.5</ele><time>2026-03-28T11:34:57.964Z</time></trkpt><trkpt lat="43.9053931" lon="11.212286"><ele>167.0</ele><time>2026-03-28T11:34:58.97Z</time></trkpt><trkpt lat="43.9052968" lon="11.2122083"><ele>167.0</ele><time>2026-03-28T11:34:59.968Z</time></trkpt><trkpt lat="43.9052246" lon="11.2120907"><ele>167.0</ele><time>2026-03-28T11:35:00.966Z</time></trkpt><trkpt lat="43.9051786" lon="11.2119421"><ele>167.0</ele><time>2026-03-28T11:35:01.957Z</time></trkpt><trkpt lat="43.9051486" lon="11.2117709"><ele>167.0</ele><time>2026-03-28T11:35:02.947Z</time></trkpt><trkpt lat="43.905142" lon="11.2115681"><ele>169.33333333333331</ele><time>2026-03-28T11:35:03.969Z</time></trkpt><trkpt lat="43.9051403" lon="11.2113495"><ele>171.66666666666666</ele><time>2026-03-28T11:35:04.97Z</time></trkpt><trkpt lat="43.9051465" lon="11.2111442"><ele>174.0</ele><time>2026-03-28T11:35:05.966Z</time></trkpt><trkpt lat="43.9051478" lon="11.210934"><ele>174.0</ele><time>2026-03-28T11:35:06.958Z</time></trkpt><trkpt lat="43.9051553" lon="11.2107177"><ele>174.0</ele><time>2026-03-28T11:35:08.027Z</time></trkpt><trkpt lat="43.9051549" lon="11.2105186"><ele>174.0</ele><time>2026-03-28T11:35:08.956Z</time></trkpt><trkpt lat="43.9051517" lon="11.2103326"><ele>174.0</ele><time>2026-03-28T11:35:09.957Z</time></trkpt><trkpt lat="43.9051336" lon="11.2101684"><ele>173.0</ele><time>2026-03-28T11:35:10.989Z</time></trkpt><trkpt lat="43.9050965" lon="11.2100379"><ele>172.0</ele><time>2026-03-28T11:35:11.957Z</time></trkpt><trkpt lat="43.9050346" lon="11.2099265"><ele>171.0</ele><time>2026-03-28T11:35:13.03Z</time></trkpt><trkpt lat="43.904946" lon="11.2098365"><ele>170.0</ele><time>2026-03-28T11:35:13.968Z</time></trkpt><trkpt lat="43.9048484" lon="11.2097582"><ele>169.0</ele><time>2026-03-28T11:35:14.967Z</time></trkpt><trkpt lat="43.9047318" lon="11.2096915"><ele>170.25</ele><time>2026-03-28T11:35:15.974Z</time></trkpt><trkpt lat="43.9046071" lon="11.2096456"><ele>171.5</ele><time>2026-03-28T11:35:17.032Z</time></trkpt><trkpt lat="43.9044619" lon="11.2095994"><ele>172.75</ele><time>2026-03-28T11:35:18.029Z</time></trkpt><trkpt lat="43.9043104" lon="11.2095634"><ele>174.0</ele><time>2026-03-28T11:35:18.968Z</time></trkpt><trkpt lat="43.904158" lon="11.2095226"><ele>174.0</ele><time>2026-03-28T11:35:19.969Z</time></trkpt><trkpt lat="43.9040049" lon="11.2094805"><ele>174.0</ele><time>2026-03-28T11:35:20.982Z</time></trkpt><trkpt lat="43.9038497" lon="11.2094296"><ele>174.0</ele><time>2026-03-28T11:35:22.03Z</time></trkpt><trkpt lat="43.903704" lon="11.209365"><ele>174.0</ele><time>2026-03-28T11:35:22.958Z</time></trkpt><trkpt lat="43.9035575" lon="11.2093039"><ele>174.0</ele><time>2026-03-28T11:35:23.937Z</time></trkpt><trkpt lat="43.9034216" lon="11.2092508"><ele>174.0</ele><time>2026-03-28T11:35:24.957Z</time></trkpt><trkpt lat="43.9033028" lon="11.2091821"><ele>174.0</ele><time>2026-03-28T11:35:25.997Z</time></trkpt><trkpt lat="43.9032089" lon="11.2090876"><ele>172.0</ele><time>2026-03-28T11:35:26.96Z</time></trkpt><trkpt lat="43.9031471" lon="11.2089709"><ele>170.0</ele><time>2026-03-28T11:35:28.026Z</time></trkpt><trkpt lat="43.9031065" lon="11.2088107"><ele>168.0</ele><time>2026-03-28T11:35:28.956Z</time></trkpt><trkpt lat="43.9030845" lon="11.2086283"><ele>166.0</ele><time>2026-03-28T11:35:29.956Z</time></trkpt><trkpt lat="43.9030649" lon="11.2084486"><ele>166.0</ele><time>2026-03-28T11:35:30.997Z</time></trkpt><trkpt lat="43.9030297" lon="11.2082848"><ele>166.0</ele><time>2026-03-28T11:35:31.96Z</time></trkpt><trkpt lat="43.9029808" lon="11.2081248"><ele>166.0</ele><time>2026-03-28T11:35:33.03Z</time></trkpt><trkpt lat="43.9029157" lon="11.2079598"><ele>166.0</ele><time>2026-03-28T11:35:33.97Z</time></trkpt><trkpt lat="43.9028354" lon="11.2078015"><ele>164.5</ele><time>2026-03-28T11:35:34.974Z</time></trkpt><trkpt lat="43.9027487" lon="11.2076413"><ele>163.0</ele><time>2026-03-28T11:35:36.004Z</time></trkpt><trkpt lat="43.9026514" lon="11.2074888"><ele>161.5</ele><time>2026-03-28T11:35:36.973Z</time></trkpt><trkpt lat="43.902545" lon="11.2073484"><ele>160.0</ele><time>2026-03-28T11:35:37.967Z</time></trkpt><trkpt lat="43.9024262" lon="11.2072392"><ele>164.0</ele><time>2026-03-28T11:35:38.955Z</time></trkpt><trkpt lat="43.9023104" lon="11.2071406"><ele>168.0</ele><time>2026-03-28T11:35:39.971Z</time></trkpt><trkpt lat="43.9021987" lon="11.2070281"><ele>172.0</ele><time>2026-03-28T11:35:41.034Z</time></trkpt><trkpt lat="43.9020996" lon="11.2068886"><ele>176.0</ele><time>2026-03-28T11:35:42.027Z</time></trkpt><trkpt lat="43.9020212" lon="11.2067257"><ele>176.0</ele><time>2026-03-28T11:35:43.039Z</time></trkpt><trkpt lat="43.9019456" lon="11.2065553"><ele>176.0</ele><time>2026-03-28T11:35:43.97Z</time></trkpt><trkpt lat="43.9018657" lon="11.2063706"><ele>176.0</ele><time>2026-03-28T11:35:44.969Z</time></trkpt><trkpt lat="43.9017797" lon="11.2061925"><ele>174.66666666666666</ele><time>2026-03-28T11:35:45.967Z</time></trkpt><trkpt lat="43.901688" lon="11.2060155"><ele>173.33333333333334</ele><time>2026-03-28T11:35:46.973Z</time></trkpt><trkpt lat="43.9015985" lon="11.2058327"><ele>172.0</ele><time>2026-03-28T11:35:47.968Z</time></trkpt><trkpt lat="43.9015172" lon="11.2056319"><ele>172.0</ele><time>2026-03-28T11:35:48.963Z</time></trkpt><trkpt lat="43.9014353" lon="11.2054255"><ele>172.0</ele><time>2026-03-28T11:35:50.029Z</time></trkpt><trkpt lat="43.901354" lon="11.205216"><ele>172.0</ele><time>2026-03-28T11:35:51.036Z</time></trkpt><trkpt lat="43.9012709" lon="11.2050062"><ele>176.0</ele><time>2026-03-28T11:35:52.027Z</time></trkpt><trkpt lat="43.9011914" lon="11.2047977"><ele>180.0</ele><time>2026-03-28T11:35:52.974Z</time></trkpt><trkpt lat="43.9011169" lon="11.2045876"><ele>184.0</ele><time>2026-03-28T11:35:53.977Z</time></trkpt><trkpt lat="43.9010421" lon="11.2043835"><ele>184.0</ele><time>2026-03-28T11:35:54.969Z</time></trkpt><trkpt lat="43.900972" lon="11.2041885"><ele>184.0</ele><time>2026-03-28T11:35:55.974Z</time></trkpt><trkpt lat="43.9009089" lon="11.2040072"><ele>184.0</ele><time>2026-03-28T11:35:56.976Z</time></trkpt><trkpt lat="43.9008544" lon="11.2038349"><ele>184.0</ele><time>2026-03-28T11:35:57.969Z</time></trkpt><trkpt lat="43.9007988" lon="11.2036589"><ele>187.75</ele><time>2026-03-28T11:35:58.969Z</time></trkpt><trkpt lat="43.9007285" lon="11.2034851"><ele>191.5</ele><time>2026-03-28T11:35:59.989Z</time></trkpt><trkpt lat="43.9006477" lon="11.2033105"><ele>195.25</ele><time>2026-03-28T11:36:01.006Z</time></trkpt><trkpt lat="43.9005514" lon="11.2031607"><ele>199.0</ele><time>2026-03-28T11:36:01.962Z</time></trkpt><trkpt lat="43.9004432" lon="11.2030229"><ele>199.0</ele><time>2026-03-28T11:36:03.033Z</time></trkpt><trkpt lat="43.9003301" lon="11.2028976"><ele>199.0</ele><time>2026-03-28T11:36:03.971Z</time></trkpt><trkpt lat="43.9001956" lon="11.2027992"><ele>199.0</ele><time>2026-03-28T11:36:04.96Z</time></trkpt><trkpt lat="43.9000256" lon="11.2027551"><ele>190.33333333333331</ele><time>2026-03-28T11:36:05.987Z</time></trkpt><trkpt lat="43.8998521" lon="11.2027349"><ele>181.66666666666666</ele><time>2026-03-28T11:36:07.034Z</time></trkpt><trkpt lat="43.8996782" lon="11.2027236"><ele>173.0</ele><time>2026-03-28T11:36:08.028Z</time></trkpt><trkpt lat="43.8994999" lon="11.2027058"><ele>173.0</ele><time>2026-03-28T11:36:08.959Z</time></trkpt><trkpt lat="43.899323" lon="11.2026966"><ele>173.0</ele><time>2026-03-28T11:36:09.955Z</time></trkpt><trkpt lat="43.8991523" lon="11.2026912"><ele>173.0</ele><time>2026-03-28T11:36:10.956Z</time></trkpt><trkpt lat="43.8989808" lon="11.2026857"><ele>167.66666666666666</ele><time>2026-03-28T11:36:12.03Z</time></trkpt><trkpt lat="43.8988202" lon="11.202677"><ele>162.33333333333334</ele><time>2026-03-28T11:36:13.039Z</time></trkpt><trkpt lat="43.898671" lon="11.2026723"><ele>157.0</ele><time>2026-03-28T11:36:13.993Z</time></trkpt><trkpt lat="43.8985298" lon="11.2026671"><ele>155.5</ele><time>2026-03-28T11:36:14.955Z</time></trkpt><trkpt lat="43.8983894" lon="11.2026655"><ele>154.0</ele><time>2026-03-28T11:36:16.03Z</time></trkpt><trkpt lat="43.8982492" lon="11.2026505"><ele>152.5</ele><time>2026-03-28T11:36:16.955Z</time></trkpt><trkpt lat="43.8981062" lon="11.2026118"><ele>151.0</ele><time>2026-03-28T11:36:18.03Z</time></trkpt><trkpt lat="43.8979666" lon="11.2025505"><ele>151.0</ele><time>2026-03-28T11:36:18.966Z</time></trkpt><trkpt lat="43.8978257" lon="11.2024768"><ele>151.0</ele><time>2026-03-28T11:36:19.968Z</time></trkpt><trkpt lat="43.8976836" lon="11.2024107"><ele>151.0</ele><time>2026-03-28T11:36:20.968Z</time></trkpt><trkpt lat="43.8975315" lon="11.2023428"><ele>157.0</ele><time>2026-03-28T11:36:22.051Z</time></trkpt><trkpt lat="43.8973781" lon="11.2022629"><ele>163.0</ele><time>2026-03-28T11:36:23.03Z</time></trkpt><trkpt lat="43.8972236" lon="11.2021737"><ele>169.0</ele><time>2026-03-28T11:36:23.956Z</time></trkpt><trkpt lat="43.8970769" lon="11.2020584"><ele>169.0</ele><time>2026-03-28T11:36:24.972Z</time></trkpt><trkpt lat="43.8969322" lon="11.2019364"><ele>169.0</ele><time>2026-03-28T11:36:25.985Z</time></trkpt><trkpt lat="43.8967914" lon="11.2018233"><ele>169.0</ele><time>2026-03-28T11:36:26.951Z</time></trkpt><trkpt lat="43.896652" lon="11.2017169"><ele>174.33333333333334</ele><time>2026-03-28T11:36:27.964Z</time></trkpt><trkpt lat="43.8965171" lon="11.2016109"><ele>179.66666666666666</ele><time>2026-03-28T11:36:28.953Z</time></trkpt><trkpt lat="43.8963812" lon="11.2014973"><ele>185.0</ele><time>2026-03-28T11:36:29.96Z</time></trkpt><trkpt lat="43.8962434" lon="11.2013814"><ele>185.0</ele><time>2026-03-28T11:36:31.028Z</time></trkpt><trkpt lat="43.8961045" lon="11.2012828"><ele>185.0</ele><time>2026-03-28T11:36:31.973Z</time></trkpt><trkpt lat="43.8959568" lon="11.2012087"><ele>185.0</ele><time>2026-03-28T11:36:32.974Z</time></trkpt><trkpt lat="43.8958067" lon="11.2011789"><ele>178.25</ele><time>2026-03-28T11:36:33.975Z</time></trkpt><trkpt lat="43.8956667" lon="11.2011794"><ele>171.5</ele><time>2026-03-28T11:36:34.972Z</time></trkpt><trkpt lat="43.8955481" lon="11.2011574"><ele>164.75</ele><time>2026-03-28T11:36:35.977Z</time></trkpt><trkpt lat="43.8954312" lon="11.2011094"><ele>158.0</ele><time>2026-03-28T11:36:36.973Z</time></trkpt><trkpt lat="43.8953404" lon="11.2010114"><ele>158.0</ele><time>2026-03-28T11:36:37.967Z</time></trkpt><trkpt lat="43.8952528" lon="11.2008725"><ele>158.0</ele><time>2026-03-28T11:36:38.959Z</time></trkpt><trkpt lat="43.8951567" lon="11.2007345"><ele>158.0</ele><time>2026-03-28T11:36:39.963Z</time></trkpt><trkpt lat="43.8950573" lon="11.2005884"><ele>158.0</ele><time>2026-03-28T11:36:41.029Z</time></trkpt><trkpt lat="43.8949474" lon="11.2004596"><ele>162.66666666666666</ele><time>2026-03-28T11:36:41.965Z</time></trkpt><trkpt lat="43.8948129" lon="11.2003697"><ele>167.33333333333334</ele><time>2026-03-28T11:36:43.029Z</time></trkpt><trkpt lat="43.894656" lon="11.2002998"><ele>172.0</ele><time>2026-03-28T11:36:43.962Z</time></trkpt><trkpt lat="43.8945005" lon="11.2002469"><ele>172.0</ele><time>2026-03-28T11:36:44.965Z</time></trkpt><trkpt lat="43.8943362" lon="11.200203"><ele>172.0</ele><time>2026-03-28T11:36:45.973Z</time></trkpt><trkpt lat="43.8941755" lon="11.2001529"><ele>172.0</ele><time>2026-03-28T11:36:46.959Z</time></trkpt><trkpt lat="43.8940192" lon="11.2001257"><ele>166.0</ele><time>2026-03-28T11:36:48.05Z</time></trkpt><trkpt lat="43.8938738" lon="11.2001253"><ele>160.0</ele><time>2026-03-28T11:36:48.956Z</time></trkpt><trkpt lat="43.8937399" lon="11.200155"><ele>154.0</ele><time>2026-03-28T11:36:49.961Z</time></trkpt><trkpt lat="43.8936136" lon="11.2001827"><ele>148.0</ele><time>2026-03-28T11:36:51.009Z</time></trkpt><trkpt lat="43.8934841" lon="11.2001937"><ele>143.25</ele><time>2026-03-28T11:36:52.014Z</time></trkpt><trkpt lat="43.8933516" lon="11.200161"><ele>138.5</ele><time>2026-03-28T11:36:53.026Z</time></trkpt><trkpt lat="43.8932165" lon="11.2001123"><ele>133.75</ele><time>2026-03-28T11:36:53.949Z</time></trkpt><trkpt lat="43.8930746" lon="11.2000486"><ele>129.0</ele><time>2026-03-28T11:36:54.957Z</time></trkpt><trkpt lat="43.8929313" lon="11.1999646"><ele>129.0</ele><time>2026-03-28T11:36:55.996Z</time></trkpt><trkpt lat="43.8927915" lon="11.1998664"><ele>129.0</ele><time>2026-03-28T11:36:57.03Z</time></trkpt><trkpt lat="43.8926608" lon="11.1997513"><ele>129.0</ele><time>2026-03-28T11:36:57.961Z</time></trkpt><trkpt lat="43.8925332" lon="11.199623"><ele>127.33333333333334</ele><time>2026-03-28T11:36:58.972Z</time></trkpt><trkpt lat="43.8923966" lon="11.1994987"><ele>125.66666666666667</ele><time>2026-03-28T11:36:59.971Z</time></trkpt><trkpt lat="43.892268" lon="11.1993648"><ele>124.0</ele><time>2026-03-28T11:37:01.064Z</time></trkpt><trkpt lat="43.8921412" lon="11.1992426"><ele>124.0</ele><time>2026-03-28T11:37:01.969Z</time></trkpt><trkpt lat="43.8920168" lon="11.1991085"><ele>124.0</ele><time>2026-03-28T11:37:03.032Z</time></trkpt><trkpt lat="43.891906" lon="11.1989615"><ele>124.0</ele><time>2026-03-28T11:37:03.952Z</time></trkpt><trkpt lat="43.8918138" lon="11.198792"><ele>124.33333333333334</ele><time>2026-03-28T11:37:04.96Z</time></trkpt><trkpt lat="43.8917255" lon="11.1986154"><ele>124.66666666666666</ele><time>2026-03-28T11:37:05.972Z</time></trkpt><trkpt lat="43.8916399" lon="11.1984346"><ele>125.0</ele><time>2026-03-28T11:37:06.952Z</time></trkpt><trkpt lat="43.891548" lon="11.1982609"><ele>130.75</ele><time>2026-03-28T11:37:07.967Z</time></trkpt><trkpt lat="43.8914529" lon="11.1981014"><ele>136.5</ele><time>2026-03-28T11:37:08.965Z</time></trkpt><trkpt lat="43.8913466" lon="11.1979719"><ele>142.25</ele><time>2026-03-28T11:37:09.969Z</time></trkpt><trkpt lat="43.8912216" lon="11.1978662"><ele>148.0</ele><time>2026-03-28T11:37:10.967Z</time></trkpt><trkpt lat="43.8910943" lon="11.1977921"><ele>148.0</ele><time>2026-03-28T11:37:11.973Z</time></trkpt><trkpt lat="43.8909704" lon="11.1977337"><ele>148.0</ele><time>2026-03-28T11:37:12.971Z</time></trkpt><trkpt lat="43.8908511" lon="11.1976703"><ele>148.0</ele><time>2026-03-28T11:37:13.974Z</time></trkpt><trkpt lat="43.8907377" lon="11.1975998"><ele>148.0</ele><time>2026-03-28T11:37:14.967Z</time></trkpt><trkpt lat="43.8906246" lon="11.1975252"><ele>147.5</ele><time>2026-03-28T11:37:15.954Z</time></trkpt><trkpt lat="43.8905301" lon="11.197452"><ele>147.0</ele><time>2026-03-28T11:37:16.964Z</time></trkpt><trkpt lat="43.8904468" lon="11.1973429"><ele>146.5</ele><time>2026-03-28T11:37:17.968Z</time></trkpt><trkpt lat="43.8903769" lon="11.197203"><ele>146.0</ele><time>2026-03-28T11:37:18.96Z</time></trkpt><trkpt lat="43.8903176" lon="11.1970579"><ele>146.0</ele><time>2026-03-28T11:37:19.969Z</time></trkpt><trkpt lat="43.8902835" lon="11.1968838"><ele>146.0</ele><time>2026-03-28T11:37:20.953Z</time></trkpt><trkpt lat="43.8902521" lon="11.1966986"><ele>146.0</ele><time>2026-03-28T11:37:21.97Z</time></trkpt><trkpt lat="43.890217" lon="11.1965105"><ele>146.0</ele><time>2026-03-28T11:37:22.966Z</time></trkpt><trkpt lat="43.8901835" lon="11.196308"><ele>143.25</ele><time>2026-03-28T11:37:23.965Z</time></trkpt><trkpt lat="43.8901427" lon="11.1961094"><ele>140.5</ele><time>2026-03-28T11:37:24.973Z</time></trkpt><trkpt lat="43.8900799" lon="11.1959258"><ele>137.75</ele><time>2026-03-28T11:37:25.973Z</time></trkpt><trkpt lat="43.8900047" lon="11.1957553"><ele>135.0</ele><time>2026-03-28T11:37:26.97Z</time></trkpt><trkpt lat="43.8899149" lon="11.1956045"><ele>135.0</ele><time>2026-03-28T11:37:27.966Z</time></trkpt><trkpt lat="43.8898254" lon="11.1954627"><ele>135.0</ele><time>2026-03-28T11:37:28.969Z</time></trkpt><trkpt lat="43.8897342" lon="11.1953185"><ele>135.0</ele><time>2026-03-28T11:37:29.971Z</time></trkpt><trkpt lat="43.8896345" lon="11.1951734"><ele>135.0</ele><time>2026-03-28T11:37:30.971Z</time></trkpt><trkpt lat="43.8895301" lon="11.1950328"><ele>135.0</ele><time>2026-03-28T11:37:31.971Z</time></trkpt><trkpt lat="43.8894271" lon="11.1948866"><ele>135.0</ele><time>2026-03-28T11:37:32.966Z</time></trkpt><trkpt lat="43.8893307" lon="11.1947349"><ele>135.0</ele><time>2026-03-28T11:37:33.963Z</time></trkpt><trkpt lat="43.8892349" lon="11.1945743"><ele>135.0</ele><time>2026-03-28T11:37:34.969Z</time></trkpt><trkpt lat="43.8891415" lon="11.1944178"><ele>135.75</ele><time>2026-03-28T11:37:35.968Z</time></trkpt><trkpt lat="43.8890619" lon="11.1942523"><ele>136.5</ele><time>2026-03-28T11:37:36.968Z</time></trkpt><trkpt lat="43.8889896" lon="11.1940785"><ele>137.25</ele><time>2026-03-28T11:37:38.043Z</time></trkpt><trkpt lat="43.8889247" lon="11.1939046"><ele>138.0</ele><time>2026-03-28T11:37:38.973Z</time></trkpt><trkpt lat="43.8888509" lon="11.193733"><ele>138.0</ele><time>2026-03-28T11:37:39.958Z</time></trkpt><trkpt lat="43.8887755" lon="11.1935642"><ele>138.0</ele><time>2026-03-28T11:37:40.967Z</time></trkpt><trkpt lat="43.8886902" lon="11.1934025"><ele>138.0</ele><time>2026-03-28T11:37:41.969Z</time></trkpt><trkpt lat="43.8886003" lon="11.1932523"><ele>138.0</ele><time>2026-03-28T11:37:42.968Z</time></trkpt><trkpt lat="43.8885057" lon="11.1931019"><ele>132.25</ele><time>2026-03-28T11:37:43.967Z</time></trkpt><trkpt lat="43.8884108" lon="11.1929456"><ele>126.5</ele><time>2026-03-28T11:37:44.972Z</time></trkpt><trkpt lat="43.8883211" lon="11.1927892"><ele>120.75</ele><time>2026-03-28T11:37:46.039Z</time></trkpt><trkpt lat="43.8882467" lon="11.1926364"><ele>115.0</ele><time>2026-03-28T11:37:46.976Z</time></trkpt><trkpt lat="43.8881822" lon="11.1924936"><ele>115.0</ele><time>2026-03-28T11:37:48.017Z</time></trkpt><trkpt lat="43.8881219" lon="11.192363"><ele>115.0</ele><time>2026-03-28T11:37:48.969Z</time></trkpt><trkpt lat="43.8880643" lon="11.1922427"><ele>115.0</ele><time>2026-03-28T11:37:49.975Z</time></trkpt><trkpt lat="43.8880007" lon="11.1921225"><ele>115.0</ele><time>2026-03-28T11:37:50.984Z</time></trkpt><trkpt lat="43.8879453" lon="11.1920149"><ele>115.0</ele><time>2026-03-28T11:37:52.026Z</time></trkpt><trkpt lat="43.8878901" lon="11.1919137"><ele>114.8</ele><time>2026-03-28T11:37:53.005Z</time></trkpt><trkpt lat="43.8878403" lon="11.1918156"><ele>114.6</ele><time>2026-03-28T11:37:53.94Z</time></trkpt><trkpt lat="43.8877901" lon="11.1917346"><ele>114.4</ele><time>2026-03-28T11:37:55.033Z</time></trkpt><trkpt lat="43.8877393" lon="11.1916718"><ele>114.2</ele><time>2026-03-28T11:37:56.027Z</time></trkpt><trkpt lat="43.8876231" lon="11.1916737"><ele>114.0</ele><time>2026-03-28T11:37:57.975Z</time></trkpt><trkpt lat="43.8875328" lon="11.1917487"><ele>113.33333333333333</ele><time>2026-03-28T11:37:59.958Z</time></trkpt><trkpt lat="43.8875261" lon="11.191907"><ele>112.66666666666666</ele><time>2026-03-28T11:38:01.978Z</time></trkpt><trkpt lat="43.8875368" lon="11.1919945"><ele>112.0</ele><time>2026-03-28T11:38:02.953Z</time></trkpt><trkpt lat="43.8875229" lon="11.1920897"><ele>111.33333333333333</ele><time>2026-03-28T11:38:03.962Z</time></trkpt><trkpt lat="43.8874798" lon="11.1921857"><ele>110.66666666666666</ele><time>2026-03-28T11:38:04.96Z</time></trkpt><trkpt lat="43.8874274" lon="11.1922835"><ele>110.0</ele><time>2026-03-28T11:38:05.964Z</time></trkpt><trkpt lat="43.8873693" lon="11.192379"><ele>109.99999999999999</ele><time>2026-03-28T11:38:06.969Z</time></trkpt><trkpt lat="43.8873081" lon="11.1924661"><ele>110.0</ele><time>2026-03-28T11:38:07.96Z</time></trkpt><trkpt lat="43.887262" lon="11.192551"><ele>110.0</ele><time>2026-03-28T11:38:08.963Z</time></trkpt><trkpt lat="43.8872368" lon="11.1927151"><ele>110.0</ele><time>2026-03-28T11:38:10.959Z</time></trkpt><trkpt lat="43.8872689" lon="11.1927969"><ele>109.99999999999999</ele><time>2026-03-28T11:38:11.959Z</time></trkpt><trkpt lat="43.8873071" lon="11.1928821"><ele>110.0</ele><time>2026-03-28T11:38:12.968Z</time></trkpt><trkpt lat="43.88734" lon="11.1929673"><ele>109.99999999999999</ele><time>2026-03-28T11:38:13.958Z</time></trkpt><trkpt lat="43.8873836" lon="11.1930387"><ele>110.0</ele><time>2026-03-28T11:38:14.96Z</time></trkpt><trkpt lat="43.8874166" lon="11.1931333"><ele>110.0</ele><time>2026-03-28T11:38:15.96Z</time></trkpt><trkpt lat="43.8874461" lon="11.1932387"><ele>110.0</ele><time>2026-03-28T11:38:16.963Z</time></trkpt><trkpt lat="43.8874793" lon="11.1933582"><ele>109.99999999999999</ele><time>2026-03-28T11:38:17.963Z</time></trkpt><trkpt lat="43.8875183" lon="11.1934823"><ele>110.0</ele><time>2026-03-28T11:38:18.963Z</time></trkpt><trkpt lat="43.8875614" lon="11.1936126"><ele>110.5</ele><time>2026-03-28T11:38:19.958Z</time></trkpt><trkpt lat="43.8876056" lon="11.1937541"><ele>111.0</ele><time>2026-03-28T11:38:20.957Z</time></trkpt><trkpt lat="43.8876551" lon="11.1939033"><ele>111.5</ele><time>2026-03-28T11:38:21.953Z</time></trkpt><trkpt lat="43.8877131" lon="11.1940527"><ele>112.0</ele><time>2026-03-28T11:38:22.956Z</time></trkpt><trkpt lat="43.8877768" lon="11.1942055"><ele>112.5</ele><time>2026-03-28T11:38:23.949Z</time></trkpt><trkpt lat="43.8878381" lon="11.1943502"><ele>113.0</ele><time>2026-03-28T11:38:24.959Z</time></trkpt><trkpt lat="43.8878982" lon="11.1944876"><ele>113.5</ele><time>2026-03-28T11:38:25.936Z</time></trkpt><trkpt lat="43.8879572" lon="11.1946252"><ele>114.0</ele><time>2026-03-28T11:38:26.952Z</time></trkpt><trkpt lat="43.8880097" lon="11.1947529"><ele>115.16666666666667</ele><time>2026-03-28T11:38:28.033Z</time></trkpt><trkpt lat="43.8880588" lon="11.1948612"><ele>116.33333333333334</ele><time>2026-03-28T11:38:28.973Z</time></trkpt><trkpt lat="43.8881127" lon="11.1949479"><ele>117.5</ele><time>2026-03-28T11:38:29.967Z</time></trkpt><trkpt lat="43.888176" lon="11.195012"><ele>118.66666666666667</ele><time>2026-03-28T11:38:30.985Z</time></trkpt><trkpt lat="43.8882482" lon="11.1950549"><ele>119.83333333333334</ele><time>2026-03-28T11:38:31.968Z</time></trkpt><trkpt lat="43.8883328" lon="11.1951063"><ele>121.0</ele><time>2026-03-28T11:38:32.964Z</time></trkpt><trkpt lat="43.8883964" lon="11.195163"><ele>120.00000000000001</ele><time>2026-03-28T11:38:33.972Z</time></trkpt><trkpt lat="43.8884661" lon="11.1952292"><ele>119.0</ele><time>2026-03-28T11:38:34.965Z</time></trkpt><trkpt lat="43.8885224" lon="11.1952958"><ele>118.0</ele><time>2026-03-28T11:38:36.038Z</time></trkpt><trkpt lat="43.8885672" lon="11.1953595"><ele>117.0</ele><time>2026-03-28T11:38:36.975Z</time></trkpt><trkpt lat="43.8886237" lon="11.1954756"><ele>116.00000000000001</ele><time>2026-03-28T11:38:38.964Z</time></trkpt><trkpt lat="43.8886927" lon="11.1956053"><ele>115.0</ele><time>2026-03-28T11:38:40.965Z</time></trkpt><trkpt lat="43.8887396" lon="11.1956683"><ele>115.33333333333334</ele><time>2026-03-28T11:38:41.967Z</time></trkpt><trkpt lat="43.8888259" lon="11.1958081"><ele>115.66666666666667</ele><time>2026-03-28T11:38:43.977Z</time></trkpt><trkpt lat="43.8888475" lon="11.1959028"><ele>116.0</ele><time>2026-03-28T11:38:44.981Z</time></trkpt><trkpt lat="43.8888563" lon="11.196007"><ele>116.33333333333334</ele><time>2026-03-28T11:38:45.995Z</time></trkpt><trkpt lat="43.8888417" lon="11.1961067"><ele>116.66666666666667</ele><time>2026-03-28T11:38:46.974Z</time></trkpt><trkpt lat="43.888823" lon="11.1962031"><ele>117.0</ele><time>2026-03-28T11:38:47.972Z</time></trkpt><trkpt lat="43.8887969" lon="11.1962991"><ele>117.0</ele><time>2026-03-28T11:38:48.978Z</time></trkpt><trkpt lat="43.8887901" lon="11.196391"><ele>117.0</ele><time>2026-03-28T11:38:49.974Z</time></trkpt><trkpt lat="43.8888196" lon="11.1964825"><ele>117.0</ele><time>2026-03-28T11:38:50.975Z</time></trkpt><trkpt lat="43.8889187" lon="11.1965899"><ele>117.0</ele><time>2026-03-28T11:38:52.975Z</time></trkpt><trkpt lat="43.8889753" lon="11.1966409"><ele>117.0</ele><time>2026-03-28T11:38:53.97Z</time></trkpt><trkpt lat="43.8890353" lon="11.1967011"><ele>117.0</ele><time>2026-03-28T11:38:54.971Z</time></trkpt><trkpt lat="43.889097" lon="11.1967819"><ele>118.16666666666667</ele><time>2026-03-28T11:38:55.966Z</time></trkpt><trkpt lat="43.8891576" lon="11.1968648"><ele>119.33333333333334</ele><time>2026-03-28T11:38:56.973Z</time></trkpt><trkpt lat="43.8892091" lon="11.1969596"><ele>120.5</ele><time>2026-03-28T11:38:57.968Z</time></trkpt><trkpt lat="43.8892762" lon="11.1970462"><ele>121.66666666666667</ele><time>2026-03-28T11:38:58.966Z</time></trkpt><trkpt lat="43.889344" lon="11.1971437"><ele>122.83333333333334</ele><time>2026-03-28T11:38:59.971Z</time></trkpt><trkpt lat="43.8893934" lon="11.1972445"><ele>124.0</ele><time>2026-03-28T11:39:00.977Z</time></trkpt><trkpt lat="43.8894282" lon="11.1973631"><ele>124.33333333333334</ele><time>2026-03-28T11:39:01.991Z</time></trkpt><trkpt lat="43.8894249" lon="11.1974962"><ele>124.66666666666667</ele><time>2026-03-28T11:39:02.973Z</time></trkpt><trkpt lat="43.8894167" lon="11.1976193"><ele>125.0</ele><time>2026-03-28T11:39:03.973Z</time></trkpt><trkpt lat="43.8894132" lon="11.1977172"><ele>125.33333333333334</ele><time>2026-03-28T11:39:04.963Z</time></trkpt><trkpt lat="43.8894368" lon="11.1978136"><ele>125.66666666666667</ele><time>2026-03-28T11:39:05.981Z</time></trkpt><trkpt lat="43.8894771" lon="11.1979046"><ele>126.0</ele><time>2026-03-28T11:39:06.976Z</time></trkpt><trkpt lat="43.889522" lon="11.198029"><ele>128.4</ele><time>2026-03-28T11:39:07.971Z</time></trkpt><trkpt lat="43.8895797" lon="11.1981695"><ele>130.8</ele><time>2026-03-28T11:39:08.979Z</time></trkpt><trkpt lat="43.8896507" lon="11.1982944"><ele>133.20000000000002</ele><time>2026-03-28T11:39:09.969Z</time></trkpt><trkpt lat="43.8897238" lon="11.1984091"><ele>135.6</ele><time>2026-03-28T11:39:10.978Z</time></trkpt><trkpt lat="43.8897863" lon="11.1985142"><ele>138.0</ele><time>2026-03-28T11:39:11.975Z</time></trkpt><trkpt lat="43.8898543" lon="11.1986183"><ele>138.0</ele><time>2026-03-28T11:39:12.98Z</time></trkpt><trkpt lat="43.889902" lon="11.198738"><ele>138.0</ele><time>2026-03-28T11:39:13.976Z</time></trkpt><trkpt lat="43.8899507" lon="11.1988544"><ele>138.0</ele><time>2026-03-28T11:39:14.972Z</time></trkpt><trkpt lat="43.8900092" lon="11.1989657"><ele>138.0</ele><time>2026-03-28T11:39:15.981Z</time></trkpt><trkpt lat="43.890073" lon="11.1990606"><ele>138.0</ele><time>2026-03-28T11:39:16.955Z</time></trkpt><trkpt lat="43.8901469" lon="11.1991305"><ele>140.25</ele><time>2026-03-28T11:39:17.979Z</time></trkpt><trkpt lat="43.8902532" lon="11.1991695"><ele>142.5</ele><time>2026-03-28T11:39:18.974Z</time></trkpt><trkpt lat="43.8903653" lon="11.1992048"><ele>144.75</ele><time>2026-03-28T11:39:20.029Z</time></trkpt><trkpt lat="43.8904851" lon="11.1992328"><ele>147.0</ele><time>2026-03-28T11:39:20.975Z</time></trkpt><trkpt lat="43.8905854" lon="11.1992763"><ele>147.0</ele><time>2026-03-28T11:39:22.034Z</time></trkpt><trkpt lat="43.8906678" lon="11.199326"><ele>147.0</ele><time>2026-03-28T11:39:23.033Z</time></trkpt><trkpt lat="43.8907321" lon="11.1993993"><ele>147.0</ele><time>2026-03-28T11:39:23.963Z</time></trkpt><trkpt lat="43.8908058" lon="11.1994742"><ele>147.0</ele><time>2026-03-28T11:39:24.971Z</time></trkpt><trkpt lat="43.8908652" lon="11.1995569"><ele>147.0</ele><time>2026-03-28T11:39:25.957Z</time></trkpt><trkpt lat="43.8909405" lon="11.1996367"><ele>147.0</ele><time>2026-03-28T11:39:26.954Z</time></trkpt><trkpt lat="43.8910263" lon="11.1997235"><ele>148.0</ele><time>2026-03-28T11:39:27.964Z</time></trkpt><trkpt lat="43.8911083" lon="11.1998103"><ele>149.0</ele><time>2026-03-28T11:39:28.957Z</time></trkpt><trkpt lat="43.8911856" lon="11.19989"><ele>150.0</ele><time>2026-03-28T11:39:29.958Z</time></trkpt><trkpt lat="43.8912892" lon="11.1999496"><ele>151.0</ele><time>2026-03-28T11:39:30.959Z</time></trkpt><trkpt lat="43.8913928" lon="11.1999973"><ele>152.0</ele><time>2026-03-28T11:39:31.955Z</time></trkpt><trkpt lat="43.8914795" lon="11.2000772"><ele>152.0</ele><time>2026-03-28T11:39:32.975Z</time></trkpt><trkpt lat="43.8915544" lon="11.2001762"><ele>152.0</ele><time>2026-03-28T11:39:33.96Z</time></trkpt><trkpt lat="43.8916265" lon="11.2002788"><ele>152.0</ele><time>2026-03-28T11:39:34.952Z</time></trkpt><trkpt lat="43.8916809" lon="11.2003939"><ele>152.0</ele><time>2026-03-28T11:39:35.961Z</time></trkpt><trkpt lat="43.8917308" lon="11.2004901"><ele>152.0</ele><time>2026-03-28T11:39:36.96Z</time></trkpt><trkpt lat="43.8917757" lon="11.2005844"><ele>151.0</ele><time>2026-03-28T11:39:37.961Z</time></trkpt><trkpt lat="43.8918074" lon="11.2006886"><ele>150.0</ele><time>2026-03-28T11:39:38.969Z</time></trkpt><trkpt lat="43.8918343" lon="11.2007936"><ele>149.0</ele><time>2026-03-28T11:39:39.962Z</time></trkpt><trkpt lat="43.8918559" lon="11.2008926"><ele>148.0</ele><time>2026-03-28T11:39:41.032Z</time></trkpt><trkpt lat="43.8918744" lon="11.200988"><ele>147.0</ele><time>2026-03-28T11:39:42.035Z</time></trkpt><trkpt lat="43.8919023" lon="11.2011589"><ele>146.0</ele><time>2026-03-28T11:39:43.958Z</time></trkpt><trkpt lat="43.8919071" lon="11.2012531"><ele>146.0</ele><time>2026-03-28T11:39:44.956Z</time></trkpt><trkpt lat="43.8918953" lon="11.2013454"><ele>146.0</ele><time>2026-03-28T11:39:45.955Z</time></trkpt><trkpt lat="43.8918883" lon="11.201442"><ele>146.0</ele><time>2026-03-28T11:39:46.973Z</time></trkpt><trkpt lat="43.8918787" lon="11.2015411"><ele>146.0</ele><time>2026-03-28T11:39:47.97Z</time></trkpt><trkpt lat="43.891855" lon="11.2016295"><ele>146.0</ele><time>2026-03-28T11:39:48.961Z</time></trkpt><trkpt lat="43.8918123" lon="11.2017043"><ele>146.0</ele><time>2026-03-28T11:39:50.034Z</time></trkpt><trkpt lat="43.891777" lon="11.2017839"><ele>146.0</ele><time>2026-03-28T11:39:51.03Z</time></trkpt><trkpt lat="43.8917426" lon="11.2018626"><ele>153.83333333333331</ele><time>2026-03-28T11:39:52.029Z</time></trkpt><trkpt lat="43.8917088" lon="11.201958"><ele>161.66666666666666</ele><time>2026-03-28T11:39:52.964Z</time></trkpt><trkpt lat="43.8916779" lon="11.2020551"><ele>169.5</ele><time>2026-03-28T11:39:53.968Z</time></trkpt><trkpt lat="43.8916468" lon="11.2021537"><ele>177.33333333333331</ele><time>2026-03-28T11:39:55.035Z</time></trkpt><trkpt lat="43.8916104" lon="11.202255"><ele>185.16666666666666</ele><time>2026-03-28T11:39:56.029Z</time></trkpt><trkpt lat="43.891575" lon="11.2023541"><ele>193.0</ele><time>2026-03-28T11:39:56.977Z</time></trkpt><trkpt lat="43.8915429" lon="11.2024615"><ele>194.2</ele><time>2026-03-28T11:39:58.045Z</time></trkpt><trkpt lat="43.8915116" lon="11.2025739"><ele>195.4</ele><time>2026-03-28T11:39:58.965Z</time></trkpt><trkpt lat="43.8914734" lon="11.2026903"><ele>196.6</ele><time>2026-03-28T11:39:59.965Z</time></trkpt><trkpt lat="43.8914557" lon="11.2028077"><ele>197.79999999999998</ele><time>2026-03-28T11:40:00.985Z</time></trkpt><trkpt lat="43.891454" lon="11.2029395"><ele>199.0</ele><time>2026-03-28T11:40:02.029Z</time></trkpt><trkpt lat="43.8914379" lon="11.2030731"><ele>199.99999999999997</ele><time>2026-03-28T11:40:03.03Z</time></trkpt><trkpt lat="43.8914218" lon="11.2032035"><ele>201.0</ele><time>2026-03-28T11:40:03.964Z</time></trkpt><trkpt lat="43.8914038" lon="11.2033256"><ele>202.0</ele><time>2026-03-28T11:40:04.971Z</time></trkpt><trkpt lat="43.8913884" lon="11.2034374"><ele>203.0</ele><time>2026-03-28T11:40:05.967Z</time></trkpt><trkpt lat="43.8913707" lon="11.2035381"><ele>203.99999999999997</ele><time>2026-03-28T11:40:07.032Z</time></trkpt><trkpt lat="43.8913578" lon="11.2036303"><ele>205.0</ele><time>2026-03-28T11:40:08.035Z</time></trkpt><trkpt lat="43.8913504" lon="11.20372"><ele>204.99999999999997</ele><time>2026-03-28T11:40:08.981Z</time></trkpt><trkpt lat="43.8913382" lon="11.2038091"><ele>205.0</ele><time>2026-03-28T11:40:09.99Z</time></trkpt><trkpt lat="43.891318" lon="11.2039983"><ele>205.0</ele><time>2026-03-28T11:40:12.029Z</time></trkpt><trkpt lat="43.8913172" lon="11.2040864"><ele>205.0</ele><time>2026-03-28T11:40:13.022Z</time></trkpt><trkpt lat="43.8913213" lon="11.2041878"><ele>204.99999999999997</ele><time>2026-03-28T11:40:13.977Z</time></trkpt><trkpt lat="43.8913245" lon="11.2042867"><ele>205.0</ele><time>2026-03-28T11:40:14.976Z</time></trkpt><trkpt lat="43.8913168" lon="11.2043779"><ele>204.4</ele><time>2026-03-28T11:40:15.981Z</time></trkpt><trkpt lat="43.8912695" lon="11.2045348"><ele>203.8</ele><time>2026-03-28T11:40:17.967Z</time></trkpt><trkpt lat="43.8912224" lon="11.2046136"><ele>203.2</ele><time>2026-03-28T11:40:18.965Z</time></trkpt><trkpt lat="43.8911586" lon="11.2047051"><ele>202.6</ele><time>2026-03-28T11:40:19.963Z</time></trkpt><trkpt lat="43.8911051" lon="11.2048241"><ele>202.0</ele><time>2026-03-28T11:40:20.971Z</time></trkpt><trkpt lat="43.8910556" lon="11.2049554"><ele>202.0</ele><time>2026-03-28T11:40:22.038Z</time></trkpt><trkpt lat="43.891003" lon="11.2050727"><ele>202.0</ele><time>2026-03-28T11:40:23.025Z</time></trkpt><trkpt lat="43.8909426" lon="11.2051879"><ele>202.0</ele><time>2026-03-28T11:40:23.974Z</time></trkpt><trkpt lat="43.89088" lon="11.2052908"><ele>202.0</ele><time>2026-03-28T11:40:24.966Z</time></trkpt><trkpt lat="43.8908037" lon="11.2053787"><ele>202.0</ele><time>2026-03-28T11:40:25.967Z</time></trkpt><trkpt lat="43.8907203" lon="11.2054416"><ele>207.33333333333331</ele><time>2026-03-28T11:40:26.964Z</time></trkpt><trkpt lat="43.8906462" lon="11.2054902"><ele>212.66666666666666</ele><time>2026-03-28T11:40:27.966Z</time></trkpt><trkpt lat="43.8905679" lon="11.2055363"><ele>218.0</ele><time>2026-03-28T11:40:28.982Z</time></trkpt><trkpt lat="43.8904805" lon="11.2055669"><ele>223.33333333333331</ele><time>2026-03-28T11:40:29.969Z</time></trkpt><trkpt lat="43.8903908" lon="11.2056041"><ele>228.66666666666666</ele><time>2026-03-28T11:40:31.035Z</time></trkpt><trkpt lat="43.8903018" lon="11.2056461"><ele>234.0</ele><time>2026-03-28T11:40:32.036Z</time></trkpt><trkpt lat="43.890212" lon="11.2056942"><ele>234.0</ele><time>2026-03-28T11:40:33.04Z</time></trkpt><trkpt lat="43.8901196" lon="11.205746"><ele>233.99999999999997</ele><time>2026-03-28T11:40:33.962Z</time></trkpt><trkpt lat="43.890031" lon="11.2057953"><ele>233.99999999999997</ele><time>2026-03-28T11:40:34.964Z</time></trkpt><trkpt lat="43.8899479" lon="11.2058369"><ele>234.0</ele><time>2026-03-28T11:40:35.973Z</time></trkpt><trkpt lat="43.8898671" lon="11.2058762"><ele>234.0</ele><time>2026-03-28T11:40:37.027Z</time></trkpt><trkpt lat="43.8897861" lon="11.2059228"><ele>239.16666666666666</ele><time>2026-03-28T11:40:38.043Z</time></trkpt><trkpt lat="43.8897166" lon="11.2059678"><ele>244.33333333333331</ele><time>2026-03-28T11:40:38.967Z</time></trkpt><trkpt lat="43.8896571" lon="11.2060162"><ele>249.5</ele><time>2026-03-28T11:40:39.961Z</time></trkpt><trkpt lat="43.8896112" lon="11.2060891"><ele>254.66666666666666</ele><time>2026-03-28T11:40:40.981Z</time></trkpt><trkpt lat="43.8895689" lon="11.2061906"><ele>259.8333333333333</ele><time>2026-03-28T11:40:42.034Z</time></trkpt><trkpt lat="43.8895279" lon="11.2062944"><ele>265.0</ele><time>2026-03-28T11:40:43.029Z</time></trkpt><trkpt lat="43.8894912" lon="11.2063917"><ele>265.0</ele><time>2026-03-28T11:40:43.964Z</time></trkpt><trkpt lat="43.8894487" lon="11.2064711"><ele>265.0</ele><time>2026-03-28T11:40:44.971Z</time></trkpt><trkpt lat="43.8893692" lon="11.2066079"><ele>265.0</ele><time>2026-03-28T11:40:46.979Z</time></trkpt><trkpt lat="43.889361" lon="11.2067622"><ele>265.0</ele><time>2026-03-28T11:40:48.959Z</time></trkpt><trkpt lat="43.8893714" lon="11.2068602"><ele>265.0</ele><time>2026-03-28T11:40:50.035Z</time></trkpt><trkpt lat="43.8893954" lon="11.2069577"><ele>265.16666666666663</ele><time>2026-03-28T11:40:51.044Z</time></trkpt><trkpt lat="43.8894134" lon="11.2070464"><ele>265.3333333333333</ele><time>2026-03-28T11:40:52.032Z</time></trkpt><trkpt lat="43.8894257" lon="11.2071375"><ele>265.5</ele><time>2026-03-28T11:40:53.021Z</time></trkpt><trkpt lat="43.8894701" lon="11.2072909"><ele>265.6666666666667</ele><time>2026-03-28T11:40:54.97Z</time></trkpt><trkpt lat="43.8895035" lon="11.2074578"><ele>265.83333333333337</ele><time>2026-03-28T11:40:57.003Z</time></trkpt><trkpt lat="43.8895044" lon="11.2075492"><ele>266.0</ele><time>2026-03-28T11:40:57.957Z</time></trkpt><trkpt lat="43.8895125" lon="11.2076452"><ele>266.0</ele><time>2026-03-28T11:40:58.96Z</time></trkpt><trkpt lat="43.8895135" lon="11.2077355"><ele>266.0</ele><time>2026-03-28T11:40:59.956Z</time></trkpt><trkpt lat="43.8894876" lon="11.2078664"><ele>266.0</ele><time>2026-03-28T11:41:01.969Z</time></trkpt><trkpt lat="43.8894243" lon="11.2079355"><ele>266.0</ele><time>2026-03-28T11:41:03.971Z</time></trkpt><trkpt lat="43.8893588" lon="11.2079438"><ele>266.0</ele><time>2026-03-28T11:41:05.974Z</time></trkpt><trkpt lat="43.8892762" lon="11.2078773"><ele>266.0</ele><time>2026-03-28T11:41:07.956Z</time></trkpt><trkpt lat="43.889209" lon="11.207759"><ele>269.83333333333337</ele><time>2026-03-28T11:41:09.963Z</time></trkpt><trkpt lat="43.8891597" lon="11.2076926"><ele>273.6666666666667</ele><time>2026-03-28T11:41:10.96Z</time></trkpt><trkpt lat="43.8890986" lon="11.2076183"><ele>277.5</ele><time>2026-03-28T11:41:11.961Z</time></trkpt><trkpt lat="43.8890198" lon="11.2075685"><ele>281.3333333333333</ele><time>2026-03-28T11:41:12.961Z</time></trkpt><trkpt lat="43.8889379" lon="11.2075317"><ele>285.16666666666663</ele><time>2026-03-28T11:41:13.953Z</time></trkpt><trkpt lat="43.8888497" lon="11.2074953"><ele>289.0</ele><time>2026-03-28T11:41:14.944Z</time></trkpt><trkpt lat="43.8887645" lon="11.2074444"><ele>289.0</ele><time>2026-03-28T11:41:15.949Z</time></trkpt><trkpt lat="43.8886668" lon="11.2073968"><ele>289.0</ele><time>2026-03-28T11:41:16.972Z</time></trkpt><trkpt lat="43.8885593" lon="11.2073483"><ele>289.0</ele><time>2026-03-28T11:41:17.958Z</time></trkpt><trkpt lat="43.8884496" lon="11.2072869"><ele>289.0</ele><time>2026-03-28T11:41:18.962Z</time></trkpt><trkpt lat="43.8883555" lon="11.2072406"><ele>289.0</ele><time>2026-03-28T11:41:20.03Z</time></trkpt><trkpt lat="43.8882665" lon="11.2072132"><ele>290.0</ele><time>2026-03-28T11:41:20.974Z</time></trkpt><trkpt lat="43.8881786" lon="11.2072111"><ele>291.0</ele><time>2026-03-28T11:41:21.973Z</time></trkpt><trkpt lat="43.8880959" lon="11.2072215"><ele>292.0</ele><time>2026-03-28T11:41:23.011Z</time></trkpt><trkpt lat="43.8880237" lon="11.2072365"><ele>293.0</ele><time>2026-03-28T11:41:23.963Z</time></trkpt><trkpt lat="43.8879552" lon="11.2072475"><ele>294.0</ele><time>2026-03-28T11:41:25.026Z</time></trkpt><trkpt lat="43.8878491" lon="11.2072194"><ele>295.0</ele><time>2026-03-28T11:41:26.955Z</time></trkpt><trkpt lat="43.8877499" lon="11.2071639"><ele>295.0</ele><time>2026-03-28T11:41:28.972Z</time></trkpt><trkpt lat="43.8876389" lon="11.2070964"><ele>295.0</ele><time>2026-03-28T11:41:30.984Z</time></trkpt><trkpt lat="43.887529" lon="11.20704"><ele>295.0</ele><time>2026-03-28T11:41:33.02Z</time></trkpt><trkpt lat="43.8874473" lon="11.2070197"><ele>295.0</ele><time>2026-03-28T11:41:34.964Z</time></trkpt><trkpt lat="43.887375" lon="11.2070045"><ele>295.0</ele><time>2026-03-28T11:41:36.974Z</time></trkpt><trkpt lat="43.8872966" lon="11.2069991"><ele>296.3333333333333</ele><time>2026-03-28T11:41:38.959Z</time></trkpt><trkpt lat="43.8872227" lon="11.2069667"><ele>297.66666666666663</ele><time>2026-03-28T11:41:40.955Z</time></trkpt><trkpt lat="43.8871198" lon="11.2069368"><ele>299.0</ele><time>2026-03-28T11:41:42.962Z</time></trkpt><trkpt lat="43.8870571" lon="11.2069108"><ele>300.3333333333333</ele><time>2026-03-28T11:41:43.964Z</time></trkpt><trkpt lat="43.8869315" lon="11.2068956"><ele>301.6666666666667</ele><time>2026-03-28T11:41:45.961Z</time></trkpt><trkpt lat="43.8868664" lon="11.2068883"><ele>303.0</ele><time>2026-03-28T11:41:47.009Z</time></trkpt><trkpt lat="43.8867484" lon="11.2068449"><ele>303.0</ele><time>2026-03-28T11:41:48.965Z</time></trkpt><trkpt lat="43.8866793" lon="11.2068098"><ele>303.0</ele><time>2026-03-28T11:41:49.958Z</time></trkpt><trkpt lat="43.8866143" lon="11.2067732"><ele>303.0</ele><time>2026-03-28T11:41:50.953Z</time></trkpt><trkpt lat="43.8865482" lon="11.2067451"><ele>303.0</ele><time>2026-03-28T11:41:51.961Z</time></trkpt><trkpt lat="43.8864774" lon="11.20673"><ele>303.0</ele><time>2026-03-28T11:41:52.953Z</time></trkpt><trkpt lat="43.8864103" lon="11.206719"><ele>303.0</ele><time>2026-03-28T11:41:53.966Z</time></trkpt><trkpt lat="43.8863441" lon="11.2067195"><ele>303.0</ele><time>2026-03-28T11:41:54.965Z</time></trkpt><trkpt lat="43.8862797" lon="11.2067283"><ele>303.0</ele><time>2026-03-28T11:41:56.027Z</time></trkpt><trkpt lat="43.8861671" lon="11.206751"><ele>303.0</ele><time>2026-03-28T11:41:58.033Z</time></trkpt><trkpt lat="43.8861077" lon="11.2067858"><ele>303.0</ele><time>2026-03-28T11:41:58.963Z</time></trkpt><trkpt lat="43.8860002" lon="11.2068412"><ele>303.0</ele><time>2026-03-28T11:42:01.004Z</time></trkpt><trkpt lat="43.8859231" lon="11.2068096"><ele>303.0</ele><time>2026-03-28T11:42:02.97Z</time></trkpt><trkpt lat="43.8859002" lon="11.2067203"><ele>303.0</ele><time>2026-03-28T11:42:04.987Z</time></trkpt><trkpt lat="43.8858945" lon="11.2066306"><ele>303.3333333333333</ele><time>2026-03-28T11:42:06.034Z</time></trkpt><trkpt lat="43.8858868" lon="11.2065412"><ele>303.6666666666667</ele><time>2026-03-28T11:42:06.985Z</time></trkpt><trkpt lat="43.8858966" lon="11.2064467"><ele>304.0</ele><time>2026-03-28T11:42:07.964Z</time></trkpt><trkpt lat="43.8859049" lon="11.2063497"><ele>304.33333333333337</ele><time>2026-03-28T11:42:08.97Z</time></trkpt><trkpt lat="43.8859014" lon="11.2062471"><ele>304.6666666666667</ele><time>2026-03-28T11:42:09.967Z</time></trkpt><trkpt lat="43.8858887" lon="11.2061327"><ele>305.0</ele><time>2026-03-28T11:42:10.978Z</time></trkpt><trkpt lat="43.885867" lon="11.2060138"><ele>305.0</ele><time>2026-03-28T11:42:11.968Z</time></trkpt><trkpt lat="43.8858426" lon="11.2058933"><ele>305.0</ele><time>2026-03-28T11:42:12.975Z</time></trkpt><trkpt lat="43.8858133" lon="11.2057844"><ele>305.0</ele><time>2026-03-28T11:42:13.956Z</time></trkpt><trkpt lat="43.8857873" lon="11.2056828"><ele>305.0</ele><time>2026-03-28T11:42:14.968Z</time></trkpt><trkpt lat="43.8857344" lon="11.205543"><ele>305.0</ele><time>2026-03-28T11:42:17.027Z</time></trkpt><trkpt lat="43.8856609" lon="11.2054804"><ele>305.0</ele><time>2026-03-28T11:42:18.969Z</time></trkpt><trkpt lat="43.8855843" lon="11.2055281"><ele>305.0</ele><time>2026-03-28T11:42:20.973Z</time></trkpt><trkpt lat="43.8855352" lon="11.2056293"><ele>305.0</ele><time>2026-03-28T11:42:22.977Z</time></trkpt><trkpt lat="43.8855263" lon="11.2058005"><ele>305.0</ele><time>2026-03-28T11:42:25.033Z</time></trkpt><trkpt lat="43.8855368" lon="11.2058922"><ele>305.0</ele><time>2026-03-28T11:42:25.968Z</time></trkpt><trkpt lat="43.8855546" lon="11.2059789"><ele>305.0</ele><time>2026-03-28T11:42:27.037Z</time></trkpt><trkpt lat="43.8856" lon="11.2061294"><ele>305.0</ele><time>2026-03-28T11:42:28.974Z</time></trkpt><trkpt lat="43.885606" lon="11.2062405"><ele>305.0</ele><time>2026-03-28T11:42:30.977Z</time></trkpt><trkpt lat="43.8855638" lon="11.2063454"><ele>305.0</ele><time>2026-03-28T11:42:32.965Z</time></trkpt><trkpt lat="43.8854815" lon="11.2064593"><ele>305.0</ele><time>2026-03-28T11:42:34.972Z</time></trkpt><trkpt lat="43.885394" lon="11.2065667"><ele>305.0</ele><time>2026-03-28T11:42:37.046Z</time></trkpt><trkpt lat="43.8852977" lon="11.2066599"><ele>306.0</ele><time>2026-03-28T11:42:38.972Z</time></trkpt><trkpt lat="43.8852249" lon="11.206771"><ele>307.0</ele><time>2026-03-28T11:42:40.973Z</time></trkpt><trkpt lat="43.8851646" lon="11.206848"><ele>308.0</ele><time>2026-03-28T11:42:42.974Z</time></trkpt><trkpt lat="43.8850781" lon="11.2068363"><ele>309.0</ele><time>2026-03-28T11:42:44.983Z</time></trkpt><trkpt lat="43.8849577" lon="11.2067693"><ele>310.0</ele><time>2026-03-28T11:42:46.973Z</time></trkpt><trkpt lat="43.8848409" lon="11.2067221"><ele>310.8</ele><time>2026-03-28T11:42:48.982Z</time></trkpt><trkpt lat="43.884729" lon="11.2066635"><ele>311.6</ele><time>2026-03-28T11:42:50.983Z</time></trkpt><trkpt lat="43.8846689" lon="11.206618"><ele>312.4</ele><time>2026-03-28T11:42:52.03Z</time></trkpt><trkpt lat="43.8846079" lon="11.206575"><ele>313.2</ele><time>2026-03-28T11:42:52.978Z</time></trkpt><trkpt lat="43.8845092" lon="11.2064916"><ele>314.0</ele><time>2026-03-28T11:42:54.964Z</time></trkpt><trkpt lat="43.8844134" lon="11.2064024"><ele>314.0</ele><time>2026-03-28T11:42:56.963Z</time></trkpt><trkpt lat="43.8843533" lon="11.2063569"><ele>314.0</ele><time>2026-03-28T11:42:57.968Z</time></trkpt><trkpt lat="43.8842924" lon="11.2063068"><ele>314.0</ele><time>2026-03-28T11:42:58.961Z</time></trkpt><trkpt lat="43.884186" lon="11.2062215"><ele>314.0</ele><time>2026-03-28T11:43:00.964Z</time></trkpt><trkpt lat="43.8840901" lon="11.2061446"><ele>314.0</ele><time>2026-03-28T11:43:02.961Z</time></trkpt><trkpt lat="43.8840045" lon="11.2060715"><ele>314.2</ele><time>2026-03-28T11:43:04.957Z</time></trkpt><trkpt lat="43.883925" lon="11.2059809"><ele>314.4</ele><time>2026-03-28T11:43:06.962Z</time></trkpt><trkpt lat="43.8838425" lon="11.2058732"><ele>314.6</ele><time>2026-03-28T11:43:08.96Z</time></trkpt><trkpt lat="43.8837944" lon="11.2058161"><ele>314.8</ele><time>2026-03-28T11:43:09.956Z</time></trkpt><trkpt lat="43.8837004" lon="11.2057396"><ele>315.0</ele><time>2026-03-28T11:43:11.964Z</time></trkpt><trkpt lat="43.883622" lon="11.2057245"><ele>315.0</ele><time>2026-03-28T11:43:13.976Z</time></trkpt><trkpt lat="43.883523" lon="11.205744"><ele>315.0</ele><time>2026-03-28T11:43:15.954Z</time></trkpt><trkpt lat="43.8834263" lon="11.2057923"><ele>315.0</ele><time>2026-03-28T11:43:18.034Z</time></trkpt><trkpt lat="43.8833506" lon="11.2058692"><ele>315.0</ele><time>2026-03-28T11:43:19.966Z</time></trkpt><trkpt lat="43.8832875" lon="11.2059926"><ele>315.0</ele><time>2026-03-28T11:43:21.956Z</time></trkpt><trkpt lat="43.8831963" lon="11.2060911"><ele>315.4</ele><time>2026-03-28T11:43:23.958Z</time></trkpt><trkpt lat="43.8830903" lon="11.2061707"><ele>315.8</ele><time>2026-03-28T11:43:25.978Z</time></trkpt><trkpt lat="43.8829939" lon="11.2062367"><ele>316.2</ele><time>2026-03-28T11:43:28.035Z</time></trkpt><trkpt lat="43.8829205" lon="11.2063415"><ele>316.6</ele><time>2026-03-28T11:43:29.97Z</time></trkpt><trkpt lat="43.8828623" lon="11.2064605"><ele>317.0</ele><time>2026-03-28T11:43:31.971Z</time></trkpt><trkpt lat="43.8828124" lon="11.2065742"><ele>318.33333333333337</ele><time>2026-03-28T11:43:33.965Z</time></trkpt><trkpt lat="43.8827841" lon="11.2066719"><ele>319.6666666666667</ele><time>2026-03-28T11:43:35.965Z</time></trkpt><trkpt lat="43.8827297" lon="11.2067495"><ele>321.0</ele><time>2026-03-28T11:43:38.03Z</time></trkpt><trkpt lat="43.8826576" lon="11.2068036"><ele>322.3333333333333</ele><time>2026-03-28T11:43:39.978Z</time></trkpt><trkpt lat="43.8825934" lon="11.2068714"><ele>323.66666666666663</ele><time>2026-03-28T11:43:41.967Z</time></trkpt><trkpt lat="43.8825222" lon="11.2069428"><ele>325.0</ele><time>2026-03-28T11:43:43.977Z</time></trkpt><trkpt lat="43.8825078" lon="11.2070399"><ele>327.16666666666663</ele><time>2026-03-28T11:43:45.993Z</time></trkpt><trkpt lat="43.8825175" lon="11.2071541"><ele>329.3333333333333</ele><time>2026-03-28T11:43:47.966Z</time></trkpt><trkpt lat="43.8825104" lon="11.2072507"><ele>331.5</ele><time>2026-03-28T11:43:49.972Z</time></trkpt><trkpt lat="43.8824686" lon="11.2073226"><ele>333.6666666666667</ele><time>2026-03-28T11:43:51.983Z</time></trkpt><trkpt lat="43.8823987" lon="11.2073128"><ele>335.83333333333337</ele><time>2026-03-28T11:43:53.972Z</time></trkpt><trkpt lat="43.882328" lon="11.2072723"><ele>338.0</ele><time>2026-03-28T11:43:55.974Z</time></trkpt><trkpt lat="43.8822458" lon="11.2072315"><ele>338.0</ele><time>2026-03-28T11:43:57.971Z</time></trkpt><trkpt lat="43.8821735" lon="11.2071777"><ele>338.0</ele><time>2026-03-28T11:43:59.981Z</time></trkpt><trkpt lat="43.8820951" lon="11.2071274"><ele>338.0</ele><time>2026-03-28T11:44:01.979Z</time></trkpt><trkpt lat="43.8820335" lon="11.2070893"><ele>338.0</ele><time>2026-03-28T11:44:03.957Z</time></trkpt><trkpt lat="43.8819724" lon="11.2070543"><ele>338.0</ele><time>2026-03-28T11:44:05.958Z</time></trkpt><trkpt lat="43.8819061" lon="11.2070087"><ele>338.0</ele><time>2026-03-28T11:44:08.036Z</time></trkpt><trkpt lat="43.881827" lon="11.2069454"><ele>338.0</ele><time>2026-03-28T11:44:10.95Z</time></trkpt><trkpt lat="43.8817661" lon="11.2069129"><ele>338.0</ele><time>2026-03-28T11:44:12.957Z</time></trkpt><trkpt lat="43.8816965" lon="11.2068764"><ele>338.0</ele><time>2026-03-28T11:44:14.988Z</time></trkpt><trkpt lat="43.8816237" lon="11.2068542"><ele>338.0</ele><time>2026-03-28T11:44:16.961Z</time></trkpt><trkpt lat="43.8815522" lon="11.2068527"><ele>338.0</ele><time>2026-03-28T11:44:18.949Z</time></trkpt><trkpt lat="43.8814741" lon="11.2068344"><ele>338.0</ele><time>2026-03-28T11:44:20.972Z</time></trkpt><trkpt lat="43.8813909" lon="11.2067961"><ele>341.83333333333337</ele><time>2026-03-28T11:44:22.972Z</time></trkpt><trkpt lat="43.881308" lon="11.206764"><ele>345.6666666666667</ele><time>2026-03-28T11:44:24.966Z</time></trkpt><trkpt lat="43.8812317" lon="11.2067425"><ele>349.5</ele><time>2026-03-28T11:44:26.96Z</time></trkpt><trkpt lat="43.8811707" lon="11.2066728"><ele>353.3333333333333</ele><time>2026-03-28T11:44:29.954Z</time></trkpt><trkpt lat="43.8811165" lon="11.2066258"><ele>357.16666666666663</ele><time>2026-03-28T11:44:31.961Z</time></trkpt><trkpt lat="43.8810465" lon="11.2065698"><ele>361.0</ele><time>2026-03-28T11:44:33.975Z</time></trkpt><trkpt lat="43.8809807" lon="11.2065102"><ele>361.42857142857144</ele><time>2026-03-28T11:44:35.963Z</time></trkpt><trkpt lat="43.8809018" lon="11.206491"><ele>361.85714285714283</ele><time>2026-03-28T11:44:37.958Z</time></trkpt><trkpt lat="43.8808351" lon="11.2064771"><ele>362.2857142857143</ele><time>2026-03-28T11:44:39.965Z</time></trkpt><trkpt lat="43.8807678" lon="11.206463"><ele>362.7142857142857</ele><time>2026-03-28T11:44:41.957Z</time></trkpt><trkpt lat="43.8806929" lon="11.206446"><ele>363.1428571428571</ele><time>2026-03-28T11:44:43.965Z</time></trkpt><trkpt lat="43.8806221" lon="11.2064217"><ele>363.57142857142856</ele><time>2026-03-28T11:44:45.957Z</time></trkpt><trkpt lat="43.8805457" lon="11.2063843"><ele>364.0</ele><time>2026-03-28T11:44:47.961Z</time></trkpt><trkpt lat="43.8804755" lon="11.2063334"><ele>364.0</ele><time>2026-03-28T11:44:49.967Z</time></trkpt><trkpt lat="43.8804144" lon="11.206274"><ele>364.0</ele><time>2026-03-28T11:44:51.954Z</time></trkpt><trkpt lat="43.8803506" lon="11.2062027"><ele>364.0</ele><time>2026-03-28T11:44:53.965Z</time></trkpt><trkpt lat="43.8802813" lon="11.2061332"><ele>364.0</ele><time>2026-03-28T11:44:55.962Z</time></trkpt><trkpt lat="43.8802214" lon="11.206046"><ele>364.0</ele><time>2026-03-28T11:44:57.963Z</time></trkpt><trkpt lat="43.880172" lon="11.205937"><ele>364.0</ele><time>2026-03-28T11:44:59.97Z</time></trkpt><trkpt lat="43.8801269" lon="11.2058404"><ele>365.6</ele><time>2026-03-28T11:45:01.967Z</time></trkpt><trkpt lat="43.8800688" lon="11.2057322"><ele>367.2</ele><time>2026-03-28T11:45:03.963Z</time></trkpt><trkpt lat="43.8800126" lon="11.2056139"><ele>368.8</ele><time>2026-03-28T11:45:05.967Z</time></trkpt><trkpt lat="43.8799424" lon="11.2055174"><ele>370.40000000000003</ele><time>2026-03-28T11:45:07.967Z</time></trkpt><trkpt lat="43.8798627" lon="11.2054409"><ele>372.0</ele><time>2026-03-28T11:45:09.966Z</time></trkpt><trkpt lat="43.8797981" lon="11.2053415"><ele>372.0</ele><time>2026-03-28T11:45:11.977Z</time></trkpt><trkpt lat="43.8797432" lon="11.2052463"><ele>372.0</ele><time>2026-03-28T11:45:13.966Z</time></trkpt><trkpt lat="43.8796861" lon="11.2051577"><ele>372.0</ele><time>2026-03-28T11:45:15.964Z</time></trkpt><trkpt lat="43.8796322" lon="11.2050617"><ele>372.0</ele><time>2026-03-28T11:45:17.964Z</time></trkpt><trkpt lat="43.8795816" lon="11.2049755"><ele>372.0</ele><time>2026-03-28T11:45:19.971Z</time></trkpt><trkpt lat="43.8795203" lon="11.2048907"><ele>372.0</ele><time>2026-03-28T11:45:22.962Z</time></trkpt><trkpt lat="43.8794758" lon="11.20479"><ele>369.7142857142857</ele><time>2026-03-28T11:45:25.947Z</time></trkpt><trkpt lat="43.8794134" lon="11.2046962"><ele>367.42857142857144</ele><time>2026-03-28T11:45:28.962Z</time></trkpt><trkpt lat="43.8793803" lon="11.2046132"><ele>365.1428571428571</ele><time>2026-03-28T11:45:30.967Z</time></trkpt><trkpt lat="43.8793258" lon="11.2045401"><ele>362.8571428571429</ele><time>2026-03-28T11:45:32.975Z</time></trkpt><trkpt lat="43.8792666" lon="11.2044856"><ele>360.57142857142856</ele><time>2026-03-28T11:45:34.958Z</time></trkpt><trkpt lat="43.8791986" lon="11.204457"><ele>358.2857142857143</ele><time>2026-03-28T11:45:36.948Z</time></trkpt><trkpt lat="43.879138" lon="11.2044076"><ele>356.0</ele><time>2026-03-28T11:45:38.965Z</time></trkpt><trkpt lat="43.8790807" lon="11.2043554"><ele>361.33333333333337</ele><time>2026-03-28T11:45:40.952Z</time></trkpt><trkpt lat="43.8790248" lon="11.2043073"><ele>366.6666666666667</ele><time>2026-03-28T11:45:42.969Z</time></trkpt><trkpt lat="43.8789401" lon="11.2042726"><ele>372.0</ele><time>2026-03-28T11:45:44.964Z</time></trkpt><trkpt lat="43.8788675" lon="11.204253"><ele>377.33333333333337</ele><time>2026-03-28T11:45:46.965Z</time></trkpt><trkpt lat="43.8787819" lon="11.2042418"><ele>382.6666666666667</ele><time>2026-03-28T11:45:49.969Z</time></trkpt><trkpt lat="43.8786939" lon="11.2042432"><ele>388.0</ele><time>2026-03-28T11:45:52.963Z</time></trkpt><trkpt lat="43.8786054" lon="11.2042187"><ele>388.00000000000006</ele><time>2026-03-28T11:45:54.967Z</time></trkpt><trkpt lat="43.8785003" lon="11.2041739"><ele>388.0</ele><time>2026-03-28T11:45:56.965Z</time></trkpt><trkpt lat="43.8784191" lon="11.2041288"><ele>388.0</ele><time>2026-03-28T11:45:58.948Z</time></trkpt><trkpt lat="43.878341" lon="11.2041071"><ele>388.0</ele><time>2026-03-28T11:46:00.966Z</time></trkpt><trkpt lat="43.878255" lon="11.2041051"><ele>388.00000000000006</ele><time>2026-03-28T11:46:02.967Z</time></trkpt><trkpt lat="43.8781803" lon="11.2041485"><ele>388.0</ele><time>2026-03-28T11:46:04.97Z</time></trkpt><trkpt lat="43.8781201" lon="11.2042014"><ele>390.00000000000006</ele><time>2026-03-28T11:46:06.964Z</time></trkpt><trkpt lat="43.878061" lon="11.2042604"><ele>392.0</ele><time>2026-03-28T11:46:08.967Z</time></trkpt><trkpt lat="43.8779961" lon="11.2042838"><ele>394.0</ele><time>2026-03-28T11:46:10.958Z</time></trkpt><trkpt lat="43.8779213" lon="11.2042797"><ele>396.0</ele><time>2026-03-28T11:46:12.97Z</time></trkpt><trkpt lat="43.8778297" lon="11.2042713"><ele>398.00000000000006</ele><time>2026-03-28T11:46:14.97Z</time></trkpt><trkpt lat="43.8777439" lon="11.2042719"><ele>400.0</ele><time>2026-03-28T11:46:16.964Z</time></trkpt><trkpt lat="43.8776564" lon="11.2042903"><ele>398.1666666666667</ele><time>2026-03-28T11:46:18.948Z</time></trkpt><trkpt lat="43.8775739" lon="11.2043386"><ele>396.33333333333337</ele><time>2026-03-28T11:46:20.954Z</time></trkpt><trkpt lat="43.8775029" lon="11.2043848"><ele>394.5</ele><time>2026-03-28T11:46:22.967Z</time></trkpt><trkpt lat="43.8774359" lon="11.2044519"><ele>392.66666666666663</ele><time>2026-03-28T11:46:24.972Z</time></trkpt><trkpt lat="43.8773804" lon="11.2045245"><ele>390.8333333333333</ele><time>2026-03-28T11:46:26.96Z</time></trkpt><trkpt lat="43.8773245" lon="11.2045749"><ele>389.0</ele><time>2026-03-28T11:46:28.961Z</time></trkpt><trkpt lat="43.8772479" lon="11.204619"><ele>388.99999999999994</ele><time>2026-03-28T11:46:31.971Z</time></trkpt><trkpt lat="43.8771862" lon="11.2046668"><ele>389.0</ele><time>2026-03-28T11:46:37.94Z</time></trkpt><trkpt lat="43.8771129" lon="11.2047107"><ele>389.0</ele><time>2026-03-28T11:46:47.971Z</time></trkpt><trkpt lat="43.8770403" lon="11.2047585"><ele>389.0</ele><time>2026-03-28T11:46:51.963Z</time></trkpt><trkpt lat="43.8769797" lon="11.204806"><ele>388.99999999999994</ele><time>2026-03-28T11:46:55.944Z</time></trkpt><trkpt lat="43.8769058" lon="11.2048668"><ele>389.0</ele><time>2026-03-28T11:46:58.963Z</time></trkpt><trkpt lat="43.8768846" lon="11.2047772"><ele>388.99999999999994</ele><time>2026-03-28T11:47:03.961Z</time></trkpt><trkpt lat="43.8769169" lon="11.2046943"><ele>389.0</ele><time>2026-03-28T11:47:05.946Z</time></trkpt><trkpt lat="43.8769728" lon="11.2045837"><ele>389.0</ele><time>2026-03-28T11:47:07.961Z</time></trkpt><trkpt lat="43.8770267" lon="11.2044913"><ele>389.0</ele><time>2026-03-28T11:47:09.971Z</time></trkpt><trkpt lat="43.8770857" lon="11.2043852"><ele>388.99999999999994</ele><time>2026-03-28T11:47:11.962Z</time></trkpt><trkpt lat="43.8771299" lon="11.2042916"><ele>389.0</ele><time>2026-03-28T11:47:13.956Z</time></trkpt><trkpt lat="43.877161" lon="11.2041709"><ele>389.0</ele><time>2026-03-28T11:47:16.032Z</time></trkpt><trkpt lat="43.8772044" lon="11.204037"><ele>389.0</ele><time>2026-03-28T11:47:17.961Z</time></trkpt><trkpt lat="43.8772227" lon="11.2038965"><ele>389.0</ele><time>2026-03-28T11:47:19.958Z</time></trkpt><trkpt lat="43.8771967" lon="11.2037611"><ele>389.0</ele><time>2026-03-28T11:47:21.967Z</time></trkpt><trkpt lat="43.8771432" lon="11.2036104"><ele>389.0</ele><time>2026-03-28T11:47:23.953Z</time></trkpt><trkpt lat="43.8771217" lon="11.2035264"><ele>389.8571428571429</ele><time>2026-03-28T11:47:24.968Z</time></trkpt><trkpt lat="43.8770898" lon="11.2034493"><ele>390.71428571428567</ele><time>2026-03-28T11:47:25.957Z</time></trkpt><trkpt lat="43.8770502" lon="11.2033748"><ele>391.57142857142856</ele><time>2026-03-28T11:47:26.96Z</time></trkpt><trkpt lat="43.8770071" lon="11.2033101"><ele>392.42857142857144</ele><time>2026-03-28T11:47:27.965Z</time></trkpt><trkpt lat="43.8769637" lon="11.2032353"><ele>393.28571428571433</ele><time>2026-03-28T11:47:28.96Z</time></trkpt><trkpt lat="43.8769194" lon="11.2031616"><ele>394.1428571428571</ele><time>2026-03-28T11:47:29.962Z</time></trkpt><trkpt lat="43.8768746" lon="11.203084"><ele>395.0</ele><time>2026-03-28T11:47:30.957Z</time></trkpt><trkpt lat="43.8768366" lon="11.2030134"><ele>396.6</ele><time>2026-03-28T11:47:31.941Z</time></trkpt><trkpt lat="43.8767917" lon="11.2029439"><ele>398.2</ele><time>2026-03-28T11:47:32.958Z</time></trkpt><trkpt lat="43.8767039" lon="11.2028108"><ele>399.79999999999995</ele><time>2026-03-28T11:47:34.96Z</time></trkpt><trkpt lat="43.8766265" lon="11.2026847"><ele>401.4</ele><time>2026-03-28T11:47:36.964Z</time></trkpt><trkpt lat="43.8765837" lon="11.2026142"><ele>403.0</ele><time>2026-03-28T11:47:37.965Z</time></trkpt><trkpt lat="43.8765096" lon="11.2024899"><ele>395.75</ele><time>2026-03-28T11:47:40.015Z</time></trkpt><trkpt lat="43.8764454" lon="11.2023408"><ele>388.5</ele><time>2026-03-28T11:47:42.026Z</time></trkpt><trkpt lat="43.8763896" lon="11.2021949"><ele>381.25</ele><time>2026-03-28T11:47:43.965Z</time></trkpt><trkpt lat="43.8763462" lon="11.2020416"><ele>374.0</ele><time>2026-03-28T11:47:45.961Z</time></trkpt><trkpt lat="43.8762925" lon="11.201888"><ele>374.0</ele><time>2026-03-28T11:47:47.959Z</time></trkpt><trkpt lat="43.8762607" lon="11.2018108"><ele>374.0</ele><time>2026-03-28T11:47:48.963Z</time></trkpt><trkpt lat="43.8762204" lon="11.2017285"><ele>374.0</ele><time>2026-03-28T11:47:49.961Z</time></trkpt><trkpt lat="43.8761821" lon="11.2016429"><ele>374.0</ele><time>2026-03-28T11:47:50.969Z</time></trkpt><trkpt lat="43.8761451" lon="11.2015698"><ele>374.0</ele><time>2026-03-28T11:47:51.962Z</time></trkpt><trkpt lat="43.8760996" lon="11.2015094"><ele>374.0</ele><time>2026-03-28T11:47:52.957Z</time></trkpt><trkpt lat="43.8760098" lon="11.2013901"><ele>369.75</ele><time>2026-03-28T11:47:54.962Z</time></trkpt><trkpt lat="43.8759142" lon="11.2012895"><ele>365.5</ele><time>2026-03-28T11:47:57.032Z</time></trkpt><trkpt lat="43.8758173" lon="11.2011846"><ele>361.25</ele><time>2026-03-28T11:47:58.955Z</time></trkpt><trkpt lat="43.8757233" lon="11.2010944"><ele>357.0</ele><time>2026-03-28T11:48:00.983Z</time></trkpt><trkpt lat="43.8756247" lon="11.200995"><ele>357.0</ele><time>2026-03-28T11:48:02.969Z</time></trkpt><trkpt lat="43.8755284" lon="11.2009375"><ele>357.0</ele><time>2026-03-28T11:48:04.967Z</time></trkpt><trkpt lat="43.875423" lon="11.2008643"><ele>357.0</ele><time>2026-03-28T11:48:06.976Z</time></trkpt><trkpt lat="43.8753211" lon="11.2008254"><ele>357.0</ele><time>2026-03-28T11:48:08.96Z</time></trkpt><trkpt lat="43.8752322" lon="11.2007546"><ele>357.0</ele><time>2026-03-28T11:48:10.969Z</time></trkpt><trkpt lat="43.875157" lon="11.200654"><ele>354.0</ele><time>2026-03-28T11:48:13.006Z</time></trkpt><trkpt lat="43.8750935" lon="11.2005251"><ele>351.0</ele><time>2026-03-28T11:48:14.969Z</time></trkpt><trkpt lat="43.8750398" lon="11.200388"><ele>348.0</ele><time>2026-03-28T11:48:16.963Z</time></trkpt><trkpt lat="43.8749942" lon="11.2002516"><ele>345.0</ele><time>2026-03-28T11:48:18.97Z</time></trkpt><trkpt lat="43.874906" lon="11.2001209"><ele>345.0</ele><time>2026-03-28T11:48:20.967Z</time></trkpt><trkpt lat="43.8748561" lon="11.2000646"><ele>345.0</ele><time>2026-03-28T11:48:21.969Z</time></trkpt><trkpt lat="43.8748002" lon="11.200019"><ele>345.0</ele><time>2026-03-28T11:48:22.969Z</time></trkpt><trkpt lat="43.8746764" lon="11.1999444"><ele>345.0</ele><time>2026-03-28T11:48:24.962Z</time></trkpt><trkpt lat="43.8746096" lon="11.1999116"><ele>345.0</ele><time>2026-03-28T11:48:26.035Z</time></trkpt><trkpt lat="43.8745455" lon="11.1998656"><ele>345.0</ele><time>2026-03-28T11:48:26.979Z</time></trkpt><trkpt lat="43.8744819" lon="11.1998136"><ele>343.2857142857143</ele><time>2026-03-28T11:48:28.055Z</time></trkpt><trkpt lat="43.8744187" lon="11.1997596"><ele>341.57142857142856</ele><time>2026-03-28T11:48:28.962Z</time></trkpt><trkpt lat="43.8743552" lon="11.1997019"><ele>339.8571428571429</ele><time>2026-03-28T11:48:29.965Z</time></trkpt><trkpt lat="43.8742951" lon="11.1996484"><ele>338.1428571428571</ele><time>2026-03-28T11:48:30.966Z</time></trkpt><trkpt lat="43.8742447" lon="11.1995875"><ele>336.4285714285714</ele><time>2026-03-28T11:48:31.961Z</time></trkpt><trkpt lat="43.8741918" lon="11.1995221"><ele>334.7142857142857</ele><time>2026-03-28T11:48:32.962Z</time></trkpt><trkpt lat="43.874142" lon="11.1994561"><ele>333.0</ele><time>2026-03-28T11:48:33.965Z</time></trkpt><trkpt lat="43.8740996" lon="11.1993769"><ele>333.0</ele><time>2026-03-28T11:48:35.017Z</time></trkpt><trkpt lat="43.8740529" lon="11.1992966"><ele>333.0</ele><time>2026-03-28T11:48:36.018Z</time></trkpt><trkpt lat="43.8739934" lon="11.1992204"><ele>333.0</ele><time>2026-03-28T11:48:36.966Z</time></trkpt><trkpt lat="43.8739275" lon="11.199157"><ele>333.0</ele><time>2026-03-28T11:48:37.972Z</time></trkpt><trkpt lat="43.8738611" lon="11.1990974"><ele>333.0</ele><time>2026-03-28T11:48:38.96Z</time></trkpt><trkpt lat="43.8737987" lon="11.1990409"><ele>333.0</ele><time>2026-03-28T11:48:39.958Z</time></trkpt><trkpt lat="43.8737375" lon="11.1989913"><ele>331.5714285714286</ele><time>2026-03-28T11:48:40.958Z</time></trkpt><trkpt lat="43.8736822" lon="11.1989441"><ele>330.1428571428571</ele><time>2026-03-28T11:48:42.037Z</time></trkpt><trkpt lat="43.8736196" lon="11.1988978"><ele>328.7142857142857</ele><time>2026-03-28T11:48:43.03Z</time></trkpt><trkpt lat="43.8735649" lon="11.1988495"><ele>327.28571428571433</ele><time>2026-03-28T11:48:43.966Z</time></trkpt><trkpt lat="43.8735049" lon="11.1987967"><ele>325.8571428571429</ele><time>2026-03-28T11:48:44.962Z</time></trkpt><trkpt lat="43.8734425" lon="11.1987388"><ele>324.42857142857144</ele><time>2026-03-28T11:48:45.96Z</time></trkpt><trkpt lat="43.8733846" lon="11.1986752"><ele>323.0</ele><time>2026-03-28T11:48:47.017Z</time></trkpt><trkpt lat="43.8733242" lon="11.1986051"><ele>323.0</ele><time>2026-03-28T11:48:47.966Z</time></trkpt><trkpt lat="43.8732661" lon="11.1985309"><ele>323.0</ele><time>2026-03-28T11:48:48.963Z</time></trkpt><trkpt lat="43.8732077" lon="11.1984562"><ele>323.0</ele><time>2026-03-28T11:48:49.964Z</time></trkpt><trkpt lat="43.8731532" lon="11.1983846"><ele>323.0</ele><time>2026-03-28T11:48:50.965Z</time></trkpt><trkpt lat="43.8731027" lon="11.1983084"><ele>323.0</ele><time>2026-03-28T11:48:51.961Z</time></trkpt><trkpt lat="43.8730517" lon="11.1982266"><ele>323.0</ele><time>2026-03-28T11:48:52.965Z</time></trkpt><trkpt lat="43.8730059" lon="11.1981486"><ele>326.6666666666667</ele><time>2026-03-28T11:48:53.962Z</time></trkpt><trkpt lat="43.8729507" lon="11.198068"><ele>330.33333333333337</ele><time>2026-03-28T11:48:55.032Z</time></trkpt><trkpt lat="43.8728904" lon="11.1979988"><ele>334.0</ele><time>2026-03-28T11:48:56.033Z</time></trkpt><trkpt lat="43.8728287" lon="11.1979294"><ele>337.6666666666667</ele><time>2026-03-28T11:48:57.03Z</time></trkpt><trkpt lat="43.87277" lon="11.1978562"><ele>341.3333333333333</ele><time>2026-03-28T11:48:58.036Z</time></trkpt><trkpt lat="43.8727151" lon="11.1977857"><ele>345.0</ele><time>2026-03-28T11:48:58.951Z</time></trkpt><trkpt lat="43.8726628" lon="11.1977132"><ele>345.0</ele><time>2026-03-28T11:48:59.978Z</time></trkpt><trkpt lat="43.8726066" lon="11.1976489"><ele>345.0</ele><time>2026-03-28T11:49:00.98Z</time></trkpt><trkpt lat="43.8725524" lon="11.1975828"><ele>345.0</ele><time>2026-03-28T11:49:01.968Z</time></trkpt><trkpt lat="43.8724971" lon="11.1975205"><ele>345.0</ele><time>2026-03-28T11:49:02.969Z</time></trkpt><trkpt lat="43.872441" lon="11.197453"><ele>345.0</ele><time>2026-03-28T11:49:03.96Z</time></trkpt><trkpt lat="43.8723861" lon="11.1973931"><ele>345.0</ele><time>2026-03-28T11:49:04.971Z</time></trkpt><trkpt lat="43.8723309" lon="11.1973343"><ele>345.0</ele><time>2026-03-28T11:49:05.966Z</time></trkpt><trkpt lat="43.8722762" lon="11.1972668"><ele>343.2857142857143</ele><time>2026-03-28T11:49:06.944Z</time></trkpt><trkpt lat="43.8722188" lon="11.1972083"><ele>341.57142857142856</ele><time>2026-03-28T11:49:07.948Z</time></trkpt><trkpt lat="43.8721656" lon="11.1971331"><ele>339.8571428571429</ele><time>2026-03-28T11:49:08.949Z</time></trkpt><trkpt lat="43.8721128" lon="11.1970627"><ele>338.1428571428571</ele><time>2026-03-28T11:49:09.96Z</time></trkpt><trkpt lat="43.8720597" lon="11.197001"><ele>336.4285714285714</ele><time>2026-03-28T11:49:10.967Z</time></trkpt><trkpt lat="43.8720069" lon="11.196931"><ele>334.7142857142857</ele><time>2026-03-28T11:49:11.955Z</time></trkpt><trkpt lat="43.8719596" lon="11.1968566"><ele>333.0</ele><time>2026-03-28T11:49:12.966Z</time></trkpt><trkpt lat="43.8719115" lon="11.1967885"><ele>333.0</ele><time>2026-03-28T11:49:13.968Z</time></trkpt><trkpt lat="43.871861" lon="11.1967192"><ele>333.0</ele><time>2026-03-28T11:49:14.968Z</time></trkpt><trkpt lat="43.8718116" lon="11.1966558"><ele>333.0</ele><time>2026-03-28T11:49:15.966Z</time></trkpt><trkpt lat="43.8717111" lon="11.196536"><ele>333.0</ele><time>2026-03-28T11:49:17.969Z</time></trkpt><trkpt lat="43.8716643" lon="11.1964729"><ele>333.0</ele><time>2026-03-28T11:49:18.967Z</time></trkpt><trkpt lat="43.8716197" lon="11.1964101"><ele>333.0</ele><time>2026-03-28T11:49:19.966Z</time></trkpt><trkpt lat="43.8715716" lon="11.1963485"><ele>329.6666666666667</ele><time>2026-03-28T11:49:20.965Z</time></trkpt><trkpt lat="43.8715139" lon="11.1962915"><ele>326.3333333333333</ele><time>2026-03-28T11:49:21.962Z</time></trkpt><trkpt lat="43.8714073" lon="11.1961895"><ele>323.0</ele><time>2026-03-28T11:49:23.957Z</time></trkpt><trkpt lat="43.8713484" lon="11.1961381"><ele>319.66666666666663</ele><time>2026-03-28T11:49:24.963Z</time></trkpt><trkpt lat="43.871291" lon="11.196079"><ele>316.3333333333333</ele><time>2026-03-28T11:49:25.967Z</time></trkpt><trkpt lat="43.8712353" lon="11.1960154"><ele>313.0</ele><time>2026-03-28T11:49:26.971Z</time></trkpt><trkpt lat="43.8711847" lon="11.1959522"><ele>313.0</ele><time>2026-03-28T11:49:27.972Z</time></trkpt><trkpt lat="43.8711371" lon="11.1958801"><ele>313.0</ele><time>2026-03-28T11:49:28.955Z</time></trkpt><trkpt lat="43.8710938" lon="11.1958098"><ele>313.0</ele><time>2026-03-28T11:49:29.969Z</time></trkpt><trkpt lat="43.8710434" lon="11.195745"><ele>313.0</ele><time>2026-03-28T11:49:30.971Z</time></trkpt><trkpt lat="43.8709937" lon="11.1956719"><ele>313.0</ele><time>2026-03-28T11:49:31.966Z</time></trkpt><trkpt lat="43.8709483" lon="11.1955891"><ele>313.0</ele><time>2026-03-28T11:49:32.97Z</time></trkpt><trkpt lat="43.870901" lon="11.1955024"><ele>313.0</ele><time>2026-03-28T11:49:33.943Z</time></trkpt><trkpt lat="43.8708565" lon="11.1954144"><ele>309.16666666666663</ele><time>2026-03-28T11:49:34.969Z</time></trkpt><trkpt lat="43.8708128" lon="11.1953227"><ele>305.3333333333333</ele><time>2026-03-28T11:49:35.949Z</time></trkpt><trkpt lat="43.8707811" lon="11.1952121"><ele>301.5</ele><time>2026-03-28T11:49:36.968Z</time></trkpt><trkpt lat="43.8707535" lon="11.195113"><ele>297.6666666666667</ele><time>2026-03-28T11:49:37.969Z</time></trkpt><trkpt lat="43.8707342" lon="11.1950157"><ele>293.83333333333337</ele><time>2026-03-28T11:49:38.967Z</time></trkpt><trkpt lat="43.8707105" lon="11.1949203"><ele>290.0</ele><time>2026-03-28T11:49:39.956Z</time></trkpt><trkpt lat="43.8706914" lon="11.1947511"><ele>289.5</ele><time>2026-03-28T11:49:41.975Z</time></trkpt><trkpt lat="43.8707022" lon="11.1945965"><ele>289.0</ele><time>2026-03-28T11:49:43.97Z</time></trkpt><trkpt lat="43.8707099" lon="11.1944684"><ele>288.5</ele><time>2026-03-28T11:49:45.972Z</time></trkpt><trkpt lat="43.8706971" lon="11.1943706"><ele>288.0</ele><time>2026-03-28T11:49:47.961Z</time></trkpt><trkpt lat="43.8707712" lon="11.1943297"><ele>287.5</ele><time>2026-03-28T11:49:53.974Z</time></trkpt><trkpt lat="43.8708423" lon="11.1943663"><ele>287.0</ele><time>2026-03-28T11:49:56.958Z</time></trkpt><trkpt lat="43.87092" lon="11.1943646"><ele>291.1666666666667</ele><time>2026-03-28T11:49:59.968Z</time></trkpt><trkpt lat="43.8709815" lon="11.1943238"><ele>295.33333333333337</ele><time>2026-03-28T11:50:02.97Z</time></trkpt><trkpt lat="43.8710264" lon="11.1942446"><ele>299.5</ele><time>2026-03-28T11:50:05.969Z</time></trkpt><trkpt lat="43.8710604" lon="11.194146"><ele>303.6666666666667</ele><time>2026-03-28T11:50:08.964Z</time></trkpt><trkpt lat="43.8710933" lon="11.1940164"><ele>307.8333333333333</ele><time>2026-03-28T11:50:10.96Z</time></trkpt><trkpt lat="43.8711002" lon="11.1939249"><ele>312.0</ele><time>2026-03-28T11:50:11.963Z</time></trkpt><trkpt lat="43.8710811" lon="11.1937942"><ele>312.0</ele><time>2026-03-28T11:50:13.966Z</time></trkpt><trkpt lat="43.8710773" lon="11.1936762"><ele>312.0</ele><time>2026-03-28T11:50:16.02Z</time></trkpt><trkpt lat="43.871065" lon="11.1935693"><ele>312.0</ele><time>2026-03-28T11:50:18.021Z</time></trkpt><trkpt lat="43.8710422" lon="11.193475"><ele>312.0</ele><time>2026-03-28T11:50:19.973Z</time></trkpt><trkpt lat="43.8710086" lon="11.1933657"><ele>312.0</ele><time>2026-03-28T11:50:22.971Z</time></trkpt><trkpt lat="43.8710007" lon="11.1932699"><ele>312.0</ele><time>2026-03-28T11:50:25.964Z</time></trkpt><trkpt lat="43.8709986" lon="11.1931769"><ele>311.1666666666667</ele><time>2026-03-28T11:50:28.967Z</time></trkpt><trkpt lat="43.8710337" lon="11.1930913"><ele>310.3333333333333</ele><time>2026-03-28T11:50:30.96Z</time></trkpt><trkpt lat="43.8710814" lon="11.1929907"><ele>309.5</ele><time>2026-03-28T11:50:33.062Z</time></trkpt><trkpt lat="43.8711218" lon="11.1928984"><ele>308.66666666666663</ele><time>2026-03-28T11:50:34.969Z</time></trkpt><trkpt lat="43.8711609" lon="11.1928061"><ele>307.8333333333333</ele><time>2026-03-28T11:50:36.98Z</time></trkpt><trkpt lat="43.8712012" lon="11.1927233"><ele>307.0</ele><time>2026-03-28T11:50:38.968Z</time></trkpt><trkpt lat="43.8712573" lon="11.1926457"><ele>307.0</ele><time>2026-03-28T11:50:40.962Z</time></trkpt><trkpt lat="43.8713217" lon="11.1925661"><ele>307.0</ele><time>2026-03-28T11:50:43.037Z</time></trkpt><trkpt lat="43.8713805" lon="11.1924887"><ele>307.0</ele><time>2026-03-28T11:50:44.943Z</time></trkpt><trkpt lat="43.8714378" lon="11.1924089"><ele>307.0</ele><time>2026-03-28T11:50:46.958Z</time></trkpt><trkpt lat="43.8715012" lon="11.1923276"><ele>307.0</ele><time>2026-03-28T11:50:48.969Z</time></trkpt><trkpt lat="43.871561" lon="11.1922527"><ele>307.0</ele><time>2026-03-28T11:50:50.972Z</time></trkpt><trkpt lat="43.8716083" lon="11.1921873"><ele>308.3333333333333</ele><time>2026-03-28T11:50:53.028Z</time></trkpt><trkpt lat="43.871656" lon="11.1921155"><ele>309.66666666666663</ele><time>2026-03-28T11:50:54.961Z</time></trkpt><trkpt lat="43.8717" lon="11.1920308"><ele>311.0</ele><time>2026-03-28T11:50:56.969Z</time></trkpt><trkpt lat="43.8717522" lon="11.1919241"><ele>312.3333333333333</ele><time>2026-03-28T11:50:58.957Z</time></trkpt><trkpt lat="43.8718143" lon="11.1918138"><ele>313.6666666666667</ele><time>2026-03-28T11:51:00.966Z</time></trkpt><trkpt lat="43.8718856" lon="11.1917361"><ele>315.0</ele><time>2026-03-28T11:51:03.025Z</time></trkpt><trkpt lat="43.8719467" lon="11.191632"><ele>315.0</ele><time>2026-03-28T11:51:04.962Z</time></trkpt><trkpt lat="43.8719986" lon="11.1915123"><ele>315.0</ele><time>2026-03-28T11:51:06.953Z</time></trkpt><trkpt lat="43.8720513" lon="11.1914003"><ele>315.0</ele><time>2026-03-28T11:51:08.968Z</time></trkpt><trkpt lat="43.8720802" lon="11.1912892"><ele>315.0</ele><time>2026-03-28T11:51:11.028Z</time></trkpt><trkpt lat="43.8721003" lon="11.1911702"><ele>315.0</ele><time>2026-03-28T11:51:13.026Z</time></trkpt><trkpt lat="43.8721243" lon="11.1910239"><ele>312.8333333333333</ele><time>2026-03-28T11:51:14.974Z</time></trkpt><trkpt lat="43.872153" lon="11.1909202"><ele>310.6666666666667</ele><time>2026-03-28T11:51:16.972Z</time></trkpt><trkpt lat="43.872213" lon="11.190873"><ele>308.5</ele><time>2026-03-28T11:51:19.966Z</time></trkpt><trkpt lat="43.8722785" lon="11.1908365"><ele>306.33333333333337</ele><time>2026-03-28T11:51:22.978Z</time></trkpt><trkpt lat="43.8723286" lon="11.1907557"><ele>304.1666666666667</ele><time>2026-03-28T11:51:26.969Z</time></trkpt><trkpt lat="43.8723965" lon="11.1907149"><ele>302.0</ele><time>2026-03-28T11:51:29.977Z</time></trkpt><trkpt lat="43.8724686" lon="11.1906522"><ele>299.6666666666667</ele><time>2026-03-28T11:51:34.968Z</time></trkpt><trkpt lat="43.8725344" lon="11.1906226"><ele>297.33333333333337</ele><time>2026-03-28T11:51:38.974Z</time></trkpt><trkpt lat="43.8725916" lon="11.1905384"><ele>295.0</ele><time>2026-03-28T11:51:43.977Z</time></trkpt><trkpt lat="43.8726493" lon="11.1904561"><ele>292.6666666666667</ele><time>2026-03-28T11:51:46.968Z</time></trkpt><trkpt lat="43.8727183" lon="11.190389"><ele>290.3333333333333</ele><time>2026-03-28T11:51:48.966Z</time></trkpt><trkpt lat="43.8727735" lon="11.1903329"><ele>288.0</ele><time>2026-03-28T11:51:50.978Z</time></trkpt><trkpt lat="43.872855" lon="11.1902501"><ele>288.0</ele><time>2026-03-28T11:51:52.973Z</time></trkpt><trkpt lat="43.8729327" lon="11.1901385"><ele>288.0</ele><time>2026-03-28T11:51:54.996Z</time></trkpt><trkpt lat="43.872997" lon="11.190013"><ele>288.0</ele><time>2026-03-28T11:51:56.976Z</time></trkpt><trkpt lat="43.8730608" lon="11.1899225"><ele>288.0</ele><time>2026-03-28T11:51:58.97Z</time></trkpt><trkpt lat="43.8731161" lon="11.1898356"><ele>288.0</ele><time>2026-03-28T11:52:00.966Z</time></trkpt><trkpt lat="43.8731766" lon="11.1898037"><ele>288.1666666666667</ele><time>2026-03-28T11:52:02.98Z</time></trkpt><trkpt lat="43.8732375" lon="11.1897354"><ele>288.3333333333333</ele><time>2026-03-28T11:52:05.048Z</time></trkpt><trkpt lat="43.8732781" lon="11.1896529"><ele>288.5</ele><time>2026-03-28T11:52:07.029Z</time></trkpt><trkpt lat="43.8733156" lon="11.1895522"><ele>288.66666666666663</ele><time>2026-03-28T11:52:08.96Z</time></trkpt><trkpt lat="43.8733563" lon="11.189452"><ele>288.8333333333333</ele><time>2026-03-28T11:52:10.956Z</time></trkpt><trkpt lat="43.8734152" lon="11.1893625"><ele>289.0</ele><time>2026-03-28T11:52:13.031Z</time></trkpt><trkpt lat="43.8734868" lon="11.1892809"><ele>288.3333333333333</ele><time>2026-03-28T11:52:14.969Z</time></trkpt><trkpt lat="43.873557" lon="11.1892108"><ele>287.66666666666663</ele><time>2026-03-28T11:52:16.968Z</time></trkpt><trkpt lat="43.8736277" lon="11.1891684"><ele>287.0</ele><time>2026-03-28T11:52:18.971Z</time></trkpt><trkpt lat="43.8737088" lon="11.1891358"><ele>286.3333333333333</ele><time>2026-03-28T11:52:21.044Z</time></trkpt><trkpt lat="43.8737818" lon="11.1891037"><ele>285.6666666666667</ele><time>2026-03-28T11:52:22.952Z</time></trkpt><trkpt lat="43.8738538" lon="11.1890553"><ele>285.0</ele><time>2026-03-28T11:52:24.962Z</time></trkpt><trkpt lat="43.8739121" lon="11.1890195"><ele>284.2857142857143</ele><time>2026-03-28T11:52:27.027Z</time></trkpt><trkpt lat="43.8739644" lon="11.1889595"><ele>283.57142857142856</ele><time>2026-03-28T11:52:28.962Z</time></trkpt><trkpt lat="43.8740111" lon="11.1888852"><ele>282.8571428571429</ele><time>2026-03-28T11:52:30.984Z</time></trkpt><trkpt lat="43.8740554" lon="11.1888114"><ele>282.1428571428571</ele><time>2026-03-28T11:52:32.98Z</time></trkpt><trkpt lat="43.8740986" lon="11.1887197"><ele>281.42857142857144</ele><time>2026-03-28T11:52:35.974Z</time></trkpt><trkpt lat="43.8741113" lon="11.1886222"><ele>280.7142857142857</ele><time>2026-03-28T11:52:39.977Z</time></trkpt><trkpt lat="43.8741151" lon="11.188527"><ele>280.0</ele><time>2026-03-28T11:52:43.968Z</time></trkpt><trkpt lat="43.8741038" lon="11.1884268"><ele>280.0</ele><time>2026-03-28T11:52:48.032Z</time></trkpt><trkpt lat="43.8741162" lon="11.1882882"><ele>280.0</ele><time>2026-03-28T11:52:53.956Z</time></trkpt><trkpt lat="43.8741509" lon="11.1882006"><ele>280.0</ele><time>2026-03-28T11:52:57.006Z</time></trkpt><trkpt lat="43.8741547" lon="11.1881051"><ele>280.0</ele><time>2026-03-28T11:52:59.965Z</time></trkpt><trkpt lat="43.874177" lon="11.1880133"><ele>280.0</ele><time>2026-03-28T11:53:03.968Z</time></trkpt><trkpt lat="43.8742143" lon="11.1878661"><ele>280.0</ele><time>2026-03-28T11:53:07.971Z</time></trkpt><trkpt lat="43.8741949" lon="11.1877497"><ele>278.5</ele><time>2026-03-28T11:53:10.968Z</time></trkpt><trkpt lat="43.8741271" lon="11.1876968"><ele>277.0</ele><time>2026-03-28T11:53:15.03Z</time></trkpt><trkpt lat="43.8740329" lon="11.1876849"><ele>275.5</ele><time>2026-03-28T11:53:17.961Z</time></trkpt><trkpt lat="43.8739563" lon="11.1876662"><ele>274.0</ele><time>2026-03-28T11:53:19.96Z</time></trkpt><trkpt lat="43.8738724" lon="11.1876303"><ele>272.5</ele><time>2026-03-28T11:53:22.033Z</time></trkpt><trkpt lat="43.8737912" lon="11.1875978"><ele>271.0</ele><time>2026-03-28T11:53:23.966Z</time></trkpt><trkpt lat="43.8737186" lon="11.1875775"><ele>271.0</ele><time>2026-03-28T11:53:25.942Z</time></trkpt><trkpt lat="43.8736377" lon="11.1875593"><ele>271.0</ele><time>2026-03-28T11:53:27.969Z</time></trkpt><trkpt lat="43.8735511" lon="11.1875411"><ele>271.0</ele><time>2026-03-28T11:53:29.967Z</time></trkpt><trkpt lat="43.8734627" lon="11.187507"><ele>271.0</ele><time>2026-03-28T11:53:31.968Z</time></trkpt><trkpt lat="43.8733885" lon="11.1874854"><ele>271.0</ele><time>2026-03-28T11:53:33.967Z</time></trkpt><trkpt lat="43.8732955" lon="11.1874536"><ele>271.0</ele><time>2026-03-28T11:53:36.009Z</time></trkpt><trkpt lat="43.8731894" lon="11.1874367"><ele>270.66666666666663</ele><time>2026-03-28T11:53:37.965Z</time></trkpt><trkpt lat="43.8730841" lon="11.1874173"><ele>270.3333333333333</ele><time>2026-03-28T11:53:39.958Z</time></trkpt><trkpt lat="43.8729889" lon="11.1873901"><ele>270.0</ele><time>2026-03-28T11:53:41.954Z</time></trkpt><trkpt lat="43.8729254" lon="11.1873786"><ele>269.6666666666667</ele><time>2026-03-28T11:53:43.007Z</time></trkpt><trkpt lat="43.8728576" lon="11.1873785"><ele>269.33333333333337</ele><time>2026-03-28T11:53:43.961Z</time></trkpt><trkpt lat="43.8727864" lon="11.1873672"><ele>269.0</ele><time>2026-03-28T11:53:44.958Z</time></trkpt><trkpt lat="43.8726618" lon="11.1873885"><ele>266.8</ele><time>2026-03-28T11:53:46.969Z</time></trkpt><trkpt lat="43.872545" lon="11.1873939"><ele>264.59999999999997</ele><time>2026-03-28T11:53:48.951Z</time></trkpt><trkpt lat="43.8724394" lon="11.187388"><ele>262.4</ele><time>2026-03-28T11:53:50.965Z</time></trkpt><trkpt lat="43.8723411" lon="11.1873922"><ele>260.2</ele><time>2026-03-28T11:53:52.967Z</time></trkpt><trkpt lat="43.8722541" lon="11.1874002"><ele>258.0</ele><time>2026-03-28T11:53:54.962Z</time></trkpt><trkpt lat="43.8721835" lon="11.1873977"><ele>258.0</ele><time>2026-03-28T11:53:56.944Z</time></trkpt><trkpt lat="43.8720993" lon="11.187378"><ele>258.0</ele><time>2026-03-28T11:53:58.956Z</time></trkpt><trkpt lat="43.872014" lon="11.1873532"><ele>258.0</ele><time>2026-03-28T11:54:01.029Z</time></trkpt><trkpt lat="43.8719363" lon="11.1873377"><ele>258.0</ele><time>2026-03-28T11:54:02.956Z</time></trkpt><trkpt lat="43.8718494" lon="11.18735"><ele>258.0</ele><time>2026-03-28T11:54:04.962Z</time></trkpt><trkpt lat="43.8717488" lon="11.1873946"><ele>258.0</ele><time>2026-03-28T11:54:06.951Z</time></trkpt><trkpt lat="43.8716682" lon="11.1874068"><ele>255.5</ele><time>2026-03-28T11:54:08.974Z</time></trkpt><trkpt lat="43.871605" lon="11.18742"><ele>253.0</ele><time>2026-03-28T11:54:10.965Z</time></trkpt><trkpt lat="43.871537" lon="11.1874571"><ele>250.5</ele><time>2026-03-28T11:54:12.962Z</time></trkpt><trkpt lat="43.8714474" lon="11.1874759"><ele>248.0</ele><time>2026-03-28T11:54:14.963Z</time></trkpt><trkpt lat="43.8713317" lon="11.1874794"><ele>245.5</ele><time>2026-03-28T11:54:16.953Z</time></trkpt><trkpt lat="43.8712657" lon="11.1874852"><ele>243.0</ele><time>2026-03-28T11:54:17.98Z</time></trkpt><trkpt lat="43.8712003" lon="11.1874894"><ele>243.0</ele><time>2026-03-28T11:54:18.973Z</time></trkpt><trkpt lat="43.8710724" lon="11.1874901"><ele>243.0</ele><time>2026-03-28T11:54:20.978Z</time></trkpt><trkpt lat="43.8710093" lon="11.1874581"><ele>243.0</ele><time>2026-03-28T11:54:21.978Z</time></trkpt><trkpt lat="43.870912" lon="11.1874029"><ele>243.0</ele><time>2026-03-28T11:54:23.961Z</time></trkpt><trkpt lat="43.8708183" lon="11.1873466"><ele>243.0</ele><time>2026-03-28T11:54:25.98Z</time></trkpt><trkpt lat="43.8707211" lon="11.1872821"><ele>237.85714285714286</ele><time>2026-03-28T11:54:28.029Z</time></trkpt><trkpt lat="43.8706509" lon="11.1872348"><ele>232.71428571428572</ele><time>2026-03-28T11:54:29.96Z</time></trkpt><trkpt lat="43.8706528" lon="11.187133"><ele>227.57142857142858</ele><time>2026-03-28T11:54:34.964Z</time></trkpt><trkpt lat="43.8707065" lon="11.1870819"><ele>222.42857142857144</ele><time>2026-03-28T11:54:37.034Z</time></trkpt><trkpt lat="43.870736" lon="11.1869842"><ele>217.28571428571428</ele><time>2026-03-28T11:54:39.959Z</time></trkpt><trkpt lat="43.8706819" lon="11.1869311"><ele>212.14285714285717</ele><time>2026-03-28T11:54:42.959Z</time></trkpt><trkpt lat="43.870613" lon="11.1868886"><ele>207.0</ele><time>2026-03-28T11:54:45.951Z</time></trkpt><trkpt lat="43.8705189" lon="11.1868802"><ele>207.00000000000003</ele><time>2026-03-28T11:54:48.966Z</time></trkpt><trkpt lat="43.8704572" lon="11.186903"><ele>207.0</ele><time>2026-03-28T11:54:50.962Z</time></trkpt><trkpt lat="43.8703962" lon="11.1869762"><ele>207.0</ele><time>2026-03-28T11:54:53.968Z</time></trkpt><trkpt lat="43.8703461" lon="11.1870371"><ele>207.0</ele><time>2026-03-28T11:54:56Z</time></trkpt><trkpt lat="43.870293" lon="11.1870868"><ele>207.0</ele><time>2026-03-28T11:54:57.97Z</time></trkpt><trkpt lat="43.8702185" lon="11.1870802"><ele>207.00000000000003</ele><time>2026-03-28T11:55:01.043Z</time></trkpt><trkpt lat="43.8701552" lon="11.1870616"><ele>207.0</ele><time>2026-03-28T11:55:02.979Z</time></trkpt><trkpt lat="43.8700782" lon="11.1870109"><ele>204.2</ele><time>2026-03-28T11:55:04.968Z</time></trkpt><trkpt lat="43.8700057" lon="11.1869038"><ele>201.39999999999998</ele><time>2026-03-28T11:55:06.973Z</time></trkpt><trkpt lat="43.8699125" lon="11.1867913"><ele>198.60000000000002</ele><time>2026-03-28T11:55:08.969Z</time></trkpt><trkpt lat="43.8698646" lon="11.186734"><ele>195.8</ele><time>2026-03-28T11:55:09.969Z</time></trkpt><trkpt lat="43.8697572" lon="11.1866483"><ele>193.0</ele><time>2026-03-28T11:55:12.022Z</time></trkpt><trkpt lat="43.8696866" lon="11.1866339"><ele>192.99999999999997</ele><time>2026-03-28T11:55:12.965Z</time></trkpt><trkpt lat="43.8696079" lon="11.1866167"><ele>193.0</ele><time>2026-03-28T11:55:13.975Z</time></trkpt><trkpt lat="43.8695281" lon="11.1865921"><ele>193.0</ele><time>2026-03-28T11:55:14.973Z</time></trkpt><trkpt lat="43.8694444" lon="11.1865625"><ele>193.0</ele><time>2026-03-28T11:55:15.972Z</time></trkpt><trkpt lat="43.8693599" lon="11.1865446"><ele>192.99999999999997</ele><time>2026-03-28T11:55:16.97Z</time></trkpt><trkpt lat="43.8692659" lon="11.1865366"><ele>193.0</ele><time>2026-03-28T11:55:18.035Z</time></trkpt><trkpt lat="43.8691745" lon="11.1865459"><ele>189.60000000000002</ele><time>2026-03-28T11:55:18.962Z</time></trkpt><trkpt lat="43.8690799" lon="11.1865373"><ele>186.20000000000002</ele><time>2026-03-28T11:55:19.965Z</time></trkpt><trkpt lat="43.8689832" lon="11.1865172"><ele>182.8</ele><time>2026-03-28T11:55:20.953Z</time></trkpt><trkpt lat="43.868887" lon="11.1864962"><ele>179.4</ele><time>2026-03-28T11:55:21.962Z</time></trkpt><trkpt lat="43.8687917" lon="11.1864731"><ele>176.0</ele><time>2026-03-28T11:55:22.975Z</time></trkpt><trkpt lat="43.8686968" lon="11.1864544"><ele>174.33333333333331</ele><time>2026-03-28T11:55:23.969Z</time></trkpt><trkpt lat="43.8686102" lon="11.1864379"><ele>172.66666666666666</ele><time>2026-03-28T11:55:24.966Z</time></trkpt><trkpt lat="43.868532" lon="11.186419"><ele>171.0</ele><time>2026-03-28T11:55:25.969Z</time></trkpt><trkpt lat="43.8684661" lon="11.1863952"><ele>169.33333333333334</ele><time>2026-03-28T11:55:27.03Z</time></trkpt><trkpt lat="43.8683514" lon="11.186298"><ele>167.66666666666669</ele><time>2026-03-28T11:55:28.963Z</time></trkpt><trkpt lat="43.8682913" lon="11.186233"><ele>166.0</ele><time>2026-03-28T11:55:29.974Z</time></trkpt><trkpt lat="43.8682341" lon="11.186179"><ele>164.16666666666669</ele><time>2026-03-28T11:55:30.959Z</time></trkpt><trkpt lat="43.8681717" lon="11.1861266"><ele>162.33333333333334</ele><time>2026-03-28T11:55:31.961Z</time></trkpt><trkpt lat="43.8681105" lon="11.1860928"><ele>160.5</ele><time>2026-03-28T11:55:32.961Z</time></trkpt><trkpt lat="43.8680462" lon="11.186063"><ele>158.66666666666666</ele><time>2026-03-28T11:55:33.97Z</time></trkpt><trkpt lat="43.8679815" lon="11.1860291"><ele>156.83333333333331</ele><time>2026-03-28T11:55:34.972Z</time></trkpt><trkpt lat="43.8678965" lon="11.1859904"><ele>155.0</ele><time>2026-03-28T11:55:36.028Z</time></trkpt><trkpt lat="43.8677935" lon="11.1859404"><ele>155.0</ele><time>2026-03-28T11:55:36.978Z</time></trkpt><trkpt lat="43.8676859" lon="11.185897"><ele>155.0</ele><time>2026-03-28T11:55:37.978Z</time></trkpt><trkpt lat="43.867584" lon="11.1858502"><ele>155.0</ele><time>2026-03-28T11:55:38.979Z</time></trkpt><trkpt lat="43.8674857" lon="11.1858114"><ele>155.0</ele><time>2026-03-28T11:55:39.972Z</time></trkpt><trkpt lat="43.8673839" lon="11.1857883"><ele>155.0</ele><time>2026-03-28T11:55:40.971Z</time></trkpt><trkpt lat="43.8672821" lon="11.1857653"><ele>153.6</ele><time>2026-03-28T11:55:41.977Z</time></trkpt><trkpt lat="43.8671831" lon="11.1857489"><ele>152.2</ele><time>2026-03-28T11:55:42.973Z</time></trkpt><trkpt lat="43.8670841" lon="11.1857515"><ele>150.8</ele><time>2026-03-28T11:55:43.975Z</time></trkpt><trkpt lat="43.8669927" lon="11.1857513"><ele>149.4</ele><time>2026-03-28T11:55:44.961Z</time></trkpt><trkpt lat="43.8669047" lon="11.1857697"><ele>148.0</ele><time>2026-03-28T11:55:45.973Z</time></trkpt><trkpt lat="43.8668264" lon="11.1858001"><ele>145.0</ele><time>2026-03-28T11:55:46.983Z</time></trkpt><trkpt lat="43.8667601" lon="11.1858313"><ele>142.0</ele><time>2026-03-28T11:55:47.98Z</time></trkpt><trkpt lat="43.8666609" lon="11.1858386"><ele>139.0</ele><time>2026-03-28T11:55:49.976Z</time></trkpt><trkpt lat="43.866594" lon="11.1857045"><ele>136.0</ele><time>2026-03-28T11:55:51.969Z</time></trkpt><trkpt lat="43.8665877" lon="11.1855793"><ele>133.0</ele><time>2026-03-28T11:55:52.972Z</time></trkpt><trkpt lat="43.8665939" lon="11.1854294"><ele>131.4</ele><time>2026-03-28T11:55:53.966Z</time></trkpt><trkpt lat="43.8665987" lon="11.1852928"><ele>129.8</ele><time>2026-03-28T11:55:54.979Z</time></trkpt><trkpt lat="43.8666005" lon="11.1851853"><ele>128.2</ele><time>2026-03-28T11:55:55.971Z</time></trkpt><trkpt lat="43.8665791" lon="11.1850514"><ele>126.6</ele><time>2026-03-28T11:55:58.028Z</time></trkpt><trkpt lat="43.866467" lon="11.1850329"><ele>125.0</ele><time>2026-03-28T11:55:59.966Z</time></trkpt><trkpt lat="43.8663902" lon="11.1850745"><ele>125.0</ele><time>2026-03-28T11:56:00.966Z</time></trkpt><trkpt lat="43.8663056" lon="11.1850967"><ele>125.0</ele><time>2026-03-28T11:56:01.988Z</time></trkpt><trkpt lat="43.8662096" lon="11.1851102"><ele>125.0</ele><time>2026-03-28T11:56:02.946Z</time></trkpt><trkpt lat="43.8661108" lon="11.1851224"><ele>125.0</ele><time>2026-03-28T11:56:03.956Z</time></trkpt><trkpt lat="43.8660114" lon="11.1851301"><ele>125.0</ele><time>2026-03-28T11:56:04.962Z</time></trkpt><trkpt lat="43.8659184" lon="11.1851263"><ele>123.4</ele><time>2026-03-28T11:56:05.959Z</time></trkpt><trkpt lat="43.8658271" lon="11.1851118"><ele>121.8</ele><time>2026-03-28T11:56:06.963Z</time></trkpt><trkpt lat="43.8657403" lon="11.1850889"><ele>120.19999999999999</ele><time>2026-03-28T11:56:07.959Z</time></trkpt><trkpt lat="43.8656508" lon="11.1850689"><ele>118.6</ele><time>2026-03-28T11:56:08.953Z</time></trkpt><trkpt lat="43.8655627" lon="11.1850512"><ele>117.0</ele><time>2026-03-28T11:56:09.957Z</time></trkpt><trkpt lat="43.865474" lon="11.1850316"><ele>117.0</ele><time>2026-03-28T11:56:10.951Z</time></trkpt><trkpt lat="43.8653863" lon="11.1850025"><ele>116.99999999999999</ele><time>2026-03-28T11:56:11.966Z</time></trkpt><trkpt lat="43.8652969" lon="11.1849645"><ele>116.99999999999999</ele><time>2026-03-28T11:56:12.969Z</time></trkpt><trkpt lat="43.8652055" lon="11.1849196"><ele>117.0</ele><time>2026-03-28T11:56:13.972Z</time></trkpt><trkpt lat="43.8651112" lon="11.1848827"><ele>117.0</ele><time>2026-03-28T11:56:15.037Z</time></trkpt><trkpt lat="43.8650246" lon="11.1848445"><ele>115.66666666666667</ele><time>2026-03-28T11:56:15.958Z</time></trkpt><trkpt lat="43.8649533" lon="11.1848107"><ele>114.33333333333334</ele><time>2026-03-28T11:56:16.973Z</time></trkpt><trkpt lat="43.8648893" lon="11.1847873"><ele>113.0</ele><time>2026-03-28T11:56:18.965Z</time></trkpt><trkpt lat="43.8648601" lon="11.184888"><ele>111.66666666666667</ele><time>2026-03-28T11:56:24.956Z</time></trkpt><trkpt lat="43.8648702" lon="11.1850384"><ele>110.33333333333334</ele><time>2026-03-28T11:56:26.965Z</time></trkpt><trkpt lat="43.8648778" lon="11.1851384"><ele>109.0</ele><time>2026-03-28T11:56:27.97Z</time></trkpt><trkpt lat="43.8648818" lon="11.1852444"><ele>109.0</ele><time>2026-03-28T11:56:28.976Z</time></trkpt><trkpt lat="43.864883" lon="11.1853679"><ele>109.0</ele><time>2026-03-28T11:56:29.947Z</time></trkpt><trkpt lat="43.8648755" lon="11.1855009"><ele>109.0</ele><time>2026-03-28T11:56:30.97Z</time></trkpt><trkpt lat="43.8648735" lon="11.1856463"><ele>109.0</ele><time>2026-03-28T11:56:31.965Z</time></trkpt><trkpt lat="43.8648745" lon="11.1857976"><ele>109.0</ele><time>2026-03-28T11:56:32.981Z</time></trkpt><trkpt lat="43.8648722" lon="11.1859494"><ele>109.0</ele><time>2026-03-28T11:56:33.967Z</time></trkpt><trkpt lat="43.8648671" lon="11.1861098"><ele>109.0</ele><time>2026-03-28T11:56:34.961Z</time></trkpt><trkpt lat="43.8648616" lon="11.1862836"><ele>109.0</ele><time>2026-03-28T11:56:35.973Z</time></trkpt><trkpt lat="43.8648628" lon="11.1864679"><ele>109.0</ele><time>2026-03-28T11:56:36.966Z</time></trkpt><trkpt lat="43.8648705" lon="11.1866527"><ele>109.0</ele><time>2026-03-28T11:56:37.969Z</time></trkpt><trkpt lat="43.8648803" lon="11.1868375"><ele>109.0</ele><time>2026-03-28T11:56:38.967Z</time></trkpt><trkpt lat="43.8648853" lon="11.1870262"><ele>109.0</ele><time>2026-03-28T11:56:39.969Z</time></trkpt><trkpt lat="43.8648901" lon="11.1872178"><ele>109.0</ele><time>2026-03-28T11:56:40.974Z</time></trkpt><trkpt lat="43.8648938" lon="11.1874105"><ele>109.5</ele><time>2026-03-28T11:56:41.965Z</time></trkpt><trkpt lat="43.8648908" lon="11.1876035"><ele>110.0</ele><time>2026-03-28T11:56:42.963Z</time></trkpt><trkpt lat="43.8648965" lon="11.1877772"><ele>110.5</ele><time>2026-03-28T11:56:43.961Z</time></trkpt><trkpt lat="43.8648984" lon="11.1879382"><ele>111.0</ele><time>2026-03-28T11:56:44.965Z</time></trkpt><trkpt lat="43.8649065" lon="11.1880845"><ele>111.5</ele><time>2026-03-28T11:56:45.967Z</time></trkpt><trkpt lat="43.8649142" lon="11.1882016"><ele>112.0</ele><time>2026-03-28T11:56:47.029Z</time></trkpt><trkpt lat="43.8649076" lon="11.1882939"><ele>112.5</ele><time>2026-03-28T11:56:48.028Z</time></trkpt><trkpt lat="43.8648825" lon="11.1883744"><ele>113.0</ele><time>2026-03-28T11:56:48.965Z</time></trkpt><trkpt lat="43.8648126" lon="11.1884293"><ele>113.5</ele><time>2026-03-28T11:56:49.97Z</time></trkpt><trkpt lat="43.8647306" lon="11.1884861"><ele>114.0</ele><time>2026-03-28T11:56:50.969Z</time></trkpt><trkpt lat="43.8646436" lon="11.1885431"><ele>114.0</ele><time>2026-03-28T11:56:52.002Z</time></trkpt><trkpt lat="43.8645605" lon="11.1885834"><ele>114.0</ele><time>2026-03-28T11:56:53.032Z</time></trkpt><trkpt lat="43.8644675" lon="11.1886072"><ele>114.0</ele><time>2026-03-28T11:56:53.964Z</time></trkpt><trkpt lat="43.8643695" lon="11.1886264"><ele>114.0</ele><time>2026-03-28T11:56:54.964Z</time></trkpt><trkpt lat="43.8642672" lon="11.1886502"><ele>114.0</ele><time>2026-03-28T11:56:55.973Z</time></trkpt><trkpt lat="43.8641618" lon="11.188674"><ele>112.6</ele><time>2026-03-28T11:56:56.962Z</time></trkpt><trkpt lat="43.8640546" lon="11.1886995"><ele>111.2</ele><time>2026-03-28T11:56:57.959Z</time></trkpt><trkpt lat="43.8639446" lon="11.1887264"><ele>109.79999999999998</ele><time>2026-03-28T11:56:58.961Z</time></trkpt><trkpt lat="43.8638383" lon="11.1887542"><ele>108.39999999999999</ele><time>2026-03-28T11:56:59.954Z</time></trkpt><trkpt lat="43.8637376" lon="11.1887751"><ele>107.0</ele><time>2026-03-28T11:57:01.015Z</time></trkpt><trkpt lat="43.8636435" lon="11.1887906"><ele>106.99999999999999</ele><time>2026-03-28T11:57:01.959Z</time></trkpt><trkpt lat="43.863569" lon="11.1888029"><ele>107.0</ele><time>2026-03-28T11:57:02.962Z</time></trkpt><trkpt lat="43.8634713" lon="11.1888408"><ele>107.0</ele><time>2026-03-28T11:57:04.944Z</time></trkpt><trkpt lat="43.8634345" lon="11.188915"><ele>107.0</ele><time>2026-03-28T11:57:06.96Z</time></trkpt><trkpt lat="43.8634087" lon="11.1890121"><ele>106.99999999999999</ele><time>2026-03-28T11:57:08.963Z</time></trkpt><trkpt lat="43.8633769" lon="11.1891194"><ele>107.0</ele><time>2026-03-28T11:57:10.968Z</time></trkpt><trkpt lat="43.8632857" lon="11.1891878"><ele>106.83333333333333</ele><time>2026-03-28T11:57:12.973Z</time></trkpt><trkpt lat="43.8631695" lon="11.1892052"><ele>106.66666666666666</ele><time>2026-03-28T11:57:14.961Z</time></trkpt><trkpt lat="43.8631047" lon="11.1891965"><ele>106.5</ele><time>2026-03-28T11:57:15.975Z</time></trkpt><trkpt lat="43.8630394" lon="11.1891801"><ele>106.33333333333334</ele><time>2026-03-28T11:57:17.026Z</time></trkpt><trkpt lat="43.8629707" lon="11.1891616"><ele>106.16666666666667</ele><time>2026-03-28T11:57:18.029Z</time></trkpt><trkpt lat="43.8628979" lon="11.1891439"><ele>106.0</ele><time>2026-03-28T11:57:18.943Z</time></trkpt><trkpt lat="43.8628271" lon="11.1891377"><ele>106.0</ele><time>2026-03-28T11:57:19.967Z</time></trkpt><trkpt lat="43.862755" lon="11.1891225"><ele>106.0</ele><time>2026-03-28T11:57:20.955Z</time></trkpt><trkpt lat="43.8626796" lon="11.1891009"><ele>106.0</ele><time>2026-03-28T11:57:21.967Z</time></trkpt><trkpt lat="43.8626083" lon="11.1890696"><ele>106.0</ele><time>2026-03-28T11:57:22.964Z</time></trkpt><trkpt lat="43.8625391" lon="11.1890279"><ele>106.0</ele><time>2026-03-28T11:57:23.939Z</time></trkpt><trkpt lat="43.8624726" lon="11.1889838"><ele>106.0</ele><time>2026-03-28T11:57:25.031Z</time></trkpt><trkpt lat="43.8624106" lon="11.1889375"><ele>106.0</ele><time>2026-03-28T11:57:26.039Z</time></trkpt><trkpt lat="43.8623156" lon="11.1888419"><ele>106.0</ele><time>2026-03-28T11:57:27.957Z</time></trkpt><trkpt lat="43.8622135" lon="11.1887187"><ele>106.0</ele><time>2026-03-28T11:57:29.957Z</time></trkpt><trkpt lat="43.8621602" lon="11.1886311"><ele>106.0</ele><time>2026-03-28T11:57:30.965Z</time></trkpt><trkpt lat="43.862111" lon="11.1885317"><ele>106.0</ele><time>2026-03-28T11:57:31.957Z</time></trkpt><trkpt lat="43.8620727" lon="11.1884202"><ele>106.0</ele><time>2026-03-28T11:57:32.963Z</time></trkpt><trkpt lat="43.8620496" lon="11.1882902"><ele>104.75</ele><time>2026-03-28T11:57:33.962Z</time></trkpt><trkpt lat="43.8620312" lon="11.1881574"><ele>103.5</ele><time>2026-03-28T11:57:34.966Z</time></trkpt><trkpt lat="43.8619907" lon="11.1880173"><ele>102.25</ele><time>2026-03-28T11:57:35.955Z</time></trkpt><trkpt lat="43.8619206" lon="11.1878703"><ele>101.0</ele><time>2026-03-28T11:57:36.953Z</time></trkpt><trkpt lat="43.8618402" lon="11.1877201"><ele>101.0</ele><time>2026-03-28T11:57:37.959Z</time></trkpt><trkpt lat="43.8617598" lon="11.1875722"><ele>101.0</ele><time>2026-03-28T11:57:38.958Z</time></trkpt><trkpt lat="43.8616746" lon="11.1874142"><ele>101.0</ele><time>2026-03-28T11:57:39.967Z</time></trkpt><trkpt lat="43.8615872" lon="11.1872571"><ele>101.0</ele><time>2026-03-28T11:57:40.998Z</time></trkpt><trkpt lat="43.8614972" lon="11.1870983"><ele>101.0</ele><time>2026-03-28T11:57:41.962Z</time></trkpt><trkpt lat="43.8613995" lon="11.1869378"><ele>101.0</ele><time>2026-03-28T11:57:42.959Z</time></trkpt><trkpt lat="43.8613035" lon="11.1867885"><ele>101.0</ele><time>2026-03-28T11:57:43.957Z</time></trkpt><trkpt lat="43.8612087" lon="11.1866392"><ele>101.0</ele><time>2026-03-28T11:57:44.964Z</time></trkpt><trkpt lat="43.8611141" lon="11.1864965"><ele>101.0</ele><time>2026-03-28T11:57:45.964Z</time></trkpt><trkpt lat="43.8610346" lon="11.1863477"><ele>101.0</ele><time>2026-03-28T11:57:46.958Z</time></trkpt><trkpt lat="43.8609667" lon="11.1862083"><ele>101.0</ele><time>2026-03-28T11:57:47.95Z</time></trkpt><trkpt lat="43.8609047" lon="11.1860626"><ele>101.0</ele><time>2026-03-28T11:57:48.95Z</time></trkpt><trkpt lat="43.8608625" lon="11.1859058"><ele>101.0</ele><time>2026-03-28T11:57:49.965Z</time></trkpt><trkpt lat="43.8608246" lon="11.185743"><ele>101.0</ele><time>2026-03-28T11:57:50.96Z</time></trkpt><trkpt lat="43.8607559" lon="11.185579"><ele>101.0</ele><time>2026-03-28T11:57:51.997Z</time></trkpt><trkpt lat="43.8606687" lon="11.18542"><ele>101.0</ele><time>2026-03-28T11:57:52.962Z</time></trkpt><trkpt lat="43.8605835" lon="11.1852594"><ele>100.5</ele><time>2026-03-28T11:57:53.958Z</time></trkpt><trkpt lat="43.8605008" lon="11.1850934"><ele>100.0</ele><time>2026-03-28T11:57:54.943Z</time></trkpt><trkpt lat="43.8604125" lon="11.184925"><ele>99.5</ele><time>2026-03-28T11:57:55.96Z</time></trkpt><trkpt lat="43.8603106" lon="11.1847679"><ele>99.0</ele><time>2026-03-28T11:57:56.962Z</time></trkpt><trkpt lat="43.8601952" lon="11.1846256"><ele>98.33333333333334</ele><time>2026-03-28T11:57:57.964Z</time></trkpt><trkpt lat="43.8600676" lon="11.1844959"><ele>97.66666666666667</ele><time>2026-03-28T11:57:58.959Z</time></trkpt><trkpt lat="43.8599364" lon="11.184372"><ele>97.0</ele><time>2026-03-28T11:57:59.966Z</time></trkpt><trkpt lat="43.8598067" lon="11.1842461"><ele>97.0</ele><time>2026-03-28T11:58:00.967Z</time></trkpt><trkpt lat="43.8596773" lon="11.1841115"><ele>97.0</ele><time>2026-03-28T11:58:01.964Z</time></trkpt><trkpt lat="43.8595558" lon="11.1839816"><ele>97.0</ele><time>2026-03-28T11:58:02.956Z</time></trkpt><trkpt lat="43.8594409" lon="11.1838597"><ele>96.25</ele><time>2026-03-28T11:58:03.964Z</time></trkpt><trkpt lat="43.8593317" lon="11.1837415"><ele>95.5</ele><time>2026-03-28T11:58:04.959Z</time></trkpt><trkpt lat="43.8592199" lon="11.1836219"><ele>94.75</ele><time>2026-03-28T11:58:05.963Z</time></trkpt><trkpt lat="43.859103" lon="11.1835062"><ele>94.0</ele><time>2026-03-28T11:58:06.964Z</time></trkpt><trkpt lat="43.8589699" lon="11.1833828"><ele>94.0</ele><time>2026-03-28T11:58:07.964Z</time></trkpt><trkpt lat="43.8588395" lon="11.1832578"><ele>94.0</ele><time>2026-03-28T11:58:08.968Z</time></trkpt><trkpt lat="43.858709" lon="11.1831368"><ele>94.0</ele><time>2026-03-28T11:58:09.969Z</time></trkpt><trkpt lat="43.8585837" lon="11.1830174"><ele>92.33333333333333</ele><time>2026-03-28T11:58:10.961Z</time></trkpt><trkpt lat="43.8584604" lon="11.1829024"><ele>90.66666666666667</ele><time>2026-03-28T11:58:11.962Z</time></trkpt><trkpt lat="43.8583298" lon="11.1827913"><ele>89.0</ele><time>2026-03-28T11:58:12.965Z</time></trkpt><trkpt lat="43.8581951" lon="11.1826899"><ele>89.0</ele><time>2026-03-28T11:58:13.962Z</time></trkpt><trkpt lat="43.858061" lon="11.1825927"><ele>89.0</ele><time>2026-03-28T11:58:14.967Z</time></trkpt><trkpt lat="43.8579329" lon="11.1825011"><ele>89.0</ele><time>2026-03-28T11:58:15.965Z</time></trkpt><trkpt lat="43.8578051" lon="11.1824173"><ele>89.0</ele><time>2026-03-28T11:58:16.962Z</time></trkpt><trkpt lat="43.8576877" lon="11.1823207"><ele>88.75</ele><time>2026-03-28T11:58:17.965Z</time></trkpt><trkpt lat="43.8575786" lon="11.1822046"><ele>88.5</ele><time>2026-03-28T11:58:18.958Z</time></trkpt><trkpt lat="43.8574751" lon="11.1820741"><ele>88.25</ele><time>2026-03-28T11:58:19.965Z</time></trkpt><trkpt lat="43.8573824" lon="11.1819369"><ele>88.0</ele><time>2026-03-28T11:58:20.967Z</time></trkpt><trkpt lat="43.8572959" lon="11.1818048"><ele>88.0</ele><time>2026-03-28T11:58:21.965Z</time></trkpt><trkpt lat="43.8572244" lon="11.1816765"><ele>88.0</ele><time>2026-03-28T11:58:22.973Z</time></trkpt><trkpt lat="43.8571712" lon="11.1815426"><ele>88.0</ele><time>2026-03-28T11:58:23.966Z</time></trkpt><trkpt lat="43.8571448" lon="11.1813872"><ele>88.0</ele><time>2026-03-28T11:58:24.969Z</time></trkpt><trkpt lat="43.8571367" lon="11.1812135"><ele>86.5</ele><time>2026-03-28T11:58:25.961Z</time></trkpt><trkpt lat="43.8571346" lon="11.1810253"><ele>85.0</ele><time>2026-03-28T11:58:26.959Z</time></trkpt><trkpt lat="43.8571267" lon="11.1808214"><ele>83.5</ele><time>2026-03-28T11:58:27.962Z</time></trkpt><trkpt lat="43.857123" lon="11.1806095"><ele>82.0</ele><time>2026-03-28T11:58:28.943Z</time></trkpt><trkpt lat="43.8571206" lon="11.1803988"><ele>82.0</ele><time>2026-03-28T11:58:29.94Z</time></trkpt><trkpt lat="43.8571153" lon="11.180188"><ele>82.0</ele><time>2026-03-28T11:58:30.944Z</time></trkpt><trkpt lat="43.8571074" lon="11.1799898"><ele>82.0</ele><time>2026-03-28T11:58:32.038Z</time></trkpt><trkpt lat="43.8571001" lon="11.1798032"><ele>82.0</ele><time>2026-03-28T11:58:33.023Z</time></trkpt><trkpt lat="43.8570955" lon="11.1796232"><ele>81.39999999999999</ele><time>2026-03-28T11:58:33.973Z</time></trkpt><trkpt lat="43.8570945" lon="11.1794609"><ele>80.8</ele><time>2026-03-28T11:58:34.961Z</time></trkpt><trkpt lat="43.8570902" lon="11.17931"><ele>80.2</ele><time>2026-03-28T11:58:35.952Z</time></trkpt><trkpt lat="43.857092" lon="11.1791818"><ele>79.6</ele><time>2026-03-28T11:58:36.961Z</time></trkpt><trkpt lat="43.8570931" lon="11.1790585"><ele>79.0</ele><time>2026-03-28T11:58:37.959Z</time></trkpt><trkpt lat="43.8570562" lon="11.1789432"><ele>78.57142857142858</ele><time>2026-03-28T11:58:40.032Z</time></trkpt><trkpt lat="43.8569752" lon="11.1789285"><ele>78.14285714285714</ele><time>2026-03-28T11:58:41.956Z</time></trkpt><trkpt lat="43.8568952" lon="11.1789359"><ele>77.71428571428572</ele><time>2026-03-28T11:58:43.97Z</time></trkpt><trkpt lat="43.8568409" lon="11.1789851"><ele>77.28571428571429</ele><time>2026-03-28T12:00:24.953Z</time></trkpt><trkpt lat="43.8569037" lon="11.1789531"><ele>76.85714285714286</ele><time>2026-03-28T12:03:52.967Z</time></trkpt><trkpt lat="43.8568584" lon="11.178878"><ele>76.42857142857143</ele><time>2026-03-28T12:05:32.966Z</time></trkpt><trkpt lat="43.8567795" lon="11.178892"><ele>76.0</ele><time>2026-03-28T12:06:14.971Z</time></trkpt><trkpt lat="43.8568514" lon="11.17894"><ele>76.0</ele><time>2026-03-28T12:07:33.976Z</time></trkpt><trkpt lat="43.8569512" lon="11.1789616"><ele>76.0</ele><time>2026-03-28T12:07:34.956Z</time></trkpt><trkpt lat="43.8570459" lon="11.1789373"><ele>76.0</ele><time>2026-03-28T12:07:36.975Z</time></trkpt><trkpt lat="43.8571027" lon="11.1788925"><ele>76.0</ele><time>2026-03-28T12:07:47.975Z</time></trkpt><trkpt lat="43.8571369" lon="11.1787781"><ele>76.0</ele><time>2026-03-28T12:07:50.963Z</time></trkpt><trkpt lat="43.8571451" lon="11.1786885"><ele>76.0</ele><time>2026-03-28T12:07:53.964Z</time></trkpt><trkpt lat="43.8570649" lon="11.1786185"><ele>76.0</ele><time>2026-03-28T12:07:56.966Z</time></trkpt><trkpt lat="43.8569475" lon="11.1786004"><ele>76.0</ele><time>2026-03-28T12:07:58.974Z</time></trkpt><trkpt lat="43.8568782" lon="11.1786204"><ele>76.0</ele><time>2026-03-28T12:07:59.977Z</time></trkpt><trkpt lat="43.8568" lon="11.1786449"><ele>76.0</ele><time>2026-03-28T12:08:00.974Z</time></trkpt><trkpt lat="43.8567099" lon="11.1786813"><ele>76.0</ele><time>2026-03-28T12:08:01.968Z</time></trkpt><trkpt lat="43.8566126" lon="11.1787167"><ele>75.6</ele><time>2026-03-28T12:08:02.967Z</time></trkpt><trkpt lat="43.8565233" lon="11.1787564"><ele>75.19999999999999</ele><time>2026-03-28T12:08:03.967Z</time></trkpt><trkpt lat="43.8564346" lon="11.178799"><ele>74.80000000000001</ele><time>2026-03-28T12:08:04.975Z</time></trkpt><trkpt lat="43.8563491" lon="11.1788368"><ele>74.4</ele><time>2026-03-28T12:08:05.976Z</time></trkpt><trkpt lat="43.8562592" lon="11.178877"><ele>74.0</ele><time>2026-03-28T12:08:06.97Z</time></trkpt><trkpt lat="43.8561585" lon="11.178915"><ele>74.0</ele><time>2026-03-28T12:08:07.977Z</time></trkpt><trkpt lat="43.8560504" lon="11.1789513"><ele>74.0</ele><time>2026-03-28T12:08:08.966Z</time></trkpt><trkpt lat="43.8559422" lon="11.1789821"><ele>74.0</ele><time>2026-03-28T12:08:09.968Z</time></trkpt><trkpt lat="43.8558377" lon="11.1790086"><ele>74.0</ele><time>2026-03-28T12:08:10.975Z</time></trkpt><trkpt lat="43.8557331" lon="11.1790136"><ele>74.0</ele><time>2026-03-28T12:08:11.962Z</time></trkpt><trkpt lat="43.8556281" lon="11.1790061"><ele>74.0</ele><time>2026-03-28T12:08:12.972Z</time></trkpt><trkpt lat="43.8555202" lon="11.1789953"><ele>74.0</ele><time>2026-03-28T12:08:13.971Z</time></trkpt><trkpt lat="43.8554114" lon="11.1789917"><ele>74.0</ele><time>2026-03-28T12:08:14.972Z</time></trkpt><trkpt lat="43.8552984" lon="11.1790058"><ele>74.0</ele><time>2026-03-28T12:08:15.975Z</time></trkpt><trkpt lat="43.8551891" lon="11.1790253"><ele>74.0</ele><time>2026-03-28T12:08:16.968Z</time></trkpt><trkpt lat="43.8550989" lon="11.1790395"><ele>73.83333333333334</ele><time>2026-03-28T12:08:17.97Z</time></trkpt><trkpt lat="43.8550301" lon="11.179056"><ele>73.66666666666667</ele><time>2026-03-28T12:08:18.968Z</time></trkpt><trkpt lat="43.8549396" lon="11.179136"><ele>73.5</ele><time>2026-03-28T12:08:20.971Z</time></trkpt><trkpt lat="43.8549118" lon="11.1792186"><ele>73.33333333333333</ele><time>2026-03-28T12:08:21.972Z</time></trkpt><trkpt lat="43.8548975" lon="11.1793208"><ele>73.16666666666666</ele><time>2026-03-28T12:08:22.972Z</time></trkpt><trkpt lat="43.8548817" lon="11.1794147"><ele>73.0</ele><time>2026-03-28T12:08:23.97Z</time></trkpt><trkpt lat="43.8548546" lon="11.1794976"><ele>73.0</ele><time>2026-03-28T12:08:24.973Z</time></trkpt><trkpt lat="43.8547931" lon="11.1795442"><ele>73.0</ele><time>2026-03-28T12:08:25.974Z</time></trkpt><trkpt lat="43.8547213" lon="11.1795767"><ele>73.0</ele><time>2026-03-28T12:08:26.967Z</time></trkpt><trkpt lat="43.8546352" lon="11.1795721"><ele>73.0</ele><time>2026-03-28T12:08:27.953Z</time></trkpt><trkpt lat="43.8545458" lon="11.1795851"><ele>73.0</ele><time>2026-03-28T12:08:28.976Z</time></trkpt><trkpt lat="43.8544647" lon="11.1796181"><ele>73.0</ele><time>2026-03-28T12:08:29.972Z</time></trkpt><trkpt lat="43.854392" lon="11.1796851"><ele>73.0</ele><time>2026-03-28T12:08:30.978Z</time></trkpt><trkpt lat="43.8543233" lon="11.1797735"><ele>73.0</ele><time>2026-03-28T12:08:31.979Z</time></trkpt><trkpt lat="43.8542512" lon="11.1798624"><ele>73.0</ele><time>2026-03-28T12:08:32.973Z</time></trkpt><trkpt lat="43.8541712" lon="11.1799391"><ele>73.0</ele><time>2026-03-28T12:08:33.976Z</time></trkpt><trkpt lat="43.8540849" lon="11.1800106"><ele>73.0</ele><time>2026-03-28T12:08:34.972Z</time></trkpt><trkpt lat="43.8540085" lon="11.1800788"><ele>75.0</ele><time>2026-03-28T12:08:35.975Z</time></trkpt><trkpt lat="43.853938" lon="11.1801404"><ele>77.0</ele><time>2026-03-28T12:08:36.975Z</time></trkpt><trkpt lat="43.8538733" lon="11.1802253"><ele>79.0</ele><time>2026-03-28T12:08:37.991Z</time></trkpt><trkpt lat="43.8538113" lon="11.1803403"><ele>81.0</ele><time>2026-03-28T12:08:38.972Z</time></trkpt><trkpt lat="43.8537467" lon="11.1804533"><ele>83.0</ele><time>2026-03-28T12:08:39.969Z</time></trkpt><trkpt lat="43.8536807" lon="11.1805621"><ele>83.0</ele><time>2026-03-28T12:08:40.969Z</time></trkpt><trkpt lat="43.8536155" lon="11.1806669"><ele>83.0</ele><time>2026-03-28T12:08:41.966Z</time></trkpt><trkpt lat="43.8535476" lon="11.1807676"><ele>83.0</ele><time>2026-03-28T12:08:42.975Z</time></trkpt><trkpt lat="43.8534841" lon="11.1808657"><ele>83.0</ele><time>2026-03-28T12:08:43.974Z</time></trkpt><trkpt lat="43.8534355" lon="11.1809666"><ele>83.0</ele><time>2026-03-28T12:08:44.987Z</time></trkpt><trkpt lat="43.853396" lon="11.1810577"><ele>83.66666666666667</ele><time>2026-03-28T12:08:45.976Z</time></trkpt><trkpt lat="43.853356" lon="11.1811569"><ele>84.33333333333334</ele><time>2026-03-28T12:08:46.955Z</time></trkpt><trkpt lat="43.8533175" lon="11.1812476"><ele>85.0</ele><time>2026-03-28T12:08:47.958Z</time></trkpt><trkpt lat="43.8532767" lon="11.1813322"><ele>85.66666666666667</ele><time>2026-03-28T12:08:48.966Z</time></trkpt><trkpt lat="43.8532289" lon="11.1814049"><ele>86.33333333333333</ele><time>2026-03-28T12:08:49.971Z</time></trkpt><trkpt lat="43.8531746" lon="11.1814701"><ele>87.0</ele><time>2026-03-28T12:08:50.969Z</time></trkpt><trkpt lat="43.8531171" lon="11.181541"><ele>89.5</ele><time>2026-03-28T12:08:51.963Z</time></trkpt><trkpt lat="43.8530687" lon="11.1816179"><ele>92.0</ele><time>2026-03-28T12:08:52.971Z</time></trkpt><trkpt lat="43.8530198" lon="11.1816991"><ele>94.5</ele><time>2026-03-28T12:08:53.966Z</time></trkpt><trkpt lat="43.852984" lon="11.1817797"><ele>97.0</ele><time>2026-03-28T12:08:54.95Z</time></trkpt><trkpt lat="43.8529357" lon="11.1819041"><ele>99.5</ele><time>2026-03-28T12:08:56.98Z</time></trkpt><trkpt lat="43.8528814" lon="11.1819557"><ele>102.0</ele><time>2026-03-28T12:08:58.97Z</time></trkpt><trkpt lat="43.8528216" lon="11.1819969"><ele>102.0</ele><time>2026-03-28T12:09:00.982Z</time></trkpt><trkpt lat="43.8527514" lon="11.1820462"><ele>102.0</ele><time>2026-03-28T12:09:02.97Z</time></trkpt><trkpt lat="43.8526821" lon="11.1820984"><ele>102.0</ele><time>2026-03-28T12:09:05.97Z</time></trkpt></trkseg></trk></gpx>